<?xml version='1.0' encoding='UTF-8'?><gpx version="1.1" creator="JPX - https://github.com/jenetics/jpx" xmlns="http://www.topografix.com/GPX/1/1"><trk><trkseg><trkpt lat="45.960148736380205" lon="12.607498449174368"><ele>30.0</ele><time>2026-03-29T08:00:07.998Z</time></trkpt><trkpt lat="45.96012143871957" lon="12.607403126446968"><ele>30.0</ele><time>2026-03-29T08:01:09Z</time></trkpt><trkpt lat="45.960092871655945" lon="12.607287522911756"><ele>30.0</ele><time>2026-03-29T08:01:11Z</time></trkpt><trkpt lat="45.96006598882723" lon="12.607164432591201"><ele>30.0</ele><time>2026-03-29T08:01:14Z</time></trkpt><trkpt lat="45.960012839179036" lon="12.607102865395623"><ele>30.0</ele><time>2026-03-29T08:01:16Z</time></trkpt><trkpt lat="45.96001066091846" lon="12.607006739748808"><ele>30.0</ele><time>2026-03-29T08:01:20Z</time></trkpt><trkpt lat="45.960157903932675" lon="12.606940932276206"><ele>30.0</ele><time>2026-03-29T08:01:22Z</time></trkpt><trkpt lat="45.96022959471734" lon="12.606903223708885"><ele>30.0</ele><time>2026-03-29T08:01:23Z</time></trkpt><trkpt lat="45.96030795889306" lon="12.606887175081237"><ele>30.0</ele><time>2026-03-29T08:01:23.999Z</time></trkpt><trkpt lat="45.96038491811714" lon="12.606838393425429"><ele>30.0</ele><time>2026-03-29T08:01:24.999Z</time></trkpt><trkpt lat="45.96044598619095" lon="12.60676395840117"><ele>30.0</ele><time>2026-03-29T08:01:25.999Z</time></trkpt><trkpt lat="45.96050455281966" lon="12.606697349162477"><ele>30.0</ele><time>2026-03-29T08:01:26.999Z</time></trkpt><trkpt lat="45.960557350366706" lon="12.606605170510106"><ele>30.0</ele><time>2026-03-29T08:01:27.999Z</time></trkpt><trkpt lat="45.96059702383226" lon="12.606496096657946"><ele>30.0</ele><time>2026-03-29T08:01:28.999Z</time></trkpt><trkpt lat="45.96061887478566" lon="12.606375679377539"><ele>30.0</ele><time>2026-03-29T08:01:29.999Z</time></trkpt><trkpt lat="45.960631554841754" lon="12.60624463236781"><ele>30.0</ele><time>2026-03-29T08:01:30.999Z</time></trkpt><trkpt lat="45.960636961228104" lon="12.606108974435978"><ele>30.0</ele><time>2026-03-29T08:01:31.999Z</time></trkpt><trkpt lat="45.96064254625482" lon="12.605973333050713"><ele>30.0</ele><time>2026-03-29T08:01:32.999Z</time></trkpt><trkpt lat="45.96063977596322" lon="12.605831720023813"><ele>30.0</ele><time>2026-03-29T08:01:33.999Z</time></trkpt><trkpt lat="45.960617304128" lon="12.605688194408712"><ele>30.0</ele><time>2026-03-29T08:01:34.999Z</time></trkpt><trkpt lat="45.960585295215644" lon="12.605550242624028"><ele>30.0</ele><time>2026-03-29T08:01:35.999Z</time></trkpt><trkpt lat="45.960548322618855" lon="12.605415403748035"><ele>30.0</ele><time>2026-03-29T08:01:36.999Z</time></trkpt><trkpt lat="45.96051187844913" lon="12.60527849613842"><ele>30.2</ele><time>2026-03-29T08:01:37.999Z</time></trkpt><trkpt lat="45.96047646981399" lon="12.605141815982504"><ele>30.4</ele><time>2026-03-29T08:01:38.999Z</time></trkpt><trkpt lat="45.960439579933414" lon="12.60500677139167"><ele>30.6</ele><time>2026-03-29T08:01:39.999Z</time></trkpt><trkpt lat="45.96040549647552" lon="12.60486904027257"><ele>30.8</ele><time>2026-03-29T08:01:40.999Z</time></trkpt><trkpt lat="45.960374523751355" lon="12.604731279216722"><ele>31.0</ele><time>2026-03-29T08:01:41.999Z</time></trkpt><trkpt lat="45.96033760396924" lon="12.604595937463323"><ele>30.8</ele><time>2026-03-29T08:01:42.999Z</time></trkpt><trkpt lat="45.960314866101" lon="12.604449793303269"><ele>30.6</ele><time>2026-03-29T08:01:43.999Z</time></trkpt><trkpt lat="45.96027954605138" lon="12.604307434434995"><ele>30.4</ele><time>2026-03-29T08:01:44.999Z</time></trkpt><trkpt lat="45.96023703647128" lon="12.604160760695072"><ele>30.2</ele><time>2026-03-29T08:01:45.999Z</time></trkpt><trkpt lat="45.96019388535358" lon="12.604014639558937"><ele>30.0</ele><time>2026-03-29T08:01:46.999Z</time></trkpt><trkpt lat="45.96015649626291" lon="12.603859760433767"><ele>30.0</ele><time>2026-03-29T08:01:47.999Z</time></trkpt><trkpt lat="45.960114796170714" lon="12.603703643159507"><ele>30.0</ele><time>2026-03-29T08:01:48.999Z</time></trkpt><trkpt lat="45.96007474189218" lon="12.603545358071365"><ele>30.0</ele><time>2026-03-29T08:01:49.999Z</time></trkpt><trkpt lat="45.96003616538412" lon="12.603392127319665"><ele>30.0</ele><time>2026-03-29T08:01:50.999Z</time></trkpt><trkpt lat="45.96000068816411" lon="12.603238493925533"><ele>29.75</ele><time>2026-03-29T08:01:51.999Z</time></trkpt><trkpt lat="45.95996628561763" lon="12.603083760390962"><ele>29.5</ele><time>2026-03-29T08:01:52.999Z</time></trkpt><trkpt lat="45.95993028854265" lon="12.602927545325478"><ele>29.25</ele><time>2026-03-29T08:01:53.999Z</time></trkpt><trkpt lat="45.95988993006727" lon="12.602772077688355"><ele>29.0</ele><time>2026-03-29T08:01:54.999Z</time></trkpt><trkpt lat="45.959848706930735" lon="12.602614734609224"><ele>29.0</ele><time>2026-03-29T08:01:55.999Z</time></trkpt><trkpt lat="45.959809402965675" lon="12.602454503278889"><ele>29.0</ele><time>2026-03-29T08:01:56.999Z</time></trkpt><trkpt lat="45.9597725105686" lon="12.602288439421239"><ele>29.0</ele><time>2026-03-29T08:01:57.999Z</time></trkpt><trkpt lat="45.95972898295968" lon="12.602120895850929"><ele>29.0</ele><time>2026-03-29T08:01:58.999Z</time></trkpt><trkpt lat="45.959683713283866" lon="12.601951843376256"><ele>29.25</ele><time>2026-03-29T08:01:59.999Z</time></trkpt><trkpt lat="45.95963945207574" lon="12.601783056109747"><ele>29.5</ele><time>2026-03-29T08:02:00.999Z</time></trkpt><trkpt lat="45.95960060969058" lon="12.601610110281172"><ele>29.75</ele><time>2026-03-29T08:02:01.999Z</time></trkpt><trkpt lat="45.95955914430718" lon="12.601437060301283"><ele>30.0</ele><time>2026-03-29T08:02:02.999Z</time></trkpt><trkpt lat="45.95951361155482" lon="12.601264122525942"><ele>30.0</ele><time>2026-03-29T08:02:03.999Z</time></trkpt><trkpt lat="45.95947404553348" lon="12.601089368335058"><ele>30.0</ele><time>2026-03-29T08:02:04.999Z</time></trkpt><trkpt lat="45.959434968215334" lon="12.600908729583033"><ele>30.0</ele><time>2026-03-29T08:02:05.999Z</time></trkpt><trkpt lat="45.95939090310953" lon="12.600731481643447"><ele>30.0</ele><time>2026-03-29T08:02:06.999Z</time></trkpt><trkpt lat="45.95934372958566" lon="12.600558867883626"><ele>30.0</ele><time>2026-03-29T08:02:07.999Z</time></trkpt><trkpt lat="45.95930040627976" lon="12.6003906307252"><ele>30.0</ele><time>2026-03-29T08:02:08.999Z</time></trkpt><trkpt lat="45.95925706584058" lon="12.600226448757395"><ele>30.0</ele><time>2026-03-29T08:02:09.999Z</time></trkpt><trkpt lat="45.95921490083267" lon="12.600076721761367"><ele>30.0</ele><time>2026-03-29T08:02:10.999Z</time></trkpt><trkpt lat="45.959164525386164" lon="12.599944817438484"><ele>30.25</ele><time>2026-03-29T08:02:11.999Z</time></trkpt><trkpt lat="45.959103550931076" lon="12.599814601644473"><ele>30.5</ele><time>2026-03-29T08:02:12.999Z</time></trkpt><trkpt lat="45.95904255795105" lon="12.59967883631997"><ele>30.75</ele><time>2026-03-29T08:02:13.999Z</time></trkpt><trkpt lat="45.958982521107345" lon="12.599536088122349"><ele>31.0</ele><time>2026-03-29T08:02:14.999Z</time></trkpt><trkpt lat="45.95891898439673" lon="12.599391146497657"><ele>31.0</ele><time>2026-03-29T08:02:15.999Z</time></trkpt><trkpt lat="45.95885351975504" lon="12.599243208591979"><ele>31.0</ele><time>2026-03-29T08:02:16.999Z</time></trkpt><trkpt lat="45.95878945873375" lon="12.599090369755805"><ele>31.0</ele><time>2026-03-29T08:02:17.999Z</time></trkpt><trkpt lat="45.958723642702154" lon="12.598934224946566"><ele>31.0</ele><time>2026-03-29T08:02:18.999Z</time></trkpt><trkpt lat="45.95865129232664" lon="12.598777666519725"><ele>30.75</ele><time>2026-03-29T08:02:19.999Z</time></trkpt><trkpt lat="45.958578915804964" lon="12.598619655387992"><ele>30.5</ele><time>2026-03-29T08:02:20.999Z</time></trkpt><trkpt lat="45.95852045008924" lon="12.59845055345104"><ele>30.25</ele><time>2026-03-29T08:02:21.999Z</time></trkpt><trkpt lat="45.95845223971674" lon="12.598289640263756"><ele>30.0</ele><time>2026-03-29T08:02:22.999Z</time></trkpt><trkpt lat="45.95838286484215" lon="12.598129189028874"><ele>29.5</ele><time>2026-03-29T08:02:23.999Z</time></trkpt><trkpt lat="45.95831472383455" lon="12.597971472892983"><ele>29.0</ele><time>2026-03-29T08:02:24.999Z</time></trkpt><trkpt lat="45.958234752376335" lon="12.597831073383993"><ele>28.5</ele><time>2026-03-29T08:02:25.999Z</time></trkpt><trkpt lat="45.95817077534079" lon="12.597676542257899"><ele>28.0</ele><time>2026-03-29T08:02:26.999Z</time></trkpt><trkpt lat="45.95810767653694" lon="12.597522951691037"><ele>28.0</ele><time>2026-03-29T08:02:27.999Z</time></trkpt><trkpt lat="45.95804817394955" lon="12.597371469992348"><ele>27.999999999999996</ele><time>2026-03-29T08:02:28.999Z</time></trkpt><trkpt lat="45.957993919324124" lon="12.597225198201405"><ele>27.999999999999996</ele><time>2026-03-29T08:02:29.999Z</time></trkpt><trkpt lat="45.95796060411596" lon="12.597088418341842"><ele>28.0</ele><time>2026-03-29T08:02:30.999Z</time></trkpt><trkpt lat="45.95794449877537" lon="12.59696995440245"><ele>28.0</ele><time>2026-03-29T08:02:31.999Z</time></trkpt><trkpt lat="45.95792925501325" lon="12.59688170788124"><ele>28.0</ele><time>2026-03-29T08:02:32.999Z</time></trkpt><trkpt lat="45.95792981668864" lon="12.596782858694569"><ele>28.0</ele><time>2026-03-29T08:02:34.999Z</time></trkpt><trkpt lat="45.95793573537695" lon="12.596932354607437"><ele>28.0</ele><time>2026-03-29T08:02:38.999Z</time></trkpt><trkpt lat="45.957904608119804" lon="12.597011324467314"><ele>28.0</ele><time>2026-03-29T08:02:39.999Z</time></trkpt><trkpt lat="45.95793886788234" lon="12.597109070777543"><ele>28.0</ele><time>2026-03-29T08:02:40.999Z</time></trkpt><trkpt lat="45.95795187922502" lon="12.597203088541978"><ele>28.0</ele><time>2026-03-29T08:02:41.999Z</time></trkpt><trkpt lat="45.95797405921989" lon="12.597289836979002"><ele>28.0</ele><time>2026-03-29T08:02:42.999Z</time></trkpt><trkpt lat="45.95800368385585" lon="12.597371600648962"><ele>28.0</ele><time>2026-03-29T08:02:44Z</time></trkpt><trkpt lat="45.958063108290645" lon="12.597521186888367"><ele>27.999999999999996</ele><time>2026-03-29T08:02:46Z</time></trkpt><trkpt lat="45.95811802589281" lon="12.597661547356163"><ele>27.999999999999996</ele><time>2026-03-29T08:02:48Z</time></trkpt><trkpt lat="45.95815418916701" lon="12.597744889402135"><ele>28.0</ele><time>2026-03-29T08:02:49Z</time></trkpt><trkpt lat="45.95820673618967" lon="12.597841087258173"><ele>28.0</ele><time>2026-03-29T08:02:50Z</time></trkpt><trkpt lat="45.95826402701986" lon="12.597960513165043"><ele>28.0</ele><time>2026-03-29T08:02:51Z</time></trkpt><trkpt lat="45.95831940860618" lon="12.598101739962896"><ele>27.999999999999996</ele><time>2026-03-29T08:02:52Z</time></trkpt><trkpt lat="45.95837119031854" lon="12.598235485950713"><ele>27.999999999999996</ele><time>2026-03-29T08:02:53Z</time></trkpt><trkpt lat="45.95842497574731" lon="12.598376784404598"><ele>28.0</ele><time>2026-03-29T08:02:54Z</time></trkpt><trkpt lat="45.958480398241974" lon="12.598519605572054"><ele>28.0</ele><time>2026-03-29T08:02:55Z</time></trkpt><trkpt lat="45.958543872884434" lon="12.598661336884453"><ele>28.75</ele><time>2026-03-29T08:02:56Z</time></trkpt><trkpt lat="45.95860894558153" lon="12.598802970311832"><ele>29.5</ele><time>2026-03-29T08:02:57Z</time></trkpt><trkpt lat="45.95867599185078" lon="12.598947866289443"><ele>30.25</ele><time>2026-03-29T08:02:58Z</time></trkpt><trkpt lat="45.95874300335442" lon="12.599094706761235"><ele>31.0</ele><time>2026-03-29T08:02:59Z</time></trkpt><trkpt lat="45.95881126199268" lon="12.599244277476396"><ele>31.0</ele><time>2026-03-29T08:03:00Z</time></trkpt><trkpt lat="45.95887719020973" lon="12.599393805661059"><ele>31.0</ele><time>2026-03-29T08:03:01Z</time></trkpt><trkpt lat="45.958943179384754" lon="12.599546538026164"><ele>31.0</ele><time>2026-03-29T08:03:02Z</time></trkpt><trkpt lat="45.95901169724443" lon="12.599698849862586"><ele>31.0</ele><time>2026-03-29T08:03:03Z</time></trkpt><trkpt lat="45.95907597009378" lon="12.599851183579494"><ele>31.0</ele><time>2026-03-29T08:03:04Z</time></trkpt><trkpt lat="45.95913925408505" lon="12.600006143748743"><ele>31.0</ele><time>2026-03-29T08:03:05Z</time></trkpt><trkpt lat="45.95919957688353" lon="12.600164353145724"><ele>31.0</ele><time>2026-03-29T08:03:06Z</time></trkpt><trkpt lat="45.959249317206684" lon="12.600332614061646"><ele>31.0</ele><time>2026-03-29T08:03:07Z</time></trkpt><trkpt lat="45.95929242618882" lon="12.600508716494177"><ele>30.75</ele><time>2026-03-29T08:03:08Z</time></trkpt><trkpt lat="45.95933623983664" lon="12.600687081604718"><ele>30.5</ele><time>2026-03-29T08:03:09Z</time></trkpt><trkpt lat="45.95938511479558" lon="12.60086791364381"><ele>30.25</ele><time>2026-03-29T08:03:10Z</time></trkpt><trkpt lat="45.9594339956063" lon="12.601051660159818"><ele>30.0</ele><time>2026-03-29T08:03:11Z</time></trkpt><trkpt lat="45.95947945210649" lon="12.601239851266598"><ele>30.0</ele><time>2026-03-29T08:03:12Z</time></trkpt><trkpt lat="45.95952565253438" lon="12.601431874805314"><ele>30.0</ele><time>2026-03-29T08:03:13Z</time></trkpt><trkpt lat="45.959573272481556" lon="12.601623145406247"><ele>30.0</ele><time>2026-03-29T08:03:14Z</time></trkpt><trkpt lat="45.95962129720276" lon="12.601815195565758"><ele>30.0</ele><time>2026-03-29T08:03:15Z</time></trkpt><trkpt lat="45.95967128868108" lon="12.602004426365157"><ele>29.75</ele><time>2026-03-29T08:03:16Z</time></trkpt><trkpt lat="45.959717059993466" lon="12.602194429788398"><ele>29.5</ele><time>2026-03-29T08:03:17Z</time></trkpt><trkpt lat="45.95976179872764" lon="12.602384000173066"><ele>29.25</ele><time>2026-03-29T08:03:18Z</time></trkpt><trkpt lat="45.959808450819686" lon="12.602571261781945"><ele>29.0</ele><time>2026-03-29T08:03:19Z</time></trkpt><trkpt lat="45.959857347457415" lon="12.602755676022642"><ele>29.0</ele><time>2026-03-29T08:03:20Z</time></trkpt><trkpt lat="45.95990465868374" lon="12.602938667069854"><ele>29.0</ele><time>2026-03-29T08:03:21Z</time></trkpt><trkpt lat="45.95995078314369" lon="12.60312292266421"><ele>29.0</ele><time>2026-03-29T08:03:22Z</time></trkpt><trkpt lat="45.95999934127496" lon="12.603308351515844"><ele>29.0</ele><time>2026-03-29T08:03:23Z</time></trkpt><trkpt lat="45.960047490707055" lon="12.603494338251135"><ele>29.25</ele><time>2026-03-29T08:03:24Z</time></trkpt><trkpt lat="45.96009492729535" lon="12.603683021588225"><ele>29.5</ele><time>2026-03-29T08:03:25Z</time></trkpt><trkpt lat="45.96014013077125" lon="12.603869734730665"><ele>29.75</ele><time>2026-03-29T08:03:26Z</time></trkpt><trkpt lat="45.96018509526452" lon="12.604055568709656"><ele>30.0</ele><time>2026-03-29T08:03:27Z</time></trkpt><trkpt lat="45.9602256622482" lon="12.60422799659095"><ele>30.0</ele><time>2026-03-29T08:03:28Z</time></trkpt><trkpt lat="45.96026741197624" lon="12.604386403491253"><ele>30.0</ele><time>2026-03-29T08:03:29Z</time></trkpt><trkpt lat="45.96030795378604" lon="12.60451027565708"><ele>30.0</ele><time>2026-03-29T08:03:30Z</time></trkpt><trkpt lat="45.960319750253916" lon="12.604611884580828"><ele>30.0</ele><time>2026-03-29T08:03:31Z</time></trkpt><trkpt lat="45.96034550714822" lon="12.60471569914304"><ele>30.0</ele><time>2026-03-29T08:03:33Z</time></trkpt><trkpt lat="45.96059005087342" lon="12.604595469099563"><ele>30.0</ele><time>2026-03-29T08:03:34.999Z</time></trkpt><trkpt lat="45.960720422256784" lon="12.604490180170437"><ele>30.0</ele><time>2026-03-29T08:03:35.999Z</time></trkpt><trkpt lat="45.96086054862051" lon="12.604410675330646"><ele>30.0</ele><time>2026-03-29T08:03:36.999Z</time></trkpt><trkpt lat="45.96100661679852" lon="12.604345062891426"><ele>29.666666666666664</ele><time>2026-03-29T08:03:37.999Z</time></trkpt><trkpt lat="45.961156167874364" lon="12.604267738183903"><ele>29.333333333333332</ele><time>2026-03-29T08:03:38.999Z</time></trkpt><trkpt lat="45.96130937509081" lon="12.604203104539982"><ele>29.0</ele><time>2026-03-29T08:03:39.999Z</time></trkpt><trkpt lat="45.9614688475341" lon="12.604166940914068"><ele>29.0</ele><time>2026-03-29T08:03:40.999Z</time></trkpt><trkpt lat="45.961628435895264" lon="12.60415362511689"><ele>29.0</ele><time>2026-03-29T08:03:41.999Z</time></trkpt><trkpt lat="45.961787170399326" lon="12.604128447221967"><ele>29.0</ele><time>2026-03-29T08:03:42.999Z</time></trkpt><trkpt lat="45.96195195293489" lon="12.604047422152625"><ele>29.333333333333332</ele><time>2026-03-29T08:03:43.999Z</time></trkpt><trkpt lat="45.96213399219079" lon="12.60394027933796"><ele>29.666666666666664</ele><time>2026-03-29T08:03:44.999Z</time></trkpt><trkpt lat="45.962309193253155" lon="12.603795410713671"><ele>30.0</ele><time>2026-03-29T08:03:45.999Z</time></trkpt><trkpt lat="45.96247440389104" lon="12.60365649543307"><ele>31.0</ele><time>2026-03-29T08:03:46.999Z</time></trkpt><trkpt lat="45.962633483417896" lon="12.603523222227096"><ele>32.0</ele><time>2026-03-29T08:03:47.999Z</time></trkpt><trkpt lat="45.96279518233561" lon="12.6033811022164"><ele>33.0</ele><time>2026-03-29T08:03:48.999Z</time></trkpt><trkpt lat="45.962988475040426" lon="12.603307925367357"><ele>33.0</ele><time>2026-03-29T08:03:49.999Z</time></trkpt><trkpt lat="45.963176885068954" lon="12.603203205498206"><ele>33.0</ele><time>2026-03-29T08:03:50.999Z</time></trkpt><trkpt lat="45.96336901370927" lon="12.603150239515298"><ele>33.0</ele><time>2026-03-29T08:03:51.999Z</time></trkpt><trkpt lat="45.963548829383434" lon="12.603061141909228"><ele>33.333333333333336</ele><time>2026-03-29T08:03:52.999Z</time></trkpt><trkpt lat="45.96373272375053" lon="12.603016328771417"><ele>33.66666666666667</ele><time>2026-03-29T08:03:53.999Z</time></trkpt><trkpt lat="45.96391498610774" lon="12.603004709725626"><ele>34.0</ele><time>2026-03-29T08:03:54.999Z</time></trkpt><trkpt lat="45.96409512045757" lon="12.603019488198116"><ele>34.333333333333336</ele><time>2026-03-29T08:03:55.999Z</time></trkpt><trkpt lat="45.96427449345023" lon="12.60304271924096"><ele>34.666666666666664</ele><time>2026-03-29T08:03:56.999Z</time></trkpt><trkpt lat="45.964453359065196" lon="12.603067922833644"><ele>35.0</ele><time>2026-03-29T08:03:57.999Z</time></trkpt><trkpt lat="45.964625409485436" lon="12.603092840669115"><ele>35.0</ele><time>2026-03-29T08:03:58.999Z</time></trkpt><trkpt lat="45.96478273751951" lon="12.603111404673767"><ele>35.0</ele><time>2026-03-29T08:03:59.999Z</time></trkpt><trkpt lat="45.96493086928763" lon="12.603128362412146"><ele>35.0</ele><time>2026-03-29T08:04:00.999Z</time></trkpt><trkpt lat="45.96506605648724" lon="12.603148455332043"><ele>35.0</ele><time>2026-03-29T08:04:01.999Z</time></trkpt><trkpt lat="45.965198233460086" lon="12.603171758740137"><ele>35.0</ele><time>2026-03-29T08:04:02.999Z</time></trkpt><trkpt lat="45.965331734475086" lon="12.603186100187695"><ele>35.0</ele><time>2026-03-29T08:04:03.999Z</time></trkpt><trkpt lat="45.96546673634812" lon="12.603197718137908"><ele>35.0</ele><time>2026-03-29T08:04:04.999Z</time></trkpt><trkpt lat="45.96560028894319" lon="12.603206141904009"><ele>35.0</ele><time>2026-03-29T08:04:05.999Z</time></trkpt><trkpt lat="45.96573166938303" lon="12.603219353629337"><ele>35.5</ele><time>2026-03-29T08:04:06.999Z</time></trkpt><trkpt lat="45.96586374823364" lon="12.603236822094761"><ele>36.0</ele><time>2026-03-29T08:04:07.999Z</time></trkpt><trkpt lat="45.96600176143056" lon="12.603216507748487"><ele>36.5</ele><time>2026-03-29T08:04:08.999Z</time></trkpt><trkpt lat="45.966149708559804" lon="12.60318816274234"><ele>37.0</ele><time>2026-03-29T08:04:09.999Z</time></trkpt><trkpt lat="45.96629958251529" lon="12.603163900522334"><ele>37.0</ele><time>2026-03-29T08:04:10.999Z</time></trkpt><trkpt lat="45.96645431880531" lon="12.603143698151447"><ele>37.0</ele><time>2026-03-29T08:04:11.999Z</time></trkpt><trkpt lat="45.966611229872925" lon="12.603112703945417"><ele>37.0</ele><time>2026-03-29T08:04:12.999Z</time></trkpt><trkpt lat="45.96676854271987" lon="12.603082810135847"><ele>37.25</ele><time>2026-03-29T08:04:13.999Z</time></trkpt><trkpt lat="45.966915915122165" lon="12.603059925111822"><ele>37.5</ele><time>2026-03-29T08:04:14.999Z</time></trkpt><trkpt lat="45.96704980706743" lon="12.60304956359198"><ele>37.75</ele><time>2026-03-29T08:04:15.999Z</time></trkpt><trkpt lat="45.967175788402386" lon="12.603032098404666"><ele>38.0</ele><time>2026-03-29T08:04:16.999Z</time></trkpt><trkpt lat="45.96729504649424" lon="12.603014773249367"><ele>38.0</ele><time>2026-03-29T08:04:17.999Z</time></trkpt><trkpt lat="45.967410767913066" lon="12.603006278309927"><ele>38.0</ele><time>2026-03-29T08:04:18.999Z</time></trkpt><trkpt lat="45.96752622652109" lon="12.60302779911724"><ele>38.0</ele><time>2026-03-29T08:04:19.999Z</time></trkpt><trkpt lat="45.96764210518813" lon="12.603060955300956"><ele>38.0</ele><time>2026-03-29T08:04:20.999Z</time></trkpt><trkpt lat="45.96775102320074" lon="12.603090860015383"><ele>38.4</ele><time>2026-03-29T08:04:21.999Z</time></trkpt><trkpt lat="45.96785288244281" lon="12.60311315636125"><ele>38.8</ele><time>2026-03-29T08:04:22.999Z</time></trkpt><trkpt lat="45.967938504096736" lon="12.6031302569361"><ele>39.2</ele><time>2026-03-29T08:04:23.999Z</time></trkpt><trkpt lat="45.96803350970425" lon="12.603157327933314"><ele>39.6</ele><time>2026-03-29T08:04:24.999Z</time></trkpt><trkpt lat="45.968125178360204" lon="12.603181289146026"><ele>40.0</ele><time>2026-03-29T08:04:25.999Z</time></trkpt><trkpt lat="45.96822225555971" lon="12.603201682307223"><ele>40.0</ele><time>2026-03-29T08:04:26.999Z</time></trkpt><trkpt lat="45.96831763755069" lon="12.603218871311764"><ele>40.0</ele><time>2026-03-29T08:04:27.999Z</time></trkpt><trkpt lat="45.968410063565855" lon="12.603237038444844"><ele>40.0</ele><time>2026-03-29T08:04:28.999Z</time></trkpt><trkpt lat="45.9685036979696" lon="12.603248487272223"><ele>40.0</ele><time>2026-03-29T08:04:29.999Z</time></trkpt><trkpt lat="45.96859383049374" lon="12.603257530793636"><ele>40.0</ele><time>2026-03-29T08:04:30.999Z</time></trkpt><trkpt lat="45.968681152311134" lon="12.603267406545495"><ele>40.0</ele><time>2026-03-29T08:04:31.999Z</time></trkpt><trkpt lat="45.96877630594496" lon="12.603287319142867"><ele>40.0</ele><time>2026-03-29T08:04:32.999Z</time></trkpt><trkpt lat="45.96887746696311" lon="12.603306806651043"><ele>40.0</ele><time>2026-03-29T08:04:33.999Z</time></trkpt><trkpt lat="45.96898024986476" lon="12.603320216142606"><ele>40.0</ele><time>2026-03-29T08:04:34.999Z</time></trkpt><trkpt lat="45.96908067208707" lon="12.603332745860742"><ele>40.0</ele><time>2026-03-29T08:04:35.999Z</time></trkpt><trkpt lat="45.96916625791239" lon="12.603352476617715"><ele>40.0</ele><time>2026-03-29T08:04:36.999Z</time></trkpt><trkpt lat="45.96923926147354" lon="12.60337154952047"><ele>40.0</ele><time>2026-03-29T08:04:37.999Z</time></trkpt><trkpt lat="45.96933213431012" lon="12.60339629160352"><ele>40.0</ele><time>2026-03-29T08:04:39.999Z</time></trkpt><trkpt lat="45.96942637068689" lon="12.60336923940494"><ele>40.0</ele><time>2026-03-29T08:05:37Z</time></trkpt><trkpt lat="45.96949286821454" lon="12.60335728914105"><ele>40.0</ele><time>2026-03-29T08:05:38Z</time></trkpt><trkpt lat="45.96957801927874" lon="12.603341723902886"><ele>40.0</ele><time>2026-03-29T08:05:38.999Z</time></trkpt><trkpt lat="45.9696597911288" lon="12.603330578882677"><ele>40.0</ele><time>2026-03-29T08:05:39.999Z</time></trkpt><trkpt lat="45.969748274343175" lon="12.603322990741729"><ele>40.0</ele><time>2026-03-29T08:05:40.999Z</time></trkpt><trkpt lat="45.969843880436954" lon="12.603318534640646"><ele>40.0</ele><time>2026-03-29T08:05:41.999Z</time></trkpt><trkpt lat="45.96994590121995" lon="12.60332088443415"><ele>40.0</ele><time>2026-03-29T08:05:42.999Z</time></trkpt><trkpt lat="45.97005348694331" lon="12.603327777925255"><ele>40.0</ele><time>2026-03-29T08:05:43.999Z</time></trkpt><trkpt lat="45.97016500598222" lon="12.603342344223273"><ele>40.0</ele><time>2026-03-29T08:05:44.999Z</time></trkpt><trkpt lat="45.97028100218281" lon="12.603360014474088"><ele>40.0</ele><time>2026-03-29T08:05:45.999Z</time></trkpt><trkpt lat="45.970390070656656" lon="12.603379944711099"><ele>40.0</ele><time>2026-03-29T08:05:46.999Z</time></trkpt><trkpt lat="45.97049663448245" lon="12.603400998043252"><ele>40.0</ele><time>2026-03-29T08:05:47.999Z</time></trkpt><trkpt lat="45.970602898214835" lon="12.603431874826791"><ele>40.0</ele><time>2026-03-29T08:05:48.999Z</time></trkpt><trkpt lat="45.97070806120475" lon="12.60346424919816"><ele>40.0</ele><time>2026-03-29T08:05:49.999Z</time></trkpt><trkpt lat="45.97081508164943" lon="12.60349360938372"><ele>40.0</ele><time>2026-03-29T08:05:50.999Z</time></trkpt><trkpt lat="45.9709225589804" lon="12.60352345005484"><ele>40.0</ele><time>2026-03-29T08:05:51.999Z</time></trkpt><trkpt lat="45.97102906524611" lon="12.603548549449464"><ele>40.0</ele><time>2026-03-29T08:05:52.999Z</time></trkpt><trkpt lat="45.97113234544399" lon="12.60357455797648"><ele>40.0</ele><time>2026-03-29T08:05:53.999Z</time></trkpt><trkpt lat="45.971227203583666" lon="12.603598101485424"><ele>40.6</ele><time>2026-03-29T08:05:54.999Z</time></trkpt><trkpt lat="45.97131581986681" lon="12.603641544201222"><ele>41.2</ele><time>2026-03-29T08:05:55.999Z</time></trkpt><trkpt lat="45.971387791461076" lon="12.60368887358941"><ele>41.8</ele><time>2026-03-29T08:05:56.999Z</time></trkpt><trkpt lat="45.97147904234319" lon="12.60370257819991"><ele>42.4</ele><time>2026-03-29T08:05:57.999Z</time></trkpt><trkpt lat="45.97158319907942" lon="12.603712267711897"><ele>43.0</ele><time>2026-03-29T08:05:58.999Z</time></trkpt><trkpt lat="45.97169133720638" lon="12.603714878497332"><ele>43.25</ele><time>2026-03-29T08:05:59.999Z</time></trkpt><trkpt lat="45.971807133080475" lon="12.603741091989754"><ele>43.5</ele><time>2026-03-29T08:06:00.999Z</time></trkpt><trkpt lat="45.97193162336923" lon="12.603765882932262"><ele>43.75</ele><time>2026-03-29T08:06:01.999Z</time></trkpt><trkpt lat="45.972063533298275" lon="12.603796479936758"><ele>44.0</ele><time>2026-03-29T08:06:02.999Z</time></trkpt><trkpt lat="45.972215066336894" lon="12.603833998323028"><ele>44.0</ele><time>2026-03-29T08:06:03.999Z</time></trkpt><trkpt lat="45.9723997457741" lon="12.603869142738457"><ele>44.0</ele><time>2026-03-29T08:06:04.999Z</time></trkpt><trkpt lat="45.97260446260233" lon="12.60390063865667"><ele>44.0</ele><time>2026-03-29T08:06:05.999Z</time></trkpt><trkpt lat="45.97280796350078" lon="12.603937761487963"><ele>44.33333333333333</ele><time>2026-03-29T08:06:06.999Z</time></trkpt><trkpt lat="45.97300621046203" lon="12.603981703782978"><ele>44.666666666666664</ele><time>2026-03-29T08:06:07.999Z</time></trkpt><trkpt lat="45.97320060759031" lon="12.604027075995873"><ele>45.0</ele><time>2026-03-29T08:06:08.999Z</time></trkpt><trkpt lat="45.97337871385573" lon="12.6040673536344"><ele>45.333333333333336</ele><time>2026-03-29T08:06:09.999Z</time></trkpt><trkpt lat="45.97355525145725" lon="12.604103556412387"><ele>45.66666666666667</ele><time>2026-03-29T08:06:10.999Z</time></trkpt><trkpt lat="45.97375167271507" lon="12.60413564337419"><ele>46.0</ele><time>2026-03-29T08:06:11.999Z</time></trkpt><trkpt lat="45.97397906620155" lon="12.60417419751818"><ele>45.5</ele><time>2026-03-29T08:06:12.999Z</time></trkpt><trkpt lat="45.974228749182885" lon="12.604221791656684"><ele>45.0</ele><time>2026-03-29T08:06:13.999Z</time></trkpt><trkpt lat="45.974499876996525" lon="12.604274122109173"><ele>45.0</ele><time>2026-03-29T08:06:14.999Z</time></trkpt><trkpt lat="45.97477967700883" lon="12.604324087095199"><ele>45.0</ele><time>2026-03-29T08:06:15.999Z</time></trkpt><trkpt lat="45.97508005862712" lon="12.604382239134072"><ele>46.0</ele><time>2026-03-29T08:06:16.999Z</time></trkpt><trkpt lat="45.9753952954042" lon="12.604444367289197"><ele>47.0</ele><time>2026-03-29T08:06:17.999Z</time></trkpt><trkpt lat="45.97571278190775" lon="12.604508841912015"><ele>48.5</ele><time>2026-03-29T08:06:18.999Z</time></trkpt><trkpt lat="45.97602859761026" lon="12.604572204105887"><ele>50.0</ele><time>2026-03-29T08:06:19.999Z</time></trkpt><trkpt lat="45.97635577799714" lon="12.604637195066518"><ele>50.0</ele><time>2026-03-29T08:06:20.999Z</time></trkpt><trkpt lat="45.97666582772398" lon="12.604695883399327"><ele>50.0</ele><time>2026-03-29T08:06:21.999Z</time></trkpt><trkpt lat="45.97698191041235" lon="12.604749752418481"><ele>49.5</ele><time>2026-03-29T08:06:22.999Z</time></trkpt><trkpt lat="45.97728077321298" lon="12.60479012160789"><ele>49.0</ele><time>2026-03-29T08:06:23.999Z</time></trkpt><trkpt lat="45.97755312406282" lon="12.604819349346926"><ele>50.0</ele><time>2026-03-29T08:06:24.999Z</time></trkpt><trkpt lat="45.977804200992395" lon="12.604873656312522"><ele>51.0</ele><time>2026-03-29T08:06:25.999Z</time></trkpt><trkpt lat="45.97804744984274" lon="12.604905042366799"><ele>52.0</ele><time>2026-03-29T08:06:26.999Z</time></trkpt><trkpt lat="45.978387843218265" lon="12.604930828977842"><ele>53.0</ele><time>2026-03-29T08:06:27.999Z</time></trkpt><trkpt lat="45.97862281407644" lon="12.604955627417413"><ele>53.0</ele><time>2026-03-29T08:06:28.999Z</time></trkpt><trkpt lat="45.978839957527875" lon="12.604977853194832"><ele>53.0</ele><time>2026-03-29T08:06:29.999Z</time></trkpt><trkpt lat="45.97904242885743" lon="12.604984386457389"><ele>53.0</ele><time>2026-03-29T08:06:30.999Z</time></trkpt><trkpt lat="45.97923311349313" lon="12.604978735735322"><ele>53.66666666666667</ele><time>2026-03-29T08:06:31.999Z</time></trkpt><trkpt lat="45.9794092642011" lon="12.604972945848314"><ele>54.33333333333333</ele><time>2026-03-29T08:06:32.999Z</time></trkpt><trkpt lat="45.97956323074136" lon="12.604968051911932"><ele>55.0</ele><time>2026-03-29T08:06:33.999Z</time></trkpt><trkpt lat="45.979686688263186" lon="12.604962764977676"><ele>55.0</ele><time>2026-03-29T08:06:34.999Z</time></trkpt><trkpt lat="45.97977992107865" lon="12.604954114711434"><ele>55.0</ele><time>2026-03-29T08:06:35.999Z</time></trkpt><trkpt lat="45.97984289153469" lon="12.604961313994579"><ele>55.0</ele><time>2026-03-29T08:06:36.999Z</time></trkpt><trkpt lat="45.97990734476363" lon="12.604961830572584"><ele>55.0</ele><time>2026-03-29T08:06:38.999Z</time></trkpt><trkpt lat="45.97995219156287" lon="12.604697634300544"><ele>55.0</ele><time>2026-03-29T08:06:39.999Z</time></trkpt><trkpt lat="45.98000644388117" lon="12.604568742009906"><ele>55.0</ele><time>2026-03-29T08:06:40.999Z</time></trkpt><trkpt lat="45.980087534172036" lon="12.604379110128113"><ele>55.0</ele><time>2026-03-29T08:06:41.999Z</time></trkpt><trkpt lat="45.98018961513597" lon="12.604153777732838"><ele>55.0</ele><time>2026-03-29T08:06:42.999Z</time></trkpt><trkpt lat="45.980312278061945" lon="12.603898293718443"><ele>54.0</ele><time>2026-03-29T08:06:43.999Z</time></trkpt><trkpt lat="45.98043014053388" lon="12.603659627414537"><ele>53.0</ele><time>2026-03-29T08:06:44.999Z</time></trkpt><trkpt lat="45.98054988924965" lon="12.603468710654266"><ele>52.0</ele><time>2026-03-29T08:06:45.999Z</time></trkpt><trkpt lat="45.980647515670114" lon="12.603247737895725"><ele>52.0</ele><time>2026-03-29T08:06:46.999Z</time></trkpt><trkpt lat="45.98076069613815" lon="12.60307512811584"><ele>52.0</ele><time>2026-03-29T08:06:47.999Z</time></trkpt><trkpt lat="45.98086257947131" lon="12.602914189405814"><ele>52.0</ele><time>2026-03-29T08:06:48.999Z</time></trkpt><trkpt lat="45.98095450617248" lon="12.602769478315311"><ele>52.75</ele><time>2026-03-29T08:06:49.999Z</time></trkpt><trkpt lat="45.98101941009478" lon="12.60262480993541"><ele>53.5</ele><time>2026-03-29T08:06:50.999Z</time></trkpt><trkpt lat="45.98108202538066" lon="12.60251231045897"><ele>54.25</ele><time>2026-03-29T08:06:51.999Z</time></trkpt><trkpt lat="45.981138915233565" lon="12.602367864693889"><ele>55.0</ele><time>2026-03-29T08:06:52.999Z</time></trkpt><trkpt lat="45.981188954131035" lon="12.602158220930544"><ele>55.0</ele><time>2026-03-29T08:06:53.999Z</time></trkpt><trkpt lat="45.981254327723676" lon="12.601920702183678"><ele>55.0</ele><time>2026-03-29T08:06:55Z</time></trkpt><trkpt lat="45.98131997440509" lon="12.601629789557814"><ele>55.0</ele><time>2026-03-29T08:06:56Z</time></trkpt><trkpt lat="45.9813810215461" lon="12.60137030517735"><ele>55.0</ele><time>2026-03-29T08:06:57Z</time></trkpt><trkpt lat="45.98143988178831" lon="12.601147396959465"><ele>55.0</ele><time>2026-03-29T08:06:58Z</time></trkpt><trkpt lat="45.98149307126361" lon="12.60094530034018"><ele>55.0</ele><time>2026-03-29T08:06:59Z</time></trkpt><trkpt lat="45.98155218753787" lon="12.600759148068368"><ele>55.0</ele><time>2026-03-29T08:07:00Z</time></trkpt><trkpt lat="45.981610729787704" lon="12.600581023153149"><ele>55.0</ele><time>2026-03-29T08:07:01Z</time></trkpt><trkpt lat="45.981663760872415" lon="12.600412469755987"><ele>55.0</ele><time>2026-03-29T08:07:02Z</time></trkpt><trkpt lat="45.981714660950566" lon="12.600258175647488"><ele>55.0</ele><time>2026-03-29T08:07:03Z</time></trkpt><trkpt lat="45.981787278898025" lon="12.600088796822838"><ele>55.0</ele><time>2026-03-29T08:07:04Z</time></trkpt><trkpt lat="45.981855575899125" lon="12.599870867361192"><ele>55.0</ele><time>2026-03-29T08:07:05Z</time></trkpt><trkpt lat="45.98192216808538" lon="12.59963204208997"><ele>55.0</ele><time>2026-03-29T08:07:06Z</time></trkpt><trkpt lat="45.98198523803275" lon="12.599393294885262"><ele>55.0</ele><time>2026-03-29T08:07:07Z</time></trkpt><trkpt lat="45.98204770353405" lon="12.599157196216437"><ele>55.0</ele><time>2026-03-29T08:07:08Z</time></trkpt><trkpt lat="45.982108020541766" lon="12.598917043511069"><ele>55.0</ele><time>2026-03-29T08:07:09Z</time></trkpt><trkpt lat="45.98218089061634" lon="12.598667518621896"><ele>55.0</ele><time>2026-03-29T08:07:10Z</time></trkpt><trkpt lat="45.98225780622734" lon="12.598407949742382"><ele>55.0</ele><time>2026-03-29T08:07:11Z</time></trkpt><trkpt lat="45.982336613120964" lon="12.598164613752441"><ele>55.0</ele><time>2026-03-29T08:07:12Z</time></trkpt><trkpt lat="45.98241056945292" lon="12.59794879667025"><ele>55.33333333333333</ele><time>2026-03-29T08:07:13Z</time></trkpt><trkpt lat="45.98248268704271" lon="12.597737426373493"><ele>55.66666666666667</ele><time>2026-03-29T08:07:14Z</time></trkpt><trkpt lat="45.98255659290733" lon="12.597516739578568"><ele>56.0</ele><time>2026-03-29T08:07:15Z</time></trkpt><trkpt lat="45.9826310697846" lon="12.597292614320981"><ele>56.0</ele><time>2026-03-29T08:07:16Z</time></trkpt><trkpt lat="45.982704028773895" lon="12.597058969707039"><ele>56.0</ele><time>2026-03-29T08:07:17Z</time></trkpt><trkpt lat="45.982770481834834" lon="12.59685043895568"><ele>56.0</ele><time>2026-03-29T08:07:18Z</time></trkpt><trkpt lat="45.982833096598505" lon="12.59666608943766"><ele>56.0</ele><time>2026-03-29T08:07:19Z</time></trkpt><trkpt lat="45.982887041638605" lon="12.596501406727926"><ele>55.99999999999999</ele><time>2026-03-29T08:07:20Z</time></trkpt><trkpt lat="45.982941737140855" lon="12.596351292919097"><ele>55.99999999999999</ele><time>2026-03-29T08:07:21Z</time></trkpt><trkpt lat="45.982992791534684" lon="12.59622115876108"><ele>56.0</ele><time>2026-03-29T08:07:22Z</time></trkpt><trkpt lat="45.98303640888928" lon="12.596123884162159"><ele>56.0</ele><time>2026-03-29T08:07:23Z</time></trkpt><trkpt lat="45.98310672035773" lon="12.595986518410571"><ele>56.0</ele><time>2026-03-29T08:07:24Z</time></trkpt><trkpt lat="45.9831951853257" lon="12.595802700979682"><ele>56.0</ele><time>2026-03-29T08:07:25Z</time></trkpt><trkpt lat="45.98329318714982" lon="12.595607339786202"><ele>56.0</ele><time>2026-03-29T08:07:26Z</time></trkpt><trkpt lat="45.98338807252874" lon="12.595423425912474"><ele>56.5</ele><time>2026-03-29T08:07:27Z</time></trkpt><trkpt lat="45.9834684210472" lon="12.595265328836748"><ele>57.0</ele><time>2026-03-29T08:07:28Z</time></trkpt><trkpt lat="45.983535145359966" lon="12.595113841053138"><ele>57.5</ele><time>2026-03-29T08:07:29Z</time></trkpt><trkpt lat="45.98359019010675" lon="12.594968890621562"><ele>58.0</ele><time>2026-03-29T08:07:30Z</time></trkpt><trkpt lat="45.983642185165536" lon="12.594804767196658"><ele>58.0</ele><time>2026-03-29T08:07:31Z</time></trkpt><trkpt lat="45.9837046439646" lon="12.594592878801672"><ele>58.0</ele><time>2026-03-29T08:07:32Z</time></trkpt><trkpt lat="45.9837662584544" lon="12.594393711480729"><ele>58.0</ele><time>2026-03-29T08:07:33Z</time></trkpt><trkpt lat="45.98382194877279" lon="12.594206303528566"><ele>58.0</ele><time>2026-03-29T08:07:34Z</time></trkpt><trkpt lat="45.983871834608046" lon="12.594031395446837"><ele>58.0</ele><time>2026-03-29T08:07:35Z</time></trkpt><trkpt lat="45.98392036015349" lon="12.593866683845198"><ele>58.0</ele><time>2026-03-29T08:07:36Z</time></trkpt><trkpt lat="45.983972800795975" lon="12.593700198326056"><ele>58.0</ele><time>2026-03-29T08:07:37Z</time></trkpt><trkpt lat="45.98404117362157" lon="12.593489427587226"><ele>58.0</ele><time>2026-03-29T08:07:38Z</time></trkpt><trkpt lat="45.98411563574404" lon="12.593258740999298"><ele>58.0</ele><time>2026-03-29T08:07:39Z</time></trkpt><trkpt lat="45.98417288215198" lon="12.593082641948337"><ele>58.0</ele><time>2026-03-29T08:07:40Z</time></trkpt><trkpt lat="45.98421754280679" lon="12.59294902057708"><ele>58.0</ele><time>2026-03-29T08:07:41Z</time></trkpt><trkpt lat="45.98425368815446" lon="12.592841156778558"><ele>58.166666666666664</ele><time>2026-03-29T08:07:42Z</time></trkpt><trkpt lat="45.984281480002615" lon="12.592743180879472"><ele>58.33333333333333</ele><time>2026-03-29T08:07:43Z</time></trkpt><trkpt lat="45.98430573403286" lon="12.592640735970894"><ele>58.5</ele><time>2026-03-29T08:07:44Z</time></trkpt><trkpt lat="45.984333700710124" lon="12.592520985886729"><ele>58.66666666666667</ele><time>2026-03-29T08:07:45Z</time></trkpt><trkpt lat="45.98437378224577" lon="12.592421520825937"><ele>58.833333333333336</ele><time>2026-03-29T08:07:46Z</time></trkpt><trkpt lat="45.98442750461229" lon="12.592350198970632"><ele>59.0</ele><time>2026-03-29T08:07:47Z</time></trkpt><trkpt lat="45.98448993250624" lon="12.592299987271579"><ele>59.0</ele><time>2026-03-29T08:07:48Z</time></trkpt><trkpt lat="45.98456979616741" lon="12.592247653463302"><ele>59.00000000000001</ele><time>2026-03-29T08:07:49Z</time></trkpt><trkpt lat="45.98462996192145" lon="12.592180602910112"><ele>59.00000000000001</ele><time>2026-03-29T08:07:50Z</time></trkpt><trkpt lat="45.984662572718044" lon="12.592103020816488"><ele>59.0</ele><time>2026-03-29T08:07:50.999Z</time></trkpt><trkpt lat="45.98471313133334" lon="12.59198586480209"><ele>59.0</ele><time>2026-03-29T08:07:51.999Z</time></trkpt><trkpt lat="45.98476882743951" lon="12.591820053588775"><ele>58.5</ele><time>2026-03-29T08:07:52.999Z</time></trkpt><trkpt lat="45.984827747238725" lon="12.591647942553971"><ele>58.0</ele><time>2026-03-29T08:07:53.999Z</time></trkpt><trkpt lat="45.98488996372902" lon="12.591472750769528"><ele>57.5</ele><time>2026-03-29T08:07:54.999Z</time></trkpt><trkpt lat="45.984956397125806" lon="12.59129119524646"><ele>57.0</ele><time>2026-03-29T08:07:55.999Z</time></trkpt><trkpt lat="45.98502404937677" lon="12.591106309585673"><ele>58.25</ele><time>2026-03-29T08:07:56.999Z</time></trkpt><trkpt lat="45.98509161360056" lon="12.590921664155843"><ele>59.5</ele><time>2026-03-29T08:07:57.999Z</time></trkpt><trkpt lat="45.98516019951138" lon="12.590734226553483"><ele>60.75</ele><time>2026-03-29T08:07:58.999Z</time></trkpt><trkpt lat="45.98521546213697" lon="12.590534843611655"><ele>62.0</ele><time>2026-03-29T08:07:59.999Z</time></trkpt><trkpt lat="45.98528845055842" lon="12.590346090626204"><ele>62.333333333333336</ele><time>2026-03-29T08:08:00.999Z</time></trkpt><trkpt lat="45.98537323464619" lon="12.590164015896947"><ele>62.66666666666667</ele><time>2026-03-29T08:08:01.999Z</time></trkpt><trkpt lat="45.9854487898976" lon="12.589973396982764"><ele>63.0</ele><time>2026-03-29T08:08:02.999Z</time></trkpt><trkpt lat="45.98552504129304" lon="12.589785901222228"><ele>63.0</ele><time>2026-03-29T08:08:03.999Z</time></trkpt><trkpt lat="45.9856017872083" lon="12.58959616126315"><ele>63.0</ele><time>2026-03-29T08:08:04.999Z</time></trkpt><trkpt lat="45.98566325706633" lon="12.589394173898722"><ele>63.0</ele><time>2026-03-29T08:08:05.999Z</time></trkpt><trkpt lat="45.98574086809271" lon="12.589201631173514"><ele>62.66666666666667</ele><time>2026-03-29T08:08:06.999Z</time></trkpt><trkpt lat="45.98581795302079" lon="12.589007915079023"><ele>62.333333333333336</ele><time>2026-03-29T08:08:07.999Z</time></trkpt><trkpt lat="45.98589522199873" lon="12.588814155860614"><ele>62.0</ele><time>2026-03-29T08:08:08.999Z</time></trkpt><trkpt lat="45.98597002156181" lon="12.58862750170173"><ele>62.0</ele><time>2026-03-29T08:08:09.999Z</time></trkpt><trkpt lat="45.98604139630487" lon="12.588456196575713"><ele>62.0</ele><time>2026-03-29T08:08:10.999Z</time></trkpt><trkpt lat="45.98612270912552" lon="12.588313076246175"><ele>62.0</ele><time>2026-03-29T08:08:11.999Z</time></trkpt><trkpt lat="45.98618503578674" lon="12.588168807357473"><ele>62.0</ele><time>2026-03-29T08:08:12.999Z</time></trkpt><trkpt lat="45.98624471328131" lon="12.588035268396693"><ele>62.00000000000001</ele><time>2026-03-29T08:08:13.999Z</time></trkpt><trkpt lat="45.986298812274825" lon="12.58791432289287"><ele>62.0</ele><time>2026-03-29T08:08:14.999Z</time></trkpt><trkpt lat="45.986338963936625" lon="12.587804266046433"><ele>62.0</ele><time>2026-03-29T08:08:15.999Z</time></trkpt><trkpt lat="45.98637539817841" lon="12.58771684272466"><ele>62.0</ele><time>2026-03-29T08:08:16.999Z</time></trkpt><trkpt lat="45.9864268822448" lon="12.587658611199242"><ele>62.00000000000001</ele><time>2026-03-29T08:08:18.999Z</time></trkpt><trkpt lat="45.986424475705846" lon="12.587528364426284"><ele>62.0</ele><time>2026-03-29T08:08:21.999Z</time></trkpt><trkpt lat="45.98641470554028" lon="12.587406716774783"><ele>62.0</ele><time>2026-03-29T08:08:22.999Z</time></trkpt><trkpt lat="45.98642340612974" lon="12.58727908575927"><ele>62.0</ele><time>2026-03-29T08:08:23.999Z</time></trkpt><trkpt lat="45.98649242718193" lon="12.587125411884939"><ele>62.0</ele><time>2026-03-29T08:08:24.999Z</time></trkpt><trkpt lat="45.986583896405264" lon="12.586915056496437"><ele>62.0</ele><time>2026-03-29T08:08:25.999Z</time></trkpt><trkpt lat="45.986670845663994" lon="12.586657618379368"><ele>62.0</ele><time>2026-03-29T08:08:26.999Z</time></trkpt><trkpt lat="45.98678398167373" lon="12.586376005982002"><ele>62.0</ele><time>2026-03-29T08:08:27.999Z</time></trkpt><trkpt lat="45.98689293663436" lon="12.586079484004205"><ele>62.0</ele><time>2026-03-29T08:08:28.999Z</time></trkpt><trkpt lat="45.986992243179486" lon="12.585801493359195"><ele>62.0</ele><time>2026-03-29T08:08:29.999Z</time></trkpt><trkpt lat="45.9870954751116" lon="12.585530281653732"><ele>62.0</ele><time>2026-03-29T08:08:30.999Z</time></trkpt><trkpt lat="45.98719871962663" lon="12.585266312382828"><ele>62.0</ele><time>2026-03-29T08:08:31.999Z</time></trkpt><trkpt lat="45.987300052623276" lon="12.585005969523547"><ele>62.0</ele><time>2026-03-29T08:08:32.999Z</time></trkpt><trkpt lat="45.98740294565099" lon="12.584734099016464"><ele>62.0</ele><time>2026-03-29T08:08:33.999Z</time></trkpt><trkpt lat="45.98751795987872" lon="12.584427341887048"><ele>62.0</ele><time>2026-03-29T08:08:34.999Z</time></trkpt><trkpt lat="45.987645754868325" lon="12.584086585507983"><ele>62.0</ele><time>2026-03-29T08:08:35.999Z</time></trkpt><trkpt lat="45.98777497982606" lon="12.58373884399363"><ele>62.0</ele><time>2026-03-29T08:08:36.999Z</time></trkpt><trkpt lat="45.987904643612175" lon="12.583401380074148"><ele>62.0</ele><time>2026-03-29T08:08:37.999Z</time></trkpt><trkpt lat="45.98802421005648" lon="12.583084219271244"><ele>61.5</ele><time>2026-03-29T08:08:38.999Z</time></trkpt><trkpt lat="45.988159258865196" lon="12.58278456945788"><ele>61.0</ele><time>2026-03-29T08:08:39.999Z</time></trkpt><trkpt lat="45.988287149295" lon="12.582455212703556"><ele>61.0</ele><time>2026-03-29T08:08:40.999Z</time></trkpt><trkpt lat="45.9884019490105" lon="12.58211343020746"><ele>61.0</ele><time>2026-03-29T08:08:41.999Z</time></trkpt><trkpt lat="45.98850076266823" lon="12.581769084786268"><ele>61.0</ele><time>2026-03-29T08:08:42.999Z</time></trkpt><trkpt lat="45.98861785858426" lon="12.58141282452679"><ele>61.0</ele><time>2026-03-29T08:08:43.999Z</time></trkpt><trkpt lat="45.98874081395854" lon="12.581090738341121"><ele>60.0</ele><time>2026-03-29T08:08:44.999Z</time></trkpt><trkpt lat="45.98884092452401" lon="12.580793120923877"><ele>59.0</ele><time>2026-03-29T08:08:45.999Z</time></trkpt><trkpt lat="45.98893869946469" lon="12.580500558153616"><ele>59.333333333333336</ele><time>2026-03-29T08:08:46.999Z</time></trkpt><trkpt lat="45.98903152573416" lon="12.580229343341598"><ele>59.66666666666667</ele><time>2026-03-29T08:08:47.999Z</time></trkpt><trkpt lat="45.98912443144867" lon="12.579953489714757"><ele>60.0</ele><time>2026-03-29T08:08:48.999Z</time></trkpt><trkpt lat="45.989216864773525" lon="12.579662666805199"><ele>60.33333333333333</ele><time>2026-03-29T08:08:49.999Z</time></trkpt><trkpt lat="45.989301860248325" lon="12.57938407591872"><ele>60.666666666666664</ele><time>2026-03-29T08:08:50.999Z</time></trkpt><trkpt lat="45.98938110002439" lon="12.579123189438825"><ele>61.0</ele><time>2026-03-29T08:08:51.999Z</time></trkpt><trkpt lat="45.98946660569698" lon="12.578861079802808"><ele>60.0</ele><time>2026-03-29T08:08:52.999Z</time></trkpt><trkpt lat="45.989559149035635" lon="12.578585586124886"><ele>59.0</ele><time>2026-03-29T08:08:53.999Z</time></trkpt><trkpt lat="45.989656671564966" lon="12.578300490754431"><ele>58.0</ele><time>2026-03-29T08:08:54.999Z</time></trkpt><trkpt lat="45.98975541232191" lon="12.57801977953443"><ele>58.666666666666664</ele><time>2026-03-29T08:08:55.999Z</time></trkpt><trkpt lat="45.98984293187367" lon="12.577764425366937"><ele>59.33333333333333</ele><time>2026-03-29T08:08:56.999Z</time></trkpt><trkpt lat="45.9899139139514" lon="12.577536582155625"><ele>60.0</ele><time>2026-03-29T08:08:57.999Z</time></trkpt><trkpt lat="45.98997500997768" lon="12.577328706600426"><ele>60.25</ele><time>2026-03-29T08:08:58.999Z</time></trkpt><trkpt lat="45.990010538402764" lon="12.577128167404288"><ele>60.5</ele><time>2026-03-29T08:08:59.999Z</time></trkpt><trkpt lat="45.99005412757001" lon="12.576964633139813"><ele>60.75</ele><time>2026-03-29T08:09:00.999Z</time></trkpt><trkpt lat="45.99009281413468" lon="12.576822659241335"><ele>61.0</ele><time>2026-03-29T08:09:01.999Z</time></trkpt><trkpt lat="45.99013789356387" lon="12.57671703793683"><ele>60.99999999999999</ele><time>2026-03-29T08:09:02.999Z</time></trkpt><trkpt lat="45.99018913929217" lon="12.576652506081317"><ele>61.0</ele><time>2026-03-29T08:09:03.999Z</time></trkpt><trkpt lat="45.990253556706435" lon="12.576628213640394"><ele>61.0</ele><time>2026-03-29T08:09:04.999Z</time></trkpt><trkpt lat="45.99033232790701" lon="12.57667573450313"><ele>61.0</ele><time>2026-03-29T08:09:05.999Z</time></trkpt><trkpt lat="45.990431650721504" lon="12.576672056825998"><ele>60.99999999999999</ele><time>2026-03-29T08:09:06.999Z</time></trkpt><trkpt lat="45.99051858360866" lon="12.57668076956208"><ele>61.0</ele><time>2026-03-29T08:09:07.999Z</time></trkpt><trkpt lat="45.990601675279514" lon="12.57660827185053"><ele>61.0</ele><time>2026-03-29T08:09:08.999Z</time></trkpt><trkpt lat="45.99064848976881" lon="12.576435093759114"><ele>61.0</ele><time>2026-03-29T08:09:10Z</time></trkpt><trkpt lat="45.99072400079612" lon="12.57626810159317"><ele>61.0</ele><time>2026-03-29T08:09:11Z</time></trkpt><trkpt lat="45.99078153475319" lon="12.576078073146098"><ele>61.0</ele><time>2026-03-29T08:09:12Z</time></trkpt><trkpt lat="45.9907799966319" lon="12.57585076563553"><ele>60.666666666666664</ele><time>2026-03-29T08:09:13Z</time></trkpt><trkpt lat="45.99078917839937" lon="12.575612213216875"><ele>60.33333333333333</ele><time>2026-03-29T08:09:14Z</time></trkpt><trkpt lat="45.990834568255764" lon="12.57539685055618"><ele>60.0</ele><time>2026-03-29T08:09:15Z</time></trkpt><trkpt lat="45.9909009132767" lon="12.575174428656831"><ele>60.0</ele><time>2026-03-29T08:09:16Z</time></trkpt><trkpt lat="45.990980149150566" lon="12.574929589289246"><ele>60.0</ele><time>2026-03-29T08:09:17Z</time></trkpt><trkpt lat="45.99106100381807" lon="12.574683681275861"><ele>60.0</ele><time>2026-03-29T08:09:18Z</time></trkpt><trkpt lat="45.991139490359814" lon="12.574444976611376"><ele>59.66666666666667</ele><time>2026-03-29T08:09:19Z</time></trkpt><trkpt lat="45.99121547308972" lon="12.57421388566654"><ele>59.333333333333336</ele><time>2026-03-29T08:09:20Z</time></trkpt><trkpt lat="45.991287375772764" lon="12.573995203987954"><ele>59.0</ele><time>2026-03-29T08:09:21Z</time></trkpt><trkpt lat="45.991354390640005" lon="12.57379138799142"><ele>59.25</ele><time>2026-03-29T08:09:22Z</time></trkpt><trkpt lat="45.991417746431914" lon="12.57359810806064"><ele>59.5</ele><time>2026-03-29T08:09:23Z</time></trkpt><trkpt lat="45.99147519158011" lon="12.573416507300285"><ele>59.75</ele><time>2026-03-29T08:09:24Z</time></trkpt><trkpt lat="45.991530273761406" lon="12.573242376289919"><ele>60.0</ele><time>2026-03-29T08:09:25Z</time></trkpt><trkpt lat="45.99158401209017" lon="12.573072493882956"><ele>60.0</ele><time>2026-03-29T08:09:26Z</time></trkpt><trkpt lat="45.991632272121386" lon="12.572884348711403"><ele>60.0</ele><time>2026-03-29T08:09:27Z</time></trkpt><trkpt lat="45.99169552085836" lon="12.572680082419538"><ele>60.0</ele><time>2026-03-29T08:09:28Z</time></trkpt><trkpt lat="45.99176362583485" lon="12.572473737510688"><ele>59.66666666666667</ele><time>2026-03-29T08:09:29Z</time></trkpt><trkpt lat="45.99184417185582" lon="12.572263348325492"><ele>59.333333333333336</ele><time>2026-03-29T08:09:30Z</time></trkpt><trkpt lat="45.9919133533421" lon="12.572042561793207"><ele>59.0</ele><time>2026-03-29T08:09:31Z</time></trkpt><trkpt lat="45.99198187166909" lon="12.57182291138966"><ele>58.75</ele><time>2026-03-29T08:09:32Z</time></trkpt><trkpt lat="45.99204311316199" lon="12.571625916411984"><ele>58.5</ele><time>2026-03-29T08:09:33Z</time></trkpt><trkpt lat="45.99209735784958" lon="12.57145081916581"><ele>58.25</ele><time>2026-03-29T08:09:34Z</time></trkpt><trkpt lat="45.992145301298656" lon="12.571294703100891"><ele>58.0</ele><time>2026-03-29T08:09:35Z</time></trkpt><trkpt lat="45.9921828623119" lon="12.571174685051309"><ele>58.0</ele><time>2026-03-29T08:09:36Z</time></trkpt><trkpt lat="45.99221396673505" lon="12.571092629503005"><ele>58.0</ele><time>2026-03-29T08:09:37Z</time></trkpt><trkpt lat="45.99224819100574" lon="12.571011719278557"><ele>58.0</ele><time>2026-03-29T08:09:40Z</time></trkpt><trkpt lat="45.99229294247806" lon="12.570894817910844"><ele>58.0</ele><time>2026-03-29T08:09:42Z</time></trkpt><trkpt lat="45.992361746459814" lon="12.570722308546346"><ele>58.0</ele><time>2026-03-29T08:09:44Z</time></trkpt><trkpt lat="45.99241315385647" lon="12.570570184068275"><ele>58.0</ele><time>2026-03-29T08:09:45Z</time></trkpt><trkpt lat="45.99249228769007" lon="12.570395409331732"><ele>58.0</ele><time>2026-03-29T08:09:46Z</time></trkpt><trkpt lat="45.992584326438504" lon="12.570202859052028"><ele>58.0</ele><time>2026-03-29T08:09:46.999Z</time></trkpt><trkpt lat="45.99267457355167" lon="12.570008750192951"><ele>57.33333333333333</ele><time>2026-03-29T08:09:47.999Z</time></trkpt><trkpt lat="45.99277151866942" lon="12.569831904350616"><ele>56.66666666666667</ele><time>2026-03-29T08:09:48.999Z</time></trkpt><trkpt lat="45.992853962538426" lon="12.569658467251058"><ele>56.0</ele><time>2026-03-29T08:09:49.999Z</time></trkpt><trkpt lat="45.99293976325505" lon="12.569475145846436"><ele>56.0</ele><time>2026-03-29T08:09:50.999Z</time></trkpt><trkpt lat="45.99301203565611" lon="12.569282488732009"><ele>56.0</ele><time>2026-03-29T08:09:51.999Z</time></trkpt><trkpt lat="45.993078170642455" lon="12.569059104613984"><ele>56.0</ele><time>2026-03-29T08:09:52.999Z</time></trkpt><trkpt lat="45.99312363521873" lon="12.568805676926605"><ele>56.66666666666667</ele><time>2026-03-29T08:09:53.999Z</time></trkpt><trkpt lat="45.9931819919447" lon="12.568523494306419"><ele>57.33333333333333</ele><time>2026-03-29T08:09:54.999Z</time></trkpt><trkpt lat="45.99324242626275" lon="12.568232468449256"><ele>58.0</ele><time>2026-03-29T08:09:55.999Z</time></trkpt><trkpt lat="45.993309845662345" lon="12.567977073189889"><ele>58.0</ele><time>2026-03-29T08:09:56.999Z</time></trkpt><trkpt lat="45.99337201856168" lon="12.567748739506083"><ele>58.0</ele><time>2026-03-29T08:09:57.999Z</time></trkpt><trkpt lat="45.99342837938603" lon="12.567551537550154"><ele>58.0</ele><time>2026-03-29T08:09:58.999Z</time></trkpt><trkpt lat="45.99348088738063" lon="12.56737823717053"><ele>58.0</ele><time>2026-03-29T08:09:59.999Z</time></trkpt><trkpt lat="45.99353042476973" lon="12.567224959280908"><ele>58.0</ele><time>2026-03-29T08:10:00.999Z</time></trkpt><trkpt lat="45.99357315068982" lon="12.567091080377674"><ele>58.0</ele><time>2026-03-29T08:10:01.999Z</time></trkpt><trkpt lat="45.99361842266395" lon="12.566949540192041"><ele>58.0</ele><time>2026-03-29T08:10:02.999Z</time></trkpt><trkpt lat="45.9936781613203" lon="12.566780182916641"><ele>57.666666666666664</ele><time>2026-03-29T08:10:03.999Z</time></trkpt><trkpt lat="45.99375794124798" lon="12.566571946679247"><ele>57.33333333333333</ele><time>2026-03-29T08:10:04.999Z</time></trkpt><trkpt lat="45.993863417252484" lon="12.56637863590392"><ele>57.0</ele><time>2026-03-29T08:10:05.999Z</time></trkpt><trkpt lat="45.99396640098939" lon="12.566169718013402"><ele>57.0</ele><time>2026-03-29T08:10:06.999Z</time></trkpt><trkpt lat="45.994066110898856" lon="12.565927154824735"><ele>57.0</ele><time>2026-03-29T08:10:07.999Z</time></trkpt><trkpt lat="45.99417285533485" lon="12.565715610376676"><ele>57.0</ele><time>2026-03-29T08:10:08.999Z</time></trkpt><trkpt lat="45.99428090062189" lon="12.56553922231908"><ele>56.66666666666667</ele><time>2026-03-29T08:10:09.999Z</time></trkpt><trkpt lat="45.99438599606246" lon="12.56536077136075"><ele>56.333333333333336</ele><time>2026-03-29T08:10:10.999Z</time></trkpt><trkpt lat="45.9945031773629" lon="12.56517048596892"><ele>56.0</ele><time>2026-03-29T08:10:11.999Z</time></trkpt><trkpt lat="45.99460447699772" lon="12.564974590969676"><ele>56.0</ele><time>2026-03-29T08:10:12.999Z</time></trkpt><trkpt lat="45.99470370126924" lon="12.56481337663573"><ele>56.0</ele><time>2026-03-29T08:10:13.999Z</time></trkpt><trkpt lat="45.9948025001473" lon="12.564630020633219"><ele>56.0</ele><time>2026-03-29T08:10:14.999Z</time></trkpt><trkpt lat="45.99491478065516" lon="12.564406093353139"><ele>56.333333333333336</ele><time>2026-03-29T08:10:15.999Z</time></trkpt><trkpt lat="45.99502092724706" lon="12.564181604837579"><ele>56.66666666666667</ele><time>2026-03-29T08:10:16.999Z</time></trkpt><trkpt lat="45.995121645162136" lon="12.563972295943087"><ele>57.0</ele><time>2026-03-29T08:10:17.999Z</time></trkpt><trkpt lat="45.99521875235153" lon="12.563785547406395"><ele>57.0</ele><time>2026-03-29T08:10:18.999Z</time></trkpt><trkpt lat="45.99531421456377" lon="12.56360950572546"><ele>57.0</ele><time>2026-03-29T08:10:19.999Z</time></trkpt><trkpt lat="45.995415204726015" lon="12.563427541555999"><ele>57.0</ele><time>2026-03-29T08:10:20.999Z</time></trkpt><trkpt lat="45.99552164102177" lon="12.563237565818266"><ele>57.0</ele><time>2026-03-29T08:10:21.999Z</time></trkpt><trkpt lat="45.995631345872894" lon="12.56304513020357"><ele>57.0</ele><time>2026-03-29T08:10:22.999Z</time></trkpt><trkpt lat="45.99572636304199" lon="12.562876460594156"><ele>57.0</ele><time>2026-03-29T08:10:23.999Z</time></trkpt><trkpt lat="45.99580740869146" lon="12.562735113852792"><ele>57.0</ele><time>2026-03-29T08:10:24.999Z</time></trkpt><trkpt lat="45.995886960604295" lon="12.562594712472395"><ele>57.0</ele><time>2026-03-29T08:10:25.999Z</time></trkpt><trkpt lat="45.995954772418536" lon="12.562475597109579"><ele>57.0</ele><time>2026-03-29T08:10:26.999Z</time></trkpt><trkpt lat="45.99601778839537" lon="12.562362202804342"><ele>57.0</ele><time>2026-03-29T08:10:27.999Z</time></trkpt><trkpt lat="45.99608125099293" lon="12.56224093273516"><ele>57.0</ele><time>2026-03-29T08:10:28.999Z</time></trkpt><trkpt lat="45.99614491763528" lon="12.562120429235037"><ele>57.2</ele><time>2026-03-29T08:10:29.999Z</time></trkpt><trkpt lat="45.996213003746185" lon="12.562006182260893"><ele>57.400000000000006</ele><time>2026-03-29T08:10:30.999Z</time></trkpt><trkpt lat="45.99628349619361" lon="12.561897599132205"><ele>57.599999999999994</ele><time>2026-03-29T08:10:31.999Z</time></trkpt><trkpt lat="45.99635732200957" lon="12.561790549779786"><ele>57.8</ele><time>2026-03-29T08:10:32.999Z</time></trkpt><trkpt lat="45.996431813907755" lon="12.561682086257004"><ele>58.0</ele><time>2026-03-29T08:10:33.999Z</time></trkpt><trkpt lat="45.9965045790441" lon="12.56155275355187"><ele>58.0</ele><time>2026-03-29T08:10:34.999Z</time></trkpt><trkpt lat="45.9965778482819" lon="12.561425170440916"><ele>58.0</ele><time>2026-03-29T08:10:35.999Z</time></trkpt><trkpt lat="45.996645150866385" lon="12.561314206062665"><ele>58.0</ele><time>2026-03-29T08:10:36.999Z</time></trkpt><trkpt lat="45.996696959224785" lon="12.561216106915566"><ele>58.0</ele><time>2026-03-29T08:10:37.999Z</time></trkpt><trkpt lat="45.99673699230974" lon="12.561135716766628"><ele>58.0</ele><time>2026-03-29T08:10:38.999Z</time></trkpt><trkpt lat="45.99679220878151" lon="12.561030585852276"><ele>58.166666666666664</ele><time>2026-03-29T08:10:40.999Z</time></trkpt><trkpt lat="45.99683235170708" lon="12.560959111122106"><ele>58.33333333333333</ele><time>2026-03-29T08:10:42.999Z</time></trkpt><trkpt lat="45.9969263197878" lon="12.560835350923194"><ele>58.5</ele><time>2026-03-29T08:10:44.999Z</time></trkpt><trkpt lat="45.99699751212235" lon="12.560801409367793"><ele>58.66666666666667</ele><time>2026-03-29T08:10:45.999Z</time></trkpt><trkpt lat="45.99705914062901" lon="12.560728907495632"><ele>58.833333333333336</ele><time>2026-03-29T08:10:46.999Z</time></trkpt><trkpt lat="45.99714894606873" lon="12.5606723205054"><ele>59.0</ele><time>2026-03-29T08:10:47.999Z</time></trkpt><trkpt lat="45.99724308761587" lon="12.560608543749103"><ele>59.0</ele><time>2026-03-29T08:10:48.999Z</time></trkpt><trkpt lat="45.99733563910933" lon="12.560544440520461"><ele>59.00000000000001</ele><time>2026-03-29T08:10:49.999Z</time></trkpt><trkpt lat="45.997432211841776" lon="12.560477323963816"><ele>59.00000000000001</ele><time>2026-03-29T08:10:50.999Z</time></trkpt><trkpt lat="45.99752959133675" lon="12.560401033243613"><ele>59.0</ele><time>2026-03-29T08:10:51.999Z</time></trkpt><trkpt lat="45.99763802645127" lon="12.560346945350792"><ele>59.0</ele><time>2026-03-29T08:10:52.999Z</time></trkpt><trkpt lat="45.997727885902485" lon="12.560248721008405"><ele>58.800000000000004</ele><time>2026-03-29T08:10:53.999Z</time></trkpt><trkpt lat="45.997802983531095" lon="12.560126585319166"><ele>58.60000000000001</ele><time>2026-03-29T08:10:54.999Z</time></trkpt><trkpt lat="45.99786809325714" lon="12.559999524067273"><ele>58.4</ele><time>2026-03-29T08:10:55.999Z</time></trkpt><trkpt lat="45.99792565344195" lon="12.55987439295261"><ele>58.2</ele><time>2026-03-29T08:10:56.999Z</time></trkpt><trkpt lat="45.99797886165419" lon="12.559749125351342"><ele>58.0</ele><time>2026-03-29T08:10:57.999Z</time></trkpt><trkpt lat="45.99801962645091" lon="12.559612605433788"><ele>57.8</ele><time>2026-03-29T08:10:58.999Z</time></trkpt><trkpt lat="45.99807680956299" lon="12.559487144809587"><ele>57.599999999999994</ele><time>2026-03-29T08:10:59.999Z</time></trkpt><trkpt lat="45.99813086625188" lon="12.559359384756002"><ele>57.400000000000006</ele><time>2026-03-29T08:11:00.999Z</time></trkpt><trkpt lat="45.99818896282037" lon="12.559231940980537"><ele>57.2</ele><time>2026-03-29T08:11:01.999Z</time></trkpt><trkpt lat="45.99824554480427" lon="12.559101079049062"><ele>57.0</ele><time>2026-03-29T08:11:02.999Z</time></trkpt><trkpt lat="45.99830686598177" lon="12.558972632938413"><ele>57.0</ele><time>2026-03-29T08:11:03.999Z</time></trkpt><trkpt lat="45.99837704757364" lon="12.558851551608747"><ele>57.0</ele><time>2026-03-29T08:11:04.999Z</time></trkpt><trkpt lat="45.99843737942815" lon="12.558717172881236"><ele>57.0</ele><time>2026-03-29T08:11:05.999Z</time></trkpt><trkpt lat="45.99849840820327" lon="12.558581263371632"><ele>57.0</ele><time>2026-03-29T08:11:06.999Z</time></trkpt><trkpt lat="45.99856189976392" lon="12.558447419939794"><ele>57.0</ele><time>2026-03-29T08:11:07.999Z</time></trkpt><trkpt lat="45.99862302530976" lon="12.558318845439809"><ele>57.0</ele><time>2026-03-29T08:11:08.999Z</time></trkpt><trkpt lat="45.99867676613481" lon="12.558203225882327"><ele>57.0</ele><time>2026-03-29T08:11:09.999Z</time></trkpt><trkpt lat="45.99871695880888" lon="12.558114035200532"><ele>57.0</ele><time>2026-03-29T08:11:10.999Z</time></trkpt><trkpt lat="45.99873504057709" lon="12.55802398113428"><ele>57.0</ele><time>2026-03-29T08:11:12.999Z</time></trkpt><trkpt lat="45.99877681179935" lon="12.5578767963276"><ele>57.0</ele><time>2026-03-29T08:11:15.999Z</time></trkpt><trkpt lat="45.9988030059988" lon="12.557787986064543"><ele>57.0</ele><time>2026-03-29T08:11:16.999Z</time></trkpt><trkpt lat="45.998855942601345" lon="12.557659185547799"><ele>56.75</ele><time>2026-03-29T08:11:17.999Z</time></trkpt><trkpt lat="45.998903023320736" lon="12.557503809620545"><ele>56.5</ele><time>2026-03-29T08:11:18.999Z</time></trkpt><trkpt lat="45.99897208891064" lon="12.557350520698007"><ele>56.25</ele><time>2026-03-29T08:11:19.999Z</time></trkpt><trkpt lat="45.9990422394052" lon="12.557176412309964"><ele>56.0</ele><time>2026-03-29T08:11:20.999Z</time></trkpt><trkpt lat="45.999126162255905" lon="12.557002706121958"><ele>57.0</ele><time>2026-03-29T08:11:21.999Z</time></trkpt><trkpt lat="45.999175890802086" lon="12.55678847383064"><ele>58.0</ele><time>2026-03-29T08:11:23Z</time></trkpt><trkpt lat="45.99923886530758" lon="12.556591444254174"><ele>59.0</ele><time>2026-03-29T08:11:24Z</time></trkpt><trkpt lat="45.99929675057406" lon="12.556389628162519"><ele>59.0</ele><time>2026-03-29T08:11:25Z</time></trkpt><trkpt lat="45.999355789308865" lon="12.556182885281409"><ele>59.0</ele><time>2026-03-29T08:11:26Z</time></trkpt><trkpt lat="45.99941323391025" lon="12.555974145322176"><ele>59.0</ele><time>2026-03-29T08:11:27Z</time></trkpt><trkpt lat="45.99946671592885" lon="12.555781531811798"><ele>59.0</ele><time>2026-03-29T08:11:28Z</time></trkpt><trkpt lat="45.99951675744863" lon="12.555602720251574"><ele>59.0</ele><time>2026-03-29T08:11:29Z</time></trkpt><trkpt lat="45.99958121235528" lon="12.55544741153174"><ele>59.0</ele><time>2026-03-29T08:11:30Z</time></trkpt><trkpt lat="45.99961971994471" lon="12.55527935458586"><ele>59.0</ele><time>2026-03-29T08:11:31Z</time></trkpt><trkpt lat="45.99969271616519" lon="12.555126246386337"><ele>58.5</ele><time>2026-03-29T08:11:32Z</time></trkpt><trkpt lat="45.999747126928376" lon="12.554939894611927"><ele>58.0</ele><time>2026-03-29T08:11:33Z</time></trkpt><trkpt lat="45.999820619441955" lon="12.554759449011327"><ele>57.5</ele><time>2026-03-29T08:11:34Z</time></trkpt><trkpt lat="45.999893857277016" lon="12.554564816384557"><ele>57.0</ele><time>2026-03-29T08:11:35Z</time></trkpt><trkpt lat="45.99997762808416" lon="12.554357248811797"><ele>57.0</ele><time>2026-03-29T08:11:36Z</time></trkpt><trkpt lat="46.0000713831187" lon="12.554139059692302"><ele>57.0</ele><time>2026-03-29T08:11:37Z</time></trkpt><trkpt lat="46.000165353890345" lon="12.55392053058526"><ele>57.0</ele><time>2026-03-29T08:11:38Z</time></trkpt><trkpt lat="46.0002612197841" lon="12.553709404235077"><ele>56.75</ele><time>2026-03-29T08:11:39Z</time></trkpt><trkpt lat="46.00035285691706" lon="12.553513574109926"><ele>56.5</ele><time>2026-03-29T08:11:40Z</time></trkpt><trkpt lat="46.00044147095537" lon="12.553338181677786"><ele>56.25</ele><time>2026-03-29T08:11:41Z</time></trkpt><trkpt lat="46.00051563086561" lon="12.553196679926439"><ele>56.0</ele><time>2026-03-29T08:11:42Z</time></trkpt><trkpt lat="46.00057545248466" lon="12.55308221444107"><ele>56.0</ele><time>2026-03-29T08:11:43Z</time></trkpt><trkpt lat="46.000623534110595" lon="12.552989648487912"><ele>55.99999999999999</ele><time>2026-03-29T08:11:44Z</time></trkpt><trkpt lat="46.000678954050564" lon="12.552940721097361"><ele>55.99999999999999</ele><time>2026-03-29T08:11:45Z</time></trkpt><trkpt lat="46.000747032038724" lon="12.552823642610731"><ele>56.0</ele><time>2026-03-29T08:11:47Z</time></trkpt><trkpt lat="46.00066245742291" lon="12.552588246391606"><ele>56.0</ele><time>2026-03-29T08:11:48Z</time></trkpt><trkpt lat="46.000664826885405" lon="12.552437842714612"><ele>55.75</ele><time>2026-03-29T08:11:49Z</time></trkpt><trkpt lat="46.000710696379414" lon="12.552296622267495"><ele>55.5</ele><time>2026-03-29T08:11:50Z</time></trkpt><trkpt lat="46.00077087149241" lon="12.552122836961694"><ele>55.25</ele><time>2026-03-29T08:11:51Z</time></trkpt><trkpt lat="46.0008478524155" lon="12.55192473389845"><ele>55.0</ele><time>2026-03-29T08:11:52Z</time></trkpt><trkpt lat="46.00092915483106" lon="12.551685557200143"><ele>55.0</ele><time>2026-03-29T08:11:53Z</time></trkpt><trkpt lat="46.001013348325294" lon="12.55145740460723"><ele>55.0</ele><time>2026-03-29T08:11:54Z</time></trkpt><trkpt lat="46.00107834124704" lon="12.551258792173117"><ele>55.0</ele><time>2026-03-29T08:11:55Z</time></trkpt><trkpt lat="46.001123426313356" lon="12.551080851805773"><ele>55.0</ele><time>2026-03-29T08:11:56Z</time></trkpt><trkpt lat="46.00114669037474" lon="12.550896770913303"><ele>55.0</ele><time>2026-03-29T08:11:57Z</time></trkpt><trkpt lat="46.00116739850131" lon="12.55067268598192"><ele>55.0</ele><time>2026-03-29T08:11:58Z</time></trkpt><trkpt lat="46.00119158726323" lon="12.550409671949378"><ele>54.75</ele><time>2026-03-29T08:11:59Z</time></trkpt><trkpt lat="46.001212377081764" lon="12.550172461467996"><ele>54.5</ele><time>2026-03-29T08:12:00Z</time></trkpt><trkpt lat="46.00122842080887" lon="12.549970599854252"><ele>54.25</ele><time>2026-03-29T08:12:01Z</time></trkpt><trkpt lat="46.001268028019304" lon="12.54979491477871"><ele>54.0</ele><time>2026-03-29T08:12:02Z</time></trkpt><trkpt lat="46.00131699151427" lon="12.549641975201574"><ele>54.0</ele><time>2026-03-29T08:12:03Z</time></trkpt><trkpt lat="46.001377242699434" lon="12.549458617476255"><ele>54.0</ele><time>2026-03-29T08:12:04Z</time></trkpt><trkpt lat="46.00142234980302" lon="12.549253370424456"><ele>54.0</ele><time>2026-03-29T08:12:05Z</time></trkpt><trkpt lat="46.00147653549589" lon="12.549050414787823"><ele>54.0</ele><time>2026-03-29T08:12:05.999Z</time></trkpt><trkpt lat="46.001528341068834" lon="12.548848585361194"><ele>53.33333333333333</ele><time>2026-03-29T08:12:06.999Z</time></trkpt><trkpt lat="46.0015919388651" lon="12.548660722499179"><ele>52.666666666666664</ele><time>2026-03-29T08:12:07.999Z</time></trkpt><trkpt lat="46.00167346249151" lon="12.548480871672044"><ele>52.0</ele><time>2026-03-29T08:12:08.999Z</time></trkpt><trkpt lat="46.0017722465542" lon="12.54829415228903"><ele>52.5</ele><time>2026-03-29T08:12:09.999Z</time></trkpt><trkpt lat="46.00186837201831" lon="12.54810905498418"><ele>53.0</ele><time>2026-03-29T08:12:10.999Z</time></trkpt><trkpt lat="46.001961194565474" lon="12.547939551112563"><ele>53.5</ele><time>2026-03-29T08:12:11.999Z</time></trkpt><trkpt lat="46.002066797807" lon="12.547816221524704"><ele>54.0</ele><time>2026-03-29T08:12:12.999Z</time></trkpt><trkpt lat="46.00216247521485" lon="12.547673311306303"><ele>54.0</ele><time>2026-03-29T08:12:13.999Z</time></trkpt><trkpt lat="46.00225708798459" lon="12.547557198539582"><ele>54.0</ele><time>2026-03-29T08:12:14.999Z</time></trkpt><trkpt lat="46.00233672778555" lon="12.54744338994475"><ele>54.0</ele><time>2026-03-29T08:12:15.999Z</time></trkpt><trkpt lat="46.00241040261909" lon="12.547323539636333"><ele>54.0</ele><time>2026-03-29T08:12:16.999Z</time></trkpt><trkpt lat="46.00248491846901" lon="12.547193345350154"><ele>54.25</ele><time>2026-03-29T08:12:17.999Z</time></trkpt><trkpt lat="46.00255705789948" lon="12.547052822555795"><ele>54.5</ele><time>2026-03-29T08:12:18.999Z</time></trkpt><trkpt lat="46.00262663588219" lon="12.546902702217336"><ele>54.75</ele><time>2026-03-29T08:12:19.999Z</time></trkpt><trkpt lat="46.002700265377854" lon="12.54675133840497"><ele>55.0</ele><time>2026-03-29T08:12:20.999Z</time></trkpt><trkpt lat="46.00278404954359" lon="12.546591824447322"><ele>55.0</ele><time>2026-03-29T08:12:21.999Z</time></trkpt><trkpt lat="46.0028513642009" lon="12.546404905706119"><ele>55.0</ele><time>2026-03-29T08:12:22.999Z</time></trkpt><trkpt lat="46.00289435702192" lon="12.546194608028891"><ele>55.0</ele><time>2026-03-29T08:12:23.999Z</time></trkpt><trkpt lat="46.00295085966618" lon="12.545987189178337"><ele>54.666666666666664</ele><time>2026-03-29T08:12:24.999Z</time></trkpt><trkpt lat="46.003011228276286" lon="12.545783793703981"><ele>54.33333333333333</ele><time>2026-03-29T08:12:25.999Z</time></trkpt><trkpt lat="46.00309356667544" lon="12.545604427738853"><ele>54.0</ele><time>2026-03-29T08:12:26.999Z</time></trkpt><trkpt lat="46.003165798815736" lon="12.545414601238416"><ele>54.0</ele><time>2026-03-29T08:12:27.999Z</time></trkpt><trkpt lat="46.0032519500286" lon="12.545233704265327"><ele>54.0</ele><time>2026-03-29T08:12:28.999Z</time></trkpt><trkpt lat="46.00335552980014" lon="12.54506592033829"><ele>54.0</ele><time>2026-03-29T08:12:29.999Z</time></trkpt><trkpt lat="46.00344844764176" lon="12.544885480774399"><ele>54.25</ele><time>2026-03-29T08:12:30.999Z</time></trkpt><trkpt lat="46.00353727199071" lon="12.5447097511969"><ele>54.5</ele><time>2026-03-29T08:12:31.999Z</time></trkpt><trkpt lat="46.00362236402128" lon="12.544538255526714"><ele>54.75</ele><time>2026-03-29T08:12:32.999Z</time></trkpt><trkpt lat="46.00368734485738" lon="12.544365734911324"><ele>55.0</ele><time>2026-03-29T08:12:33.999Z</time></trkpt><trkpt lat="46.003754279637086" lon="12.54423079734689"><ele>54.6</ele><time>2026-03-29T08:12:34.999Z</time></trkpt><trkpt lat="46.00381831263512" lon="12.544105439670592"><ele>54.2</ele><time>2026-03-29T08:12:35.999Z</time></trkpt><trkpt lat="46.00387506413387" lon="12.543992816496466"><ele>53.8</ele><time>2026-03-29T08:12:36.999Z</time></trkpt><trkpt lat="46.00392307015662" lon="12.543912715223113"><ele>53.4</ele><time>2026-03-29T08:12:37.999Z</time></trkpt><trkpt lat="46.00399373266631" lon="12.54379328179119"><ele>53.0</ele><time>2026-03-29T08:12:39.999Z</time></trkpt><trkpt lat="46.00404962164666" lon="12.543642994947074"><ele>52.833333333333336</ele><time>2026-03-29T08:12:41.999Z</time></trkpt><trkpt lat="46.00408874353068" lon="12.543561485161403"><ele>52.66666666666667</ele><time>2026-03-29T08:12:42.999Z</time></trkpt><trkpt lat="46.00413742423344" lon="12.543481612198233"><ele>52.5</ele><time>2026-03-29T08:12:43.999Z</time></trkpt><trkpt lat="46.00419166431158" lon="12.543390329091894"><ele>52.33333333333333</ele><time>2026-03-29T08:12:44.999Z</time></trkpt><trkpt lat="46.00424853279285" lon="12.543294622474024"><ele>52.166666666666664</ele><time>2026-03-29T08:12:45.999Z</time></trkpt><trkpt lat="46.00430813881972" lon="12.543194308555321"><ele>52.0</ele><time>2026-03-29T08:12:46.999Z</time></trkpt><trkpt lat="46.00436982677621" lon="12.543090491014464"><ele>52.2</ele><time>2026-03-29T08:12:47.999Z</time></trkpt><trkpt lat="46.004430238423545" lon="12.54298980624952"><ele>52.400000000000006</ele><time>2026-03-29T08:12:48.999Z</time></trkpt><trkpt lat="46.00449403826227" lon="12.542887023096931"><ele>52.599999999999994</ele><time>2026-03-29T08:12:49.999Z</time></trkpt><trkpt lat="46.00455121061257" lon="12.54277476635513"><ele>52.8</ele><time>2026-03-29T08:12:50.999Z</time></trkpt><trkpt lat="46.004616644412984" lon="12.542666244915615"><ele>53.0</ele><time>2026-03-29T08:12:51.999Z</time></trkpt><trkpt lat="46.00468364386507" lon="12.542554623995754"><ele>53.0</ele><time>2026-03-29T08:12:52.999Z</time></trkpt><trkpt lat="46.00475133735804" lon="12.542444035997136"><ele>53.0</ele><time>2026-03-29T08:12:53.999Z</time></trkpt><trkpt lat="46.00481483680482" lon="12.542332342625661"><ele>53.0</ele><time>2026-03-29T08:12:54.999Z</time></trkpt><trkpt lat="46.004898687611416" lon="12.54223986812235"><ele>53.0</ele><time>2026-03-29T08:12:55.999Z</time></trkpt><trkpt lat="46.004970462836965" lon="12.542134942717311"><ele>53.0</ele><time>2026-03-29T08:12:56.999Z</time></trkpt><trkpt lat="46.005034056774214" lon="12.542014135323562"><ele>52.599999999999994</ele><time>2026-03-29T08:12:57.999Z</time></trkpt><trkpt lat="46.00511258157502" lon="12.541907093180619"><ele>52.199999999999996</ele><time>2026-03-29T08:12:58.999Z</time></trkpt><trkpt lat="46.00519286580012" lon="12.541796702067597"><ele>51.8</ele><time>2026-03-29T08:12:59.999Z</time></trkpt><trkpt lat="46.00527495685112" lon="12.5416887057105"><ele>51.4</ele><time>2026-03-29T08:13:00.999Z</time></trkpt><trkpt lat="46.00535087300974" lon="12.54157707395298"><ele>51.0</ele><time>2026-03-29T08:13:01.999Z</time></trkpt><trkpt lat="46.005421351457876" lon="12.54147596800302"><ele>51.0</ele><time>2026-03-29T08:13:02.999Z</time></trkpt><trkpt lat="46.00548353248735" lon="12.541391498082591"><ele>51.0</ele><time>2026-03-29T08:13:03.999Z</time></trkpt><trkpt lat="46.00554185826962" lon="12.541331274852283"><ele>51.0</ele><time>2026-03-29T08:13:04.999Z</time></trkpt><trkpt lat="46.00568690773277" lon="12.541283058898744"><ele>51.0</ele><time>2026-03-29T08:13:06.999Z</time></trkpt><trkpt lat="46.0057872368556" lon="12.541285811274951"><ele>51.0</ele><time>2026-03-29T08:13:07.999Z</time></trkpt><trkpt lat="46.00589642256605" lon="12.541291547877211"><ele>51.5</ele><time>2026-03-29T08:13:08.999Z</time></trkpt><trkpt lat="46.006003433079194" lon="12.541304987590536"><ele>52.0</ele><time>2026-03-29T08:13:09.999Z</time></trkpt><trkpt lat="46.00611749426494" lon="12.54132126465339"><ele>52.5</ele><time>2026-03-29T08:13:10.999Z</time></trkpt><trkpt lat="46.006238367657645" lon="12.541342315944732"><ele>53.0</ele><time>2026-03-29T08:13:11.999Z</time></trkpt><trkpt lat="46.006365074792264" lon="12.541364638077418"><ele>53.0</ele><time>2026-03-29T08:13:12.999Z</time></trkpt><trkpt lat="46.00649155960791" lon="12.541388076600166"><ele>53.0</ele><time>2026-03-29T08:13:13.999Z</time></trkpt><trkpt lat="46.00661763441119" lon="12.541420242885888"><ele>53.0</ele><time>2026-03-29T08:13:14.999Z</time></trkpt><trkpt lat="46.006740089669364" lon="12.541468162933507"><ele>53.0</ele><time>2026-03-29T08:13:15.999Z</time></trkpt><trkpt lat="46.00685298856034" lon="12.54153401268039"><ele>53.5</ele><time>2026-03-29T08:13:16.999Z</time></trkpt><trkpt lat="46.006966367624734" lon="12.541619770624628"><ele>54.0</ele><time>2026-03-29T08:13:17.999Z</time></trkpt><trkpt lat="46.0070807661013" lon="12.54171389536299"><ele>54.5</ele><time>2026-03-29T08:13:18.999Z</time></trkpt><trkpt lat="46.007197640388945" lon="12.541797823236237"><ele>55.0</ele><time>2026-03-29T08:13:19.999Z</time></trkpt><trkpt lat="46.007310883835096" lon="12.54186908779694"><ele>55.0</ele><time>2026-03-29T08:13:20.999Z</time></trkpt><trkpt lat="46.00742501786057" lon="12.54191528713232"><ele>55.0</ele><time>2026-03-29T08:13:21.999Z</time></trkpt><trkpt lat="46.00753237490406" lon="12.54195807183081"><ele>55.0</ele><time>2026-03-29T08:13:22.999Z</time></trkpt><trkpt lat="46.007634822973195" lon="12.542016632461607"><ele>55.0</ele><time>2026-03-29T08:13:23.999Z</time></trkpt><trkpt lat="46.007732306245906" lon="12.542084188280286"><ele>55.0</ele><time>2026-03-29T08:13:24.999Z</time></trkpt><trkpt lat="46.00784125495367" lon="12.54216149276546"><ele>55.5</ele><time>2026-03-29T08:13:25.999Z</time></trkpt><trkpt lat="46.00794857437758" lon="12.542245181494636"><ele>56.0</ele><time>2026-03-29T08:13:26.999Z</time></trkpt><trkpt lat="46.008058542718075" lon="12.542345525687944"><ele>56.5</ele><time>2026-03-29T08:13:27.999Z</time></trkpt><trkpt lat="46.008173760964056" lon="12.54244877665066"><ele>57.0</ele><time>2026-03-29T08:13:28.999Z</time></trkpt><trkpt lat="46.008297725049054" lon="12.542548566416183"><ele>57.25</ele><time>2026-03-29T08:13:29.999Z</time></trkpt><trkpt lat="46.008431225126195" lon="12.542640334182758"><ele>57.5</ele><time>2026-03-29T08:13:30.999Z</time></trkpt><trkpt lat="46.008563187391694" lon="12.542717259220115"><ele>57.75</ele><time>2026-03-29T08:13:32Z</time></trkpt><trkpt lat="46.00869065517088" lon="12.542780708722713"><ele>58.0</ele><time>2026-03-29T08:13:33Z</time></trkpt><trkpt lat="46.0088026030074" lon="12.542838451448631"><ele>58.0</ele><time>2026-03-29T08:13:34Z</time></trkpt><trkpt lat="46.008907386557226" lon="12.542909650184829"><ele>58.0</ele><time>2026-03-29T08:13:35Z</time></trkpt><trkpt lat="46.00901034996062" lon="12.543002150589215"><ele>58.0</ele><time>2026-03-29T08:13:36Z</time></trkpt><trkpt lat="46.009109948436866" lon="12.543123286089628"><ele>58.0</ele><time>2026-03-29T08:13:37Z</time></trkpt><trkpt lat="46.00920682083957" lon="12.543260673933053"><ele>58.0</ele><time>2026-03-29T08:13:38Z</time></trkpt><trkpt lat="46.00930975672042" lon="12.54339745150305"><ele>58.0</ele><time>2026-03-29T08:13:39Z</time></trkpt><trkpt lat="46.00942718174847" lon="12.543523851348507"><ele>58.0</ele><time>2026-03-29T08:13:40Z</time></trkpt><trkpt lat="46.00954896029956" lon="12.5436536036375"><ele>58.0</ele><time>2026-03-29T08:13:41Z</time></trkpt><trkpt lat="46.00966758199074" lon="12.54378981310391"><ele>58.25</ele><time>2026-03-29T08:13:42Z</time></trkpt><trkpt lat="46.00978837356708" lon="12.543920592856832"><ele>58.5</ele><time>2026-03-29T08:13:43Z</time></trkpt><trkpt lat="46.009914725406894" lon="12.544038810826143"><ele>58.75</ele><time>2026-03-29T08:13:44Z</time></trkpt><trkpt lat="46.01003205711591" lon="12.544148740354347"><ele>59.0</ele><time>2026-03-29T08:13:45Z</time></trkpt><trkpt lat="46.01013330705745" lon="12.54424703491376"><ele>59.2</ele><time>2026-03-29T08:13:46Z</time></trkpt><trkpt lat="46.010221413794255" lon="12.544330399077012"><ele>59.400000000000006</ele><time>2026-03-29T08:13:47Z</time></trkpt><trkpt lat="46.01029506993158" lon="12.544388755576175"><ele>59.6</ele><time>2026-03-29T08:13:48Z</time></trkpt><trkpt lat="46.01035790529028" lon="12.544417392883863"><ele>59.8</ele><time>2026-03-29T08:13:49Z</time></trkpt><trkpt lat="46.010473286384276" lon="12.54436404866175"><ele>60.0</ele><time>2026-03-29T08:13:51Z</time></trkpt><trkpt lat="46.01052861739771" lon="12.544289827886553"><ele>60.0</ele><time>2026-03-29T08:13:52Z</time></trkpt><trkpt lat="46.01058094168125" lon="12.544181195485562"><ele>60.0</ele><time>2026-03-29T08:13:53Z</time></trkpt><trkpt lat="46.010664608303465" lon="12.5440427986426"><ele>60.0</ele><time>2026-03-29T08:13:54Z</time></trkpt><trkpt lat="46.01073677635191" lon="12.543914398266102"><ele>60.0</ele><time>2026-03-29T08:13:55Z</time></trkpt><trkpt lat="46.01079825229227" lon="12.543783980464106"><ele>60.0</ele><time>2026-03-29T08:13:56Z</time></trkpt><trkpt lat="46.01086701589172" lon="12.543676314278265"><ele>60.0</ele><time>2026-03-29T08:13:57Z</time></trkpt><trkpt lat="46.01093106584149" lon="12.543578570175685"><ele>60.0</ele><time>2026-03-29T08:13:58Z</time></trkpt><trkpt lat="46.01099950090568" lon="12.543480821906547"><ele>60.0</ele><time>2026-03-29T08:13:59Z</time></trkpt><trkpt lat="46.01108569962785" lon="12.543384432433225"><ele>60.0</ele><time>2026-03-29T08:14:00Z</time></trkpt><trkpt lat="46.011202220444574" lon="12.54329445706573"><ele>60.0</ele><time>2026-03-29T08:14:01Z</time></trkpt><trkpt lat="46.01133317405518" lon="12.543196588700404"><ele>60.0</ele><time>2026-03-29T08:14:02Z</time></trkpt><trkpt lat="46.011454536545465" lon="12.543106909749556"><ele>60.0</ele><time>2026-03-29T08:14:03Z</time></trkpt><trkpt lat="46.01155782753113" lon="12.543022566509586"><ele>60.0</ele><time>2026-03-29T08:14:04Z</time></trkpt><trkpt lat="46.01163917403873" lon="12.542952914635636"><ele>60.0</ele><time>2026-03-29T08:14:05Z</time></trkpt><trkpt lat="46.01169794594791" lon="12.54290081350195"><ele>60.0</ele><time>2026-03-29T08:14:06Z</time></trkpt><trkpt lat="46.011785037579834" lon="12.542868968739604"><ele>59.8</ele><time>2026-03-29T08:14:08Z</time></trkpt><trkpt lat="46.011871020382536" lon="12.542926749848766"><ele>59.6</ele><time>2026-03-29T08:14:10Z</time></trkpt><trkpt lat="46.01193236415157" lon="12.54298176905313"><ele>59.400000000000006</ele><time>2026-03-29T08:14:11Z</time></trkpt><trkpt lat="46.01202315245284" lon="12.543040194004165"><ele>59.2</ele><time>2026-03-29T08:14:12Z</time></trkpt><trkpt lat="46.01214034932334" lon="12.543083561882815"><ele>59.0</ele><time>2026-03-29T08:14:13Z</time></trkpt><trkpt lat="46.012265345259244" lon="12.543120901037703"><ele>59.0</ele><time>2026-03-29T08:14:14Z</time></trkpt><trkpt lat="46.012382701039286" lon="12.543167832477184"><ele>59.0</ele><time>2026-03-29T08:14:15Z</time></trkpt><trkpt lat="46.01249255718869" lon="12.543228631143089"><ele>59.0</ele><time>2026-03-29T08:14:16Z</time></trkpt><trkpt lat="46.0125947985807" lon="12.543290190717485"><ele>59.0</ele><time>2026-03-29T08:14:17Z</time></trkpt><trkpt lat="46.01269103321615" lon="12.543333556946918"><ele>59.6</ele><time>2026-03-29T08:14:17.999Z</time></trkpt><trkpt lat="46.01278094944727" lon="12.54336101358514"><ele>60.2</ele><time>2026-03-29T08:14:18.999Z</time></trkpt><trkpt lat="46.01286441627648" lon="12.543364785483607"><ele>60.800000000000004</ele><time>2026-03-29T08:14:19.999Z</time></trkpt><trkpt lat="46.01294029218349" lon="12.543364225096457"><ele>61.400000000000006</ele><time>2026-03-29T08:14:20.999Z</time></trkpt><trkpt lat="46.01304030737844" lon="12.54335416028237"><ele>62.0</ele><time>2026-03-29T08:14:22.999Z</time></trkpt><trkpt lat="46.0131155538502" lon="12.54325896010784"><ele>62.0</ele><time>2026-03-29T08:14:24.999Z</time></trkpt><trkpt lat="46.01317577588462" lon="12.543141643704907"><ele>62.0</ele><time>2026-03-29T08:14:25.999Z</time></trkpt><trkpt lat="46.01327458754892" lon="12.542998405550914"><ele>62.0</ele><time>2026-03-29T08:14:26.999Z</time></trkpt><trkpt lat="46.0133725041781" lon="12.542826831698488"><ele>62.0</ele><time>2026-03-29T08:14:27.999Z</time></trkpt><trkpt lat="46.013469870508864" lon="12.542662453339476"><ele>61.75</ele><time>2026-03-29T08:14:28.999Z</time></trkpt><trkpt lat="46.01355450998208" lon="12.542531860250682"><ele>61.5</ele><time>2026-03-29T08:14:29.999Z</time></trkpt><trkpt lat="46.01361975732408" lon="12.542393977404142"><ele>61.25</ele><time>2026-03-29T08:14:30.999Z</time></trkpt><trkpt lat="46.01370149635294" lon="12.54226093770163"><ele>61.0</ele><time>2026-03-29T08:14:31.999Z</time></trkpt><trkpt lat="46.01378804326684" lon="12.542122189934439"><ele>60.8</ele><time>2026-03-29T08:14:32.999Z</time></trkpt><trkpt lat="46.01385696538275" lon="12.541989004983998"><ele>60.599999999999994</ele><time>2026-03-29T08:14:33.999Z</time></trkpt><trkpt lat="46.01392072508195" lon="12.541866896444642"><ele>60.4</ele><time>2026-03-29T08:14:34.999Z</time></trkpt><trkpt lat="46.01397714572802" lon="12.541747527928777"><ele>60.2</ele><time>2026-03-29T08:14:35.999Z</time></trkpt><trkpt lat="46.01402982204367" lon="12.54163023911432"><ele>60.0</ele><time>2026-03-29T08:14:36.999Z</time></trkpt><trkpt lat="46.0140806305542" lon="12.5415250725265"><ele>60.0</ele><time>2026-03-29T08:14:37.999Z</time></trkpt><trkpt lat="46.01414077447677" lon="12.541446712109119"><ele>60.0</ele><time>2026-03-29T08:14:38.999Z</time></trkpt><trkpt lat="46.014198932692544" lon="12.541339875208246"><ele>60.0</ele><time>2026-03-29T08:14:39.999Z</time></trkpt><trkpt lat="46.014265073831474" lon="12.54121659776266"><ele>60.0</ele><time>2026-03-29T08:14:40.999Z</time></trkpt><trkpt lat="46.01432933672956" lon="12.541089412731822"><ele>60.0</ele><time>2026-03-29T08:14:41.999Z</time></trkpt><trkpt lat="46.0143774476004" lon="12.54097447197196"><ele>60.2</ele><time>2026-03-29T08:14:42.999Z</time></trkpt><trkpt lat="46.01439477527851" lon="12.540857198649826"><ele>60.4</ele><time>2026-03-29T08:14:43.999Z</time></trkpt><trkpt lat="46.01441407524635" lon="12.54074165209657"><ele>60.599999999999994</ele><time>2026-03-29T08:14:44.999Z</time></trkpt><trkpt lat="46.01445187342534" lon="12.540604898114744"><ele>60.8</ele><time>2026-03-29T08:14:45.999Z</time></trkpt><trkpt lat="46.01447696094345" lon="12.540433569021866"><ele>61.0</ele><time>2026-03-29T08:14:46.999Z</time></trkpt><trkpt lat="46.01452456465221" lon="12.540236339147903"><ele>60.75</ele><time>2026-03-29T08:14:47.999Z</time></trkpt><trkpt lat="46.01457140695707" lon="12.540044057032024"><ele>60.5</ele><time>2026-03-29T08:14:48.999Z</time></trkpt><trkpt lat="46.0146218888221" lon="12.53984478468545"><ele>60.25</ele><time>2026-03-29T08:14:49.999Z</time></trkpt><trkpt lat="46.0146658568501" lon="12.539633007025369"><ele>60.0</ele><time>2026-03-29T08:14:50.999Z</time></trkpt><trkpt lat="46.01473796252819" lon="12.53945005112498"><ele>60.0</ele><time>2026-03-29T08:14:51.999Z</time></trkpt><trkpt lat="46.01479417236955" lon="12.53927460872615"><ele>60.0</ele><time>2026-03-29T08:14:52.999Z</time></trkpt><trkpt lat="46.01485209747014" lon="12.539105154890256"><ele>60.0</ele><time>2026-03-29T08:14:53.999Z</time></trkpt><trkpt lat="46.01489709697889" lon="12.538924909363418"><ele>60.0</ele><time>2026-03-29T08:14:54.999Z</time></trkpt><trkpt lat="46.01496413391316" lon="12.538750647406347"><ele>60.25</ele><time>2026-03-29T08:14:55.999Z</time></trkpt><trkpt lat="46.01504876635616" lon="12.538584073835827"><ele>60.5</ele><time>2026-03-29T08:14:56.999Z</time></trkpt><trkpt lat="46.01512348956893" lon="12.538406720420507"><ele>60.75</ele><time>2026-03-29T08:14:57.999Z</time></trkpt><trkpt lat="46.01518423435567" lon="12.53821665854192"><ele>61.0</ele><time>2026-03-29T08:14:58.999Z</time></trkpt><trkpt lat="46.01525100874178" lon="12.538057910764442"><ele>61.0</ele><time>2026-03-29T08:14:59.999Z</time></trkpt><trkpt lat="46.01533532979746" lon="12.537919416777726"><ele>60.99999999999999</ele><time>2026-03-29T08:15:00.999Z</time></trkpt><trkpt lat="46.01538821206339" lon="12.537773291950062"><ele>60.99999999999999</ele><time>2026-03-29T08:15:01.999Z</time></trkpt><trkpt lat="46.015448879681195" lon="12.537653187366539"><ele>61.0</ele><time>2026-03-29T08:15:02.999Z</time></trkpt><trkpt lat="46.01550644541188" lon="12.537548440295478"><ele>61.0</ele><time>2026-03-29T08:15:03.999Z</time></trkpt><trkpt lat="46.01556632951135" lon="12.537470078246171"><ele>60.8</ele><time>2026-03-29T08:15:04.999Z</time></trkpt><trkpt lat="46.015631374902554" lon="12.537397611268501"><ele>60.599999999999994</ele><time>2026-03-29T08:15:05.999Z</time></trkpt><trkpt lat="46.01571462059153" lon="12.53732157188038"><ele>60.4</ele><time>2026-03-29T08:15:06.999Z</time></trkpt><trkpt lat="46.01580179253993" lon="12.53726319722599"><ele>60.2</ele><time>2026-03-29T08:15:07.999Z</time></trkpt><trkpt lat="46.015890633528464" lon="12.537218616008833"><ele>60.0</ele><time>2026-03-29T08:15:08.999Z</time></trkpt><trkpt lat="46.01597671925294" lon="12.537189589317027"><ele>60.0</ele><time>2026-03-29T08:15:09.999Z</time></trkpt><trkpt lat="46.016060225548365" lon="12.537162889325792"><ele>60.0</ele><time>2026-03-29T08:15:10.999Z</time></trkpt><trkpt lat="46.016136080193824" lon="12.537136196316615"><ele>60.0</ele><time>2026-03-29T08:15:11.999Z</time></trkpt><trkpt lat="46.016205115383784" lon="12.537105709290856"><ele>60.0</ele><time>2026-03-29T08:15:12.999Z</time></trkpt><trkpt lat="46.016264617217665" lon="12.537067973408234"><ele>60.0</ele><time>2026-03-29T08:15:13.999Z</time></trkpt><trkpt lat="46.01632561454657" lon="12.537025500198391"><ele>60.0</ele><time>2026-03-29T08:15:14.999Z</time></trkpt><trkpt lat="46.016390285586695" lon="12.536973144096505"><ele>60.0</ele><time>2026-03-29T08:15:15.999Z</time></trkpt><trkpt lat="46.01645758110009" lon="12.536910540125946"><ele>60.0</ele><time>2026-03-29T08:15:16.999Z</time></trkpt><trkpt lat="46.01653212417703" lon="12.53683435022539"><ele>60.0</ele><time>2026-03-29T08:15:17.999Z</time></trkpt><trkpt lat="46.01661161243289" lon="12.536752871358798"><ele>60.0</ele><time>2026-03-29T08:15:18.999Z</time></trkpt><trkpt lat="46.016701607450265" lon="12.536673312226181"><ele>60.0</ele><time>2026-03-29T08:15:19.999Z</time></trkpt><trkpt lat="46.01679124805444" lon="12.536591192613818"><ele>60.0</ele><time>2026-03-29T08:15:20.999Z</time></trkpt><trkpt lat="46.01688363180433" lon="12.536513240251413"><ele>60.0</ele><time>2026-03-29T08:15:21.999Z</time></trkpt><trkpt lat="46.0169888372706" lon="12.536462604952685"><ele>60.0</ele><time>2026-03-29T08:15:22.999Z</time></trkpt><trkpt lat="46.01708859505147" lon="12.5363940334833"><ele>60.0</ele><time>2026-03-29T08:15:23.999Z</time></trkpt><trkpt lat="46.01719113423355" lon="12.536332265927223"><ele>60.0</ele><time>2026-03-29T08:15:24.999Z</time></trkpt><trkpt lat="46.017290891987244" lon="12.53627855927574"><ele>60.0</ele><time>2026-03-29T08:15:25.999Z</time></trkpt><trkpt lat="46.01739098497864" lon="12.53623628757724"><ele>60.2</ele><time>2026-03-29T08:15:26.999Z</time></trkpt><trkpt lat="46.01748825896341" lon="12.536176139244738"><ele>60.4</ele><time>2026-03-29T08:15:27.999Z</time></trkpt><trkpt lat="46.017590829406686" lon="12.536140284587008"><ele>60.599999999999994</ele><time>2026-03-29T08:15:28.999Z</time></trkpt><trkpt lat="46.01769146681141" lon="12.536093730424643"><ele>60.8</ele><time>2026-03-29T08:15:29.999Z</time></trkpt><trkpt lat="46.01778674434647" lon="12.536035852320325"><ele>61.0</ele><time>2026-03-29T08:15:30.999Z</time></trkpt><trkpt lat="46.017880969653746" lon="12.535966454587406"><ele>61.0</ele><time>2026-03-29T08:15:31.999Z</time></trkpt><trkpt lat="46.017973565043185" lon="12.53588909010956"><ele>60.99999999999999</ele><time>2026-03-29T08:15:33Z</time></trkpt><trkpt lat="46.01806703482737" lon="12.535806555475885"><ele>60.99999999999999</ele><time>2026-03-29T08:15:34Z</time></trkpt><trkpt lat="46.01815904790535" lon="12.535724323327523"><ele>61.0</ele><time>2026-03-29T08:15:35Z</time></trkpt><trkpt lat="46.01824902572955" lon="12.535633198631752"><ele>61.0</ele><time>2026-03-29T08:15:36Z</time></trkpt><trkpt lat="46.01833954068703" lon="12.535542738034996"><ele>61.199999999999996</ele><time>2026-03-29T08:15:37Z</time></trkpt><trkpt lat="46.018438823437826" lon="12.53547307210949"><ele>61.39999999999999</ele><time>2026-03-29T08:15:38Z</time></trkpt><trkpt lat="46.018517474529396" lon="12.535364861044165"><ele>61.6</ele><time>2026-03-29T08:15:39Z</time></trkpt><trkpt lat="46.018598911246755" lon="12.535285153494122"><ele>61.8</ele><time>2026-03-29T08:15:40Z</time></trkpt><trkpt lat="46.018676463926205" lon="12.53519332244238"><ele>62.0</ele><time>2026-03-29T08:15:41Z</time></trkpt><trkpt lat="46.0187525100218" lon="12.53506160733971"><ele>62.0</ele><time>2026-03-29T08:15:42Z</time></trkpt><trkpt lat="46.01884937046848" lon="12.534910391338302"><ele>62.0</ele><time>2026-03-29T08:15:43Z</time></trkpt><trkpt lat="46.01894803149397" lon="12.534761069569889"><ele>62.0</ele><time>2026-03-29T08:15:44Z</time></trkpt><trkpt lat="46.01902864392011" lon="12.534624216509599"><ele>62.0</ele><time>2026-03-29T08:15:45Z</time></trkpt><trkpt lat="46.019102064206564" lon="12.534491029663096"><ele>62.5</ele><time>2026-03-29T08:15:46Z</time></trkpt><trkpt lat="46.01917520155202" lon="12.53436008265626"><ele>63.0</ele><time>2026-03-29T08:15:47Z</time></trkpt><trkpt lat="46.01925386392237" lon="12.5342233053965"><ele>63.5</ele><time>2026-03-29T08:15:48Z</time></trkpt><trkpt lat="46.019337561746475" lon="12.534088108140056"><ele>64.0</ele><time>2026-03-29T08:15:49Z</time></trkpt><trkpt lat="46.01943976019667" lon="12.533971909413191"><ele>64.0</ele><time>2026-03-29T08:15:50Z</time></trkpt><trkpt lat="46.01953403330461" lon="12.533839416038543"><ele>64.0</ele><time>2026-03-29T08:15:51Z</time></trkpt><trkpt lat="46.019629132224246" lon="12.533705083528845"><ele>64.0</ele><time>2026-03-29T08:15:52Z</time></trkpt><trkpt lat="46.01971343508481" lon="12.533553796502996"><ele>64.0</ele><time>2026-03-29T08:15:53Z</time></trkpt><trkpt lat="46.01981317009936" lon="12.533418739567262"><ele>64.0</ele><time>2026-03-29T08:15:54Z</time></trkpt><trkpt lat="46.01991945800232" lon="12.533287839416136"><ele>64.0</ele><time>2026-03-29T08:15:55Z</time></trkpt><trkpt lat="46.02002197901333" lon="12.53316104068423"><ele>64.0</ele><time>2026-03-29T08:15:56Z</time></trkpt><trkpt lat="46.020126904801366" lon="12.53306410583188"><ele>64.0</ele><time>2026-03-29T08:15:57Z</time></trkpt><trkpt lat="46.020215880722716" lon="12.532959749880842"><ele>63.6</ele><time>2026-03-29T08:15:58Z</time></trkpt><trkpt lat="46.02028938704564" lon="12.532847106734119"><ele>63.2</ele><time>2026-03-29T08:15:59Z</time></trkpt><trkpt lat="46.02036539315599" lon="12.532753158310324"><ele>62.800000000000004</ele><time>2026-03-29T08:16:00Z</time></trkpt><trkpt lat="46.02043891415353" lon="12.532671257121747"><ele>62.400000000000006</ele><time>2026-03-29T08:16:01Z</time></trkpt><trkpt lat="46.020510245715364" lon="12.532592208998931"><ele>62.0</ele><time>2026-03-29T08:16:02Z</time></trkpt><trkpt lat="46.0205779120117" lon="12.532527910090723"><ele>62.00000000000001</ele><time>2026-03-29T08:16:03Z</time></trkpt><trkpt lat="46.02064397710369" lon="12.532471214941067"><ele>62.0</ele><time>2026-03-29T08:16:04Z</time></trkpt><trkpt lat="46.02071039176104" lon="12.53239467684311"><ele>62.0</ele><time>2026-03-29T08:16:05Z</time></trkpt><trkpt lat="46.020783232961215" lon="12.53231454548608"><ele>62.0</ele><time>2026-03-29T08:16:06Z</time></trkpt><trkpt lat="46.02086057416397" lon="12.532240281450855"><ele>62.00000000000001</ele><time>2026-03-29T08:16:07Z</time></trkpt><trkpt lat="46.02094798156961" lon="12.532166156949225"><ele>62.0</ele><time>2026-03-29T08:16:08Z</time></trkpt><trkpt lat="46.021044767665806" lon="12.532095699208984"><ele>62.0</ele><time>2026-03-29T08:16:09Z</time></trkpt><trkpt lat="46.02114519275426" lon="12.532025135478992"><ele>62.0</ele><time>2026-03-29T08:16:10Z</time></trkpt><trkpt lat="46.02124559743937" lon="12.531946524446797"><ele>62.0</ele><time>2026-03-29T08:16:11Z</time></trkpt><trkpt lat="46.021347932967345" lon="12.531864469530275"><ele>62.0</ele><time>2026-03-29T08:16:12Z</time></trkpt><trkpt lat="46.02144398562627" lon="12.531783897412042"><ele>62.00000000000001</ele><time>2026-03-29T08:16:13Z</time></trkpt><trkpt lat="46.02152640798503" lon="12.531710370542715"><ele>62.0</ele><time>2026-03-29T08:16:14Z</time></trkpt><trkpt lat="46.02159667046833" lon="12.531649748109745"><ele>62.0</ele><time>2026-03-29T08:16:15Z</time></trkpt><trkpt lat="46.021651894113305" lon="12.531598829838195"><ele>62.0</ele><time>2026-03-29T08:16:16Z</time></trkpt><trkpt lat="46.02172582250093" lon="12.531526613234334"><ele>62.00000000000001</ele><time>2026-03-29T08:16:18Z</time></trkpt><trkpt lat="46.02178113779756" lon="12.531479979964928"><ele>62.0</ele><time>2026-03-29T08:16:21Z</time></trkpt><trkpt lat="46.02183453603536" lon="12.531413264448677"><ele>61.50000000000001</ele><time>2026-03-29T08:16:24Z</time></trkpt><trkpt lat="46.021892090841725" lon="12.531357688107757"><ele>61.0</ele><time>2026-03-29T08:16:27Z</time></trkpt><trkpt lat="46.02194854168374" lon="12.531307312811482"><ele>60.5</ele><time>2026-03-29T08:16:29Z</time></trkpt><trkpt lat="46.02202089241156" lon="12.53121897707856"><ele>60.0</ele><time>2026-03-29T08:16:31Z</time></trkpt><trkpt lat="46.022102577133325" lon="12.531136207418436"><ele>59.50000000000001</ele><time>2026-03-29T08:16:33Z</time></trkpt><trkpt lat="46.02218866554068" lon="12.531036693812709"><ele>59.0</ele><time>2026-03-29T08:16:35Z</time></trkpt><trkpt lat="46.022250421477736" lon="12.53097688992043"><ele>59.00000000000001</ele><time>2026-03-29T08:16:36Z</time></trkpt><trkpt lat="46.022321226801225" lon="12.530908761593414"><ele>59.0</ele><time>2026-03-29T08:16:37Z</time></trkpt><trkpt lat="46.022395741980986" lon="12.530833579222385"><ele>59.0</ele><time>2026-03-29T08:16:38Z</time></trkpt><trkpt lat="46.02247004462609" lon="12.530768327379539"><ele>59.0</ele><time>2026-03-29T08:16:39Z</time></trkpt><trkpt lat="46.022533541715646" lon="12.53070749453547"><ele>59.00000000000001</ele><time>2026-03-29T08:16:40Z</time></trkpt><trkpt lat="46.022594608089086" lon="12.53064966151951"><ele>59.0</ele><time>2026-03-29T08:16:41Z</time></trkpt><trkpt lat="46.02265429129026" lon="12.530600624225045"><ele>59.6</ele><time>2026-03-29T08:16:42Z</time></trkpt><trkpt lat="46.02270824359752" lon="12.530548753101646"><ele>60.2</ele><time>2026-03-29T08:16:43Z</time></trkpt><trkpt lat="46.022802297647225" lon="12.53045830998202"><ele>60.800000000000004</ele><time>2026-03-29T08:16:45Z</time></trkpt><trkpt lat="46.02290371070113" lon="12.530339734585198"><ele>61.400000000000006</ele><time>2026-03-29T08:16:47Z</time></trkpt><trkpt lat="46.02296236231544" lon="12.53026827482632"><ele>62.0</ele><time>2026-03-29T08:16:48Z</time></trkpt><trkpt lat="46.023016460057" lon="12.530196659403002"><ele>62.00000000000001</ele><time>2026-03-29T08:16:49Z</time></trkpt><trkpt lat="46.02306952675979" lon="12.530128057280047"><ele>62.0</ele><time>2026-03-29T08:16:50Z</time></trkpt><trkpt lat="46.02311537950171" lon="12.530058690877585"><ele>62.0</ele><time>2026-03-29T08:16:51Z</time></trkpt><trkpt lat="46.0231847984902" lon="12.529915030611932"><ele>62.0</ele><time>2026-03-29T08:16:53Z</time></trkpt><trkpt lat="46.02326435255297" lon="12.529795438306538"><ele>62.00000000000001</ele><time>2026-03-29T08:16:55Z</time></trkpt><trkpt lat="46.023319109053425" lon="12.529736203582507"><ele>62.0</ele><time>2026-03-29T08:16:56Z</time></trkpt><trkpt lat="46.02338782052942" lon="12.52969740727245"><ele>62.2</ele><time>2026-03-29T08:16:57Z</time></trkpt><trkpt lat="46.023459722581386" lon="12.52966970352778"><ele>62.400000000000006</ele><time>2026-03-29T08:16:58Z</time></trkpt><trkpt lat="46.02352248504417" lon="12.529636979632562"><ele>62.599999999999994</ele><time>2026-03-29T08:16:59Z</time></trkpt><trkpt lat="46.02358388447687" lon="12.529603044983002"><ele>62.8</ele><time>2026-03-29T08:17:00Z</time></trkpt><trkpt lat="46.02370292649862" lon="12.529547308875788"><ele>63.0</ele><time>2026-03-29T08:17:02Z</time></trkpt><trkpt lat="46.023816405758076" lon="12.52948731138669"><ele>62.666666666666664</ele><time>2026-03-29T08:17:04Z</time></trkpt><trkpt lat="46.02392639258484" lon="12.529406067954788"><ele>62.33333333333333</ele><time>2026-03-29T08:17:06Z</time></trkpt><trkpt lat="46.023984571313086" lon="12.529362313113204"><ele>62.0</ele><time>2026-03-29T08:17:07Z</time></trkpt><trkpt lat="46.02404013055999" lon="12.529312035082466"><ele>61.666666666666664</ele><time>2026-03-29T08:17:08Z</time></trkpt><trkpt lat="46.024095923292464" lon="12.52925485936202"><ele>61.33333333333333</ele><time>2026-03-29T08:17:09Z</time></trkpt><trkpt lat="46.02415306280512" lon="12.5291906428328"><ele>61.0</ele><time>2026-03-29T08:17:10Z</time></trkpt><trkpt lat="46.02421191196336" lon="12.529122185487873"><ele>60.99999999999999</ele><time>2026-03-29T08:17:11Z</time></trkpt><trkpt lat="46.02427616413475" lon="12.529058884059706"><ele>61.0</ele><time>2026-03-29T08:17:12Z</time></trkpt><trkpt lat="46.024337886272775" lon="12.528989809867229"><ele>61.0</ele><time>2026-03-29T08:17:13Z</time></trkpt><trkpt lat="46.02440127814372" lon="12.528918614518464"><ele>61.0</ele><time>2026-03-29T08:17:14Z</time></trkpt><trkpt lat="46.02446757445558" lon="12.528851665717651"><ele>60.99999999999999</ele><time>2026-03-29T08:17:15Z</time></trkpt><trkpt lat="46.024532703467145" lon="12.528781887174755"><ele>61.0</ele><time>2026-03-29T08:17:16Z</time></trkpt><trkpt lat="46.02460285922097" lon="12.528714626778534"><ele>60.666666666666664</ele><time>2026-03-29T08:17:17Z</time></trkpt><trkpt lat="46.02467335164657" lon="12.52864774594731"><ele>60.33333333333333</ele><time>2026-03-29T08:17:18Z</time></trkpt><trkpt lat="46.0247448211105" lon="12.528578464039038"><ele>60.0</ele><time>2026-03-29T08:17:19Z</time></trkpt><trkpt lat="46.02481663273534" lon="12.528505356485763"><ele>59.66666666666667</ele><time>2026-03-29T08:17:20Z</time></trkpt><trkpt lat="46.02488947571103" lon="12.528428890193025"><ele>59.333333333333336</ele><time>2026-03-29T08:17:21Z</time></trkpt><trkpt lat="46.02495659792074" lon="12.528357993654055"><ele>59.0</ele><time>2026-03-29T08:17:21.999Z</time></trkpt><trkpt lat="46.02502993465638" lon="12.52829463498874"><ele>59.00000000000001</ele><time>2026-03-29T08:17:22.999Z</time></trkpt><trkpt lat="46.025104608495695" lon="12.528236794495472"><ele>59.0</ele><time>2026-03-29T08:17:23.999Z</time></trkpt><trkpt lat="46.02517336774723" lon="12.528183832794697"><ele>59.0</ele><time>2026-03-29T08:17:24.999Z</time></trkpt><trkpt lat="46.02523783479515" lon="12.528141356584214"><ele>59.0</ele><time>2026-03-29T08:17:25.999Z</time></trkpt><trkpt lat="46.025297990820995" lon="12.52810614727451"><ele>59.00000000000001</ele><time>2026-03-29T08:17:26.999Z</time></trkpt><trkpt lat="46.025410627255425" lon="12.528056225118592"><ele>59.0</ele><time>2026-03-29T08:17:28.999Z</time></trkpt><trkpt lat="46.025528411848036" lon="12.528025373859366"><ele>59.0</ele><time>2026-03-29T08:17:30.999Z</time></trkpt><trkpt lat="46.02559087941104" lon="12.528012513201984"><ele>59.0</ele><time>2026-03-29T08:17:31.999Z</time></trkpt><trkpt lat="46.02565536690331" lon="12.527995710551888"><ele>59.0</ele><time>2026-03-29T08:17:32.999Z</time></trkpt><trkpt lat="46.0257231105931" lon="12.527978553071033"><ele>59.0</ele><time>2026-03-29T08:17:33.999Z</time></trkpt><trkpt lat="46.025793224818706" lon="12.527958029889476"><ele>59.0</ele><time>2026-03-29T08:17:34.999Z</time></trkpt><trkpt lat="46.02586541510435" lon="12.527932191414617"><ele>59.0</ele><time>2026-03-29T08:17:35.999Z</time></trkpt><trkpt lat="46.02594026689942" lon="12.527893257951172"><ele>59.0</ele><time>2026-03-29T08:17:37Z</time></trkpt><trkpt lat="46.02601587060742" lon="12.527847497782771"><ele>59.16666666666667</ele><time>2026-03-29T08:17:38Z</time></trkpt><trkpt lat="46.02609262196077" lon="12.527795251211977"><ele>59.333333333333336</ele><time>2026-03-29T08:17:39Z</time></trkpt><trkpt lat="46.02617155153602" lon="12.527744385131475"><ele>59.5</ele><time>2026-03-29T08:17:40Z</time></trkpt><trkpt lat="46.02624873737711" lon="12.527692159802989"><ele>59.66666666666667</ele><time>2026-03-29T08:17:41Z</time></trkpt><trkpt lat="46.026327198205955" lon="12.527634279529154"><ele>59.833333333333336</ele><time>2026-03-29T08:17:42Z</time></trkpt><trkpt lat="46.02640446771315" lon="12.527570827009253"><ele>60.0</ele><time>2026-03-29T08:17:43Z</time></trkpt><trkpt lat="46.02648126869945" lon="12.527504246368757"><ele>60.0</ele><time>2026-03-29T08:17:44Z</time></trkpt><trkpt lat="46.026557710469824" lon="12.52743726914891"><ele>60.0</ele><time>2026-03-29T08:17:45Z</time></trkpt><trkpt lat="46.02663220528687" lon="12.527368267162789"><ele>60.0</ele><time>2026-03-29T08:17:46Z</time></trkpt><trkpt lat="46.02671373666841" lon="12.527296868084001"><ele>60.0</ele><time>2026-03-29T08:17:47Z</time></trkpt><trkpt lat="46.02679579418367" lon="12.527232155374971"><ele>60.0</ele><time>2026-03-29T08:17:48Z</time></trkpt><trkpt lat="46.02688180274386" lon="12.527178892421784"><ele>60.4</ele><time>2026-03-29T08:17:49Z</time></trkpt><trkpt lat="46.02696492731519" lon="12.527122145622272"><ele>60.8</ele><time>2026-03-29T08:17:50Z</time></trkpt><trkpt lat="46.027050039139695" lon="12.527063563300777"><ele>61.2</ele><time>2026-03-29T08:17:51Z</time></trkpt><trkpt lat="46.02713489449222" lon="12.527003728990909"><ele>61.6</ele><time>2026-03-29T08:17:52Z</time></trkpt><trkpt lat="46.027219260937045" lon="12.526944021521556"><ele>62.0</ele><time>2026-03-29T08:17:53Z</time></trkpt><trkpt lat="46.02730240946262" lon="12.526876577296832"><ele>62.0</ele><time>2026-03-29T08:17:54Z</time></trkpt><trkpt lat="46.02738043994054" lon="12.52679950072768"><ele>62.0</ele><time>2026-03-29T08:17:55Z</time></trkpt><trkpt lat="46.027454849951674" lon="12.526723512818227"><ele>62.0</ele><time>2026-03-29T08:17:56Z</time></trkpt><trkpt lat="46.02753100966715" lon="12.526649019197164"><ele>62.0</ele><time>2026-03-29T08:17:57Z</time></trkpt><trkpt lat="46.0276128664202" lon="12.526573888052043"><ele>62.0</ele><time>2026-03-29T08:17:58Z</time></trkpt><trkpt lat="46.02769945927444" lon="12.526504999092888"><ele>61.8</ele><time>2026-03-29T08:17:59Z</time></trkpt><trkpt lat="46.027790275213256" lon="12.526444698629808"><ele>61.6</ele><time>2026-03-29T08:18:00Z</time></trkpt><trkpt lat="46.027881425329745" lon="12.52638185357792"><ele>61.39999999999999</ele><time>2026-03-29T08:18:01Z</time></trkpt><trkpt lat="46.02797287391007" lon="12.52631642403942"><ele>61.199999999999996</ele><time>2026-03-29T08:18:02Z</time></trkpt><trkpt lat="46.028060199491385" lon="12.52625553147345"><ele>61.0</ele><time>2026-03-29T08:18:03Z</time></trkpt><trkpt lat="46.028149404267985" lon="12.526184530068235"><ele>61.0</ele><time>2026-03-29T08:18:04Z</time></trkpt><trkpt lat="46.028242516325456" lon="12.526107025097609"><ele>60.99999999999999</ele><time>2026-03-29T08:18:05Z</time></trkpt><trkpt lat="46.028327623553714" lon="12.526022793051128"><ele>60.99999999999999</ele><time>2026-03-29T08:18:06Z</time></trkpt><trkpt lat="46.02840730118671" lon="12.525940574099119"><ele>61.0</ele><time>2026-03-29T08:18:07Z</time></trkpt><trkpt lat="46.028480042057865" lon="12.52585953605199"><ele>61.0</ele><time>2026-03-29T08:18:08Z</time></trkpt><trkpt lat="46.02854508549869" lon="12.525778358390088"><ele>61.0</ele><time>2026-03-29T08:18:09Z</time></trkpt><trkpt lat="46.02860269196374" lon="12.52572780514516"><ele>60.99999999999999</ele><time>2026-03-29T08:18:10Z</time></trkpt><trkpt lat="46.0286612808158" lon="12.525647231304118"><ele>60.99999999999999</ele><time>2026-03-29T08:18:12Z</time></trkpt><trkpt lat="46.02865459812403" lon="12.525424781734777"><ele>61.0</ele><time>2026-03-29T08:18:14Z</time></trkpt><trkpt lat="46.028631568716904" lon="12.525313498652825"><ele>61.0</ele><time>2026-03-29T08:18:15Z</time></trkpt><trkpt lat="46.02860505364797" lon="12.525192890458829"><ele>61.33333333333333</ele><time>2026-03-29T08:18:16Z</time></trkpt><trkpt lat="46.02858148867399" lon="12.525092739191173"><ele>61.666666666666664</ele><time>2026-03-29T08:18:17Z</time></trkpt><trkpt lat="46.02855607960223" lon="12.525003735538023"><ele>62.0</ele><time>2026-03-29T08:18:18Z</time></trkpt><trkpt lat="46.02852274713681" lon="12.524904012874678"><ele>62.33333333333333</ele><time>2026-03-29T08:18:19Z</time></trkpt><trkpt lat="46.02846593826646" lon="12.524813472719334"><ele>62.666666666666664</ele><time>2026-03-29T08:18:20Z</time></trkpt><trkpt lat="46.02841363287542" lon="12.52471302884458"><ele>63.0</ele><time>2026-03-29T08:18:21Z</time></trkpt><trkpt lat="46.0283529966024" lon="12.52459578619164"><ele>63.0</ele><time>2026-03-29T08:18:22Z</time></trkpt><trkpt lat="46.02828767170122" lon="12.524477627185407"><ele>63.0</ele><time>2026-03-29T08:18:23Z</time></trkpt><trkpt lat="46.0282152667436" lon="12.524364213081796"><ele>63.0</ele><time>2026-03-29T08:18:24Z</time></trkpt><trkpt lat="46.0281492957492" lon="12.52427423414115"><ele>63.0</ele><time>2026-03-29T08:18:25Z</time></trkpt><trkpt lat="46.02807923675673" lon="12.52421148865079"><ele>63.0</ele><time>2026-03-29T08:18:26Z</time></trkpt><trkpt lat="46.028038736809116" lon="12.524120386241105"><ele>63.0</ele><time>2026-03-29T08:18:27Z</time></trkpt><trkpt lat="46.02803635097834" lon="12.524003480948396"><ele>63.0</ele><time>2026-03-29T08:18:28Z</time></trkpt><trkpt lat="46.02801065296138" lon="12.523891077857755"><ele>63.0</ele><time>2026-03-29T08:18:29Z</time></trkpt><trkpt lat="46.02799941606751" lon="12.52377757793827"><ele>63.0</ele><time>2026-03-29T08:18:30Z</time></trkpt><trkpt lat="46.02799599431062" lon="12.523662055029304"><ele>63.0</ele><time>2026-03-29T08:18:31Z</time></trkpt><trkpt lat="46.02801976157806" lon="12.523552489520636"><ele>63.0</ele><time>2026-03-29T08:18:32Z</time></trkpt><trkpt lat="46.02806059049522" lon="12.523453620313527"><ele>62.599999999999994</ele><time>2026-03-29T08:18:33Z</time></trkpt><trkpt lat="46.028119813530616" lon="12.523359673676513"><ele>62.199999999999996</ele><time>2026-03-29T08:18:34Z</time></trkpt><trkpt lat="46.02818888017748" lon="12.52325597186833"><ele>61.8</ele><time>2026-03-29T08:18:35Z</time></trkpt><trkpt lat="46.02826712302473" lon="12.523141776429545"><ele>61.4</ele><time>2026-03-29T08:18:36Z</time></trkpt><trkpt lat="46.02834069229297" lon="12.52303109946388"><ele>61.0</ele><time>2026-03-29T08:18:37Z</time></trkpt><trkpt lat="46.0284097103422" lon="12.522917054523527"><ele>61.25</ele><time>2026-03-29T08:18:38Z</time></trkpt><trkpt lat="46.0284751583769" lon="12.522790054605524"><ele>61.5</ele><time>2026-03-29T08:18:39Z</time></trkpt><trkpt lat="46.02853416577899" lon="12.522647804982443"><ele>61.75</ele><time>2026-03-29T08:18:40Z</time></trkpt><trkpt lat="46.02859286961648" lon="12.522502573469984"><ele>62.0</ele><time>2026-03-29T08:18:41Z</time></trkpt><trkpt lat="46.02865052301707" lon="12.522353328561808"><ele>62.0</ele><time>2026-03-29T08:18:42Z</time></trkpt><trkpt lat="46.02868587137432" lon="12.522197711014279"><ele>62.0</ele><time>2026-03-29T08:18:43Z</time></trkpt><trkpt lat="46.02873060720425" lon="12.522048711267201"><ele>62.0</ele><time>2026-03-29T08:18:44Z</time></trkpt><trkpt lat="46.02878353615631" lon="12.521903212019208"><ele>62.0</ele><time>2026-03-29T08:18:45Z</time></trkpt><trkpt lat="46.02881363640682" lon="12.521743071353212"><ele>61.75</ele><time>2026-03-29T08:18:46Z</time></trkpt><trkpt lat="46.02883241237622" lon="12.521581379585566"><ele>61.5</ele><time>2026-03-29T08:18:47Z</time></trkpt><trkpt lat="46.02883129953385" lon="12.521415199632886"><ele>61.25</ele><time>2026-03-29T08:18:48Z</time></trkpt><trkpt lat="46.028822085383" lon="12.521254549360082"><ele>61.0</ele><time>2026-03-29T08:18:49Z</time></trkpt><trkpt lat="46.028808846338244" lon="12.521097489455396"><ele>60.8</ele><time>2026-03-29T08:18:50Z</time></trkpt><trkpt lat="46.02878958345067" lon="12.520941817556936"><ele>60.599999999999994</ele><time>2026-03-29T08:18:51Z</time></trkpt><trkpt lat="46.02875740793441" lon="12.520786535020966"><ele>60.4</ele><time>2026-03-29T08:18:52Z</time></trkpt><trkpt lat="46.02872619964076" lon="12.52065059027127"><ele>60.2</ele><time>2026-03-29T08:18:53Z</time></trkpt><trkpt lat="46.02870302332318" lon="12.520519651178695"><ele>60.0</ele><time>2026-03-29T08:18:54Z</time></trkpt><trkpt lat="46.028694955236176" lon="12.520394715739947"><ele>60.0</ele><time>2026-03-29T08:18:55Z</time></trkpt><trkpt lat="46.028724115469586" lon="12.52028008843901"><ele>60.0</ele><time>2026-03-29T08:18:56Z</time></trkpt><trkpt lat="46.02876306110065" lon="12.520157567848052"><ele>60.0</ele><time>2026-03-29T08:18:57Z</time></trkpt><trkpt lat="46.02880284671043" lon="12.520027190528653"><ele>60.0</ele><time>2026-03-29T08:18:58Z</time></trkpt><trkpt lat="46.028840151513066" lon="12.519902901046347"><ele>60.0</ele><time>2026-03-29T08:18:59Z</time></trkpt><trkpt lat="46.02886638108749" lon="12.519798223684461"><ele>60.0</ele><time>2026-03-29T08:19:00Z</time></trkpt><trkpt lat="46.028885304493315" lon="12.519710643911424"><ele>60.0</ele><time>2026-03-29T08:19:01Z</time></trkpt><trkpt lat="46.028889518985984" lon="12.51961904984551"><ele>60.0</ele><time>2026-03-29T08:19:02Z</time></trkpt><trkpt lat="46.02887778656735" lon="12.519529722694353"><ele>60.0</ele><time>2026-03-29T08:19:03Z</time></trkpt><trkpt lat="46.028852480618006" lon="12.519345449786968"><ele>60.0</ele><time>2026-03-29T08:19:05Z</time></trkpt><trkpt lat="46.02883844324993" lon="12.519250388910528"><ele>60.0</ele><time>2026-03-29T08:19:06Z</time></trkpt><trkpt lat="46.0288228515846" lon="12.519122441589623"><ele>60.0</ele><time>2026-03-29T08:19:08Z</time></trkpt><trkpt lat="46.02889637917491" lon="12.519030131858607"><ele>60.0</ele><time>2026-03-29T08:19:11Z</time></trkpt><trkpt lat="46.02895046730986" lon="12.51896575701514"><ele>60.0</ele><time>2026-03-29T08:19:12Z</time></trkpt><trkpt lat="46.02900316205875" lon="12.518883102108434"><ele>60.0</ele><time>2026-03-29T08:19:13Z</time></trkpt><trkpt lat="46.02906172512953" lon="12.518799395966171"><ele>60.0</ele><time>2026-03-29T08:19:14Z</time></trkpt><trkpt lat="46.029131070642805" lon="12.518736220690537"><ele>60.0</ele><time>2026-03-29T08:19:15Z</time></trkpt><trkpt lat="46.0291978730123" lon="12.518650687783472"><ele>60.0</ele><time>2026-03-29T08:19:16Z</time></trkpt><trkpt lat="46.02926299443353" lon="12.518558818559633"><ele>60.333333333333336</ele><time>2026-03-29T08:19:17Z</time></trkpt><trkpt lat="46.0293193311642" lon="12.518460726316787"><ele>60.66666666666667</ele><time>2026-03-29T08:19:18Z</time></trkpt><trkpt lat="46.02935694839584" lon="12.518346734837476"><ele>61.0</ele><time>2026-03-29T08:19:19Z</time></trkpt><trkpt lat="46.02941311726333" lon="12.5182577952735"><ele>61.333333333333336</ele><time>2026-03-29T08:19:20Z</time></trkpt><trkpt lat="46.02945226978367" lon="12.51816051833328"><ele>61.66666666666667</ele><time>2026-03-29T08:19:21Z</time></trkpt><trkpt lat="46.029477597960245" lon="12.518060463525037"><ele>62.0</ele><time>2026-03-29T08:19:22Z</time></trkpt><trkpt lat="46.02951744605075" lon="12.517987058269735"><ele>62.0</ele><time>2026-03-29T08:19:23Z</time></trkpt><trkpt lat="46.02957945538252" lon="12.51787895454065"><ele>62.0</ele><time>2026-03-29T08:19:25Z</time></trkpt><trkpt lat="46.02960969664254" lon="12.517791197353821"><ele>62.0</ele><time>2026-03-29T08:19:38.999Z</time></trkpt><trkpt lat="46.02949767368196" lon="12.517680759428517"><ele>62.0</ele><time>2026-03-29T08:19:39.999Z</time></trkpt><trkpt lat="46.029430084729746" lon="12.517635406580718"><ele>62.0</ele><time>2026-03-29T08:19:40.999Z</time></trkpt><trkpt lat="46.02935357365161" lon="12.517588528118871"><ele>62.0</ele><time>2026-03-29T08:19:41.999Z</time></trkpt><trkpt lat="46.029265158322055" lon="12.517543652720033"><ele>62.0</ele><time>2026-03-29T08:19:42.999Z</time></trkpt><trkpt lat="46.02917172769449" lon="12.517489634939928"><ele>62.0</ele><time>2026-03-29T08:19:43.999Z</time></trkpt><trkpt lat="46.02907082646659" lon="12.517448170704963"><ele>62.0</ele><time>2026-03-29T08:19:44.999Z</time></trkpt><trkpt lat="46.02897522559338" lon="12.517395139883051"><ele>62.0</ele><time>2026-03-29T08:19:45.999Z</time></trkpt><trkpt lat="46.02887997268281" lon="12.517340015603677"><ele>61.8</ele><time>2026-03-29T08:19:46.999Z</time></trkpt><trkpt lat="46.02878465503203" lon="12.517286826007375"><ele>61.6</ele><time>2026-03-29T08:19:48Z</time></trkpt><trkpt lat="46.02868726499431" lon="12.517215546222833"><ele>61.39999999999999</ele><time>2026-03-29T08:19:49Z</time></trkpt><trkpt lat="46.028600063654906" lon="12.517133103584397"><ele>61.199999999999996</ele><time>2026-03-29T08:19:50Z</time></trkpt><trkpt lat="46.02852787918351" lon="12.517029426793133"><ele>61.0</ele><time>2026-03-29T08:19:51Z</time></trkpt><trkpt lat="46.02847250944456" lon="12.516907798892637"><ele>60.599999999999994</ele><time>2026-03-29T08:19:52Z</time></trkpt><trkpt lat="46.02842324908593" lon="12.516774151088965"><ele>60.199999999999996</ele><time>2026-03-29T08:19:53Z</time></trkpt><trkpt lat="46.02839894534466" lon="12.516621068045264"><ele>59.800000000000004</ele><time>2026-03-29T08:19:54Z</time></trkpt><trkpt lat="46.02836790631706" lon="12.516469874719226"><ele>59.400000000000006</ele><time>2026-03-29T08:19:55Z</time></trkpt><trkpt lat="46.02834101358852" lon="12.516305974252033"><ele>59.0</ele><time>2026-03-29T08:19:56Z</time></trkpt><trkpt lat="46.02832364877317" lon="12.51614066616079"><ele>59.0</ele><time>2026-03-29T08:19:57Z</time></trkpt><trkpt lat="46.028321323111875" lon="12.515982761062046"><ele>59.00000000000001</ele><time>2026-03-29T08:19:58Z</time></trkpt><trkpt lat="46.02831908256995" lon="12.515836846899768"><ele>59.00000000000001</ele><time>2026-03-29T08:19:59Z</time></trkpt><trkpt lat="46.0283377154907" lon="12.515710846313189"><ele>59.0</ele><time>2026-03-29T08:20:00Z</time></trkpt><trkpt lat="46.028344826407206" lon="12.515581886272058"><ele>59.0</ele><time>2026-03-29T08:20:01Z</time></trkpt><trkpt lat="46.02832795208272" lon="12.515452928388287"><ele>58.6</ele><time>2026-03-29T08:20:02Z</time></trkpt><trkpt lat="46.028308309801176" lon="12.51530820755561"><ele>58.2</ele><time>2026-03-29T08:20:03Z</time></trkpt><trkpt lat="46.02826503495307" lon="12.515166870166498"><ele>57.800000000000004</ele><time>2026-03-29T08:20:04Z</time></trkpt><trkpt lat="46.028217549403024" lon="12.515023951401187"><ele>57.400000000000006</ele><time>2026-03-29T08:20:05Z</time></trkpt><trkpt lat="46.02816657254148" lon="12.514878826320485"><ele>57.0</ele><time>2026-03-29T08:20:06Z</time></trkpt><trkpt lat="46.02811179449884" lon="12.51473129487427"><ele>57.0</ele><time>2026-03-29T08:20:07Z</time></trkpt><trkpt lat="46.028053483205916" lon="12.514581089934786"><ele>57.0</ele><time>2026-03-29T08:20:08Z</time></trkpt><trkpt lat="46.02798208248741" lon="12.514443488417607"><ele>57.0</ele><time>2026-03-29T08:20:09Z</time></trkpt><trkpt lat="46.027920027862805" lon="12.514295589798293"><ele>57.0</ele><time>2026-03-29T08:20:10Z</time></trkpt><trkpt lat="46.02785353216361" lon="12.514152034500931"><ele>57.5</ele><time>2026-03-29T08:20:11Z</time></trkpt><trkpt lat="46.02779154487307" lon="12.514007282066022"><ele>58.0</ele><time>2026-03-29T08:20:12Z</time></trkpt><trkpt lat="46.027731700606964" lon="12.513862508282799"><ele>58.5</ele><time>2026-03-29T08:20:13Z</time></trkpt><trkpt lat="46.02767176307185" lon="12.513719580320863"><ele>59.0</ele><time>2026-03-29T08:20:14Z</time></trkpt><trkpt lat="46.02761431406845" lon="12.513576563238267"><ele>59.0</ele><time>2026-03-29T08:20:15Z</time></trkpt><trkpt lat="46.02755829108285" lon="12.51344490870886"><ele>59.00000000000001</ele><time>2026-03-29T08:20:16Z</time></trkpt><trkpt lat="46.02750344349396" lon="12.513324608621078"><ele>59.00000000000001</ele><time>2026-03-29T08:20:17Z</time></trkpt><trkpt lat="46.027439632368434" lon="12.513221813092912"><ele>59.0</ele><time>2026-03-29T08:20:18Z</time></trkpt><trkpt lat="46.02735988570797" lon="12.513125198595672"><ele>59.0</ele><time>2026-03-29T08:20:19Z</time></trkpt><trkpt lat="46.02727377634346" lon="12.513028681332097"><ele>58.400000000000006</ele><time>2026-03-29T08:20:20Z</time></trkpt><trkpt lat="46.02718676010633" lon="12.512938548567355"><ele>57.800000000000004</ele><time>2026-03-29T08:20:21Z</time></trkpt><trkpt lat="46.02710287683243" lon="12.512863450947892"><ele>57.199999999999996</ele><time>2026-03-29T08:20:22Z</time></trkpt><trkpt lat="46.02702954478288" lon="12.51277842892579"><ele>56.599999999999994</ele><time>2026-03-29T08:20:23Z</time></trkpt><trkpt lat="46.02696108959019" lon="12.512690001486293"><ele>56.0</ele><time>2026-03-29T08:20:24Z</time></trkpt><trkpt lat="46.026894130067106" lon="12.512589787857246"><ele>55.833333333333336</ele><time>2026-03-29T08:20:25Z</time></trkpt><trkpt lat="46.02683324852174" lon="12.51249409779725"><ele>55.66666666666667</ele><time>2026-03-29T08:20:26Z</time></trkpt><trkpt lat="46.0267759362965" lon="12.512401541081404"><ele>55.5</ele><time>2026-03-29T08:20:27Z</time></trkpt><trkpt lat="46.02672307798644" lon="12.512313026351308"><ele>55.33333333333333</ele><time>2026-03-29T08:20:28Z</time></trkpt><trkpt lat="46.026681222697384" lon="12.512223141320725"><ele>55.166666666666664</ele><time>2026-03-29T08:20:29Z</time></trkpt><trkpt lat="46.02664485978564" lon="12.512127912702228"><ele>55.0</ele><time>2026-03-29T08:20:30Z</time></trkpt><trkpt lat="46.02661019741984" lon="12.512033045708328"><ele>54.83333333333333</ele><time>2026-03-29T08:20:31Z</time></trkpt><trkpt lat="46.02658058728179" lon="12.511938373427208"><ele>54.666666666666664</ele><time>2026-03-29T08:20:32Z</time></trkpt><trkpt lat="46.02655675284905" lon="12.51183806234723"><ele>54.5</ele><time>2026-03-29T08:20:33Z</time></trkpt><trkpt lat="46.02656458754275" lon="12.511728839496973"><ele>54.33333333333333</ele><time>2026-03-29T08:20:34Z</time></trkpt><trkpt lat="46.02657201731002" lon="12.511608276201914"><ele>54.166666666666664</ele><time>2026-03-29T08:20:35Z</time></trkpt><trkpt lat="46.026592056935996" lon="12.51148049596121"><ele>54.0</ele><time>2026-03-29T08:20:36Z</time></trkpt><trkpt lat="46.026584050548166" lon="12.51134530923267"><ele>53.6</ele><time>2026-03-29T08:20:37Z</time></trkpt><trkpt lat="46.026601903082934" lon="12.511210879174621"><ele>53.2</ele><time>2026-03-29T08:20:38Z</time></trkpt><trkpt lat="46.026615506960965" lon="12.511068499583876"><ele>52.800000000000004</ele><time>2026-03-29T08:20:39Z</time></trkpt><trkpt lat="46.02665364782691" lon="12.5109311386744"><ele>52.400000000000006</ele><time>2026-03-29T08:20:40Z</time></trkpt><trkpt lat="46.02666422522503" lon="12.510788999235267"><ele>52.0</ele><time>2026-03-29T08:20:41Z</time></trkpt><trkpt lat="46.02668791525792" lon="12.510650050964951"><ele>52.8</ele><time>2026-03-29T08:20:42Z</time></trkpt><trkpt lat="46.0266871298153" lon="12.510501847225719"><ele>53.6</ele><time>2026-03-29T08:20:43Z</time></trkpt><trkpt lat="46.02669335063256" lon="12.510353570956418"><ele>54.39999999999999</ele><time>2026-03-29T08:20:44Z</time></trkpt><trkpt lat="46.02669990671852" lon="12.510201517703475"><ele>55.199999999999996</ele><time>2026-03-29T08:20:45Z</time></trkpt><trkpt lat="46.02671655545637" lon="12.510046468287868"><ele>56.0</ele><time>2026-03-29T08:20:46Z</time></trkpt><trkpt lat="46.02673304827082" lon="12.509888355119283"><ele>56.0</ele><time>2026-03-29T08:20:47Z</time></trkpt><trkpt lat="46.02674836005417" lon="12.509725126846611"><ele>56.0</ele><time>2026-03-29T08:20:48Z</time></trkpt><trkpt lat="46.026780538169874" lon="12.509560600272046"><ele>56.0</ele><time>2026-03-29T08:20:49Z</time></trkpt><trkpt lat="46.02677172461253" lon="12.50939182498786"><ele>56.0</ele><time>2026-03-29T08:20:50Z</time></trkpt><trkpt lat="46.02677934267629" lon="12.509231358672725"><ele>55.833333333333336</ele><time>2026-03-29T08:20:51Z</time></trkpt><trkpt lat="46.02677364142587" lon="12.50908223178611"><ele>55.66666666666667</ele><time>2026-03-29T08:20:52Z</time></trkpt><trkpt lat="46.02676925508859" lon="12.508954313069648"><ele>55.5</ele><time>2026-03-29T08:20:53Z</time></trkpt><trkpt lat="46.02676771541413" lon="12.508850739287823"><ele>55.33333333333333</ele><time>2026-03-29T08:20:54Z</time></trkpt><trkpt lat="46.026770607673924" lon="12.508750219897712"><ele>55.166666666666664</ele><time>2026-03-29T08:20:55Z</time></trkpt><trkpt lat="46.02673366196461" lon="12.508661564772934"><ele>55.0</ele><time>2026-03-29T08:20:56Z</time></trkpt><trkpt lat="46.02678841448356" lon="12.508522581294617"><ele>55.0</ele><time>2026-03-29T08:20:57Z</time></trkpt><trkpt lat="46.026811600570056" lon="12.508398673031184"><ele>55.0</ele><time>2026-03-29T08:20:58Z</time></trkpt><trkpt lat="46.02684706804362" lon="12.508276985527923"><ele>55.0</ele><time>2026-03-29T08:20:59Z</time></trkpt><trkpt lat="46.026895904082636" lon="12.508161166627112"><ele>55.0</ele><time>2026-03-29T08:21:00Z</time></trkpt><trkpt lat="46.02695621095683" lon="12.508043245234882"><ele>55.0</ele><time>2026-03-29T08:21:01Z</time></trkpt><trkpt lat="46.02701860343313" lon="12.507927585189314"><ele>55.6</ele><time>2026-03-29T08:21:02Z</time></trkpt><trkpt lat="46.02708412884085" lon="12.507821107868182"><ele>56.2</ele><time>2026-03-29T08:21:03Z</time></trkpt><trkpt lat="46.02713942548536" lon="12.507707419661076"><ele>56.8</ele><time>2026-03-29T08:21:04Z</time></trkpt><trkpt lat="46.02718879117889" lon="12.507587446058185"><ele>57.4</ele><time>2026-03-29T08:21:05Z</time></trkpt><trkpt lat="46.027246197270784" lon="12.507473666832448"><ele>58.0</ele><time>2026-03-29T08:21:06Z</time></trkpt><trkpt lat="46.02729716866547" lon="12.507354223202919"><ele>58.0</ele><time>2026-03-29T08:21:07Z</time></trkpt><trkpt lat="46.027338861454226" lon="12.507221116621562"><ele>58.0</ele><time>2026-03-29T08:21:08Z</time></trkpt><trkpt lat="46.0274013705706" lon="12.507107394611166"><ele>58.0</ele><time>2026-03-29T08:21:09Z</time></trkpt><trkpt lat="46.02748605037634" lon="12.507013659946024"><ele>58.0</ele><time>2026-03-29T08:21:10Z</time></trkpt><trkpt lat="46.027553643880516" lon="12.506885797192615"><ele>58.0</ele><time>2026-03-29T08:21:11Z</time></trkpt><trkpt lat="46.02763728147982" lon="12.506782516592281"><ele>58.75</ele><time>2026-03-29T08:21:12Z</time></trkpt><trkpt lat="46.02772179442869" lon="12.506676640923411"><ele>59.5</ele><time>2026-03-29T08:21:13Z</time></trkpt><trkpt lat="46.02780608465277" lon="12.50656299421399"><ele>60.25</ele><time>2026-03-29T08:21:14Z</time></trkpt><trkpt lat="46.0278860875427" lon="12.506452997924018"><ele>61.0</ele><time>2026-03-29T08:21:15Z</time></trkpt><trkpt lat="46.02796044463371" lon="12.506331725176072"><ele>65.75</ele><time>2026-03-29T08:21:16Z</time></trkpt><trkpt lat="46.02803059952636" lon="12.506201583264195"><ele>70.5</ele><time>2026-03-29T08:21:17Z</time></trkpt><trkpt lat="46.02809850137943" lon="12.506063975588942"><ele>75.25</ele><time>2026-03-29T08:21:18Z</time></trkpt><trkpt lat="46.02816647885902" lon="12.505925387708443"><ele>80.0</ele><time>2026-03-29T08:21:19Z</time></trkpt><trkpt lat="46.0282338472028" lon="12.505782727197428"><ele>80.0</ele><time>2026-03-29T08:21:20Z</time></trkpt><trkpt lat="46.028302376285616" lon="12.505638287442885"><ele>80.0</ele><time>2026-03-29T08:21:21Z</time></trkpt><trkpt lat="46.02836664566602" lon="12.505487494589426"><ele>80.0</ele><time>2026-03-29T08:21:22Z</time></trkpt><trkpt lat="46.02842924460151" lon="12.50533113403653"><ele>80.0</ele><time>2026-03-29T08:21:23Z</time></trkpt><trkpt lat="46.02849218692489" lon="12.505172859067322"><ele>77.5</ele><time>2026-03-29T08:21:24Z</time></trkpt><trkpt lat="46.02855257626008" lon="12.505017114819864"><ele>75.0</ele><time>2026-03-29T08:21:25Z</time></trkpt><trkpt lat="46.02860091105486" lon="12.504851273418415"><ele>72.5</ele><time>2026-03-29T08:21:26Z</time></trkpt><trkpt lat="46.02864692893398" lon="12.504687648591412"><ele>70.0</ele><time>2026-03-29T08:21:27Z</time></trkpt><trkpt lat="46.028690995759476" lon="12.504519926426246"><ele>70.0</ele><time>2026-03-29T08:21:28Z</time></trkpt><trkpt lat="46.0287402913283" lon="12.504355027764948"><ele>70.0</ele><time>2026-03-29T08:21:29Z</time></trkpt><trkpt lat="46.02878974552282" lon="12.504193389608808"><ele>70.0</ele><time>2026-03-29T08:21:30Z</time></trkpt><trkpt lat="46.02884024994702" lon="12.504032435290515"><ele>70.0</ele><time>2026-03-29T08:21:31Z</time></trkpt><trkpt lat="46.028900869959166" lon="12.503878151919439"><ele>72.5</ele><time>2026-03-29T08:21:32Z</time></trkpt><trkpt lat="46.02895303970371" lon="12.503723612777598"><ele>75.0</ele><time>2026-03-29T08:21:33Z</time></trkpt><trkpt lat="46.02900789278082" lon="12.503574715041966"><ele>77.5</ele><time>2026-03-29T08:21:34Z</time></trkpt><trkpt lat="46.02905801564406" lon="12.503430318329196"><ele>80.0</ele><time>2026-03-29T08:21:35Z</time></trkpt><trkpt lat="46.0291091691252" lon="12.503291948566224"><ele>76.66666666666667</ele><time>2026-03-29T08:21:36Z</time></trkpt><trkpt lat="46.02916044628597" lon="12.503166831111573"><ele>73.33333333333334</ele><time>2026-03-29T08:21:36.999Z</time></trkpt><trkpt lat="46.029210532873726" lon="12.503057174176192"><ele>70.0</ele><time>2026-03-29T08:21:37.999Z</time></trkpt><trkpt lat="46.02926230030467" lon="12.502948262325258"><ele>66.66666666666667</ele><time>2026-03-29T08:21:38.999Z</time></trkpt><trkpt lat="46.029322500768274" lon="12.502859462178563"><ele>63.333333333333336</ele><time>2026-03-29T08:21:39.999Z</time></trkpt><trkpt lat="46.0293793124942" lon="12.502781575225281"><ele>60.0</ele><time>2026-03-29T08:21:40.999Z</time></trkpt><trkpt lat="46.02944386730155" lon="12.502708785951466"><ele>59.0</ele><time>2026-03-29T08:21:41.999Z</time></trkpt><trkpt lat="46.02950503296895" lon="12.502638264114644"><ele>58.0</ele><time>2026-03-29T08:21:42.999Z</time></trkpt><trkpt lat="46.029563685705966" lon="12.502568058608873"><ele>57.0</ele><time>2026-03-29T08:21:43.999Z</time></trkpt><trkpt lat="46.02962746701821" lon="12.502508077722334"><ele>56.0</ele><time>2026-03-29T08:21:44.999Z</time></trkpt><trkpt lat="46.02968934102982" lon="12.502451989282612"><ele>55.0</ele><time>2026-03-29T08:21:45.999Z</time></trkpt><trkpt lat="46.02974541591103" lon="12.502393783130158"><ele>54.0</ele><time>2026-03-29T08:21:46.999Z</time></trkpt><trkpt lat="46.029803827632996" lon="12.502340506869883"><ele>53.0</ele><time>2026-03-29T08:21:47.999Z</time></trkpt><trkpt lat="46.02986518538702" lon="12.502288793390525"><ele>53.0</ele><time>2026-03-29T08:21:48.999Z</time></trkpt><trkpt lat="46.029928921499334" lon="12.50223405226129"><ele>53.0</ele><time>2026-03-29T08:21:49.999Z</time></trkpt><trkpt lat="46.02999406886612" lon="12.502188020630856"><ele>53.0</ele><time>2026-03-29T08:21:50.999Z</time></trkpt><trkpt lat="46.030067262446074" lon="12.502176924235862"><ele>53.0</ele><time>2026-03-29T08:21:52Z</time></trkpt><trkpt lat="46.030139625797275" lon="12.502146737880256"><ele>53.0</ele><time>2026-03-29T08:21:53Z</time></trkpt><trkpt lat="46.03021226023253" lon="12.502109945188225"><ele>53.0</ele><time>2026-03-29T08:21:54Z</time></trkpt><trkpt lat="46.0302810703769" lon="12.502062938189452"><ele>53.0</ele><time>2026-03-29T08:21:55Z</time></trkpt><trkpt lat="46.03034607720818" lon="12.502015799736721"><ele>51.50000000000001</ele><time>2026-03-29T08:21:56Z</time></trkpt><trkpt lat="46.03041620708992" lon="12.501965174010719"><ele>50.0</ele><time>2026-03-29T08:21:57Z</time></trkpt><trkpt lat="46.030486688350564" lon="12.501909686114082"><ele>48.5</ele><time>2026-03-29T08:21:58Z</time></trkpt><trkpt lat="46.03054888084811" lon="12.501849407710823"><ele>47.0</ele><time>2026-03-29T08:21:59Z</time></trkpt><trkpt lat="46.030601892973465" lon="12.501772428524992"><ele>45.5</ele><time>2026-03-29T08:22:00Z</time></trkpt><trkpt lat="46.03065238709232" lon="12.501707833975948"><ele>44.0</ele><time>2026-03-29T08:22:01Z</time></trkpt><trkpt lat="46.030672659363645" lon="12.501577526104157"><ele>44.0</ele><time>2026-03-29T08:22:02Z</time></trkpt><trkpt lat="46.030691609339975" lon="12.501398626303573"><ele>44.0</ele><time>2026-03-29T08:22:04Z</time></trkpt><trkpt lat="46.030677005591734" lon="12.501217623652673"><ele>44.0</ele><time>2026-03-29T08:22:06Z</time></trkpt><trkpt lat="46.030642034987146" lon="12.501138327285846"><ele>44.0</ele><time>2026-03-29T08:22:07Z</time></trkpt><trkpt lat="46.03056848359336" lon="12.500996739285188"><ele>44.0</ele><time>2026-03-29T08:22:09Z</time></trkpt><trkpt lat="46.03051217664168" lon="12.50093541307528"><ele>43.83333333333333</ele><time>2026-03-29T08:22:10Z</time></trkpt><trkpt lat="46.030447191248086" lon="12.500870436981197"><ele>43.666666666666664</ele><time>2026-03-29T08:22:11Z</time></trkpt><trkpt lat="46.03038933863965" lon="12.500806039340235"><ele>43.5</ele><time>2026-03-29T08:22:12Z</time></trkpt><trkpt lat="46.030337854025476" lon="12.500732876445381"><ele>43.333333333333336</ele><time>2026-03-29T08:22:13Z</time></trkpt><trkpt lat="46.0303046930061" lon="12.50064718108919"><ele>43.16666666666667</ele><time>2026-03-29T08:22:14Z</time></trkpt><trkpt lat="46.03028366754734" lon="12.500530803419272"><ele>43.0</ele><time>2026-03-29T08:22:15Z</time></trkpt><trkpt lat="46.03026720961022" lon="12.50040113300714"><ele>43.0</ele><time>2026-03-29T08:22:16Z</time></trkpt><trkpt lat="46.03025210578147" lon="12.500248638033481"><ele>43.0</ele><time>2026-03-29T08:22:17Z</time></trkpt><trkpt lat="46.03022731065533" lon="12.500094690723515"><ele>43.0</ele><time>2026-03-29T08:22:18Z</time></trkpt><trkpt lat="46.03021507633573" lon="12.49991879230077"><ele>43.0</ele><time>2026-03-29T08:22:19Z</time></trkpt><trkpt lat="46.0302101558448" lon="12.499745166781976"><ele>43.0</ele><time>2026-03-29T08:22:20Z</time></trkpt><trkpt lat="46.03020222649103" lon="12.499589792579226"><ele>43.0</ele><time>2026-03-29T08:22:21Z</time></trkpt><trkpt lat="46.03019298533787" lon="12.499454000174996"><ele>43.0</ele><time>2026-03-29T08:22:22Z</time></trkpt><trkpt lat="46.03017845687661" lon="12.499336844673108"><ele>43.0</ele><time>2026-03-29T08:22:23Z</time></trkpt><trkpt lat="46.03015263077666" lon="12.4992370599754"><ele>43.0</ele><time>2026-03-29T08:22:24Z</time></trkpt><trkpt lat="46.030100841990595" lon="12.499161633691877"><ele>43.0</ele><time>2026-03-29T08:22:25Z</time></trkpt><trkpt lat="46.030037627628936" lon="12.499111843274237"><ele>43.8</ele><time>2026-03-29T08:22:26Z</time></trkpt><trkpt lat="46.029958330128245" lon="12.499055165233361"><ele>44.599999999999994</ele><time>2026-03-29T08:22:27Z</time></trkpt><trkpt lat="46.02987944071366" lon="12.498986209943476"><ele>45.400000000000006</ele><time>2026-03-29T08:22:28Z</time></trkpt><trkpt lat="46.029794493084644" lon="12.498914156483847"><ele>46.2</ele><time>2026-03-29T08:22:29Z</time></trkpt><trkpt lat="46.02970495995461" lon="12.498843087833293"><ele>47.0</ele><time>2026-03-29T08:22:30Z</time></trkpt><trkpt lat="46.02963074249442" lon="12.498776471717466"><ele>45.8</ele><time>2026-03-29T08:22:31Z</time></trkpt><trkpt lat="46.029560099236114" lon="12.498717356340586"><ele>44.6</ele><time>2026-03-29T08:22:32Z</time></trkpt><trkpt lat="46.02950269188955" lon="12.498667998806855"><ele>43.4</ele><time>2026-03-29T08:22:33Z</time></trkpt><trkpt lat="46.029436809571784" lon="12.498544496300237"><ele>42.199999999999996</ele><time>2026-03-29T08:22:35Z</time></trkpt><trkpt lat="46.02950354612853" lon="12.498317574108778"><ele>41.0</ele><time>2026-03-29T08:22:38Z</time></trkpt><trkpt lat="46.02958066252941" lon="12.498260996750792"><ele>41.0</ele><time>2026-03-29T08:22:39Z</time></trkpt><trkpt lat="46.02964435478284" lon="12.498155847360998"><ele>41.0</ele><time>2026-03-29T08:22:40Z</time></trkpt><trkpt lat="46.029728521054004" lon="12.498070792384443"><ele>41.0</ele><time>2026-03-29T08:22:41Z</time></trkpt><trkpt lat="46.02980803917531" lon="12.497981015146548"><ele>41.0</ele><time>2026-03-29T08:22:42Z</time></trkpt><trkpt lat="46.02987274627329" lon="12.497893729502248"><ele>41.0</ele><time>2026-03-29T08:22:43Z</time></trkpt><trkpt lat="46.02993400277079" lon="12.497819889072858"><ele>41.166666666666664</ele><time>2026-03-29T08:22:44Z</time></trkpt><trkpt lat="46.0300028372506" lon="12.497731332679024"><ele>41.33333333333333</ele><time>2026-03-29T08:22:45Z</time></trkpt><trkpt lat="46.03006875436111" lon="12.497658293258532"><ele>41.5</ele><time>2026-03-29T08:22:46Z</time></trkpt><trkpt lat="46.03013196698771" lon="12.497596543976728"><ele>41.666666666666664</ele><time>2026-03-29T08:22:47Z</time></trkpt><trkpt lat="46.03019486567689" lon="12.497544808520166"><ele>41.833333333333336</ele><time>2026-03-29T08:22:48Z</time></trkpt><trkpt lat="46.030263966042334" lon="12.497505598755007"><ele>42.0</ele><time>2026-03-29T08:22:49Z</time></trkpt><trkpt lat="46.03034190025342" lon="12.497465970885196"><ele>42.0</ele><time>2026-03-29T08:22:50Z</time></trkpt><trkpt lat="46.03041591411119" lon="12.497404378049733"><ele>42.0</ele><time>2026-03-29T08:22:51Z</time></trkpt><trkpt lat="46.03048751580988" lon="12.497330966123371"><ele>42.0</ele><time>2026-03-29T08:22:52Z</time></trkpt><trkpt lat="46.03055847504167" lon="12.497241068054294"><ele>42.0</ele><time>2026-03-29T08:22:53Z</time></trkpt><trkpt lat="46.030635070067355" lon="12.497146764239723"><ele>42.0</ele><time>2026-03-29T08:22:54Z</time></trkpt><trkpt lat="46.03070736356743" lon="12.497039457229997"><ele>41.8</ele><time>2026-03-29T08:22:55Z</time></trkpt><trkpt lat="46.03079085356297" lon="12.49695475459796"><ele>41.6</ele><time>2026-03-29T08:22:56Z</time></trkpt><trkpt lat="46.030868902097694" lon="12.496870820319534"><ele>41.4</ele><time>2026-03-29T08:22:57Z</time></trkpt><trkpt lat="46.03096818230443" lon="12.496830919664905"><ele>41.199999999999996</ele><time>2026-03-29T08:22:58Z</time></trkpt><trkpt lat="46.03105242070714" lon="12.496750102332857"><ele>41.0</ele><time>2026-03-29T08:22:59Z</time></trkpt><trkpt lat="46.031138084715835" lon="12.496719476259834"><ele>41.83333333333333</ele><time>2026-03-29T08:23:00Z</time></trkpt><trkpt lat="46.03119832231969" lon="12.496654856728776"><ele>42.666666666666664</ele><time>2026-03-29T08:23:01Z</time></trkpt><trkpt lat="46.03131466374177" lon="12.496601778715721"><ele>43.5</ele><time>2026-03-29T08:23:03Z</time></trkpt><trkpt lat="46.03138010581369" lon="12.496546244046442"><ele>44.333333333333336</ele><time>2026-03-29T08:23:04Z</time></trkpt><trkpt lat="46.03144719456548" lon="12.496482586081944"><ele>45.16666666666667</ele><time>2026-03-29T08:23:05Z</time></trkpt><trkpt lat="46.031517271457815" lon="12.496408957334955"><ele>46.0</ele><time>2026-03-29T08:23:06Z</time></trkpt><trkpt lat="46.03158809043953" lon="12.496324270200434"><ele>46.0</ele><time>2026-03-29T08:23:07Z</time></trkpt><trkpt lat="46.03165454907355" lon="12.496217437013316"><ele>46.0</ele><time>2026-03-29T08:23:08Z</time></trkpt><trkpt lat="46.031710613414546" lon="12.496081715875025"><ele>46.0</ele><time>2026-03-29T08:23:09Z</time></trkpt><trkpt lat="46.03175189481459" lon="12.495929670975935"><ele>46.0</ele><time>2026-03-29T08:23:10Z</time></trkpt><trkpt lat="46.03178661072976" lon="12.49577378395576"><ele>46.0</ele><time>2026-03-29T08:23:11Z</time></trkpt><trkpt lat="46.03181888240562" lon="12.495623336501945"><ele>46.0</ele><time>2026-03-29T08:23:12Z</time></trkpt><trkpt lat="46.03185538979406" lon="12.495473652604641"><ele>46.0</ele><time>2026-03-29T08:23:13Z</time></trkpt><trkpt lat="46.03189594833398" lon="12.495328870339673"><ele>46.0</ele><time>2026-03-29T08:23:14Z</time></trkpt><trkpt lat="46.031947641779084" lon="12.495192776503854"><ele>46.0</ele><time>2026-03-29T08:23:15Z</time></trkpt><trkpt lat="46.03201365105132" lon="12.495072804646751"><ele>46.0</ele><time>2026-03-29T08:23:16Z</time></trkpt><trkpt lat="46.032077458209734" lon="12.494968807123962"><ele>45.833333333333336</ele><time>2026-03-29T08:23:17Z</time></trkpt><trkpt lat="46.03213632954192" lon="12.494876825953238"><ele>45.66666666666667</ele><time>2026-03-29T08:23:18Z</time></trkpt><trkpt lat="46.0321843773911" lon="12.494780133705834"><ele>45.5</ele><time>2026-03-29T08:23:19Z</time></trkpt><trkpt lat="46.03223710617074" lon="12.494705921691825"><ele>45.333333333333336</ele><time>2026-03-29T08:23:20Z</time></trkpt><trkpt lat="46.03229380138785" lon="12.494653957756084"><ele>45.166666666666664</ele><time>2026-03-29T08:23:21Z</time></trkpt><trkpt lat="46.03238069128301" lon="12.494545339324588"><ele>45.0</ele><time>2026-03-29T08:23:23Z</time></trkpt><trkpt lat="46.03246271039524" lon="12.494441679106014"><ele>45.5</ele><time>2026-03-29T08:23:25Z</time></trkpt><trkpt lat="46.03257748906289" lon="12.49436348874458"><ele>46.0</ele><time>2026-03-29T08:23:27Z</time></trkpt><trkpt lat="46.03264403364579" lon="12.494339343487248"><ele>46.5</ele><time>2026-03-29T08:23:28Z</time></trkpt><trkpt lat="46.03271708494803" lon="12.494323505266305"><ele>47.0</ele><time>2026-03-29T08:23:29Z</time></trkpt><trkpt lat="46.03279402095679" lon="12.494311534268762"><ele>47.5</ele><time>2026-03-29T08:23:30Z</time></trkpt><trkpt lat="46.032874820469985" lon="12.494294405531019"><ele>48.0</ele><time>2026-03-29T08:23:31Z</time></trkpt><trkpt lat="46.03295693530648" lon="12.4942694216994"><ele>48.0</ele><time>2026-03-29T08:23:32Z</time></trkpt><trkpt lat="46.03304110987538" lon="12.494238423811002"><ele>48.0</ele><time>2026-03-29T08:23:33Z</time></trkpt><trkpt lat="46.03312498604817" lon="12.494196177395269"><ele>48.0</ele><time>2026-03-29T08:23:34Z</time></trkpt><trkpt lat="46.033207050938586" lon="12.494144393939438"><ele>48.0</ele><time>2026-03-29T08:23:35Z</time></trkpt><trkpt lat="46.03327828034758" lon="12.494084982218729"><ele>48.0</ele><time>2026-03-29T08:23:36Z</time></trkpt><trkpt lat="46.033338673368796" lon="12.494022686544012"><ele>48.0</ele><time>2026-03-29T08:23:37Z</time></trkpt><trkpt lat="46.03340681709773" lon="12.493969690409857"><ele>48.8</ele><time>2026-03-29T08:23:38Z</time></trkpt><trkpt lat="46.033450221903784" lon="12.493870597373776"><ele>49.599999999999994</ele><time>2026-03-29T08:23:39Z</time></trkpt><trkpt lat="46.03345669185347" lon="12.493742239552288"><ele>50.400000000000006</ele><time>2026-03-29T08:23:40Z</time></trkpt><trkpt lat="46.03342997127137" lon="12.493612030210187"><ele>51.2</ele><time>2026-03-29T08:23:41Z</time></trkpt><trkpt lat="46.033389829412506" lon="12.493489076367608"><ele>52.0</ele><time>2026-03-29T08:23:42Z</time></trkpt><trkpt lat="46.03334240961333" lon="12.493357081326863"><ele>51.25</ele><time>2026-03-29T08:23:42.999Z</time></trkpt><trkpt lat="46.03328824135008" lon="12.49321515532807"><ele>50.5</ele><time>2026-03-29T08:23:43.999Z</time></trkpt><trkpt lat="46.033228996124315" lon="12.493064508684922"><ele>49.75</ele><time>2026-03-29T08:23:44.999Z</time></trkpt><trkpt lat="46.03316622297097" lon="12.49290801257797"><ele>49.0</ele><time>2026-03-29T08:23:45.999Z</time></trkpt><trkpt lat="46.03311319107049" lon="12.492759841537211"><ele>50.6</ele><time>2026-03-29T08:23:46.999Z</time></trkpt><trkpt lat="46.03307642515229" lon="12.492628572490593"><ele>52.2</ele><time>2026-03-29T08:23:47.999Z</time></trkpt><trkpt lat="46.03306005443875" lon="12.49250026030949"><ele>53.800000000000004</ele><time>2026-03-29T08:23:48.999Z</time></trkpt><trkpt lat="46.033058538920194" lon="12.492360727561737"><ele>55.400000000000006</ele><time>2026-03-29T08:23:49.999Z</time></trkpt><trkpt lat="46.03307603821623" lon="12.492209194179184"><ele>57.0</ele><time>2026-03-29T08:23:51Z</time></trkpt><trkpt lat="46.03309054883275" lon="12.492048918440737"><ele>57.5</ele><time>2026-03-29T08:23:52Z</time></trkpt><trkpt lat="46.033119957312124" lon="12.491877859647904"><ele>58.0</ele><time>2026-03-29T08:23:53Z</time></trkpt><trkpt lat="46.03312389708386" lon="12.49169667297932"><ele>58.5</ele><time>2026-03-29T08:23:54Z</time></trkpt><trkpt lat="46.033096849568956" lon="12.491514603702607"><ele>59.0</ele><time>2026-03-29T08:23:55Z</time></trkpt><trkpt lat="46.033077052315356" lon="12.49132499006619"><ele>59.400000000000006</ele><time>2026-03-29T08:23:56Z</time></trkpt><trkpt lat="46.03305010384971" lon="12.491158453059212"><ele>59.800000000000004</ele><time>2026-03-29T08:23:57Z</time></trkpt><trkpt lat="46.033036409976916" lon="12.491025354103282"><ele>60.199999999999996</ele><time>2026-03-29T08:23:58Z</time></trkpt><trkpt lat="46.033027860358935" lon="12.490917881080552"><ele>60.599999999999994</ele><time>2026-03-29T08:23:59Z</time></trkpt><trkpt lat="46.03302152940721" lon="12.490821878719343"><ele>61.0</ele><time>2026-03-29T08:24:00Z</time></trkpt><trkpt lat="46.032969829001686" lon="12.490583416967704"><ele>60.99999999999999</ele><time>2026-03-29T08:24:02Z</time></trkpt><trkpt lat="46.03299379612194" lon="12.490475205346156"><ele>61.0</ele><time>2026-03-29T08:24:04Z</time></trkpt><trkpt lat="46.03303864603149" lon="12.490344397382861"><ele>61.0</ele><time>2026-03-29T08:24:06Z</time></trkpt><trkpt lat="46.03305959307055" lon="12.490176541502484"><ele>61.0</ele><time>2026-03-29T08:24:08Z</time></trkpt><trkpt lat="46.033064504924866" lon="12.49008541998721"><ele>60.99999999999999</ele><time>2026-03-29T08:24:09Z</time></trkpt><trkpt lat="46.03306191053285" lon="12.489985143790463"><ele>61.0</ele><time>2026-03-29T08:24:10Z</time></trkpt><trkpt lat="46.03306655459438" lon="12.489860325395545"><ele>61.666666666666664</ele><time>2026-03-29T08:24:12Z</time></trkpt><trkpt lat="46.03314601034128" lon="12.489821355456467"><ele>62.33333333333333</ele><time>2026-03-29T08:24:14Z</time></trkpt><trkpt lat="46.03319503506802" lon="12.489763610485408"><ele>63.0</ele><time>2026-03-29T08:24:15Z</time></trkpt><trkpt lat="46.03325236929891" lon="12.489694608602157"><ele>63.66666666666667</ele><time>2026-03-29T08:24:16Z</time></trkpt><trkpt lat="46.03330922896141" lon="12.48962240479643"><ele>64.33333333333334</ele><time>2026-03-29T08:24:17Z</time></trkpt><trkpt lat="46.03336475774409" lon="12.489544825653764"><ele>65.0</ele><time>2026-03-29T08:24:18Z</time></trkpt><trkpt lat="46.03340917047203" lon="12.489449235734321"><ele>66.66666666666667</ele><time>2026-03-29T08:24:19Z</time></trkpt><trkpt lat="46.03344204309399" lon="12.489351615503205"><ele>68.33333333333334</ele><time>2026-03-29T08:24:20Z</time></trkpt><trkpt lat="46.0334772775205" lon="12.489266572181478"><ele>70.0</ele><time>2026-03-29T08:24:21Z</time></trkpt><trkpt lat="46.03351519171014" lon="12.489178546066281"><ele>71.66666666666667</ele><time>2026-03-29T08:24:22Z</time></trkpt><trkpt lat="46.03355537918927" lon="12.489087382509844"><ele>73.33333333333333</ele><time>2026-03-29T08:24:23Z</time></trkpt><trkpt lat="46.03359519708892" lon="12.489003463268029"><ele>75.0</ele><time>2026-03-29T08:24:24Z</time></trkpt><trkpt lat="46.03367199988739" lon="12.48887810845132"><ele>75.8</ele><time>2026-03-29T08:24:26Z</time></trkpt><trkpt lat="46.0337322561578" lon="12.488710280455793"><ele>76.6</ele><time>2026-03-29T08:24:28Z</time></trkpt><trkpt lat="46.033747392577176" lon="12.488593640458257"><ele>77.4</ele><time>2026-03-29T08:24:30Z</time></trkpt><trkpt lat="46.033721735055515" lon="12.488500143788318"><ele>78.2</ele><time>2026-03-29T08:24:31Z</time></trkpt><trkpt lat="46.033730107345164" lon="12.48838067462736"><ele>79.0</ele><time>2026-03-29T08:24:32Z</time></trkpt><trkpt lat="46.03371029919803" lon="12.48819171374077"><ele>79.0</ele><time>2026-03-29T08:24:34Z</time></trkpt><trkpt lat="46.03370506124255" lon="12.488100014408335"><ele>79.0</ele><time>2026-03-29T08:24:35Z</time></trkpt><trkpt lat="46.03368980745302" lon="12.487915746172563"><ele>79.0</ele><time>2026-03-29T08:24:37Z</time></trkpt><trkpt lat="46.03364690098019" lon="12.487816118770283"><ele>79.0</ele><time>2026-03-29T08:24:38Z</time></trkpt><trkpt lat="46.03360003885355" lon="12.487715199130687"><ele>79.0</ele><time>2026-03-29T08:24:39Z</time></trkpt><trkpt lat="46.033553076942404" lon="12.487605785223044"><ele>79.0</ele><time>2026-03-29T08:24:40Z</time></trkpt><trkpt lat="46.03347989120703" lon="12.48752226041235"><ele>78.66666666666666</ele><time>2026-03-29T08:24:41Z</time></trkpt><trkpt lat="46.033410768657276" lon="12.487415942815892"><ele>78.33333333333333</ele><time>2026-03-29T08:24:42Z</time></trkpt><trkpt lat="46.03332987763541" lon="12.487326798329791"><ele>78.0</ele><time>2026-03-29T08:24:43Z</time></trkpt><trkpt lat="46.03326596005311" lon="12.487245898007998"><ele>77.66666666666667</ele><time>2026-03-29T08:24:44Z</time></trkpt><trkpt lat="46.03320727965065" lon="12.487166899963137"><ele>77.33333333333334</ele><time>2026-03-29T08:24:45Z</time></trkpt><trkpt lat="46.03315332006208" lon="12.487085101430246"><ele>77.0</ele><time>2026-03-29T08:24:46Z</time></trkpt><trkpt lat="46.033090848600104" lon="12.487003583333296"><ele>78.0</ele><time>2026-03-29T08:24:47Z</time></trkpt><trkpt lat="46.033030502833725" lon="12.486913759853993"><ele>79.0</ele><time>2026-03-29T08:24:48Z</time></trkpt><trkpt lat="46.032964490312715" lon="12.4868246226831"><ele>80.0</ele><time>2026-03-29T08:24:49Z</time></trkpt><trkpt lat="46.032899633010295" lon="12.486743343154238"><ele>81.0</ele><time>2026-03-29T08:24:50Z</time></trkpt><trkpt lat="46.03284970095604" lon="12.486637616958967"><ele>82.0</ele><time>2026-03-29T08:24:51Z</time></trkpt><trkpt lat="46.03278991361373" lon="12.486545302224762"><ele>83.0</ele><time>2026-03-29T08:24:52Z</time></trkpt><trkpt lat="46.03272169930469" lon="12.486456347818233"><ele>83.0</ele><time>2026-03-29T08:24:53Z</time></trkpt><trkpt lat="46.03265293699934" lon="12.486364931211972"><ele>83.0</ele><time>2026-03-29T08:24:54Z</time></trkpt><trkpt lat="46.032592516945364" lon="12.48626493032098"><ele>83.0</ele><time>2026-03-29T08:24:55Z</time></trkpt><trkpt lat="46.03252763322396" lon="12.486166078116003"><ele>83.0</ele><time>2026-03-29T08:24:56Z</time></trkpt><trkpt lat="46.032461734459126" lon="12.4860584800748"><ele>83.0</ele><time>2026-03-29T08:24:57Z</time></trkpt><trkpt lat="46.03239109258089" lon="12.48594432513631"><ele>83.2</ele><time>2026-03-29T08:24:58Z</time></trkpt><trkpt lat="46.03231518873891" lon="12.485831333571731"><ele>83.4</ele><time>2026-03-29T08:24:59Z</time></trkpt><trkpt lat="46.032249412446916" lon="12.485708449904754"><ele>83.60000000000001</ele><time>2026-03-29T08:25:00Z</time></trkpt><trkpt lat="46.03218647351116" lon="12.485600864425324"><ele>83.80000000000001</ele><time>2026-03-29T08:25:01Z</time></trkpt><trkpt lat="46.032132098006095" lon="12.485511870696232"><ele>84.0</ele><time>2026-03-29T08:25:02Z</time></trkpt><trkpt lat="46.03208425586691" lon="12.485441641030087"><ele>85.0</ele><time>2026-03-29T08:25:03Z</time></trkpt><trkpt lat="46.03200645112772" lon="12.485323835438384"><ele>86.0</ele><time>2026-03-29T08:25:05Z</time></trkpt><trkpt lat="46.03193600142591" lon="12.485198461639063"><ele>87.0</ele><time>2026-03-29T08:25:07Z</time></trkpt><trkpt lat="46.03184820765757" lon="12.485120971104513"><ele>88.0</ele><time>2026-03-29T08:25:09Z</time></trkpt><trkpt lat="46.031782682610135" lon="12.485022097536842"><ele>89.0</ele><time>2026-03-29T08:25:11Z</time></trkpt><trkpt lat="46.031731901904365" lon="12.484956618097877"><ele>89.0</ele><time>2026-03-29T08:25:13Z</time></trkpt><trkpt lat="46.0316612358009" lon="12.484864995219333"><ele>89.0</ele><time>2026-03-29T08:25:16Z</time></trkpt><trkpt lat="46.03159517736051" lon="12.484745957405483"><ele>89.0</ele><time>2026-03-29T08:25:18Z</time></trkpt><trkpt lat="46.03156471455026" lon="12.484657982532394"><ele>89.0</ele><time>2026-03-29T08:25:19Z</time></trkpt><trkpt lat="46.03151753984368" lon="12.484581981779503"><ele>89.0</ele><time>2026-03-29T08:25:20Z</time></trkpt><trkpt lat="46.0314600927931" lon="12.484493488015607"><ele>89.0</ele><time>2026-03-29T08:25:21Z</time></trkpt><trkpt lat="46.0314089163875" lon="12.484415906516395"><ele>88.2</ele><time>2026-03-29T08:25:22Z</time></trkpt><trkpt lat="46.03136079765476" lon="12.48434296035061"><ele>87.4</ele><time>2026-03-29T08:25:23Z</time></trkpt><trkpt lat="46.03131543880951" lon="12.4842741980623"><ele>86.6</ele><time>2026-03-29T08:25:24Z</time></trkpt><trkpt lat="46.03123244421193" lon="12.484148381400564"><ele>85.8</ele><time>2026-03-29T08:25:26Z</time></trkpt><trkpt lat="46.03114559510345" lon="12.484042735990442"><ele>85.0</ele><time>2026-03-29T08:25:28Z</time></trkpt><trkpt lat="46.031070901327915" lon="12.48389579839452"><ele>85.0</ele><time>2026-03-29T08:25:30Z</time></trkpt><trkpt lat="46.03102906098795" lon="12.483823353585542"><ele>85.0</ele><time>2026-03-29T08:25:31Z</time></trkpt><trkpt lat="46.03097734110441" lon="12.483755272919149"><ele>85.0</ele><time>2026-03-29T08:25:32Z</time></trkpt><trkpt lat="46.030956184074256" lon="12.483655893283302"><ele>85.0</ele><time>2026-03-29T08:25:33Z</time></trkpt><trkpt lat="46.03090600494243" lon="12.48350155436506"><ele>85.0</ele><time>2026-03-29T08:25:35Z</time></trkpt><trkpt lat="46.03085503503004" lon="12.483334821990264"><ele>85.16666666666666</ele><time>2026-03-29T08:25:37Z</time></trkpt><trkpt lat="46.03082999211224" lon="12.483235220630036"><ele>85.33333333333333</ele><time>2026-03-29T08:25:38Z</time></trkpt><trkpt lat="46.03082810614424" lon="12.483128290249322"><ele>85.5</ele><time>2026-03-29T08:25:39Z</time></trkpt><trkpt lat="46.03080987511369" lon="12.483018664687654"><ele>85.66666666666667</ele><time>2026-03-29T08:25:40Z</time></trkpt><trkpt lat="46.03079149215824" lon="12.482911625079547"><ele>85.83333333333334</ele><time>2026-03-29T08:25:41Z</time></trkpt><trkpt lat="46.030772585843266" lon="12.482801538035293"><ele>86.0</ele><time>2026-03-29T08:25:42Z</time></trkpt><trkpt lat="46.03075943459172" lon="12.482692404007146"><ele>86.0</ele><time>2026-03-29T08:25:43Z</time></trkpt><trkpt lat="46.030739133443255" lon="12.482582764551653"><ele>86.0</ele><time>2026-03-29T08:25:44Z</time></trkpt><trkpt lat="46.030751562949945" lon="12.482463611886939"><ele>86.0</ele><time>2026-03-29T08:25:45Z</time></trkpt><trkpt lat="46.03075030915903" lon="12.482341098624742"><ele>86.0</ele><time>2026-03-29T08:25:46Z</time></trkpt><trkpt lat="46.03073455620654" lon="12.482218508730158"><ele>86.0</ele><time>2026-03-29T08:25:47Z</time></trkpt><trkpt lat="46.0307351698742" lon="12.4820928036114"><ele>86.0</ele><time>2026-03-29T08:25:48Z</time></trkpt><trkpt lat="46.03073099455534" lon="12.481969265167663"><ele>86.0</ele><time>2026-03-29T08:25:49Z</time></trkpt><trkpt lat="46.030719355019244" lon="12.481843592573574"><ele>86.0</ele><time>2026-03-29T08:25:50Z</time></trkpt><trkpt lat="46.03071449663036" lon="12.481717785924863"><ele>86.0</ele><time>2026-03-29T08:25:51Z</time></trkpt><trkpt lat="46.030679021020454" lon="12.481602186683602"><ele>86.0</ele><time>2026-03-29T08:25:52Z</time></trkpt><trkpt lat="46.030646772177974" lon="12.481487744312291"><ele>86.0</ele><time>2026-03-29T08:25:53Z</time></trkpt><trkpt lat="46.03061823275489" lon="12.481364165413643"><ele>86.0</ele><time>2026-03-29T08:25:54Z</time></trkpt><trkpt lat="46.03059375374851" lon="12.481250906142316"><ele>86.33333333333334</ele><time>2026-03-29T08:25:55Z</time></trkpt><trkpt lat="46.03057338344997" lon="12.481146928589762"><ele>86.66666666666667</ele><time>2026-03-29T08:25:56Z</time></trkpt><trkpt lat="46.03055746412717" lon="12.481037316499881"><ele>87.0</ele><time>2026-03-29T08:25:57Z</time></trkpt><trkpt lat="46.03056439650751" lon="12.480912104817557"><ele>87.33333333333333</ele><time>2026-03-29T08:25:58Z</time></trkpt><trkpt lat="46.03054038741608" lon="12.480790028266874"><ele>87.66666666666666</ele><time>2026-03-29T08:25:59Z</time></trkpt><trkpt lat="46.03054238124386" lon="12.480655310388764"><ele>88.0</ele><time>2026-03-29T08:26:00Z</time></trkpt><trkpt lat="46.03049607496558" lon="12.480514606469361"><ele>88.2</ele><time>2026-03-29T08:26:01Z</time></trkpt><trkpt lat="46.030466022915725" lon="12.480367715852523"><ele>88.4</ele><time>2026-03-29T08:26:02Z</time></trkpt><trkpt lat="46.0304343206437" lon="12.480218436533905"><ele>88.60000000000001</ele><time>2026-03-29T08:26:03Z</time></trkpt><trkpt lat="46.03040409858309" lon="12.480062763368416"><ele>88.80000000000001</ele><time>2026-03-29T08:26:04Z</time></trkpt><trkpt lat="46.03037451622674" lon="12.479909658988786"><ele>89.0</ele><time>2026-03-29T08:26:05Z</time></trkpt><trkpt lat="46.03036317927865" lon="12.47974674337408"><ele>89.0</ele><time>2026-03-29T08:26:06Z</time></trkpt><trkpt lat="46.03034040036923" lon="12.479603136183705"><ele>89.0</ele><time>2026-03-29T08:26:07Z</time></trkpt><trkpt lat="46.03031664217187" lon="12.47947742711983"><ele>89.0</ele><time>2026-03-29T08:26:08Z</time></trkpt><trkpt lat="46.030278282868565" lon="12.47934708577124"><ele>89.0</ele><time>2026-03-29T08:26:09Z</time></trkpt><trkpt lat="46.03022227926102" lon="12.479225008907697"><ele>89.0</ele><time>2026-03-29T08:26:10Z</time></trkpt><trkpt lat="46.03015914655062" lon="12.47910311478869"><ele>89.6</ele><time>2026-03-29T08:26:11Z</time></trkpt><trkpt lat="46.03009742001587" lon="12.478982208442885"><ele>90.2</ele><time>2026-03-29T08:26:12Z</time></trkpt><trkpt lat="46.030034671345874" lon="12.478861060024073"><ele>90.8</ele><time>2026-03-29T08:26:13Z</time></trkpt><trkpt lat="46.029972963917466" lon="12.478741921849176"><ele>91.39999999999999</ele><time>2026-03-29T08:26:14Z</time></trkpt><trkpt lat="46.02990468132943" lon="12.478632763594776"><ele>92.0</ele><time>2026-03-29T08:26:15Z</time></trkpt><trkpt lat="46.029842164208794" lon="12.478514327274072"><ele>93.6</ele><time>2026-03-29T08:26:16Z</time></trkpt><trkpt lat="46.02978011521965" lon="12.478398508698637"><ele>95.19999999999999</ele><time>2026-03-29T08:26:17Z</time></trkpt><trkpt lat="46.0297108299577" lon="12.478285265287495"><ele>96.8</ele><time>2026-03-29T08:26:18Z</time></trkpt><trkpt lat="46.029646804331804" lon="12.478176103148304"><ele>98.4</ele><time>2026-03-29T08:26:19Z</time></trkpt><trkpt lat="46.02957594006588" lon="12.478069804134623"><ele>100.0</ele><time>2026-03-29T08:26:20Z</time></trkpt><trkpt lat="46.029514622445774" lon="12.477954701509592"><ele>102.0</ele><time>2026-03-29T08:26:21Z</time></trkpt><trkpt lat="46.029455315627914" lon="12.477850358781694"><ele>104.0</ele><time>2026-03-29T08:26:22Z</time></trkpt><trkpt lat="46.02940937490188" lon="12.477718958015222"><ele>106.0</ele><time>2026-03-29T08:26:23Z</time></trkpt><trkpt lat="46.02934720206771" lon="12.477599537181188"><ele>108.0</ele><time>2026-03-29T08:26:24Z</time></trkpt><trkpt lat="46.029297202990676" lon="12.477475068109454"><ele>110.0</ele><time>2026-03-29T08:26:25Z</time></trkpt><trkpt lat="46.02924496678218" lon="12.477352175084272"><ele>109.99999999999999</ele><time>2026-03-29T08:26:26Z</time></trkpt><trkpt lat="46.02921244343023" lon="12.477241106393315"><ele>110.0</ele><time>2026-03-29T08:26:27Z</time></trkpt><trkpt lat="46.02915550296137" lon="12.477081501387557"><ele>110.0</ele><time>2026-03-29T08:26:29Z</time></trkpt><trkpt lat="46.02912927259412" lon="12.476994438898496"><ele>110.0</ele><time>2026-03-29T08:26:30Z</time></trkpt><trkpt lat="46.02909228131827" lon="12.476899583830264"><ele>109.99999999999999</ele><time>2026-03-29T08:26:31Z</time></trkpt><trkpt lat="46.02904407527126" lon="12.476799890829085"><ele>110.0</ele><time>2026-03-29T08:26:32Z</time></trkpt><trkpt lat="46.02897259578184" lon="12.476707953859577"><ele>112.2</ele><time>2026-03-29T08:26:33Z</time></trkpt><trkpt lat="46.028886236544494" lon="12.476652788483083"><ele>114.4</ele><time>2026-03-29T08:26:34Z</time></trkpt><trkpt lat="46.02879614345374" lon="12.476628818041766"><ele>116.6</ele><time>2026-03-29T08:26:35Z</time></trkpt><trkpt lat="46.028710879973076" lon="12.476592991686898"><ele>118.8</ele><time>2026-03-29T08:26:36Z</time></trkpt><trkpt lat="46.02861020579244" lon="12.476546021432638"><ele>121.0</ele><time>2026-03-29T08:26:37Z</time></trkpt><trkpt lat="46.02850227252029" lon="12.476494691237926"><ele>121.0</ele><time>2026-03-29T08:26:38Z</time></trkpt><trkpt lat="46.028385502644646" lon="12.47644441871811"><ele>121.0</ele><time>2026-03-29T08:26:39Z</time></trkpt><trkpt lat="46.02826828143986" lon="12.47636213976571"><ele>121.0</ele><time>2026-03-29T08:26:40Z</time></trkpt><trkpt lat="46.028167195258646" lon="12.476311605879282"><ele>121.0</ele><time>2026-03-29T08:26:41Z</time></trkpt><trkpt lat="46.02807786898539" lon="12.476268798599687"><ele>124.00000000000001</ele><time>2026-03-29T08:26:42Z</time></trkpt><trkpt lat="46.027991629021535" lon="12.476256079016451"><ele>127.0</ele><time>2026-03-29T08:26:43Z</time></trkpt><trkpt lat="46.02790176568143" lon="12.476239610315066"><ele>130.0</ele><time>2026-03-29T08:26:44Z</time></trkpt><trkpt lat="46.02781561117784" lon="12.476233169313083"><ele>133.0</ele><time>2026-03-29T08:26:45Z</time></trkpt><trkpt lat="46.02773098314212" lon="12.476216076319895"><ele>136.0</ele><time>2026-03-29T08:26:46Z</time></trkpt><trkpt lat="46.02764869473861" lon="12.476204907008045"><ele>139.0</ele><time>2026-03-29T08:26:47Z</time></trkpt><trkpt lat="46.027574130190324" lon="12.47616350672834"><ele>137.2</ele><time>2026-03-29T08:26:48Z</time></trkpt><trkpt lat="46.02744347801129" lon="12.476133815334782"><ele>135.4</ele><time>2026-03-29T08:26:50Z</time></trkpt><trkpt lat="46.027365397864415" lon="12.476101001747958"><ele>133.6</ele><time>2026-03-29T08:26:51Z</time></trkpt><trkpt lat="46.02728224317859" lon="12.476058057106693"><ele>131.8</ele><time>2026-03-29T08:26:52Z</time></trkpt><trkpt lat="46.02719996293188" lon="12.476007797964742"><ele>130.0</ele><time>2026-03-29T08:26:53Z</time></trkpt><trkpt lat="46.02712001364989" lon="12.475950582675914"><ele>130.0</ele><time>2026-03-29T08:26:54Z</time></trkpt><trkpt lat="46.02701306319092" lon="12.475860500617923"><ele>130.0</ele><time>2026-03-29T08:26:56Z</time></trkpt><trkpt lat="46.026966134768806" lon="12.475715158115463"><ele>130.0</ele><time>2026-03-29T08:26:58Z</time></trkpt><trkpt lat="46.026969575021795" lon="12.47561953769125"><ele>130.0</ele><time>2026-03-29T08:26:59Z</time></trkpt><trkpt lat="46.02693693817383" lon="12.475446082893027"><ele>130.0</ele><time>2026-03-29T08:27:01Z</time></trkpt><trkpt lat="46.02691465837454" lon="12.475356243448479"><ele>130.0</ele><time>2026-03-29T08:27:02Z</time></trkpt><trkpt lat="46.026869177458316" lon="12.475263396293117"><ele>130.0</ele><time>2026-03-29T08:27:03Z</time></trkpt><trkpt lat="46.02681435937585" lon="12.475167768334362"><ele>130.0</ele><time>2026-03-29T08:27:04Z</time></trkpt><trkpt lat="46.026754789953245" lon="12.475077629125698"><ele>130.0</ele><time>2026-03-29T08:27:05Z</time></trkpt><trkpt lat="46.026676907387" lon="12.475012520616666"><ele>130.0</ele><time>2026-03-29T08:27:06Z</time></trkpt><trkpt lat="46.02661817708383" lon="12.4749264859824"><ele>130.0</ele><time>2026-03-29T08:27:07Z</time></trkpt><trkpt lat="46.026559340734536" lon="12.474854635022556"><ele>130.0</ele><time>2026-03-29T08:27:08Z</time></trkpt><trkpt lat="46.02651195382929" lon="12.474745406242576"><ele>130.0</ele><time>2026-03-29T08:27:10Z</time></trkpt><trkpt lat="46.02654490628497" lon="12.474636235345155"><ele>130.0</ele><time>2026-03-29T08:27:12Z</time></trkpt><trkpt lat="46.02660552865298" lon="12.474604232497366"><ele>130.0</ele><time>2026-03-29T08:27:14Z</time></trkpt><trkpt lat="46.02671269360855" lon="12.474646892522944"><ele>130.0</ele><time>2026-03-29T08:27:16Z</time></trkpt><trkpt lat="46.02677720378942" lon="12.474698289042319"><ele>130.0</ele><time>2026-03-29T08:27:17Z</time></trkpt><trkpt lat="46.02685335800174" lon="12.474755119100694"><ele>132.8</ele><time>2026-03-29T08:27:18Z</time></trkpt><trkpt lat="46.026938418398565" lon="12.474809382299812"><ele>135.6</ele><time>2026-03-29T08:27:19Z</time></trkpt><trkpt lat="46.02702708383872" lon="12.474869234312106"><ele>138.4</ele><time>2026-03-29T08:27:20Z</time></trkpt><trkpt lat="46.02711399262624" lon="12.474912059986334"><ele>141.2</ele><time>2026-03-29T08:27:21Z</time></trkpt><trkpt lat="46.0271980648975" lon="12.474962510098127"><ele>144.0</ele><time>2026-03-29T08:27:22Z</time></trkpt><trkpt lat="46.02726571276463" lon="12.475013083995204"><ele>144.0</ele><time>2026-03-29T08:27:23Z</time></trkpt><trkpt lat="46.027329177754154" lon="12.47503797988555"><ele>144.0</ele><time>2026-03-29T08:27:24Z</time></trkpt><trkpt lat="46.02739699704565" lon="12.475052754898337"><ele>144.0</ele><time>2026-03-29T08:27:25Z</time></trkpt><trkpt lat="46.027488291369274" lon="12.475024237311862"><ele>144.0</ele><time>2026-03-29T08:27:27Z</time></trkpt><trkpt lat="46.027523252473046" lon="12.474910170128178"><ele>144.0</ele><time>2026-03-29T08:27:29Z</time></trkpt><trkpt lat="46.027471542674455" lon="12.474772508579385"><ele>144.0</ele><time>2026-03-29T08:27:31Z</time></trkpt><trkpt lat="46.02743979973667" lon="12.47468674418015"><ele>146.66666666666666</ele><time>2026-03-29T08:27:32Z</time></trkpt><trkpt lat="46.02738788229438" lon="12.474593898700796"><ele>149.33333333333334</ele><time>2026-03-29T08:27:33Z</time></trkpt><trkpt lat="46.027329153671424" lon="12.474495234596395"><ele>152.0</ele><time>2026-03-29T08:27:34Z</time></trkpt><trkpt lat="46.02727230193358" lon="12.474399992069316"><ele>154.66666666666669</ele><time>2026-03-29T08:27:35Z</time></trkpt><trkpt lat="46.02721874019558" lon="12.474315501108414"><ele>157.33333333333334</ele><time>2026-03-29T08:27:36Z</time></trkpt><trkpt lat="46.02713649053761" lon="12.474214042814765"><ele>160.0</ele><time>2026-03-29T08:27:38Z</time></trkpt><trkpt lat="46.02706388517357" lon="12.474068443296648"><ele>160.0</ele><time>2026-03-29T08:27:40Z</time></trkpt><trkpt lat="46.026986581506755" lon="12.473923277488023"><ele>160.0</ele><time>2026-03-29T08:27:42Z</time></trkpt><trkpt lat="46.02694607176661" lon="12.473837303098433"><ele>160.0</ele><time>2026-03-29T08:27:43Z</time></trkpt><trkpt lat="46.026882813077854" lon="12.473733311462654"><ele>160.0</ele><time>2026-03-29T08:27:44Z</time></trkpt><trkpt lat="46.02683749381216" lon="12.473614596018603"><ele>160.0</ele><time>2026-03-29T08:27:45Z</time></trkpt><trkpt lat="46.02678823357589" lon="12.47350303583975"><ele>160.66666666666669</ele><time>2026-03-29T08:27:46Z</time></trkpt><trkpt lat="46.02675352143905" lon="12.473398875693015"><ele>161.33333333333334</ele><time>2026-03-29T08:27:47Z</time></trkpt><trkpt lat="46.026696829653304" lon="12.473268003429405"><ele>162.0</ele><time>2026-03-29T08:27:49Z</time></trkpt><trkpt lat="46.026681426727215" lon="12.473176695441495"><ele>162.66666666666666</ele><time>2026-03-29T08:27:50Z</time></trkpt><trkpt lat="46.02664541639321" lon="12.4730867166012"><ele>163.33333333333331</ele><time>2026-03-29T08:27:51Z</time></trkpt><trkpt lat="46.02660318121053" lon="12.472993092324693"><ele>164.0</ele><time>2026-03-29T08:27:52Z</time></trkpt><trkpt lat="46.026553882586825" lon="12.472899343945384"><ele>167.5</ele><time>2026-03-29T08:27:53Z</time></trkpt><trkpt lat="46.02648503521586" lon="12.472823318973274"><ele>171.0</ele><time>2026-03-29T08:27:54Z</time></trkpt><trkpt lat="46.02644129412073" lon="12.472730143440243"><ele>174.5</ele><time>2026-03-29T08:27:55Z</time></trkpt><trkpt lat="46.026364022737745" lon="12.47261665532292"><ele>178.0</ele><time>2026-03-29T08:27:57Z</time></trkpt><trkpt lat="46.02630743278742" lon="12.472551031112136"><ele>181.5</ele><time>2026-03-29T08:27:58Z</time></trkpt><trkpt lat="46.026237149839076" lon="12.472477766612101"><ele>185.0</ele><time>2026-03-29T08:27:59Z</time></trkpt><trkpt lat="46.02615812636493" lon="12.472409450056215"><ele>185.0</ele><time>2026-03-29T08:28:00Z</time></trkpt><trkpt lat="46.0260902989304" lon="12.472355471480254"><ele>185.0</ele><time>2026-03-29T08:28:01Z</time></trkpt><trkpt lat="46.026022442573826" lon="12.472323527894002"><ele>185.0</ele><time>2026-03-29T08:28:02Z</time></trkpt><trkpt lat="46.02593357906308" lon="12.472303557030136"><ele>185.0</ele><time>2026-03-29T08:28:03Z</time></trkpt><trkpt lat="46.025833091802234" lon="12.472250960918954"><ele>185.0</ele><time>2026-03-29T08:28:04Z</time></trkpt><trkpt lat="46.02571901880921" lon="12.47223348940366"><ele>184.4</ele><time>2026-03-29T08:28:05Z</time></trkpt><trkpt lat="46.02561814366159" lon="12.472187597896294"><ele>183.8</ele><time>2026-03-29T08:28:06Z</time></trkpt><trkpt lat="46.025539561235306" lon="12.472112874326099"><ele>183.2</ele><time>2026-03-29T08:28:07Z</time></trkpt><trkpt lat="46.02547063896378" lon="12.47204936819982"><ele>182.6</ele><time>2026-03-29T08:28:08Z</time></trkpt><trkpt lat="46.02539004033453" lon="12.47199662598457"><ele>182.0</ele><time>2026-03-29T08:28:10Z</time></trkpt><trkpt lat="46.025370415370084" lon="12.471864505223852"><ele>187.0</ele><time>2026-03-29T08:28:13Z</time></trkpt><trkpt lat="46.02544881252519" lon="12.471782690537346"><ele>192.0</ele><time>2026-03-29T08:28:15Z</time></trkpt><trkpt lat="46.0254927972571" lon="12.471860193764696"><ele>197.0</ele><time>2026-03-29T08:28:16Z</time></trkpt><trkpt lat="46.02559939849052" lon="12.47188484431974"><ele>202.0</ele><time>2026-03-29T08:28:18Z</time></trkpt><trkpt lat="46.02567835196503" lon="12.47190438406173"><ele>207.0</ele><time>2026-03-29T08:28:19Z</time></trkpt><trkpt lat="46.02577573765636" lon="12.471899656289192"><ele>207.39999999999998</ele><time>2026-03-29T08:28:20Z</time></trkpt><trkpt lat="46.025880191397896" lon="12.471903772101884"><ele>207.79999999999998</ele><time>2026-03-29T08:28:21Z</time></trkpt><trkpt lat="46.02598512827477" lon="12.471911169751044"><ele>208.2</ele><time>2026-03-29T08:28:22Z</time></trkpt><trkpt lat="46.02608764437894" lon="12.471908805783869"><ele>208.6</ele><time>2026-03-29T08:28:23Z</time></trkpt><trkpt lat="46.0261925710623" lon="12.47190367465069"><ele>209.0</ele><time>2026-03-29T08:28:24Z</time></trkpt><trkpt lat="46.02631138211855" lon="12.471920166031511"><ele>209.0</ele><time>2026-03-29T08:28:25Z</time></trkpt><trkpt lat="46.02642892426993" lon="12.471928464596592"><ele>209.0</ele><time>2026-03-29T08:28:26Z</time></trkpt><trkpt lat="46.0265530084319" lon="12.471946912580455"><ele>209.0</ele><time>2026-03-29T08:28:27Z</time></trkpt><trkpt lat="46.02667824349202" lon="12.471960255188767"><ele>209.0</ele><time>2026-03-29T08:28:28Z</time></trkpt><trkpt lat="46.02680100344945" lon="12.471974427798747"><ele>210.75</ele><time>2026-03-29T08:28:29Z</time></trkpt><trkpt lat="46.02693035073941" lon="12.471983905615554"><ele>212.5</ele><time>2026-03-29T08:28:30Z</time></trkpt><trkpt lat="46.02705936231282" lon="12.472024996535762"><ele>214.25</ele><time>2026-03-29T08:28:31Z</time></trkpt><trkpt lat="46.027191196397396" lon="12.472017297450837"><ele>216.0</ele><time>2026-03-29T08:28:32Z</time></trkpt><trkpt lat="46.02731546875933" lon="12.472025927033688"><ele>216.0</ele><time>2026-03-29T08:28:33Z</time></trkpt><trkpt lat="46.02740930720697" lon="12.472034555205175"><ele>216.0</ele><time>2026-03-29T08:28:34Z</time></trkpt><trkpt lat="46.027510185938375" lon="12.472066831145373"><ele>216.0</ele><time>2026-03-29T08:28:36Z</time></trkpt><trkpt lat="46.02756788136656" lon="12.472109767213441"><ele>216.0</ele><time>2026-03-29T08:28:37Z</time></trkpt><trkpt lat="46.02764309818579" lon="12.47212017547493"><ele>216.0</ele><time>2026-03-29T08:28:38Z</time></trkpt><trkpt lat="46.02773516632821" lon="12.47212263698741"><ele>216.0</ele><time>2026-03-29T08:28:39Z</time></trkpt><trkpt lat="46.027817841491704" lon="12.472127808924812"><ele>214.5</ele><time>2026-03-29T08:28:40Z</time></trkpt><trkpt lat="46.02788899082063" lon="12.472132322593275"><ele>213.0</ele><time>2026-03-29T08:28:41Z</time></trkpt><trkpt lat="46.02797332034339" lon="12.47214361566765"><ele>211.5</ele><time>2026-03-29T08:28:42Z</time></trkpt><trkpt lat="46.02806221751746" lon="12.472150359995023"><ele>210.0</ele><time>2026-03-29T08:28:43Z</time></trkpt><trkpt lat="46.028147947112366" lon="12.472164748980832"><ele>208.5</ele><time>2026-03-29T08:28:44Z</time></trkpt><trkpt lat="46.02823059952423" lon="12.472163857175438"><ele>207.0</ele><time>2026-03-29T08:28:45Z</time></trkpt><trkpt lat="46.02830497570227" lon="12.47216026714297"><ele>208.66666666666666</ele><time>2026-03-29T08:28:46Z</time></trkpt><trkpt lat="46.02838169098512" lon="12.4721340020522"><ele>210.33333333333331</ele><time>2026-03-29T08:28:47Z</time></trkpt><trkpt lat="46.028459653989806" lon="12.472137507123536"><ele>212.0</ele><time>2026-03-29T08:28:48Z</time></trkpt><trkpt lat="46.02854375251677" lon="12.472133482675899"><ele>213.66666666666666</ele><time>2026-03-29T08:28:49Z</time></trkpt><trkpt lat="46.028613739329295" lon="12.472127558111183"><ele>215.33333333333331</ele><time>2026-03-29T08:28:50Z</time></trkpt><trkpt lat="46.02872955018511" lon="12.472144607880418"><ele>217.0</ele><time>2026-03-29T08:28:52Z</time></trkpt><trkpt lat="46.028820808416405" lon="12.47211970758238"><ele>219.99999999999997</ele><time>2026-03-29T08:28:54Z</time></trkpt><trkpt lat="46.028889139823434" lon="12.4720572228506"><ele>223.0</ele><time>2026-03-29T08:28:56Z</time></trkpt><trkpt lat="46.028895948166" lon="12.471896284490928"><ele>226.0</ele><time>2026-03-29T08:28:58Z</time></trkpt><trkpt lat="46.02883249386847" lon="12.471826574336868"><ele>229.0</ele><time>2026-03-29T08:28:59Z</time></trkpt><trkpt lat="46.02875057608337" lon="12.47186135523765"><ele>231.99999999999997</ele><time>2026-03-29T08:29:00Z</time></trkpt><trkpt lat="46.028689454366976" lon="12.471823729556514"><ele>235.0</ele><time>2026-03-29T08:29:01Z</time></trkpt><trkpt lat="46.028621917004656" lon="12.471796988853809"><ele>234.99999999999997</ele><time>2026-03-29T08:29:02Z</time></trkpt><trkpt lat="46.028558015235205" lon="12.471788739850915"><ele>235.0</ele><time>2026-03-29T08:29:03Z</time></trkpt><trkpt lat="46.02849436941081" lon="12.47176048398697"><ele>235.0</ele><time>2026-03-29T08:29:04Z</time></trkpt><trkpt lat="46.02844479579555" lon="12.471697767311488"><ele>235.0</ele><time>2026-03-29T08:29:05Z</time></trkpt><trkpt lat="46.02838984178309" lon="12.47165341292719"><ele>234.99999999999997</ele><time>2026-03-29T08:29:06Z</time></trkpt><trkpt lat="46.0282814930966" lon="12.47156769306854"><ele>235.0</ele><time>2026-03-29T08:29:08Z</time></trkpt><trkpt lat="46.02821282241054" lon="12.471541153737272"><ele>233.66666666666666</ele><time>2026-03-29T08:29:09Z</time></trkpt><trkpt lat="46.02815030858154" lon="12.471499279481705"><ele>232.33333333333331</ele><time>2026-03-29T08:29:10Z</time></trkpt><trkpt lat="46.02809077138862" lon="12.471442837210617"><ele>231.0</ele><time>2026-03-29T08:29:11Z</time></trkpt><trkpt lat="46.02802067443941" lon="12.47139982556121"><ele>229.66666666666669</ele><time>2026-03-29T08:29:12Z</time></trkpt><trkpt lat="46.027953395864394" lon="12.471352387523366"><ele>228.33333333333334</ele><time>2026-03-29T08:29:13Z</time></trkpt><trkpt lat="46.02787737220411" lon="12.471301491251909"><ele>227.0</ele><time>2026-03-29T08:29:14Z</time></trkpt><trkpt lat="46.02776235627174" lon="12.47120867436899"><ele>229.33333333333334</ele><time>2026-03-29T08:29:16Z</time></trkpt><trkpt lat="46.02769735541422" lon="12.471163583244158"><ele>231.66666666666669</ele><time>2026-03-29T08:29:17Z</time></trkpt><trkpt lat="46.02762282517971" lon="12.47111825639973"><ele>234.0</ele><time>2026-03-29T08:29:18Z</time></trkpt><trkpt lat="46.02754977808409" lon="12.471064416268558"><ele>236.33333333333331</ele><time>2026-03-29T08:29:19Z</time></trkpt><trkpt lat="46.0274795724645" lon="12.471012511834152"><ele>238.66666666666666</ele><time>2026-03-29T08:29:20Z</time></trkpt><trkpt lat="46.027401999591255" lon="12.470960735332508"><ele>241.0</ele><time>2026-03-29T08:29:21Z</time></trkpt><trkpt lat="46.02733685149746" lon="12.470909897207454"><ele>240.99999999999997</ele><time>2026-03-29T08:29:22Z</time></trkpt><trkpt lat="46.02726587285681" lon="12.47086176100164"><ele>241.0</ele><time>2026-03-29T08:29:23Z</time></trkpt><trkpt lat="46.02719409970759" lon="12.470794877762865"><ele>241.0</ele><time>2026-03-29T08:29:24Z</time></trkpt><trkpt lat="46.027114123509236" lon="12.47073793902018"><ele>241.0</ele><time>2026-03-29T08:29:25Z</time></trkpt><trkpt lat="46.027030508760994" lon="12.470670540683182"><ele>240.99999999999997</ele><time>2026-03-29T08:29:26Z</time></trkpt><trkpt lat="46.02696649926168" lon="12.470587600359833"><ele>241.0</ele><time>2026-03-29T08:29:27Z</time></trkpt><trkpt lat="46.026908890685455" lon="12.470536859826826"><ele>240.99999999999997</ele><time>2026-03-29T08:29:28Z</time></trkpt><trkpt lat="46.02685665999319" lon="12.470480474625955"><ele>241.0</ele><time>2026-03-29T08:29:29Z</time></trkpt><trkpt lat="46.02680250803923" lon="12.470419351390651"><ele>241.0</ele><time>2026-03-29T08:29:30Z</time></trkpt><trkpt lat="46.026735453243454" lon="12.47028813174586"><ele>241.0</ele><time>2026-03-29T08:29:32Z</time></trkpt><trkpt lat="46.026685071049044" lon="12.470222576966766"><ele>240.99999999999997</ele><time>2026-03-29T08:29:33Z</time></trkpt><trkpt lat="46.026603552585776" lon="12.470116767585303"><ele>241.0</ele><time>2026-03-29T08:29:35Z</time></trkpt><trkpt lat="46.02651335735314" lon="12.470006903196422"><ele>243.83333333333331</ele><time>2026-03-29T08:29:37Z</time></trkpt><trkpt lat="46.02644963754675" lon="12.4699499320562"><ele>246.66666666666666</ele><time>2026-03-29T08:29:38Z</time></trkpt><trkpt lat="46.026323373250165" lon="12.469953673905412"><ele>249.5</ele><time>2026-03-29T08:29:40Z</time></trkpt><trkpt lat="46.026257138703244" lon="12.46997235624578"><ele>252.33333333333331</ele><time>2026-03-29T08:29:41Z</time></trkpt><trkpt lat="46.02618092228137" lon="12.469994553708101"><ele>255.16666666666666</ele><time>2026-03-29T08:29:42Z</time></trkpt><trkpt lat="46.02611337732568" lon="12.470010389875986"><ele>258.0</ele><time>2026-03-29T08:29:43Z</time></trkpt><trkpt lat="46.02605070147039" lon="12.469996330827488"><ele>258.0</ele><time>2026-03-29T08:29:44Z</time></trkpt><trkpt lat="46.02598998023432" lon="12.470022199696247"><ele>258.0</ele><time>2026-03-29T08:29:45Z</time></trkpt><trkpt lat="46.025912042579996" lon="12.470016153363622"><ele>258.0</ele><time>2026-03-29T08:29:46Z</time></trkpt><trkpt lat="46.025835328973116" lon="12.469977929427623"><ele>258.0</ele><time>2026-03-29T08:29:47Z</time></trkpt><trkpt lat="46.025751547873114" lon="12.46994757663115"><ele>258.0</ele><time>2026-03-29T08:29:48Z</time></trkpt><trkpt lat="46.025668711357994" lon="12.469908841888433"><ele>258.0</ele><time>2026-03-29T08:29:49Z</time></trkpt><trkpt lat="46.02558406653731" lon="12.46987840109586"><ele>258.1666666666667</ele><time>2026-03-29T08:29:50Z</time></trkpt><trkpt lat="46.025505794665705" lon="12.469817332648876"><ele>258.3333333333333</ele><time>2026-03-29T08:29:51Z</time></trkpt><trkpt lat="46.0254266221935" lon="12.469768172039533"><ele>258.5</ele><time>2026-03-29T08:29:52Z</time></trkpt><trkpt lat="46.02535803299767" lon="12.469719926116586"><ele>258.66666666666663</ele><time>2026-03-29T08:29:53.001Z</time></trkpt><trkpt lat="46.025289920071444" lon="12.469676660881557"><ele>258.8333333333333</ele><time>2026-03-29T08:29:54.001Z</time></trkpt><trkpt lat="46.02521767285067" lon="12.469656624428248"><ele>259.0</ele><time>2026-03-29T08:29:55.001Z</time></trkpt><trkpt lat="46.02514566620474" lon="12.469663484007711"><ele>259.0</ele><time>2026-03-29T08:29:56.001Z</time></trkpt><trkpt lat="46.02508041867152" lon="12.469633285261024"><ele>259.0</ele><time>2026-03-29T08:29:57.001Z</time></trkpt><trkpt lat="46.024965303535566" lon="12.469624227571344"><ele>259.0</ele><time>2026-03-29T08:29:59.001Z</time></trkpt><trkpt lat="46.024888479522595" lon="12.469615123184274"><ele>259.0</ele><time>2026-03-29T08:30:00.001Z</time></trkpt><trkpt lat="46.024809845106894" lon="12.469609707205787"><ele>259.0</ele><time>2026-03-29T08:30:01Z</time></trkpt><trkpt lat="46.02468529466573" lon="12.469622298914661"><ele>260.4</ele><time>2026-03-29T08:30:03Z</time></trkpt><trkpt lat="46.024571313142" lon="12.469623704855556"><ele>261.79999999999995</ele><time>2026-03-29T08:30:05Z</time></trkpt><trkpt lat="46.02445489569206" lon="12.469656361608841"><ele>263.20000000000005</ele><time>2026-03-29T08:30:07Z</time></trkpt><trkpt lat="46.024386726045854" lon="12.469654527441312"><ele>264.6</ele><time>2026-03-29T08:30:08Z</time></trkpt><trkpt lat="46.02431935035981" lon="12.469678005410234"><ele>266.0</ele><time>2026-03-29T08:30:09Z</time></trkpt><trkpt lat="46.02424068818354" lon="12.469713664573158"><ele>266.0</ele><time>2026-03-29T08:30:10Z</time></trkpt><trkpt lat="46.02416426861896" lon="12.469760212539102"><ele>266.0</ele><time>2026-03-29T08:30:11Z</time></trkpt><trkpt lat="46.02405055522334" lon="12.469831685390465"><ele>266.0</ele><time>2026-03-29T08:30:13Z</time></trkpt><trkpt lat="46.023948843244256" lon="12.469876784007354"><ele>266.0</ele><time>2026-03-29T08:30:15Z</time></trkpt><trkpt lat="46.02384258287877" lon="12.46982930201022"><ele>266.0</ele><time>2026-03-29T08:30:17Z</time></trkpt><trkpt lat="46.02382155658653" lon="12.469729269371005"><ele>266.0</ele><time>2026-03-29T08:30:18Z</time></trkpt><trkpt lat="46.023728396616946" lon="12.469610717198497"><ele>266.0</ele><time>2026-03-29T08:30:20Z</time></trkpt><trkpt lat="46.02364412832374" lon="12.469499935060396"><ele>266.0</ele><time>2026-03-29T08:30:22Z</time></trkpt><trkpt lat="46.02357353565753" lon="12.469423061193819"><ele>266.0</ele><time>2026-03-29T08:30:24Z</time></trkpt><trkpt lat="46.023452426791515" lon="12.469379294845865"><ele>271.5</ele><time>2026-03-29T08:30:26Z</time></trkpt><trkpt lat="46.023389758314366" lon="12.469364320803287"><ele>277.0</ele><time>2026-03-29T08:30:27Z</time></trkpt><trkpt lat="46.023278555105065" lon="12.46933581721104"><ele>282.5</ele><time>2026-03-29T08:30:29Z</time></trkpt><trkpt lat="46.023201540931815" lon="12.469338619705969"><ele>288.0</ele><time>2026-03-29T08:30:30Z</time></trkpt><trkpt lat="46.02309472245526" lon="12.469363720221459"><ele>293.5</ele><time>2026-03-29T08:30:32Z</time></trkpt><trkpt lat="46.02302842790766" lon="12.469389265048434"><ele>299.0</ele><time>2026-03-29T08:30:33Z</time></trkpt><trkpt lat="46.0229264951908" lon="12.469424355929261"><ele>302.8</ele><time>2026-03-29T08:30:35Z</time></trkpt><trkpt lat="46.02282243507605" lon="12.469444565957845"><ele>306.59999999999997</ele><time>2026-03-29T08:30:37Z</time></trkpt><trkpt lat="46.022774658004096" lon="12.46936275436166"><ele>310.4</ele><time>2026-03-29T08:30:40Z</time></trkpt><trkpt lat="46.022799017315194" lon="12.469253382616241"><ele>314.2</ele><time>2026-03-29T08:30:42Z</time></trkpt><trkpt lat="46.022918456870656" lon="12.469263092635932"><ele>318.0</ele><time>2026-03-29T08:30:44Z</time></trkpt><trkpt lat="46.02303698767134" lon="12.46924462433028"><ele>318.0</ele><time>2026-03-29T08:30:46Z</time></trkpt><trkpt lat="46.02311005015002" lon="12.469230368591521"><ele>318.0</ele><time>2026-03-29T08:30:47Z</time></trkpt><trkpt lat="46.02318643972118" lon="12.469156484947334"><ele>318.0</ele><time>2026-03-29T08:30:48Z</time></trkpt><trkpt lat="46.02326659534489" lon="12.469090563698611"><ele>318.0</ele><time>2026-03-29T08:30:49Z</time></trkpt><trkpt lat="46.02335577433898" lon="12.469038891062462"><ele>318.0</ele><time>2026-03-29T08:30:50Z</time></trkpt><trkpt lat="46.02344097679467" lon="12.469009303677032"><ele>318.0</ele><time>2026-03-29T08:30:51Z</time></trkpt><trkpt lat="46.02352517715945" lon="12.468990580310047"><ele>314.8333333333333</ele><time>2026-03-29T08:30:52Z</time></trkpt><trkpt lat="46.0236066662668" lon="12.468991488769671"><ele>311.6666666666667</ele><time>2026-03-29T08:30:53Z</time></trkpt><trkpt lat="46.023681415148026" lon="12.468998630399033"><ele>308.5</ele><time>2026-03-29T08:30:54Z</time></trkpt><trkpt lat="46.02376605014325" lon="12.469016585423233"><ele>305.33333333333337</ele><time>2026-03-29T08:30:55Z</time></trkpt><trkpt lat="46.023848242722096" lon="12.469027092893556"><ele>302.1666666666667</ele><time>2026-03-29T08:30:56Z</time></trkpt><trkpt lat="46.023929413805014" lon="12.469012431693779"><ele>299.0</ele><time>2026-03-29T08:30:57Z</time></trkpt><trkpt lat="46.02400752078283" lon="12.468976376048401"><ele>299.0</ele><time>2026-03-29T08:30:58Z</time></trkpt><trkpt lat="46.02408260733234" lon="12.468929007935943"><ele>299.0</ele><time>2026-03-29T08:30:59Z</time></trkpt><trkpt lat="46.024163965243076" lon="12.468873196287005"><ele>299.0</ele><time>2026-03-29T08:31:00Z</time></trkpt><trkpt lat="46.0242617438665" lon="12.468805360864836"><ele>299.0</ele><time>2026-03-29T08:31:01Z</time></trkpt><trkpt lat="46.02435265119396" lon="12.468748466190181"><ele>299.0</ele><time>2026-03-29T08:31:02Z</time></trkpt><trkpt lat="46.02442883801761" lon="12.468702501216772"><ele>305.1666666666667</ele><time>2026-03-29T08:31:03Z</time></trkpt><trkpt lat="46.02450456469438" lon="12.468639569887305"><ele>311.33333333333337</ele><time>2026-03-29T08:31:05Z</time></trkpt><trkpt lat="46.024562625236605" lon="12.468564101918"><ele>317.5</ele><time>2026-03-29T08:31:07Z</time></trkpt><trkpt lat="46.02449078442194" lon="12.46843191086477"><ele>323.6666666666667</ele><time>2026-03-29T08:31:09Z</time></trkpt><trkpt lat="46.024417173436156" lon="12.468424527829095"><ele>329.8333333333333</ele><time>2026-03-29T08:31:10Z</time></trkpt><trkpt lat="46.024336041935" lon="12.468471552056755"><ele>336.0</ele><time>2026-03-29T08:31:11Z</time></trkpt><trkpt lat="46.02426385625836" lon="12.468518253534818"><ele>336.0</ele><time>2026-03-29T08:31:12Z</time></trkpt><trkpt lat="46.024200716684135" lon="12.468557302574863"><ele>336.0</ele><time>2026-03-29T08:31:13Z</time></trkpt><trkpt lat="46.024136282360885" lon="12.468591720404815"><ele>336.0</ele><time>2026-03-29T08:31:14Z</time></trkpt><trkpt lat="46.02406348447617" lon="12.468625782348767"><ele>336.0</ele><time>2026-03-29T08:31:15Z</time></trkpt><trkpt lat="46.02398433541809" lon="12.468656312846704"><ele>336.0</ele><time>2026-03-29T08:31:16Z</time></trkpt><trkpt lat="46.0238673295416" lon="12.468661740797634"><ele>336.0</ele><time>2026-03-29T08:31:18Z</time></trkpt><trkpt lat="46.023794364228735" lon="12.468637111318268"><ele>336.6666666666667</ele><time>2026-03-29T08:31:19Z</time></trkpt><trkpt lat="46.02372522881259" lon="12.468605281194895"><ele>337.3333333333333</ele><time>2026-03-29T08:31:20Z</time></trkpt><trkpt lat="46.02364450333536" lon="12.468575080379606"><ele>338.0</ele><time>2026-03-29T08:31:21Z</time></trkpt><trkpt lat="46.02356625285657" lon="12.468545810504413"><ele>338.66666666666663</ele><time>2026-03-29T08:31:22Z</time></trkpt><trkpt lat="46.02348182158333" lon="12.468516455030198"><ele>339.3333333333333</ele><time>2026-03-29T08:31:23Z</time></trkpt><trkpt lat="46.023401838420725" lon="12.468499499947956"><ele>340.0</ele><time>2026-03-29T08:31:24Z</time></trkpt><trkpt lat="46.023318538214085" lon="12.46850317225537"><ele>342.0</ele><time>2026-03-29T08:31:25Z</time></trkpt><trkpt lat="46.023244040222295" lon="12.468516409965098"><ele>344.0</ele><time>2026-03-29T08:31:26Z</time></trkpt><trkpt lat="46.02317222137652" lon="12.468537112671553"><ele>346.0</ele><time>2026-03-29T08:31:27Z</time></trkpt><trkpt lat="46.02310593967403" lon="12.468566588374323"><ele>348.0</ele><time>2026-03-29T08:31:28Z</time></trkpt><trkpt lat="46.0230372958832" lon="12.468586103809704"><ele>350.0</ele><time>2026-03-29T08:31:29Z</time></trkpt><trkpt lat="46.02291130845849" lon="12.46861013044965"><ele>352.0</ele><time>2026-03-29T08:31:31Z</time></trkpt><trkpt lat="46.02284200607874" lon="12.468609508838545"><ele>352.0</ele><time>2026-03-29T08:31:32Z</time></trkpt><trkpt lat="46.02277576214987" lon="12.468599220710187"><ele>352.0</ele><time>2026-03-29T08:31:33Z</time></trkpt><trkpt lat="46.022708868662804" lon="12.468582955286907"><ele>352.0</ele><time>2026-03-29T08:31:34Z</time></trkpt><trkpt lat="46.02264210839448" lon="12.468582621024517"><ele>352.0</ele><time>2026-03-29T08:31:35Z</time></trkpt><trkpt lat="46.022576397755344" lon="12.468550414957011"><ele>352.0</ele><time>2026-03-29T08:31:36Z</time></trkpt><trkpt lat="46.02249995816414" lon="12.468530579838744"><ele>352.0</ele><time>2026-03-29T08:31:37Z</time></trkpt><trkpt lat="46.02241435448444" lon="12.468507566998145"><ele>352.0</ele><time>2026-03-29T08:31:38Z</time></trkpt><trkpt lat="46.02233436769058" lon="12.468486064126179"><ele>352.66666666666663</ele><time>2026-03-29T08:31:39Z</time></trkpt><trkpt lat="46.0222495690784" lon="12.468483347160388"><ele>353.3333333333333</ele><time>2026-03-29T08:31:40Z</time></trkpt><trkpt lat="46.022170640332455" lon="12.468459490744413"><ele>354.0</ele><time>2026-03-29T08:31:41Z</time></trkpt><trkpt lat="46.02209861286121" lon="12.468432632027277"><ele>354.6666666666667</ele><time>2026-03-29T08:31:42Z</time></trkpt><trkpt lat="46.021975247713044" lon="12.468515501469541"><ele>355.33333333333337</ele><time>2026-03-29T08:31:44Z</time></trkpt><trkpt lat="46.02191476980615" lon="12.468554380305596"><ele>356.0</ele><time>2026-03-29T08:31:45.001Z</time></trkpt><trkpt lat="46.02180906420622" lon="12.468620118665905"><ele>356.0</ele><time>2026-03-29T08:31:47.001Z</time></trkpt><trkpt lat="46.02174597643823" lon="12.468631422654864"><ele>356.0</ele><time>2026-03-29T08:31:48.001Z</time></trkpt><trkpt lat="46.02167910293834" lon="12.468625998267733"><ele>356.0</ele><time>2026-03-29T08:31:49.001Z</time></trkpt><trkpt lat="46.02161141411526" lon="12.468606495912441"><ele>356.0</ele><time>2026-03-29T08:31:50.001Z</time></trkpt><trkpt lat="46.021499941449356" lon="12.468564814407523"><ele>356.0</ele><time>2026-03-29T08:31:52.001Z</time></trkpt><trkpt lat="46.02143885567507" lon="12.468533951438978"><ele>356.0</ele><time>2026-03-29T08:31:53.001Z</time></trkpt><trkpt lat="46.02131952772614" lon="12.46846280255018"><ele>354.6666666666667</ele><time>2026-03-29T08:31:55.001Z</time></trkpt><trkpt lat="46.02125941473227" lon="12.468422637282147"><ele>353.33333333333337</ele><time>2026-03-29T08:31:56.001Z</time></trkpt><trkpt lat="46.021197587553026" lon="12.468376795390448"><ele>352.0</ele><time>2026-03-29T08:31:57.001Z</time></trkpt><trkpt lat="46.021136217809236" lon="12.468323576024591"><ele>350.6666666666667</ele><time>2026-03-29T08:31:58.001Z</time></trkpt><trkpt lat="46.02107426127438" lon="12.468267212359834"><ele>349.3333333333333</ele><time>2026-03-29T08:31:59.001Z</time></trkpt><trkpt lat="46.021016849343745" lon="12.468181962043982"><ele>348.0</ele><time>2026-03-29T08:32:00.001Z</time></trkpt><trkpt lat="46.020952781716794" lon="12.468097499083825"><ele>348.0</ele><time>2026-03-29T08:32:01.001Z</time></trkpt><trkpt lat="46.0208963455613" lon="12.468028458776423"><ele>348.0</ele><time>2026-03-29T08:32:02.001Z</time></trkpt><trkpt lat="46.020820408417784" lon="12.467914898427546"><ele>348.0</ele><time>2026-03-29T08:32:04.001Z</time></trkpt><trkpt lat="46.02076732167471" lon="12.467846501894266"><ele>348.0</ele><time>2026-03-29T08:32:05.001Z</time></trkpt><trkpt lat="46.02072128500464" lon="12.467765264612835"><ele>348.0</ele><time>2026-03-29T08:32:06.001Z</time></trkpt><trkpt lat="46.02062497880231" lon="12.467636781897317"><ele>350.5</ele><time>2026-03-29T08:32:08Z</time></trkpt><trkpt lat="46.02056807076095" lon="12.467570584879198"><ele>353.0</ele><time>2026-03-29T08:32:09Z</time></trkpt><trkpt lat="46.02050766620563" lon="12.4675058840006"><ele>355.5</ele><time>2026-03-29T08:32:10Z</time></trkpt><trkpt lat="46.020457013445906" lon="12.467432860099242"><ele>358.0</ele><time>2026-03-29T08:32:11Z</time></trkpt><trkpt lat="46.020399925126526" lon="12.467367393718073"><ele>360.5</ele><time>2026-03-29T08:32:12Z</time></trkpt><trkpt lat="46.02033571526384" lon="12.467306633619332"><ele>363.0</ele><time>2026-03-29T08:32:13Z</time></trkpt><trkpt lat="46.02023118967395" lon="12.4672178584046"><ele>363.0</ele><time>2026-03-29T08:32:15Z</time></trkpt><trkpt lat="46.02014643632957" lon="12.46715066717667"><ele>363.0</ele><time>2026-03-29T08:32:17Z</time></trkpt><trkpt lat="46.02004610809489" lon="12.467064060438881"><ele>363.0</ele><time>2026-03-29T08:32:19Z</time></trkpt><trkpt lat="46.01998506786256" lon="12.467021835213666"><ele>363.0</ele><time>2026-03-29T08:32:20Z</time></trkpt><trkpt lat="46.01991129511001" lon="12.466980353578114"><ele>363.0</ele><time>2026-03-29T08:32:21Z</time></trkpt><trkpt lat="46.01984359303861" lon="12.466944156698188"><ele>363.0</ele><time>2026-03-29T08:32:22Z</time></trkpt><trkpt lat="46.019768978191195" lon="12.466900065768796"><ele>365.3333333333333</ele><time>2026-03-29T08:32:23Z</time></trkpt><trkpt lat="46.01969887235036" lon="12.466843729375347"><ele>367.6666666666667</ele><time>2026-03-29T08:32:24Z</time></trkpt><trkpt lat="46.01962150539877" lon="12.466771415133998"><ele>370.0</ele><time>2026-03-29T08:32:25Z</time></trkpt><trkpt lat="46.0195365681124" lon="12.466708992384492"><ele>372.33333333333337</ele><time>2026-03-29T08:32:26Z</time></trkpt><trkpt lat="46.019461814001524" lon="12.466641196812766"><ele>374.6666666666667</ele><time>2026-03-29T08:32:27Z</time></trkpt><trkpt lat="46.01938547405694" lon="12.466574917786264"><ele>377.0</ele><time>2026-03-29T08:32:28Z</time></trkpt><trkpt lat="46.019301092579525" lon="12.466519180990113"><ele>377.0</ele><time>2026-03-29T08:32:29Z</time></trkpt><trkpt lat="46.01922236329564" lon="12.466464574514971"><ele>377.0</ele><time>2026-03-29T08:32:30Z</time></trkpt><trkpt lat="46.01914314625135" lon="12.466408118718629"><ele>377.0</ele><time>2026-03-29T08:32:31Z</time></trkpt><trkpt lat="46.01906155433959" lon="12.46635685273171"><ele>377.0</ele><time>2026-03-29T08:32:32Z</time></trkpt><trkpt lat="46.018980670164794" lon="12.466300862258395"><ele>377.0</ele><time>2026-03-29T08:32:33Z</time></trkpt><trkpt lat="46.01890427518672" lon="12.466242209913258"><ele>377.0</ele><time>2026-03-29T08:32:34Z</time></trkpt><trkpt lat="46.01881450518258" lon="12.466190868001547"><ele>379.40000000000003</ele><time>2026-03-29T08:32:35Z</time></trkpt><trkpt lat="46.01872450878336" lon="12.466140595124196"><ele>381.8</ele><time>2026-03-29T08:32:36Z</time></trkpt><trkpt lat="46.01863100824104" lon="12.46608058098616"><ele>384.2</ele><time>2026-03-29T08:32:37Z</time></trkpt><trkpt lat="46.01853063594932" lon="12.466011240445956"><ele>386.6</ele><time>2026-03-29T08:32:38Z</time></trkpt><trkpt lat="46.018419697501834" lon="12.465946899601871"><ele>389.0</ele><time>2026-03-29T08:32:39Z</time></trkpt><trkpt lat="46.01831021854408" lon="12.465885325003905"><ele>389.0</ele><time>2026-03-29T08:32:40Z</time></trkpt><trkpt lat="46.018198673917496" lon="12.465830767571749"><ele>389.0</ele><time>2026-03-29T08:32:41Z</time></trkpt><trkpt lat="46.01809173267715" lon="12.465789197738074"><ele>389.0</ele><time>2026-03-29T08:32:42Z</time></trkpt><trkpt lat="46.01799451021884" lon="12.46574561815287"><ele>389.0</ele><time>2026-03-29T08:32:43Z</time></trkpt><trkpt lat="46.01789086906888" lon="12.465722993708539"><ele>389.0</ele><time>2026-03-29T08:32:44Z</time></trkpt><trkpt lat="46.017790048460036" lon="12.46569150905917"><ele>389.0</ele><time>2026-03-29T08:32:45Z</time></trkpt><trkpt lat="46.01769833288164" lon="12.465663528119913"><ele>389.0</ele><time>2026-03-29T08:32:46Z</time></trkpt><trkpt lat="46.01760825645109" lon="12.465628216960177"><ele>389.0</ele><time>2026-03-29T08:32:47Z</time></trkpt><trkpt lat="46.017532104427325" lon="12.465591918524964"><ele>389.0</ele><time>2026-03-29T08:32:48Z</time></trkpt><trkpt lat="46.01745746854911" lon="12.465546871544262"><ele>389.0</ele><time>2026-03-29T08:32:49Z</time></trkpt><trkpt lat="46.0173509205492" lon="12.465460960348825"><ele>387.0</ele><time>2026-03-29T08:32:51Z</time></trkpt><trkpt lat="46.01731855682001" lon="12.465375600852491"><ele>385.0</ele><time>2026-03-29T08:32:52Z</time></trkpt><trkpt lat="46.017263995801386" lon="12.465309294495194"><ele>383.0</ele><time>2026-03-29T08:32:53Z</time></trkpt><trkpt lat="46.01723079706846" lon="12.465224761498817"><ele>381.0</ele><time>2026-03-29T08:32:54Z</time></trkpt><trkpt lat="46.01718555716868" lon="12.465146408277121"><ele>379.0</ele><time>2026-03-29T08:32:55Z</time></trkpt><trkpt lat="46.01713461351462" lon="12.465072487688197"><ele>377.0</ele><time>2026-03-29T08:32:56Z</time></trkpt><trkpt lat="46.017088713129155" lon="12.465005282756762"><ele>375.0</ele><time>2026-03-29T08:32:57Z</time></trkpt><trkpt lat="46.01702586884089" lon="12.464839477757714"><ele>375.0</ele><time>2026-03-29T08:32:59Z</time></trkpt><trkpt lat="46.01702885489234" lon="12.464723224763324"><ele>375.0</ele><time>2026-03-29T08:33:00Z</time></trkpt><trkpt lat="46.01700231880232" lon="12.464608396651629"><ele>375.0</ele><time>2026-03-29T08:33:01Z</time></trkpt><trkpt lat="46.016983226214506" lon="12.464486617698698"><ele>375.0</ele><time>2026-03-29T08:33:02Z</time></trkpt><trkpt lat="46.01695594624681" lon="12.464370652820204"><ele>375.0</ele><time>2026-03-29T08:33:03Z</time></trkpt><trkpt lat="46.01693119200951" lon="12.464238738325003"><ele>375.0</ele><time>2026-03-29T08:33:04Z</time></trkpt><trkpt lat="46.01688224749047" lon="12.464112489616692"><ele>379.5</ele><time>2026-03-29T08:33:05Z</time></trkpt><trkpt lat="46.016839086447796" lon="12.463970594791048"><ele>384.0</ele><time>2026-03-29T08:33:06Z</time></trkpt><trkpt lat="46.01679678887392" lon="12.463842819012386"><ele>388.5</ele><time>2026-03-29T08:33:07Z</time></trkpt><trkpt lat="46.01678030913494" lon="12.463747512936601"><ele>393.0</ele><time>2026-03-29T08:33:08Z</time></trkpt><trkpt lat="46.016771894901574" lon="12.463651715424852"><ele>397.5</ele><time>2026-03-29T08:33:09Z</time></trkpt><trkpt lat="46.016775240378294" lon="12.463507117879672"><ele>402.0</ele><time>2026-03-29T08:33:11Z</time></trkpt><trkpt lat="46.01671429176066" lon="12.463394123517523"><ele>403.5</ele><time>2026-03-29T08:33:13Z</time></trkpt><trkpt lat="46.01664839529183" lon="12.463403089998993"><ele>405.0</ele><time>2026-03-29T08:33:14Z</time></trkpt><trkpt lat="46.0165843077702" lon="12.463418038330495"><ele>406.5</ele><time>2026-03-29T08:33:15Z</time></trkpt><trkpt lat="46.016458747657936" lon="12.46341013049815"><ele>408.0</ele><time>2026-03-29T08:33:17Z</time></trkpt><trkpt lat="46.016391297849296" lon="12.463415864810429"><ele>409.5</ele><time>2026-03-29T08:33:18Z</time></trkpt><trkpt lat="46.01632788713144" lon="12.463416535237617"><ele>411.0</ele><time>2026-03-29T08:33:19Z</time></trkpt><trkpt lat="46.016262648500785" lon="12.463413117673653"><ele>411.0</ele><time>2026-03-29T08:33:20Z</time></trkpt><trkpt lat="46.0161478499349" lon="12.463379372117625"><ele>411.0</ele><time>2026-03-29T08:33:22Z</time></trkpt><trkpt lat="46.01607890548446" lon="12.46332785635363"><ele>411.0</ele><time>2026-03-29T08:33:23Z</time></trkpt><trkpt lat="46.015999103628644" lon="12.463253085820096"><ele>411.0</ele><time>2026-03-29T08:33:24Z</time></trkpt><trkpt lat="46.015915466761726" lon="12.463173416785516"><ele>411.0</ele><time>2026-03-29T08:33:25Z</time></trkpt><trkpt lat="46.01583203940482" lon="12.463096448502334"><ele>411.6</ele><time>2026-03-29T08:33:26Z</time></trkpt><trkpt lat="46.015758378371025" lon="12.46303062372218"><ele>412.20000000000005</ele><time>2026-03-29T08:33:27Z</time></trkpt><trkpt lat="46.01569128036897" lon="12.462970429962883"><ele>412.79999999999995</ele><time>2026-03-29T08:33:28Z</time></trkpt><trkpt lat="46.015608529625055" lon="12.462911170522768"><ele>413.4</ele><time>2026-03-29T08:33:29Z</time></trkpt><trkpt lat="46.01551788347326" lon="12.462826313672378"><ele>414.0</ele><time>2026-03-29T08:33:30Z</time></trkpt><trkpt lat="46.01543173771072" lon="12.462735837106578"><ele>414.0</ele><time>2026-03-29T08:33:31Z</time></trkpt><trkpt lat="46.01534526743502" lon="12.462653244296337"><ele>414.0</ele><time>2026-03-29T08:33:32Z</time></trkpt><trkpt lat="46.01527184424486" lon="12.46257027292012"><ele>414.0</ele><time>2026-03-29T08:33:33Z</time></trkpt><trkpt lat="46.01520550798706" lon="12.462501946274237"><ele>414.0</ele><time>2026-03-29T08:33:34Z</time></trkpt><trkpt lat="46.015151741827765" lon="12.462448608975707"><ele>414.0</ele><time>2026-03-29T08:33:35.001Z</time></trkpt><trkpt lat="46.01510252412876" lon="12.462387225552927"><ele>414.0</ele><time>2026-03-29T08:33:36.001Z</time></trkpt><trkpt lat="46.015050557841704" lon="12.462317162770132"><ele>414.0</ele><time>2026-03-29T08:33:37.001Z</time></trkpt><trkpt lat="46.015006023883416" lon="12.462243209555345"><ele>414.0</ele><time>2026-03-29T08:33:38.001Z</time></trkpt><trkpt lat="46.0149764509122" lon="12.46215284994758"><ele>414.0</ele><time>2026-03-29T08:33:39.001Z</time></trkpt><trkpt lat="46.01495701110402" lon="12.462053389346044"><ele>414.0</ele><time>2026-03-29T08:33:40.001Z</time></trkpt><trkpt lat="46.01492087768803" lon="12.46194966581464"><ele>414.0</ele><time>2026-03-29T08:33:41.001Z</time></trkpt><trkpt lat="46.01487250106698" lon="12.46184710006829"><ele>414.0</ele><time>2026-03-29T08:33:42.001Z</time></trkpt><trkpt lat="46.01481888853991" lon="12.461756220174667"><ele>412.8333333333333</ele><time>2026-03-29T08:33:43.001Z</time></trkpt><trkpt lat="46.01476928654369" lon="12.461678391900303"><ele>411.66666666666663</ele><time>2026-03-29T08:33:44.001Z</time></trkpt><trkpt lat="46.01472265241033" lon="12.461603483810624"><ele>410.5</ele><time>2026-03-29T08:33:45.001Z</time></trkpt><trkpt lat="46.014699822683745" lon="12.461518101309222"><ele>409.3333333333333</ele><time>2026-03-29T08:33:46.001Z</time></trkpt><trkpt lat="46.01464526164147" lon="12.461428031582102"><ele>408.16666666666663</ele><time>2026-03-29T08:33:47.001Z</time></trkpt><trkpt lat="46.014596562562986" lon="12.461320072452345"><ele>407.0</ele><time>2026-03-29T08:33:48.001Z</time></trkpt><trkpt lat="46.01456370037981" lon="12.461222620872267"><ele>406.3333333333333</ele><time>2026-03-29T08:33:49.001Z</time></trkpt><trkpt lat="46.01447104240845" lon="12.461088000749767"><ele>405.66666666666663</ele><time>2026-03-29T08:33:51.001Z</time></trkpt><trkpt lat="46.01441019075368" lon="12.461043588977574"><ele>405.0</ele><time>2026-03-29T08:33:52.001Z</time></trkpt><trkpt lat="46.01433860644181" lon="12.461017647868736"><ele>404.33333333333337</ele><time>2026-03-29T08:33:53.001Z</time></trkpt><trkpt lat="46.01426820404147" lon="12.460981532674579"><ele>403.6666666666667</ele><time>2026-03-29T08:33:54.001Z</time></trkpt><trkpt lat="46.014214742555225" lon="12.460914114935088"><ele>403.0</ele><time>2026-03-29T08:33:55.001Z</time></trkpt><trkpt lat="46.01415434045387" lon="12.460844961832757"><ele>403.00000000000006</ele><time>2026-03-29T08:33:56.001Z</time></trkpt><trkpt lat="46.01410866470332" lon="12.460772490749255"><ele>403.0</ele><time>2026-03-29T08:33:57.001Z</time></trkpt><trkpt lat="46.01405679652763" lon="12.460684729658105"><ele>403.0</ele><time>2026-03-29T08:33:58.001Z</time></trkpt><trkpt lat="46.01400384030367" lon="12.460595597683351"><ele>403.0</ele><time>2026-03-29T08:33:59.001Z</time></trkpt><trkpt lat="46.01397608973969" lon="12.46050783049397"><ele>403.00000000000006</ele><time>2026-03-29T08:34:00.001Z</time></trkpt><trkpt lat="46.01393907856051" lon="12.460434497246348"><ele>403.0</ele><time>2026-03-29T08:34:01.001Z</time></trkpt><trkpt lat="46.01383955285272" lon="12.460306749034066"><ele>409.00000000000006</ele><time>2026-03-29T08:34:03.001Z</time></trkpt><trkpt lat="46.01377572656524" lon="12.460242218472644"><ele>415.0</ele><time>2026-03-29T08:34:04.001Z</time></trkpt><trkpt lat="46.01370730709763" lon="12.460157107663493"><ele>421.0</ele><time>2026-03-29T08:34:05.001Z</time></trkpt><trkpt lat="46.013633015125464" lon="12.46008317746742"><ele>427.0</ele><time>2026-03-29T08:34:06.001Z</time></trkpt><trkpt lat="46.01356227883399" lon="12.459999951641853"><ele>433.00000000000006</ele><time>2026-03-29T08:34:07.001Z</time></trkpt><trkpt lat="46.013491983690955" lon="12.459914388419897"><ele>439.0</ele><time>2026-03-29T08:34:08.001Z</time></trkpt><trkpt lat="46.01342356710038" lon="12.459822390444726"><ele>439.00000000000006</ele><time>2026-03-29T08:34:09.001Z</time></trkpt><trkpt lat="46.01334927774326" lon="12.459724311895467"><ele>439.0</ele><time>2026-03-29T08:34:10.001Z</time></trkpt><trkpt lat="46.0132829979003" lon="12.459638002747608"><ele>439.0</ele><time>2026-03-29T08:34:11.001Z</time></trkpt><trkpt lat="46.01322943592423" lon="12.459577227505019"><ele>439.0</ele><time>2026-03-29T08:34:12.001Z</time></trkpt><trkpt lat="46.013171103000666" lon="12.45953197949232"><ele>439.00000000000006</ele><time>2026-03-29T08:34:13Z</time></trkpt><trkpt lat="46.01310141224842" lon="12.459497107231856"><ele>439.0</ele><time>2026-03-29T08:34:14Z</time></trkpt><trkpt lat="46.01303070756418" lon="12.459473921215123"><ele>441.50000000000006</ele><time>2026-03-29T08:34:15Z</time></trkpt><trkpt lat="46.01295308107585" lon="12.459469072551862"><ele>444.0</ele><time>2026-03-29T08:34:16Z</time></trkpt><trkpt lat="46.01286779487382" lon="12.459463177058264"><ele>446.5</ele><time>2026-03-29T08:34:17Z</time></trkpt><trkpt lat="46.01278176404601" lon="12.459446464247494"><ele>449.0</ele><time>2026-03-29T08:34:18Z</time></trkpt><trkpt lat="46.01270705750301" lon="12.459423012384976"><ele>451.50000000000006</ele><time>2026-03-29T08:34:19Z</time></trkpt><trkpt lat="46.012634149745686" lon="12.459400418279296"><ele>454.0</ele><time>2026-03-29T08:34:20Z</time></trkpt><trkpt lat="46.01255818112481" lon="12.459361423082395"><ele>452.00000000000006</ele><time>2026-03-29T08:34:21Z</time></trkpt><trkpt lat="46.012489583308515" lon="12.459277992704825"><ele>450.0</ele><time>2026-03-29T08:34:22Z</time></trkpt><trkpt lat="46.01240284835977" lon="12.459220556806649"><ele>448.0</ele><time>2026-03-29T08:34:23Z</time></trkpt><trkpt lat="46.012323674315176" lon="12.459145165550602"><ele>446.0</ele><time>2026-03-29T08:34:24Z</time></trkpt><trkpt lat="46.012244558008526" lon="12.45908203288249"><ele>444.00000000000006</ele><time>2026-03-29T08:34:25Z</time></trkpt><trkpt lat="46.01217210781868" lon="12.459048522678057"><ele>442.0</ele><time>2026-03-29T08:34:26Z</time></trkpt><trkpt lat="46.01210563650795" lon="12.459047608708705"><ele>442.0</ele><time>2026-03-29T08:34:27Z</time></trkpt><trkpt lat="46.01199001851893" lon="12.459041895837169"><ele>442.00000000000006</ele><time>2026-03-29T08:34:29Z</time></trkpt><trkpt lat="46.011893594447535" lon="12.458960471502145"><ele>442.00000000000006</ele><time>2026-03-29T08:34:31Z</time></trkpt><trkpt lat="46.011791434650455" lon="12.458922620825263"><ele>442.0</ele><time>2026-03-29T08:34:33Z</time></trkpt><trkpt lat="46.01170768119042" lon="12.458869055297349"><ele>442.0</ele><time>2026-03-29T08:34:35Z</time></trkpt><trkpt lat="46.01164140122375" lon="12.458856682729142"><ele>443.1666666666667</ele><time>2026-03-29T08:34:36Z</time></trkpt><trkpt lat="46.011569127984956" lon="12.4588774346113"><ele>444.33333333333337</ele><time>2026-03-29T08:34:37Z</time></trkpt><trkpt lat="46.01150608898264" lon="12.45885839423051"><ele>445.5</ele><time>2026-03-29T08:34:38Z</time></trkpt><trkpt lat="46.011386759013774" lon="12.458859853429276"><ele>446.66666666666663</ele><time>2026-03-29T08:34:40Z</time></trkpt><trkpt lat="46.01131393097757" lon="12.45885729607628"><ele>447.8333333333333</ele><time>2026-03-29T08:34:41Z</time></trkpt><trkpt lat="46.01123821604352" lon="12.458851993055012"><ele>449.0</ele><time>2026-03-29T08:34:42Z</time></trkpt><trkpt lat="46.01116552333884" lon="12.458847992727751"><ele>448.99999999999994</ele><time>2026-03-29T08:34:43Z</time></trkpt><trkpt lat="46.01109238732877" lon="12.458846413441705"><ele>449.0</ele><time>2026-03-29T08:34:44Z</time></trkpt><trkpt lat="46.0110183111609" lon="12.458863520400797"><ele>449.0</ele><time>2026-03-29T08:34:45Z</time></trkpt><trkpt lat="46.010941517102914" lon="12.458871585680328"><ele>449.0</ele><time>2026-03-29T08:34:46Z</time></trkpt><trkpt lat="46.01085771446113" lon="12.45887454374344"><ele>448.99999999999994</ele><time>2026-03-29T08:34:47Z</time></trkpt><trkpt lat="46.010776366183705" lon="12.458902459521191"><ele>449.0</ele><time>2026-03-29T08:34:48Z</time></trkpt><trkpt lat="46.01069625145511" lon="12.458933046014547"><ele>450.6</ele><time>2026-03-29T08:34:49Z</time></trkpt><trkpt lat="46.01062124420802" lon="12.458965004260177"><ele>452.2</ele><time>2026-03-29T08:34:50Z</time></trkpt><trkpt lat="46.010555873110455" lon="12.459020247391365"><ele>453.80000000000007</ele><time>2026-03-29T08:34:51Z</time></trkpt><trkpt lat="46.01049757453565" lon="12.459056622153495"><ele>455.40000000000003</ele><time>2026-03-29T08:34:52Z</time></trkpt><trkpt lat="46.01038028614958" lon="12.459112509088735"><ele>457.0</ele><time>2026-03-29T08:34:54Z</time></trkpt><trkpt lat="46.0102597250074" lon="12.45916945060812"><ele>457.00000000000006</ele><time>2026-03-29T08:34:56Z</time></trkpt><trkpt lat="46.010143360196444" lon="12.459212341206817"><ele>457.0</ele><time>2026-03-29T08:34:58Z</time></trkpt><trkpt lat="46.01007572100784" lon="12.459234552241506"><ele>457.0</ele><time>2026-03-29T08:34:59Z</time></trkpt><trkpt lat="46.010006365180764" lon="12.459253084688445"><ele>457.0</ele><time>2026-03-29T08:35:00Z</time></trkpt><trkpt lat="46.009937243279914" lon="12.459260821390009"><ele>457.00000000000006</ele><time>2026-03-29T08:35:01Z</time></trkpt><trkpt lat="46.00987041545135" lon="12.459262213459988"><ele>457.0</ele><time>2026-03-29T08:35:02Z</time></trkpt><trkpt lat="46.00980804572979" lon="12.459246754212089"><ele>454.6666666666667</ele><time>2026-03-29T08:35:03Z</time></trkpt><trkpt lat="46.009737704332366" lon="12.459219196467364"><ele>452.33333333333337</ele><time>2026-03-29T08:35:04Z</time></trkpt><trkpt lat="46.00966521422142" lon="12.45919147095235"><ele>450.0</ele><time>2026-03-29T08:35:05Z</time></trkpt><trkpt lat="46.00958757548547" lon="12.459176422942196"><ele>447.66666666666663</ele><time>2026-03-29T08:35:06Z</time></trkpt><trkpt lat="46.00951814221198" lon="12.459187439127906"><ele>445.3333333333333</ele><time>2026-03-29T08:35:07Z</time></trkpt><trkpt lat="46.009415513254716" lon="12.459206656788398"><ele>443.0</ele><time>2026-03-29T08:35:09Z</time></trkpt><trkpt lat="46.00932739337964" lon="12.459132833089104"><ele>442.99999999999994</ele><time>2026-03-29T08:35:11Z</time></trkpt><trkpt lat="46.00930066080359" lon="12.459043619251261"><ele>443.0</ele><time>2026-03-29T08:35:12Z</time></trkpt><trkpt lat="46.00927975888161" lon="12.458942110494775"><ele>443.0</ele><time>2026-03-29T08:35:13Z</time></trkpt><trkpt lat="46.009245313158566" lon="12.458845626834764"><ele>443.0</ele><time>2026-03-29T08:35:14Z</time></trkpt><trkpt lat="46.00920904452669" lon="12.458748512032658"><ele>442.99999999999994</ele><time>2026-03-29T08:35:15Z</time></trkpt><trkpt lat="46.009138609415444" lon="12.458625571580614"><ele>443.0</ele><time>2026-03-29T08:35:17Z</time></trkpt><trkpt lat="46.00904166824693" lon="12.458631691386893"><ele>445.66666666666663</ele><time>2026-03-29T08:35:19Z</time></trkpt><trkpt lat="46.008914995581186" lon="12.458659766550825"><ele>448.3333333333333</ele><time>2026-03-29T08:35:21Z</time></trkpt><trkpt lat="46.008843158018294" lon="12.458686381424629"><ele>451.0</ele><time>2026-03-29T08:35:22Z</time></trkpt><trkpt lat="46.00877012607361" lon="12.458701380361939"><ele>453.66666666666663</ele><time>2026-03-29T08:35:23Z</time></trkpt><trkpt lat="46.00869626134254" lon="12.458714519005108"><ele>456.3333333333333</ele><time>2026-03-29T08:35:24Z</time></trkpt><trkpt lat="46.008626103579445" lon="12.458731179981076"><ele>459.0</ele><time>2026-03-29T08:35:25Z</time></trkpt><trkpt lat="46.008561579368646" lon="12.45873624043441"><ele>459.0</ele><time>2026-03-29T08:35:26Z</time></trkpt><trkpt lat="46.00843793529615" lon="12.458768162879984"><ele>459.0</ele><time>2026-03-29T08:35:28Z</time></trkpt><trkpt lat="46.0083358183709" lon="12.4588234286867"><ele>459.0</ele><time>2026-03-29T08:35:30Z</time></trkpt><trkpt lat="46.008258154028006" lon="12.458885196305676"><ele>459.0</ele><time>2026-03-29T08:35:32Z</time></trkpt><trkpt lat="46.00818562901964" lon="12.458937422448772"><ele>459.0</ele><time>2026-03-29T08:35:34Z</time></trkpt><trkpt lat="46.00812931047154" lon="12.459000876342635"><ele>455.8333333333333</ele><time>2026-03-29T08:35:36Z</time></trkpt><trkpt lat="46.008069614364224" lon="12.459068135588879"><ele>452.66666666666663</ele><time>2026-03-29T08:35:38Z</time></trkpt><trkpt lat="46.0080049712554" lon="12.459133855038408"><ele>449.5</ele><time>2026-03-29T08:35:40.001Z</time></trkpt><trkpt lat="46.007938472765055" lon="12.459172188925864"><ele>446.3333333333333</ele><time>2026-03-29T08:35:42.001Z</time></trkpt><trkpt lat="46.007867540057845" lon="12.459076506878446"><ele>443.16666666666663</ele><time>2026-03-29T08:35:45.001Z</time></trkpt><trkpt lat="46.007861761335725" lon="12.458929298115207"><ele>440.0</ele><time>2026-03-29T08:35:47.001Z</time></trkpt><trkpt lat="46.007875486098236" lon="12.45878102170824"><ele>440.0</ele><time>2026-03-29T08:35:49.001Z</time></trkpt><trkpt lat="46.00791611254814" lon="12.458625584111532"><ele>440.0</ele><time>2026-03-29T08:35:51.001Z</time></trkpt><trkpt lat="46.007942762956915" lon="12.458485779134609"><ele>440.0</ele><time>2026-03-29T08:35:53.001Z</time></trkpt><trkpt lat="46.007867795650625" lon="12.45835494479274"><ele>440.0</ele><time>2026-03-29T08:35:55.001Z</time></trkpt><trkpt lat="46.00777510545603" lon="12.458240977622495"><ele>439.99999999999994</ele><time>2026-03-29T08:35:57.001Z</time></trkpt><trkpt lat="46.007673108378256" lon="12.458156529995668"><ele>440.0</ele><time>2026-03-29T08:35:59.001Z</time></trkpt><trkpt lat="46.007596901641335" lon="12.45802631610195"><ele>440.0</ele><time>2026-03-29T08:36:01.001Z</time></trkpt><trkpt lat="46.00756068581821" lon="12.45794551815312"><ele>440.0</ele><time>2026-03-29T08:36:02.001Z</time></trkpt><trkpt lat="46.00752233965042" lon="12.457863438697109"><ele>439.99999999999994</ele><time>2026-03-29T08:36:03.001Z</time></trkpt><trkpt lat="46.007478308086576" lon="12.457790238854528"><ele>440.0</ele><time>2026-03-29T08:36:04.001Z</time></trkpt><trkpt lat="46.00738780986922" lon="12.45772054598262"><ele>439.0</ele><time>2026-03-29T08:36:06.001Z</time></trkpt><trkpt lat="46.007272635636284" lon="12.457705532453831"><ele>438.0</ele><time>2026-03-29T08:36:08.001Z</time></trkpt><trkpt lat="46.00721351633069" lon="12.457648871604103"><ele>437.0</ele><time>2026-03-29T08:36:10.001Z</time></trkpt><trkpt lat="46.00721350685536" lon="12.45753222344536"><ele>436.0</ele><time>2026-03-29T08:36:12.001Z</time></trkpt><trkpt lat="46.00727913445779" lon="12.457395219788946"><ele>435.0</ele><time>2026-03-29T08:36:14.001Z</time></trkpt><trkpt lat="46.00736328190141" lon="12.457267409985796"><ele>435.0</ele><time>2026-03-29T08:36:16.001Z</time></trkpt><trkpt lat="46.00744677342146" lon="12.457128149879066"><ele>435.0</ele><time>2026-03-29T08:36:18.001Z</time></trkpt><trkpt lat="46.00746976555843" lon="12.457027386665034"><ele>435.0</ele><time>2026-03-29T08:36:19Z</time></trkpt><trkpt lat="46.007479731808424" lon="12.456930354678883"><ele>435.0</ele><time>2026-03-29T08:36:20Z</time></trkpt><trkpt lat="46.00752062881117" lon="12.4567792564053"><ele>435.0</ele><time>2026-03-29T08:36:22Z</time></trkpt><trkpt lat="46.00760720933996" lon="12.456678451600798"><ele>440.75</ele><time>2026-03-29T08:36:24Z</time></trkpt><trkpt lat="46.007718920695" lon="12.456624849926953"><ele>446.5</ele><time>2026-03-29T08:36:26Z</time></trkpt><trkpt lat="46.007827361717766" lon="12.456584445759527"><ele>452.25</ele><time>2026-03-29T08:36:28Z</time></trkpt><trkpt lat="46.0079209065763" lon="12.456488188548125"><ele>458.0</ele><time>2026-03-29T08:36:30Z</time></trkpt><trkpt lat="46.00791934599854" lon="12.456308602151875"><ele>457.71428571428567</ele><time>2026-03-29T08:36:32Z</time></trkpt><trkpt lat="46.00788867976352" lon="12.456217030491652"><ele>457.42857142857144</ele><time>2026-03-29T08:36:33Z</time></trkpt><trkpt lat="46.007851035312896" lon="12.456140584768255"><ele>457.1428571428571</ele><time>2026-03-29T08:36:34Z</time></trkpt><trkpt lat="46.00787034730315" lon="12.455999885768765"><ele>456.85714285714283</ele><time>2026-03-29T08:36:36Z</time></trkpt><trkpt lat="46.00789726921483" lon="12.455914884783093"><ele>456.57142857142856</ele><time>2026-03-29T08:36:37Z</time></trkpt><trkpt lat="46.007918170386596" lon="12.455826029341"><ele>456.2857142857143</ele><time>2026-03-29T08:36:38Z</time></trkpt><trkpt lat="46.007912333525915" lon="12.455729521118915"><ele>456.0</ele><time>2026-03-29T08:36:39Z</time></trkpt><trkpt lat="46.007884581290476" lon="12.455647117733166"><ele>456.0</ele><time>2026-03-29T08:36:40Z</time></trkpt><trkpt lat="46.00783466586473" lon="12.455567968435693"><ele>456.0</ele><time>2026-03-29T08:36:41Z</time></trkpt><trkpt lat="46.00779482572098" lon="12.455496570803657"><ele>456.0</ele><time>2026-03-29T08:36:42Z</time></trkpt><trkpt lat="46.00776247080406" lon="12.455345174129349"><ele>456.0</ele><time>2026-03-29T08:36:44Z</time></trkpt><trkpt lat="46.007784365265614" lon="12.455252873946536"><ele>456.0</ele><time>2026-03-29T08:36:46Z</time></trkpt><trkpt lat="46.0078550370086" lon="12.455242302717243"><ele>456.0</ele><time>2026-03-29T08:36:48Z</time></trkpt><trkpt lat="46.00783744921783" lon="12.455374846288615"><ele>456.0</ele><time>2026-03-29T08:36:50Z</time></trkpt><trkpt lat="46.00786986019172" lon="12.455478255884726"><ele>456.0</ele><time>2026-03-29T08:36:52Z</time></trkpt><trkpt lat="46.00793305538426" lon="12.45549878065636"><ele>456.0</ele><time>2026-03-29T08:36:53Z</time></trkpt><trkpt lat="46.00803623957342" lon="12.455586475623615"><ele>456.0</ele><time>2026-03-29T08:36:55Z</time></trkpt><trkpt lat="46.008076116581506" lon="12.455739983479974"><ele>456.0</ele><time>2026-03-29T08:36:57Z</time></trkpt><trkpt lat="46.00808777009403" lon="12.455842435172498"><ele>456.0</ele><time>2026-03-29T08:36:58Z</time></trkpt><trkpt lat="46.008107445905615" lon="12.455945573365835"><ele>456.0</ele><time>2026-03-29T08:36:59Z</time></trkpt><trkpt lat="46.008128809563196" lon="12.45604097725594"><ele>456.0</ele><time>2026-03-29T08:37:00Z</time></trkpt><trkpt lat="46.008168982022276" lon="12.45613311861845"><ele>456.0</ele><time>2026-03-29T08:37:01Z</time></trkpt><trkpt lat="46.00821542034006" lon="12.456220876885531"><ele>456.0</ele><time>2026-03-29T08:37:02Z</time></trkpt><trkpt lat="46.00827559806807" lon="12.45630778621683"><ele>456.0</ele><time>2026-03-29T08:37:03Z</time></trkpt><trkpt lat="46.00831909011376" lon="12.45640719490238"><ele>456.0</ele><time>2026-03-29T08:37:04Z</time></trkpt><trkpt lat="46.008360594058715" lon="12.456499992619944"><ele>460.6666666666667</ele><time>2026-03-29T08:37:05Z</time></trkpt><trkpt lat="46.00840639004659" lon="12.456599247211333"><ele>465.33333333333337</ele><time>2026-03-29T08:37:06Z</time></trkpt><trkpt lat="46.00845503395834" lon="12.456694702557591"><ele>470.0</ele><time>2026-03-29T08:37:07Z</time></trkpt><trkpt lat="46.0084995227593" lon="12.456767190368048"><ele>474.6666666666667</ele><time>2026-03-29T08:37:08Z</time></trkpt><trkpt lat="46.00857277947169" lon="12.456835639077338"><ele>479.33333333333337</ele><time>2026-03-29T08:37:10Z</time></trkpt><trkpt lat="46.00864097915984" lon="12.456816107534866"><ele>484.0</ele><time>2026-03-29T08:37:11Z</time></trkpt><trkpt lat="46.0087072278999" lon="12.456810697692635"><ele>484.00000000000006</ele><time>2026-03-29T08:37:12Z</time></trkpt><trkpt lat="46.00878418704382" lon="12.456840421212968"><ele>484.0</ele><time>2026-03-29T08:37:13Z</time></trkpt><trkpt lat="46.00887122491082" lon="12.456863163936257"><ele>484.0</ele><time>2026-03-29T08:37:14Z</time></trkpt><trkpt lat="46.00894747171624" lon="12.45689900576292"><ele>484.0</ele><time>2026-03-29T08:37:15Z</time></trkpt><trkpt lat="46.00901099856392" lon="12.456889028719697"><ele>484.00000000000006</ele><time>2026-03-29T08:37:16Z</time></trkpt><trkpt lat="46.009133564142545" lon="12.45690496045685"><ele>484.0</ele><time>2026-03-29T08:37:18Z</time></trkpt><trkpt lat="46.00926753500506" lon="12.45689073087277"><ele>486.85714285714283</ele><time>2026-03-29T08:37:20Z</time></trkpt><trkpt lat="46.009333837136225" lon="12.456917709705603"><ele>489.71428571428567</ele><time>2026-03-29T08:37:21Z</time></trkpt><trkpt lat="46.00941028623077" lon="12.456917416792871"><ele>492.57142857142856</ele><time>2026-03-29T08:37:22Z</time></trkpt><trkpt lat="46.00947399619563" lon="12.456920540790799"><ele>495.42857142857144</ele><time>2026-03-29T08:37:23Z</time></trkpt><trkpt lat="46.00953895266329" lon="12.456956109479954"><ele>498.2857142857143</ele><time>2026-03-29T08:37:24Z</time></trkpt><trkpt lat="46.00963616121891" lon="12.457001744709236"><ele>501.1428571428571</ele><time>2026-03-29T08:37:26Z</time></trkpt><trkpt lat="46.00970209637719" lon="12.45701255546415"><ele>504.0</ele><time>2026-03-29T08:40:01.001Z</time></trkpt><trkpt lat="46.00980460147727" lon="12.4569312433478"><ele>504.0</ele><time>2026-03-29T08:40:03.001Z</time></trkpt><trkpt lat="46.00989744206509" lon="12.456859202059455"><ele>504.0</ele><time>2026-03-29T08:40:05.001Z</time></trkpt><trkpt lat="46.00998759369608" lon="12.45677650315409"><ele>504.0</ele><time>2026-03-29T08:40:07.001Z</time></trkpt><trkpt lat="46.0101026663172" lon="12.456788384203424"><ele>504.0</ele><time>2026-03-29T08:40:09.001Z</time></trkpt><trkpt lat="46.01020640895907" lon="12.456829104379773"><ele>504.0</ele><time>2026-03-29T08:40:11.001Z</time></trkpt><trkpt lat="46.01027537672987" lon="12.456885736092817"><ele>504.2</ele><time>2026-03-29T08:40:14.001Z</time></trkpt><trkpt lat="46.01024354954143" lon="12.457064869597463"><ele>504.4</ele><time>2026-03-29T08:40:15.001Z</time></trkpt><trkpt lat="46.01031325173881" lon="12.457195815767935"><ele>504.6</ele><time>2026-03-29T08:40:17.001Z</time></trkpt><trkpt lat="46.01039874368842" lon="12.457258314268726"><ele>504.8</ele><time>2026-03-29T08:40:19.001Z</time></trkpt><trkpt lat="46.01050449557364" lon="12.457237220821145"><ele>505.0</ele><time>2026-03-29T08:40:21.001Z</time></trkpt><trkpt lat="46.01058718733505" lon="12.457299928234395"><ele>505.0</ele><time>2026-03-29T08:40:23.001Z</time></trkpt><trkpt lat="46.01059396811051" lon="12.45744728433515"><ele>505.0</ele><time>2026-03-29T08:40:25.001Z</time></trkpt><trkpt lat="46.01065536787848" lon="12.457498817309949"><ele>505.0</ele><time>2026-03-29T08:40:27.001Z</time></trkpt><trkpt lat="46.010715382454585" lon="12.457402477216482"><ele>505.0</ele><time>2026-03-29T08:40:29.001Z</time></trkpt><trkpt lat="46.010649785587624" lon="12.45722222174168"><ele>505.0</ele><time>2026-03-29T08:40:31.001Z</time></trkpt><trkpt lat="46.01060395088067" lon="12.457124307872782"><ele>507.00000000000006</ele><time>2026-03-29T08:40:32.001Z</time></trkpt><trkpt lat="46.01056044736582" lon="12.457054310809152"><ele>509.0</ele><time>2026-03-29T08:40:33.001Z</time></trkpt><trkpt lat="46.01049981218255" lon="12.45702258492013"><ele>511.0</ele><time>2026-03-29T08:40:34.001Z</time></trkpt><trkpt lat="46.01043759077466" lon="12.456929023514352"><ele>513.0</ele><time>2026-03-29T08:40:36.001Z</time></trkpt><trkpt lat="46.01041367911404" lon="12.456792979744197"><ele>515.0</ele><time>2026-03-29T08:40:38Z</time></trkpt><trkpt lat="46.01040410019825" lon="12.456684712379475"><ele>517.0</ele><time>2026-03-29T08:40:39Z</time></trkpt><trkpt lat="46.01038014583599" lon="12.456562349638368"><ele>517.0</ele><time>2026-03-29T08:40:40Z</time></trkpt><trkpt lat="46.010358442180355" lon="12.45644406940874"><ele>517.0</ele><time>2026-03-29T08:40:41Z</time></trkpt><trkpt lat="46.0103369434623" lon="12.456290649737566"><ele>517.0</ele><time>2026-03-29T08:40:43Z</time></trkpt><trkpt lat="46.01027836904772" lon="12.456205478205861"><ele>517.0</ele><time>2026-03-29T08:40:45Z</time></trkpt><trkpt lat="46.01015450895903" lon="12.456202494558319"><ele>517.0</ele><time>2026-03-29T08:40:47Z</time></trkpt><trkpt lat="46.01007411094887" lon="12.456218994015279"><ele>517.6666666666667</ele><time>2026-03-29T08:40:48Z</time></trkpt><trkpt lat="46.00999502872246" lon="12.456225843762407"><ele>518.3333333333334</ele><time>2026-03-29T08:40:49Z</time></trkpt><trkpt lat="46.00991603911174" lon="12.456223985142437"><ele>519.0</ele><time>2026-03-29T08:40:50Z</time></trkpt><trkpt lat="46.00983923239363" lon="12.456216146094292"><ele>519.6666666666666</ele><time>2026-03-29T08:40:51Z</time></trkpt><trkpt lat="46.00976807029156" lon="12.456202178787132"><ele>520.3333333333333</ele><time>2026-03-29T08:40:52Z</time></trkpt><trkpt lat="46.00969864852377" lon="12.456177139719765"><ele>521.0</ele><time>2026-03-29T08:40:53Z</time></trkpt><trkpt lat="46.00962694392602" lon="12.456150605269475"><ele>521.0</ele><time>2026-03-29T08:40:54Z</time></trkpt><trkpt lat="46.009566844528955" lon="12.456110023504316"><ele>521.0</ele><time>2026-03-29T08:40:55Z</time></trkpt><trkpt lat="46.00950864597515" lon="12.45605924615486"><ele>521.0</ele><time>2026-03-29T08:40:56Z</time></trkpt><trkpt lat="46.00941993697321" lon="12.455996509670102"><ele>521.0</ele><time>2026-03-29T08:40:58Z</time></trkpt><trkpt lat="46.00940320199934" lon="12.455906061007031"><ele>521.0</ele><time>2026-03-29T08:41:00Z</time></trkpt><trkpt lat="46.00944304843996" lon="12.45581299757344"><ele>521.0</ele><time>2026-03-29T08:41:02Z</time></trkpt><trkpt lat="46.009531538737356" lon="12.455767935190915"><ele>521.0</ele><time>2026-03-29T08:41:04Z</time></trkpt><trkpt lat="46.009601785486765" lon="12.455739425905437"><ele>521.0</ele><time>2026-03-29T08:41:05Z</time></trkpt><trkpt lat="46.00968790900631" lon="12.455695538574417"><ele>521.0</ele><time>2026-03-29T08:41:06Z</time></trkpt><trkpt lat="46.00975957362156" lon="12.455643037529427"><ele>521.0</ele><time>2026-03-29T08:41:07Z</time></trkpt><trkpt lat="46.009822161215986" lon="12.455583489918986"><ele>521.0</ele><time>2026-03-29T08:41:08Z</time></trkpt><trkpt lat="46.00987510131454" lon="12.455524541874626"><ele>521.0</ele><time>2026-03-29T08:41:09Z</time></trkpt><trkpt lat="46.00992797210068" lon="12.455467227160524"><ele>519.8571428571429</ele><time>2026-03-29T08:41:10Z</time></trkpt><trkpt lat="46.00998599695583" lon="12.455409559160532"><ele>518.7142857142858</ele><time>2026-03-29T08:41:11Z</time></trkpt><trkpt lat="46.01004635822083" lon="12.455359964118843"><ele>517.5714285714287</ele><time>2026-03-29T08:41:12Z</time></trkpt><trkpt lat="46.0101088891572" lon="12.455322950973677"><ele>516.4285714285714</ele><time>2026-03-29T08:41:13Z</time></trkpt><trkpt lat="46.01017267840392" lon="12.455310400712133"><ele>515.2857142857143</ele><time>2026-03-29T08:41:14Z</time></trkpt><trkpt lat="46.01023961582334" lon="12.45530889665935"><ele>514.1428571428572</ele><time>2026-03-29T08:41:15Z</time></trkpt><trkpt lat="46.010308261956325" lon="12.455292210116705"><ele>513.0</ele><time>2026-03-29T08:41:16Z</time></trkpt><trkpt lat="46.01036909601327" lon="12.455252959146408"><ele>517.5714285714287</ele><time>2026-03-29T08:41:17Z</time></trkpt><trkpt lat="46.01041924395168" lon="12.45519231697051"><ele>522.1428571428571</ele><time>2026-03-29T08:41:18Z</time></trkpt><trkpt lat="46.01045901443447" lon="12.455114887351813"><ele>526.7142857142858</ele><time>2026-03-29T08:41:19Z</time></trkpt><trkpt lat="46.01050511552498" lon="12.45502701993771"><ele>531.2857142857143</ele><time>2026-03-29T08:41:20Z</time></trkpt><trkpt lat="46.01056013648111" lon="12.45493242813901"><ele>535.8571428571429</ele><time>2026-03-29T08:41:21Z</time></trkpt><trkpt lat="46.010616965110295" lon="12.454844769446582"><ele>540.4285714285714</ele><time>2026-03-29T08:41:22Z</time></trkpt><trkpt lat="46.01067089076598" lon="12.454785321862323"><ele>545.0</ele><time>2026-03-29T08:41:23Z</time></trkpt><trkpt lat="46.0107313375701" lon="12.4547289798392"><ele>545.0</ele><time>2026-03-29T08:41:24Z</time></trkpt><trkpt lat="46.01080032056411" lon="12.454694821292371"><ele>545.0</ele><time>2026-03-29T08:41:25Z</time></trkpt><trkpt lat="46.01087756502711" lon="12.45467079668711"><ele>545.0</ele><time>2026-03-29T08:41:26Z</time></trkpt><trkpt lat="46.0109837501865" lon="12.45459971519337"><ele>545.0</ele><time>2026-03-29T08:41:28Z</time></trkpt><trkpt lat="46.01101851316247" lon="12.454515966022024"><ele>545.0</ele><time>2026-03-29T08:41:29Z</time></trkpt><trkpt lat="46.01103941678692" lon="12.454408099094826"><ele>545.0</ele><time>2026-03-29T08:41:30Z</time></trkpt><trkpt lat="46.01105954822193" lon="12.454301381538544"><ele>547.2</ele><time>2026-03-29T08:41:31Z</time></trkpt><trkpt lat="46.01113475022861" lon="12.454189655543509"><ele>549.4</ele><time>2026-03-29T08:41:33Z</time></trkpt><trkpt lat="46.01119738904765" lon="12.454170702886545"><ele>551.6</ele><time>2026-03-29T08:41:34.001Z</time></trkpt><trkpt lat="46.01129371715766" lon="12.454172262596993"><ele>553.8</ele><time>2026-03-29T08:41:36.001Z</time></trkpt><trkpt lat="46.01141283494049" lon="12.454205538883258"><ele>556.0</ele><time>2026-03-29T08:41:38.001Z</time></trkpt><trkpt lat="46.01148702495598" lon="12.454228149971408"><ele>556.0</ele><time>2026-03-29T08:41:39.001Z</time></trkpt><trkpt lat="46.01156614669259" lon="12.454256761962922"><ele>556.0</ele><time>2026-03-29T08:41:40.001Z</time></trkpt><trkpt lat="46.011640873606574" lon="12.45430318548538"><ele>556.0</ele><time>2026-03-29T08:41:41.001Z</time></trkpt><trkpt lat="46.011697712797194" lon="12.45435955394953"><ele>556.0</ele><time>2026-03-29T08:41:42.001Z</time></trkpt><trkpt lat="46.01180481239962" lon="12.454424686994757"><ele>556.0</ele><time>2026-03-29T08:41:44.001Z</time></trkpt><trkpt lat="46.01193243880349" lon="12.454393381426287"><ele>558.8333333333334</ele><time>2026-03-29T08:41:46.001Z</time></trkpt><trkpt lat="46.01199603299485" lon="12.454403482506338"><ele>561.6666666666667</ele><time>2026-03-29T08:41:47.001Z</time></trkpt><trkpt lat="46.01213300773584" lon="12.454419788342825"><ele>564.5</ele><time>2026-03-29T08:41:49.001Z</time></trkpt><trkpt lat="46.01220751243763" lon="12.454404060708296"><ele>567.3333333333334</ele><time>2026-03-29T08:41:50.001Z</time></trkpt><trkpt lat="46.012281229720614" lon="12.45436589671389"><ele>570.1666666666666</ele><time>2026-03-29T08:41:51.001Z</time></trkpt><trkpt lat="46.0123468242336" lon="12.45429236468375"><ele>573.0</ele><time>2026-03-29T08:41:52.001Z</time></trkpt><trkpt lat="46.012411669825184" lon="12.45429284411355"><ele>573.0</ele><time>2026-03-29T08:41:53.001Z</time></trkpt><trkpt lat="46.01248816567993" lon="12.454268937707084"><ele>573.0</ele><time>2026-03-29T08:41:54.001Z</time></trkpt><trkpt lat="46.01255662293797" lon="12.454234550295634"><ele>573.0</ele><time>2026-03-29T08:41:55.001Z</time></trkpt><trkpt lat="46.01261504752169" lon="12.45418264743892"><ele>573.0</ele><time>2026-03-29T08:41:56.001Z</time></trkpt><trkpt lat="46.01266604632693" lon="12.454116479399481"><ele>573.0</ele><time>2026-03-29T08:41:57.001Z</time></trkpt><trkpt lat="46.0127128989828" lon="12.454035971487873"><ele>573.0</ele><time>2026-03-29T08:41:58.001Z</time></trkpt><trkpt lat="46.01276095453244" lon="12.453954321893226"><ele>573.0</ele><time>2026-03-29T08:41:59.001Z</time></trkpt><trkpt lat="46.01280756273674" lon="12.453891993855581"><ele>576.0</ele><time>2026-03-29T08:42:00.001Z</time></trkpt><trkpt lat="46.0129074502187" lon="12.453840124327895"><ele>579.0</ele><time>2026-03-29T08:42:02.001Z</time></trkpt><trkpt lat="46.01301059786259" lon="12.453858469639982"><ele>582.0</ele><time>2026-03-29T08:42:04.001Z</time></trkpt><trkpt lat="46.01313755678728" lon="12.45390475874843"><ele>585.0</ele><time>2026-03-29T08:42:06.001Z</time></trkpt><trkpt lat="46.01322141520981" lon="12.453954789149732"><ele>588.0</ele><time>2026-03-29T08:42:08.001Z</time></trkpt><trkpt lat="46.013335504846076" lon="12.453880074971377"><ele>590.5</ele><time>2026-03-29T08:42:10.001Z</time></trkpt><trkpt lat="46.01337737273877" lon="12.453778581188665"><ele>593.0</ele><time>2026-03-29T08:42:11.001Z</time></trkpt><trkpt lat="46.01342897103148" lon="12.453686526317973"><ele>595.5</ele><time>2026-03-29T08:42:12.001Z</time></trkpt><trkpt lat="46.013479380509054" lon="12.453584287136879"><ele>598.0</ele><time>2026-03-29T08:42:13.001Z</time></trkpt><trkpt lat="46.01352429906313" lon="12.453487209329992"><ele>600.5</ele><time>2026-03-29T08:42:14.001Z</time></trkpt><trkpt lat="46.013577286545186" lon="12.453380505330696"><ele>603.0</ele><time>2026-03-29T08:42:16.001Z</time></trkpt><trkpt lat="46.013656307828136" lon="12.453364417181442"><ele>603.0</ele><time>2026-03-29T08:42:18.001Z</time></trkpt><trkpt lat="46.01377762728592" lon="12.453296469870375"><ele>603.0</ele><time>2026-03-29T08:42:20.001Z</time></trkpt><trkpt lat="46.013852981281275" lon="12.453252378216623"><ele>603.0</ele><time>2026-03-29T08:42:21.001Z</time></trkpt><trkpt lat="46.01393751270746" lon="12.453202093823348"><ele>603.0</ele><time>2026-03-29T08:42:22.001Z</time></trkpt><trkpt lat="46.014022142964635" lon="12.453151750572324"><ele>603.0</ele><time>2026-03-29T08:42:23.001Z</time></trkpt><trkpt lat="46.014103008732945" lon="12.453079517145243"><ele>605.1666666666666</ele><time>2026-03-29T08:42:24.001Z</time></trkpt><trkpt lat="46.01417120279121" lon="12.45303010043249"><ele>607.3333333333334</ele><time>2026-03-29T08:42:25.001Z</time></trkpt><trkpt lat="46.01422486657429" lon="12.452976278763778"><ele>609.5</ele><time>2026-03-29T08:42:26.001Z</time></trkpt><trkpt lat="46.01428831698791" lon="12.452946622060509"><ele>611.6666666666667</ele><time>2026-03-29T08:42:27.001Z</time></trkpt><trkpt lat="46.01434176755912" lon="12.45289472432387"><ele>613.8333333333334</ele><time>2026-03-29T08:42:28.001Z</time></trkpt><trkpt lat="46.014416214666845" lon="12.452798777278145"><ele>616.0</ele><time>2026-03-29T08:42:30.001Z</time></trkpt><trkpt lat="46.014471603544905" lon="12.452683685068841"><ele>616.0</ele><time>2026-03-29T08:42:32.001Z</time></trkpt><trkpt lat="46.0144342631689" lon="12.45259569188398"><ele>616.0</ele><time>2026-03-29T08:42:33.001Z</time></trkpt><trkpt lat="46.01433979651798" lon="12.452498184168805"><ele>616.0</ele><time>2026-03-29T08:42:35.001Z</time></trkpt><trkpt lat="46.01428068956325" lon="12.452463495890308"><ele>616.0</ele><time>2026-03-29T08:42:36.001Z</time></trkpt><trkpt lat="46.014216221694134" lon="12.452407857847271"><ele>616.0</ele><time>2026-03-29T08:42:37Z</time></trkpt><trkpt lat="46.014167445179794" lon="12.452350225973243"><ele>616.0</ele><time>2026-03-29T08:42:38Z</time></trkpt><trkpt lat="46.014126404718" lon="12.45222351474493"><ele>614.0</ele><time>2026-03-29T08:42:40Z</time></trkpt><trkpt lat="46.01409464951858" lon="12.452134584804886"><ele>612.0</ele><time>2026-03-29T08:42:42Z</time></trkpt><trkpt lat="46.014016388826974" lon="12.452094884718331"><ele>610.0</ele><time>2026-03-29T08:42:43Z</time></trkpt><trkpt lat="46.013899208651104" lon="12.451989464647022"><ele>608.0</ele><time>2026-03-29T08:42:45Z</time></trkpt><trkpt lat="46.01384163118127" lon="12.451931238607296"><ele>606.0</ele><time>2026-03-29T08:42:46Z</time></trkpt><trkpt lat="46.01378794944181" lon="12.451871479912842"><ele>604.0</ele><time>2026-03-29T08:42:47Z</time></trkpt><trkpt lat="46.013732032732165" lon="12.451809126000247"><ele>604.0</ele><time>2026-03-29T08:42:48Z</time></trkpt><trkpt lat="46.01367539572128" lon="12.451745968803255"><ele>604.0</ele><time>2026-03-29T08:42:49Z</time></trkpt><trkpt lat="46.013613825659824" lon="12.451677548232261"><ele>604.0</ele><time>2026-03-29T08:42:50Z</time></trkpt><trkpt lat="46.01355349748056" lon="12.451612757861131"><ele>604.0</ele><time>2026-03-29T08:42:51Z</time></trkpt><trkpt lat="46.0134800190095" lon="12.451574947991215"><ele>604.0</ele><time>2026-03-29T08:42:52Z</time></trkpt><trkpt lat="46.01340884946361" lon="12.451538489019216"><ele>604.0</ele><time>2026-03-29T08:42:53Z</time></trkpt><trkpt lat="46.013335322978975" lon="12.451487982811585"><ele>603.8333333333334</ele><time>2026-03-29T08:42:54Z</time></trkpt><trkpt lat="46.01326280469693" lon="12.451432848691574"><ele>603.6666666666667</ele><time>2026-03-29T08:42:55Z</time></trkpt><trkpt lat="46.013189201390915" lon="12.451374966807554"><ele>603.5</ele><time>2026-03-29T08:42:56Z</time></trkpt><trkpt lat="46.01312301433536" lon="12.451320686481596"><ele>603.3333333333334</ele><time>2026-03-29T08:42:57Z</time></trkpt><trkpt lat="46.013060130602334" lon="12.45126646451236"><ele>603.1666666666666</ele><time>2026-03-29T08:42:58Z</time></trkpt><trkpt lat="46.013001132411844" lon="12.451201174902007"><ele>603.0</ele><time>2026-03-29T08:42:59Z</time></trkpt><trkpt lat="46.012928597378746" lon="12.45119793103474"><ele>603.0</ele><time>2026-03-29T08:43:00Z</time></trkpt><trkpt lat="46.01286568975177" lon="12.451160867147758"><ele>603.0</ele><time>2026-03-29T08:43:01Z</time></trkpt><trkpt lat="46.01280029345789" lon="12.451151405934416"><ele>603.0</ele><time>2026-03-29T08:43:02Z</time></trkpt><trkpt lat="46.01272920519115" lon="12.451149136579565"><ele>603.0</ele><time>2026-03-29T08:43:03Z</time></trkpt><trkpt lat="46.01265837403102" lon="12.451176385338213"><ele>603.0</ele><time>2026-03-29T08:43:04Z</time></trkpt><trkpt lat="46.012588840838326" lon="12.451186290672883"><ele>603.0</ele><time>2026-03-29T08:43:05Z</time></trkpt><trkpt lat="46.01247326246395" lon="12.451155898155783"><ele>599.0</ele><time>2026-03-29T08:43:07Z</time></trkpt><trkpt lat="46.01243052916941" lon="12.45108263008795"><ele>595.0</ele><time>2026-03-29T08:43:08Z</time></trkpt><trkpt lat="46.01237559366393" lon="12.451030224314625"><ele>591.0</ele><time>2026-03-29T08:43:09Z</time></trkpt><trkpt lat="46.012333741133844" lon="12.450953239399794"><ele>587.0</ele><time>2026-03-29T08:43:10Z</time></trkpt><trkpt lat="46.01229701725852" lon="12.450866065266393"><ele>583.0</ele><time>2026-03-29T08:43:11Z</time></trkpt><trkpt lat="46.0122629496497" lon="12.450775779609254"><ele>579.0</ele><time>2026-03-29T08:43:12Z</time></trkpt><trkpt lat="46.01223133292975" lon="12.450691537550673"><ele>575.0</ele><time>2026-03-29T08:43:13Z</time></trkpt><trkpt lat="46.012201860960104" lon="12.450579249826967"><ele>575.0</ele><time>2026-03-29T08:43:14Z</time></trkpt><trkpt lat="46.01212587056066" lon="12.45049506468364"><ele>575.0</ele><time>2026-03-29T08:43:15Z</time></trkpt><trkpt lat="46.01203600977608" lon="12.450453705292245"><ele>575.0</ele><time>2026-03-29T08:43:16Z</time></trkpt><trkpt lat="46.011959318929236" lon="12.450339297676503"><ele>575.0</ele><time>2026-03-29T08:43:17Z</time></trkpt><trkpt lat="46.01187413354517" lon="12.450247454521206"><ele>575.0</ele><time>2026-03-29T08:43:18Z</time></trkpt><trkpt lat="46.01177914709841" lon="12.450210895852974"><ele>575.0</ele><time>2026-03-29T08:43:19Z</time></trkpt><trkpt lat="46.011692442516235" lon="12.450156201091861"><ele>575.0</ele><time>2026-03-29T08:43:20Z</time></trkpt><trkpt lat="46.011615137400334" lon="12.450087783766474"><ele>575.0</ele><time>2026-03-29T08:43:21Z</time></trkpt><trkpt lat="46.01153203338533" lon="12.450040773066595"><ele>575.0</ele><time>2026-03-29T08:43:22Z</time></trkpt><trkpt lat="46.01144343279147" lon="12.450005984774803"><ele>575.0</ele><time>2026-03-29T08:43:23Z</time></trkpt><trkpt lat="46.01135328480486" lon="12.44999966029731"><ele>575.0</ele><time>2026-03-29T08:43:24Z</time></trkpt><trkpt lat="46.011263063875475" lon="12.449979088071652"><ele>575.0</ele><time>2026-03-29T08:43:25Z</time></trkpt><trkpt lat="46.011167033344194" lon="12.449966609040949"><ele>575.0</ele><time>2026-03-29T08:43:26Z</time></trkpt><trkpt lat="46.01107784534874" lon="12.449947092458975"><ele>575.0</ele><time>2026-03-29T08:43:27Z</time></trkpt><trkpt lat="46.01099011069774" lon="12.449910950506208"><ele>575.0</ele><time>2026-03-29T08:43:28Z</time></trkpt><trkpt lat="46.010909232483485" lon="12.449835491362807"><ele>570.2</ele><time>2026-03-29T08:43:29Z</time></trkpt><trkpt lat="46.0108181313056" lon="12.449785367519453"><ele>565.4</ele><time>2026-03-29T08:43:30Z</time></trkpt><trkpt lat="46.01072659593091" lon="12.44974235244799"><ele>560.6</ele><time>2026-03-29T08:43:31Z</time></trkpt><trkpt lat="46.010638200477416" lon="12.449731499824122"><ele>555.8</ele><time>2026-03-29T08:43:32Z</time></trkpt><trkpt lat="46.01054705581822" lon="12.449710357836016"><ele>551.0</ele><time>2026-03-29T08:43:33Z</time></trkpt><trkpt lat="46.01045197646241" lon="12.449702149969967"><ele>551.0</ele><time>2026-03-29T08:43:34Z</time></trkpt><trkpt lat="46.010346124837696" lon="12.449697192622725"><ele>551.0</ele><time>2026-03-29T08:43:35Z</time></trkpt><trkpt lat="46.01023762949099" lon="12.449684413029239"><ele>551.0</ele><time>2026-03-29T08:43:36Z</time></trkpt><trkpt lat="46.01012684896808" lon="12.449677004132498"><ele>551.0</ele><time>2026-03-29T08:43:37Z</time></trkpt><trkpt lat="46.01002049526357" lon="12.449655711897778"><ele>551.0</ele><time>2026-03-29T08:43:38Z</time></trkpt><trkpt lat="46.00992532937601" lon="12.44963151410493"><ele>551.0</ele><time>2026-03-29T08:43:39Z</time></trkpt><trkpt lat="46.00983417575721" lon="12.449592874769976"><ele>551.0</ele><time>2026-03-29T08:43:40Z</time></trkpt><trkpt lat="46.00974084906733" lon="12.449532901314157"><ele>551.0</ele><time>2026-03-29T08:43:41Z</time></trkpt><trkpt lat="46.00965018242185" lon="12.449458954364742"><ele>551.0</ele><time>2026-03-29T08:43:42Z</time></trkpt><trkpt lat="46.009556351292254" lon="12.44939406512727"><ele>551.0</ele><time>2026-03-29T08:43:43Z</time></trkpt><trkpt lat="46.00945344306136" lon="12.449350197531569"><ele>551.0</ele><time>2026-03-29T08:43:44Z</time></trkpt><trkpt lat="46.009350402944" lon="12.449320977101888"><ele>551.0</ele><time>2026-03-29T08:43:45Z</time></trkpt><trkpt lat="46.009273266104636" lon="12.449270355473221"><ele>551.0</ele><time>2026-03-29T08:43:46Z</time></trkpt><trkpt lat="46.0092119752319" lon="12.449212733628254"><ele>551.0</ele><time>2026-03-29T08:43:47Z</time></trkpt><trkpt lat="46.00918207113749" lon="12.44910281884131"><ele>551.0</ele><time>2026-03-29T08:43:48Z</time></trkpt><trkpt lat="46.00911407586928" lon="12.44902762591011"><ele>551.0</ele><time>2026-03-29T08:43:49Z</time></trkpt><trkpt lat="46.009041340455724" lon="12.448932729775455"><ele>549.2</ele><time>2026-03-29T08:43:50Z</time></trkpt><trkpt lat="46.008968833292855" lon="12.44883886194929"><ele>547.4000000000001</ele><time>2026-03-29T08:43:51Z</time></trkpt><trkpt lat="46.00890322462506" lon="12.44874749735195"><ele>545.6</ele><time>2026-03-29T08:43:52Z</time></trkpt><trkpt lat="46.00882934814711" lon="12.448671815131174"><ele>543.8000000000001</ele><time>2026-03-29T08:43:53Z</time></trkpt><trkpt lat="46.00875040796589" lon="12.44861645778819"><ele>542.0</ele><time>2026-03-29T08:43:54Z</time></trkpt><trkpt lat="46.00867046326724" lon="12.44856777310083"><ele>542.0</ele><time>2026-03-29T08:43:55Z</time></trkpt><trkpt lat="46.00859177569355" lon="12.448531003319648"><ele>542.0</ele><time>2026-03-29T08:43:56Z</time></trkpt><trkpt lat="46.00850546940077" lon="12.448509840033688"><ele>542.0</ele><time>2026-03-29T08:43:57Z</time></trkpt><trkpt lat="46.008425601218065" lon="12.448472142687187"><ele>542.0</ele><time>2026-03-29T08:43:58Z</time></trkpt><trkpt lat="46.0083478897117" lon="12.448429847745214"><ele>542.0</ele><time>2026-03-29T08:43:59Z</time></trkpt><trkpt lat="46.00827677149319" lon="12.448367079608875"><ele>542.0</ele><time>2026-03-29T08:44:00Z</time></trkpt><trkpt lat="46.00821757323563" lon="12.44829147744239"><ele>535.1666666666666</ele><time>2026-03-29T08:44:01Z</time></trkpt><trkpt lat="46.00817277813396" lon="12.448204459566648"><ele>528.3333333333333</ele><time>2026-03-29T08:44:02Z</time></trkpt><trkpt lat="46.00815390650558" lon="12.448104084658057"><ele>521.5</ele><time>2026-03-29T08:44:03Z</time></trkpt><trkpt lat="46.008124877881464" lon="12.44792383395254"><ele>514.6666666666666</ele><time>2026-03-29T08:44:05Z</time></trkpt><trkpt lat="46.00813419660078" lon="12.44782991179073"><ele>507.8333333333333</ele><time>2026-03-29T08:44:06Z</time></trkpt><trkpt lat="46.00816365041446" lon="12.447716533243359"><ele>501.0</ele><time>2026-03-29T08:44:07Z</time></trkpt><trkpt lat="46.008196764578166" lon="12.447599449422839"><ele>501.0</ele><time>2026-03-29T08:44:08Z</time></trkpt><trkpt lat="46.00823142364123" lon="12.447471834016577"><ele>501.0</ele><time>2026-03-29T08:44:09Z</time></trkpt><trkpt lat="46.00826278868288" lon="12.447330823744819"><ele>501.0</ele><time>2026-03-29T08:44:10Z</time></trkpt><trkpt lat="46.0083078493495" lon="12.447201297729528"><ele>501.0</ele><time>2026-03-29T08:44:11Z</time></trkpt><trkpt lat="46.008305905281226" lon="12.447072907042063"><ele>501.0</ele><time>2026-03-29T08:44:12Z</time></trkpt><trkpt lat="46.00829731166589" lon="12.446965615595868"><ele>503.8333333333333</ele><time>2026-03-29T08:44:13Z</time></trkpt><trkpt lat="46.008265910760215" lon="12.446866762014118"><ele>506.66666666666663</ele><time>2026-03-29T08:44:14Z</time></trkpt><trkpt lat="46.00823361867961" lon="12.446759117418773"><ele>509.5</ele><time>2026-03-29T08:44:15Z</time></trkpt><trkpt lat="46.008196466600324" lon="12.446652157469744"><ele>512.3333333333333</ele><time>2026-03-29T08:44:16Z</time></trkpt><trkpt lat="46.00816803084149" lon="12.446527714352582"><ele>515.1666666666666</ele><time>2026-03-29T08:44:17Z</time></trkpt><trkpt lat="46.00814944723545" lon="12.446389362038582"><ele>518.0</ele><time>2026-03-29T08:44:18Z</time></trkpt><trkpt lat="46.00812586784588" lon="12.446245807496913"><ele>521.6666666666666</ele><time>2026-03-29T08:44:19Z</time></trkpt><trkpt lat="46.00808958473341" lon="12.44612374252236"><ele>525.3333333333333</ele><time>2026-03-29T08:44:20Z</time></trkpt><trkpt lat="46.008056227827474" lon="12.446013939452424"><ele>529.0</ele><time>2026-03-29T08:44:21Z</time></trkpt><trkpt lat="46.008037730573044" lon="12.445897615568157"><ele>532.6666666666666</ele><time>2026-03-29T08:44:22.001Z</time></trkpt><trkpt lat="46.0080291648437" lon="12.44576872907948"><ele>536.3333333333334</ele><time>2026-03-29T08:44:23.001Z</time></trkpt><trkpt lat="46.008007830760455" lon="12.445660057134722"><ele>540.0</ele><time>2026-03-29T08:44:24.001Z</time></trkpt><trkpt lat="46.00796616620325" lon="12.445568252657958"><ele>540.0</ele><time>2026-03-29T08:44:25.001Z</time></trkpt><trkpt lat="46.00791156584632" lon="12.445497272751828"><ele>540.0</ele><time>2026-03-29T08:44:26.001Z</time></trkpt><trkpt lat="46.00785211304716" lon="12.445438906788507"><ele>540.0</ele><time>2026-03-29T08:44:27.001Z</time></trkpt><trkpt lat="46.007785669178766" lon="12.445406664344821"><ele>540.0</ele><time>2026-03-29T08:44:28.001Z</time></trkpt><trkpt lat="46.007706035275994" lon="12.44540348712784"><ele>540.0</ele><time>2026-03-29T08:44:29.001Z</time></trkpt><trkpt lat="46.007623423490074" lon="12.44542205435555"><ele>540.0</ele><time>2026-03-29T08:44:30.001Z</time></trkpt><trkpt lat="46.00754464636472" lon="12.445472835318547"><ele>543.2</ele><time>2026-03-29T08:44:31.001Z</time></trkpt><trkpt lat="46.00747498581881" lon="12.445546764959785"><ele>546.4</ele><time>2026-03-29T08:44:32.001Z</time></trkpt><trkpt lat="46.00741239587046" lon="12.445635426232563"><ele>549.6</ele><time>2026-03-29T08:44:33.001Z</time></trkpt><trkpt lat="46.00735087142231" lon="12.445738894945787"><ele>552.8</ele><time>2026-03-29T08:44:34.001Z</time></trkpt><trkpt lat="46.00728654293547" lon="12.445838745477587"><ele>556.0</ele><time>2026-03-29T08:44:35.001Z</time></trkpt><trkpt lat="46.00722593674599" lon="12.445945166571862"><ele>556.0</ele><time>2026-03-29T08:44:36.001Z</time></trkpt><trkpt lat="46.00717585153924" lon="12.446043590622237"><ele>556.0</ele><time>2026-03-29T08:44:37.001Z</time></trkpt><trkpt lat="46.00712487765638" lon="12.446130004899802"><ele>556.0</ele><time>2026-03-29T08:44:38.001Z</time></trkpt><trkpt lat="46.00707390192948" lon="12.446194969418674"><ele>556.0</ele><time>2026-03-29T08:44:39.001Z</time></trkpt><trkpt lat="46.00701270471466" lon="12.446249207203817"><ele>556.0</ele><time>2026-03-29T08:44:40.001Z</time></trkpt><trkpt lat="46.006948909177815" lon="12.446305084355494"><ele>556.0</ele><time>2026-03-29T08:44:41.001Z</time></trkpt><trkpt lat="46.006889332331575" lon="12.446356240529482"><ele>556.0</ele><time>2026-03-29T08:44:42.001Z</time></trkpt><trkpt lat="46.006833912248716" lon="12.446399527178832"><ele>549.2</ele><time>2026-03-29T08:44:42.999Z</time></trkpt><trkpt lat="46.006717194666095" lon="12.446450917041792"><ele>542.4000000000001</ele><time>2026-03-29T08:44:44.999Z</time></trkpt><trkpt lat="46.00665251634655" lon="12.446444696130417"><ele>535.6</ele><time>2026-03-29T08:44:45.999Z</time></trkpt><trkpt lat="46.00657521260892" lon="12.446421880245481"><ele>528.8000000000001</ele><time>2026-03-29T08:44:46.999Z</time></trkpt><trkpt lat="46.00649051002467" lon="12.44637454072241"><ele>522.0</ele><time>2026-03-29T08:44:47.999Z</time></trkpt><trkpt lat="46.00640477204258" lon="12.446303418346721"><ele>522.4</ele><time>2026-03-29T08:44:48.999Z</time></trkpt><trkpt lat="46.0063222249632" lon="12.44621429959377"><ele>522.8000000000001</ele><time>2026-03-29T08:44:49.999Z</time></trkpt><trkpt lat="46.00624055918748" lon="12.446113439836383"><ele>523.2</ele><time>2026-03-29T08:44:50.999Z</time></trkpt><trkpt lat="46.00615557176819" lon="12.446007026243764"><ele>523.6</ele><time>2026-03-29T08:44:51.999Z</time></trkpt><trkpt lat="46.00607352840044" lon="12.445891197819924"><ele>524.0</ele><time>2026-03-29T08:44:52.999Z</time></trkpt><trkpt lat="46.00599834065069" lon="12.445758529655826"><ele>524.0</ele><time>2026-03-29T08:44:53.999Z</time></trkpt><trkpt lat="46.00591955901304" lon="12.445626626829117"><ele>524.0</ele><time>2026-03-29T08:44:54.999Z</time></trkpt><trkpt lat="46.00582698144634" lon="12.445498220942163"><ele>524.0</ele><time>2026-03-29T08:44:55.999Z</time></trkpt><trkpt lat="46.00573939232983" lon="12.445376497456518"><ele>524.0</ele><time>2026-03-29T08:44:56.999Z</time></trkpt><trkpt lat="46.00565797548471" lon="12.445272961065246"><ele>523.6666666666666</ele><time>2026-03-29T08:44:57.999Z</time></trkpt><trkpt lat="46.00558411762786" lon="12.445180627935368"><ele>523.3333333333333</ele><time>2026-03-29T08:44:58.999Z</time></trkpt><trkpt lat="46.00552137856929" lon="12.445100680339168"><ele>523.0</ele><time>2026-03-29T08:44:59.999Z</time></trkpt><trkpt lat="46.005475031743046" lon="12.4450106291031"><ele>522.6666666666666</ele><time>2026-03-29T08:45:01Z</time></trkpt><trkpt lat="46.00544513361507" lon="12.444917388521615"><ele>522.3333333333334</ele><time>2026-03-29T08:45:02Z</time></trkpt><trkpt lat="46.00538717339329" lon="12.44486118432953"><ele>522.0</ele><time>2026-03-29T08:45:03Z</time></trkpt><trkpt lat="46.00530442884397" lon="12.444829894808251"><ele>522.0</ele><time>2026-03-29T08:45:04Z</time></trkpt><trkpt lat="46.0052174795435" lon="12.44479844979693"><ele>522.0</ele><time>2026-03-29T08:45:05Z</time></trkpt><trkpt lat="46.0051287089656" lon="12.444749329211"><ele>522.0</ele><time>2026-03-29T08:45:06Z</time></trkpt><trkpt lat="46.00503350129438" lon="12.444694423234047"><ele>522.0</ele><time>2026-03-29T08:45:07Z</time></trkpt><trkpt lat="46.004938114290155" lon="12.444636194137948"><ele>522.0</ele><time>2026-03-29T08:45:08Z</time></trkpt><trkpt lat="46.004859006211674" lon="12.444581150023994"><ele>522.4</ele><time>2026-03-29T08:45:09Z</time></trkpt><trkpt lat="46.00479168084029" lon="12.444521693247436"><ele>522.8000000000001</ele><time>2026-03-29T08:45:10Z</time></trkpt><trkpt lat="46.0047221468999" lon="12.444428992467916"><ele>523.2</ele><time>2026-03-29T08:45:11Z</time></trkpt><trkpt lat="46.00464808309365" lon="12.444316590756056"><ele>523.6</ele><time>2026-03-29T08:45:12Z</time></trkpt><trkpt lat="46.00457102591382" lon="12.444219856395371"><ele>524.0</ele><time>2026-03-29T08:45:13Z</time></trkpt><trkpt lat="46.00449471581928" lon="12.444129250094724"><ele>524.0</ele><time>2026-03-29T08:45:14Z</time></trkpt><trkpt lat="46.004433022317976" lon="12.444038067767801"><ele>524.0</ele><time>2026-03-29T08:45:15Z</time></trkpt><trkpt lat="46.00438138564775" lon="12.443967823933713"><ele>524.0</ele><time>2026-03-29T08:45:16Z</time></trkpt><trkpt lat="46.00428992651739" lon="12.443910470043962"><ele>524.0</ele><time>2026-03-29T08:45:18Z</time></trkpt><trkpt lat="46.0042009195791" lon="12.443994420358145"><ele>524.0</ele><time>2026-03-29T08:45:20Z</time></trkpt><trkpt lat="46.0041596640909" lon="12.444076471171092"><ele>524.0</ele><time>2026-03-29T08:45:21Z</time></trkpt><trkpt lat="46.00410265461846" lon="12.44414705506737"><ele>522.8333333333333</ele><time>2026-03-29T08:45:22Z</time></trkpt><trkpt lat="46.00402627231588" lon="12.444201257890496"><ele>521.6666666666666</ele><time>2026-03-29T08:45:23Z</time></trkpt><trkpt lat="46.00393981073034" lon="12.4442462037627"><ele>520.5</ele><time>2026-03-29T08:45:24Z</time></trkpt><trkpt lat="46.00385897731048" lon="12.444293684813411"><ele>519.3333333333334</ele><time>2026-03-29T08:45:25Z</time></trkpt><trkpt lat="46.003780034699204" lon="12.444339727752723"><ele>518.1666666666667</ele><time>2026-03-29T08:45:26Z</time></trkpt><trkpt lat="46.003712374264396" lon="12.444373929469203"><ele>517.0</ele><time>2026-03-29T08:45:27Z</time></trkpt><trkpt lat="46.003604547964294" lon="12.444357962304645"><ele>517.0</ele><time>2026-03-29T08:45:29Z</time></trkpt><trkpt lat="46.0035455857587" lon="12.444235313455012"><ele>517.0</ele><time>2026-03-29T08:45:31Z</time></trkpt><trkpt lat="46.003545438517506" lon="12.444136633609848"><ele>517.0</ele><time>2026-03-29T08:45:32Z</time></trkpt><trkpt lat="46.00353228112919" lon="12.44404312334564"><ele>517.0</ele><time>2026-03-29T08:45:33Z</time></trkpt><trkpt lat="46.00343058330483" lon="12.44395202925528"><ele>517.0</ele><time>2026-03-29T08:45:35Z</time></trkpt><trkpt lat="46.00335097905238" lon="12.443944675830737"><ele>517.0</ele><time>2026-03-29T08:45:36Z</time></trkpt><trkpt lat="46.00327423971449" lon="12.443930726613804"><ele>517.5</ele><time>2026-03-29T08:45:37Z</time></trkpt><trkpt lat="46.00320474203326" lon="12.443897147227355"><ele>518.0</ele><time>2026-03-29T08:45:38Z</time></trkpt><trkpt lat="46.00313992181081" lon="12.443839170780814"><ele>518.5</ele><time>2026-03-29T08:45:39Z</time></trkpt><trkpt lat="46.00306770703476" lon="12.443771395291417"><ele>519.0</ele><time>2026-03-29T08:45:40Z</time></trkpt><trkpt lat="46.00298306762334" lon="12.443730648995064"><ele>519.5</ele><time>2026-03-29T08:45:41Z</time></trkpt><trkpt lat="46.002904566802634" lon="12.443711357933237"><ele>520.0</ele><time>2026-03-29T08:45:42Z</time></trkpt><trkpt lat="46.00283338717019" lon="12.443697834773591"><ele>520.0</ele><time>2026-03-29T08:45:43Z</time></trkpt><trkpt lat="46.00273120815367" lon="12.443576671404688"><ele>520.0</ele><time>2026-03-29T08:45:45Z</time></trkpt><trkpt lat="46.0026661473478" lon="12.443492222199987"><ele>520.0</ele><time>2026-03-29T08:45:46Z</time></trkpt><trkpt lat="46.00259058486973" lon="12.443424998000095"><ele>520.0</ele><time>2026-03-29T08:45:47Z</time></trkpt><trkpt lat="46.00252368686507" lon="12.443367525270089"><ele>520.0</ele><time>2026-03-29T08:45:48Z</time></trkpt><trkpt lat="46.00247898293279" lon="12.443297118152685"><ele>517.6</ele><time>2026-03-29T08:45:49Z</time></trkpt><trkpt lat="46.002456204594544" lon="12.443210061499313"><ele>515.2</ele><time>2026-03-29T08:45:50Z</time></trkpt><trkpt lat="46.002424693052575" lon="12.443047085676193"><ele>512.8</ele><time>2026-03-29T08:45:52Z</time></trkpt><trkpt lat="46.00233774925227" lon="12.442991161817663"><ele>510.4</ele><time>2026-03-29T08:45:54Z</time></trkpt><trkpt lat="46.002237414319346" lon="12.44309257634487"><ele>508.0</ele><time>2026-03-29T08:45:56Z</time></trkpt><trkpt lat="46.00220051513757" lon="12.443198409828165"><ele>508.00000000000006</ele><time>2026-03-29T08:45:57Z</time></trkpt><trkpt lat="46.002150710487776" lon="12.443283485219606"><ele>508.0</ele><time>2026-03-29T08:45:58Z</time></trkpt><trkpt lat="46.00209126312505" lon="12.443352021488513"><ele>508.0</ele><time>2026-03-29T08:45:59Z</time></trkpt><trkpt lat="46.002025740242836" lon="12.443421264897479"><ele>508.0</ele><time>2026-03-29T08:46:00Z</time></trkpt><trkpt lat="46.001965227398806" lon="12.443476822546707"><ele>508.00000000000006</ele><time>2026-03-29T08:46:01Z</time></trkpt><trkpt lat="46.00186170911824" lon="12.443545819152886"><ele>508.0</ele><time>2026-03-29T08:46:03Z</time></trkpt><trkpt lat="46.001755006341696" lon="12.44354675821284"><ele>506.4</ele><time>2026-03-29T08:46:05Z</time></trkpt><trkpt lat="46.0016483088505" lon="12.443435426755894"><ele>504.79999999999995</ele><time>2026-03-29T08:46:07Z</time></trkpt><trkpt lat="46.001588571379635" lon="12.443353779561617"><ele>503.2</ele><time>2026-03-29T08:46:08Z</time></trkpt><trkpt lat="46.00152459742384" lon="12.443293403372905"><ele>501.6</ele><time>2026-03-29T08:46:09Z</time></trkpt><trkpt lat="46.00146429090603" lon="12.44325292131471"><ele>500.0</ele><time>2026-03-29T08:46:10Z</time></trkpt><trkpt lat="46.00136798065307" lon="12.443256420651128"><ele>500.0</ele><time>2026-03-29T08:46:12Z</time></trkpt><trkpt lat="46.00129992204589" lon="12.443382624342355"><ele>500.0</ele><time>2026-03-29T08:46:14.001Z</time></trkpt><trkpt lat="46.001271353096904" lon="12.443467823534519"><ele>500.0</ele><time>2026-03-29T08:46:15.001Z</time></trkpt><trkpt lat="46.00120447481968" lon="12.443600271519665"><ele>500.0</ele><time>2026-03-29T08:46:17.001Z</time></trkpt><trkpt lat="46.001084079012315" lon="12.44364608819376"><ele>500.0</ele><time>2026-03-29T08:46:19.001Z</time></trkpt><trkpt lat="46.000961552603584" lon="12.443650833244144"><ele>500.0</ele><time>2026-03-29T08:46:21.001Z</time></trkpt><trkpt lat="46.000844700117526" lon="12.44358319367022"><ele>500.0</ele><time>2026-03-29T08:46:23.001Z</time></trkpt><trkpt lat="46.00077940076776" lon="12.443534752160636"><ele>500.0</ele><time>2026-03-29T08:46:24.001Z</time></trkpt><trkpt lat="46.0007015304675" lon="12.443495448716309"><ele>500.0</ele><time>2026-03-29T08:46:25.001Z</time></trkpt><trkpt lat="46.00061370627859" lon="12.443467020662574"><ele>500.0</ele><time>2026-03-29T08:46:26.001Z</time></trkpt><trkpt lat="46.00052399232263" lon="12.443444487497619"><ele>496.8333333333333</ele><time>2026-03-29T08:46:27.001Z</time></trkpt><trkpt lat="46.00044334402693" lon="12.443405162476251"><ele>493.66666666666663</ele><time>2026-03-29T08:46:28.001Z</time></trkpt><trkpt lat="46.00037913038847" lon="12.443352326421358"><ele>490.5</ele><time>2026-03-29T08:46:29.001Z</time></trkpt><trkpt lat="46.00032340452924" lon="12.443296011439273"><ele>487.33333333333337</ele><time>2026-03-29T08:46:30.001Z</time></trkpt><trkpt lat="46.00028168556754" lon="12.443217174417978"><ele>484.1666666666667</ele><time>2026-03-29T08:46:31.001Z</time></trkpt><trkpt lat="46.00024027791724" lon="12.443110999295902"><ele>481.0</ele><time>2026-03-29T08:46:32.001Z</time></trkpt><trkpt lat="46.00018407907432" lon="12.443008757088785"><ele>483.99999999999994</ele><time>2026-03-29T08:46:33.001Z</time></trkpt><trkpt lat="46.00012572336115" lon="12.442918738009107"><ele>487.0</ele><time>2026-03-29T08:46:34.001Z</time></trkpt><trkpt lat="46.00006059247916" lon="12.442861416737202"><ele>489.99999999999994</ele><time>2026-03-29T08:46:35.001Z</time></trkpt><trkpt lat="45.99998896809425" lon="12.442825126690224"><ele>492.99999999999994</ele><time>2026-03-29T08:46:36.001Z</time></trkpt><trkpt lat="45.99991463570861" lon="12.442810559284872"><ele>496.0</ele><time>2026-03-29T08:46:37.001Z</time></trkpt><trkpt lat="45.99984802390698" lon="12.442823047433043"><ele>498.99999999999994</ele><time>2026-03-29T08:46:38.001Z</time></trkpt><trkpt lat="45.9997834105043" lon="12.442856057925217"><ele>501.99999999999994</ele><time>2026-03-29T08:46:39.001Z</time></trkpt><trkpt lat="45.999723322991535" lon="12.44288585097859"><ele>502.00000000000006</ele><time>2026-03-29T08:46:40.001Z</time></trkpt><trkpt lat="45.99965238185951" lon="12.442906211008367"><ele>502.0</ele><time>2026-03-29T08:46:41.001Z</time></trkpt><trkpt lat="45.99956740651019" lon="12.442910544955796"><ele>502.0</ele><time>2026-03-29T08:46:42.001Z</time></trkpt><trkpt lat="45.999472405813194" lon="12.442904762975484"><ele>502.0</ele><time>2026-03-29T08:46:43.001Z</time></trkpt><trkpt lat="45.99938203968077" lon="12.442890609906536"><ele>502.00000000000006</ele><time>2026-03-29T08:46:44.001Z</time></trkpt><trkpt lat="45.999295587058285" lon="12.442870825384457"><ele>502.0</ele><time>2026-03-29T08:46:45.001Z</time></trkpt><trkpt lat="45.999223937008466" lon="12.442852542264633"><ele>500.1666666666667</ele><time>2026-03-29T08:46:46.001Z</time></trkpt><trkpt lat="45.99913033264727" lon="12.442775969592734"><ele>498.33333333333337</ele><time>2026-03-29T08:46:48.001Z</time></trkpt><trkpt lat="45.999063068681956" lon="12.442701369666205"><ele>496.5</ele><time>2026-03-29T08:46:49.999Z</time></trkpt><trkpt lat="45.99898006391028" lon="12.4427119125148"><ele>494.66666666666663</ele><time>2026-03-29T08:48:26.001Z</time></trkpt><trkpt lat="45.99900530498052" lon="12.442812366737773"><ele>492.8333333333333</ele><time>2026-03-29T08:48:43.001Z</time></trkpt><trkpt lat="45.99906925841789" lon="12.442897385585482"><ele>491.0</ele><time>2026-03-29T08:48:45.001Z</time></trkpt><trkpt lat="45.99917847523805" lon="12.442995217639398"><ele>489.0</ele><time>2026-03-29T08:48:47.001Z</time></trkpt><trkpt lat="45.999244816721934" lon="12.443046426729138"><ele>487.0</ele><time>2026-03-29T08:48:48.001Z</time></trkpt><trkpt lat="45.99931795492941" lon="12.443106732343828"><ele>485.0</ele><time>2026-03-29T08:48:49.001Z</time></trkpt><trkpt lat="45.99939433205521" lon="12.443165961172301"><ele>483.0</ele><time>2026-03-29T08:48:50.001Z</time></trkpt><trkpt lat="45.99952762155969" lon="12.443245278021125"><ele>481.0</ele><time>2026-03-29T08:48:51.001Z</time></trkpt><trkpt lat="45.99962169752021" lon="12.443301612653123"><ele>481.00000000000006</ele><time>2026-03-29T08:48:52.001Z</time></trkpt><trkpt lat="45.99970452245062" lon="12.44334057222306"><ele>481.0</ele><time>2026-03-29T08:48:53.001Z</time></trkpt><trkpt lat="45.99978681812142" lon="12.443381640747653"><ele>481.0</ele><time>2026-03-29T08:48:54.001Z</time></trkpt><trkpt lat="45.99986343494505" lon="12.443439629655643"><ele>481.0</ele><time>2026-03-29T08:48:55Z</time></trkpt><trkpt lat="45.99992037678439" lon="12.443514473479548"><ele>481.00000000000006</ele><time>2026-03-29T08:48:56Z</time></trkpt><trkpt lat="45.999965292310996" lon="12.443608958746935"><ele>481.0</ele><time>2026-03-29T08:48:57Z</time></trkpt><trkpt lat="45.9999962830911" lon="12.443713198793944"><ele>477.6666666666667</ele><time>2026-03-29T08:48:58Z</time></trkpt><trkpt lat="46.0000266632263" lon="12.443819834135331"><ele>474.33333333333337</ele><time>2026-03-29T08:48:59Z</time></trkpt><trkpt lat="46.00005957744833" lon="12.44392680838523"><ele>471.0</ele><time>2026-03-29T08:49:00Z</time></trkpt><trkpt lat="46.0000962069935" lon="12.44403928688073"><ele>467.66666666666663</ele><time>2026-03-29T08:49:01Z</time></trkpt><trkpt lat="46.00012903065236" lon="12.444152884492233"><ele>464.3333333333333</ele><time>2026-03-29T08:49:02Z</time></trkpt><trkpt lat="46.00016550741366" lon="12.444265119834727"><ele>461.0</ele><time>2026-03-29T08:49:03Z</time></trkpt><trkpt lat="46.00020774772897" lon="12.444375193758336"><ele>460.99999999999994</ele><time>2026-03-29T08:49:04Z</time></trkpt><trkpt lat="46.00026188531684" lon="12.444474290958409"><ele>461.0</ele><time>2026-03-29T08:49:05Z</time></trkpt><trkpt lat="46.00032811670721" lon="12.444551835169836"><ele>461.0</ele><time>2026-03-29T08:49:06Z</time></trkpt><trkpt lat="46.00040372495147" lon="12.444609147780321"><ele>461.0</ele><time>2026-03-29T08:49:07Z</time></trkpt><trkpt lat="46.000476733764515" lon="12.444661290206808"><ele>460.99999999999994</ele><time>2026-03-29T08:49:08Z</time></trkpt><trkpt lat="46.0005540776624" lon="12.444698364524527"><ele>461.0</ele><time>2026-03-29T08:49:09Z</time></trkpt><trkpt lat="46.0006270437876" lon="12.444734887121943"><ele>459.66666666666663</ele><time>2026-03-29T08:49:10Z</time></trkpt><trkpt lat="46.00069133989405" lon="12.44477710828684"><ele>458.3333333333333</ele><time>2026-03-29T08:49:11Z</time></trkpt><trkpt lat="46.00074615669061" lon="12.444836733102225"><ele>457.0</ele><time>2026-03-29T08:49:12Z</time></trkpt><trkpt lat="46.00078224229361" lon="12.445011867202863"><ele>455.66666666666663</ele><time>2026-03-29T08:49:14Z</time></trkpt><trkpt lat="46.000760808467305" lon="12.44510382135153"><ele>454.3333333333333</ele><time>2026-03-29T08:49:15Z</time></trkpt><trkpt lat="46.000718513502875" lon="12.445183401170175"><ele>453.0</ele><time>2026-03-29T08:49:16Z</time></trkpt><trkpt lat="46.00065816984219" lon="12.445231029260981"><ele>453.0</ele><time>2026-03-29T08:49:17Z</time></trkpt><trkpt lat="46.00052143421545" lon="12.445192941180096"><ele>453.0</ele><time>2026-03-29T08:49:19Z</time></trkpt><trkpt lat="46.000433539106325" lon="12.445129720058805"><ele>453.0</ele><time>2026-03-29T08:49:20Z</time></trkpt><trkpt lat="46.00032937305193" lon="12.445075302444845"><ele>453.0</ele><time>2026-03-29T08:49:21Z</time></trkpt><trkpt lat="46.0002045934066" lon="12.445038130100297"><ele>453.0</ele><time>2026-03-29T08:49:22Z</time></trkpt><trkpt lat="46.000056957181485" lon="12.445013763292518"><ele>453.0</ele><time>2026-03-29T08:49:23Z</time></trkpt><trkpt lat="45.99991904199397" lon="12.444995020294638"><ele>453.0</ele><time>2026-03-29T08:49:24Z</time></trkpt><trkpt lat="45.99978668195626" lon="12.444970772381023"><ele>453.0</ele><time>2026-03-29T08:49:25Z</time></trkpt><trkpt lat="45.999647344716806" lon="12.444956770276724"><ele>453.0</ele><time>2026-03-29T08:49:26Z</time></trkpt><trkpt lat="45.999514854134596" lon="12.444949047829537"><ele>453.0</ele><time>2026-03-29T08:49:27Z</time></trkpt><trkpt lat="45.99938688222162" lon="12.444928416303537"><ele>453.0</ele><time>2026-03-29T08:49:28Z</time></trkpt><trkpt lat="45.99926057093097" lon="12.444905030002685"><ele>453.0</ele><time>2026-03-29T08:49:29Z</time></trkpt><trkpt lat="45.999134648944356" lon="12.444889297923527"><ele>449.5</ele><time>2026-03-29T08:49:30Z</time></trkpt><trkpt lat="45.99901433125437" lon="12.444876682815442"><ele>446.0</ele><time>2026-03-29T08:49:31Z</time></trkpt><trkpt lat="45.998900150203575" lon="12.444872598028855"><ele>442.5</ele><time>2026-03-29T08:49:32Z</time></trkpt><trkpt lat="45.99878744235291" lon="12.444877827437551"><ele>439.0</ele><time>2026-03-29T08:49:33Z</time></trkpt><trkpt lat="45.99866781832423" lon="12.444901667001291"><ele>439.0</ele><time>2026-03-29T08:49:34.001Z</time></trkpt><trkpt lat="45.998533117014524" lon="12.444929160712283"><ele>439.0</ele><time>2026-03-29T08:49:35.001Z</time></trkpt><trkpt lat="45.99839211088209" lon="12.44495197494501"><ele>439.0</ele><time>2026-03-29T08:49:36.001Z</time></trkpt><trkpt lat="45.998258134718775" lon="12.444976015641739"><ele>439.0</ele><time>2026-03-29T08:49:37.001Z</time></trkpt><trkpt lat="45.998133855723964" lon="12.444999392866373"><ele>437.75</ele><time>2026-03-29T08:49:38.001Z</time></trkpt><trkpt lat="45.99801140241147" lon="12.445017002099913"><ele>436.5</ele><time>2026-03-29T08:49:39.001Z</time></trkpt><trkpt lat="45.997888650076675" lon="12.445033920924512"><ele>435.25</ele><time>2026-03-29T08:49:40.001Z</time></trkpt><trkpt lat="45.997768237199274" lon="12.445053098512446"><ele>434.0</ele><time>2026-03-29T08:49:41.001Z</time></trkpt><trkpt lat="45.99765182262989" lon="12.445071147555199"><ele>434.0</ele><time>2026-03-29T08:49:42.001Z</time></trkpt><trkpt lat="45.99753614336974" lon="12.445091690781709"><ele>434.0</ele><time>2026-03-29T08:49:43.001Z</time></trkpt><trkpt lat="45.9974232315019" lon="12.445112600632697"><ele>434.0</ele><time>2026-03-29T08:49:44.001Z</time></trkpt><trkpt lat="45.99731568720716" lon="12.445129254838422"><ele>434.0</ele><time>2026-03-29T08:49:45.001Z</time></trkpt><trkpt lat="45.99720780584699" lon="12.44516427836601"><ele>434.0</ele><time>2026-03-29T08:49:46.001Z</time></trkpt><trkpt lat="45.99710772240805" lon="12.445232753667584"><ele>433.2</ele><time>2026-03-29T08:49:47.001Z</time></trkpt><trkpt lat="45.99701649925178" lon="12.445313990233279"><ele>432.4</ele><time>2026-03-29T08:49:48.001Z</time></trkpt><trkpt lat="45.99692935811563" lon="12.445406315022867"><ele>431.6</ele><time>2026-03-29T08:49:49.001Z</time></trkpt><trkpt lat="45.99684544167775" lon="12.445494188943586"><ele>430.8</ele><time>2026-03-29T08:49:50.001Z</time></trkpt><trkpt lat="45.996761334665784" lon="12.445577063371323"><ele>430.0</ele><time>2026-03-29T08:49:51.001Z</time></trkpt><trkpt lat="45.99667509167396" lon="12.445649609461958"><ele>426.4</ele><time>2026-03-29T08:49:52.001Z</time></trkpt><trkpt lat="45.99658735241713" lon="12.445724782145433"><ele>422.8</ele><time>2026-03-29T08:49:53.001Z</time></trkpt><trkpt lat="45.99649974512263" lon="12.445799903029714"><ele>419.20000000000005</ele><time>2026-03-29T08:49:54.001Z</time></trkpt><trkpt lat="45.996409120677065" lon="12.445869260762507"><ele>415.6</ele><time>2026-03-29T08:49:55.001Z</time></trkpt><trkpt lat="45.996315373390225" lon="12.445934546880572"><ele>412.0</ele><time>2026-03-29T08:49:56.001Z</time></trkpt><trkpt lat="45.99622007533134" lon="12.445981019731057"><ele>412.0</ele><time>2026-03-29T08:49:57.001Z</time></trkpt><trkpt lat="45.996123884327474" lon="12.446021272247439"><ele>412.0</ele><time>2026-03-29T08:49:58.001Z</time></trkpt><trkpt lat="45.99602905351914" lon="12.446063251130957"><ele>412.0</ele><time>2026-03-29T08:49:59.001Z</time></trkpt><trkpt lat="45.99593461440962" lon="12.446107375992495"><ele>412.0</ele><time>2026-03-29T08:50:00.001Z</time></trkpt><trkpt lat="45.9958409994134" lon="12.446149775320244"><ele>412.0</ele><time>2026-03-29T08:50:01.001Z</time></trkpt><trkpt lat="45.99574618314131" lon="12.446163202650707"><ele>411.20000000000005</ele><time>2026-03-29T08:50:02.001Z</time></trkpt><trkpt lat="45.995650444963516" lon="12.446147648135197"><ele>410.4</ele><time>2026-03-29T08:50:03.001Z</time></trkpt><trkpt lat="45.995549692402506" lon="12.446108512387971"><ele>409.6</ele><time>2026-03-29T08:50:04.001Z</time></trkpt><trkpt lat="45.99543842519565" lon="12.446034585681947"><ele>408.79999999999995</ele><time>2026-03-29T08:50:05.001Z</time></trkpt><trkpt lat="45.995324702082335" lon="12.445967197007109"><ele>408.0</ele><time>2026-03-29T08:50:06.001Z</time></trkpt><trkpt lat="45.995218265950626" lon="12.445910920365225"><ele>408.0</ele><time>2026-03-29T08:50:07.001Z</time></trkpt><trkpt lat="45.995123636960564" lon="12.44586126077931"><ele>408.0</ele><time>2026-03-29T08:50:08.001Z</time></trkpt><trkpt lat="45.995041034675815" lon="12.445802862551526"><ele>408.0</ele><time>2026-03-29T08:50:09.001Z</time></trkpt><trkpt lat="45.99497225105835" lon="12.44572225109727"><ele>408.0</ele><time>2026-03-29T08:50:10.001Z</time></trkpt><trkpt lat="45.994927068403804" lon="12.445615439707689"><ele>408.0</ele><time>2026-03-29T08:50:11.001Z</time></trkpt><trkpt lat="45.99487570670631" lon="12.445530104673127"><ele>408.0</ele><time>2026-03-29T08:50:12.001Z</time></trkpt><trkpt lat="45.994796591206075" lon="12.445483493168144"><ele>407.8333333333333</ele><time>2026-03-29T08:50:13.001Z</time></trkpt><trkpt lat="45.99470684050295" lon="12.445469640062516"><ele>407.66666666666663</ele><time>2026-03-29T08:50:14.001Z</time></trkpt><trkpt lat="45.994622636673284" lon="12.445448568992772"><ele>407.5</ele><time>2026-03-29T08:50:15.001Z</time></trkpt><trkpt lat="45.994557476517755" lon="12.445383148121666"><ele>407.3333333333333</ele><time>2026-03-29T08:50:16.001Z</time></trkpt><trkpt lat="45.99450913909078" lon="12.445269301369919"><ele>407.16666666666663</ele><time>2026-03-29T08:50:17.001Z</time></trkpt><trkpt lat="45.994454555626405" lon="12.445149739931267"><ele>407.0</ele><time>2026-03-29T08:50:18.001Z</time></trkpt><trkpt lat="45.99437010052336" lon="12.44505346334747"><ele>407.0</ele><time>2026-03-29T08:50:19.001Z</time></trkpt><trkpt lat="45.99426766642498" lon="12.444987617370892"><ele>407.0</ele><time>2026-03-29T08:50:20.001Z</time></trkpt><trkpt lat="45.99416191780024" lon="12.444948503989261"><ele>407.0</ele><time>2026-03-29T08:50:21.001Z</time></trkpt><trkpt lat="45.994053968419074" lon="12.44493032621967"><ele>407.0</ele><time>2026-03-29T08:50:22.001Z</time></trkpt><trkpt lat="45.99395311991138" lon="12.444916887497103"><ele>407.0</ele><time>2026-03-29T08:50:23.001Z</time></trkpt><trkpt lat="45.99385890457773" lon="12.44487566715593"><ele>403.6</ele><time>2026-03-29T08:50:24.001Z</time></trkpt><trkpt lat="45.993772531073255" lon="12.44480965674304"><ele>400.20000000000005</ele><time>2026-03-29T08:50:25.001Z</time></trkpt><trkpt lat="45.9937090304156" lon="12.44475176278721"><ele>396.8</ele><time>2026-03-29T08:50:26.001Z</time></trkpt><trkpt lat="45.993615858140245" lon="12.44478337102112"><ele>393.4</ele><time>2026-03-29T08:50:28.001Z</time></trkpt><trkpt lat="45.993593385719066" lon="12.444916639162402"><ele>390.0</ele><time>2026-03-29T08:50:30.001Z</time></trkpt><trkpt lat="45.99369085476877" lon="12.445031418257484"><ele>390.0</ele><time>2026-03-29T08:50:32.001Z</time></trkpt><trkpt lat="45.993765535205306" lon="12.445061005139113"><ele>390.0</ele><time>2026-03-29T08:50:33.001Z</time></trkpt><trkpt lat="45.99384674829477" lon="12.445075465532954"><ele>390.0</ele><time>2026-03-29T08:50:34.001Z</time></trkpt><trkpt lat="45.99393055839899" lon="12.445108162956192"><ele>390.0</ele><time>2026-03-29T08:50:35.001Z</time></trkpt><trkpt lat="45.99400807850115" lon="12.445155661320022"><ele>390.0</ele><time>2026-03-29T08:50:36.001Z</time></trkpt><trkpt lat="45.99406796436257" lon="12.445217537215822"><ele>390.0</ele><time>2026-03-29T08:50:37.001Z</time></trkpt><trkpt lat="45.99410494497396" lon="12.445304344579064"><ele>390.0</ele><time>2026-03-29T08:50:38.001Z</time></trkpt><trkpt lat="45.994114873030455" lon="12.445396954606407"><ele>390.0</ele><time>2026-03-29T08:50:39.001Z</time></trkpt><trkpt lat="45.994099553087786" lon="12.445501832345608"><ele>390.0</ele><time>2026-03-29T08:50:40.001Z</time></trkpt><trkpt lat="45.99407804318762" lon="12.44561139461038"><ele>390.0</ele><time>2026-03-29T08:50:41.001Z</time></trkpt><trkpt lat="45.99407047357496" lon="12.445716336563478"><ele>390.0</ele><time>2026-03-29T08:50:42.001Z</time></trkpt><trkpt lat="45.99409063775486" lon="12.445804875138974"><ele>390.0</ele><time>2026-03-29T08:50:43.001Z</time></trkpt><trkpt lat="45.994144091093105" lon="12.445867044646217"><ele>390.0</ele><time>2026-03-29T08:50:44.001Z</time></trkpt><trkpt lat="45.99422436087042" lon="12.445903761684683"><ele>390.4</ele><time>2026-03-29T08:50:45.001Z</time></trkpt><trkpt lat="45.99431782643506" lon="12.445926757528317"><ele>390.8</ele><time>2026-03-29T08:50:46.001Z</time></trkpt><trkpt lat="45.99441131714079" lon="12.44596307612072"><ele>391.20000000000005</ele><time>2026-03-29T08:50:47.001Z</time></trkpt><trkpt lat="45.99448404545986" lon="12.446037646529735"><ele>391.6</ele><time>2026-03-29T08:50:48.001Z</time></trkpt><trkpt lat="45.99453536034242" lon="12.446145637762486"><ele>392.0</ele><time>2026-03-29T08:50:49.001Z</time></trkpt><trkpt lat="45.99457760802061" lon="12.446272256299174"><ele>388.5</ele><time>2026-03-29T08:50:50.001Z</time></trkpt><trkpt lat="45.99461695024178" lon="12.446417711824317"><ele>385.0</ele><time>2026-03-29T08:50:51.001Z</time></trkpt><trkpt lat="45.99466343145779" lon="12.44657136034443"><ele>381.5</ele><time>2026-03-29T08:50:52.001Z</time></trkpt><trkpt lat="45.994709960740266" lon="12.446721431132943"><ele>378.0</ele><time>2026-03-29T08:50:53.001Z</time></trkpt><trkpt lat="45.99475430011983" lon="12.446870833053147"><ele>378.0</ele><time>2026-03-29T08:50:54.001Z</time></trkpt><trkpt lat="45.99478265536863" lon="12.447017538982973"><ele>378.0</ele><time>2026-03-29T08:50:55.001Z</time></trkpt><trkpt lat="45.99479334476759" lon="12.447149769323035"><ele>378.0</ele><time>2026-03-29T08:50:56.001Z</time></trkpt><trkpt lat="45.99478911497467" lon="12.447270400764692"><ele>378.0</ele><time>2026-03-29T08:50:57.001Z</time></trkpt><trkpt lat="45.9947746184942" lon="12.44737646882446"><ele>378.0</ele><time>2026-03-29T08:50:58.001Z</time></trkpt><trkpt lat="45.994768894021846" lon="12.447468060071245"><ele>378.0</ele><time>2026-03-29T08:50:59.001Z</time></trkpt><trkpt lat="45.994835305381315" lon="12.44758872792828"><ele>377.3333333333333</ele><time>2026-03-29T08:51:01Z</time></trkpt><trkpt lat="45.99490459410781" lon="12.447608786909242"><ele>376.6666666666667</ele><time>2026-03-29T08:51:02Z</time></trkpt><trkpt lat="45.99498062133788" lon="12.447596602357226"><ele>376.0</ele><time>2026-03-29T08:51:03Z</time></trkpt><trkpt lat="45.99506700831215" lon="12.447597807546096"><ele>375.33333333333337</ele><time>2026-03-29T08:51:04Z</time></trkpt><trkpt lat="45.99515244060462" lon="12.44764855908312"><ele>374.6666666666667</ele><time>2026-03-29T08:51:05Z</time></trkpt><trkpt lat="45.99521490867467" lon="12.447740666385375"><ele>374.0</ele><time>2026-03-29T08:51:06Z</time></trkpt><trkpt lat="45.995270981646364" lon="12.447863085123085"><ele>370.79999999999995</ele><time>2026-03-29T08:51:07Z</time></trkpt><trkpt lat="45.99532453524965" lon="12.447999577291318"><ele>367.59999999999997</ele><time>2026-03-29T08:51:08Z</time></trkpt><trkpt lat="45.995393439446204" lon="12.44813160882086"><ele>364.4</ele><time>2026-03-29T08:51:09Z</time></trkpt><trkpt lat="45.995460469868945" lon="12.448257856488732"><ele>361.2</ele><time>2026-03-29T08:51:10Z</time></trkpt><trkpt lat="45.99550040931019" lon="12.448400627072767"><ele>358.0</ele><time>2026-03-29T08:51:11Z</time></trkpt><trkpt lat="45.99552600016778" lon="12.448550975180492"><ele>358.0</ele><time>2026-03-29T08:51:12Z</time></trkpt><trkpt lat="45.99555076544039" lon="12.44869867738665"><ele>358.0</ele><time>2026-03-29T08:51:13Z</time></trkpt><trkpt lat="45.9955798887868" lon="12.448836261645585"><ele>358.0</ele><time>2026-03-29T08:51:14Z</time></trkpt><trkpt lat="45.995629632256694" lon="12.448953839037955"><ele>358.0</ele><time>2026-03-29T08:51:15Z</time></trkpt><trkpt lat="45.99570014049809" lon="12.449057800493167"><ele>358.0</ele><time>2026-03-29T08:51:16Z</time></trkpt><trkpt lat="45.99577911146459" lon="12.449139733403664"><ele>357.00000000000006</ele><time>2026-03-29T08:51:17Z</time></trkpt><trkpt lat="45.99584475690524" lon="12.449215104759617"><ele>356.0</ele><time>2026-03-29T08:51:18Z</time></trkpt><trkpt lat="45.99587872930599" lon="12.449316408185865"><ele>355.0</ele><time>2026-03-29T08:51:19Z</time></trkpt><trkpt lat="45.99588366985742" lon="12.449421760671232"><ele>354.0</ele><time>2026-03-29T08:51:20Z</time></trkpt><trkpt lat="45.995858617022925" lon="12.449509203679897"><ele>353.0</ele><time>2026-03-29T08:51:21Z</time></trkpt><trkpt lat="45.995808595403176" lon="12.449573262676433"><ele>352.00000000000006</ele><time>2026-03-29T08:51:22Z</time></trkpt><trkpt lat="45.99573827390297" lon="12.449592735364371"><ele>351.0</ele><time>2026-03-29T08:51:23Z</time></trkpt><trkpt lat="45.99566688204663" lon="12.449572223452387"><ele>349.4</ele><time>2026-03-29T08:51:24Z</time></trkpt><trkpt lat="45.99560436161692" lon="12.4494996283422"><ele>347.8</ele><time>2026-03-29T08:51:25Z</time></trkpt><trkpt lat="45.99555525804426" lon="12.44939010720768"><ele>346.2</ele><time>2026-03-29T08:51:26Z</time></trkpt><trkpt lat="45.99550761165736" lon="12.449264178333557"><ele>344.59999999999997</ele><time>2026-03-29T08:51:27Z</time></trkpt><trkpt lat="45.99544062725647" lon="12.449134073689018"><ele>343.0</ele><time>2026-03-29T08:51:28Z</time></trkpt><trkpt lat="45.99535348264881" lon="12.449009779530217"><ele>343.0</ele><time>2026-03-29T08:51:29Z</time></trkpt><trkpt lat="45.99525063603165" lon="12.448893132850307"><ele>343.0</ele><time>2026-03-29T08:51:30Z</time></trkpt><trkpt lat="45.99513981172682" lon="12.448794874547474"><ele>343.0</ele><time>2026-03-29T08:51:31Z</time></trkpt><trkpt lat="45.99502094541554" lon="12.448714006863828"><ele>343.0</ele><time>2026-03-29T08:51:32Z</time></trkpt><trkpt lat="45.99490055649234" lon="12.448645557174993"><ele>342.5</ele><time>2026-03-29T08:51:33Z</time></trkpt><trkpt lat="45.994780969424205" lon="12.448591031042238"><ele>342.0</ele><time>2026-03-29T08:51:34Z</time></trkpt><trkpt lat="45.99466121144268" lon="12.448547115250454"><ele>341.5</ele><time>2026-03-29T08:51:35Z</time></trkpt><trkpt lat="45.99454935653414" lon="12.44851086221747"><ele>341.0</ele><time>2026-03-29T08:51:36Z</time></trkpt><trkpt lat="45.994450913294635" lon="12.44848503689009"><ele>341.0</ele><time>2026-03-29T08:51:37Z</time></trkpt><trkpt lat="45.99436222739893" lon="12.448461598323922"><ele>341.0</ele><time>2026-03-29T08:51:38Z</time></trkpt><trkpt lat="45.99428772926593" lon="12.4483989271547"><ele>341.0</ele><time>2026-03-29T08:51:39Z</time></trkpt><trkpt lat="45.9942372826075" lon="12.448301716163272"><ele>341.0</ele><time>2026-03-29T08:51:40Z</time></trkpt><trkpt lat="45.99419434923426" lon="12.448210659510272"><ele>341.0</ele><time>2026-03-29T08:51:41Z</time></trkpt><trkpt lat="45.994131337950755" lon="12.448157506949668"><ele>341.0</ele><time>2026-03-29T08:51:42Z</time></trkpt><trkpt lat="45.994059563153805" lon="12.44814339106078"><ele>337.4</ele><time>2026-03-29T08:51:43Z</time></trkpt><trkpt lat="45.993991213665204" lon="12.44817113550062"><ele>333.8</ele><time>2026-03-29T08:51:44Z</time></trkpt><trkpt lat="45.993918793807566" lon="12.448236639963593"><ele>330.2</ele><time>2026-03-29T08:51:45Z</time></trkpt><trkpt lat="45.99383735611319" lon="12.448322041237345"><ele>326.59999999999997</ele><time>2026-03-29T08:51:46Z</time></trkpt><trkpt lat="45.99373911882867" lon="12.448399273852901"><ele>323.0</ele><time>2026-03-29T08:51:47Z</time></trkpt><trkpt lat="45.993636710942816" lon="12.448466207852205"><ele>323.0</ele><time>2026-03-29T08:51:48Z</time></trkpt><trkpt lat="45.993539442660015" lon="12.44852596888731"><ele>323.0</ele><time>2026-03-29T08:51:49Z</time></trkpt><trkpt lat="45.993445781698036" lon="12.448576563238564"><ele>323.0</ele><time>2026-03-29T08:51:50Z</time></trkpt><trkpt lat="45.993360066272196" lon="12.448622861730565"><ele>323.0</ele><time>2026-03-29T08:51:51Z</time></trkpt><trkpt lat="45.99327217088568" lon="12.44863677121714"><ele>323.0</ele><time>2026-03-29T08:51:52Z</time></trkpt><trkpt lat="45.993176335583556" lon="12.448604553897452"><ele>321.4</ele><time>2026-03-29T08:51:53Z</time></trkpt><trkpt lat="45.99307247991911" lon="12.448546139272342"><ele>319.79999999999995</ele><time>2026-03-29T08:51:54Z</time></trkpt><trkpt lat="45.9929744365369" lon="12.448489043496146"><ele>318.2</ele><time>2026-03-29T08:51:55Z</time></trkpt><trkpt lat="45.99287617862773" lon="12.448453393571333"><ele>316.6</ele><time>2026-03-29T08:51:56Z</time></trkpt><trkpt lat="45.99277873221702" lon="12.44844464111794"><ele>315.0</ele><time>2026-03-29T08:51:57Z</time></trkpt><trkpt lat="45.992683362268814" lon="12.448456781592538"><ele>315.0</ele><time>2026-03-29T08:51:58Z</time></trkpt><trkpt lat="45.992591266421805" lon="12.448482008381335"><ele>315.0</ele><time>2026-03-29T08:51:59Z</time></trkpt><trkpt lat="45.99250305797921" lon="12.44852318449969"><ele>315.0</ele><time>2026-03-29T08:52:00Z</time></trkpt><trkpt lat="45.99242412570079" lon="12.44858338788624"><ele>315.0</ele><time>2026-03-29T08:52:01Z</time></trkpt><trkpt lat="45.99235568850626" lon="12.4486612574716"><ele>315.0</ele><time>2026-03-29T08:52:02.001Z</time></trkpt><trkpt lat="45.99229495770927" lon="12.44871875546549"><ele>315.0</ele><time>2026-03-29T08:52:03.001Z</time></trkpt><trkpt lat="45.9922291817992" lon="12.448726187162462"><ele>313.7142857142857</ele><time>2026-03-29T08:52:04.001Z</time></trkpt><trkpt lat="45.992157747473165" lon="12.448697540057157"><ele>312.42857142857144</ele><time>2026-03-29T08:52:05.001Z</time></trkpt><trkpt lat="45.992105005949156" lon="12.448628826308237"><ele>311.1428571428571</ele><time>2026-03-29T08:52:06.001Z</time></trkpt><trkpt lat="45.99206522017112" lon="12.448531763446558"><ele>309.8571428571429</ele><time>2026-03-29T08:52:07.001Z</time></trkpt><trkpt lat="45.99202818897015" lon="12.44844407415265"><ele>308.57142857142856</ele><time>2026-03-29T08:52:08.001Z</time></trkpt><trkpt lat="45.99196765584487" lon="12.448405973750495"><ele>307.2857142857143</ele><time>2026-03-29T08:52:09.001Z</time></trkpt><trkpt lat="45.991896137625346" lon="12.448420374504796"><ele>306.0</ele><time>2026-03-29T08:52:10.001Z</time></trkpt><trkpt lat="45.99183546666744" lon="12.44846881513461"><ele>306.0</ele><time>2026-03-29T08:52:11.001Z</time></trkpt><trkpt lat="45.99180321202328" lon="12.44854855884831"><ele>306.0</ele><time>2026-03-29T08:52:12.001Z</time></trkpt><trkpt lat="45.99180682927073" lon="12.448650166250054"><ele>306.0</ele><time>2026-03-29T08:52:13.001Z</time></trkpt><trkpt lat="45.99184581454122" lon="12.44874811278479"><ele>306.0</ele><time>2026-03-29T08:52:14.001Z</time></trkpt><trkpt lat="45.99192070953485" lon="12.44883470258906"><ele>306.0</ele><time>2026-03-29T08:52:15.001Z</time></trkpt><trkpt lat="45.992019163857826" lon="12.448914627599377"><ele>306.0</ele><time>2026-03-29T08:52:16.001Z</time></trkpt><trkpt lat="45.99211742680224" lon="12.448995100388796"><ele>303.6</ele><time>2026-03-29T08:52:17.001Z</time></trkpt><trkpt lat="45.992213790085124" lon="12.449057703245364"><ele>301.20000000000005</ele><time>2026-03-29T08:52:18.001Z</time></trkpt><trkpt lat="45.992312507414546" lon="12.449085090399189"><ele>298.79999999999995</ele><time>2026-03-29T08:52:19.001Z</time></trkpt><trkpt lat="45.99241130608184" lon="12.449068958870019"><ele>296.4</ele><time>2026-03-29T08:52:20.001Z</time></trkpt><trkpt lat="45.992501502624776" lon="12.44901426777782"><ele>294.0</ele><time>2026-03-29T08:52:21.001Z</time></trkpt><trkpt lat="45.992588086116484" lon="12.448984509391385"><ele>294.0</ele><time>2026-03-29T08:52:22.001Z</time></trkpt><trkpt lat="45.99266764045616" lon="12.449020127123042"><ele>294.0</ele><time>2026-03-29T08:52:23.001Z</time></trkpt><trkpt lat="45.99273431470814" lon="12.44909533105635"><ele>294.0</ele><time>2026-03-29T08:52:24.001Z</time></trkpt><trkpt lat="45.992767747844255" lon="12.449205809049321"><ele>294.0</ele><time>2026-03-29T08:52:25.001Z</time></trkpt><trkpt lat="45.99278923471761" lon="12.449332167736545"><ele>294.0</ele><time>2026-03-29T08:52:26.001Z</time></trkpt><trkpt lat="45.9928449292152" lon="12.449433781556788"><ele>294.0</ele><time>2026-03-29T08:52:27.001Z</time></trkpt><trkpt lat="45.99292824222474" lon="12.44949456679838"><ele>294.0</ele><time>2026-03-29T08:52:28.001Z</time></trkpt><trkpt lat="45.993030922378715" lon="12.449528196945916"><ele>294.0</ele><time>2026-03-29T08:52:29.001Z</time></trkpt><trkpt lat="45.993128773346804" lon="12.449531825638088"><ele>294.0</ele><time>2026-03-29T08:52:30.001Z</time></trkpt><trkpt lat="45.993202009696894" lon="12.44953678007685"><ele>294.0</ele><time>2026-03-29T08:52:31.001Z</time></trkpt><trkpt lat="45.99325171929882" lon="12.449635629649915"><ele>294.0</ele><time>2026-03-29T08:52:33.001Z</time></trkpt><trkpt lat="45.99317682682635" lon="12.449746869189166"><ele>294.0</ele><time>2026-03-29T08:52:35.001Z</time></trkpt><trkpt lat="45.993080256482166" lon="12.449735213618506"><ele>294.0</ele><time>2026-03-29T08:52:36.001Z</time></trkpt><trkpt lat="45.99297185982288" lon="12.449690858078185"><ele>294.0</ele><time>2026-03-29T08:52:37.001Z</time></trkpt><trkpt lat="45.99285408986276" lon="12.449645668938974"><ele>294.0</ele><time>2026-03-29T08:52:38.001Z</time></trkpt><trkpt lat="45.99274838831138" lon="12.44959613973248"><ele>294.0</ele><time>2026-03-29T08:52:39.001Z</time></trkpt><trkpt lat="45.99265298976585" lon="12.44953648057867"><ele>294.0</ele><time>2026-03-29T08:52:40.001Z</time></trkpt><trkpt lat="45.99258219046723" lon="12.449468872394208"><ele>294.0</ele><time>2026-03-29T08:52:41.001Z</time></trkpt><trkpt lat="45.99251685597296" lon="12.449438674851256"><ele>294.0</ele><time>2026-03-29T08:52:42.001Z</time></trkpt><trkpt lat="45.99244158169502" lon="12.449460080122691"><ele>294.0</ele><time>2026-03-29T08:52:43.001Z</time></trkpt><trkpt lat="45.992359577542594" lon="12.449522777704662"><ele>294.0</ele><time>2026-03-29T08:52:44.001Z</time></trkpt><trkpt lat="45.99227601461662" lon="12.449591637701321"><ele>294.0</ele><time>2026-03-29T08:52:45.001Z</time></trkpt><trkpt lat="45.992189688707924" lon="12.449653193305666"><ele>288.0</ele><time>2026-03-29T08:52:46.001Z</time></trkpt><trkpt lat="45.99209572210063" lon="12.449704823444216"><ele>282.0</ele><time>2026-03-29T08:52:47.001Z</time></trkpt><trkpt lat="45.99199563085955" lon="12.44973140323425"><ele>276.0</ele><time>2026-03-29T08:52:48.001Z</time></trkpt><trkpt lat="45.99189524901229" lon="12.449731379156939"><ele>270.0</ele><time>2026-03-29T08:52:49.001Z</time></trkpt><trkpt lat="45.991796624656125" lon="12.449725035775648"><ele>264.0</ele><time>2026-03-29T08:52:50.001Z</time></trkpt><trkpt lat="45.99169994901295" lon="12.4497080091811"><ele>262.0</ele><time>2026-03-29T08:52:51.001Z</time></trkpt><trkpt lat="45.99160563928381" lon="12.449688175658087"><ele>260.0</ele><time>2026-03-29T08:52:52.001Z</time></trkpt><trkpt lat="45.991511537318964" lon="12.449674282211674"><ele>258.0</ele><time>2026-03-29T08:52:53.001Z</time></trkpt><trkpt lat="45.991415937658246" lon="12.449660539076794"><ele>256.0</ele><time>2026-03-29T08:52:54.001Z</time></trkpt><trkpt lat="45.991323038528556" lon="12.449636351704653"><ele>254.0</ele><time>2026-03-29T08:52:55.001Z</time></trkpt><trkpt lat="45.9912334707196" lon="12.449593106299087"><ele>258.5</ele><time>2026-03-29T08:52:56.001Z</time></trkpt><trkpt lat="45.99115283345714" lon="12.449534141400761"><ele>263.0</ele><time>2026-03-29T08:52:57.001Z</time></trkpt><trkpt lat="45.99108460857072" lon="12.44945660407866"><ele>267.5</ele><time>2026-03-29T08:52:58.001Z</time></trkpt><trkpt lat="45.99103292851732" lon="12.44935618218535"><ele>272.0</ele><time>2026-03-29T08:52:59.001Z</time></trkpt><trkpt lat="45.99099724438162" lon="12.44924305468828"><ele>276.5</ele><time>2026-03-29T08:53:00.001Z</time></trkpt><trkpt lat="45.99096360347883" lon="12.449143698545491"><ele>281.0</ele><time>2026-03-29T08:53:01.001Z</time></trkpt><trkpt lat="45.99091269791259" lon="12.449073993583305"><ele>281.0</ele><time>2026-03-29T08:53:02.001Z</time></trkpt><trkpt lat="45.99080070026458" lon="12.449093390949193"><ele>281.0</ele><time>2026-03-29T08:53:04.001Z</time></trkpt><trkpt lat="45.990781177680745" lon="12.449265290170882"><ele>281.0</ele><time>2026-03-29T08:53:06.001Z</time></trkpt><trkpt lat="45.990835076137614" lon="12.449372063289486"><ele>281.0</ele><time>2026-03-29T08:53:07Z</time></trkpt><trkpt lat="45.99091209346275" lon="12.44948085144811"><ele>281.0</ele><time>2026-03-29T08:53:08Z</time></trkpt><trkpt lat="45.99098936812177" lon="12.449616402477579"><ele>274.25</ele><time>2026-03-29T08:53:09Z</time></trkpt><trkpt lat="45.99107092601655" lon="12.449757624596824"><ele>267.5</ele><time>2026-03-29T08:53:10Z</time></trkpt><trkpt lat="45.99116199227265" lon="12.449873818138343"><ele>260.75</ele><time>2026-03-29T08:53:11Z</time></trkpt><trkpt lat="45.99126852189353" lon="12.449959358313194"><ele>254.0</ele><time>2026-03-29T08:53:12Z</time></trkpt><trkpt lat="45.991377182279955" lon="12.450024590600666"><ele>254.0</ele><time>2026-03-29T08:53:13Z</time></trkpt><trkpt lat="45.99148155343845" lon="12.450091943032044"><ele>253.99999999999997</ele><time>2026-03-29T08:53:14Z</time></trkpt><trkpt lat="45.99157845339957" lon="12.45017006940237"><ele>253.99999999999997</ele><time>2026-03-29T08:53:15Z</time></trkpt><trkpt lat="45.9916717183037" lon="12.450250899783462"><ele>254.0</ele><time>2026-03-29T08:53:16Z</time></trkpt><trkpt lat="45.99175865312277" lon="12.450339218032694"><ele>254.0</ele><time>2026-03-29T08:53:17Z</time></trkpt><trkpt lat="45.991836949831445" lon="12.450435383153525"><ele>252.16666666666669</ele><time>2026-03-29T08:53:18Z</time></trkpt><trkpt lat="45.99189301167469" lon="12.450539025845316"><ele>250.33333333333334</ele><time>2026-03-29T08:53:19Z</time></trkpt><trkpt lat="45.99192337762954" lon="12.450649428130552"><ele>248.5</ele><time>2026-03-29T08:53:20Z</time></trkpt><trkpt lat="45.991928929146006" lon="12.450757415666615"><ele>246.66666666666669</ele><time>2026-03-29T08:53:21Z</time></trkpt><trkpt lat="45.99190623037188" lon="12.45085902449405"><ele>244.83333333333334</ele><time>2026-03-29T08:53:22Z</time></trkpt><trkpt lat="45.99185714579313" lon="12.450942669556055"><ele>243.0</ele><time>2026-03-29T08:53:23Z</time></trkpt><trkpt lat="45.99178922232245" lon="12.451004679596107"><ele>243.0</ele><time>2026-03-29T08:53:24Z</time></trkpt><trkpt lat="45.991701143425026" lon="12.451064126719922"><ele>243.0</ele><time>2026-03-29T08:53:25Z</time></trkpt><trkpt lat="45.99160214893521" lon="12.451127119947431"><ele>243.0</ele><time>2026-03-29T08:53:26Z</time></trkpt><trkpt lat="45.99149765073079" lon="12.451195357458971"><ele>243.0</ele><time>2026-03-29T08:53:27Z</time></trkpt><trkpt lat="45.99139646338412" lon="12.451255321287553"><ele>243.0</ele><time>2026-03-29T08:53:28Z</time></trkpt><trkpt lat="45.99129685076931" lon="12.45131014669346"><ele>242.2</ele><time>2026-03-29T08:53:29Z</time></trkpt><trkpt lat="45.99120446770577" lon="12.451371909787865"><ele>241.4</ele><time>2026-03-29T08:53:30Z</time></trkpt><trkpt lat="45.99112700212205" lon="12.451443646480083"><ele>240.59999999999997</ele><time>2026-03-29T08:53:31Z</time></trkpt><trkpt lat="45.99106949820037" lon="12.451537656462458"><ele>239.79999999999998</ele><time>2026-03-29T08:53:32Z</time></trkpt><trkpt lat="45.991031438721684" lon="12.451661935077329"><ele>239.0</ele><time>2026-03-29T08:53:33Z</time></trkpt><trkpt lat="45.99101516599905" lon="12.451806527764072"><ele>239.0</ele><time>2026-03-29T08:53:34Z</time></trkpt><trkpt lat="45.99100360513394" lon="12.451965521754571"><ele>238.99999999999997</ele><time>2026-03-29T08:53:35Z</time></trkpt><trkpt lat="45.99098299090351" lon="12.452120534396366"><ele>238.99999999999997</ele><time>2026-03-29T08:53:36Z</time></trkpt><trkpt lat="45.990956281741944" lon="12.452257471648611"><ele>239.0</ele><time>2026-03-29T08:53:37Z</time></trkpt><trkpt lat="45.99091248474061" lon="12.452380803521773"><ele>239.0</ele><time>2026-03-29T08:53:38Z</time></trkpt><trkpt lat="45.99085538025581" lon="12.452480797069457"><ele>236.6</ele><time>2026-03-29T08:53:39Z</time></trkpt><trkpt lat="45.99078389392959" lon="12.452561047186293"><ele>234.2</ele><time>2026-03-29T08:53:40Z</time></trkpt><trkpt lat="45.990700556398245" lon="12.452621789778947"><ele>231.79999999999998</ele><time>2026-03-29T08:53:41Z</time></trkpt><trkpt lat="45.99060572595923" lon="12.452658366770635"><ele>229.39999999999998</ele><time>2026-03-29T08:53:42Z</time></trkpt><trkpt lat="45.99050603394806" lon="12.452684662787542"><ele>227.0</ele><time>2026-03-29T08:53:43Z</time></trkpt><trkpt lat="45.9904185008354" lon="12.45273061398894"><ele>227.00000000000003</ele><time>2026-03-29T08:53:44Z</time></trkpt><trkpt lat="45.990351138534585" lon="12.45281918891784"><ele>227.0</ele><time>2026-03-29T08:53:45Z</time></trkpt><trkpt lat="45.99030692259589" lon="12.452934705344354"><ele>227.0</ele><time>2026-03-29T08:53:46Z</time></trkpt><trkpt lat="45.99028449025229" lon="12.453060886743708"><ele>227.0</ele><time>2026-03-29T08:53:47Z</time></trkpt><trkpt lat="45.99026719544024" lon="12.453186162923744"><ele>227.00000000000003</ele><time>2026-03-29T08:53:48Z</time></trkpt><trkpt lat="45.99024695043771" lon="12.453305338068823"><ele>227.0</ele><time>2026-03-29T08:53:49Z</time></trkpt><trkpt lat="45.99021381746221" lon="12.453418475872372"><ele>228.00000000000003</ele><time>2026-03-29T08:53:50Z</time></trkpt><trkpt lat="45.99016166252706" lon="12.453514436867632"><ele>229.0</ele><time>2026-03-29T08:53:51Z</time></trkpt><trkpt lat="45.990097712886495" lon="12.453594217464163"><ele>230.0</ele><time>2026-03-29T08:53:52Z</time></trkpt><trkpt lat="45.99002015054457" lon="12.453646010043386"><ele>231.0</ele><time>2026-03-29T08:53:53Z</time></trkpt><trkpt lat="45.98994058192059" lon="12.453649877240297"><ele>232.00000000000003</ele><time>2026-03-29T08:53:54Z</time></trkpt><trkpt lat="45.989867806397974" lon="12.453605749618774"><ele>233.0</ele><time>2026-03-29T08:53:55Z</time></trkpt><trkpt lat="45.98980014332047" lon="12.453569450739806"><ele>230.00000000000003</ele><time>2026-03-29T08:53:56Z</time></trkpt><trkpt lat="45.98972898105108" lon="12.453591919590211"><ele>227.0</ele><time>2026-03-29T08:53:57Z</time></trkpt><trkpt lat="45.98967851605912" lon="12.453660255122996"><ele>224.0</ele><time>2026-03-29T08:53:58Z</time></trkpt><trkpt lat="45.989660771209905" lon="12.453755888587473"><ele>221.0</ele><time>2026-03-29T08:53:59Z</time></trkpt><trkpt lat="45.98967741343089" lon="12.453855637929504"><ele>218.00000000000003</ele><time>2026-03-29T08:54:00Z</time></trkpt><trkpt lat="45.98972560428869" lon="12.453961067133385"><ele>215.0</ele><time>2026-03-29T08:54:01Z</time></trkpt><trkpt lat="45.989790961520136" lon="12.454075570317032"><ele>214.6</ele><time>2026-03-29T08:54:02.001Z</time></trkpt><trkpt lat="45.989851814614525" lon="12.45419066350343"><ele>214.2</ele><time>2026-03-29T08:54:03.001Z</time></trkpt><trkpt lat="45.98988525999233" lon="12.454319640500804"><ele>213.8</ele><time>2026-03-29T08:54:04.001Z</time></trkpt><trkpt lat="45.989894138161276" lon="12.454457824079705"><ele>213.4</ele><time>2026-03-29T08:54:05.001Z</time></trkpt><trkpt lat="45.98990115408559" lon="12.454589729307116"><ele>213.0</ele><time>2026-03-29T08:54:06.001Z</time></trkpt><trkpt lat="45.989921118800595" lon="12.454719172391744"><ele>211.33333333333334</ele><time>2026-03-29T08:54:07.001Z</time></trkpt><trkpt lat="45.98994892158013" lon="12.454824079404977"><ele>209.66666666666669</ele><time>2026-03-29T08:54:08.001Z</time></trkpt><trkpt lat="45.989968449165076" lon="12.454939267298812"><ele>208.0</ele><time>2026-03-29T08:54:10.001Z</time></trkpt><trkpt lat="45.98989706591774" lon="12.454953261406642"><ele>206.33333333333334</ele><time>2026-03-29T08:54:13.001Z</time></trkpt><trkpt lat="45.989845933345734" lon="12.454887092938362"><ele>204.66666666666669</ele><time>2026-03-29T08:54:14.001Z</time></trkpt><trkpt lat="45.98981187289443" lon="12.454756868990602"><ele>203.0</ele><time>2026-03-29T08:54:15.001Z</time></trkpt><trkpt lat="45.989755031159795" lon="12.454675906451657"><ele>205.0</ele><time>2026-03-29T08:54:16.001Z</time></trkpt><trkpt lat="45.98967850202953" lon="12.454602930620434"><ele>207.0</ele><time>2026-03-29T08:54:17.001Z</time></trkpt><trkpt lat="45.98959188885925" lon="12.454529871389413"><ele>209.0</ele><time>2026-03-29T08:54:18.001Z</time></trkpt><trkpt lat="45.98950834738964" lon="12.454458395456497"><ele>211.0</ele><time>2026-03-29T08:54:19.001Z</time></trkpt><trkpt lat="45.989432954777705" lon="12.454371201182497"><ele>213.0</ele><time>2026-03-29T08:54:20.001Z</time></trkpt><trkpt lat="45.989363658519636" lon="12.454252373174928"><ele>213.0</ele><time>2026-03-29T08:54:21.001Z</time></trkpt><trkpt lat="45.989301935098084" lon="12.454112232186553"><ele>213.0</ele><time>2026-03-29T08:54:22.001Z</time></trkpt><trkpt lat="45.98923965524765" lon="12.453966936882328"><ele>213.0</ele><time>2026-03-29T08:54:23.001Z</time></trkpt><trkpt lat="45.98917345134907" lon="12.4538353774562"><ele>213.0</ele><time>2026-03-29T08:54:24.001Z</time></trkpt><trkpt lat="45.98909275897863" lon="12.453710931090333"><ele>210.4</ele><time>2026-03-29T08:54:25.001Z</time></trkpt><trkpt lat="45.98900766884799" lon="12.453589660856515"><ele>207.8</ele><time>2026-03-29T08:54:26.001Z</time></trkpt><trkpt lat="45.98892749474881" lon="12.453474983044156"><ele>205.2</ele><time>2026-03-29T08:54:27.001Z</time></trkpt><trkpt lat="45.98885068494187" lon="12.453363882692896"><ele>202.6</ele><time>2026-03-29T08:54:28.001Z</time></trkpt><trkpt lat="45.988780063328235" lon="12.45325029193706"><ele>200.0</ele><time>2026-03-29T08:54:29.001Z</time></trkpt><trkpt lat="45.98871503906251" lon="12.453136063003674"><ele>200.0</ele><time>2026-03-29T08:54:30.001Z</time></trkpt><trkpt lat="45.98865803813188" lon="12.453017497593722"><ele>200.0</ele><time>2026-03-29T08:54:31.001Z</time></trkpt><trkpt lat="45.988612597305426" lon="12.452890095670275"><ele>200.0</ele><time>2026-03-29T08:54:32.001Z</time></trkpt><trkpt lat="45.98857828535048" lon="12.452757420970201"><ele>200.0</ele><time>2026-03-29T08:54:33.001Z</time></trkpt><trkpt lat="45.98854977983899" lon="12.452624178070431"><ele>200.0</ele><time>2026-03-29T08:54:34.001Z</time></trkpt><trkpt lat="45.988514373962566" lon="12.452497602320214"><ele>199.8</ele><time>2026-03-29T08:54:35.001Z</time></trkpt><trkpt lat="45.98845710588064" lon="12.452390246816103"><ele>199.6</ele><time>2026-03-29T08:54:36.001Z</time></trkpt><trkpt lat="45.988375958700615" lon="12.452294003148657"><ele>199.39999999999998</ele><time>2026-03-29T08:54:37.001Z</time></trkpt><trkpt lat="45.98827962761237" lon="12.452206958509432"><ele>199.2</ele><time>2026-03-29T08:54:38.001Z</time></trkpt><trkpt lat="45.98816813491306" lon="12.452134552436174"><ele>199.0</ele><time>2026-03-29T08:54:39.001Z</time></trkpt><trkpt lat="45.98804517834944" lon="12.452079568414444"><ele>198.25</ele><time>2026-03-29T08:54:40.001Z</time></trkpt><trkpt lat="45.98792450310802" lon="12.452033807693196"><ele>197.5</ele><time>2026-03-29T08:54:41.001Z</time></trkpt><trkpt lat="45.9878087046063" lon="12.451983387930955"><ele>196.75</ele><time>2026-03-29T08:54:42.001Z</time></trkpt><trkpt lat="45.987697729714704" lon="12.45192643305118"><ele>196.0</ele><time>2026-03-29T08:54:43.001Z</time></trkpt><trkpt lat="45.98758701882334" lon="12.45187490317384"><ele>193.4</ele><time>2026-03-29T08:54:44.001Z</time></trkpt><trkpt lat="45.987495654731184" lon="12.451820524151946"><ele>190.8</ele><time>2026-03-29T08:54:45.001Z</time></trkpt><trkpt lat="45.98741723443212" lon="12.451740803024437"><ele>188.20000000000002</ele><time>2026-03-29T08:54:46.001Z</time></trkpt><trkpt lat="45.987348334815906" lon="12.451623541403197"><ele>185.60000000000002</ele><time>2026-03-29T08:54:47.001Z</time></trkpt><trkpt lat="45.98728258047618" lon="12.451486367973878"><ele>183.0</ele><time>2026-03-29T08:54:48.001Z</time></trkpt><trkpt lat="45.98721432772061" lon="12.451340701521294"><ele>183.0</ele><time>2026-03-29T08:54:49.001Z</time></trkpt><trkpt lat="45.987149660838504" lon="12.451203006830154"><ele>183.0</ele><time>2026-03-29T08:54:50.001Z</time></trkpt><trkpt lat="45.987093276604526" lon="12.451069416533784"><ele>183.0</ele><time>2026-03-29T08:54:51.001Z</time></trkpt><trkpt lat="45.987039883931885" lon="12.45094157039871"><ele>183.0</ele><time>2026-03-29T08:54:52.001Z</time></trkpt><trkpt lat="45.98698947604808" lon="12.45084090424809"><ele>183.0</ele><time>2026-03-29T08:54:53.001Z</time></trkpt><trkpt lat="45.98693731820679" lon="12.450763287335324"><ele>183.0</ele><time>2026-03-29T08:54:54.001Z</time></trkpt><trkpt lat="45.986880217433566" lon="12.45070615979618"><ele>183.0</ele><time>2026-03-29T08:54:55.001Z</time></trkpt><trkpt lat="45.98680972416194" lon="12.450674943627744"><ele>183.0</ele><time>2026-03-29T08:54:56.001Z</time></trkpt><trkpt lat="45.98673695266747" lon="12.450682294306072"><ele>183.0</ele><time>2026-03-29T08:54:57.001Z</time></trkpt><trkpt lat="45.98665908551703" lon="12.450733377050723"><ele>183.0</ele><time>2026-03-29T08:54:58.001Z</time></trkpt><trkpt lat="45.9865778177589" lon="12.450818044480398"><ele>183.0</ele><time>2026-03-29T08:54:59.001Z</time></trkpt><trkpt lat="45.98648068261618" lon="12.450907262241866"><ele>180.25</ele><time>2026-03-29T08:55:00.001Z</time></trkpt><trkpt lat="45.98636999522756" lon="12.450992519717902"><ele>177.5</ele><time>2026-03-29T08:55:01.001Z</time></trkpt><trkpt lat="45.98625963061981" lon="12.451067504077065"><ele>174.75</ele><time>2026-03-29T08:55:02.001Z</time></trkpt><trkpt lat="45.986143618754994" lon="12.451121657973733"><ele>172.0</ele><time>2026-03-29T08:55:03.001Z</time></trkpt><trkpt lat="45.98602219033441" lon="12.451144561375722"><ele>172.0</ele><time>2026-03-29T08:55:04.001Z</time></trkpt><trkpt lat="45.98590379621376" lon="12.45115779767856"><ele>172.0</ele><time>2026-03-29T08:55:05.001Z</time></trkpt><trkpt lat="45.98578640883626" lon="12.451173533438821"><ele>172.0</ele><time>2026-03-29T08:55:06.001Z</time></trkpt><trkpt lat="45.98566962446542" lon="12.45120236259435"><ele>172.0</ele><time>2026-03-29T08:55:07.001Z</time></trkpt><trkpt lat="45.98555630663902" lon="12.451245945201597"><ele>170.0</ele><time>2026-03-29T08:55:08.001Z</time></trkpt><trkpt lat="45.98544786582856" lon="12.451306644136023"><ele>168.0</ele><time>2026-03-29T08:55:09.001Z</time></trkpt><trkpt lat="45.98534832190645" lon="12.451386165329975"><ele>166.0</ele><time>2026-03-29T08:55:10.001Z</time></trkpt><trkpt lat="45.985259259528306" lon="12.451476927323375"><ele>164.0</ele><time>2026-03-29T08:55:11.001Z</time></trkpt><trkpt lat="45.98517978352577" lon="12.451568045917496"><ele>162.0</ele><time>2026-03-29T08:55:12.001Z</time></trkpt><trkpt lat="45.98510687362719" lon="12.451641779525119"><ele>162.0</ele><time>2026-03-29T08:55:13Z</time></trkpt><trkpt lat="45.98503336548269" lon="12.451682726137433"><ele>162.0</ele><time>2026-03-29T08:55:14Z</time></trkpt><trkpt lat="45.984962879336365" lon="12.45167578807708"><ele>162.0</ele><time>2026-03-29T08:55:15Z</time></trkpt><trkpt lat="45.984897457204035" lon="12.451634327190977"><ele>162.0</ele><time>2026-03-29T08:55:16Z</time></trkpt><trkpt lat="45.98484797414562" lon="12.451564304615198"><ele>162.0</ele><time>2026-03-29T08:55:17Z</time></trkpt><trkpt lat="45.98481350731409" lon="12.451475576900618"><ele>162.0</ele><time>2026-03-29T08:55:18Z</time></trkpt><trkpt lat="45.98480067042674" lon="12.45136905768223"><ele>162.0</ele><time>2026-03-29T08:55:19Z</time></trkpt><trkpt lat="45.98481498437466" lon="12.451240973701566"><ele>161.0</ele><time>2026-03-29T08:55:20Z</time></trkpt><trkpt lat="45.98485870534971" lon="12.4511158724924"><ele>160.0</ele><time>2026-03-29T08:55:21Z</time></trkpt><trkpt lat="45.98492752872049" lon="12.451014685410414"><ele>159.0</ele><time>2026-03-29T08:55:22Z</time></trkpt><trkpt lat="45.98501524425296" lon="12.450939778876212"><ele>158.0</ele><time>2026-03-29T08:55:23Z</time></trkpt><trkpt lat="45.98510475616323" lon="12.450872278713609"><ele>157.0</ele><time>2026-03-29T08:55:24Z</time></trkpt><trkpt lat="45.98517117495011" lon="12.45077290263745"><ele>157.0</ele><time>2026-03-29T08:55:25Z</time></trkpt><trkpt lat="45.985223472139" lon="12.450619119744077"><ele>157.0</ele><time>2026-03-29T08:55:26Z</time></trkpt><trkpt lat="45.98526782857081" lon="12.450432804567162"><ele>157.0</ele><time>2026-03-29T08:55:27Z</time></trkpt><trkpt lat="45.985313876613965" lon="12.450236518079555"><ele>157.0</ele><time>2026-03-29T08:55:28Z</time></trkpt><trkpt lat="45.98534992024505" lon="12.450045410578268"><ele>156.25</ele><time>2026-03-29T08:55:29Z</time></trkpt><trkpt lat="45.985380332268726" lon="12.449863070598873"><ele>155.5</ele><time>2026-03-29T08:55:30Z</time></trkpt><trkpt lat="45.985410579695404" lon="12.449690373041571"><ele>154.75</ele><time>2026-03-29T08:55:31Z</time></trkpt><trkpt lat="45.985441277367514" lon="12.449522167883506"><ele>154.0</ele><time>2026-03-29T08:55:32Z</time></trkpt><trkpt lat="45.985466257308744" lon="12.449385584843114"><ele>152.33333333333334</ele><time>2026-03-29T08:55:33Z</time></trkpt><trkpt lat="45.985481530040246" lon="12.449269114115747"><ele>150.66666666666669</ele><time>2026-03-29T08:55:34Z</time></trkpt><trkpt lat="45.98547380817723" lon="12.449154435456355"><ele>149.0</ele><time>2026-03-29T08:55:35Z</time></trkpt><trkpt lat="45.985444500172584" lon="12.449047100128125"><ele>147.33333333333334</ele><time>2026-03-29T08:55:36Z</time></trkpt><trkpt lat="45.98538841457853" lon="12.448962605298929"><ele>145.66666666666666</ele><time>2026-03-29T08:55:37Z</time></trkpt><trkpt lat="45.985314271731845" lon="12.448895242840464"><ele>144.0</ele><time>2026-03-29T08:55:38Z</time></trkpt><trkpt lat="45.9852235987153" lon="12.4488296483518"><ele>142.25</ele><time>2026-03-29T08:55:39Z</time></trkpt><trkpt lat="45.98512235198854" lon="12.448743612000056"><ele>140.5</ele><time>2026-03-29T08:55:40Z</time></trkpt><trkpt lat="45.98500851056773" lon="12.448640552779022"><ele>138.75</ele><time>2026-03-29T08:55:41Z</time></trkpt><trkpt lat="45.98488627246323" lon="12.448536945858377"><ele>137.0</ele><time>2026-03-29T08:55:42Z</time></trkpt><trkpt lat="45.98475542106429" lon="12.448420770947747"><ele>135.0</ele><time>2026-03-29T08:55:43Z</time></trkpt><trkpt lat="45.98461995009891" lon="12.448291491439447"><ele>133.0</ele><time>2026-03-29T08:55:44Z</time></trkpt><trkpt lat="45.98449207280396" lon="12.448160396088038"><ele>131.0</ele><time>2026-03-29T08:55:45Z</time></trkpt><trkpt lat="45.984372772188216" lon="12.448033162551276"><ele>130.25</ele><time>2026-03-29T08:55:46Z</time></trkpt><trkpt lat="45.98426451528336" lon="12.447920191212237"><ele>129.5</ele><time>2026-03-29T08:55:47Z</time></trkpt><trkpt lat="45.98415271812806" lon="12.447838096968068"><ele>128.75</ele><time>2026-03-29T08:55:48Z</time></trkpt><trkpt lat="45.98402147060498" lon="12.447787312569801"><ele>128.0</ele><time>2026-03-29T08:55:49Z</time></trkpt><trkpt lat="45.983874210808224" lon="12.447765243018539"><ele>128.0</ele><time>2026-03-29T08:55:50Z</time></trkpt><trkpt lat="45.983704910823846" lon="12.447754858315674"><ele>128.0</ele><time>2026-03-29T08:55:51Z</time></trkpt><trkpt lat="45.98352842119903" lon="12.447712809380192"><ele>128.0</ele><time>2026-03-29T08:55:52Z</time></trkpt><trkpt lat="45.983357897195354" lon="12.447632257404646"><ele>131.0</ele><time>2026-03-29T08:55:53Z</time></trkpt><trkpt lat="45.9831877017813" lon="12.44753083535165"><ele>134.0</ele><time>2026-03-29T08:55:54Z</time></trkpt><trkpt lat="45.9830141636262" lon="12.447386855400246"><ele>137.0</ele><time>2026-03-29T08:55:55Z</time></trkpt><trkpt lat="45.98283746893489" lon="12.447225892171357"><ele>137.0</ele><time>2026-03-29T08:55:56Z</time></trkpt><trkpt lat="45.98264418519456" lon="12.447073602992054"><ele>137.0</ele><time>2026-03-29T08:55:57Z</time></trkpt><trkpt lat="45.982440175931835" lon="12.44693877914293"><ele>137.0</ele><time>2026-03-29T08:55:58Z</time></trkpt><trkpt lat="45.98223238648535" lon="12.446804773241787"><ele>137.5</ele><time>2026-03-29T08:55:59Z</time></trkpt><trkpt lat="45.98202269975018" lon="12.446678730654982"><ele>138.0</ele><time>2026-03-29T08:56:00Z</time></trkpt><trkpt lat="45.981813944807165" lon="12.446563319279427"><ele>138.0</ele><time>2026-03-29T08:56:01Z</time></trkpt><trkpt lat="45.98161009239102" lon="12.446455128404848"><ele>138.0</ele><time>2026-03-29T08:56:02Z</time></trkpt><trkpt lat="45.981424272197344" lon="12.446363390044244"><ele>138.0</ele><time>2026-03-29T08:56:03Z</time></trkpt><trkpt lat="45.98125434816436" lon="12.446275231991606"><ele>138.0</ele><time>2026-03-29T08:56:04Z</time></trkpt><trkpt lat="45.98109209762" lon="12.446184300776025"><ele>138.0</ele><time>2026-03-29T08:56:05Z</time></trkpt><trkpt lat="45.98094263032856" lon="12.44610596945923"><ele>138.0</ele><time>2026-03-29T08:56:06Z</time></trkpt><trkpt lat="45.98081008142584" lon="12.44604217098653"><ele>136.4</ele><time>2026-03-29T08:56:07Z</time></trkpt><trkpt lat="45.980697877066824" lon="12.446004559834451"><ele>134.8</ele><time>2026-03-29T08:56:08Z</time></trkpt><trkpt lat="45.980593070742266" lon="12.445997995686923"><ele>133.2</ele><time>2026-03-29T08:56:09Z</time></trkpt><trkpt lat="45.98050682732294" lon="12.446027612103252"><ele>131.6</ele><time>2026-03-29T08:56:10Z</time></trkpt><trkpt lat="45.98044414493058" lon="12.44607756211492"><ele>130.0</ele><time>2026-03-29T08:56:11Z</time></trkpt><trkpt lat="45.980370055896415" lon="12.446209685854209"><ele>135.0</ele><time>2026-03-29T08:56:13Z</time></trkpt><trkpt lat="45.9803564254246" lon="12.446303509581524"><ele>140.0</ele><time>2026-03-29T08:56:14Z</time></trkpt><trkpt lat="45.980344517525786" lon="12.446413296987219"><ele>145.0</ele><time>2026-03-29T08:56:15Z</time></trkpt><trkpt lat="45.980316574600145" lon="12.446529566267454"><ele>150.0</ele><time>2026-03-29T08:56:16Z</time></trkpt><trkpt lat="45.980258243316975" lon="12.446633450445342"><ele>155.0</ele><time>2026-03-29T08:56:17Z</time></trkpt><trkpt lat="45.98018198609625" lon="12.446722956546227"><ele>160.0</ele><time>2026-03-29T08:56:18Z</time></trkpt><trkpt lat="45.98009230041371" lon="12.446804805318568"><ele>156.2</ele><time>2026-03-29T08:56:19Z</time></trkpt><trkpt lat="45.97998946549173" lon="12.446866615660639"><ele>152.4</ele><time>2026-03-29T08:56:20Z</time></trkpt><trkpt lat="45.979883300784145" lon="12.44691373322383"><ele>148.6</ele><time>2026-03-29T08:56:21Z</time></trkpt><trkpt lat="45.97978660072356" lon="12.446952242791015"><ele>144.8</ele><time>2026-03-29T08:56:22Z</time></trkpt><trkpt lat="45.97969893244294" lon="12.446998026462134"><ele>141.0</ele><time>2026-03-29T08:56:23Z</time></trkpt><trkpt lat="45.97962516309885" lon="12.447060492021068"><ele>143.4</ele><time>2026-03-29T08:56:24Z</time></trkpt><trkpt lat="45.97956102463284" lon="12.447142299653024"><ele>145.8</ele><time>2026-03-29T08:56:25.001Z</time></trkpt><trkpt lat="45.97950789818209" lon="12.447239297294436"><ele>148.20000000000002</ele><time>2026-03-29T08:56:26.001Z</time></trkpt><trkpt lat="45.979465323691144" lon="12.447371417018347"><ele>150.6</ele><time>2026-03-29T08:56:27.001Z</time></trkpt><trkpt lat="45.97942566520804" lon="12.447508428291334"><ele>153.0</ele><time>2026-03-29T08:56:28.001Z</time></trkpt><trkpt lat="45.97941714428379" lon="12.44763815839176"><ele>153.0</ele><time>2026-03-29T08:56:29.001Z</time></trkpt><trkpt lat="45.979428021876345" lon="12.447787277996381"><ele>153.0</ele><time>2026-03-29T08:56:30.001Z</time></trkpt><trkpt lat="45.9794569100581" lon="12.44795293619018"><ele>153.0</ele><time>2026-03-29T08:56:31.001Z</time></trkpt><trkpt lat="45.9794838155415" lon="12.448142090086941"><ele>153.0</ele><time>2026-03-29T08:56:32.001Z</time></trkpt><trkpt lat="45.97949372552374" lon="12.448342940265443"><ele>155.0</ele><time>2026-03-29T08:56:33.001Z</time></trkpt><trkpt lat="45.97948759604963" lon="12.448558812716177"><ele>157.0</ele><time>2026-03-29T08:56:34.001Z</time></trkpt><trkpt lat="45.979476711134495" lon="12.448768710766023"><ele>159.0</ele><time>2026-03-29T08:56:35.001Z</time></trkpt><trkpt lat="45.979457787135885" lon="12.44895007899644"><ele>161.0</ele><time>2026-03-29T08:56:36.001Z</time></trkpt><trkpt lat="45.97942513815306" lon="12.449111524249732"><ele>161.5</ele><time>2026-03-29T08:56:37.001Z</time></trkpt><trkpt lat="45.979368079537544" lon="12.449269870007464"><ele>162.0</ele><time>2026-03-29T08:56:38.001Z</time></trkpt><trkpt lat="45.97929418664688" lon="12.449414613825569"><ele>162.5</ele><time>2026-03-29T08:56:39.001Z</time></trkpt><trkpt lat="45.97921355670265" lon="12.449542766398535"><ele>163.0</ele><time>2026-03-29T08:56:40.001Z</time></trkpt><trkpt lat="45.97912940358287" lon="12.449629745606574"><ele>160.5</ele><time>2026-03-29T08:56:41.001Z</time></trkpt><trkpt lat="45.97904522948234" lon="12.44967605058681"><ele>158.0</ele><time>2026-03-29T08:56:42.001Z</time></trkpt><trkpt lat="45.97897075059744" lon="12.44969453897493"><ele>155.5</ele><time>2026-03-29T08:56:43.001Z</time></trkpt><trkpt lat="45.97890054215855" lon="12.449714463796887"><ele>153.0</ele><time>2026-03-29T08:56:44.001Z</time></trkpt><trkpt lat="45.97882474060069" lon="12.449733536684176"><ele>150.5</ele><time>2026-03-29T08:56:45.001Z</time></trkpt><trkpt lat="45.9787480606249" lon="12.44975360066007"><ele>148.0</ele><time>2026-03-29T08:56:46.001Z</time></trkpt><trkpt lat="45.978674121824746" lon="12.449775477136274"><ele>148.0</ele><time>2026-03-29T08:56:47.001Z</time></trkpt><trkpt lat="45.97859538828843" lon="12.449799918938234"><ele>148.0</ele><time>2026-03-29T08:56:48.001Z</time></trkpt><trkpt lat="45.97851253016941" lon="12.449835554328185"><ele>148.0</ele><time>2026-03-29T08:56:49.001Z</time></trkpt><trkpt lat="45.978434762653954" lon="12.449897067229763"><ele>148.0</ele><time>2026-03-29T08:56:50.001Z</time></trkpt><trkpt lat="45.978372276962105" lon="12.449986230159093"><ele>148.0</ele><time>2026-03-29T08:56:51.001Z</time></trkpt><trkpt lat="45.97831852382964" lon="12.450103908158727"><ele>148.0</ele><time>2026-03-29T08:56:52.001Z</time></trkpt><trkpt lat="45.97827248629756" lon="12.450242015671156"><ele>145.20000000000002</ele><time>2026-03-29T08:56:53.001Z</time></trkpt><trkpt lat="45.97823276742103" lon="12.45037589339466"><ele>142.4</ele><time>2026-03-29T08:56:54.001Z</time></trkpt><trkpt lat="45.978189027966316" lon="12.450502388573495"><ele>139.60000000000002</ele><time>2026-03-29T08:56:55.001Z</time></trkpt><trkpt lat="45.97814243261449" lon="12.450611153873666"><ele>136.8</ele><time>2026-03-29T08:56:56.001Z</time></trkpt><trkpt lat="45.97808675548394" lon="12.450694148669784"><ele>134.0</ele><time>2026-03-29T08:56:57.001Z</time></trkpt><trkpt lat="45.978011931577676" lon="12.450747570886664"><ele>134.0</ele><time>2026-03-29T08:56:58.001Z</time></trkpt><trkpt lat="45.977925605276106" lon="12.450773571981756"><ele>134.0</ele><time>2026-03-29T08:56:59.001Z</time></trkpt><trkpt lat="45.97783598020199" lon="12.450763073651618"><ele>134.0</ele><time>2026-03-29T08:57:00.001Z</time></trkpt><trkpt lat="45.977748791916056" lon="12.45072569092388"><ele>134.0</ele><time>2026-03-29T08:57:01.001Z</time></trkpt><trkpt lat="45.97765445009149" lon="12.450684131553702"><ele>134.0</ele><time>2026-03-29T08:57:02.001Z</time></trkpt><trkpt lat="45.97754864861374" lon="12.450633288042265"><ele>130.25</ele><time>2026-03-29T08:57:03.001Z</time></trkpt><trkpt lat="45.977433950903865" lon="12.450576722354832"><ele>126.5</ele><time>2026-03-29T08:57:04.001Z</time></trkpt><trkpt lat="45.9773172545509" lon="12.45052287540748"><ele>122.75</ele><time>2026-03-29T08:57:05.001Z</time></trkpt><trkpt lat="45.977204092598754" lon="12.450471271991718"><ele>119.0</ele><time>2026-03-29T08:57:06.001Z</time></trkpt><trkpt lat="45.977093344031246" lon="12.450420906794317"><ele>119.0</ele><time>2026-03-29T08:57:07.001Z</time></trkpt><trkpt lat="45.97697909079297" lon="12.450396302791042"><ele>119.0</ele><time>2026-03-29T08:57:08.001Z</time></trkpt><trkpt lat="45.97686586766712" lon="12.450396491257912"><ele>119.0</ele><time>2026-03-29T08:57:09.001Z</time></trkpt><trkpt lat="45.97675712783971" lon="12.450421493741505"><ele>119.0</ele><time>2026-03-29T08:57:10.001Z</time></trkpt><trkpt lat="45.97664259626508" lon="12.450466324089447"><ele>117.5</ele><time>2026-03-29T08:57:11.001Z</time></trkpt><trkpt lat="45.97652249195308" lon="12.450512758917137"><ele>116.0</ele><time>2026-03-29T08:57:12.001Z</time></trkpt><trkpt lat="45.97640020870282" lon="12.450558359397894"><ele>114.5</ele><time>2026-03-29T08:57:13.001Z</time></trkpt><trkpt lat="45.97628444131714" lon="12.450600040057664"><ele>113.0</ele><time>2026-03-29T08:57:14.001Z</time></trkpt><trkpt lat="45.9761630687094" lon="12.45063939229441"><ele>113.0</ele><time>2026-03-29T08:57:15.001Z</time></trkpt><trkpt lat="45.97604089497276" lon="12.450667485831705"><ele>113.0</ele><time>2026-03-29T08:57:16.001Z</time></trkpt><trkpt lat="45.975924532615984" lon="12.450686021621088"><ele>113.0</ele><time>2026-03-29T08:57:17.001Z</time></trkpt><trkpt lat="45.97580549400202" lon="12.45068344206756"><ele>113.0</ele><time>2026-03-29T08:57:18.001Z</time></trkpt><trkpt lat="45.97568394382767" lon="12.450674295275919"><ele>111.80000000000001</ele><time>2026-03-29T08:57:19Z</time></trkpt><trkpt lat="45.97557133600617" lon="12.450672190475874"><ele>110.60000000000001</ele><time>2026-03-29T08:57:20Z</time></trkpt><trkpt lat="45.975466153318095" lon="12.450681540144789"><ele>109.39999999999999</ele><time>2026-03-29T08:57:21Z</time></trkpt><trkpt lat="45.975368862577696" lon="12.450720839763498"><ele>108.19999999999999</ele><time>2026-03-29T08:57:22Z</time></trkpt><trkpt lat="45.97527767646089" lon="12.450773950082821"><ele>107.0</ele><time>2026-03-29T08:57:23Z</time></trkpt><trkpt lat="45.975188493107076" lon="12.450830763328694"><ele>107.0</ele><time>2026-03-29T08:57:24Z</time></trkpt><trkpt lat="45.97508979402394" lon="12.450882365917018"><ele>106.99999999999999</ele><time>2026-03-29T08:57:25Z</time></trkpt><trkpt lat="45.97498455744441" lon="12.450909628595454"><ele>106.99999999999999</ele><time>2026-03-29T08:57:26Z</time></trkpt><trkpt lat="45.97488344736177" lon="12.450915531538177"><ele>107.0</ele><time>2026-03-29T08:57:27Z</time></trkpt><trkpt lat="45.97478483903677" lon="12.450899067819309"><ele>107.0</ele><time>2026-03-29T08:57:28Z</time></trkpt><trkpt lat="45.974679757605415" lon="12.450870123052594"><ele>106.75</ele><time>2026-03-29T08:57:29Z</time></trkpt><trkpt lat="45.974572511271944" lon="12.45082042034463"><ele>106.5</ele><time>2026-03-29T08:57:30Z</time></trkpt><trkpt lat="45.974471756180854" lon="12.450742323381268"><ele>106.25</ele><time>2026-03-29T08:57:31Z</time></trkpt><trkpt lat="45.974376182970936" lon="12.450643355643459"><ele>106.0</ele><time>2026-03-29T08:57:32Z</time></trkpt><trkpt lat="45.97427866071772" lon="12.450542216366948"><ele>104.0</ele><time>2026-03-29T08:57:33Z</time></trkpt><trkpt lat="45.974165056016176" lon="12.450474533545247"><ele>102.0</ele><time>2026-03-29T08:57:34Z</time></trkpt><trkpt lat="45.97403860565346" lon="12.450439752915484"><ele>100.0</ele><time>2026-03-29T08:57:35Z</time></trkpt><trkpt lat="45.973910758311874" lon="12.450420302424432"><ele>98.0</ele><time>2026-03-29T08:57:36Z</time></trkpt><trkpt lat="45.97379271115238" lon="12.450407480102088"><ele>98.0</ele><time>2026-03-29T08:57:37Z</time></trkpt><trkpt lat="45.97368444639672" lon="12.450415448939856"><ele>98.0</ele><time>2026-03-29T08:57:38Z</time></trkpt><trkpt lat="45.97357489092951" lon="12.450454139077541"><ele>98.0</ele><time>2026-03-29T08:57:39Z</time></trkpt><trkpt lat="45.97346157896558" lon="12.450485595907237"><ele>98.0</ele><time>2026-03-29T08:57:40Z</time></trkpt><trkpt lat="45.973348986171686" lon="12.450487859616166"><ele>98.0</ele><time>2026-03-29T08:57:41Z</time></trkpt><trkpt lat="45.97323695655307" lon="12.450468518192762"><ele>97.0</ele><time>2026-03-29T08:57:42Z</time></trkpt><trkpt lat="45.97312618064982" lon="12.45043561529976"><ele>96.0</ele><time>2026-03-29T08:57:43Z</time></trkpt><trkpt lat="45.973013688116964" lon="12.450413003448178"><ele>95.0</ele><time>2026-03-29T08:57:44Z</time></trkpt><trkpt lat="45.972893618646886" lon="12.450404206428122"><ele>94.0</ele><time>2026-03-29T08:57:45Z</time></trkpt><trkpt lat="45.97276340502043" lon="12.450412342102606"><ele>94.0</ele><time>2026-03-29T08:57:46Z</time></trkpt><trkpt lat="45.97263591456375" lon="12.450432252265621"><ele>94.0</ele><time>2026-03-29T08:57:47Z</time></trkpt><trkpt lat="45.97250642658584" lon="12.450456346089261"><ele>94.0</ele><time>2026-03-29T08:57:48Z</time></trkpt><trkpt lat="45.97237979536152" lon="12.450474544916077"><ele>94.0</ele><time>2026-03-29T08:57:49Z</time></trkpt><trkpt lat="45.972253046278155" lon="12.450491561698662"><ele>92.25</ele><time>2026-03-29T08:57:50Z</time></trkpt><trkpt lat="45.972126753733875" lon="12.450507022635458"><ele>90.5</ele><time>2026-03-29T08:57:51Z</time></trkpt><trkpt lat="45.97200028782624" lon="12.450517189833189"><ele>88.75</ele><time>2026-03-29T08:57:52Z</time></trkpt><trkpt lat="45.971877663152526" lon="12.45050667298637"><ele>87.0</ele><time>2026-03-29T08:57:53Z</time></trkpt><trkpt lat="45.97175697878089" lon="12.450472343755754"><ele>84.5</ele><time>2026-03-29T08:57:54Z</time></trkpt><trkpt lat="45.971640772231545" lon="12.450433992467698"><ele>82.0</ele><time>2026-03-29T08:57:55Z</time></trkpt><trkpt lat="45.97152778685281" lon="12.450390880462141"><ele>79.5</ele><time>2026-03-29T08:57:56Z</time></trkpt><trkpt lat="45.97141849049915" lon="12.45034427042477"><ele>77.0</ele><time>2026-03-29T08:57:57Z</time></trkpt><trkpt lat="45.971313375979705" lon="12.450284852402806"><ele>77.0</ele><time>2026-03-29T08:57:58Z</time></trkpt><trkpt lat="45.97121690567252" lon="12.45021105825738"><ele>77.0</ele><time>2026-03-29T08:57:59Z</time></trkpt><trkpt lat="45.97112499929939" lon="12.450132149372813"><ele>77.0</ele><time>2026-03-29T08:58:00Z</time></trkpt><trkpt lat="45.9710370819907" lon="12.450051208237896"><ele>77.0</ele><time>2026-03-29T08:58:01Z</time></trkpt><trkpt lat="45.97095425549454" lon="12.449958462355209"><ele>77.0</ele><time>2026-03-29T08:58:02Z</time></trkpt><trkpt lat="45.970880617894124" lon="12.449854353404909"><ele>75.0</ele><time>2026-03-29T08:58:03Z</time></trkpt><trkpt lat="45.97081389411466" lon="12.449743407808187"><ele>73.0</ele><time>2026-03-29T08:58:04Z</time></trkpt><trkpt lat="45.97075748420213" lon="12.449623504399028"><ele>71.0</ele><time>2026-03-29T08:58:05Z</time></trkpt><trkpt lat="45.97070941855306" lon="12.449501077304353"><ele>69.0</ele><time>2026-03-29T08:58:06Z</time></trkpt><trkpt lat="45.97067768269664" lon="12.449369018811574"><ele>67.0</ele><time>2026-03-29T08:58:07Z</time></trkpt><trkpt lat="45.97065539178325" lon="12.449219560538676"><ele>66.5</ele><time>2026-03-29T08:58:08Z</time></trkpt><trkpt lat="45.97063588163228" lon="12.449056992353087"><ele>66.0</ele><time>2026-03-29T08:58:09Z</time></trkpt><trkpt lat="45.97061634666644" lon="12.44888778917714"><ele>65.5</ele><time>2026-03-29T08:58:10Z</time></trkpt><trkpt lat="45.970595968206446" lon="12.448719252986091"><ele>65.0</ele><time>2026-03-29T08:58:11Z</time></trkpt><trkpt lat="45.97057603777237" lon="12.44855610423612"><ele>64.0</ele><time>2026-03-29T08:58:12Z</time></trkpt><trkpt lat="45.97056026140608" lon="12.44839744140241"><ele>63.0</ele><time>2026-03-29T08:58:13Z</time></trkpt><trkpt lat="45.970545910460764" lon="12.448240254119364"><ele>62.0</ele><time>2026-03-29T08:58:14Z</time></trkpt><trkpt lat="45.970525955096164" lon="12.448088523604923"><ele>61.0</ele><time>2026-03-29T08:58:15Z</time></trkpt><trkpt lat="45.97050149137774" lon="12.447945648739035"><ele>60.0</ele><time>2026-03-29T08:58:16Z</time></trkpt><trkpt lat="45.97047822531619" lon="12.447829000115263"><ele>59.666666666666664</ele><time>2026-03-29T08:58:17Z</time></trkpt><trkpt lat="45.97045966002407" lon="12.447695607429534"><ele>59.33333333333333</ele><time>2026-03-29T08:58:19Z</time></trkpt><trkpt lat="45.97049999450969" lon="12.44760115785274"><ele>59.0</ele><time>2026-03-29T08:58:21Z</time></trkpt><trkpt lat="45.970566650157856" lon="12.447553294015758"><ele>58.666666666666664</ele><time>2026-03-29T08:58:22Z</time></trkpt><trkpt lat="45.970650572797595" lon="12.447493651249173"><ele>58.33333333333333</ele><time>2026-03-29T08:58:23Z</time></trkpt><trkpt lat="45.97073779871215" lon="12.447416331994573"><ele>58.0</ele><time>2026-03-29T08:58:24Z</time></trkpt><trkpt lat="45.97081497835133" lon="12.447343617696442"><ele>58.599999999999994</ele><time>2026-03-29T08:58:25Z</time></trkpt><trkpt lat="45.97089452869303" lon="12.447294435320474"><ele>59.199999999999996</ele><time>2026-03-29T08:58:26.001Z</time></trkpt><trkpt lat="45.970986268896645" lon="12.447275149187641"><ele>59.8</ele><time>2026-03-29T08:58:27.001Z</time></trkpt><trkpt lat="45.97107268912642" lon="12.447294930091678"><ele>60.4</ele><time>2026-03-29T08:58:28.001Z</time></trkpt><trkpt lat="45.971154434661024" lon="12.447351874607765"><ele>61.0</ele><time>2026-03-29T08:58:29.001Z</time></trkpt><trkpt lat="45.97123901144403" lon="12.44743691306808"><ele>61.0</ele><time>2026-03-29T08:58:30.001Z</time></trkpt><trkpt lat="45.97132378254327" lon="12.447546253955304"><ele>61.0</ele><time>2026-03-29T08:58:31.001Z</time></trkpt><trkpt lat="45.97141958010219" lon="12.447670959627807"><ele>61.0</ele><time>2026-03-29T08:58:32.001Z</time></trkpt><trkpt lat="45.97153219672957" lon="12.447801823607271"><ele>61.0</ele><time>2026-03-29T08:58:33.001Z</time></trkpt><trkpt lat="45.97164473205746" lon="12.447926971528501"><ele>61.5</ele><time>2026-03-29T08:58:34.001Z</time></trkpt><trkpt lat="45.971754077926114" lon="12.44804334692593"><ele>62.0</ele><time>2026-03-29T08:58:35.001Z</time></trkpt><trkpt lat="45.971850683047705" lon="12.448144571536737"><ele>62.5</ele><time>2026-03-29T08:58:36.001Z</time></trkpt><trkpt lat="45.97194493954153" lon="12.448227070042453"><ele>63.0</ele><time>2026-03-29T08:58:37.001Z</time></trkpt><trkpt lat="45.97203879733228" lon="12.44827709730536"><ele>63.0</ele><time>2026-03-29T08:58:38.001Z</time></trkpt><trkpt lat="45.97213271654079" lon="12.448282993256171"><ele>63.0</ele><time>2026-03-29T08:58:39.001Z</time></trkpt><trkpt lat="45.972237086579014" lon="12.448251568710445"><ele>63.0</ele><time>2026-03-29T08:58:40.001Z</time></trkpt><trkpt lat="45.97235391853793" lon="12.448196657240263"><ele>63.0</ele><time>2026-03-29T08:58:41.001Z</time></trkpt><trkpt lat="45.972478507223975" lon="12.448129805651469"><ele>64.0</ele><time>2026-03-29T08:58:42.001Z</time></trkpt><trkpt lat="45.972602339687434" lon="12.448059579633647"><ele>65.0</ele><time>2026-03-29T08:58:43.001Z</time></trkpt><trkpt lat="45.972723491686246" lon="12.447988568579063"><ele>66.0</ele><time>2026-03-29T08:58:44.001Z</time></trkpt><trkpt lat="45.97284235672425" lon="12.447919481136744"><ele>67.0</ele><time>2026-03-29T08:58:45.001Z</time></trkpt><trkpt lat="45.9729524745678" lon="12.447850679094962"><ele>67.0</ele><time>2026-03-29T08:58:46.001Z</time></trkpt><trkpt lat="45.97307899176994" lon="12.447808403586189"><ele>67.0</ele><time>2026-03-29T08:58:47.001Z</time></trkpt><trkpt lat="45.97320224085225" lon="12.447785852499656"><ele>67.0</ele><time>2026-03-29T08:58:48.001Z</time></trkpt><trkpt lat="45.97332281027057" lon="12.447778027676089"><ele>67.0</ele><time>2026-03-29T08:58:49.001Z</time></trkpt><trkpt lat="45.97343849526521" lon="12.44778317277356"><ele>67.4</ele><time>2026-03-29T08:58:50.001Z</time></trkpt><trkpt lat="45.9735450254741" lon="12.44778704100718"><ele>67.80000000000001</ele><time>2026-03-29T08:58:51.001Z</time></trkpt><trkpt lat="45.97365924112503" lon="12.447772041639363"><ele>68.2</ele><time>2026-03-29T08:58:52.001Z</time></trkpt><trkpt lat="45.97375850527732" lon="12.447752561877124"><ele>68.60000000000001</ele><time>2026-03-29T08:58:53.001Z</time></trkpt><trkpt lat="45.97385350397495" lon="12.447715983104342"><ele>69.0</ele><time>2026-03-29T08:58:54.001Z</time></trkpt><trkpt lat="45.97394964904786" lon="12.44766512630138"><ele>69.0</ele><time>2026-03-29T08:58:55.001Z</time></trkpt><trkpt lat="45.97404611449119" lon="12.447604655066728"><ele>69.0</ele><time>2026-03-29T08:58:56.001Z</time></trkpt><trkpt lat="45.97414084466717" lon="12.447533306468857"><ele>69.0</ele><time>2026-03-29T08:58:57.001Z</time></trkpt><trkpt lat="45.97424294515165" lon="12.447461905402161"><ele>69.0</ele><time>2026-03-29T08:58:58.001Z</time></trkpt><trkpt lat="45.97435077507761" lon="12.447394194287078"><ele>69.0</ele><time>2026-03-29T08:58:59.001Z</time></trkpt><trkpt lat="45.974466794381506" lon="12.447321854692905"><ele>70.33333333333333</ele><time>2026-03-29T08:59:00.001Z</time></trkpt><trkpt lat="45.97459383348179" lon="12.447242386454274"><ele>71.66666666666666</ele><time>2026-03-29T08:59:01.001Z</time></trkpt><trkpt lat="45.9747298684115" lon="12.447143677468201"><ele>73.0</ele><time>2026-03-29T08:59:02.001Z</time></trkpt><trkpt lat="45.9748656001362" lon="12.447016184507449"><ele>73.66666666666666</ele><time>2026-03-29T08:59:03.001Z</time></trkpt><trkpt lat="45.97500179200109" lon="12.446869626119108"><ele>74.33333333333333</ele><time>2026-03-29T08:59:04.001Z</time></trkpt><trkpt lat="45.97513233810044" lon="12.446718519662872"><ele>75.0</ele><time>2026-03-29T08:59:05.001Z</time></trkpt><trkpt lat="45.97525637588535" lon="12.446575447322564"><ele>75.5</ele><time>2026-03-29T08:59:06.001Z</time></trkpt><trkpt lat="45.97537389123416" lon="12.446457548177074"><ele>76.0</ele><time>2026-03-29T08:59:07.001Z</time></trkpt><trkpt lat="45.97548302739326" lon="12.44636778769591"><ele>76.5</ele><time>2026-03-29T08:59:08.001Z</time></trkpt><trkpt lat="45.97559522469631" lon="12.4463041180131"><ele>77.0</ele><time>2026-03-29T08:59:09.001Z</time></trkpt><trkpt lat="45.975704328277125" lon="12.446274734640701"><ele>77.0</ele><time>2026-03-29T08:59:10.001Z</time></trkpt><trkpt lat="45.97579983583905" lon="12.446239418357768"><ele>77.0</ele><time>2026-03-29T08:59:11.001Z</time></trkpt><trkpt lat="45.975875844872505" lon="12.446166448603487"><ele>77.0</ele><time>2026-03-29T08:59:12.001Z</time></trkpt><trkpt lat="45.97593863045138" lon="12.44605029628353"><ele>77.0</ele><time>2026-03-29T08:59:13.001Z</time></trkpt><trkpt lat="45.975979638950534" lon="12.445909481251322"><ele>77.0</ele><time>2026-03-29T08:59:14.001Z</time></trkpt><trkpt lat="45.97600392535898" lon="12.445758814493457"><ele>77.2</ele><time>2026-03-29T08:59:15.001Z</time></trkpt><trkpt lat="45.976053149089786" lon="12.445647893167983"><ele>77.4</ele><time>2026-03-29T08:59:16.001Z</time></trkpt><trkpt lat="45.97612428705843" lon="12.445585399789195"><ele>77.6</ele><time>2026-03-29T08:59:17.001Z</time></trkpt><trkpt lat="45.97621025201015" lon="12.445538517343161"><ele>77.8</ele><time>2026-03-29T08:59:18.001Z</time></trkpt><trkpt lat="45.976308176399215" lon="12.44550188974807"><ele>78.0</ele><time>2026-03-29T08:59:19.001Z</time></trkpt><trkpt lat="45.97641845292026" lon="12.445496942377366"><ele>78.0</ele><time>2026-03-29T08:59:20.001Z</time></trkpt><trkpt lat="45.97653975117408" lon="12.445503969785415"><ele>78.0</ele><time>2026-03-29T08:59:21.001Z</time></trkpt><trkpt lat="45.97664669779529" lon="12.44550071938338"><ele>78.0</ele><time>2026-03-29T08:59:22.001Z</time></trkpt><trkpt lat="45.976739351849425" lon="12.445479326911041"><ele>78.0</ele><time>2026-03-29T08:59:23.001Z</time></trkpt><trkpt lat="45.97682432757554" lon="12.445447396076514"><ele>78.0</ele><time>2026-03-29T08:59:24.001Z</time></trkpt><trkpt lat="45.97690682168115" lon="12.445393200753132"><ele>78.6</ele><time>2026-03-29T08:59:25Z</time></trkpt><trkpt lat="45.97698889616518" lon="12.445308572674648"><ele>79.19999999999999</ele><time>2026-03-29T08:59:26Z</time></trkpt><trkpt lat="45.97705941117713" lon="12.445202143445014"><ele>79.8</ele><time>2026-03-29T08:59:27Z</time></trkpt><trkpt lat="45.9771069580693" lon="12.44507174237564"><ele>80.39999999999999</ele><time>2026-03-29T08:59:28Z</time></trkpt><trkpt lat="45.97713684535262" lon="12.444938871808159"><ele>81.0</ele><time>2026-03-29T08:59:29Z</time></trkpt><trkpt lat="45.977179285628154" lon="12.444819782892127"><ele>81.0</ele><time>2026-03-29T08:59:30Z</time></trkpt><trkpt lat="45.97725125283007" lon="12.44473387233095"><ele>81.0</ele><time>2026-03-29T08:59:31Z</time></trkpt><trkpt lat="45.97732968831283" lon="12.444682764001174"><ele>81.0</ele><time>2026-03-29T08:59:32Z</time></trkpt><trkpt lat="45.977416224803555" lon="12.444657027753628"><ele>81.0</ele><time>2026-03-29T08:59:33Z</time></trkpt><trkpt lat="45.977496744414815" lon="12.444663004039267"><ele>81.0</ele><time>2026-03-29T08:59:34Z</time></trkpt><trkpt lat="45.97757925651207" lon="12.44470275754974"><ele>81.0</ele><time>2026-03-29T08:59:35Z</time></trkpt><trkpt lat="45.977670508012345" lon="12.444753708087855"><ele>83.5</ele><time>2026-03-29T08:59:36Z</time></trkpt><trkpt lat="45.97775775289479" lon="12.444794449338536"><ele>86.0</ele><time>2026-03-29T08:59:37Z</time></trkpt><trkpt lat="45.977832473171794" lon="12.444822564403115"><ele>88.5</ele><time>2026-03-29T08:59:38Z</time></trkpt><trkpt lat="45.97789925334957" lon="12.444834943612333"><ele>91.0</ele><time>2026-03-29T08:59:39Z</time></trkpt><trkpt lat="45.97796594125874" lon="12.444829098230374"><ele>93.5</ele><time>2026-03-29T08:59:40Z</time></trkpt><trkpt lat="45.97803617763422" lon="12.444797746246229"><ele>96.0</ele><time>2026-03-29T08:59:41Z</time></trkpt><trkpt lat="45.97810426172145" lon="12.444739411648131"><ele>96.0</ele><time>2026-03-29T08:59:42Z</time></trkpt><trkpt lat="45.978170496521884" lon="12.444662551690683"><ele>96.0</ele><time>2026-03-29T08:59:43Z</time></trkpt><trkpt lat="45.97822917436194" lon="12.444595620495573"><ele>96.0</ele><time>2026-03-29T08:59:44Z</time></trkpt><trkpt lat="45.97827195329771" lon="12.444529041478004"><ele>96.0</ele><time>2026-03-29T08:59:45Z</time></trkpt><trkpt lat="45.97827698647703" lon="12.444408987492382"><ele>96.0</ele><time>2026-03-29T08:59:47Z</time></trkpt><trkpt lat="45.978178504230904" lon="12.444304424636247"><ele>96.0</ele><time>2026-03-29T08:59:49Z</time></trkpt><trkpt lat="45.9780851278426" lon="12.444269843716002"><ele>93.33333333333333</ele><time>2026-03-29T08:59:50Z</time></trkpt><trkpt lat="45.97795831611445" lon="12.444223005759145"><ele>90.66666666666666</ele><time>2026-03-29T08:59:51Z</time></trkpt><trkpt lat="45.97781448110342" lon="12.444142548628248"><ele>88.0</ele><time>2026-03-29T08:59:52Z</time></trkpt><trkpt lat="45.977662277283464" lon="12.444031707573597"><ele>87.66666666666666</ele><time>2026-03-29T08:59:53Z</time></trkpt><trkpt lat="45.977505573506676" lon="12.443936985297592"><ele>87.33333333333333</ele><time>2026-03-29T08:59:54Z</time></trkpt><trkpt lat="45.977366406978305" lon="12.443882526952496"><ele>87.0</ele><time>2026-03-29T08:59:55Z</time></trkpt><trkpt lat="45.97721265537135" lon="12.443844890894756"><ele>87.0</ele><time>2026-03-29T08:59:56Z</time></trkpt><trkpt lat="45.9770460629059" lon="12.443821324102649"><ele>87.0</ele><time>2026-03-29T08:59:57Z</time></trkpt><trkpt lat="45.97687429020033" lon="12.443812319927575"><ele>87.0</ele><time>2026-03-29T08:59:58Z</time></trkpt><trkpt lat="45.976721806830845" lon="12.443806620985729"><ele>90.8</ele><time>2026-03-29T08:59:59Z</time></trkpt><trkpt lat="45.97659432785784" lon="12.44378743983212"><ele>94.6</ele><time>2026-03-29T09:00:00Z</time></trkpt><trkpt lat="45.97650473641015" lon="12.443744454317244"><ele>98.39999999999999</ele><time>2026-03-29T09:00:01Z</time></trkpt><trkpt lat="45.97645645166335" lon="12.443680177617424"><ele>102.19999999999999</ele><time>2026-03-29T09:00:02Z</time></trkpt><trkpt lat="45.97645877875345" lon="12.443512105894836"><ele>106.0</ele><time>2026-03-29T09:00:04Z</time></trkpt><trkpt lat="45.97649966805688" lon="12.44342480728095"><ele>106.00000000000001</ele><time>2026-03-29T09:00:05Z</time></trkpt><trkpt lat="45.97659388302692" lon="12.443359471450773"><ele>106.0</ele><time>2026-03-29T09:00:06Z</time></trkpt><trkpt lat="45.97666628159424" lon="12.443284258669886"><ele>106.0</ele><time>2026-03-29T09:00:07Z</time></trkpt><trkpt lat="45.976719992767656" lon="12.443193682158139"><ele>106.0</ele><time>2026-03-29T09:00:08Z</time></trkpt><trkpt lat="45.976742612594244" lon="12.443099820776448"><ele>106.00000000000001</ele><time>2026-03-29T09:00:09Z</time></trkpt><trkpt lat="45.97673777102503" lon="12.44299386205831"><ele>106.0</ele><time>2026-03-29T09:00:10Z</time></trkpt><trkpt lat="45.976699497559665" lon="12.442887523034239"><ele>107.0</ele><time>2026-03-29T09:00:11Z</time></trkpt><trkpt lat="45.9766366163614" lon="12.442787437581185"><ele>108.0</ele><time>2026-03-29T09:00:12Z</time></trkpt><trkpt lat="45.97655055139775" lon="12.442674649287852"><ele>109.0</ele><time>2026-03-29T09:00:13Z</time></trkpt><trkpt lat="45.976436796887235" lon="12.442529874290809"><ele>110.0</ele><time>2026-03-29T09:00:14Z</time></trkpt><trkpt lat="45.97632025452717" lon="12.442401803000624"><ele>110.0</ele><time>2026-03-29T09:00:15Z</time></trkpt><trkpt lat="45.97618693879017" lon="12.442258970707915"><ele>110.0</ele><time>2026-03-29T09:00:16Z</time></trkpt><trkpt lat="45.97606129948381" lon="12.442127557753208"><ele>110.0</ele><time>2026-03-29T09:00:17Z</time></trkpt><trkpt lat="45.97594389746034" lon="12.44200552329547"><ele>113.5</ele><time>2026-03-29T09:00:18Z</time></trkpt><trkpt lat="45.97583246662486" lon="12.441891418126726"><ele>117.0</ele><time>2026-03-29T09:00:19Z</time></trkpt><trkpt lat="45.97573436378457" lon="12.441784139565051"><ele>120.5</ele><time>2026-03-29T09:00:20Z</time></trkpt><trkpt lat="45.97565222889094" lon="12.441666196667683"><ele>124.0</ele><time>2026-03-29T09:00:21Z</time></trkpt><trkpt lat="45.97557259261798" lon="12.441515614120545"><ele>124.0</ele><time>2026-03-29T09:00:22Z</time></trkpt><trkpt lat="45.97548466309221" lon="12.44132386661769"><ele>124.0</ele><time>2026-03-29T09:00:23Z</time></trkpt><trkpt lat="45.9753860446326" lon="12.441098536502212"><ele>124.0</ele><time>2026-03-29T09:00:24Z</time></trkpt><trkpt lat="45.975273293761525" lon="12.44086872009927"><ele>128.33333333333334</ele><time>2026-03-29T09:00:25Z</time></trkpt><trkpt lat="45.97515512169823" lon="12.440647082796952"><ele>132.66666666666666</ele><time>2026-03-29T09:00:26Z</time></trkpt><trkpt lat="45.97505763283933" lon="12.440456211749657"><ele>137.0</ele><time>2026-03-29T09:00:27Z</time></trkpt><trkpt lat="45.97497773128605" lon="12.440293566281628"><ele>137.0</ele><time>2026-03-29T09:00:28Z</time></trkpt><trkpt lat="45.974899345916334" lon="12.440153568087705"><ele>137.0</ele><time>2026-03-29T09:00:29Z</time></trkpt><trkpt lat="45.974802170879826" lon="12.439998687432992"><ele>137.0</ele><time>2026-03-29T09:00:30Z</time></trkpt><trkpt lat="45.974717658085794" lon="12.439871020755161"><ele>137.0</ele><time>2026-03-29T09:00:31Z</time></trkpt><trkpt lat="45.97462518910899" lon="12.439767843762699"><ele>137.0</ele><time>2026-03-29T09:00:32.001Z</time></trkpt><trkpt lat="45.97450113842209" lon="12.43964330689719"><ele>137.0</ele><time>2026-03-29T09:00:33.001Z</time></trkpt><trkpt lat="45.97436344220454" lon="12.439512807485073"><ele>137.0</ele><time>2026-03-29T09:00:34.001Z</time></trkpt><trkpt lat="45.974248652525134" lon="12.439405311225457"><ele>136.25</ele><time>2026-03-29T09:00:35.001Z</time></trkpt><trkpt lat="45.974144357457995" lon="12.439308204944105"><ele>135.5</ele><time>2026-03-29T09:00:36.001Z</time></trkpt><trkpt lat="45.97404512837205" lon="12.439207378522186"><ele>134.75</ele><time>2026-03-29T09:00:37.001Z</time></trkpt><trkpt lat="45.97395175800211" lon="12.439099555935488"><ele>134.0</ele><time>2026-03-29T09:00:38.001Z</time></trkpt><trkpt lat="45.97386087754077" lon="12.438977507087689"><ele>134.0</ele><time>2026-03-29T09:00:39.001Z</time></trkpt><trkpt lat="45.97377233638543" lon="12.438844890758904"><ele>134.0</ele><time>2026-03-29T09:00:40.001Z</time></trkpt><trkpt lat="45.97368560931601" lon="12.438714443490895"><ele>134.0</ele><time>2026-03-29T09:00:41.001Z</time></trkpt><trkpt lat="45.973591884401586" lon="12.438604669189873"><ele>134.0</ele><time>2026-03-29T09:00:42.001Z</time></trkpt><trkpt lat="45.9734983584808" lon="12.43851705644558"><ele>133.8</ele><time>2026-03-29T09:00:43.001Z</time></trkpt><trkpt lat="45.97341090055787" lon="12.438439974656285"><ele>133.60000000000002</ele><time>2026-03-29T09:00:44.001Z</time></trkpt><trkpt lat="45.97332945998337" lon="12.438363401807928"><ele>133.4</ele><time>2026-03-29T09:00:45.001Z</time></trkpt><trkpt lat="45.97324209675416" lon="12.438283150482734"><ele>133.20000000000002</ele><time>2026-03-29T09:00:46.001Z</time></trkpt><trkpt lat="45.9731503759727" lon="12.438215838069762"><ele>133.0</ele><time>2026-03-29T09:00:47.001Z</time></trkpt><trkpt lat="45.973070212611326" lon="12.438162497919366"><ele>133.0</ele><time>2026-03-29T09:00:48.001Z</time></trkpt><trkpt lat="45.972996260646596" lon="12.438104281415137"><ele>133.0</ele><time>2026-03-29T09:00:49.001Z</time></trkpt><trkpt lat="45.972920216407346" lon="12.438037562988235"><ele>133.0</ele><time>2026-03-29T09:00:50.001Z</time></trkpt><trkpt lat="45.972841264594535" lon="12.437962490537972"><ele>133.0</ele><time>2026-03-29T09:00:51.001Z</time></trkpt><trkpt lat="45.972754274387036" lon="12.437890386651471"><ele>133.0</ele><time>2026-03-29T09:00:52.001Z</time></trkpt><trkpt lat="45.97266640200428" lon="12.437815389475416"><ele>132.8</ele><time>2026-03-29T09:00:53.001Z</time></trkpt><trkpt lat="45.972578209825556" lon="12.437746117251779"><ele>132.60000000000002</ele><time>2026-03-29T09:00:54.001Z</time></trkpt><trkpt lat="45.97249044464204" lon="12.437705754666023"><ele>132.39999999999998</ele><time>2026-03-29T09:00:55.001Z</time></trkpt><trkpt lat="45.97238102740121" lon="12.437682572487738"><ele>132.2</ele><time>2026-03-29T09:00:56.001Z</time></trkpt><trkpt lat="45.97227218190731" lon="12.437667130836894"><ele>132.0</ele><time>2026-03-29T09:00:57.001Z</time></trkpt><trkpt lat="45.97218075773604" lon="12.437636629036035"><ele>132.0</ele><time>2026-03-29T09:00:58.001Z</time></trkpt><trkpt lat="45.9721076341448" lon="12.437583176077176"><ele>132.0</ele><time>2026-03-29T09:00:59.001Z</time></trkpt><trkpt lat="45.97204249425774" lon="12.437523526615681"><ele>132.0</ele><time>2026-03-29T09:01:00.001Z</time></trkpt><trkpt lat="45.97197573222857" lon="12.43746843207601"><ele>132.0</ele><time>2026-03-29T09:01:01.001Z</time></trkpt><trkpt lat="45.97191107497789" lon="12.437420509479367"><ele>132.0</ele><time>2026-03-29T09:01:02.001Z</time></trkpt><trkpt lat="45.971846205679476" lon="12.43738047304763"><ele>132.0</ele><time>2026-03-29T09:01:03.001Z</time></trkpt><trkpt lat="45.97178846808929" lon="12.437327514245652"><ele>132.0</ele><time>2026-03-29T09:01:04.001Z</time></trkpt><trkpt lat="45.971746594821035" lon="12.437240346121436"><ele>134.0</ele><time>2026-03-29T09:01:05.001Z</time></trkpt><trkpt lat="45.97171770163391" lon="12.437131789352867"><ele>136.0</ele><time>2026-03-29T09:01:06.001Z</time></trkpt><trkpt lat="45.97168552219201" lon="12.437019817121525"><ele>138.0</ele><time>2026-03-29T09:01:07.001Z</time></trkpt><trkpt lat="45.97165379959418" lon="12.436906881995187"><ele>140.0</ele><time>2026-03-29T09:01:08.001Z</time></trkpt><trkpt lat="45.97161811086171" lon="12.436792953271196"><ele>142.0</ele><time>2026-03-29T09:01:09.001Z</time></trkpt><trkpt lat="45.97158245283115" lon="12.436673475595422"><ele>144.0</ele><time>2026-03-29T09:01:10.001Z</time></trkpt><trkpt lat="45.97153743149727" lon="12.436559144748234"><ele>139.66666666666666</ele><time>2026-03-29T09:01:11.001Z</time></trkpt><trkpt lat="45.9714883720291" lon="12.43645468025501"><ele>135.33333333333334</ele><time>2026-03-29T09:01:12.001Z</time></trkpt><trkpt lat="45.97145337079542" lon="12.436342571792071"><ele>131.0</ele><time>2026-03-29T09:01:13.001Z</time></trkpt><trkpt lat="45.97143021667284" lon="12.436225069849172"><ele>126.66666666666667</ele><time>2026-03-29T09:01:14.001Z</time></trkpt><trkpt lat="45.97142100687537" lon="12.436097496290165"><ele>122.33333333333334</ele><time>2026-03-29T09:01:15.001Z</time></trkpt><trkpt lat="45.97142345448059" lon="12.43595537806654"><ele>118.0</ele><time>2026-03-29T09:01:16.001Z</time></trkpt><trkpt lat="45.97142909927956" lon="12.435798164968983"><ele>118.0</ele><time>2026-03-29T09:01:17.001Z</time></trkpt><trkpt lat="45.97143742774034" lon="12.435633550491838"><ele>118.0</ele><time>2026-03-29T09:01:18.001Z</time></trkpt><trkpt lat="45.971458633385794" lon="12.435479979362373"><ele>118.0</ele><time>2026-03-29T09:01:19.001Z</time></trkpt><trkpt lat="45.97150037455298" lon="12.435327764167292"><ele>118.0</ele><time>2026-03-29T09:01:20.001Z</time></trkpt><trkpt lat="45.97156031818132" lon="12.435158062658067"><ele>118.0</ele><time>2026-03-29T09:01:21.001Z</time></trkpt><trkpt lat="45.97160869918476" lon="12.434977279123874"><ele>118.0</ele><time>2026-03-29T09:01:22.001Z</time></trkpt><trkpt lat="45.97162160164735" lon="12.434803927343413"><ele>118.0</ele><time>2026-03-29T09:01:23.001Z</time></trkpt><trkpt lat="45.97161940052908" lon="12.434628594691425"><ele>118.0</ele><time>2026-03-29T09:01:24.001Z</time></trkpt><trkpt lat="45.97160139344982" lon="12.4344471711342"><ele>119.5</ele><time>2026-03-29T09:01:25.001Z</time></trkpt><trkpt lat="45.97158353931643" lon="12.434259191896034"><ele>121.0</ele><time>2026-03-29T09:01:26.001Z</time></trkpt><trkpt lat="45.97157009512769" lon="12.434075816999137"><ele>122.5</ele><time>2026-03-29T09:01:27.001Z</time></trkpt><trkpt lat="45.971571368948176" lon="12.433910227542489"><ele>124.0</ele><time>2026-03-29T09:01:28.001Z</time></trkpt><trkpt lat="45.971590793729916" lon="12.433748226832355"><ele>124.0</ele><time>2026-03-29T09:01:29.001Z</time></trkpt><trkpt lat="45.97162402626406" lon="12.433575537451771"><ele>124.0</ele><time>2026-03-29T09:01:30.001Z</time></trkpt><trkpt lat="45.9716661590708" lon="12.433399510971169"><ele>124.0</ele><time>2026-03-29T09:01:31Z</time></trkpt><trkpt lat="45.9717142765967" lon="12.433215391228302"><ele>124.0</ele><time>2026-03-29T09:01:32Z</time></trkpt><trkpt lat="45.971746234489174" lon="12.433036655983416"><ele>135.5</ele><time>2026-03-29T09:01:33Z</time></trkpt><trkpt lat="45.97176222634919" lon="12.432863011985877"><ele>147.0</ele><time>2026-03-29T09:01:34Z</time></trkpt><trkpt lat="45.971764619815225" lon="12.432692036502312"><ele>158.5</ele><time>2026-03-29T09:01:35Z</time></trkpt><trkpt lat="45.971763406285724" lon="12.432534142189537"><ele>170.0</ele><time>2026-03-29T09:01:36Z</time></trkpt><trkpt lat="45.97174953153404" lon="12.432392578142997"><ele>170.0</ele><time>2026-03-29T09:01:37Z</time></trkpt><trkpt lat="45.971722523401404" lon="12.432256322708252"><ele>170.0</ele><time>2026-03-29T09:01:38Z</time></trkpt><trkpt lat="45.971690411897484" lon="12.432118292008122"><ele>170.0</ele><time>2026-03-29T09:01:39Z</time></trkpt><trkpt lat="45.97164562571967" lon="12.43198374600777"><ele>170.0</ele><time>2026-03-29T09:01:40Z</time></trkpt><trkpt lat="45.97158469137829" lon="12.431858263139738"><ele>170.0</ele><time>2026-03-29T09:01:41Z</time></trkpt><trkpt lat="45.97152226082603" lon="12.431736396009905"><ele>161.0</ele><time>2026-03-29T09:01:42Z</time></trkpt><trkpt lat="45.97145258431602" lon="12.431623854665151"><ele>152.0</ele><time>2026-03-29T09:01:43Z</time></trkpt><trkpt lat="45.97137716001416" lon="12.431518901608445"><ele>143.0</ele><time>2026-03-29T09:01:44Z</time></trkpt><trkpt lat="45.9713052573171" lon="12.431414523376299"><ele>134.0</ele><time>2026-03-29T09:01:45Z</time></trkpt><trkpt lat="45.971233484393736" lon="12.431312872000571"><ele>125.0</ele><time>2026-03-29T09:01:46Z</time></trkpt><trkpt lat="45.97116049069439" lon="12.431216726943324"><ele>125.0</ele><time>2026-03-29T09:01:47Z</time></trkpt><trkpt lat="45.97108953704982" lon="12.43112189844253"><ele>125.0</ele><time>2026-03-29T09:01:48Z</time></trkpt><trkpt lat="45.971019428193856" lon="12.431031648081744"><ele>125.0</ele><time>2026-03-29T09:01:49Z</time></trkpt><trkpt lat="45.97094654208097" lon="12.430944744355367"><ele>125.0</ele><time>2026-03-29T09:01:50Z</time></trkpt><trkpt lat="45.97087284159596" lon="12.430843685302344"><ele>125.0</ele><time>2026-03-29T09:01:51Z</time></trkpt><trkpt lat="45.970802900501994" lon="12.43073665394123"><ele>121.4</ele><time>2026-03-29T09:01:52Z</time></trkpt><trkpt lat="45.97073667248006" lon="12.430616384582356"><ele>117.8</ele><time>2026-03-29T09:01:53Z</time></trkpt><trkpt lat="45.97067528437804" lon="12.430488163540954"><ele>114.19999999999999</ele><time>2026-03-29T09:01:54Z</time></trkpt><trkpt lat="45.97062059337359" lon="12.43035927107719"><ele>110.6</ele><time>2026-03-29T09:01:55Z</time></trkpt><trkpt lat="45.970571782307424" lon="12.430228946730965"><ele>107.0</ele><time>2026-03-29T09:01:56Z</time></trkpt><trkpt lat="45.970525593529175" lon="12.430103147684232"><ele>106.19999999999999</ele><time>2026-03-29T09:01:57Z</time></trkpt><trkpt lat="45.970467957554966" lon="12.429986616371579"><ele>105.39999999999999</ele><time>2026-03-29T09:01:58Z</time></trkpt><trkpt lat="45.97039334709437" lon="12.429885498969625"><ele>104.6</ele><time>2026-03-29T09:01:59Z</time></trkpt><trkpt lat="45.97030153020587" lon="12.429795592833486"><ele>103.80000000000001</ele><time>2026-03-29T09:02:00Z</time></trkpt><trkpt lat="45.97020116908004" lon="12.429724187660984"><ele>103.0</ele><time>2026-03-29T09:02:01Z</time></trkpt><trkpt lat="45.97009997422539" lon="12.42965589533171"><ele>100.60000000000001</ele><time>2026-03-29T09:02:02Z</time></trkpt><trkpt lat="45.970006147837665" lon="12.429586040176709"><ele>98.2</ele><time>2026-03-29T09:02:03Z</time></trkpt><trkpt lat="45.96991617992117" lon="12.429510160769293"><ele>95.8</ele><time>2026-03-29T09:02:04Z</time></trkpt><trkpt lat="45.969826678020894" lon="12.42941777335839"><ele>93.4</ele><time>2026-03-29T09:02:05Z</time></trkpt><trkpt lat="45.969743022602415" lon="12.42931027769774"><ele>91.0</ele><time>2026-03-29T09:02:06Z</time></trkpt><trkpt lat="45.96967099730926" lon="12.429193834454543"><ele>91.0</ele><time>2026-03-29T09:02:07Z</time></trkpt><trkpt lat="45.96961872986768" lon="12.42907309915207"><ele>91.0</ele><time>2026-03-29T09:02:08Z</time></trkpt><trkpt lat="45.9695763430775" lon="12.42893733181535"><ele>91.0</ele><time>2026-03-29T09:02:09Z</time></trkpt><trkpt lat="45.9695470991079" lon="12.428803417878461"><ele>91.0</ele><time>2026-03-29T09:02:10Z</time></trkpt><trkpt lat="45.96953515342702" lon="12.428672630443236"><ele>91.0</ele><time>2026-03-29T09:02:11Z</time></trkpt><trkpt lat="45.96954220654194" lon="12.428544734120074"><ele>90.4</ele><time>2026-03-29T09:02:12Z</time></trkpt><trkpt lat="45.96955362199825" lon="12.428412657582566"><ele>89.8</ele><time>2026-03-29T09:02:13Z</time></trkpt><trkpt lat="45.96956031973279" lon="12.428285674481991"><ele>89.2</ele><time>2026-03-29T09:02:14Z</time></trkpt><trkpt lat="45.969551803302416" lon="12.42816209238537"><ele>88.60000000000001</ele><time>2026-03-29T09:02:15Z</time></trkpt><trkpt lat="45.96952703909549" lon="12.428039144284968"><ele>88.0</ele><time>2026-03-29T09:02:16Z</time></trkpt><trkpt lat="45.96949396827047" lon="12.427903423524532"><ele>87.80000000000001</ele><time>2026-03-29T09:02:17Z</time></trkpt><trkpt lat="45.96944861727836" lon="12.427766451779274"><ele>87.6</ele><time>2026-03-29T09:02:18Z</time></trkpt><trkpt lat="45.96939573937249" lon="12.427634108077005"><ele>87.4</ele><time>2026-03-29T09:02:19Z</time></trkpt><trkpt lat="45.96932887581842" lon="12.427518411847789"><ele>87.19999999999999</ele><time>2026-03-29T09:02:20Z</time></trkpt><trkpt lat="45.969245568262224" lon="12.427423076584411"><ele>87.0</ele><time>2026-03-29T09:02:21Z</time></trkpt><trkpt lat="45.96914178515194" lon="12.42734637297922"><ele>87.0</ele><time>2026-03-29T09:02:22Z</time></trkpt><trkpt lat="45.96903977014871" lon="12.42729303296428"><ele>87.0</ele><time>2026-03-29T09:02:23Z</time></trkpt><trkpt lat="45.96894699654697" lon="12.427266894838393"><ele>87.0</ele><time>2026-03-29T09:02:24Z</time></trkpt><trkpt lat="45.968866894143254" lon="12.427272456594332"><ele>87.0</ele><time>2026-03-29T09:02:25Z</time></trkpt><trkpt lat="45.968806215730524" lon="12.427299332370701"><ele>87.0</ele><time>2026-03-29T09:02:26Z</time></trkpt><trkpt lat="45.968753122523324" lon="12.427368993271813"><ele>87.0</ele><time>2026-03-29T09:02:27Z</time></trkpt><trkpt lat="45.96870569577714" lon="12.427477470287185"><ele>87.0</ele><time>2026-03-29T09:02:28Z</time></trkpt><trkpt lat="45.96866670894043" lon="12.427618986160045"><ele>87.0</ele><time>2026-03-29T09:02:29Z</time></trkpt><trkpt lat="45.968621190696425" lon="12.427777866626421"><ele>87.0</ele><time>2026-03-29T09:02:30Z</time></trkpt><trkpt lat="45.96856213264122" lon="12.427912351937659"><ele>87.0</ele><time>2026-03-29T09:02:31Z</time></trkpt><trkpt lat="45.96849437502626" lon="12.428033475305389"><ele>87.0</ele><time>2026-03-29T09:02:32Z</time></trkpt><trkpt lat="45.968417854207566" lon="12.428133369498585"><ele>84.66666666666667</ele><time>2026-03-29T09:02:33Z</time></trkpt><trkpt lat="45.96833775870103" lon="12.428204795066495"><ele>82.33333333333333</ele><time>2026-03-29T09:02:34Z</time></trkpt><trkpt lat="45.96825186547535" lon="12.428244040965994"><ele>80.0</ele><time>2026-03-29T09:02:35Z</time></trkpt><trkpt lat="45.96816943971954" lon="12.428232206255448"><ele>77.66666666666666</ele><time>2026-03-29T09:02:36Z</time></trkpt><trkpt lat="45.96810104672066" lon="12.42818272938901"><ele>75.33333333333333</ele><time>2026-03-29T09:02:37Z</time></trkpt><trkpt lat="45.96803824932521" lon="12.428086294403126"><ele>73.0</ele><time>2026-03-29T09:02:38Z</time></trkpt><trkpt lat="45.967999474521044" lon="12.427963538694126"><ele>73.0</ele><time>2026-03-29T09:02:39Z</time></trkpt><trkpt lat="45.9679934275287" lon="12.427819595769634"><ele>73.0</ele><time>2026-03-29T09:02:40Z</time></trkpt><trkpt lat="45.96798619332601" lon="12.427659950835016"><ele>73.0</ele><time>2026-03-29T09:02:41Z</time></trkpt><trkpt lat="45.96795728923854" lon="12.427493854919646"><ele>73.0</ele><time>2026-03-29T09:02:42Z</time></trkpt><trkpt lat="45.9679072714655" lon="12.427351031101479"><ele>73.0</ele><time>2026-03-29T09:02:43Z</time></trkpt><trkpt lat="45.96783079122611" lon="12.42723105643759"><ele>74.0</ele><time>2026-03-29T09:02:44Z</time></trkpt><trkpt lat="45.96773905458979" lon="12.427120179346584"><ele>75.0</ele><time>2026-03-29T09:02:45Z</time></trkpt><trkpt lat="45.96764075327519" lon="12.427013268049597"><ele>76.0</ele><time>2026-03-29T09:02:46Z</time></trkpt><trkpt lat="45.96753936283141" lon="12.426903876641243"><ele>77.0</ele><time>2026-03-29T09:02:47.001Z</time></trkpt><trkpt lat="45.96744049075539" lon="12.426794737002135"><ele>75.0</ele><time>2026-03-29T09:02:48.001Z</time></trkpt><trkpt lat="45.96734480606103" lon="12.426692771068645"><ele>73.0</ele><time>2026-03-29T09:02:49.001Z</time></trkpt><trkpt lat="45.967251539111615" lon="12.426606502334556"><ele>71.0</ele><time>2026-03-29T09:02:50.001Z</time></trkpt><trkpt lat="45.967164500403946" lon="12.426541027058857"><ele>69.0</ele><time>2026-03-29T09:02:51.001Z</time></trkpt><trkpt lat="45.96709386305035" lon="12.426502632777298"><ele>67.0</ele><time>2026-03-29T09:02:52.001Z</time></trkpt><trkpt lat="45.96701794647702" lon="12.426432098413857"><ele>67.75</ele><time>2026-03-29T09:02:54.001Z</time></trkpt><trkpt lat="45.96698543939348" lon="12.426271390169235"><ele>68.5</ele><time>2026-03-29T09:02:56.001Z</time></trkpt><trkpt lat="45.96698494439837" lon="12.426134008393023"><ele>69.25</ele><time>2026-03-29T09:02:57.001Z</time></trkpt><trkpt lat="45.9669871542697" lon="12.425970347968438"><ele>70.0</ele><time>2026-03-29T09:02:58.001Z</time></trkpt><trkpt lat="45.9669900818329" lon="12.42579019539454"><ele>70.0</ele><time>2026-03-29T09:02:59.001Z</time></trkpt><trkpt lat="45.96699410261381" lon="12.425604609302118"><ele>70.0</ele><time>2026-03-29T09:03:00.001Z</time></trkpt><trkpt lat="45.966998206212345" lon="12.425420771432032"><ele>70.0</ele><time>2026-03-29T09:03:01.001Z</time></trkpt><trkpt lat="45.96699677576267" lon="12.425243257578206"><ele>70.0</ele><time>2026-03-29T09:03:02.001Z</time></trkpt><trkpt lat="45.96698723909535" lon="12.425081657110196"><ele>70.0</ele><time>2026-03-29T09:03:03.001Z</time></trkpt><trkpt lat="45.96696485009208" lon="12.424915429872156"><ele>70.0</ele><time>2026-03-29T09:03:04.001Z</time></trkpt><trkpt lat="45.966937554551116" lon="12.424734858496848"><ele>70.0</ele><time>2026-03-29T09:03:05.001Z</time></trkpt><trkpt lat="45.96691161990236" lon="12.424543038654646"><ele>70.0</ele><time>2026-03-29T09:03:06.001Z</time></trkpt><trkpt lat="45.96688752371943" lon="12.424345967004971"><ele>70.0</ele><time>2026-03-29T09:03:07.001Z</time></trkpt><trkpt lat="45.96686303783157" lon="12.424166920619651"><ele>70.0</ele><time>2026-03-29T09:03:08.001Z</time></trkpt><trkpt lat="45.96684272627018" lon="12.4240053019604"><ele>70.0</ele><time>2026-03-29T09:03:09.001Z</time></trkpt><trkpt lat="45.96682605134863" lon="12.423854694851777"><ele>70.0</ele><time>2026-03-29T09:03:10.001Z</time></trkpt><trkpt lat="45.96680953207722" lon="12.423712111586164"><ele>70.0</ele><time>2026-03-29T09:03:11.001Z</time></trkpt><trkpt lat="45.96679714555447" lon="12.4235697251678"><ele>71.0</ele><time>2026-03-29T09:03:12.001Z</time></trkpt><trkpt lat="45.96679595619754" lon="12.423407194389506"><ele>72.0</ele><time>2026-03-29T09:03:13.001Z</time></trkpt><trkpt lat="45.966802195324384" lon="12.42322835902693"><ele>73.0</ele><time>2026-03-29T09:03:14.001Z</time></trkpt><trkpt lat="45.96680668248219" lon="12.423037898700501"><ele>74.0</ele><time>2026-03-29T09:03:15.001Z</time></trkpt><trkpt lat="45.96680960002178" lon="12.422842219455513"><ele>75.25</ele><time>2026-03-29T09:03:16.001Z</time></trkpt><trkpt lat="45.966808761926146" lon="12.422635340732416"><ele>76.5</ele><time>2026-03-29T09:03:17.001Z</time></trkpt><trkpt lat="45.9667989609802" lon="12.422420649896237"><ele>77.75</ele><time>2026-03-29T09:03:18.001Z</time></trkpt><trkpt lat="45.9667893469415" lon="12.422232901070801"><ele>79.0</ele><time>2026-03-29T09:03:19.001Z</time></trkpt><trkpt lat="45.966781856764506" lon="12.422063713254495"><ele>80.6</ele><time>2026-03-29T09:03:20.001Z</time></trkpt><trkpt lat="45.96677594550792" lon="12.421898043325363"><ele>82.2</ele><time>2026-03-29T09:03:21.001Z</time></trkpt><trkpt lat="45.966775897870036" lon="12.421748961923488"><ele>83.8</ele><time>2026-03-29T09:03:22.001Z</time></trkpt><trkpt lat="45.96677462898829" lon="12.421616855535573"><ele>85.39999999999999</ele><time>2026-03-29T09:03:23.001Z</time></trkpt><trkpt lat="45.966778338539285" lon="12.421444646029638"><ele>87.0</ele><time>2026-03-29T09:03:24.001Z</time></trkpt><trkpt lat="45.966793133571365" lon="12.421237169888652"><ele>90.5</ele><time>2026-03-29T09:03:25.001Z</time></trkpt><trkpt lat="45.966799852424714" lon="12.421026956554128"><ele>94.0</ele><time>2026-03-29T09:03:26.001Z</time></trkpt><trkpt lat="45.966804614604676" lon="12.420817257848535"><ele>97.5</ele><time>2026-03-29T09:03:27.001Z</time></trkpt><trkpt lat="45.96681764083" lon="12.420604540165312"><ele>101.0</ele><time>2026-03-29T09:03:28.001Z</time></trkpt><trkpt lat="45.96683121782053" lon="12.420402844838419"><ele>103.0</ele><time>2026-03-29T09:03:29.001Z</time></trkpt><trkpt lat="45.966840599035514" lon="12.420213139610484"><ele>105.0</ele><time>2026-03-29T09:03:30.001Z</time></trkpt><trkpt lat="45.96684736561889" lon="12.420059491293674"><ele>107.0</ele><time>2026-03-29T09:03:31.001Z</time></trkpt><trkpt lat="45.96686301480134" lon="12.419917832063263"><ele>109.0</ele><time>2026-03-29T09:03:32.001Z</time></trkpt><trkpt lat="45.96690127831444" lon="12.419764929335157"><ele>108.25</ele><time>2026-03-29T09:03:33.001Z</time></trkpt><trkpt lat="45.966953704100995" lon="12.41959197318697"><ele>107.5</ele><time>2026-03-29T09:03:34.001Z</time></trkpt><trkpt lat="45.967014529850765" lon="12.419400738687916"><ele>106.75</ele><time>2026-03-29T09:03:35.001Z</time></trkpt><trkpt lat="45.967078992654265" lon="12.419195106180286"><ele>106.0</ele><time>2026-03-29T09:03:36.001Z</time></trkpt><trkpt lat="45.96715029342131" lon="12.41898766547235"><ele>104.5</ele><time>2026-03-29T09:03:37Z</time></trkpt><trkpt lat="45.967211205461304" lon="12.41877574348285"><ele>103.0</ele><time>2026-03-29T09:03:38Z</time></trkpt><trkpt lat="45.96726503493057" lon="12.418570977384164"><ele>101.5</ele><time>2026-03-29T09:03:39Z</time></trkpt><trkpt lat="45.96729973785323" lon="12.418384964958147"><ele>100.0</ele><time>2026-03-29T09:03:40Z</time></trkpt><trkpt lat="45.96733333116743" lon="12.418209296405552"><ele>100.0</ele><time>2026-03-29T09:03:41Z</time></trkpt><trkpt lat="45.96737061425022" lon="12.418030404745974"><ele>100.0</ele><time>2026-03-29T09:03:42Z</time></trkpt><trkpt lat="45.967419039788076" lon="12.417852083889096"><ele>100.0</ele><time>2026-03-29T09:03:43Z</time></trkpt><trkpt lat="45.967484286000904" lon="12.417666619054009"><ele>100.0</ele><time>2026-03-29T09:03:44Z</time></trkpt><trkpt lat="45.96755971430748" lon="12.417490578701551"><ele>100.75</ele><time>2026-03-29T09:03:45Z</time></trkpt><trkpt lat="45.96762508209216" lon="12.417316954767267"><ele>101.5</ele><time>2026-03-29T09:03:46Z</time></trkpt><trkpt lat="45.967678805138604" lon="12.417160787934604"><ele>102.25</ele><time>2026-03-29T09:03:47Z</time></trkpt><trkpt lat="45.96773311578782" lon="12.41700880884646"><ele>103.0</ele><time>2026-03-29T09:03:48Z</time></trkpt><trkpt lat="45.967783323442305" lon="12.416849770944207"><ele>103.0</ele><time>2026-03-29T09:03:49Z</time></trkpt><trkpt lat="45.96783031504644" lon="12.416680718077737"><ele>103.0</ele><time>2026-03-29T09:03:50Z</time></trkpt><trkpt lat="45.96785986037305" lon="12.41651486589258"><ele>103.0</ele><time>2026-03-29T09:03:51Z</time></trkpt><trkpt lat="45.96788324917745" lon="12.416354542725195"><ele>103.0</ele><time>2026-03-29T09:03:52Z</time></trkpt><trkpt lat="45.9679083861453" lon="12.41619801375958"><ele>99.75</ele><time>2026-03-29T09:03:53Z</time></trkpt><trkpt lat="45.96793536542702" lon="12.416038555942688"><ele>96.5</ele><time>2026-03-29T09:03:54Z</time></trkpt><trkpt lat="45.9679549289217" lon="12.415878242449295"><ele>93.25</ele><time>2026-03-29T09:03:55Z</time></trkpt><trkpt lat="45.96798419443892" lon="12.415713952560898"><ele>90.0</ele><time>2026-03-29T09:03:56Z</time></trkpt><trkpt lat="45.96799702027286" lon="12.415551645848504"><ele>89.0</ele><time>2026-03-29T09:03:57Z</time></trkpt><trkpt lat="45.96799485527653" lon="12.415385907970492"><ele>88.0</ele><time>2026-03-29T09:03:58Z</time></trkpt><trkpt lat="45.96797759924417" lon="12.415230059458382"><ele>87.0</ele><time>2026-03-29T09:03:59Z</time></trkpt><trkpt lat="45.967938983421774" lon="12.415081692226325"><ele>86.0</ele><time>2026-03-29T09:04:00Z</time></trkpt><trkpt lat="45.96788683898041" lon="12.414929663070918"><ele>86.0</ele><time>2026-03-29T09:04:01Z</time></trkpt><trkpt lat="45.967833221340356" lon="12.414784509936306"><ele>86.0</ele><time>2026-03-29T09:04:02Z</time></trkpt><trkpt lat="45.96779143190606" lon="12.414645830088492"><ele>86.0</ele><time>2026-03-29T09:04:03Z</time></trkpt><trkpt lat="45.96775190354912" lon="12.41448951861497"><ele>86.0</ele><time>2026-03-29T09:04:04Z</time></trkpt><trkpt lat="45.96772087517619" lon="12.414339457736473"><ele>86.0</ele><time>2026-03-29T09:04:05Z</time></trkpt><trkpt lat="45.96769059259003" lon="12.414205894522983"><ele>86.0</ele><time>2026-03-29T09:04:06Z</time></trkpt><trkpt lat="45.967653609091336" lon="12.414099771046814"><ele>86.0</ele><time>2026-03-29T09:04:07Z</time></trkpt><trkpt lat="45.9676229682238" lon="12.414008860696438"><ele>86.0</ele><time>2026-03-29T09:04:08Z</time></trkpt><trkpt lat="45.96762410077338" lon="12.413897801531922"><ele>86.0</ele><time>2026-03-29T09:04:10Z</time></trkpt><trkpt lat="45.967679532903354" lon="12.413808058839896"><ele>86.0</ele><time>2026-03-29T09:04:12Z</time></trkpt><trkpt lat="45.9677380621606" lon="12.413768251474929"><ele>86.0</ele><time>2026-03-29T09:04:13Z</time></trkpt><trkpt lat="45.967815136689005" lon="12.413718357851264"><ele>86.8</ele><time>2026-03-29T09:04:14Z</time></trkpt><trkpt lat="45.96790707673001" lon="12.413656707602527"><ele>87.6</ele><time>2026-03-29T09:04:15Z</time></trkpt><trkpt lat="45.96800055097408" lon="12.41359808907926"><ele>88.4</ele><time>2026-03-29T09:04:16Z</time></trkpt><trkpt lat="45.96809904104888" lon="12.413530349673865"><ele>89.2</ele><time>2026-03-29T09:04:17Z</time></trkpt><trkpt lat="45.96820868902461" lon="12.413437306012828"><ele>90.0</ele><time>2026-03-29T09:04:18Z</time></trkpt><trkpt lat="45.96832576848419" lon="12.413320179750235"><ele>92.0</ele><time>2026-03-29T09:04:19Z</time></trkpt><trkpt lat="45.96844200870739" lon="12.413193168373436"><ele>94.0</ele><time>2026-03-29T09:04:20Z</time></trkpt><trkpt lat="45.96855105152686" lon="12.413070315415752"><ele>96.0</ele><time>2026-03-29T09:04:21Z</time></trkpt><trkpt lat="45.96866222045518" lon="12.41295267299777"><ele>98.0</ele><time>2026-03-29T09:04:22Z</time></trkpt><trkpt lat="45.96877480027593" lon="12.412839509865993"><ele>98.0</ele><time>2026-03-29T09:04:23Z</time></trkpt><trkpt lat="45.96889145088965" lon="12.412725522286783"><ele>98.0</ele><time>2026-03-29T09:04:24Z</time></trkpt><trkpt lat="45.9690099497103" lon="12.41261305758447"><ele>98.0</ele><time>2026-03-29T09:04:25Z</time></trkpt><trkpt lat="45.96912229467712" lon="12.412503341660559"><ele>98.0</ele><time>2026-03-29T09:04:26Z</time></trkpt><trkpt lat="45.96923570549498" lon="12.41239138670243"><ele>99.75</ele><time>2026-03-29T09:04:27Z</time></trkpt><trkpt lat="45.96935347546214" lon="12.412279376263646"><ele>101.5</ele><time>2026-03-29T09:04:28Z</time></trkpt><trkpt lat="45.96947077293866" lon="12.412177898381628"><ele>103.25</ele><time>2026-03-29T09:04:29Z</time></trkpt><trkpt lat="45.96959330402075" lon="12.412105236880492"><ele>105.0</ele><time>2026-03-29T09:04:30Z</time></trkpt><trkpt lat="45.969720904965584" lon="12.412066950643435"><ele>105.0</ele><time>2026-03-29T09:04:31Z</time></trkpt><trkpt lat="45.96985213706651" lon="12.412058924069798"><ele>105.0</ele><time>2026-03-29T09:04:32Z</time></trkpt><trkpt lat="45.969984418825916" lon="12.412071608013292"><ele>105.0</ele><time>2026-03-29T09:04:33Z</time></trkpt><trkpt lat="45.970115065799845" lon="12.412097342292084"><ele>105.0</ele><time>2026-03-29T09:04:34Z</time></trkpt><trkpt lat="45.97023853996664" lon="12.412138473418137"><ele>106.5</ele><time>2026-03-29T09:04:35Z</time></trkpt><trkpt lat="45.970350280022274" lon="12.412212193539117"><ele>108.0</ele><time>2026-03-29T09:04:36Z</time></trkpt><trkpt lat="45.97044588337106" lon="12.412313740464588"><ele>109.5</ele><time>2026-03-29T09:04:37Z</time></trkpt><trkpt lat="45.970518644779816" lon="12.412431707197493"><ele>111.0</ele><time>2026-03-29T09:04:38Z</time></trkpt><trkpt lat="45.97057336640558" lon="12.412571397376666"><ele>111.0</ele><time>2026-03-29T09:04:39Z</time></trkpt><trkpt lat="45.97061571142819" lon="12.41273292226052"><ele>111.0</ele><time>2026-03-29T09:04:40Z</time></trkpt><trkpt lat="45.970642895727266" lon="12.412916181452264"><ele>111.0</ele><time>2026-03-29T09:04:41Z</time></trkpt><trkpt lat="45.9706452837335" lon="12.413113846660485"><ele>111.0</ele><time>2026-03-29T09:04:42Z</time></trkpt><trkpt lat="45.97063225565547" lon="12.41331770838969"><ele>111.8</ele><time>2026-03-29T09:04:43Z</time></trkpt><trkpt lat="45.97061339438784" lon="12.41350235379879"><ele>112.6</ele><time>2026-03-29T09:04:44Z</time></trkpt><trkpt lat="45.97059891774893" lon="12.413653133972039"><ele>113.4</ele><time>2026-03-29T09:04:45Z</time></trkpt><trkpt lat="45.97060563549991" lon="12.413786514970331"><ele>114.2</ele><time>2026-03-29T09:04:46Z</time></trkpt><trkpt lat="45.9706458109181" lon="12.41390480480874"><ele>115.0</ele><time>2026-03-29T09:04:47Z</time></trkpt><trkpt lat="45.97071241308868" lon="12.413987191421885"><ele>115.4</ele><time>2026-03-29T09:04:48Z</time></trkpt><trkpt lat="45.97080021575549" lon="12.414031412940465"><ele>115.8</ele><time>2026-03-29T09:04:49Z</time></trkpt><trkpt lat="45.97090891545195" lon="12.4140369263029"><ele>116.19999999999999</ele><time>2026-03-29T09:04:50Z</time></trkpt><trkpt lat="45.97102695094298" lon="12.414031552910663"><ele>116.6</ele><time>2026-03-29T09:04:51.001Z</time></trkpt><trkpt lat="45.97111739840187" lon="12.41409341171458"><ele>117.0</ele><time>2026-03-29T09:04:52.001Z</time></trkpt><trkpt lat="45.97117841787267" lon="12.414200487611893"><ele>119.0</ele><time>2026-03-29T09:04:53.001Z</time></trkpt><trkpt lat="45.97122890308932" lon="12.414357917902848"><ele>121.0</ele><time>2026-03-29T09:04:54.001Z</time></trkpt><trkpt lat="45.971261835309285" lon="12.414556393407885"><ele>123.0</ele><time>2026-03-29T09:04:55.001Z</time></trkpt><trkpt lat="45.97127880718619" lon="12.414758819487865"><ele>125.0</ele><time>2026-03-29T09:04:56.001Z</time></trkpt><trkpt lat="45.97129302439459" lon="12.414930273483629"><ele>126.0</ele><time>2026-03-29T09:04:57.001Z</time></trkpt><trkpt lat="45.97132107988229" lon="12.415086379722423"><ele>127.0</ele><time>2026-03-29T09:04:58.001Z</time></trkpt><trkpt lat="45.971370069901184" lon="12.415220308856854"><ele>128.0</ele><time>2026-03-29T09:04:59.001Z</time></trkpt><trkpt lat="45.971430845206484" lon="12.415320209107243"><ele>129.0</ele><time>2026-03-29T09:05:00.001Z</time></trkpt><trkpt lat="45.971497316645106" lon="12.415395793851957"><ele>130.0</ele><time>2026-03-29T09:05:01.001Z</time></trkpt><trkpt lat="45.97156539017932" lon="12.415439996067729"><ele>130.0</ele><time>2026-03-29T09:05:02.001Z</time></trkpt><trkpt lat="45.97162860941195" lon="12.415440586395352"><ele>130.0</ele><time>2026-03-29T09:05:03.001Z</time></trkpt><trkpt lat="45.97169395263625" lon="12.415400896594319"><ele>130.0</ele><time>2026-03-29T09:05:04.001Z</time></trkpt><trkpt lat="45.97176439556938" lon="12.415324213812482"><ele>130.0</ele><time>2026-03-29T09:05:05.001Z</time></trkpt><trkpt lat="45.97183317234572" lon="12.41523711302031"><ele>130.0</ele><time>2026-03-29T09:05:06.001Z</time></trkpt><trkpt lat="45.97191886087209" lon="12.415193161939973"><ele>130.0</ele><time>2026-03-29T09:05:07.001Z</time></trkpt><trkpt lat="45.97203003453165" lon="12.415159348547457"><ele>133.66666666666669</ele><time>2026-03-29T09:05:08.001Z</time></trkpt><trkpt lat="45.972163662786926" lon="12.415083727457654"><ele>137.33333333333334</ele><time>2026-03-29T09:05:09.001Z</time></trkpt><trkpt lat="45.97231616254602" lon="12.414975265338171"><ele>141.0</ele><time>2026-03-29T09:05:10.001Z</time></trkpt><trkpt lat="45.9724811803284" lon="12.414849807210235"><ele>146.0</ele><time>2026-03-29T09:05:11.001Z</time></trkpt><trkpt lat="45.97261613827292" lon="12.414742685219128"><ele>151.0</ele><time>2026-03-29T09:05:12.001Z</time></trkpt><trkpt lat="45.97273126347658" lon="12.414634095715652"><ele>156.0</ele><time>2026-03-29T09:05:13.001Z</time></trkpt><trkpt lat="45.97281278440351" lon="12.414506346713942"><ele>161.0</ele><time>2026-03-29T09:05:14.001Z</time></trkpt><trkpt lat="45.972857799573866" lon="12.414343918420679"><ele>161.0</ele><time>2026-03-29T09:05:15.001Z</time></trkpt><trkpt lat="45.9728915020747" lon="12.414145537311276"><ele>161.0</ele><time>2026-03-29T09:05:16.001Z</time></trkpt><trkpt lat="45.972936629801325" lon="12.4139350189793"><ele>161.0</ele><time>2026-03-29T09:05:17.001Z</time></trkpt><trkpt lat="45.97300927600117" lon="12.413772064245098"><ele>161.0</ele><time>2026-03-29T09:05:18.001Z</time></trkpt><trkpt lat="45.973090874444196" lon="12.413653149985624"><ele>161.83333333333331</ele><time>2026-03-29T09:05:19.001Z</time></trkpt><trkpt lat="45.97317958189686" lon="12.4135443496564"><ele>162.66666666666666</ele><time>2026-03-29T09:05:20.001Z</time></trkpt><trkpt lat="45.97326697101953" lon="12.413462872800686"><ele>163.5</ele><time>2026-03-29T09:05:21.001Z</time></trkpt><trkpt lat="45.97334292500293" lon="12.41340781011601"><ele>164.33333333333334</ele><time>2026-03-29T09:05:22.001Z</time></trkpt><trkpt lat="45.97341249726986" lon="12.413407272790147"><ele>165.16666666666669</ele><time>2026-03-29T09:05:23.001Z</time></trkpt><trkpt lat="45.97346797605133" lon="12.413460961772353"><ele>166.0</ele><time>2026-03-29T09:05:24.001Z</time></trkpt><trkpt lat="45.97350025042403" lon="12.413548937116357"><ele>166.0</ele><time>2026-03-29T09:05:25.001Z</time></trkpt><trkpt lat="45.97349404172181" lon="12.413656718515341"><ele>166.0</ele><time>2026-03-29T09:05:26.001Z</time></trkpt><trkpt lat="45.9734510079941" lon="12.413760353720718"><ele>166.0</ele><time>2026-03-29T09:05:27.001Z</time></trkpt><trkpt lat="45.97339343487986" lon="12.413866408152128"><ele>166.0</ele><time>2026-03-29T09:05:28.001Z</time></trkpt><trkpt lat="45.973355584776726" lon="12.414005302227537"><ele>166.0</ele><time>2026-03-29T09:05:29.001Z</time></trkpt><trkpt lat="45.973359742598504" lon="12.414167774996768"><ele>170.5</ele><time>2026-03-29T09:05:30.001Z</time></trkpt><trkpt lat="45.97339303189162" lon="12.414338988183422"><ele>175.0</ele><time>2026-03-29T09:05:31.001Z</time></trkpt><trkpt lat="45.9734505032269" lon="12.414530567561622"><ele>179.5</ele><time>2026-03-29T09:05:32.001Z</time></trkpt><trkpt lat="45.97352059917726" lon="12.414744593307438"><ele>184.0</ele><time>2026-03-29T09:05:33.001Z</time></trkpt><trkpt lat="45.97361110528749" lon="12.414952165568119"><ele>184.0</ele><time>2026-03-29T09:05:34.001Z</time></trkpt><trkpt lat="45.973700277282276" lon="12.415128222260575"><ele>184.0</ele><time>2026-03-29T09:05:35.001Z</time></trkpt><trkpt lat="45.973782916988796" lon="12.415281837536586"><ele>184.0</ele><time>2026-03-29T09:05:36.001Z</time></trkpt><trkpt lat="45.97387437734462" lon="12.415423579641507"><ele>184.0</ele><time>2026-03-29T09:05:37.001Z</time></trkpt><trkpt lat="45.97396970895823" lon="12.415555535438777"><ele>185.5</ele><time>2026-03-29T09:05:38.001Z</time></trkpt><trkpt lat="45.97407298699527" lon="12.415663641896284"><ele>187.0</ele><time>2026-03-29T09:05:39.001Z</time></trkpt><trkpt lat="45.97418172484519" lon="12.415750515390679"><ele>188.5</ele><time>2026-03-29T09:05:40.001Z</time></trkpt><trkpt lat="45.97430855051702" lon="12.415814408794503"><ele>190.0</ele><time>2026-03-29T09:05:41.001Z</time></trkpt><trkpt lat="45.97444928765079" lon="12.415849734912536"><ele>190.0</ele><time>2026-03-29T09:05:42.001Z</time></trkpt><trkpt lat="45.97458697796195" lon="12.415858033953727"><ele>190.0</ele><time>2026-03-29T09:05:43Z</time></trkpt><trkpt lat="45.974726308863254" lon="12.415832701204593"><ele>190.0</ele><time>2026-03-29T09:05:44Z</time></trkpt><trkpt lat="45.97486485139287" lon="12.415780472950715"><ele>190.0</ele><time>2026-03-29T09:05:45Z</time></trkpt><trkpt lat="45.97499527102318" lon="12.415693253885452"><ele>194.33333333333334</ele><time>2026-03-29T09:05:46Z</time></trkpt><trkpt lat="45.9751315637944" lon="12.415562700090298"><ele>198.66666666666669</ele><time>2026-03-29T09:05:47Z</time></trkpt><trkpt lat="45.975275251447066" lon="12.415393720401346"><ele>203.0</ele><time>2026-03-29T09:05:48Z</time></trkpt><trkpt lat="45.9754246839607" lon="12.415201551825971"><ele>203.0</ele><time>2026-03-29T09:05:49Z</time></trkpt><trkpt lat="45.975590326134565" lon="12.41498837086151"><ele>203.0</ele><time>2026-03-29T09:05:50Z</time></trkpt><trkpt lat="45.97575382991066" lon="12.414789675272331"><ele>203.0</ele><time>2026-03-29T09:05:51Z</time></trkpt><trkpt lat="45.97589398890168" lon="12.414614631206982"><ele>204.75</ele><time>2026-03-29T09:05:52Z</time></trkpt><trkpt lat="45.97602029612405" lon="12.414460324022782"><ele>206.5</ele><time>2026-03-29T09:05:53Z</time></trkpt><trkpt lat="45.97613291975616" lon="12.414324048119214"><ele>208.25</ele><time>2026-03-29T09:05:54Z</time></trkpt><trkpt lat="45.97622694337008" lon="12.41420328303455"><ele>210.0</ele><time>2026-03-29T09:05:55Z</time></trkpt><trkpt lat="45.976304177972466" lon="12.414085376871505"><ele>210.0</ele><time>2026-03-29T09:05:56Z</time></trkpt><trkpt lat="45.97637061922398" lon="12.413949386428122"><ele>210.0</ele><time>2026-03-29T09:05:57Z</time></trkpt><trkpt lat="45.97644475799754" lon="12.413774348381466"><ele>210.0</ele><time>2026-03-29T09:05:58Z</time></trkpt><trkpt lat="45.97650885553809" lon="12.413598309870762"><ele>210.0</ele><time>2026-03-29T09:05:59Z</time></trkpt><trkpt lat="45.97656611642127" lon="12.413413680147544"><ele>208.33333333333331</ele><time>2026-03-29T09:06:00Z</time></trkpt><trkpt lat="45.97661101079213" lon="12.413205955062692"><ele>206.66666666666666</ele><time>2026-03-29T09:06:01Z</time></trkpt><trkpt lat="45.97664079628497" lon="12.41295704033178"><ele>205.0</ele><time>2026-03-29T09:06:02Z</time></trkpt><trkpt lat="45.97665538183845" lon="12.412690427112722"><ele>204.66666666666666</ele><time>2026-03-29T09:06:03Z</time></trkpt><trkpt lat="45.97667007872345" lon="12.412437755527195"><ele>204.33333333333331</ele><time>2026-03-29T09:06:04Z</time></trkpt><trkpt lat="45.976698173930934" lon="12.4122041692394"><ele>204.0</ele><time>2026-03-29T09:06:05Z</time></trkpt><trkpt lat="45.97674340993255" lon="12.412003894092273"><ele>211.0</ele><time>2026-03-29T09:06:06Z</time></trkpt><trkpt lat="45.97680708526964" lon="12.411830169967697"><ele>218.0</ele><time>2026-03-29T09:06:07Z</time></trkpt><trkpt lat="45.97688790355335" lon="12.41165128917486"><ele>225.0</ele><time>2026-03-29T09:06:08Z</time></trkpt><trkpt lat="45.976994649301595" lon="12.411444922615757"><ele>223.66666666666669</ele><time>2026-03-29T09:06:09Z</time></trkpt><trkpt lat="45.977123223912805" lon="12.41118928257738"><ele>222.33333333333334</ele><time>2026-03-29T09:06:10Z</time></trkpt><trkpt lat="45.97725103867116" lon="12.410921221863783"><ele>221.0</ele><time>2026-03-29T09:06:11Z</time></trkpt><trkpt lat="45.977355528460386" lon="12.410708211890547"><ele>221.0</ele><time>2026-03-29T09:06:12Z</time></trkpt><trkpt lat="45.97745311338586" lon="12.410532725426869"><ele>221.0</ele><time>2026-03-29T09:06:13Z</time></trkpt><trkpt lat="45.9775506937537" lon="12.410407295489641"><ele>221.0</ele><time>2026-03-29T09:06:14Z</time></trkpt><trkpt lat="45.977644826579095" lon="12.410310209655798"><ele>221.0</ele><time>2026-03-29T09:06:15Z</time></trkpt><trkpt lat="45.977738940939815" lon="12.410232070939818"><ele>222.20000000000002</ele><time>2026-03-29T09:06:16Z</time></trkpt><trkpt lat="45.97783585631248" lon="12.410154876987518"><ele>223.40000000000003</ele><time>2026-03-29T09:06:17Z</time></trkpt><trkpt lat="45.97793238179068" lon="12.410089451034795"><ele>224.6</ele><time>2026-03-29T09:06:18Z</time></trkpt><trkpt lat="45.97803473929495" lon="12.410050615447618"><ele>225.8</ele><time>2026-03-29T09:06:19Z</time></trkpt><trkpt lat="45.97815044786119" lon="12.410027180632076"><ele>227.0</ele><time>2026-03-29T09:06:20Z</time></trkpt><trkpt lat="45.97827675434752" lon="12.410031463689597"><ele>228.25</ele><time>2026-03-29T09:06:21Z</time></trkpt><trkpt lat="45.9784138696326" lon="12.410062721244225"><ele>229.5</ele><time>2026-03-29T09:06:22Z</time></trkpt><trkpt lat="45.97854601573279" lon="12.410111649293558"><ele>230.75</ele><time>2026-03-29T09:06:23Z</time></trkpt><trkpt lat="45.97865091795538" lon="12.410186256238786"><ele>232.0</ele><time>2026-03-29T09:06:24Z</time></trkpt><trkpt lat="45.97875122928927" lon="12.410287574297655"><ele>232.0</ele><time>2026-03-29T09:06:25Z</time></trkpt><trkpt lat="45.97884132062957" lon="12.410413253529253"><ele>232.0</ele><time>2026-03-29T09:06:26Z</time></trkpt><trkpt lat="45.97892519434659" lon="12.410544660730254"><ele>232.0</ele><time>2026-03-29T09:06:27Z</time></trkpt><trkpt lat="45.97898654507198" lon="12.410668604894289"><ele>232.0</ele><time>2026-03-29T09:06:28Z</time></trkpt><trkpt lat="45.979041806986466" lon="12.410790126190753"><ele>234.0</ele><time>2026-03-29T09:06:29Z</time></trkpt><trkpt lat="45.97911328254392" lon="12.4109121300015"><ele>236.0</ele><time>2026-03-29T09:06:30Z</time></trkpt><trkpt lat="45.979188490155" lon="12.411021849538168"><ele>238.0</ele><time>2026-03-29T09:06:31Z</time></trkpt><trkpt lat="45.97927206320732" lon="12.411117727872918"><ele>240.0</ele><time>2026-03-29T09:06:32Z</time></trkpt><trkpt lat="45.97936275087599" lon="12.41120979677272"><ele>242.0</ele><time>2026-03-29T09:06:33Z</time></trkpt><trkpt lat="45.979468070775496" lon="12.411291615749173"><ele>246.75</ele><time>2026-03-29T09:06:34Z</time></trkpt><trkpt lat="45.97957968912668" lon="12.411341670850044"><ele>251.5</ele><time>2026-03-29T09:06:35Z</time></trkpt><trkpt lat="45.97969541551275" lon="12.41136713539212"><ele>256.25</ele><time>2026-03-29T09:06:36Z</time></trkpt><trkpt lat="45.97982013235827" lon="12.411365320382236"><ele>261.0</ele><time>2026-03-29T09:06:37Z</time></trkpt><trkpt lat="45.97995111230928" lon="12.41134767001987"><ele>258.75</ele><time>2026-03-29T09:06:38Z</time></trkpt><trkpt lat="45.980084417877116" lon="12.41130970088052"><ele>256.5</ele><time>2026-03-29T09:06:39Z</time></trkpt><trkpt lat="45.98022090989074" lon="12.411260842244962"><ele>254.25</ele><time>2026-03-29T09:06:40Z</time></trkpt><trkpt lat="45.980344541497544" lon="12.41122625012379"><ele>252.0</ele><time>2026-03-29T09:06:41Z</time></trkpt><trkpt lat="45.980465664549826" lon="12.411194129051685"><ele>252.0</ele><time>2026-03-29T09:06:42Z</time></trkpt><trkpt lat="45.98059152170793" lon="12.411159262046196"><ele>252.0</ele><time>2026-03-29T09:06:43Z</time></trkpt><trkpt lat="45.98071214090655" lon="12.411135057008881"><ele>252.0</ele><time>2026-03-29T09:06:44Z</time></trkpt><trkpt lat="45.98082052671219" lon="12.411113761227206"><ele>252.0</ele><time>2026-03-29T09:06:45Z</time></trkpt><trkpt lat="45.98092151047028" lon="12.411105781426004"><ele>251.0</ele><time>2026-03-29T09:06:46Z</time></trkpt><trkpt lat="45.981020722148145" lon="12.411128093975016"><ele>250.0</ele><time>2026-03-29T09:06:47Z</time></trkpt><trkpt lat="45.98111812016242" lon="12.411171959199878"><ele>249.0</ele><time>2026-03-29T09:06:48Z</time></trkpt><trkpt lat="45.981210420991125" lon="12.41123407747202"><ele>248.0</ele><time>2026-03-29T09:06:49Z</time></trkpt><trkpt lat="45.98129956974059" lon="12.411296304946408"><ele>247.0</ele><time>2026-03-29T09:06:50Z</time></trkpt><trkpt lat="45.98139205754366" lon="12.411333157613631"><ele>251.8</ele><time>2026-03-29T09:06:51Z</time></trkpt><trkpt lat="45.981495378108285" lon="12.411366044028181"><ele>256.6</ele><time>2026-03-29T09:06:52Z</time></trkpt><trkpt lat="45.9815891112178" lon="12.411364062484441"><ele>261.40000000000003</ele><time>2026-03-29T09:06:53Z</time></trkpt><trkpt lat="45.981689414657794" lon="12.411351329424598"><ele>266.2</ele><time>2026-03-29T09:06:54Z</time></trkpt><trkpt lat="45.98178934189859" lon="12.411327146839271"><ele>271.0</ele><time>2026-03-29T09:06:55Z</time></trkpt><trkpt lat="45.981875921959755" lon="12.411288956062323"><ele>272.5</ele><time>2026-03-29T09:06:56Z</time></trkpt><trkpt lat="45.98195773735517" lon="12.411241484481232"><ele>274.0</ele><time>2026-03-29T09:06:57.001Z</time></trkpt><trkpt lat="45.98203518193962" lon="12.4111887412172"><ele>275.5</ele><time>2026-03-29T09:06:58.001Z</time></trkpt><trkpt lat="45.98210294629498" lon="12.411136797426124"><ele>277.0</ele><time>2026-03-29T09:06:59.001Z</time></trkpt><trkpt lat="45.98217038578465" lon="12.411073427523048"><ele>278.5</ele><time>2026-03-29T09:07:00.001Z</time></trkpt><trkpt lat="45.982237996324045" lon="12.41099254523711"><ele>280.0</ele><time>2026-03-29T09:07:01.001Z</time></trkpt><trkpt lat="45.982304305163886" lon="12.410872284801027"><ele>280.0</ele><time>2026-03-29T09:07:02.001Z</time></trkpt><trkpt lat="45.982373915480224" lon="12.410734140454442"><ele>280.0</ele><time>2026-03-29T09:07:03.001Z</time></trkpt><trkpt lat="45.982450753408436" lon="12.410556049178672"><ele>280.0</ele><time>2026-03-29T09:07:04.001Z</time></trkpt><trkpt lat="45.98252352563235" lon="12.410351652716862"><ele>280.0</ele><time>2026-03-29T09:07:05.001Z</time></trkpt><trkpt lat="45.98259228889622" lon="12.410166087772206"><ele>282.0</ele><time>2026-03-29T09:07:06.001Z</time></trkpt><trkpt lat="45.98264731731742" lon="12.410000594908109"><ele>284.0</ele><time>2026-03-29T09:07:07.001Z</time></trkpt><trkpt lat="45.982703875343276" lon="12.409853146876085"><ele>286.0</ele><time>2026-03-29T09:07:08.001Z</time></trkpt><trkpt lat="45.98276295766108" lon="12.409717156589497"><ele>288.0</ele><time>2026-03-29T09:07:09.001Z</time></trkpt><trkpt lat="45.98283756724213" lon="12.409598734451686"><ele>288.0</ele><time>2026-03-29T09:07:10.001Z</time></trkpt><trkpt lat="45.98292306503893" lon="12.409483356839404"><ele>288.0</ele><time>2026-03-29T09:07:11.001Z</time></trkpt><trkpt lat="45.98303423070959" lon="12.409342450395282"><ele>288.0</ele><time>2026-03-29T09:07:12.001Z</time></trkpt><trkpt lat="45.98315484490637" lon="12.409184206883086"><ele>288.0</ele><time>2026-03-29T09:07:13.001Z</time></trkpt><trkpt lat="45.98325900165463" lon="12.409045340140942"><ele>288.0</ele><time>2026-03-29T09:07:14.001Z</time></trkpt><trkpt lat="45.98334593966798" lon="12.4089236205002"><ele>288.0</ele><time>2026-03-29T09:07:15.001Z</time></trkpt><trkpt lat="45.9834235792715" lon="12.408807158341123"><ele>288.0</ele><time>2026-03-29T09:07:16.001Z</time></trkpt><trkpt lat="45.98348260954825" lon="12.408693938265392"><ele>288.0</ele><time>2026-03-29T09:07:17.001Z</time></trkpt><trkpt lat="45.983515208984876" lon="12.408566061423961"><ele>288.0</ele><time>2026-03-29T09:07:18.001Z</time></trkpt><trkpt lat="45.983533980069204" lon="12.408422555922918"><ele>294.75</ele><time>2026-03-29T09:07:19.001Z</time></trkpt><trkpt lat="45.98354065768176" lon="12.408257208506638"><ele>301.5</ele><time>2026-03-29T09:07:20.001Z</time></trkpt><trkpt lat="45.983537562722134" lon="12.408067801751528"><ele>308.25</ele><time>2026-03-29T09:07:21.001Z</time></trkpt><trkpt lat="45.98352762547189" lon="12.407899141938971"><ele>315.0</ele><time>2026-03-29T09:07:22.001Z</time></trkpt><trkpt lat="45.98351791890992" lon="12.40776741588912"><ele>315.0</ele><time>2026-03-29T09:07:23.001Z</time></trkpt><trkpt lat="45.98351427503411" lon="12.407631878120533"><ele>315.0</ele><time>2026-03-29T09:07:24.001Z</time></trkpt><trkpt lat="45.98352712398816" lon="12.407481369408295"><ele>315.0</ele><time>2026-03-29T09:07:25.001Z</time></trkpt><trkpt lat="45.983567211699516" lon="12.407324088980335"><ele>315.0</ele><time>2026-03-29T09:07:26.001Z</time></trkpt><trkpt lat="45.983626218964325" lon="12.407175238042743"><ele>315.0</ele><time>2026-03-29T09:07:27.001Z</time></trkpt><trkpt lat="45.98368312563157" lon="12.407019952349218"><ele>314.25</ele><time>2026-03-29T09:07:28.001Z</time></trkpt><trkpt lat="45.98371630574971" lon="12.406841003808399"><ele>313.5</ele><time>2026-03-29T09:07:29.001Z</time></trkpt><trkpt lat="45.98373522350034" lon="12.406657507459007"><ele>312.75</ele><time>2026-03-29T09:07:30.001Z</time></trkpt><trkpt lat="45.98374306741968" lon="12.406483605133424"><ele>312.0</ele><time>2026-03-29T09:07:31.001Z</time></trkpt><trkpt lat="45.983760475288804" lon="12.406330591203762"><ele>310.0</ele><time>2026-03-29T09:07:32.001Z</time></trkpt><trkpt lat="45.98379088808462" lon="12.40619364423547"><ele>308.0</ele><time>2026-03-29T09:07:33.001Z</time></trkpt><trkpt lat="45.983838612108784" lon="12.406063615749964"><ele>306.0</ele><time>2026-03-29T09:07:34.001Z</time></trkpt><trkpt lat="45.98390795842936" lon="12.40594982574912"><ele>304.0</ele><time>2026-03-29T09:07:35.001Z</time></trkpt><trkpt lat="45.98399501682698" lon="12.40586309695625"><ele>302.0</ele><time>2026-03-29T09:07:36.001Z</time></trkpt><trkpt lat="45.98408826437445" lon="12.405808197491071"><ele>305.0</ele><time>2026-03-29T09:07:37.001Z</time></trkpt><trkpt lat="45.98419412450113" lon="12.405785812208324"><ele>308.0</ele><time>2026-03-29T09:07:38.001Z</time></trkpt><trkpt lat="45.98430014927864" lon="12.40575540026538"><ele>311.0</ele><time>2026-03-29T09:07:39.001Z</time></trkpt><trkpt lat="45.98438351876594" lon="12.405703712299108"><ele>314.0</ele><time>2026-03-29T09:07:40.001Z</time></trkpt><trkpt lat="45.98444997277393" lon="12.405650822493099"><ele>317.0</ele><time>2026-03-29T09:07:41.001Z</time></trkpt><trkpt lat="45.9845244336619" lon="12.405552757454302"><ele>315.0</ele><time>2026-03-29T09:07:43.001Z</time></trkpt><trkpt lat="45.98459498146424" lon="12.40540840857827"><ele>313.0</ele><time>2026-03-29T09:07:45.001Z</time></trkpt><trkpt lat="45.98464294301081" lon="12.40531828961883"><ele>311.0</ele><time>2026-03-29T09:07:46.001Z</time></trkpt><trkpt lat="45.98468824661406" lon="12.405222042633087"><ele>309.0</ele><time>2026-03-29T09:07:47.001Z</time></trkpt><trkpt lat="45.9847246870019" lon="12.405125994918915"><ele>307.0</ele><time>2026-03-29T09:07:48.001Z</time></trkpt><trkpt lat="45.984742663209" lon="12.405024192555851"><ele>305.0</ele><time>2026-03-29T09:07:49Z</time></trkpt><trkpt lat="45.98474616168726" lon="12.404909837896973"><ele>305.0</ele><time>2026-03-29T09:07:50Z</time></trkpt><trkpt lat="45.9847573639863" lon="12.404782209380574"><ele>305.0</ele><time>2026-03-29T09:07:51Z</time></trkpt><trkpt lat="45.98479230476827" lon="12.404655456293773"><ele>305.0</ele><time>2026-03-29T09:07:52Z</time></trkpt><trkpt lat="45.984848138346756" lon="12.404550659479963"><ele>305.0</ele><time>2026-03-29T09:07:53Z</time></trkpt><trkpt lat="45.9849051025821" lon="12.404467349877555"><ele>305.0</ele><time>2026-03-29T09:07:54Z</time></trkpt><trkpt lat="45.98495611941091" lon="12.404382549702818"><ele>305.0</ele><time>2026-03-29T09:07:55Z</time></trkpt><trkpt lat="45.98498461964636" lon="12.404273576334058"><ele>304.33333333333337</ele><time>2026-03-29T09:07:56Z</time></trkpt><trkpt lat="45.984997279588235" lon="12.404148460092367"><ele>303.6666666666667</ele><time>2026-03-29T09:07:57Z</time></trkpt><trkpt lat="45.98500177758934" lon="12.404014848251007"><ele>303.0</ele><time>2026-03-29T09:07:58Z</time></trkpt><trkpt lat="45.9849927028209" lon="12.403888441215054"><ele>302.3333333333333</ele><time>2026-03-29T09:07:59Z</time></trkpt><trkpt lat="45.98498314612422" lon="12.403768242092584"><ele>301.66666666666663</ele><time>2026-03-29T09:08:00Z</time></trkpt><trkpt lat="45.984979875810545" lon="12.40364995272624"><ele>301.0</ele><time>2026-03-29T09:08:01Z</time></trkpt><trkpt lat="45.984981904911336" lon="12.403530923855541"><ele>299.5</ele><time>2026-03-29T09:08:02Z</time></trkpt><trkpt lat="45.98497605087429" lon="12.403410759873365"><ele>298.0</ele><time>2026-03-29T09:08:03Z</time></trkpt><trkpt lat="45.98494941016987" lon="12.403295389196453"><ele>296.5</ele><time>2026-03-29T09:08:04Z</time></trkpt><trkpt lat="45.984913538282285" lon="12.403185169317982"><ele>295.0</ele><time>2026-03-29T09:08:05Z</time></trkpt><trkpt lat="45.98487872596892" lon="12.40307617952622"><ele>293.5</ele><time>2026-03-29T09:08:06Z</time></trkpt><trkpt lat="45.984855174188134" lon="12.40296426418735"><ele>292.0</ele><time>2026-03-29T09:08:07Z</time></trkpt><trkpt lat="45.98483870010549" lon="12.402852800860662"><ele>291.3333333333333</ele><time>2026-03-29T09:08:08Z</time></trkpt><trkpt lat="45.98482535507966" lon="12.402740294425849"><ele>290.66666666666663</ele><time>2026-03-29T09:08:09Z</time></trkpt><trkpt lat="45.98481315647772" lon="12.402622390217825"><ele>290.0</ele><time>2026-03-29T09:08:10Z</time></trkpt><trkpt lat="45.98481400576442" lon="12.402524127815818"><ele>289.3333333333333</ele><time>2026-03-29T09:08:11Z</time></trkpt><trkpt lat="45.98479808856208" lon="12.402375917995466"><ele>288.6666666666667</ele><time>2026-03-29T09:08:13Z</time></trkpt><trkpt lat="45.98482577931315" lon="12.40221846588537"><ele>288.0</ele><time>2026-03-29T09:08:15Z</time></trkpt><trkpt lat="45.98486160166954" lon="12.402138519321287"><ele>288.14285714285717</ele><time>2026-03-29T09:08:16Z</time></trkpt><trkpt lat="45.98490292559636" lon="12.402064366412013"><ele>288.2857142857143</ele><time>2026-03-29T09:08:17Z</time></trkpt><trkpt lat="45.984947364024606" lon="12.401992550594773"><ele>288.42857142857144</ele><time>2026-03-29T09:08:18Z</time></trkpt><trkpt lat="45.98499921488608" lon="12.40193195538718"><ele>288.57142857142856</ele><time>2026-03-29T09:08:19Z</time></trkpt><trkpt lat="45.98506276324098" lon="12.401889710712398"><ele>288.7142857142857</ele><time>2026-03-29T09:08:20Z</time></trkpt><trkpt lat="45.98513250658908" lon="12.401855058469277"><ele>288.8571428571429</ele><time>2026-03-29T09:08:21Z</time></trkpt><trkpt lat="45.985206326671694" lon="12.401822041396482"><ele>289.0</ele><time>2026-03-29T09:08:22Z</time></trkpt><trkpt lat="45.98526995979885" lon="12.401772175952285"><ele>289.0</ele><time>2026-03-29T09:08:23Z</time></trkpt><trkpt lat="45.98531977075532" lon="12.401685728086948"><ele>289.0</ele><time>2026-03-29T09:08:24Z</time></trkpt><trkpt lat="45.985343632708904" lon="12.401577096247305"><ele>289.0</ele><time>2026-03-29T09:08:25Z</time></trkpt><trkpt lat="45.98534842792003" lon="12.401449873637507"><ele>289.0</ele><time>2026-03-29T09:08:26Z</time></trkpt><trkpt lat="45.98535242851837" lon="12.401310282064195"><ele>289.0</ele><time>2026-03-29T09:08:27Z</time></trkpt><trkpt lat="45.985369286427805" lon="12.401160853618617"><ele>289.0</ele><time>2026-03-29T09:08:28Z</time></trkpt><trkpt lat="45.98539782776448" lon="12.401006726873032"><ele>287.8</ele><time>2026-03-29T09:08:29Z</time></trkpt><trkpt lat="45.985426239838695" lon="12.400848484254283"><ele>286.59999999999997</ele><time>2026-03-29T09:08:30Z</time></trkpt><trkpt lat="45.985452631336166" lon="12.40070653223102"><ele>285.4</ele><time>2026-03-29T09:08:31Z</time></trkpt><trkpt lat="45.98548445088454" lon="12.400588761577435"><ele>284.2</ele><time>2026-03-29T09:08:32Z</time></trkpt><trkpt lat="45.98551484000061" lon="12.400486617757494"><ele>283.0</ele><time>2026-03-29T09:08:33Z</time></trkpt><trkpt lat="45.985520115309114" lon="12.400381065667636"><ele>283.0</ele><time>2026-03-29T09:08:34Z</time></trkpt><trkpt lat="45.98550637966537" lon="12.400273387025663"><ele>283.0</ele><time>2026-03-29T09:08:35Z</time></trkpt><trkpt lat="45.98548233218636" lon="12.40017806598632"><ele>283.0</ele><time>2026-03-29T09:08:36Z</time></trkpt><trkpt lat="45.985454436478314" lon="12.399988914241058"><ele>283.0</ele><time>2026-03-29T09:08:38Z</time></trkpt><trkpt lat="45.98545023419545" lon="12.399857720351454"><ele>283.0</ele><time>2026-03-29T09:08:39Z</time></trkpt><trkpt lat="45.98544435816847" lon="12.399707853270339"><ele>281.4</ele><time>2026-03-29T09:08:40Z</time></trkpt><trkpt lat="45.985438104154454" lon="12.399553360300416"><ele>279.8</ele><time>2026-03-29T09:08:41Z</time></trkpt><trkpt lat="45.98543043574822" lon="12.399402924114321"><ele>278.2</ele><time>2026-03-29T09:08:42Z</time></trkpt><trkpt lat="45.98542168132941" lon="12.39925066367747"><ele>276.6</ele><time>2026-03-29T09:08:43Z</time></trkpt><trkpt lat="45.9854121064251" lon="12.399102940866422"><ele>275.0</ele><time>2026-03-29T09:08:44Z</time></trkpt><trkpt lat="45.98540317285779" lon="12.398959010256855"><ele>273.1666666666667</ele><time>2026-03-29T09:08:45Z</time></trkpt><trkpt lat="45.98540051911282" lon="12.398830196167168"><ele>271.33333333333337</ele><time>2026-03-29T09:08:46Z</time></trkpt><trkpt lat="45.98539923291858" lon="12.398705795370015"><ele>269.5</ele><time>2026-03-29T09:08:47Z</time></trkpt><trkpt lat="45.98539699438069" lon="12.398584635250202"><ele>267.6666666666667</ele><time>2026-03-29T09:08:48Z</time></trkpt><trkpt lat="45.98538930831234" lon="12.398463102884866"><ele>265.8333333333333</ele><time>2026-03-29T09:08:49Z</time></trkpt><trkpt lat="45.98537594524263" lon="12.398339765393242"><ele>264.0</ele><time>2026-03-29T09:08:50Z</time></trkpt><trkpt lat="45.98535662643612" lon="12.398212166987685"><ele>264.0</ele><time>2026-03-29T09:08:51Z</time></trkpt><trkpt lat="45.985336243407254" lon="12.398081045512198"><ele>264.0</ele><time>2026-03-29T09:08:52Z</time></trkpt><trkpt lat="45.98531882138608" lon="12.397942673166346"><ele>264.0</ele><time>2026-03-29T09:08:53Z</time></trkpt><trkpt lat="45.985310866835285" lon="12.397798055819242"><ele>264.0</ele><time>2026-03-29T09:08:54Z</time></trkpt><trkpt lat="45.9853048152491" lon="12.397649110010095"><ele>264.0</ele><time>2026-03-29T09:08:55Z</time></trkpt><trkpt lat="45.98530117160889" lon="12.397499224513464"><ele>262.0</ele><time>2026-03-29T09:08:56Z</time></trkpt><trkpt lat="45.985288292543636" lon="12.397351786989852"><ele>260.0</ele><time>2026-03-29T09:08:57Z</time></trkpt><trkpt lat="45.985280198938966" lon="12.397231538448725"><ele>258.0</ele><time>2026-03-29T09:08:58Z</time></trkpt><trkpt lat="45.98527562171336" lon="12.397080851859892"><ele>256.0</ele><time>2026-03-29T09:09:00Z</time></trkpt><trkpt lat="45.98529947834657" lon="12.396989902781808"><ele>254.0</ele><time>2026-03-29T09:09:03Z</time></trkpt><trkpt lat="45.9853704903776" lon="12.39699128416429"><ele>252.0</ele><time>2026-03-29T09:09:05.001Z</time></trkpt><trkpt lat="45.98544262055345" lon="12.397046976935423"><ele>252.0</ele><time>2026-03-29T09:09:06.001Z</time></trkpt><trkpt lat="45.9855096580785" lon="12.397115381835086"><ele>252.0</ele><time>2026-03-29T09:09:07.001Z</time></trkpt><trkpt lat="45.98558283314317" lon="12.397180352860119"><ele>252.0</ele><time>2026-03-29T09:09:08.001Z</time></trkpt><trkpt lat="45.985668064986676" lon="12.397246425665903"><ele>252.0</ele><time>2026-03-29T09:09:09.001Z</time></trkpt><trkpt lat="45.98575215562379" lon="12.397312966071711"><ele>252.0</ele><time>2026-03-29T09:09:10.001Z</time></trkpt><trkpt lat="45.985834443340174" lon="12.39736359662222"><ele>252.8</ele><time>2026-03-29T09:09:11.001Z</time></trkpt><trkpt lat="45.98591691928153" lon="12.397369955427942"><ele>253.6</ele><time>2026-03-29T09:09:12.001Z</time></trkpt><trkpt lat="45.98600045913249" lon="12.397336131969011"><ele>254.40000000000003</ele><time>2026-03-29T09:09:13.001Z</time></trkpt><trkpt lat="45.986083399976" lon="12.397265688629712"><ele>255.20000000000002</ele><time>2026-03-29T09:09:14.001Z</time></trkpt><trkpt lat="45.98617354068237" lon="12.397178864199294"><ele>256.0</ele><time>2026-03-29T09:09:15.001Z</time></trkpt><trkpt lat="45.986273552830156" lon="12.397090894590793"><ele>254.60000000000002</ele><time>2026-03-29T09:09:16.001Z</time></trkpt><trkpt lat="45.98637981661446" lon="12.396999405235476"><ele>253.20000000000002</ele><time>2026-03-29T09:09:17.001Z</time></trkpt><trkpt lat="45.98648299631175" lon="12.396923704284923"><ele>251.79999999999998</ele><time>2026-03-29T09:09:18.001Z</time></trkpt><trkpt lat="45.986581189469746" lon="12.396877107362718"><ele>250.39999999999998</ele><time>2026-03-29T09:09:19.001Z</time></trkpt><trkpt lat="45.986686001307966" lon="12.39685858370431"><ele>249.0</ele><time>2026-03-29T09:09:20.001Z</time></trkpt><trkpt lat="45.98680470792486" lon="12.396860082237268"><ele>249.0</ele><time>2026-03-29T09:09:21.001Z</time></trkpt><trkpt lat="45.986932194158925" lon="12.396863007374217"><ele>249.0</ele><time>2026-03-29T09:09:22.001Z</time></trkpt><trkpt lat="45.98706884829244" lon="12.396865122573015"><ele>249.0</ele><time>2026-03-29T09:09:23.001Z</time></trkpt><trkpt lat="45.98721295698234" lon="12.396863774453013"><ele>249.0</ele><time>2026-03-29T09:09:24.001Z</time></trkpt><trkpt lat="45.98735830113529" lon="12.396861410551107"><ele>249.0</ele><time>2026-03-29T09:09:25.001Z</time></trkpt><trkpt lat="45.98750246642912" lon="12.396857369191961"><ele>249.0</ele><time>2026-03-29T09:09:26.001Z</time></trkpt><trkpt lat="45.98764564766411" lon="12.396857541593421"><ele>249.0</ele><time>2026-03-29T09:09:27.001Z</time></trkpt><trkpt lat="45.98779157455033" lon="12.396874301258766"><ele>249.0</ele><time>2026-03-29T09:09:28.001Z</time></trkpt><trkpt lat="45.98794023081482" lon="12.396910057530933"><ele>248.0</ele><time>2026-03-29T09:09:29.001Z</time></trkpt><trkpt lat="45.988092158172385" lon="12.396961805705093"><ele>247.0</ele><time>2026-03-29T09:09:30.001Z</time></trkpt><trkpt lat="45.98824740597032" lon="12.397000967820247"><ele>246.0</ele><time>2026-03-29T09:09:31.001Z</time></trkpt><trkpt lat="45.98839823809197" lon="12.39702104092546"><ele>246.0</ele><time>2026-03-29T09:09:32.001Z</time></trkpt><trkpt lat="45.98853422186593" lon="12.39703240432563"><ele>246.0</ele><time>2026-03-29T09:09:33.001Z</time></trkpt><trkpt lat="45.98865801314266" lon="12.397049272002343"><ele>246.0</ele><time>2026-03-29T09:09:34.001Z</time></trkpt><trkpt lat="45.988767184528996" lon="12.397081923217927"><ele>246.0</ele><time>2026-03-29T09:09:35.001Z</time></trkpt><trkpt lat="45.98886823673942" lon="12.397154172940102"><ele>250.25</ele><time>2026-03-29T09:09:36.001Z</time></trkpt><trkpt lat="45.98897404824317" lon="12.39725633780753"><ele>254.5</ele><time>2026-03-29T09:09:37.001Z</time></trkpt><trkpt lat="45.98908125184376" lon="12.397373024232898"><ele>258.75</ele><time>2026-03-29T09:09:38.001Z</time></trkpt><trkpt lat="45.989190892450644" lon="12.397479732845138"><ele>263.0</ele><time>2026-03-29T09:09:39.001Z</time></trkpt><trkpt lat="45.98930714577384" lon="12.397535427214631"><ele>265.0</ele><time>2026-03-29T09:09:40.001Z</time></trkpt><trkpt lat="45.98943903984816" lon="12.397542814144174"><ele>267.0</ele><time>2026-03-29T09:09:41.001Z</time></trkpt><trkpt lat="45.989573498244134" lon="12.397506639373859"><ele>269.0</ele><time>2026-03-29T09:09:42.001Z</time></trkpt><trkpt lat="45.989688574213055" lon="12.397447711741037"><ele>271.0</ele><time>2026-03-29T09:09:43.001Z</time></trkpt><trkpt lat="45.98980027616244" lon="12.397362434948695"><ele>271.0</ele><time>2026-03-29T09:09:44.001Z</time></trkpt><trkpt lat="45.98991984985282" lon="12.397260062601179"><ele>271.0</ele><time>2026-03-29T09:09:45.001Z</time></trkpt><trkpt lat="45.99002328984176" lon="12.397172591338496"><ele>271.0</ele><time>2026-03-29T09:09:46.001Z</time></trkpt><trkpt lat="45.99010853176473" lon="12.397083117704799"><ele>271.0</ele><time>2026-03-29T09:09:47.001Z</time></trkpt><trkpt lat="45.99015903746549" lon="12.396973510847426"><ele>270.2</ele><time>2026-03-29T09:09:48.001Z</time></trkpt><trkpt lat="45.99018401458664" lon="12.39683997618907"><ele>269.40000000000003</ele><time>2026-03-29T09:09:49.001Z</time></trkpt><trkpt lat="45.99019173069913" lon="12.396693281716022"><ele>268.6</ele><time>2026-03-29T09:09:50.001Z</time></trkpt><trkpt lat="45.990191500592196" lon="12.39654581176368"><ele>267.8</ele><time>2026-03-29T09:09:51.001Z</time></trkpt><trkpt lat="45.99018590039056" lon="12.396387227068155"><ele>267.0</ele><time>2026-03-29T09:09:52.001Z</time></trkpt><trkpt lat="45.990176774090905" lon="12.3962272200517"><ele>267.0</ele><time>2026-03-29T09:09:53.001Z</time></trkpt><trkpt lat="45.990164571578916" lon="12.396063935881946"><ele>267.0</ele><time>2026-03-29T09:09:54.001Z</time></trkpt><trkpt lat="45.990156730504815" lon="12.395906178260425"><ele>267.0</ele><time>2026-03-29T09:09:55Z</time></trkpt><trkpt lat="45.990156982577396" lon="12.395768081843258"><ele>267.0</ele><time>2026-03-29T09:09:56Z</time></trkpt><trkpt lat="45.99017233516132" lon="12.395656836985587"><ele>267.0</ele><time>2026-03-29T09:09:57Z</time></trkpt><trkpt lat="45.99020802407479" lon="12.395563196085888"><ele>267.0</ele><time>2026-03-29T09:09:58Z</time></trkpt><trkpt lat="45.99026669320823" lon="12.395509812843484"><ele>267.0</ele><time>2026-03-29T09:09:59Z</time></trkpt><trkpt lat="45.99034004539012" lon="12.395484369604297"><ele>267.0</ele><time>2026-03-29T09:10:00Z</time></trkpt><trkpt lat="45.990421687770386" lon="12.39549022205733"><ele>267.0</ele><time>2026-03-29T09:10:01Z</time></trkpt><trkpt lat="45.990505386873735" lon="12.395539465355611"><ele>267.0</ele><time>2026-03-29T09:10:02Z</time></trkpt><trkpt lat="45.99060073058891" lon="12.395617390676243"><ele>267.0</ele><time>2026-03-29T09:10:03Z</time></trkpt><trkpt lat="45.990708893191375" lon="12.39570813665598"><ele>267.0</ele><time>2026-03-29T09:10:04Z</time></trkpt><trkpt lat="45.99083438196903" lon="12.39580044610652"><ele>267.0</ele><time>2026-03-29T09:10:05Z</time></trkpt><trkpt lat="45.99097080906525" lon="12.395889007272032"><ele>267.0</ele><time>2026-03-29T09:10:06Z</time></trkpt><trkpt lat="45.9911072031502" lon="12.395977237941748"><ele>267.0</ele><time>2026-03-29T09:10:07Z</time></trkpt><trkpt lat="45.99123663531327" lon="12.396064576216341"><ele>267.0</ele><time>2026-03-29T09:10:08Z</time></trkpt><trkpt lat="45.991362001151316" lon="12.396134280427791"><ele>267.0</ele><time>2026-03-29T09:10:09Z</time></trkpt><trkpt lat="45.99149097542751" lon="12.396174316714026"><ele>267.0</ele><time>2026-03-29T09:10:10Z</time></trkpt><trkpt lat="45.99162391910791" lon="12.396185439310141"><ele>267.0</ele><time>2026-03-29T09:10:11Z</time></trkpt><trkpt lat="45.99175426476961" lon="12.39616081205087"><ele>272.25</ele><time>2026-03-29T09:10:12Z</time></trkpt><trkpt lat="45.991881696068596" lon="12.396112208021538"><ele>277.5</ele><time>2026-03-29T09:10:13Z</time></trkpt><trkpt lat="45.99200318666062" lon="12.396040805422185"><ele>282.75</ele><time>2026-03-29T09:10:14Z</time></trkpt><trkpt lat="45.99211621153098" lon="12.395948444839707"><ele>288.0</ele><time>2026-03-29T09:10:15Z</time></trkpt><trkpt lat="45.99221168743648" lon="12.395838406274047"><ele>288.0</ele><time>2026-03-29T09:10:16Z</time></trkpt><trkpt lat="45.992291467930805" lon="12.395737985184732"><ele>288.0</ele><time>2026-03-29T09:10:17Z</time></trkpt><trkpt lat="45.99235927329525" lon="12.395648709994056"><ele>288.0</ele><time>2026-03-29T09:10:18Z</time></trkpt><trkpt lat="45.99240917667258" lon="12.395555625814078"><ele>288.0</ele><time>2026-03-29T09:10:19Z</time></trkpt><trkpt lat="45.99243601797844" lon="12.395453446645076"><ele>288.0</ele><time>2026-03-29T09:10:20Z</time></trkpt><trkpt lat="45.992431258434685" lon="12.395343524000852"><ele>288.0</ele><time>2026-03-29T09:10:21Z</time></trkpt><trkpt lat="45.99239812735415" lon="12.395216584902272"><ele>288.25</ele><time>2026-03-29T09:10:22Z</time></trkpt><trkpt lat="45.99234704824639" lon="12.395076996213023"><ele>288.5</ele><time>2026-03-29T09:10:23Z</time></trkpt><trkpt lat="45.99229835929076" lon="12.394914075150608"><ele>288.75</ele><time>2026-03-29T09:10:24Z</time></trkpt><trkpt lat="45.99228063266477" lon="12.394732341881468"><ele>289.0</ele><time>2026-03-29T09:10:25Z</time></trkpt><trkpt lat="45.99228595780167" lon="12.394532724463648"><ele>289.5</ele><time>2026-03-29T09:10:26Z</time></trkpt><trkpt lat="45.992295864932444" lon="12.394322625484795"><ele>290.0</ele><time>2026-03-29T09:10:27Z</time></trkpt><trkpt lat="45.99230522847373" lon="12.394114959151025"><ele>290.5</ele><time>2026-03-29T09:10:28Z</time></trkpt><trkpt lat="45.992308474983275" lon="12.3939223193041"><ele>291.0</ele><time>2026-03-29T09:10:29Z</time></trkpt><trkpt lat="45.99230278432684" lon="12.39374716919745"><ele>289.0</ele><time>2026-03-29T09:10:30Z</time></trkpt><trkpt lat="45.99228995188317" lon="12.393582434811176"><ele>287.0</ele><time>2026-03-29T09:10:31Z</time></trkpt><trkpt lat="45.99227976217467" lon="12.393439335983103"><ele>285.0</ele><time>2026-03-29T09:10:32Z</time></trkpt><trkpt lat="45.99228361362076" lon="12.393322112555055"><ele>283.0</ele><time>2026-03-29T09:10:33Z</time></trkpt><trkpt lat="45.99231759910292" lon="12.39322144598332"><ele>281.0</ele><time>2026-03-29T09:10:34Z</time></trkpt><trkpt lat="45.99237893038956" lon="12.39312696543508"><ele>281.0</ele><time>2026-03-29T09:10:35Z</time></trkpt><trkpt lat="45.992469906468344" lon="12.393030774183215"><ele>281.0</ele><time>2026-03-29T09:10:36Z</time></trkpt><trkpt lat="45.992574855846065" lon="12.392946954982065"><ele>281.0</ele><time>2026-03-29T09:10:37Z</time></trkpt><trkpt lat="45.992691069890256" lon="12.392893583182394"><ele>281.0</ele><time>2026-03-29T09:10:38Z</time></trkpt><trkpt lat="45.992815487669496" lon="12.392879287505147"><ele>280.75</ele><time>2026-03-29T09:10:39Z</time></trkpt><trkpt lat="45.99294486783594" lon="12.392881134398685"><ele>280.5</ele><time>2026-03-29T09:10:40Z</time></trkpt><trkpt lat="45.99306849469637" lon="12.392879729293362"><ele>280.25</ele><time>2026-03-29T09:10:41Z</time></trkpt><trkpt lat="45.99317849738938" lon="12.392853258400512"><ele>280.0</ele><time>2026-03-29T09:10:42Z</time></trkpt><trkpt lat="45.993274518717904" lon="12.392784252797997"><ele>282.25</ele><time>2026-03-29T09:10:43Z</time></trkpt><trkpt lat="45.993356123113834" lon="12.392671159668934"><ele>284.5</ele><time>2026-03-29T09:10:44Z</time></trkpt><trkpt lat="45.99341886356037" lon="12.392517224498393"><ele>286.75</ele><time>2026-03-29T09:10:45Z</time></trkpt><trkpt lat="45.993477374158516" lon="12.392345194359969"><ele>289.0</ele><time>2026-03-29T09:10:46Z</time></trkpt><trkpt lat="45.99353176570365" lon="12.392162426484434"><ele>289.0</ele><time>2026-03-29T09:10:47Z</time></trkpt><trkpt lat="45.99358534914784" lon="12.391998902542072"><ele>289.0</ele><time>2026-03-29T09:10:48Z</time></trkpt><trkpt lat="45.99366009731214" lon="12.391867763920143"><ele>289.0</ele><time>2026-03-29T09:10:49Z</time></trkpt><trkpt lat="45.99375752703691" lon="12.391754848699135"><ele>289.0</ele><time>2026-03-29T09:10:50Z</time></trkpt><trkpt lat="45.99384947459296" lon="12.391665194658348"><ele>289.0</ele><time>2026-03-29T09:10:51Z</time></trkpt><trkpt lat="45.99393717567515" lon="12.391576541097674"><ele>289.0</ele><time>2026-03-29T09:10:52Z</time></trkpt><trkpt lat="45.99402011648582" lon="12.391488332327498"><ele>289.0</ele><time>2026-03-29T09:10:53Z</time></trkpt><trkpt lat="45.994093288306665" lon="12.391407298840758"><ele>289.0</ele><time>2026-03-29T09:10:54Z</time></trkpt><trkpt lat="45.99416377331602" lon="12.391373329723335"><ele>289.0</ele><time>2026-03-29T09:10:55Z</time></trkpt><trkpt lat="45.994232228739314" lon="12.391363673801314"><ele>289.0</ele><time>2026-03-29T09:10:56Z</time></trkpt><trkpt lat="45.994300822317996" lon="12.391383295918404"><ele>290.59999999999997</ele><time>2026-03-29T09:10:57Z</time></trkpt><trkpt lat="45.994380144554306" lon="12.391428573681505"><ele>292.2</ele><time>2026-03-29T09:10:58Z</time></trkpt><trkpt lat="45.9944623790323" lon="12.391499931366146"><ele>293.79999999999995</ele><time>2026-03-29T09:10:59Z</time></trkpt><trkpt lat="45.99455001868623" lon="12.391570997520871"><ele>295.4</ele><time>2026-03-29T09:11:00Z</time></trkpt><trkpt lat="45.9946384179471" lon="12.39160019675532"><ele>297.0</ele><time>2026-03-29T09:11:01Z</time></trkpt><trkpt lat="45.994726022947965" lon="12.39159695680577"><ele>297.0</ele><time>2026-03-29T09:11:02Z</time></trkpt><trkpt lat="45.99480160426735" lon="12.39155084404568"><ele>297.0</ele><time>2026-03-29T09:11:03Z</time></trkpt><trkpt lat="45.994858697354715" lon="12.391467691374615"><ele>297.0</ele><time>2026-03-29T09:11:04Z</time></trkpt><trkpt lat="45.994889293607265" lon="12.391351905518059"><ele>297.0</ele><time>2026-03-29T09:11:05Z</time></trkpt><trkpt lat="45.99490150245482" lon="12.3912255000927"><ele>297.0</ele><time>2026-03-29T09:11:06Z</time></trkpt><trkpt lat="45.9948971657609" lon="12.391096223657058"><ele>297.0</ele><time>2026-03-29T09:11:07Z</time></trkpt><trkpt lat="45.99488588704527" lon="12.390963435371964"><ele>297.1666666666667</ele><time>2026-03-29T09:11:08Z</time></trkpt><trkpt lat="45.99488121081287" lon="12.390826982306997"><ele>297.3333333333333</ele><time>2026-03-29T09:11:09Z</time></trkpt><trkpt lat="45.99488353077899" lon="12.390690155975552"><ele>297.5</ele><time>2026-03-29T09:11:10Z</time></trkpt><trkpt lat="45.994899458728604" lon="12.390567919222814"><ele>297.66666666666663</ele><time>2026-03-29T09:11:11.001Z</time></trkpt><trkpt lat="45.99494125110669" lon="12.390480962566073"><ele>297.8333333333333</ele><time>2026-03-29T09:11:12.001Z</time></trkpt><trkpt lat="45.99499660425469" lon="12.390406575306075"><ele>298.0</ele><time>2026-03-29T09:11:13.001Z</time></trkpt><trkpt lat="45.99505790746406" lon="12.390340543265765"><ele>298.0</ele><time>2026-03-29T09:11:14.001Z</time></trkpt><trkpt lat="45.99512034358344" lon="12.390275523397337"><ele>298.0</ele><time>2026-03-29T09:11:15.001Z</time></trkpt><trkpt lat="45.99518587709921" lon="12.390207870754988"><ele>298.0</ele><time>2026-03-29T09:11:16.001Z</time></trkpt><trkpt lat="45.99525424978481" lon="12.390143699909942"><ele>298.0</ele><time>2026-03-29T09:11:17.001Z</time></trkpt><trkpt lat="45.995326778463635" lon="12.390074127258687"><ele>298.0</ele><time>2026-03-29T09:11:18.001Z</time></trkpt><trkpt lat="45.99540572838675" lon="12.390002600260125"><ele>298.0</ele><time>2026-03-29T09:11:19.001Z</time></trkpt><trkpt lat="45.99548785340523" lon="12.38992514294911"><ele>298.0</ele><time>2026-03-29T09:11:20.001Z</time></trkpt><trkpt lat="45.99556079531089" lon="12.389849564029193"><ele>298.0</ele><time>2026-03-29T09:11:21.001Z</time></trkpt><trkpt lat="45.99561916997412" lon="12.389780640650372"><ele>298.0</ele><time>2026-03-29T09:11:22.001Z</time></trkpt><trkpt lat="45.99568141541946" lon="12.389740685195434"><ele>298.0</ele><time>2026-03-29T09:11:23.001Z</time></trkpt><trkpt lat="45.99575528885936" lon="12.389726997430806"><ele>298.0</ele><time>2026-03-29T09:11:24.001Z</time></trkpt><trkpt lat="45.995835077059404" lon="12.38972849957354"><ele>298.0</ele><time>2026-03-29T09:11:25.001Z</time></trkpt><trkpt lat="45.995917737675384" lon="12.389739380072985"><ele>298.8333333333333</ele><time>2026-03-29T09:11:26.001Z</time></trkpt><trkpt lat="45.99599495271543" lon="12.38973695208358"><ele>299.66666666666663</ele><time>2026-03-29T09:11:27.001Z</time></trkpt><trkpt lat="45.99605667350496" lon="12.38970423333015"><ele>300.5</ele><time>2026-03-29T09:11:28.001Z</time></trkpt><trkpt lat="45.996150181202594" lon="12.389586159770234"><ele>301.3333333333333</ele><time>2026-03-29T09:11:30.001Z</time></trkpt><trkpt lat="45.99619087014627" lon="12.389494022536304"><ele>302.1666666666667</ele><time>2026-03-29T09:11:31.001Z</time></trkpt><trkpt lat="45.99623177024759" lon="12.389375166189737"><ele>303.0</ele><time>2026-03-29T09:11:32.001Z</time></trkpt><trkpt lat="45.99627413275553" lon="12.389238154357093"><ele>303.0</ele><time>2026-03-29T09:11:33.001Z</time></trkpt><trkpt lat="45.996324567631476" lon="12.38909125317037"><ele>303.0</ele><time>2026-03-29T09:11:34.001Z</time></trkpt><trkpt lat="45.9963760570759" lon="12.388945655876164"><ele>303.0</ele><time>2026-03-29T09:11:35.001Z</time></trkpt><trkpt lat="45.996418226459916" lon="12.38878244315012"><ele>303.0</ele><time>2026-03-29T09:11:36.001Z</time></trkpt><trkpt lat="45.996450700866234" lon="12.38859993867644"><ele>302.25</ele><time>2026-03-29T09:11:37.001Z</time></trkpt><trkpt lat="45.996481818885464" lon="12.388407491988284"><ele>301.5</ele><time>2026-03-29T09:11:38.001Z</time></trkpt><trkpt lat="45.99651269482516" lon="12.3882114402671"><ele>300.75</ele><time>2026-03-29T09:11:39.001Z</time></trkpt><trkpt lat="45.99654036458287" lon="12.38801748717222"><ele>300.0</ele><time>2026-03-29T09:11:40.001Z</time></trkpt><trkpt lat="45.99657187635571" lon="12.387821824076465"><ele>299.0</ele><time>2026-03-29T09:11:41.001Z</time></trkpt><trkpt lat="45.996599752604965" lon="12.38764093624364"><ele>298.0</ele><time>2026-03-29T09:11:42.001Z</time></trkpt><trkpt lat="45.996627039120234" lon="12.387465006778912"><ele>297.0</ele><time>2026-03-29T09:11:43.001Z</time></trkpt><trkpt lat="45.9966427058291" lon="12.387298421585038"><ele>296.0</ele><time>2026-03-29T09:11:44.001Z</time></trkpt><trkpt lat="45.996658697906255" lon="12.387149349464474"><ele>301.4</ele><time>2026-03-29T09:11:45.001Z</time></trkpt><trkpt lat="45.996684274874326" lon="12.38701535734574"><ele>306.8</ele><time>2026-03-29T09:11:46.001Z</time></trkpt><trkpt lat="45.99672601184861" lon="12.386899196418122"><ele>312.2</ele><time>2026-03-29T09:11:47.001Z</time></trkpt><trkpt lat="45.99677869229644" lon="12.38678795126658"><ele>317.59999999999997</ele><time>2026-03-29T09:11:48.001Z</time></trkpt><trkpt lat="45.996833446288534" lon="12.386671360463675"><ele>323.0</ele><time>2026-03-29T09:11:49.001Z</time></trkpt><trkpt lat="45.99686977179323" lon="12.386532792893592"><ele>323.0</ele><time>2026-03-29T09:11:50.001Z</time></trkpt><trkpt lat="45.99688251263319" lon="12.386387833773437"><ele>323.0</ele><time>2026-03-29T09:11:51.001Z</time></trkpt><trkpt lat="45.996866038483255" lon="12.386235349820728"><ele>323.0</ele><time>2026-03-29T09:11:52.001Z</time></trkpt><trkpt lat="45.9968346681247" lon="12.386085031089333"><ele>323.0</ele><time>2026-03-29T09:11:53.001Z</time></trkpt><trkpt lat="45.99678921463658" lon="12.385943084012824"><ele>323.0</ele><time>2026-03-29T09:11:54.001Z</time></trkpt><trkpt lat="45.99673048129729" lon="12.385812083607261"><ele>319.4</ele><time>2026-03-29T09:11:55.001Z</time></trkpt><trkpt lat="45.99665340169997" lon="12.385706603513388"><ele>315.79999999999995</ele><time>2026-03-29T09:11:56.001Z</time></trkpt><trkpt lat="45.996560934824714" lon="12.385628948805136"><ele>312.2</ele><time>2026-03-29T09:11:57.001Z</time></trkpt><trkpt lat="45.99647487733799" lon="12.385561669270835"><ele>308.6</ele><time>2026-03-29T09:11:58.001Z</time></trkpt><trkpt lat="45.99640812236922" lon="12.385470168106169"><ele>305.0</ele><time>2026-03-29T09:11:59.001Z</time></trkpt><trkpt lat="45.99634387393102" lon="12.385346414339633"><ele>305.0</ele><time>2026-03-29T09:12:00.001Z</time></trkpt><trkpt lat="45.996276766211516" lon="12.385210941319757"><ele>305.0</ele><time>2026-03-29T09:12:01Z</time></trkpt><trkpt lat="45.99620526948582" lon="12.385064640578381"><ele>305.0</ele><time>2026-03-29T09:12:02Z</time></trkpt><trkpt lat="45.996132401176176" lon="12.384906766749328"><ele>305.0</ele><time>2026-03-29T09:12:03Z</time></trkpt><trkpt lat="45.99607697862181" lon="12.384727451756701"><ele>305.0</ele><time>2026-03-29T09:12:04Z</time></trkpt><trkpt lat="45.99602549296791" lon="12.384543122023532"><ele>305.0</ele><time>2026-03-29T09:12:05Z</time></trkpt><trkpt lat="45.99595250160681" lon="12.38436961507584"><ele>305.0</ele><time>2026-03-29T09:12:06Z</time></trkpt><trkpt lat="45.99586790752539" lon="12.384213840793427"><ele>305.0</ele><time>2026-03-29T09:12:07Z</time></trkpt><trkpt lat="45.995785608721576" lon="12.384082039663413"><ele>305.0</ele><time>2026-03-29T09:12:08Z</time></trkpt><trkpt lat="45.99572048999382" lon="12.383932538743723"><ele>305.0</ele><time>2026-03-29T09:12:09Z</time></trkpt><trkpt lat="45.99566312320401" lon="12.383761411030088"><ele>305.0</ele><time>2026-03-29T09:12:10Z</time></trkpt><trkpt lat="45.995612936716796" lon="12.383586085535162"><ele>305.0</ele><time>2026-03-29T09:12:11Z</time></trkpt><trkpt lat="45.99556769550238" lon="12.383430419778584"><ele>305.4</ele><time>2026-03-29T09:12:12Z</time></trkpt><trkpt lat="45.995527005497436" lon="12.383288832237637"><ele>305.8</ele><time>2026-03-29T09:12:13Z</time></trkpt><trkpt lat="45.99549288140531" lon="12.383150644648786"><ele>306.2</ele><time>2026-03-29T09:12:14Z</time></trkpt><trkpt lat="45.995464441713054" lon="12.38302240335223"><ele>306.6</ele><time>2026-03-29T09:12:15Z</time></trkpt><trkpt lat="45.99546235889338" lon="12.382903206105057"><ele>307.0</ele><time>2026-03-29T09:12:16Z</time></trkpt><trkpt lat="45.995488972880004" lon="12.382796125426427"><ele>307.0</ele><time>2026-03-29T09:12:17Z</time></trkpt><trkpt lat="45.99554589948786" lon="12.382704146624466"><ele>307.0</ele><time>2026-03-29T09:12:18Z</time></trkpt><trkpt lat="45.99561803062882" lon="12.382630876559626"><ele>307.0</ele><time>2026-03-29T09:12:19Z</time></trkpt><trkpt lat="45.995693424009595" lon="12.382571625849275"><ele>307.0</ele><time>2026-03-29T09:12:20Z</time></trkpt><trkpt lat="45.99578296534183" lon="12.382523995275694"><ele>307.0</ele><time>2026-03-29T09:12:21Z</time></trkpt><trkpt lat="45.99586693337322" lon="12.382490165805757"><ele>307.0</ele><time>2026-03-29T09:12:22Z</time></trkpt><trkpt lat="45.99593533701103" lon="12.382464370576713"><ele>307.85714285714283</ele><time>2026-03-29T09:12:23Z</time></trkpt><trkpt lat="45.995992516848624" lon="12.382424650816358"><ele>308.7142857142857</ele><time>2026-03-29T09:12:24Z</time></trkpt><trkpt lat="45.99604258414972" lon="12.382347635719304"><ele>309.57142857142856</ele><time>2026-03-29T09:12:25Z</time></trkpt><trkpt lat="45.99608851234472" lon="12.382260779186408"><ele>310.42857142857144</ele><time>2026-03-29T09:12:26Z</time></trkpt><trkpt lat="45.996148800272394" lon="12.382191020430131"><ele>311.2857142857143</ele><time>2026-03-29T09:12:27Z</time></trkpt><trkpt lat="45.99620106942535" lon="12.382121051245088"><ele>312.1428571428571</ele><time>2026-03-29T09:12:28Z</time></trkpt><trkpt lat="45.996248474792154" lon="12.382049242402918"><ele>313.0</ele><time>2026-03-29T09:12:29Z</time></trkpt><trkpt lat="45.996292221684115" lon="12.381973497172185"><ele>313.0</ele><time>2026-03-29T09:12:30Z</time></trkpt><trkpt lat="45.99636703994272" lon="12.381857572611878"><ele>313.0</ele><time>2026-03-29T09:12:32Z</time></trkpt><trkpt lat="45.99643092739471" lon="12.381759697120815"><ele>313.0</ele><time>2026-03-29T09:12:34Z</time></trkpt><trkpt lat="45.996518124701765" lon="12.381631800151942"><ele>313.0</ele><time>2026-03-29T09:12:36Z</time></trkpt><trkpt lat="45.99656537434746" lon="12.3815517508245"><ele>313.0</ele><time>2026-03-29T09:12:37Z</time></trkpt><trkpt lat="45.99661882631239" lon="12.381468307635675"><ele>314.16666666666663</ele><time>2026-03-29T09:12:38Z</time></trkpt><trkpt lat="45.99667426220349" lon="12.381378557154898"><ele>315.3333333333333</ele><time>2026-03-29T09:12:39Z</time></trkpt><trkpt lat="45.99673468709691" lon="12.381284272434684"><ele>316.5</ele><time>2026-03-29T09:12:40Z</time></trkpt><trkpt lat="45.996797918739716" lon="12.381188202795117"><ele>317.6666666666667</ele><time>2026-03-29T09:12:41Z</time></trkpt><trkpt lat="45.996864912771585" lon="12.38110241279751"><ele>318.83333333333337</ele><time>2026-03-29T09:12:42Z</time></trkpt><trkpt lat="45.996928847972576" lon="12.381040514700487"><ele>320.0</ele><time>2026-03-29T09:12:43Z</time></trkpt><trkpt lat="45.99699213845839" lon="12.381007906209248"><ele>320.0</ele><time>2026-03-29T09:12:44Z</time></trkpt><trkpt lat="45.99706526215086" lon="12.380995003850288"><ele>320.0</ele><time>2026-03-29T09:12:45Z</time></trkpt><trkpt lat="45.99714592428713" lon="12.380991791839906"><ele>320.0</ele><time>2026-03-29T09:12:46Z</time></trkpt><trkpt lat="45.997229916149145" lon="12.380972158695018"><ele>320.0</ele><time>2026-03-29T09:12:47Z</time></trkpt><trkpt lat="45.99730092080694" lon="12.380923114282007"><ele>320.0</ele><time>2026-03-29T09:12:48Z</time></trkpt><trkpt lat="45.99734851796003" lon="12.380843419880119"><ele>320.0</ele><time>2026-03-29T09:12:49Z</time></trkpt><trkpt lat="45.997375230368924" lon="12.380738448095206"><ele>320.0</ele><time>2026-03-29T09:12:50Z</time></trkpt><trkpt lat="45.99739102304349" lon="12.380617895620347"><ele>320.0</ele><time>2026-03-29T09:12:51Z</time></trkpt><trkpt lat="45.99741224996225" lon="12.38049267794551"><ele>320.0</ele><time>2026-03-29T09:12:52Z</time></trkpt><trkpt lat="45.99744235825551" lon="12.380362708009413"><ele>320.0</ele><time>2026-03-29T09:12:53Z</time></trkpt><trkpt lat="45.99747370871001" lon="12.380230639827676"><ele>320.0</ele><time>2026-03-29T09:12:54Z</time></trkpt><trkpt lat="45.997495183606816" lon="12.380093449854774"><ele>319.1666666666667</ele><time>2026-03-29T09:12:55Z</time></trkpt><trkpt lat="45.99750897772529" lon="12.379961660194555"><ele>318.33333333333337</ele><time>2026-03-29T09:12:56Z</time></trkpt><trkpt lat="45.99751926487747" lon="12.379838135735913"><ele>317.5</ele><time>2026-03-29T09:12:57Z</time></trkpt><trkpt lat="45.99752667169431" lon="12.37972378335561"><ele>316.6666666666667</ele><time>2026-03-29T09:12:58Z</time></trkpt><trkpt lat="45.99753346827311" lon="12.379622042434566"><ele>315.8333333333333</ele><time>2026-03-29T09:12:59Z</time></trkpt><trkpt lat="45.997567808634955" lon="12.379480197304852"><ele>315.0</ele><time>2026-03-29T09:13:01Z</time></trkpt><trkpt lat="45.997647566684705" lon="12.379441297130132"><ele>315.0</ele><time>2026-03-29T09:13:03Z</time></trkpt><trkpt lat="45.99776599200519" lon="12.379406911211818"><ele>315.0</ele><time>2026-03-29T09:13:05Z</time></trkpt><trkpt lat="45.997837449041924" lon="12.379372746747888"><ele>315.0</ele><time>2026-03-29T09:13:06Z</time></trkpt><trkpt lat="45.997902678285804" lon="12.379338806862583"><ele>315.0</ele><time>2026-03-29T09:13:07Z</time></trkpt><trkpt lat="45.99801070280917" lon="12.379262856783798"><ele>315.0</ele><time>2026-03-29T09:13:09Z</time></trkpt><trkpt lat="45.998109091653106" lon="12.379200255594474"><ele>315.0</ele><time>2026-03-29T09:13:11Z</time></trkpt><trkpt lat="45.99821689923303" lon="12.379128698316716"><ele>315.0</ele><time>2026-03-29T09:13:13Z</time></trkpt><trkpt lat="45.99829049827461" lon="12.379081044749507"><ele>315.0</ele><time>2026-03-29T09:13:14Z</time></trkpt><trkpt lat="45.99837227240885" lon="12.379031568447298"><ele>315.0</ele><time>2026-03-29T09:13:15Z</time></trkpt><trkpt lat="45.998451838121646" lon="12.378982771200834"><ele>315.0</ele><time>2026-03-29T09:13:16Z</time></trkpt><trkpt lat="45.998525029237854" lon="12.378942194532247"><ele>314.6666666666667</ele><time>2026-03-29T09:13:17Z</time></trkpt><trkpt lat="45.99859255036872" lon="12.378900114144313"><ele>314.3333333333333</ele><time>2026-03-29T09:13:18Z</time></trkpt><trkpt lat="45.99866061815226" lon="12.378860093545368"><ele>314.0</ele><time>2026-03-29T09:13:19Z</time></trkpt><trkpt lat="45.99873040914053" lon="12.37882194547719"><ele>313.66666666666663</ele><time>2026-03-29T09:13:20Z</time></trkpt><trkpt lat="45.998798959567374" lon="12.378770255624548"><ele>313.3333333333333</ele><time>2026-03-29T09:13:21Z</time></trkpt><trkpt lat="45.998869089340296" lon="12.378711034864068"><ele>313.0</ele><time>2026-03-29T09:13:22Z</time></trkpt><trkpt lat="45.99893939175403" lon="12.378650817749634"><ele>313.0</ele><time>2026-03-29T09:13:23Z</time></trkpt><trkpt lat="45.99900993848285" lon="12.37858726662493"><ele>313.0</ele><time>2026-03-29T09:13:24Z</time></trkpt><trkpt lat="45.999078100421215" lon="12.378522272895616"><ele>313.0</ele><time>2026-03-29T09:13:25.001Z</time></trkpt><trkpt lat="45.9991487831282" lon="12.378457866246888"><ele>313.0</ele><time>2026-03-29T09:13:26.001Z</time></trkpt><trkpt lat="45.999217712788344" lon="12.378387122276724"><ele>313.0</ele><time>2026-03-29T09:13:27.001Z</time></trkpt><trkpt lat="45.999282630335045" lon="12.37830842187801"><ele>313.0</ele><time>2026-03-29T09:13:28.001Z</time></trkpt><trkpt lat="45.99933989025474" lon="12.378248320988096"><ele>314.66666666666663</ele><time>2026-03-29T09:13:29.001Z</time></trkpt><trkpt lat="45.99940065667287" lon="12.378204189279037"><ele>316.3333333333333</ele><time>2026-03-29T09:13:30.001Z</time></trkpt><trkpt lat="45.99945860775828" lon="12.378153624307847"><ele>318.0</ele><time>2026-03-29T09:13:31.001Z</time></trkpt><trkpt lat="45.99950481348057" lon="12.378062590789819"><ele>319.6666666666667</ele><time>2026-03-29T09:13:32.001Z</time></trkpt><trkpt lat="45.99954866191169" lon="12.377950157796498"><ele>321.33333333333337</ele><time>2026-03-29T09:13:33.001Z</time></trkpt><trkpt lat="45.999595418055215" lon="12.377829286815386"><ele>323.0</ele><time>2026-03-29T09:13:34.001Z</time></trkpt><trkpt lat="45.99964032905224" lon="12.377695841742531"><ele>323.0</ele><time>2026-03-29T09:13:35.001Z</time></trkpt><trkpt lat="45.99968855964738" lon="12.377553260745954"><ele>323.0</ele><time>2026-03-29T09:13:36.001Z</time></trkpt><trkpt lat="45.99973921251301" lon="12.377405093259076"><ele>323.0</ele><time>2026-03-29T09:13:37.001Z</time></trkpt><trkpt lat="45.99977890999068" lon="12.377250808888649"><ele>323.0</ele><time>2026-03-29T09:13:38.001Z</time></trkpt><trkpt lat="45.99981891376753" lon="12.377102721034149"><ele>322.59999999999997</ele><time>2026-03-29T09:13:39.001Z</time></trkpt><trkpt lat="45.999856952433504" lon="12.376961130656438"><ele>322.2</ele><time>2026-03-29T09:13:40.001Z</time></trkpt><trkpt lat="45.99989407511703" lon="12.376823747469206"><ele>321.8</ele><time>2026-03-29T09:13:41.001Z</time></trkpt><trkpt lat="45.99993776665856" lon="12.376694777855722"><ele>321.4</ele><time>2026-03-29T09:13:42.001Z</time></trkpt><trkpt lat="45.999991000093544" lon="12.376576855629713"><ele>321.0</ele><time>2026-03-29T09:13:43.001Z</time></trkpt><trkpt lat="46.00005526909242" lon="12.376469119186321"><ele>321.0</ele><time>2026-03-29T09:13:44.001Z</time></trkpt><trkpt lat="46.00012923634501" lon="12.376369161677005"><ele>321.0</ele><time>2026-03-29T09:13:45.001Z</time></trkpt><trkpt lat="46.00020734281057" lon="12.376256494805085"><ele>321.0</ele><time>2026-03-29T09:13:46.001Z</time></trkpt><trkpt lat="46.000293768837075" lon="12.376136602309339"><ele>321.0</ele><time>2026-03-29T09:13:47.001Z</time></trkpt><trkpt lat="46.00038567325831" lon="12.376018953372084"><ele>319.5</ele><time>2026-03-29T09:13:48.001Z</time></trkpt><trkpt lat="46.000480211904616" lon="12.375896034488411"><ele>318.0</ele><time>2026-03-29T09:13:49.001Z</time></trkpt><trkpt lat="46.000578811232266" lon="12.375770907343618"><ele>316.5</ele><time>2026-03-29T09:13:50.001Z</time></trkpt><trkpt lat="46.000664910569434" lon="12.375651611124988"><ele>315.0</ele><time>2026-03-29T09:13:51.001Z</time></trkpt><trkpt lat="46.00075626624104" lon="12.375536930363614"><ele>315.4</ele><time>2026-03-29T09:13:52.001Z</time></trkpt><trkpt lat="46.00084883043862" lon="12.37542873391392"><ele>315.8</ele><time>2026-03-29T09:13:53.001Z</time></trkpt><trkpt lat="46.00093274599111" lon="12.375332285365342"><ele>316.2</ele><time>2026-03-29T09:13:54.001Z</time></trkpt><trkpt lat="46.00101429891496" lon="12.375260883068167"><ele>316.6</ele><time>2026-03-29T09:13:55.001Z</time></trkpt><trkpt lat="46.00110656674914" lon="12.375201378925645"><ele>317.0</ele><time>2026-03-29T09:13:56.001Z</time></trkpt><trkpt lat="46.00121194525726" lon="12.375181825288735"><ele>317.0</ele><time>2026-03-29T09:13:57.001Z</time></trkpt><trkpt lat="46.00132633408222" lon="12.375178853975523"><ele>317.0</ele><time>2026-03-29T09:13:58.001Z</time></trkpt><trkpt lat="46.00144541673807" lon="12.375166466626649"><ele>317.0</ele><time>2026-03-29T09:13:59.001Z</time></trkpt><trkpt lat="46.001571155299025" lon="12.37514353344837"><ele>317.0</ele><time>2026-03-29T09:14:00.001Z</time></trkpt><trkpt lat="46.001699770695616" lon="12.375105824480412"><ele>319.0</ele><time>2026-03-29T09:14:01.001Z</time></trkpt><trkpt lat="46.00182440441577" lon="12.375057920199891"><ele>321.0</ele><time>2026-03-29T09:14:02.001Z</time></trkpt><trkpt lat="46.00194760564128" lon="12.374996510870107"><ele>323.0</ele><time>2026-03-29T09:14:03.001Z</time></trkpt><trkpt lat="46.00206887462468" lon="12.374926196145076"><ele>325.0</ele><time>2026-03-29T09:14:04.001Z</time></trkpt><trkpt lat="46.002185660306914" lon="12.374850052665892"><ele>325.0</ele><time>2026-03-29T09:14:05.001Z</time></trkpt><trkpt lat="46.00230048888395" lon="12.374780130308663"><ele>325.0</ele><time>2026-03-29T09:14:06.001Z</time></trkpt><trkpt lat="46.00241455461461" lon="12.374717034812608"><ele>325.0</ele><time>2026-03-29T09:14:07Z</time></trkpt><trkpt lat="46.00253359213495" lon="12.374663352282209"><ele>325.0</ele><time>2026-03-29T09:14:08Z</time></trkpt><trkpt lat="46.002656936599166" lon="12.37462008143973"><ele>322.8</ele><time>2026-03-29T09:14:09Z</time></trkpt><trkpt lat="46.002776034180506" lon="12.374582102533061"><ele>320.6</ele><time>2026-03-29T09:14:10Z</time></trkpt><trkpt lat="46.00288305561468" lon="12.37454822115763"><ele>318.4</ele><time>2026-03-29T09:14:11Z</time></trkpt><trkpt lat="46.002982690881815" lon="12.374519705475192"><ele>316.2</ele><time>2026-03-29T09:14:12Z</time></trkpt><trkpt lat="46.00307720899181" lon="12.374502770338736"><ele>314.0</ele><time>2026-03-29T09:14:13Z</time></trkpt><trkpt lat="46.00317141289561" lon="12.37450316429134"><ele>314.0</ele><time>2026-03-29T09:14:14Z</time></trkpt><trkpt lat="46.00326514290221" lon="12.374522247305178"><ele>314.0</ele><time>2026-03-29T09:14:15Z</time></trkpt><trkpt lat="46.0033492727281" lon="12.374517786809225"><ele>314.0</ele><time>2026-03-29T09:14:16Z</time></trkpt><trkpt lat="46.0034242219853" lon="12.374470079656383"><ele>314.0</ele><time>2026-03-29T09:14:17Z</time></trkpt><trkpt lat="46.00348635926457" lon="12.374396986586602"><ele>314.0</ele><time>2026-03-29T09:14:18Z</time></trkpt><trkpt lat="46.00353253570273" lon="12.374295090752536"><ele>314.0</ele><time>2026-03-29T09:14:19Z</time></trkpt><trkpt lat="46.003573446611114" lon="12.374184298847293"><ele>313.8</ele><time>2026-03-29T09:14:20Z</time></trkpt><trkpt lat="46.00362055184659" lon="12.374072651384715"><ele>313.59999999999997</ele><time>2026-03-29T09:14:21Z</time></trkpt><trkpt lat="46.0036792247676" lon="12.373968390407228"><ele>313.4</ele><time>2026-03-29T09:14:22Z</time></trkpt><trkpt lat="46.00376190708027" lon="12.373883987905002"><ele>313.2</ele><time>2026-03-29T09:14:23Z</time></trkpt><trkpt lat="46.00385991481589" lon="12.373807314982392"><ele>313.0</ele><time>2026-03-29T09:14:24Z</time></trkpt><trkpt lat="46.00396556314726" lon="12.373732395780868"><ele>313.0</ele><time>2026-03-29T09:14:25Z</time></trkpt><trkpt lat="46.004077473157615" lon="12.373668984072367"><ele>313.0</ele><time>2026-03-29T09:14:26Z</time></trkpt><trkpt lat="46.00419755611834" lon="12.3736290451207"><ele>313.0</ele><time>2026-03-29T09:14:27Z</time></trkpt><trkpt lat="46.004322181739184" lon="12.373605504681395"><ele>313.0</ele><time>2026-03-29T09:14:28Z</time></trkpt><trkpt lat="46.00445322971217" lon="12.37358306579836"><ele>315.0</ele><time>2026-03-29T09:14:29Z</time></trkpt><trkpt lat="46.0045822686278" lon="12.37355841631686"><ele>317.0</ele><time>2026-03-29T09:14:30Z</time></trkpt><trkpt lat="46.00471118020686" lon="12.373528544136946"><ele>319.0</ele><time>2026-03-29T09:14:31Z</time></trkpt><trkpt lat="46.00484206035896" lon="12.373498887737048"><ele>321.0</ele><time>2026-03-29T09:14:32Z</time></trkpt><trkpt lat="46.004972632697815" lon="12.373472949094612"><ele>323.25</ele><time>2026-03-29T09:14:33Z</time></trkpt><trkpt lat="46.00509306479332" lon="12.373450950058926"><ele>325.5</ele><time>2026-03-29T09:14:34Z</time></trkpt><trkpt lat="46.00520625778696" lon="12.37343775212426"><ele>327.75</ele><time>2026-03-29T09:14:35Z</time></trkpt><trkpt lat="46.00531597672374" lon="12.373444209262804"><ele>330.0</ele><time>2026-03-29T09:14:36Z</time></trkpt><trkpt lat="46.00542821384074" lon="12.373490067279983"><ele>330.0</ele><time>2026-03-29T09:14:37Z</time></trkpt><trkpt lat="46.00554002900434" lon="12.373566263559791"><ele>330.0</ele><time>2026-03-29T09:14:38Z</time></trkpt><trkpt lat="46.00564744372596" lon="12.373648187846344"><ele>330.0</ele><time>2026-03-29T09:14:39Z</time></trkpt><trkpt lat="46.00574378220021" lon="12.373717730932853"><ele>330.0</ele><time>2026-03-29T09:14:40Z</time></trkpt><trkpt lat="46.00583238520191" lon="12.37376060752596"><ele>330.0</ele><time>2026-03-29T09:14:41Z</time></trkpt><trkpt lat="46.005916985981784" lon="12.373754190388055"><ele>330.8</ele><time>2026-03-29T09:14:42Z</time></trkpt><trkpt lat="46.00598035148902" lon="12.37369343682164"><ele>331.6</ele><time>2026-03-29T09:14:43Z</time></trkpt><trkpt lat="46.006031568315656" lon="12.373606568129372"><ele>332.4</ele><time>2026-03-29T09:14:44Z</time></trkpt><trkpt lat="46.006058569497846" lon="12.373475182392754"><ele>333.2</ele><time>2026-03-29T09:14:45Z</time></trkpt><trkpt lat="46.006071665338716" lon="12.373307644322486"><ele>334.0</ele><time>2026-03-29T09:14:46Z</time></trkpt><trkpt lat="46.00608271481424" lon="12.373107953621325"><ele>332.3333333333333</ele><time>2026-03-29T09:14:47Z</time></trkpt><trkpt lat="46.0060966215644" lon="12.372889022913983"><ele>330.6666666666667</ele><time>2026-03-29T09:14:48Z</time></trkpt><trkpt lat="46.00610858896399" lon="12.37264940817751"><ele>329.0</ele><time>2026-03-29T09:14:49Z</time></trkpt><trkpt lat="46.006103412025944" lon="12.37240469795446"><ele>328.0</ele><time>2026-03-29T09:14:50Z</time></trkpt><trkpt lat="46.006079914147975" lon="12.37216830003581"><ele>327.0</ele><time>2026-03-29T09:14:51Z</time></trkpt><trkpt lat="46.00604140971384" lon="12.371966350924566"><ele>326.0</ele><time>2026-03-29T09:14:52Z</time></trkpt><trkpt lat="46.00600024344589" lon="12.371782370562736"><ele>325.0</ele><time>2026-03-29T09:14:53Z</time></trkpt><trkpt lat="46.0059644199814" lon="12.371613422485426"><ele>325.0</ele><time>2026-03-29T09:14:54Z</time></trkpt><trkpt lat="46.00595556939297" lon="12.371441519632882"><ele>325.0</ele><time>2026-03-29T09:14:55Z</time></trkpt><trkpt lat="46.00596435690129" lon="12.371239124485104"><ele>325.0</ele><time>2026-03-29T09:14:56Z</time></trkpt><trkpt lat="46.00597161560181" lon="12.371020912549522"><ele>325.0</ele><time>2026-03-29T09:14:57Z</time></trkpt><trkpt lat="46.00598547840627" lon="12.370804677109856"><ele>323.5</ele><time>2026-03-29T09:14:58Z</time></trkpt><trkpt lat="46.0060016904984" lon="12.37060785122614"><ele>322.0</ele><time>2026-03-29T09:14:59Z</time></trkpt><trkpt lat="46.00601990216752" lon="12.370426054508364"><ele>320.5</ele><time>2026-03-29T09:15:00Z</time></trkpt><trkpt lat="46.006038169405116" lon="12.37025801004314"><ele>319.0</ele><time>2026-03-29T09:15:01Z</time></trkpt><trkpt lat="46.00606578736816" lon="12.370103409551211"><ele>318.59999999999997</ele><time>2026-03-29T09:15:02Z</time></trkpt><trkpt lat="46.00610663153351" lon="12.369969597586682"><ele>318.2</ele><time>2026-03-29T09:15:03Z</time></trkpt><trkpt lat="46.006162053636594" lon="12.369858735456479"><ele>317.79999999999995</ele><time>2026-03-29T09:15:04Z</time></trkpt><trkpt lat="46.006236101458235" lon="12.369767693682277"><ele>317.4</ele><time>2026-03-29T09:15:05Z</time></trkpt><trkpt lat="46.006326783778064" lon="12.369686543702029"><ele>317.0</ele><time>2026-03-29T09:15:06Z</time></trkpt><trkpt lat="46.006409584732005" lon="12.369583681497083"><ele>315.5</ele><time>2026-03-29T09:15:07Z</time></trkpt><trkpt lat="46.006471982052865" lon="12.369441317236673"><ele>314.0</ele><time>2026-03-29T09:15:08Z</time></trkpt><trkpt lat="46.00651957057775" lon="12.369281922934956"><ele>312.5</ele><time>2026-03-29T09:15:09Z</time></trkpt><trkpt lat="46.00656006261217" lon="12.369110973050375"><ele>311.0</ele><time>2026-03-29T09:15:10Z</time></trkpt><trkpt lat="46.00659551632921" lon="12.3689367163704"><ele>316.0</ele><time>2026-03-29T09:15:11Z</time></trkpt><trkpt lat="46.00662986200999" lon="12.368762990234114"><ele>321.0</ele><time>2026-03-29T09:15:12Z</time></trkpt><trkpt lat="46.006668148937386" lon="12.36859314510022"><ele>326.0</ele><time>2026-03-29T09:15:13Z</time></trkpt><trkpt lat="46.006707674438246" lon="12.368439634015877"><ele>331.0</ele><time>2026-03-29T09:15:14Z</time></trkpt><trkpt lat="46.006751096758386" lon="12.368301552976"><ele>331.0</ele><time>2026-03-29T09:15:15Z</time></trkpt><trkpt lat="46.006815620931675" lon="12.368198676068014"><ele>331.0</ele><time>2026-03-29T09:15:16Z</time></trkpt><trkpt lat="46.006892081653504" lon="12.368130476123259"><ele>331.0</ele><time>2026-03-29T09:15:17Z</time></trkpt><trkpt lat="46.00697827255622" lon="12.368095580655332"><ele>331.0</ele><time>2026-03-29T09:15:18Z</time></trkpt><trkpt lat="46.00706471220113" lon="12.368056868656788"><ele>331.0</ele><time>2026-03-29T09:15:19Z</time></trkpt><trkpt lat="46.00715335688336" lon="12.368022268164161"><ele>333.0</ele><time>2026-03-29T09:15:20Z</time></trkpt><trkpt lat="46.00723661199129" lon="12.36797976432032"><ele>335.0</ele><time>2026-03-29T09:15:21Z</time></trkpt><trkpt lat="46.00731918598663" lon="12.367941839262729"><ele>337.0</ele><time>2026-03-29T09:15:22Z</time></trkpt><trkpt lat="46.00740056850247" lon="12.367905573055117"><ele>339.0</ele><time>2026-03-29T09:15:23Z</time></trkpt><trkpt lat="46.00748359812932" lon="12.367866559711045"><ele>341.0</ele><time>2026-03-29T09:15:24Z</time></trkpt><trkpt lat="46.00756036417148" lon="12.367830158333424"><ele>343.0</ele><time>2026-03-29T09:15:25Z</time></trkpt><trkpt lat="46.00762414316563" lon="12.367774852807917"><ele>343.0</ele><time>2026-03-29T09:15:26Z</time></trkpt><trkpt lat="46.00766855310883" lon="12.367681993284645"><ele>343.0</ele><time>2026-03-29T09:15:27Z</time></trkpt><trkpt lat="46.007681130687324" lon="12.367573512482743"><ele>343.0</ele><time>2026-03-29T09:15:28Z</time></trkpt><trkpt lat="46.00765623034052" lon="12.367454101722904"><ele>343.0</ele><time>2026-03-29T09:15:29Z</time></trkpt><trkpt lat="46.00759957900747" lon="12.367347103302219"><ele>343.0</ele><time>2026-03-29T09:15:30Z</time></trkpt><trkpt lat="46.00752122391009" lon="12.3672447858461"><ele>343.0</ele><time>2026-03-29T09:15:31Z</time></trkpt><trkpt lat="46.00743153508926" lon="12.367140996223963"><ele>332.79999999999995</ele><time>2026-03-29T09:15:32Z</time></trkpt><trkpt lat="46.00735686317875" lon="12.367031634778616"><ele>322.59999999999997</ele><time>2026-03-29T09:15:33Z</time></trkpt><trkpt lat="46.00731255354383" lon="12.366915143720142"><ele>312.4</ele><time>2026-03-29T09:15:34Z</time></trkpt><trkpt lat="46.00728981076441" lon="12.36679301236808"><ele>302.2</ele><time>2026-03-29T09:15:35Z</time></trkpt><trkpt lat="46.007290090155465" lon="12.366653164259338"><ele>292.0</ele><time>2026-03-29T09:15:36Z</time></trkpt><trkpt lat="46.007323144559955" lon="12.366513154713408"><ele>292.0</ele><time>2026-03-29T09:15:37Z</time></trkpt><trkpt lat="46.00738491036843" lon="12.366387536833848"><ele>292.0</ele><time>2026-03-29T09:15:38.001Z</time></trkpt><trkpt lat="46.007460304209225" lon="12.36628187321259"><ele>292.0</ele><time>2026-03-29T09:15:39.001Z</time></trkpt><trkpt lat="46.00754751488074" lon="12.366178744500598"><ele>292.0</ele><time>2026-03-29T09:15:40.001Z</time></trkpt><trkpt lat="46.00765704881593" lon="12.366080127930543"><ele>297.25</ele><time>2026-03-29T09:15:41.001Z</time></trkpt><trkpt lat="46.007759753454714" lon="12.365952943400144"><ele>302.5</ele><time>2026-03-29T09:15:42.001Z</time></trkpt><trkpt lat="46.007841092697724" lon="12.365791057834105"><ele>307.75</ele><time>2026-03-29T09:15:43.001Z</time></trkpt><trkpt lat="46.007905753111245" lon="12.36561438040979"><ele>313.0</ele><time>2026-03-29T09:15:44.001Z</time></trkpt><trkpt lat="46.007951646746186" lon="12.365428735797723"><ele>313.0</ele><time>2026-03-29T09:15:45.001Z</time></trkpt><trkpt lat="46.00797728541313" lon="12.365259222431215"><ele>313.0</ele><time>2026-03-29T09:15:46.001Z</time></trkpt><trkpt lat="46.007993921148554" lon="12.365105312189351"><ele>313.0</ele><time>2026-03-29T09:15:47.001Z</time></trkpt><trkpt lat="46.00801013846735" lon="12.364988875696367"><ele>313.0</ele><time>2026-03-29T09:15:48.001Z</time></trkpt><trkpt lat="46.00805421458425" lon="12.364885517343879"><ele>313.0</ele><time>2026-03-29T09:15:49.001Z</time></trkpt><trkpt lat="46.00812910284442" lon="12.364796863799123"><ele>313.0</ele><time>2026-03-29T09:15:50.001Z</time></trkpt><trkpt lat="46.00822242871431" lon="12.364709995647194"><ele>313.0</ele><time>2026-03-29T09:15:51.001Z</time></trkpt><trkpt lat="46.00832190446285" lon="12.36460723628388"><ele>313.0</ele><time>2026-03-29T09:15:52.001Z</time></trkpt><trkpt lat="46.008426062459876" lon="12.364485911346957"><ele>313.0</ele><time>2026-03-29T09:15:53.001Z</time></trkpt><trkpt lat="46.008537226178284" lon="12.36435853149604"><ele>319.0</ele><time>2026-03-29T09:15:54.001Z</time></trkpt><trkpt lat="46.008653774434705" lon="12.364236772319067"><ele>325.0</ele><time>2026-03-29T09:15:55.001Z</time></trkpt><trkpt lat="46.008784294611566" lon="12.364128821908738"><ele>331.0</ele><time>2026-03-29T09:15:56.001Z</time></trkpt><trkpt lat="46.008941566529764" lon="12.364019115677998"><ele>331.0</ele><time>2026-03-29T09:15:57.001Z</time></trkpt><trkpt lat="46.009096462947404" lon="12.363911163310833"><ele>331.0</ele><time>2026-03-29T09:15:58.001Z</time></trkpt><trkpt lat="46.00923670118819" lon="12.36382591169992"><ele>331.0</ele><time>2026-03-29T09:15:59.001Z</time></trkpt><trkpt lat="46.009356935716475" lon="12.363745653207848"><ele>333.0</ele><time>2026-03-29T09:16:00.001Z</time></trkpt><trkpt lat="46.00945313181972" lon="12.363670712995422"><ele>335.0</ele><time>2026-03-29T09:16:01.001Z</time></trkpt><trkpt lat="46.009521687799186" lon="12.363587990730865"><ele>337.0</ele><time>2026-03-29T09:16:02.001Z</time></trkpt><trkpt lat="46.009551824338274" lon="12.363494770490552"><ele>339.0</ele><time>2026-03-29T09:16:03.001Z</time></trkpt><trkpt lat="46.00954631107121" lon="12.363394861115507"><ele>341.0</ele><time>2026-03-29T09:16:04.001Z</time></trkpt><trkpt lat="46.00951032416109" lon="12.363286037224324"><ele>343.0</ele><time>2026-03-29T09:16:05.001Z</time></trkpt><trkpt lat="46.0094409327568" lon="12.363160726472088"><ele>344.5</ele><time>2026-03-29T09:16:06.001Z</time></trkpt><trkpt lat="46.009362434017724" lon="12.363022099298439"><ele>346.0</ele><time>2026-03-29T09:16:07.001Z</time></trkpt><trkpt lat="46.00927613622164" lon="12.362877306625961"><ele>347.5</ele><time>2026-03-29T09:16:08.001Z</time></trkpt><trkpt lat="46.00918862825264" lon="12.362731393558674"><ele>349.0</ele><time>2026-03-29T09:16:09.001Z</time></trkpt><trkpt lat="46.00910273359824" lon="12.362576986652364"><ele>345.75</ele><time>2026-03-29T09:16:10.001Z</time></trkpt><trkpt lat="46.009024654901815" lon="12.362424797166618"><ele>342.5</ele><time>2026-03-29T09:16:11.001Z</time></trkpt><trkpt lat="46.00895766992723" lon="12.362279540273656"><ele>339.25</ele><time>2026-03-29T09:16:12.001Z</time></trkpt><trkpt lat="46.00889999263716" lon="12.362141446002694"><ele>336.0</ele><time>2026-03-29T09:16:13Z</time></trkpt><trkpt lat="46.00885024423891" lon="12.362006150827156"><ele>336.0</ele><time>2026-03-29T09:16:14Z</time></trkpt><trkpt lat="46.008818909028115" lon="12.361871233775318"><ele>336.0</ele><time>2026-03-29T09:16:15Z</time></trkpt><trkpt lat="46.00880535597981" lon="12.361734037148587"><ele>336.0</ele><time>2026-03-29T09:16:16Z</time></trkpt><trkpt lat="46.00880712796883" lon="12.361587802446765"><ele>336.0</ele><time>2026-03-29T09:16:17Z</time></trkpt><trkpt lat="46.00882252628217" lon="12.361435957115097"><ele>336.0</ele><time>2026-03-29T09:16:18Z</time></trkpt><trkpt lat="46.008841258181434" lon="12.361278713378258"><ele>333.8333333333333</ele><time>2026-03-29T09:16:19Z</time></trkpt><trkpt lat="46.00886192397927" lon="12.361128864002165"><ele>331.6666666666667</ele><time>2026-03-29T09:16:20Z</time></trkpt><trkpt lat="46.00889418049915" lon="12.36099920235001"><ele>329.5</ele><time>2026-03-29T09:16:21Z</time></trkpt><trkpt lat="46.00893760666689" lon="12.36089566011199"><ele>327.33333333333337</ele><time>2026-03-29T09:16:22Z</time></trkpt><trkpt lat="46.00898558516587" lon="12.360814200040585"><ele>325.1666666666667</ele><time>2026-03-29T09:16:23Z</time></trkpt><trkpt lat="46.00903536294405" lon="12.360740125830867"><ele>323.0</ele><time>2026-03-29T09:16:24Z</time></trkpt><trkpt lat="46.009090876382146" lon="12.36066379973111"><ele>323.0</ele><time>2026-03-29T09:16:25Z</time></trkpt><trkpt lat="46.009157856397444" lon="12.36057973384707"><ele>323.0</ele><time>2026-03-29T09:16:26Z</time></trkpt><trkpt lat="46.00922958628103" lon="12.36048135906091"><ele>323.0</ele><time>2026-03-29T09:16:27Z</time></trkpt><trkpt lat="46.00930099986069" lon="12.360388767551338"><ele>323.0</ele><time>2026-03-29T09:16:28Z</time></trkpt><trkpt lat="46.00936861388082" lon="12.360298770109711"><ele>323.0</ele><time>2026-03-29T09:16:29Z</time></trkpt><trkpt lat="46.00944170192653" lon="12.36022969451664"><ele>325.6666666666667</ele><time>2026-03-29T09:16:30Z</time></trkpt><trkpt lat="46.009511749481625" lon="12.360190809607337"><ele>328.33333333333337</ele><time>2026-03-29T09:16:31Z</time></trkpt><trkpt lat="46.009607570818496" lon="12.360223121274498"><ele>331.0</ele><time>2026-03-29T09:16:33Z</time></trkpt><trkpt lat="46.00964310596792" lon="12.360307938871221"><ele>333.6666666666667</ele><time>2026-03-29T09:16:34Z</time></trkpt><trkpt lat="46.009658479111444" lon="12.360440216073002"><ele>336.3333333333333</ele><time>2026-03-29T09:16:35Z</time></trkpt><trkpt lat="46.00968308609695" lon="12.360585196194062"><ele>339.0</ele><time>2026-03-29T09:16:36Z</time></trkpt><trkpt lat="46.009720299292134" lon="12.360736668031896"><ele>340.3333333333333</ele><time>2026-03-29T09:16:37Z</time></trkpt><trkpt lat="46.009767333849005" lon="12.360871845751019"><ele>341.6666666666667</ele><time>2026-03-29T09:16:38Z</time></trkpt><trkpt lat="46.00983511586628" lon="12.360978819377978"><ele>343.0</ele><time>2026-03-29T09:16:39Z</time></trkpt><trkpt lat="46.00990808038307" lon="12.361055873143064"><ele>344.33333333333337</ele><time>2026-03-29T09:16:40Z</time></trkpt><trkpt lat="46.00998307090781" lon="12.361092142940414"><ele>345.6666666666667</ele><time>2026-03-29T09:16:41Z</time></trkpt><trkpt lat="46.01005119480577" lon="12.36108588766522"><ele>347.0</ele><time>2026-03-29T09:16:42Z</time></trkpt><trkpt lat="46.01011134930769" lon="12.361037405112837"><ele>347.0</ele><time>2026-03-29T09:16:43Z</time></trkpt><trkpt lat="46.010155430473255" lon="12.360950935516074"><ele>347.0</ele><time>2026-03-29T09:16:44Z</time></trkpt><trkpt lat="46.01018208752411" lon="12.360823123685273"><ele>347.0</ele><time>2026-03-29T09:16:45Z</time></trkpt><trkpt lat="46.01019935388708" lon="12.360669966359252"><ele>347.0</ele><time>2026-03-29T09:16:46Z</time></trkpt><trkpt lat="46.010203412958795" lon="12.360510185762077"><ele>347.0</ele><time>2026-03-29T09:16:47Z</time></trkpt><trkpt lat="46.01020594048755" lon="12.360371828171626"><ele>344.6666666666667</ele><time>2026-03-29T09:16:48Z</time></trkpt><trkpt lat="46.01021858422683" lon="12.360244250647622"><ele>342.33333333333337</ele><time>2026-03-29T09:16:49Z</time></trkpt><trkpt lat="46.01025446403826" lon="12.360131653570395"><ele>340.0</ele><time>2026-03-29T09:16:50Z</time></trkpt><trkpt lat="46.010305852241636" lon="12.360042526468389"><ele>337.6666666666667</ele><time>2026-03-29T09:16:51Z</time></trkpt><trkpt lat="46.010374513303205" lon="12.359987818972112"><ele>335.3333333333333</ele><time>2026-03-29T09:16:52Z</time></trkpt><trkpt lat="46.01044786125567" lon="12.359952718063472"><ele>333.0</ele><time>2026-03-29T09:16:53Z</time></trkpt><trkpt lat="46.01052762597802" lon="12.359920556722868"><ele>333.0</ele><time>2026-03-29T09:16:54Z</time></trkpt><trkpt lat="46.010626580555616" lon="12.35989756155664"><ele>333.0</ele><time>2026-03-29T09:16:55Z</time></trkpt><trkpt lat="46.01073201016171" lon="12.359886240761465"><ele>333.0</ele><time>2026-03-29T09:16:56Z</time></trkpt><trkpt lat="46.010834821965055" lon="12.359839024665042"><ele>333.0</ele><time>2026-03-29T09:16:57Z</time></trkpt><trkpt lat="46.01093749955778" lon="12.35974796309299"><ele>333.0</ele><time>2026-03-29T09:16:58Z</time></trkpt><trkpt lat="46.011036829706654" lon="12.359638062175206"><ele>332.59999999999997</ele><time>2026-03-29T09:16:59Z</time></trkpt><trkpt lat="46.0111323605808" lon="12.359526479351183"><ele>332.2</ele><time>2026-03-29T09:17:00Z</time></trkpt><trkpt lat="46.011215031491474" lon="12.359419769623639"><ele>331.8</ele><time>2026-03-29T09:17:01Z</time></trkpt><trkpt lat="46.01128525495924" lon="12.359321261181883"><ele>331.4</ele><time>2026-03-29T09:17:02Z</time></trkpt><trkpt lat="46.01132572965559" lon="12.359210833398116"><ele>331.0</ele><time>2026-03-29T09:17:03Z</time></trkpt><trkpt lat="46.01134071492036" lon="12.359093163671691"><ele>331.0</ele><time>2026-03-29T09:17:04Z</time></trkpt><trkpt lat="46.0113236027319" lon="12.35898854021907"><ele>331.0</ele><time>2026-03-29T09:17:05Z</time></trkpt><trkpt lat="46.01128245629014" lon="12.358905129928983"><ele>331.0</ele><time>2026-03-29T09:17:06Z</time></trkpt><trkpt lat="46.01120183326761" lon="12.358823225422377"><ele>331.0</ele><time>2026-03-29T09:17:07Z</time></trkpt><trkpt lat="46.01109286242981" lon="12.358738351159893"><ele>331.0</ele><time>2026-03-29T09:17:08Z</time></trkpt><trkpt lat="46.01096159294582" lon="12.358634403155945"><ele>332.25</ele><time>2026-03-29T09:17:09Z</time></trkpt><trkpt lat="46.010834582357056" lon="12.35851654892994"><ele>333.5</ele><time>2026-03-29T09:17:10Z</time></trkpt><trkpt lat="46.010727403119986" lon="12.358415947788247"><ele>334.75</ele><time>2026-03-29T09:17:11Z</time></trkpt><trkpt lat="46.010639960777425" lon="12.358328211512237"><ele>336.0</ele><time>2026-03-29T09:17:12Z</time></trkpt><trkpt lat="46.01057170874184" lon="12.358223405835314"><ele>332.0</ele><time>2026-03-29T09:17:13Z</time></trkpt><trkpt lat="46.01052314734514" lon="12.358099818297877"><ele>328.0</ele><time>2026-03-29T09:17:14Z</time></trkpt><trkpt lat="46.01048658052689" lon="12.35795929825483"><ele>324.0</ele><time>2026-03-29T09:17:15Z</time></trkpt><trkpt lat="46.01046801108851" lon="12.357794530841614"><ele>320.0</ele><time>2026-03-29T09:17:16Z</time></trkpt><trkpt lat="46.010466361578736" lon="12.357601829690394"><ele>320.0</ele><time>2026-03-29T09:17:17Z</time></trkpt><trkpt lat="46.01046787210297" lon="12.35738611111147"><ele>320.0</ele><time>2026-03-29T09:17:18Z</time></trkpt><trkpt lat="46.01045554021515" lon="12.357176982644575"><ele>320.0</ele><time>2026-03-29T09:17:19Z</time></trkpt><trkpt lat="46.01041461581033" lon="12.35695676439777"><ele>320.6666666666667</ele><time>2026-03-29T09:17:20Z</time></trkpt><trkpt lat="46.01034036762428" lon="12.356728839141974"><ele>321.3333333333333</ele><time>2026-03-29T09:17:21Z</time></trkpt><trkpt lat="46.01026223256445" lon="12.35654148757795"><ele>322.0</ele><time>2026-03-29T09:17:22Z</time></trkpt><trkpt lat="46.010205731101294" lon="12.356375792481098"><ele>323.0</ele><time>2026-03-29T09:17:23Z</time></trkpt><trkpt lat="46.010183239603705" lon="12.356217218345284"><ele>324.0</ele><time>2026-03-29T09:17:24Z</time></trkpt><trkpt lat="46.010178648278284" lon="12.356053857867042"><ele>325.0</ele><time>2026-03-29T09:17:25Z</time></trkpt><trkpt lat="46.01019608433089" lon="12.355876438128243"><ele>326.0</ele><time>2026-03-29T09:17:26Z</time></trkpt><trkpt lat="46.01022685704915" lon="12.355701895279832"><ele>325.5</ele><time>2026-03-29T09:17:27Z</time></trkpt><trkpt lat="46.01025773731539" lon="12.355527107384205"><ele>325.0</ele><time>2026-03-29T09:17:28Z</time></trkpt><trkpt lat="46.01028170080804" lon="12.35535046359588"><ele>324.5</ele><time>2026-03-29T09:17:29Z</time></trkpt><trkpt lat="46.01030790101024" lon="12.355189471146675"><ele>324.0</ele><time>2026-03-29T09:17:30Z</time></trkpt><trkpt lat="46.01033675048749" lon="12.355037144947145"><ele>324.0</ele><time>2026-03-29T09:17:31Z</time></trkpt><trkpt lat="46.01036194915618" lon="12.354889864777963"><ele>324.0</ele><time>2026-03-29T09:17:32Z</time></trkpt><trkpt lat="46.010388143708475" lon="12.354750038923177"><ele>324.0</ele><time>2026-03-29T09:17:33Z</time></trkpt><trkpt lat="46.01041764574054" lon="12.354618289694722"><ele>324.0</ele><time>2026-03-29T09:17:34Z</time></trkpt><trkpt lat="46.01045658808403" lon="12.35449512533143"><ele>324.0</ele><time>2026-03-29T09:17:35Z</time></trkpt><trkpt lat="46.010504893322675" lon="12.354366820197693"><ele>323.0</ele><time>2026-03-29T09:17:36Z</time></trkpt><trkpt lat="46.01055956705387" lon="12.354233548507173"><ele>322.0</ele><time>2026-03-29T09:17:37Z</time></trkpt><trkpt lat="46.010622338247586" lon="12.354095289307727"><ele>321.0</ele><time>2026-03-29T09:17:38Z</time></trkpt><trkpt lat="46.010693188134034" lon="12.353956644781555"><ele>320.0</ele><time>2026-03-29T09:17:39Z</time></trkpt><trkpt lat="46.010765272611316" lon="12.353822134915601"><ele>321.8</ele><time>2026-03-29T09:17:40Z</time></trkpt><trkpt lat="46.010836676916554" lon="12.35369420118781"><ele>323.6</ele><time>2026-03-29T09:17:41.001Z</time></trkpt><trkpt lat="46.010907239801604" lon="12.35357629471866"><ele>325.4</ele><time>2026-03-29T09:17:42.001Z</time></trkpt><trkpt lat="46.01097578206441" lon="12.35345990547571"><ele>327.2</ele><time>2026-03-29T09:17:43.001Z</time></trkpt><trkpt lat="46.0110426416825" lon="12.35334156808202"><ele>329.0</ele><time>2026-03-29T09:17:44.001Z</time></trkpt><trkpt lat="46.01111363980205" lon="12.353220916442258"><ele>329.0</ele><time>2026-03-29T09:17:45.001Z</time></trkpt><trkpt lat="46.01118740112298" lon="12.353096471763509"><ele>329.0</ele><time>2026-03-29T09:17:46.001Z</time></trkpt><trkpt lat="46.011252666902706" lon="12.352959441284055"><ele>329.0</ele><time>2026-03-29T09:17:47.001Z</time></trkpt><trkpt lat="46.011303849278164" lon="12.352821774823376"><ele>329.0</ele><time>2026-03-29T09:17:48.001Z</time></trkpt><trkpt lat="46.01134188265896" lon="12.352688557071895"><ele>329.0</ele><time>2026-03-29T09:17:49.001Z</time></trkpt><trkpt lat="46.01136680413453" lon="12.352558974013146"><ele>328.5</ele><time>2026-03-29T09:17:50.001Z</time></trkpt><trkpt lat="46.01138413149705" lon="12.35243475105493"><ele>328.0</ele><time>2026-03-29T09:17:51.001Z</time></trkpt><trkpt lat="46.01139266157801" lon="12.35231328678682"><ele>327.5</ele><time>2026-03-29T09:17:52.001Z</time></trkpt><trkpt lat="46.011389641767344" lon="12.352194183669692"><ele>327.0</ele><time>2026-03-29T09:17:53.001Z</time></trkpt><trkpt lat="46.011385470939196" lon="12.352077681940832"><ele>326.5</ele><time>2026-03-29T09:17:54.001Z</time></trkpt><trkpt lat="46.01137180806942" lon="12.351961193972782"><ele>326.0</ele><time>2026-03-29T09:17:55.001Z</time></trkpt><trkpt lat="46.01133087095163" lon="12.35184748085773"><ele>326.0</ele><time>2026-03-29T09:17:56.001Z</time></trkpt><trkpt lat="46.01127602841593" lon="12.351750239024526"><ele>326.0</ele><time>2026-03-29T09:17:57.001Z</time></trkpt><trkpt lat="46.011218658905854" lon="12.351658915148901"><ele>326.0</ele><time>2026-03-29T09:17:58.001Z</time></trkpt><trkpt lat="46.01117846244496" lon="12.351572958749816"><ele>326.0</ele><time>2026-03-29T09:17:59.001Z</time></trkpt><trkpt lat="46.011188714833494" lon="12.35142686116843"><ele>326.0</ele><time>2026-03-29T09:18:01.001Z</time></trkpt><trkpt lat="46.011214366916434" lon="12.351243829477166"><ele>326.5</ele><time>2026-03-29T09:18:03.001Z</time></trkpt><trkpt lat="46.01119832911606" lon="12.351084313531045"><ele>327.0</ele><time>2026-03-29T09:18:04.001Z</time></trkpt><trkpt lat="46.01117998232398" lon="12.350898487593089"><ele>327.5</ele><time>2026-03-29T09:18:05.001Z</time></trkpt><trkpt lat="46.01115710485082" lon="12.350716844486413"><ele>328.0</ele><time>2026-03-29T09:18:06.001Z</time></trkpt><trkpt lat="46.01113648317923" lon="12.350513918916912"><ele>328.66666666666663</ele><time>2026-03-29T09:18:07.001Z</time></trkpt><trkpt lat="46.011122385799425" lon="12.350290024558"><ele>329.3333333333333</ele><time>2026-03-29T09:18:08.001Z</time></trkpt><trkpt lat="46.011113084468214" lon="12.350066296794402"><ele>330.0</ele><time>2026-03-29T09:18:09.001Z</time></trkpt><trkpt lat="46.011104850250334" lon="12.349838629010293"><ele>330.0</ele><time>2026-03-29T09:18:10.001Z</time></trkpt><trkpt lat="46.01109587363272" lon="12.349598854386063"><ele>330.0</ele><time>2026-03-29T09:18:11.001Z</time></trkpt><trkpt lat="46.01108615516958" lon="12.34936016192681"><ele>330.0</ele><time>2026-03-29T09:18:12.001Z</time></trkpt><trkpt lat="46.011080498923" lon="12.349144710688117"><ele>330.0</ele><time>2026-03-29T09:18:13.001Z</time></trkpt><trkpt lat="46.011080515973276" lon="12.34893986002114"><ele>330.0</ele><time>2026-03-29T09:18:14.001Z</time></trkpt><trkpt lat="46.01108777847477" lon="12.348747559186915"><ele>330.0</ele><time>2026-03-29T09:18:15.001Z</time></trkpt><trkpt lat="46.011101062089935" lon="12.34857151723132"><ele>330.0</ele><time>2026-03-29T09:18:16.001Z</time></trkpt><trkpt lat="46.01111386985734" lon="12.34840762006366"><ele>329.8333333333333</ele><time>2026-03-29T09:18:17.001Z</time></trkpt><trkpt lat="46.01112649044876" lon="12.348256392514948"><ele>329.6666666666667</ele><time>2026-03-29T09:18:18.001Z</time></trkpt><trkpt lat="46.01113849685688" lon="12.34812571433856"><ele>329.5</ele><time>2026-03-29T09:18:19Z</time></trkpt><trkpt lat="46.011163804874066" lon="12.348023476163053"><ele>329.33333333333337</ele><time>2026-03-29T09:18:20Z</time></trkpt><trkpt lat="46.01122263527115" lon="12.347950261842835"><ele>329.1666666666667</ele><time>2026-03-29T09:18:21Z</time></trkpt><trkpt lat="46.01129885134494" lon="12.347904543551312"><ele>329.0</ele><time>2026-03-29T09:18:22Z</time></trkpt><trkpt lat="46.0113797123021" lon="12.347886516045879"><ele>328.0</ele><time>2026-03-29T09:18:23Z</time></trkpt><trkpt lat="46.011454324392524" lon="12.34787823331938"><ele>327.0</ele><time>2026-03-29T09:18:24Z</time></trkpt><trkpt lat="46.01152310614517" lon="12.34785467503749"><ele>326.0</ele><time>2026-03-29T09:18:25Z</time></trkpt><trkpt lat="46.01157530945366" lon="12.347796176717065"><ele>325.0</ele><time>2026-03-29T09:18:26Z</time></trkpt><trkpt lat="46.01160259984547" lon="12.347708455562632"><ele>324.0</ele><time>2026-03-29T09:18:27Z</time></trkpt><trkpt lat="46.0115976305055" lon="12.34760513327279"><ele>323.0</ele><time>2026-03-29T09:18:28Z</time></trkpt><trkpt lat="46.01155310063465" lon="12.347499592837792"><ele>322.0</ele><time>2026-03-29T09:18:29Z</time></trkpt><trkpt lat="46.0114785951266" lon="12.347409524941133"><ele>322.0</ele><time>2026-03-29T09:18:30Z</time></trkpt><trkpt lat="46.01138071048028" lon="12.347331826033027"><ele>322.0</ele><time>2026-03-29T09:18:31Z</time></trkpt><trkpt lat="46.01127985976082" lon="12.347274226195143"><ele>322.0</ele><time>2026-03-29T09:18:32Z</time></trkpt><trkpt lat="46.01117123583757" lon="12.347222968223248"><ele>322.0</ele><time>2026-03-29T09:18:33Z</time></trkpt><trkpt lat="46.01106169283215" lon="12.347168298858517"><ele>324.0</ele><time>2026-03-29T09:18:34Z</time></trkpt><trkpt lat="46.01096139043984" lon="12.347105791074684"><ele>326.0</ele><time>2026-03-29T09:18:35Z</time></trkpt><trkpt lat="46.01087303068509" lon="12.347004845346019"><ele>328.0</ele><time>2026-03-29T09:18:36Z</time></trkpt><trkpt lat="46.01079089563222" lon="12.346889948177262"><ele>330.0</ele><time>2026-03-29T09:18:37Z</time></trkpt><trkpt lat="46.01071808410322" lon="12.346778219413533"><ele>332.0</ele><time>2026-03-29T09:18:38Z</time></trkpt><trkpt lat="46.01065526491516" lon="12.346658570198345"><ele>330.0</ele><time>2026-03-29T09:18:39Z</time></trkpt><trkpt lat="46.010621211907136" lon="12.346526982732632"><ele>328.0</ele><time>2026-03-29T09:18:40Z</time></trkpt><trkpt lat="46.01061406765702" lon="12.34639525412288"><ele>326.0</ele><time>2026-03-29T09:18:41Z</time></trkpt><trkpt lat="46.01062750287964" lon="12.346269482162356"><ele>324.0</ele><time>2026-03-29T09:18:42Z</time></trkpt><trkpt lat="46.01065536011562" lon="12.346132540049604"><ele>322.0</ele><time>2026-03-29T09:18:43Z</time></trkpt><trkpt lat="46.01068659868073" lon="12.345984755257076"><ele>322.0</ele><time>2026-03-29T09:18:44Z</time></trkpt><trkpt lat="46.01070852853056" lon="12.34584389350076"><ele>322.0</ele><time>2026-03-29T09:18:45Z</time></trkpt><trkpt lat="46.01070103628057" lon="12.345712856387562"><ele>322.0</ele><time>2026-03-29T09:18:46Z</time></trkpt><trkpt lat="46.01066010992937" lon="12.345601560845285"><ele>322.0</ele><time>2026-03-29T09:18:47Z</time></trkpt><trkpt lat="46.01059388209533" lon="12.345529188387559"><ele>322.0</ele><time>2026-03-29T09:18:48Z</time></trkpt><trkpt lat="46.01050151556541" lon="12.345485217055204"><ele>326.5</ele><time>2026-03-29T09:18:49Z</time></trkpt><trkpt lat="46.010393285789135" lon="12.34545071535848"><ele>331.0</ele><time>2026-03-29T09:18:50Z</time></trkpt><trkpt lat="46.01027531785649" lon="12.34542701650159"><ele>335.5</ele><time>2026-03-29T09:18:51Z</time></trkpt><trkpt lat="46.010151017110935" lon="12.345400893517212"><ele>340.0</ele><time>2026-03-29T09:18:52Z</time></trkpt><trkpt lat="46.01001715867637" lon="12.34536718021046"><ele>338.0</ele><time>2026-03-29T09:18:53Z</time></trkpt><trkpt lat="46.00987417086064" lon="12.345331175286537"><ele>336.0</ele><time>2026-03-29T09:18:54Z</time></trkpt><trkpt lat="46.00972599604826" lon="12.345294452037454"><ele>334.0</ele><time>2026-03-29T09:18:55Z</time></trkpt><trkpt lat="46.00957575271605" lon="12.345258989795855"><ele>332.0</ele><time>2026-03-29T09:18:56Z</time></trkpt><trkpt lat="46.009422399945386" lon="12.3452243779327"><ele>332.0</ele><time>2026-03-29T09:18:57Z</time></trkpt><trkpt lat="46.00927370372093" lon="12.345184157430484"><ele>332.0</ele><time>2026-03-29T09:18:58Z</time></trkpt><trkpt lat="46.00913982481546" lon="12.345144079894093"><ele>332.0</ele><time>2026-03-29T09:18:59Z</time></trkpt><trkpt lat="46.00901623699958" lon="12.345105301522645"><ele>332.0</ele><time>2026-03-29T09:19:00Z</time></trkpt><trkpt lat="46.00890872571542" lon="12.345075324142458"><ele>330.5</ele><time>2026-03-29T09:19:01Z</time></trkpt><trkpt lat="46.00882206094486" lon="12.34503712850955"><ele>329.0</ele><time>2026-03-29T09:19:02Z</time></trkpt><trkpt lat="46.008756682557724" lon="12.344964315204317"><ele>327.5</ele><time>2026-03-29T09:19:03Z</time></trkpt><trkpt lat="46.008715484218435" lon="12.344894861995577"><ele>326.0</ele><time>2026-03-29T09:19:04Z</time></trkpt><trkpt lat="46.0086792788033" lon="12.344794527187327"><ele>324.5</ele><time>2026-03-29T09:19:06Z</time></trkpt><trkpt lat="46.00865914036445" lon="12.344692021037147"><ele>323.0</ele><time>2026-03-29T09:19:14Z</time></trkpt><trkpt lat="46.008622655018236" lon="12.344598964448037"><ele>323.0</ele><time>2026-03-29T09:19:15Z</time></trkpt><trkpt lat="46.00857498550162" lon="12.344523131699832"><ele>323.0</ele><time>2026-03-29T09:19:16Z</time></trkpt><trkpt lat="46.00851695013469" lon="12.344429547470906"><ele>323.0</ele><time>2026-03-29T09:19:17Z</time></trkpt><trkpt lat="46.008470250108886" lon="12.344328999558256"><ele>323.0</ele><time>2026-03-29T09:19:18Z</time></trkpt><trkpt lat="46.0084400116564" lon="12.34423150654582"><ele>323.0</ele><time>2026-03-29T09:19:19Z</time></trkpt><trkpt lat="46.008429700725706" lon="12.34412528594927"><ele>323.0</ele><time>2026-03-29T09:19:20Z</time></trkpt><trkpt lat="46.008444461099245" lon="12.344021262901174"><ele>323.0</ele><time>2026-03-29T09:19:21Z</time></trkpt><trkpt lat="46.00849444902487" lon="12.343939357540973"><ele>323.0</ele><time>2026-03-29T09:19:22Z</time></trkpt><trkpt lat="46.0085743539529" lon="12.343886415222258"><ele>323.0</ele><time>2026-03-29T09:19:23Z</time></trkpt><trkpt lat="46.00866781577375" lon="12.343846651523751"><ele>323.0</ele><time>2026-03-29T09:19:24Z</time></trkpt><trkpt lat="46.00875277488809" lon="12.343780189031278"><ele>323.0</ele><time>2026-03-29T09:19:25Z</time></trkpt><trkpt lat="46.00881306930498" lon="12.343683336365888"><ele>323.0</ele><time>2026-03-29T09:19:26Z</time></trkpt><trkpt lat="46.008852235910155" lon="12.343581107396314"><ele>323.0</ele><time>2026-03-29T09:19:27Z</time></trkpt><trkpt lat="46.008910900903246" lon="12.34347035772282"><ele>323.0</ele><time>2026-03-29T09:19:29Z</time></trkpt><trkpt lat="46.009007116780424" lon="12.343522067363978"><ele>323.0</ele><time>2026-03-29T09:19:32Z</time></trkpt><trkpt lat="46.009037963958704" lon="12.343602229856618"><ele>323.0</ele><time>2026-03-29T09:19:33Z</time></trkpt><trkpt lat="46.00906344031818" lon="12.343763261554377"><ele>323.0</ele><time>2026-03-29T09:19:35Z</time></trkpt><trkpt lat="46.009046165623076" lon="12.343857005722796"><ele>323.0</ele><time>2026-03-29T09:19:36Z</time></trkpt><trkpt lat="46.00901664460765" lon="12.343953211240908"><ele>323.0</ele><time>2026-03-29T09:19:37Z</time></trkpt><trkpt lat="46.00899621549372" lon="12.3440403016248"><ele>323.0</ele><time>2026-03-29T09:19:38Z</time></trkpt><trkpt lat="46.00899492374549" lon="12.34413673435397"><ele>323.0</ele><time>2026-03-29T09:19:39Z</time></trkpt><trkpt lat="46.00907581115105" lon="12.344303773206736"><ele>323.0</ele><time>2026-03-29T09:19:41Z</time></trkpt><trkpt lat="46.00914769058917" lon="12.344403010030986"><ele>323.0</ele><time>2026-03-29T09:19:42Z</time></trkpt><trkpt lat="46.00921732525615" lon="12.344469079968922"><ele>325.6666666666667</ele><time>2026-03-29T09:19:43Z</time></trkpt><trkpt lat="46.009298330158046" lon="12.34450771210929"><ele>328.33333333333337</ele><time>2026-03-29T09:19:44Z</time></trkpt><trkpt lat="46.00938366474741" lon="12.344501153248062"><ele>331.0</ele><time>2026-03-29T09:19:45Z</time></trkpt><trkpt lat="46.00945228124166" lon="12.344492189489337"><ele>333.6666666666667</ele><time>2026-03-29T09:19:46Z</time></trkpt><trkpt lat="46.00952008661949" lon="12.344492395873564"><ele>336.3333333333333</ele><time>2026-03-29T09:19:47Z</time></trkpt><trkpt lat="46.0095845228342" lon="12.344491510591626"><ele>339.0</ele><time>2026-03-29T09:19:48Z</time></trkpt><trkpt lat="46.00966539337411" lon="12.344480531396266"><ele>339.0</ele><time>2026-03-29T09:19:49Z</time></trkpt><trkpt lat="46.00974768128016" lon="12.344479561010814"><ele>339.0</ele><time>2026-03-29T09:19:50Z</time></trkpt><trkpt lat="46.00983169884256" lon="12.344484507100539"><ele>339.0</ele><time>2026-03-29T09:19:51Z</time></trkpt><trkpt lat="46.00992200088024" lon="12.344481596228476"><ele>339.0</ele><time>2026-03-29T09:19:52Z</time></trkpt><trkpt lat="46.01001768785434" lon="12.344481272635438"><ele>339.0</ele><time>2026-03-29T09:19:53Z</time></trkpt><trkpt lat="46.0101155232082" lon="12.344483491927855"><ele>342.0</ele><time>2026-03-29T09:19:54Z</time></trkpt><trkpt lat="46.01021873615123" lon="12.344494463941723"><ele>345.0</ele><time>2026-03-29T09:19:55Z</time></trkpt><trkpt lat="46.01031868350459" lon="12.344509563227101"><ele>348.0</ele><time>2026-03-29T09:19:56Z</time></trkpt><trkpt lat="46.010404546905306" lon="12.344516667963738"><ele>351.0</ele><time>2026-03-29T09:19:57Z</time></trkpt><trkpt lat="46.0104763054979" lon="12.344507086551008"><ele>354.0</ele><time>2026-03-29T09:19:58Z</time></trkpt><trkpt lat="46.01056705852011" lon="12.344470718403207"><ele>354.0</ele><time>2026-03-29T09:20:00Z</time></trkpt><trkpt lat="46.01059146718843" lon="12.344376714312373"><ele>354.0</ele><time>2026-03-29T09:20:08Z</time></trkpt><trkpt lat="46.01050154527719" lon="12.344260486019072"><ele>354.0</ele><time>2026-03-29T09:20:11.001Z</time></trkpt><trkpt lat="46.01046250863593" lon="12.344181451291856"><ele>354.0</ele><time>2026-03-29T09:20:12.001Z</time></trkpt><trkpt lat="46.01041829016008" lon="12.344090694767225"><ele>354.0</ele><time>2026-03-29T09:20:13.001Z</time></trkpt><trkpt lat="46.01034980966686" lon="12.34395720709109"><ele>353.4</ele><time>2026-03-29T09:20:15.001Z</time></trkpt><trkpt lat="46.01031551902477" lon="12.343843277872026"><ele>352.79999999999995</ele><time>2026-03-29T09:20:17.001Z</time></trkpt><trkpt lat="46.0103253593501" lon="12.343704230363976"><ele>352.20000000000005</ele><time>2026-03-29T09:20:19.001Z</time></trkpt><trkpt lat="46.010384311483655" lon="12.343564692866764"><ele>351.6</ele><time>2026-03-29T09:20:21.001Z</time></trkpt><trkpt lat="46.01042776004102" lon="12.343488373949182"><ele>351.0</ele><time>2026-03-29T09:20:22.001Z</time></trkpt><trkpt lat="46.01049163390818" lon="12.343343746172897"><ele>351.0</ele><time>2026-03-29T09:20:24.001Z</time></trkpt><trkpt lat="46.01054846714699" lon="12.343209621764233"><ele>351.0</ele><time>2026-03-29T09:20:26Z</time></trkpt><trkpt lat="46.010649662081896" lon="12.343098548835822"><ele>351.0</ele><time>2026-03-29T09:20:28Z</time></trkpt><trkpt lat="46.01070485732755" lon="12.343039456894395"><ele>351.0</ele><time>2026-03-29T09:20:29Z</time></trkpt><trkpt lat="46.01076308148519" lon="12.342981177665804"><ele>351.0</ele><time>2026-03-29T09:20:30Z</time></trkpt><trkpt lat="46.01082115055351" lon="12.342921981422416"><ele>351.0</ele><time>2026-03-29T09:20:31Z</time></trkpt><trkpt lat="46.010875642275046" lon="12.342859738450745"><ele>350.8571428571429</ele><time>2026-03-29T09:20:32Z</time></trkpt><trkpt lat="46.01092796836338" lon="12.342793101907906"><ele>350.7142857142857</ele><time>2026-03-29T09:20:33Z</time></trkpt><trkpt lat="46.01097641772371" lon="12.342713428142096"><ele>350.57142857142856</ele><time>2026-03-29T09:20:34Z</time></trkpt><trkpt lat="46.01101180526913" lon="12.342618752527642"><ele>350.42857142857144</ele><time>2026-03-29T09:20:35Z</time></trkpt><trkpt lat="46.01103713752509" lon="12.3425164958706"><ele>350.2857142857143</ele><time>2026-03-29T09:20:36Z</time></trkpt><trkpt lat="46.01104563777206" lon="12.342421040377841"><ele>350.14285714285717</ele><time>2026-03-29T09:20:37Z</time></trkpt><trkpt lat="46.01105009803362" lon="12.34232585420553"><ele>350.0</ele><time>2026-03-29T09:20:38Z</time></trkpt><trkpt lat="46.01104787486623" lon="12.34223036888718"><ele>350.0</ele><time>2026-03-29T09:20:39Z</time></trkpt><trkpt lat="46.01102223120344" lon="12.342144754171155"><ele>350.0</ele><time>2026-03-29T09:20:40Z</time></trkpt><trkpt lat="46.01098106356918" lon="12.342071424125576"><ele>350.0</ele><time>2026-03-29T09:20:41Z</time></trkpt><trkpt lat="46.01093012721175" lon="12.341990027609663"><ele>350.0</ele><time>2026-03-29T09:20:42Z</time></trkpt><trkpt lat="46.010872385348" lon="12.34185422198578"><ele>350.0</ele><time>2026-03-29T09:20:44Z</time></trkpt><trkpt lat="46.010848313600874" lon="12.341691494672917"><ele>350.0</ele><time>2026-03-29T09:20:46Z</time></trkpt><trkpt lat="46.010844850834005" lon="12.341595064214781"><ele>350.0</ele><time>2026-03-29T09:20:47Z</time></trkpt><trkpt lat="46.01085317205815" lon="12.341497218079628"><ele>350.0</ele><time>2026-03-29T09:20:48Z</time></trkpt><trkpt lat="46.01087505244252" lon="12.341405715181928"><ele>350.0</ele><time>2026-03-29T09:20:49Z</time></trkpt><trkpt lat="46.010907101080505" lon="12.34131972324414"><ele>350.0</ele><time>2026-03-29T09:20:50Z</time></trkpt><trkpt lat="46.01094960167223" lon="12.341241533568892"><ele>350.0</ele><time>2026-03-29T09:20:51Z</time></trkpt><trkpt lat="46.01100139887808" lon="12.341167873946233"><ele>350.0</ele><time>2026-03-29T09:20:52Z</time></trkpt><trkpt lat="46.011062967640925" lon="12.34109726443981"><ele>350.0</ele><time>2026-03-29T09:20:53Z</time></trkpt><trkpt lat="46.01113345826418" lon="12.341033655379315"><ele>348.4</ele><time>2026-03-29T09:20:54Z</time></trkpt><trkpt lat="46.01120394086572" lon="12.34096226637688"><ele>346.8</ele><time>2026-03-29T09:20:55Z</time></trkpt><trkpt lat="46.011281648392846" lon="12.340887890468435"><ele>345.20000000000005</ele><time>2026-03-29T09:20:56Z</time></trkpt><trkpt lat="46.011365738224285" lon="12.340835294978621"><ele>343.6</ele><time>2026-03-29T09:20:57Z</time></trkpt><trkpt lat="46.011445646408056" lon="12.340773071726728"><ele>342.0</ele><time>2026-03-29T09:20:58Z</time></trkpt><trkpt lat="46.011526934931005" lon="12.3407117058922"><ele>342.0</ele><time>2026-03-29T09:20:59Z</time></trkpt><trkpt lat="46.01161058507884" lon="12.34065192801469"><ele>342.0</ele><time>2026-03-29T09:21:00Z</time></trkpt><trkpt lat="46.01169781324172" lon="12.340588787074843"><ele>342.0</ele><time>2026-03-29T09:21:01Z</time></trkpt><trkpt lat="46.011785819999105" lon="12.340525357242651"><ele>342.0</ele><time>2026-03-29T09:21:02Z</time></trkpt><trkpt lat="46.01186831562372" lon="12.340453575520492"><ele>342.0</ele><time>2026-03-29T09:21:03Z</time></trkpt><trkpt lat="46.01195044958459" lon="12.340383328262673"><ele>341.1666666666667</ele><time>2026-03-29T09:21:04Z</time></trkpt><trkpt lat="46.012024441524005" lon="12.340304408413225"><ele>340.3333333333333</ele><time>2026-03-29T09:21:05Z</time></trkpt><trkpt lat="46.01208979437067" lon="12.34022139866787"><ele>339.5</ele><time>2026-03-29T09:21:06Z</time></trkpt><trkpt lat="46.012147696493024" lon="12.340146642954922"><ele>338.66666666666663</ele><time>2026-03-29T09:21:07Z</time></trkpt><trkpt lat="46.012200904273435" lon="12.340085537025784"><ele>337.8333333333333</ele><time>2026-03-29T09:21:08Z</time></trkpt><trkpt lat="46.012261666068724" lon="12.340031919891794"><ele>337.0</ele><time>2026-03-29T09:21:09Z</time></trkpt><trkpt lat="46.0123349659303" lon="12.339977276535748"><ele>337.0</ele><time>2026-03-29T09:21:10Z</time></trkpt><trkpt lat="46.01240654782509" lon="12.33991513921985"><ele>337.0</ele><time>2026-03-29T09:21:11Z</time></trkpt><trkpt lat="46.01247521252038" lon="12.339872989287208"><ele>337.0</ele><time>2026-03-29T09:21:12Z</time></trkpt><trkpt lat="46.01256537850377" lon="12.3397880141405"><ele>337.0</ele><time>2026-03-29T09:21:14Z</time></trkpt><trkpt lat="46.01263448685536" lon="12.339667992974919"><ele>337.0</ele><time>2026-03-29T09:21:16Z</time></trkpt><trkpt lat="46.01266845399328" lon="12.339569374390528"><ele>338.3333333333333</ele><time>2026-03-29T09:21:17Z</time></trkpt><trkpt lat="46.012708610662585" lon="12.339478541888495"><ele>339.66666666666663</ele><time>2026-03-29T09:21:18Z</time></trkpt><trkpt lat="46.01274776532964" lon="12.339383763740319"><ele>341.0</ele><time>2026-03-29T09:21:19Z</time></trkpt><trkpt lat="46.01279432847102" lon="12.339295606743434"><ele>342.3333333333333</ele><time>2026-03-29T09:21:20Z</time></trkpt><trkpt lat="46.01283901868358" lon="12.339196806242116"><ele>343.6666666666667</ele><time>2026-03-29T09:21:21Z</time></trkpt><trkpt lat="46.012880631368034" lon="12.339085347247467"><ele>345.0</ele><time>2026-03-29T09:21:22Z</time></trkpt><trkpt lat="46.01291558527013" lon="12.338968067907018"><ele>344.6666666666667</ele><time>2026-03-29T09:21:23Z</time></trkpt><trkpt lat="46.01294870977162" lon="12.33887726083437"><ele>344.3333333333333</ele><time>2026-03-29T09:21:24Z</time></trkpt><trkpt lat="46.01298812020613" lon="12.338799736520036"><ele>344.0</ele><time>2026-03-29T09:21:25Z</time></trkpt><trkpt lat="46.0130403796137" lon="12.338666077343172"><ele>343.66666666666663</ele><time>2026-03-29T09:21:27Z</time></trkpt><trkpt lat="46.01305786252545" lon="12.338539830748807"><ele>343.3333333333333</ele><time>2026-03-29T09:21:29Z</time></trkpt><trkpt lat="46.01302750626428" lon="12.3384290539922"><ele>343.0</ele><time>2026-03-29T09:21:31Z</time></trkpt><trkpt lat="46.01300347519436" lon="12.338337818735315"><ele>343.0</ele><time>2026-03-29T09:21:40Z</time></trkpt><trkpt lat="46.0129277715426" lon="12.338316198929755"><ele>343.0</ele><time>2026-03-29T09:21:43Z</time></trkpt><trkpt lat="46.012850713683406" lon="12.338412985728594"><ele>343.0</ele><time>2026-03-29T09:21:45Z</time></trkpt><trkpt lat="46.01274435617096" lon="12.338485329627401"><ele>343.0</ele><time>2026-03-29T09:21:47Z</time></trkpt><trkpt lat="46.012668699768994" lon="12.338520025020525"><ele>343.0</ele><time>2026-03-29T09:21:48Z</time></trkpt><trkpt lat="46.012597034277746" lon="12.338549463718195"><ele>343.0</ele><time>2026-03-29T09:21:49Z</time></trkpt><trkpt lat="46.0125196939177" lon="12.338566675119894"><ele>343.0</ele><time>2026-03-29T09:21:50Z</time></trkpt><trkpt lat="46.01244214622919" lon="12.338556805547096"><ele>343.0</ele><time>2026-03-29T09:21:51Z</time></trkpt><trkpt lat="46.01236924646174" lon="12.338524772022046"><ele>343.0</ele><time>2026-03-29T09:21:52Z</time></trkpt><trkpt lat="46.012296198439714" lon="12.338484931353563"><ele>343.0</ele><time>2026-03-29T09:21:53Z</time></trkpt><trkpt lat="46.01222281608152" lon="12.338458202560052"><ele>343.0</ele><time>2026-03-29T09:21:54Z</time></trkpt><trkpt lat="46.012150013157274" lon="12.338454021785251"><ele>341.79999999999995</ele><time>2026-03-29T09:21:55Z</time></trkpt><trkpt lat="46.01207625829527" lon="12.338464866766344"><ele>340.6</ele><time>2026-03-29T09:21:56Z</time></trkpt><trkpt lat="46.011988186206" lon="12.338484241687935"><ele>339.4</ele><time>2026-03-29T09:21:57Z</time></trkpt><trkpt lat="46.01190172169923" lon="12.338505924956323"><ele>338.20000000000005</ele><time>2026-03-29T09:21:58Z</time></trkpt><trkpt lat="46.011799549895535" lon="12.338526730453168"><ele>337.0</ele><time>2026-03-29T09:21:59Z</time></trkpt><trkpt lat="46.01170294253362" lon="12.338538607164438"><ele>336.3333333333333</ele><time>2026-03-29T09:22:00Z</time></trkpt><trkpt lat="46.01161064656167" lon="12.338556622124061"><ele>335.66666666666663</ele><time>2026-03-29T09:22:01Z</time></trkpt><trkpt lat="46.011522116442144" lon="12.33857522865927"><ele>335.0</ele><time>2026-03-29T09:22:02Z</time></trkpt><trkpt lat="46.01143026862291" lon="12.338570997213763"><ele>334.3333333333333</ele><time>2026-03-29T09:22:03Z</time></trkpt><trkpt lat="46.011343363469315" lon="12.338572263779376"><ele>333.6666666666667</ele><time>2026-03-29T09:22:04Z</time></trkpt><trkpt lat="46.01125570772728" lon="12.338569283807413"><ele>333.0</ele><time>2026-03-29T09:22:05Z</time></trkpt><trkpt lat="46.0111707610314" lon="12.338552931833435"><ele>333.0</ele><time>2026-03-29T09:22:06Z</time></trkpt><trkpt lat="46.01108875279405" lon="12.338530867017305"><ele>333.0</ele><time>2026-03-29T09:22:07Z</time></trkpt><trkpt lat="46.0110102722196" lon="12.338503353066416"><ele>333.0</ele><time>2026-03-29T09:22:08Z</time></trkpt><trkpt lat="46.01093655701337" lon="12.338458104354368"><ele>333.0</ele><time>2026-03-29T09:22:09Z</time></trkpt><trkpt lat="46.010865965170446" lon="12.338404685049994"><ele>333.0</ele><time>2026-03-29T09:22:10Z</time></trkpt><trkpt lat="46.01079421321457" lon="12.338357221691432"><ele>333.0</ele><time>2026-03-29T09:22:11Z</time></trkpt><trkpt lat="46.01071735091387" lon="12.338330469213831"><ele>331.6666666666667</ele><time>2026-03-29T09:22:12Z</time></trkpt><trkpt lat="46.01063793045801" lon="12.338317512455552"><ele>330.3333333333333</ele><time>2026-03-29T09:22:13Z</time></trkpt><trkpt lat="46.010557462960676" lon="12.33830629632408"><ele>329.0</ele><time>2026-03-29T09:22:14Z</time></trkpt><trkpt lat="46.01047477650878" lon="12.338294556784517"><ele>327.66666666666663</ele><time>2026-03-29T09:22:15Z</time></trkpt><trkpt lat="46.01037795673056" lon="12.338290729987461"><ele>326.3333333333333</ele><time>2026-03-29T09:22:16.001Z</time></trkpt><trkpt lat="46.01027061348215" lon="12.338290337266795"><ele>325.0</ele><time>2026-03-29T09:22:17.001Z</time></trkpt><trkpt lat="46.010159549389094" lon="12.338289337211295"><ele>325.0</ele><time>2026-03-29T09:22:18.001Z</time></trkpt><trkpt lat="46.0100493079469" lon="12.338293221131408"><ele>325.0</ele><time>2026-03-29T09:22:19.001Z</time></trkpt><trkpt lat="46.009940211470585" lon="12.338299228546047"><ele>325.0</ele><time>2026-03-29T09:22:20.001Z</time></trkpt><trkpt lat="46.00983202347192" lon="12.33830505094108"><ele>325.0</ele><time>2026-03-29T09:22:21.001Z</time></trkpt><trkpt lat="46.00972476825466" lon="12.33830742009222"><ele>325.0</ele><time>2026-03-29T09:22:22.001Z</time></trkpt><trkpt lat="46.00961797023021" lon="12.338311167665285"><ele>323.8</ele><time>2026-03-29T09:22:23.001Z</time></trkpt><trkpt lat="46.00951321803195" lon="12.338316100205677"><ele>322.6</ele><time>2026-03-29T09:22:24.001Z</time></trkpt><trkpt lat="46.00941189946912" lon="12.338319476732385"><ele>321.4</ele><time>2026-03-29T09:22:25.001Z</time></trkpt><trkpt lat="46.009310423452455" lon="12.3383210498208"><ele>320.2</ele><time>2026-03-29T09:22:26.001Z</time></trkpt><trkpt lat="46.00921208707019" lon="12.338321468426663"><ele>319.0</ele><time>2026-03-29T09:22:27.001Z</time></trkpt><trkpt lat="46.00911172588178" lon="12.338323892017856"><ele>317.2</ele><time>2026-03-29T09:22:28.001Z</time></trkpt><trkpt lat="46.00901147824953" lon="12.338321526397841"><ele>315.4</ele><time>2026-03-29T09:22:29.001Z</time></trkpt><trkpt lat="46.00891500740748" lon="12.3383231452277"><ele>313.6</ele><time>2026-03-29T09:22:30.001Z</time></trkpt><trkpt lat="46.00881603785815" lon="12.338322024596566"><ele>311.8</ele><time>2026-03-29T09:22:31Z</time></trkpt><trkpt lat="46.00871679672518" lon="12.338322004430353"><ele>310.0</ele><time>2026-03-29T09:22:32Z</time></trkpt><trkpt lat="46.008621475404425" lon="12.338325788352998"><ele>310.0</ele><time>2026-03-29T09:22:33Z</time></trkpt><trkpt lat="46.00852766996618" lon="12.33832988114458"><ele>310.0</ele><time>2026-03-29T09:22:34Z</time></trkpt><trkpt lat="46.008436056525866" lon="12.338333699159735"><ele>310.0</ele><time>2026-03-29T09:22:35Z</time></trkpt><trkpt lat="46.00834482012982" lon="12.33834010661952"><ele>310.0</ele><time>2026-03-29T09:22:36Z</time></trkpt><trkpt lat="46.00825556370891" lon="12.338349445442182"><ele>310.0</ele><time>2026-03-29T09:22:37Z</time></trkpt><trkpt lat="46.00816886123506" lon="12.338363556059663"><ele>308.8333333333333</ele><time>2026-03-29T09:22:38Z</time></trkpt><trkpt lat="46.00808362604434" lon="12.338384777415422"><ele>307.66666666666663</ele><time>2026-03-29T09:22:39Z</time></trkpt><trkpt lat="46.008002519000144" lon="12.338425062718551"><ele>306.5</ele><time>2026-03-29T09:22:40Z</time></trkpt><trkpt lat="46.00792784133744" lon="12.33847809533059"><ele>305.3333333333333</ele><time>2026-03-29T09:22:41Z</time></trkpt><trkpt lat="46.007851369413714" lon="12.338527826532772"><ele>304.1666666666667</ele><time>2026-03-29T09:22:42Z</time></trkpt><trkpt lat="46.007776111248944" lon="12.338577426563656"><ele>303.0</ele><time>2026-03-29T09:22:43Z</time></trkpt><trkpt lat="46.00770281522428" lon="12.338627793986895"><ele>303.0</ele><time>2026-03-29T09:22:44Z</time></trkpt><trkpt lat="46.007628653594765" lon="12.338669206572117"><ele>303.0</ele><time>2026-03-29T09:22:45Z</time></trkpt><trkpt lat="46.00755865368335" lon="12.338711994554975"><ele>303.0</ele><time>2026-03-29T09:22:46Z</time></trkpt><trkpt lat="46.00749280179502" lon="12.338760161549695"><ele>303.0</ele><time>2026-03-29T09:22:47Z</time></trkpt><trkpt lat="46.00742645733852" lon="12.33880225988896"><ele>303.0</ele><time>2026-03-29T09:22:48Z</time></trkpt><trkpt lat="46.00732891251765" lon="12.338849015268751"><ele>303.0</ele><time>2026-03-29T09:22:50Z</time></trkpt><trkpt lat="46.007259217875045" lon="12.338874038759894"><ele>302.0</ele><time>2026-03-29T09:22:53Z</time></trkpt><trkpt lat="46.0072103398889" lon="12.338809418782018"><ele>301.0</ele><time>2026-03-29T09:23:06Z</time></trkpt><trkpt lat="46.00717668658048" lon="12.338732351667227"><ele>300.0</ele><time>2026-03-29T09:23:08Z</time></trkpt><trkpt lat="46.00713966410889" lon="12.338658701064274"><ele>299.0</ele><time>2026-03-29T09:23:12Z</time></trkpt><trkpt lat="46.007189098610425" lon="12.338724035506251"><ele>298.0</ele><time>2026-03-29T09:38:37.999Z</time></trkpt><trkpt lat="46.00722899927436" lon="12.338866895690488"><ele>297.0</ele><time>2026-03-29T09:38:40.999Z</time></trkpt><trkpt lat="46.007182299726075" lon="12.338943846642245"><ele>296.0</ele><time>2026-03-29T09:38:43.999Z</time></trkpt><trkpt lat="46.007091396759726" lon="12.338991845269742"><ele>296.0</ele><time>2026-03-29T09:38:45.999Z</time></trkpt><trkpt lat="46.00701177554086" lon="12.339024799173277"><ele>296.0</ele><time>2026-03-29T09:38:47.999Z</time></trkpt><trkpt lat="46.006894915088225" lon="12.339075205754833"><ele>296.0</ele><time>2026-03-29T09:38:49.999Z</time></trkpt><trkpt lat="46.00683753447311" lon="12.339114025525205"><ele>296.0</ele><time>2026-03-29T09:38:50.999Z</time></trkpt><trkpt lat="46.00677640378259" lon="12.33915502080819"><ele>296.0</ele><time>2026-03-29T09:38:51.999Z</time></trkpt><trkpt lat="46.006698368229785" lon="12.339159433234789"><ele>296.0</ele><time>2026-03-29T09:38:52.999Z</time></trkpt><trkpt lat="46.00660926022458" lon="12.339213535181484"><ele>294.8</ele><time>2026-03-29T09:38:53.999Z</time></trkpt><trkpt lat="46.006515767000515" lon="12.339240415771357"><ele>293.6</ele><time>2026-03-29T09:38:54.999Z</time></trkpt><trkpt lat="46.00642565160069" lon="12.339287323867454"><ele>292.4</ele><time>2026-03-29T09:38:55.999Z</time></trkpt><trkpt lat="46.006338472904545" lon="12.339326720870373"><ele>291.2</ele><time>2026-03-29T09:38:56.999Z</time></trkpt><trkpt lat="46.00625008797692" lon="12.339351004659983"><ele>290.0</ele><time>2026-03-29T09:38:57.999Z</time></trkpt><trkpt lat="46.006157131333076" lon="12.339371193677659"><ele>290.0</ele><time>2026-03-29T09:38:58.999Z</time></trkpt><trkpt lat="46.00606560104849" lon="12.339396666535608"><ele>290.0</ele><time>2026-03-29T09:38:59.999Z</time></trkpt><trkpt lat="46.00597515032622" lon="12.339425054388313"><ele>290.0</ele><time>2026-03-29T09:39:00.999Z</time></trkpt><trkpt lat="46.005890510202" lon="12.339463947713098"><ele>290.0</ele><time>2026-03-29T09:39:01.999Z</time></trkpt><trkpt lat="46.005809994736836" lon="12.33949897262312"><ele>290.0</ele><time>2026-03-29T09:39:02.999Z</time></trkpt><trkpt lat="46.00572960980084" lon="12.33955076328813"><ele>290.0</ele><time>2026-03-29T09:39:03.999Z</time></trkpt><trkpt lat="46.00565203991194" lon="12.339606092716622"><ele>288.2</ele><time>2026-03-29T09:39:04.999Z</time></trkpt><trkpt lat="46.00557766626387" lon="12.339665712627946"><ele>286.4</ele><time>2026-03-29T09:39:05.999Z</time></trkpt><trkpt lat="46.00550034058383" lon="12.339726053503524"><ele>284.6</ele><time>2026-03-29T09:39:06.999Z</time></trkpt><trkpt lat="46.00541617637429" lon="12.339787148588922"><ele>282.8</ele><time>2026-03-29T09:39:07.999Z</time></trkpt><trkpt lat="46.005321703032195" lon="12.339853250693478"><ele>281.0</ele><time>2026-03-29T09:39:08.999Z</time></trkpt><trkpt lat="46.00521867578478" lon="12.339908399392119"><ele>280.75</ele><time>2026-03-29T09:39:09.999Z</time></trkpt><trkpt lat="46.00510696068033" lon="12.339948032225058"><ele>280.5</ele><time>2026-03-29T09:39:10.999Z</time></trkpt><trkpt lat="46.00498878282718" lon="12.339968049248604"><ele>280.25</ele><time>2026-03-29T09:39:11.999Z</time></trkpt><trkpt lat="46.0048660238456" lon="12.339971589465215"><ele>280.0</ele><time>2026-03-29T09:39:12.999Z</time></trkpt><trkpt lat="46.00473622700638" lon="12.339963677020478"><ele>278.5</ele><time>2026-03-29T09:39:13.999Z</time></trkpt><trkpt lat="46.004598144788254" lon="12.339958570622096"><ele>277.0</ele><time>2026-03-29T09:39:14.999Z</time></trkpt><trkpt lat="46.00445384817158" lon="12.339968644267127"><ele>275.5</ele><time>2026-03-29T09:39:15.999Z</time></trkpt><trkpt lat="46.00430528189014" lon="12.339993693469992"><ele>274.0</ele><time>2026-03-29T09:39:16.999Z</time></trkpt><trkpt lat="46.004163718395795" lon="12.340030320520432"><ele>272.0</ele><time>2026-03-29T09:39:17.999Z</time></trkpt><trkpt lat="46.00402540436925" lon="12.34007268985792"><ele>270.0</ele><time>2026-03-29T09:39:18.998Z</time></trkpt><trkpt lat="46.00389014384635" lon="12.340111871337493"><ele>268.0</ele><time>2026-03-29T09:39:19.998Z</time></trkpt><trkpt lat="46.00375579326103" lon="12.340141380205285"><ele>266.0</ele><time>2026-03-29T09:39:20.998Z</time></trkpt><trkpt lat="46.00362206015445" lon="12.340158632563348"><ele>266.0</ele><time>2026-03-29T09:39:21.998Z</time></trkpt><trkpt lat="46.003485267252714" lon="12.340168834895719"><ele>266.0</ele><time>2026-03-29T09:39:22.998Z</time></trkpt><trkpt lat="46.003343565075006" lon="12.340171124195539"><ele>266.0</ele><time>2026-03-29T09:39:23.998Z</time></trkpt><trkpt lat="46.00320312606303" lon="12.340166798912128"><ele>266.0</ele><time>2026-03-29T09:39:24.998Z</time></trkpt><trkpt lat="46.003067306508434" lon="12.340156409505497"><ele>264.5</ele><time>2026-03-29T09:39:25.998Z</time></trkpt><trkpt lat="46.00293454907794" lon="12.340144100299343"><ele>263.0</ele><time>2026-03-29T09:39:26.998Z</time></trkpt><trkpt lat="46.00280276205163" lon="12.340127754481406"><ele>261.5</ele><time>2026-03-29T09:39:27.998Z</time></trkpt><trkpt lat="46.0026729974587" lon="12.34010630602867"><ele>260.0</ele><time>2026-03-29T09:39:28.998Z</time></trkpt><trkpt lat="46.00254592161577" lon="12.34006892200892"><ele>259.0</ele><time>2026-03-29T09:39:29.998Z</time></trkpt><trkpt lat="46.00242110328297" lon="12.34002193401293"><ele>258.0</ele><time>2026-03-29T09:39:30.998Z</time></trkpt><trkpt lat="46.0023030857559" lon="12.339965685645145"><ele>257.0</ele><time>2026-03-29T09:39:31.998Z</time></trkpt><trkpt lat="46.00218711480532" lon="12.33990789881779"><ele>256.0</ele><time>2026-03-29T09:39:32.998Z</time></trkpt><trkpt lat="46.002072207097434" lon="12.339854822568435"><ele>256.0</ele><time>2026-03-29T09:39:33.998Z</time></trkpt><trkpt lat="46.0019533328279" lon="12.339809745648077"><ele>256.0</ele><time>2026-03-29T09:39:34.999Z</time></trkpt><trkpt lat="46.00183394796788" lon="12.339784127624089"><ele>256.0</ele><time>2026-03-29T09:39:35.999Z</time></trkpt><trkpt lat="46.00170797658299" lon="12.339769304069836"><ele>256.0</ele><time>2026-03-29T09:39:36.999Z</time></trkpt><trkpt lat="46.001574327816286" lon="12.339756929278836"><ele>254.75</ele><time>2026-03-29T09:39:37.999Z</time></trkpt><trkpt lat="46.00144361375098" lon="12.339745236822456"><ele>253.5</ele><time>2026-03-29T09:39:38.999Z</time></trkpt><trkpt lat="46.00131707269049" lon="12.339731709122747"><ele>252.25</ele><time>2026-03-29T09:39:39.999Z</time></trkpt><trkpt lat="46.001194128818184" lon="12.33972409267302"><ele>251.0</ele><time>2026-03-29T09:39:40.999Z</time></trkpt><trkpt lat="46.001079193221805" lon="12.339719280288813"><ele>250.83333333333334</ele><time>2026-03-29T09:39:41.999Z</time></trkpt><trkpt lat="46.00097067868189" lon="12.339713419486056"><ele>250.66666666666669</ele><time>2026-03-29T09:39:42.999Z</time></trkpt><trkpt lat="46.000876501961045" lon="12.339716803266699"><ele>250.5</ele><time>2026-03-29T09:39:43.999Z</time></trkpt><trkpt lat="46.00080066970274" lon="12.339738684915078"><ele>250.33333333333331</ele><time>2026-03-29T09:39:44.999Z</time></trkpt><trkpt lat="46.00073328813128" lon="12.339760410214941"><ele>250.16666666666666</ele><time>2026-03-29T09:39:45.999Z</time></trkpt><trkpt lat="46.00069958198937" lon="12.339843350249312"><ele>250.0</ele><time>2026-03-29T09:39:46.999Z</time></trkpt><trkpt lat="46.00065050978965" lon="12.340013370338516"><ele>249.99999999999997</ele><time>2026-03-29T09:39:48.999Z</time></trkpt><trkpt lat="46.00062542562959" lon="12.340125567089054"><ele>250.0</ele><time>2026-03-29T09:39:49.999Z</time></trkpt><trkpt lat="46.00059951534103" lon="12.340243493884767"><ele>250.0</ele><time>2026-03-29T09:39:50.999Z</time></trkpt><trkpt lat="46.000570286249534" lon="12.34036183086035"><ele>250.0</ele><time>2026-03-29T09:39:51.999Z</time></trkpt><trkpt lat="46.000534355254594" lon="12.340482326700437"><ele>249.99999999999997</ele><time>2026-03-29T09:39:52.999Z</time></trkpt><trkpt lat="46.00048329498392" lon="12.340597048348881"><ele>250.0</ele><time>2026-03-29T09:39:53.999Z</time></trkpt><trkpt lat="46.00041195515861" lon="12.340693308823859"><ele>249.2</ele><time>2026-03-29T09:39:54.999Z</time></trkpt><trkpt lat="46.000325152863596" lon="12.340768345596334"><ele>248.4</ele><time>2026-03-29T09:39:55.999Z</time></trkpt><trkpt lat="46.00023854907218" lon="12.340836717558513"><ele>247.60000000000002</ele><time>2026-03-29T09:39:56.999Z</time></trkpt><trkpt lat="46.00014608614713" lon="12.34089825103089"><ele>246.8</ele><time>2026-03-29T09:39:57.999Z</time></trkpt><trkpt lat="46.00005329693469" lon="12.340942502730162"><ele>246.0</ele><time>2026-03-29T09:39:58.999Z</time></trkpt><trkpt lat="45.999961400888964" lon="12.340965121959297"><ele>246.0</ele><time>2026-03-29T09:39:59.999Z</time></trkpt><trkpt lat="45.99987373707526" lon="12.340941851810031"><ele>246.00000000000003</ele><time>2026-03-29T09:40:00.999Z</time></trkpt><trkpt lat="45.99978490320884" lon="12.34091207596555"><ele>246.00000000000003</ele><time>2026-03-29T09:40:01.999Z</time></trkpt><trkpt lat="45.99968635013725" lon="12.34090090149728"><ele>246.0</ele><time>2026-03-29T09:40:02.999Z</time></trkpt><trkpt lat="45.999591595819304" lon="12.340855476168052"><ele>246.0</ele><time>2026-03-29T09:40:03.999Z</time></trkpt><trkpt lat="45.999496696894894" lon="12.34079314313754"><ele>246.0</ele><time>2026-03-29T09:40:04.999Z</time></trkpt><trkpt lat="45.99940234269084" lon="12.34073143207716"><ele>246.00000000000003</ele><time>2026-03-29T09:40:05.999Z</time></trkpt><trkpt lat="45.999312803781116" lon="12.340657735219319"><ele>246.00000000000003</ele><time>2026-03-29T09:40:06.999Z</time></trkpt><trkpt lat="45.99923209339966" lon="12.340554732354658"><ele>246.0</ele><time>2026-03-29T09:40:07.999Z</time></trkpt><trkpt lat="45.99916161909918" lon="12.340431148634243"><ele>246.0</ele><time>2026-03-29T09:40:08.999Z</time></trkpt><trkpt lat="45.99909509406993" lon="12.340299320100316"><ele>243.0</ele><time>2026-03-29T09:40:09.999Z</time></trkpt><trkpt lat="45.99902832997136" lon="12.340172905124701"><ele>240.00000000000003</ele><time>2026-03-29T09:40:10.999Z</time></trkpt><trkpt lat="45.99895621494703" lon="12.340072373302835"><ele>237.00000000000003</ele><time>2026-03-29T09:40:11.999Z</time></trkpt><trkpt lat="45.99887721756614" lon="12.339995166299683"><ele>234.0</ele><time>2026-03-29T09:40:12.999Z</time></trkpt><trkpt lat="45.99878124912786" lon="12.339958266817373"><ele>231.0</ele><time>2026-03-29T09:40:13.999Z</time></trkpt><trkpt lat="45.99868337378282" lon="12.339951402322672"><ele>231.0</ele><time>2026-03-29T09:40:14.999Z</time></trkpt><trkpt lat="45.998589394719254" lon="12.3399730765322"><ele>231.00000000000003</ele><time>2026-03-29T09:40:15.999Z</time></trkpt><trkpt lat="45.998498284751385" lon="12.340010940089831"><ele>231.00000000000003</ele><time>2026-03-29T09:40:16.999Z</time></trkpt><trkpt lat="45.998397333355186" lon="12.34006456864185"><ele>231.0</ele><time>2026-03-29T09:40:17.999Z</time></trkpt><trkpt lat="45.99829166438279" lon="12.340119744649042"><ele>231.0</ele><time>2026-03-29T09:40:18.999Z</time></trkpt><trkpt lat="45.998182067643356" lon="12.340170130766094"><ele>230.5</ele><time>2026-03-29T09:40:19.999Z</time></trkpt><trkpt lat="45.99806447326239" lon="12.340211895994008"><ele>230.0</ele><time>2026-03-29T09:40:20.999Z</time></trkpt><trkpt lat="45.99793412140507" lon="12.340244723061295"><ele>229.5</ele><time>2026-03-29T09:40:21.999Z</time></trkpt><trkpt lat="45.997793218099964" lon="12.340238449308204"><ele>229.0</ele><time>2026-03-29T09:40:22.999Z</time></trkpt><trkpt lat="45.99764749845948" lon="12.340256892058616"><ele>229.0</ele><time>2026-03-29T09:40:23.999Z</time></trkpt><trkpt lat="45.99750590812369" lon="12.340276329135493"><ele>229.0</ele><time>2026-03-29T09:40:24.999Z</time></trkpt><trkpt lat="45.9973706881816" lon="12.34029489170677"><ele>229.0</ele><time>2026-03-29T09:40:25.999Z</time></trkpt><trkpt lat="45.99721684135294" lon="12.340316011288392"><ele>229.0</ele><time>2026-03-29T09:40:27Z</time></trkpt><trkpt lat="45.99703896517282" lon="12.340341041881267"><ele>227.33333333333331</ele><time>2026-03-29T09:40:28Z</time></trkpt><trkpt lat="45.996852896561926" lon="12.340367169830355"><ele>225.66666666666669</ele><time>2026-03-29T09:40:29Z</time></trkpt><trkpt lat="45.99667129796303" lon="12.340392501715488"><ele>224.0</ele><time>2026-03-29T09:40:30Z</time></trkpt><trkpt lat="45.996497850005824" lon="12.34041669661339"><ele>222.66666666666669</ele><time>2026-03-29T09:40:31Z</time></trkpt><trkpt lat="45.99633348115789" lon="12.340459725733819"><ele>221.33333333333331</ele><time>2026-03-29T09:40:32Z</time></trkpt><trkpt lat="45.99617179887986" lon="12.340480996562022"><ele>220.0</ele><time>2026-03-29T09:40:33Z</time></trkpt><trkpt lat="45.99601721348674" lon="12.340501406253503"><ele>220.0</ele><time>2026-03-29T09:40:34Z</time></trkpt><trkpt lat="45.995866476822655" lon="12.340515185940014"><ele>220.0</ele><time>2026-03-29T09:40:35Z</time></trkpt><trkpt lat="45.99572063430716" lon="12.340531635397797"><ele>220.0</ele><time>2026-03-29T09:40:36Z</time></trkpt><trkpt lat="45.995579172085684" lon="12.34054871269674"><ele>220.0</ele><time>2026-03-29T09:40:37Z</time></trkpt><trkpt lat="45.99544733680551" lon="12.340575542718657"><ele>218.0</ele><time>2026-03-29T09:40:38Z</time></trkpt><trkpt lat="45.99532467654918" lon="12.340618626855255"><ele>216.0</ele><time>2026-03-29T09:40:39Z</time></trkpt><trkpt lat="45.99521106857389" lon="12.340675078135044"><ele>214.0</ele><time>2026-03-29T09:40:40Z</time></trkpt><trkpt lat="45.995115472138764" lon="12.340767142322683"><ele>212.0</ele><time>2026-03-29T09:40:41Z</time></trkpt><trkpt lat="45.99503496120097" lon="12.34087412376334"><ele>212.0</ele><time>2026-03-29T09:40:42Z</time></trkpt><trkpt lat="45.99500564292202" lon="12.34102685180246"><ele>212.0</ele><time>2026-03-29T09:40:43Z</time></trkpt><trkpt lat="45.99500320874947" lon="12.341173047806082"><ele>212.0</ele><time>2026-03-29T09:40:44Z</time></trkpt><trkpt lat="45.99502373993176" lon="12.341307459067544"><ele>212.0</ele><time>2026-03-29T09:40:45Z</time></trkpt><trkpt lat="45.995080701814615" lon="12.341438009382417"><ele>212.0</ele><time>2026-03-29T09:40:46Z</time></trkpt><trkpt lat="45.99516696574515" lon="12.341563662736903"><ele>209.75</ele><time>2026-03-29T09:40:47Z</time></trkpt><trkpt lat="45.99527194478069" lon="12.341688789120042"><ele>207.5</ele><time>2026-03-29T09:40:48Z</time></trkpt><trkpt lat="45.99537477732413" lon="12.341812366561646"><ele>205.25</ele><time>2026-03-29T09:40:49Z</time></trkpt><trkpt lat="45.99545112121042" lon="12.341942775978431"><ele>203.0</ele><time>2026-03-29T09:40:50Z</time></trkpt><trkpt lat="45.99548882307655" lon="12.342086505957713"><ele>202.4</ele><time>2026-03-29T09:40:51Z</time></trkpt><trkpt lat="45.99549846128628" lon="12.342238766821122"><ele>201.8</ele><time>2026-03-29T09:40:52Z</time></trkpt><trkpt lat="45.99548315236215" lon="12.34238688517163"><ele>201.2</ele><time>2026-03-29T09:40:53Z</time></trkpt><trkpt lat="45.995440104134936" lon="12.342537536938787"><ele>200.6</ele><time>2026-03-29T09:40:54Z</time></trkpt><trkpt lat="45.99536913993742" lon="12.342661582194696"><ele>200.0</ele><time>2026-03-29T09:40:55Z</time></trkpt><trkpt lat="45.995276761953406" lon="12.342745281215926"><ele>200.0</ele><time>2026-03-29T09:40:56Z</time></trkpt><trkpt lat="45.99516748733302" lon="12.342807273076073"><ele>200.0</ele><time>2026-03-29T09:40:57Z</time></trkpt><trkpt lat="45.99504817761015" lon="12.342842834788215"><ele>200.0</ele><time>2026-03-29T09:40:58Z</time></trkpt><trkpt lat="45.994927627485765" lon="12.342834926462908"><ele>200.0</ele><time>2026-03-29T09:40:59Z</time></trkpt><trkpt lat="45.99480863730808" lon="12.34278001225521"><ele>198.5</ele><time>2026-03-29T09:41:00Z</time></trkpt><trkpt lat="45.99468541097713" lon="12.34268783964693"><ele>197.0</ele><time>2026-03-29T09:41:01Z</time></trkpt><trkpt lat="45.99456755399008" lon="12.342567996993482"><ele>195.5</ele><time>2026-03-29T09:41:02Z</time></trkpt><trkpt lat="45.994452810323445" lon="12.342430960157902"><ele>194.0</ele><time>2026-03-29T09:41:03Z</time></trkpt><trkpt lat="45.994341263597896" lon="12.342303818210002"><ele>193.25</ele><time>2026-03-29T09:41:04Z</time></trkpt><trkpt lat="45.99423101451838" lon="12.34218513514424"><ele>192.5</ele><time>2026-03-29T09:41:05Z</time></trkpt><trkpt lat="45.994123554716374" lon="12.34207364288728"><ele>191.75</ele><time>2026-03-29T09:41:06Z</time></trkpt><trkpt lat="45.99402074459798" lon="12.341962462640895"><ele>191.0</ele><time>2026-03-29T09:41:07Z</time></trkpt><trkpt lat="45.99391702885418" lon="12.34186582340959"><ele>191.0</ele><time>2026-03-29T09:41:08Z</time></trkpt><trkpt lat="45.993804713802504" lon="12.341797898059406"><ele>191.0</ele><time>2026-03-29T09:41:09Z</time></trkpt><trkpt lat="45.993687023958366" lon="12.341769900777642"><ele>191.0</ele><time>2026-03-29T09:41:10Z</time></trkpt><trkpt lat="45.993569535869696" lon="12.341760401043553"><ele>191.0</ele><time>2026-03-29T09:41:11Z</time></trkpt><trkpt lat="45.99345424648083" lon="12.341785699767494"><ele>188.75</ele><time>2026-03-29T09:41:12Z</time></trkpt><trkpt lat="45.993337211559606" lon="12.341846652143925"><ele>186.5</ele><time>2026-03-29T09:41:13Z</time></trkpt><trkpt lat="45.993208368318136" lon="12.341946598744636"><ele>184.25</ele><time>2026-03-29T09:41:14Z</time></trkpt><trkpt lat="45.993065999416785" lon="12.342076354406359"><ele>182.0</ele><time>2026-03-29T09:41:15Z</time></trkpt><trkpt lat="45.992909001417736" lon="12.342185909444737"><ele>180.66666666666666</ele><time>2026-03-29T09:41:16Z</time></trkpt><trkpt lat="45.992743218706075" lon="12.342313942541718"><ele>179.33333333333334</ele><time>2026-03-29T09:41:17Z</time></trkpt><trkpt lat="45.992571178491865" lon="12.342447297086814"><ele>178.0</ele><time>2026-03-29T09:41:18Z</time></trkpt><trkpt lat="45.99240105072286" lon="12.342579169143653"><ele>178.0</ele><time>2026-03-29T09:41:19Z</time></trkpt><trkpt lat="45.99222698547405" lon="12.342714093172159"><ele>178.0</ele><time>2026-03-29T09:41:20Z</time></trkpt><trkpt lat="45.99205016383691" lon="12.342851123737884"><ele>178.0</ele><time>2026-03-29T09:41:21Z</time></trkpt><trkpt lat="45.99186909946912" lon="12.342990845332285"><ele>177.33333333333334</ele><time>2026-03-29T09:41:22Z</time></trkpt><trkpt lat="45.9916929769497" lon="12.343146402544495"><ele>176.66666666666666</ele><time>2026-03-29T09:41:23Z</time></trkpt><trkpt lat="45.99150836950718" lon="12.343282264078514"><ele>176.0</ele><time>2026-03-29T09:41:24Z</time></trkpt><trkpt lat="45.991326400743326" lon="12.343421814655882"><ele>176.0</ele><time>2026-03-29T09:41:24.998Z</time></trkpt><trkpt lat="45.9911488775163" lon="12.34354871883911"><ele>176.0</ele><time>2026-03-29T09:41:25.998Z</time></trkpt><trkpt lat="45.990978186435875" lon="12.343667840683123"><ele>176.0</ele><time>2026-03-29T09:41:26.998Z</time></trkpt><trkpt lat="45.99081350896584" lon="12.343767973892318"><ele>175.0</ele><time>2026-03-29T09:41:27.998Z</time></trkpt><trkpt lat="45.9906514990383" lon="12.343854286443953"><ele>174.0</ele><time>2026-03-29T09:41:28.998Z</time></trkpt><trkpt lat="45.990480586532165" lon="12.3439320312218"><ele>173.0</ele><time>2026-03-29T09:41:29.998Z</time></trkpt><trkpt lat="45.99030200856927" lon="12.343999332284177"><ele>173.0</ele><time>2026-03-29T09:41:30.998Z</time></trkpt><trkpt lat="45.9901172784182" lon="12.34405678539911"><ele>173.0</ele><time>2026-03-29T09:41:31.998Z</time></trkpt><trkpt lat="45.98992953822696" lon="12.344107216584534"><ele>173.0</ele><time>2026-03-29T09:41:32.998Z</time></trkpt><trkpt lat="45.98974993104709" lon="12.344145131951498"><ele>172.0</ele><time>2026-03-29T09:41:33.999Z</time></trkpt><trkpt lat="45.989579802995955" lon="12.34417280550638"><ele>171.0</ele><time>2026-03-29T09:41:34.999Z</time></trkpt><trkpt lat="45.98941691553537" lon="12.344199715746543"><ele>170.0</ele><time>2026-03-29T09:41:35.999Z</time></trkpt><trkpt lat="45.98926199709958" lon="12.34422492528906"><ele>169.25</ele><time>2026-03-29T09:41:36.999Z</time></trkpt><trkpt lat="45.98910905319067" lon="12.344219264832322"><ele>168.5</ele><time>2026-03-29T09:41:37.999Z</time></trkpt><trkpt lat="45.98896714448606" lon="12.34419640656996"><ele>167.75</ele><time>2026-03-29T09:41:38.999Z</time></trkpt><trkpt lat="45.98883126824478" lon="12.344147705889272"><ele>167.0</ele><time>2026-03-29T09:41:39.999Z</time></trkpt><trkpt lat="45.98868895788307" lon="12.344071066672953"><ele>167.0</ele><time>2026-03-29T09:41:40.999Z</time></trkpt><trkpt lat="45.98854114409794" lon="12.3439745796078"><ele>167.0</ele><time>2026-03-29T09:41:41.999Z</time></trkpt><trkpt lat="45.98838787860233" lon="12.343878595613283"><ele>167.0</ele><time>2026-03-29T09:41:42.999Z</time></trkpt><trkpt lat="45.98823329359936" lon="12.343775968490329"><ele>166.33333333333331</ele><time>2026-03-29T09:41:43.999Z</time></trkpt><trkpt lat="45.98808732186558" lon="12.343670295025964"><ele>165.66666666666666</ele><time>2026-03-29T09:41:44.999Z</time></trkpt><trkpt lat="45.98795289873834" lon="12.343563217153054"><ele>165.0</ele><time>2026-03-29T09:41:45.999Z</time></trkpt><trkpt lat="45.9878358738562" lon="12.34345717169129"><ele>165.0</ele><time>2026-03-29T09:41:46.999Z</time></trkpt><trkpt lat="45.987759685480256" lon="12.343331367529569"><ele>165.0</ele><time>2026-03-29T09:41:47.999Z</time></trkpt><trkpt lat="45.9877081361281" lon="12.343183546395009"><ele>165.0</ele><time>2026-03-29T09:41:48.999Z</time></trkpt><trkpt lat="45.98766728357008" lon="12.34301912695009"><ele>165.0</ele><time>2026-03-29T09:41:49.999Z</time></trkpt><trkpt lat="45.9876329441874" lon="12.342836884678777"><ele>167.66666666666666</ele><time>2026-03-29T09:41:50.999Z</time></trkpt><trkpt lat="45.98762045040629" lon="12.342639648248271"><ele>170.33333333333331</ele><time>2026-03-29T09:41:51.999Z</time></trkpt><trkpt lat="45.98763141074475" lon="12.342425058106212"><ele>173.0</ele><time>2026-03-29T09:41:52.999Z</time></trkpt><trkpt lat="45.987647117005444" lon="12.342185736139069"><ele>177.33333333333331</ele><time>2026-03-29T09:41:53.999Z</time></trkpt><trkpt lat="45.987657772381155" lon="12.341937958228575"><ele>181.66666666666666</ele><time>2026-03-29T09:41:54.999Z</time></trkpt><trkpt lat="45.98766044522976" lon="12.341697010342953"><ele>186.0</ele><time>2026-03-29T09:41:55.999Z</time></trkpt><trkpt lat="45.98765717773686" lon="12.341479074848142"><ele>186.25</ele><time>2026-03-29T09:41:56.999Z</time></trkpt><trkpt lat="45.98764748130497" lon="12.341276211392755"><ele>186.5</ele><time>2026-03-29T09:41:57.999Z</time></trkpt><trkpt lat="45.98763443981034" lon="12.341073984634448"><ele>186.75</ele><time>2026-03-29T09:41:58.999Z</time></trkpt><trkpt lat="45.98761360028147" lon="12.340874540629532"><ele>187.0</ele><time>2026-03-29T09:41:59.999Z</time></trkpt><trkpt lat="45.98759043891096" lon="12.340683163751036"><ele>188.0</ele><time>2026-03-29T09:42:00.999Z</time></trkpt><trkpt lat="45.98756207832682" lon="12.340500779610093"><ele>189.0</ele><time>2026-03-29T09:42:01.999Z</time></trkpt><trkpt lat="45.98753985990369" lon="12.340323616113853"><ele>190.0</ele><time>2026-03-29T09:42:02.999Z</time></trkpt><trkpt lat="45.9875321969233" lon="12.340150370248418"><ele>191.0</ele><time>2026-03-29T09:42:03.999Z</time></trkpt><trkpt lat="45.98753708069648" lon="12.339977174010839"><ele>191.0</ele><time>2026-03-29T09:42:04.999Z</time></trkpt><trkpt lat="45.987552509126644" lon="12.339807683448067"><ele>191.0</ele><time>2026-03-29T09:42:06Z</time></trkpt><trkpt lat="45.98757100778023" lon="12.339636195715775"><ele>191.0</ele><time>2026-03-29T09:42:07Z</time></trkpt><trkpt lat="45.98759019672624" lon="12.339457395761805"><ele>191.0</ele><time>2026-03-29T09:42:08Z</time></trkpt><trkpt lat="45.98760653915047" lon="12.33927355761731"><ele>190.25</ele><time>2026-03-29T09:42:09Z</time></trkpt><trkpt lat="45.98761992603228" lon="12.33908626488402"><ele>189.5</ele><time>2026-03-29T09:42:10Z</time></trkpt><trkpt lat="45.98762356692674" lon="12.338893025434054"><ele>188.75</ele><time>2026-03-29T09:42:11Z</time></trkpt><trkpt lat="45.98761207059845" lon="12.338696120791727"><ele>188.0</ele><time>2026-03-29T09:42:12Z</time></trkpt><trkpt lat="45.98758581639196" lon="12.338499307268949"><ele>188.0</ele><time>2026-03-29T09:42:13Z</time></trkpt><trkpt lat="45.98755161598464" lon="12.33830275498347"><ele>188.0</ele><time>2026-03-29T09:42:14Z</time></trkpt><trkpt lat="45.9875147600759" lon="12.338109587428534"><ele>188.0</ele><time>2026-03-29T09:42:15Z</time></trkpt><trkpt lat="45.98748289615552" lon="12.337916100358152"><ele>188.0</ele><time>2026-03-29T09:42:16Z</time></trkpt><trkpt lat="45.98745280506757" lon="12.337725461029232"><ele>186.0</ele><time>2026-03-29T09:42:17Z</time></trkpt><trkpt lat="45.98742097970558" lon="12.337537728470695"><ele>184.0</ele><time>2026-03-29T09:42:18Z</time></trkpt><trkpt lat="45.98738952685693" lon="12.337352167973389"><ele>182.0</ele><time>2026-03-29T09:42:19Z</time></trkpt><trkpt lat="45.9873563410841" lon="12.337164449852056"><ele>180.0</ele><time>2026-03-29T09:42:20Z</time></trkpt><trkpt lat="45.98732293632268" lon="12.336971592616395"><ele>180.0</ele><time>2026-03-29T09:42:21Z</time></trkpt><trkpt lat="45.98728999301135" lon="12.336775903118491"><ele>180.0</ele><time>2026-03-29T09:42:22Z</time></trkpt><trkpt lat="45.987257711882854" lon="12.336575992022238"><ele>180.0</ele><time>2026-03-29T09:42:23Z</time></trkpt><trkpt lat="45.98722606878513" lon="12.336385234602554"><ele>180.0</ele><time>2026-03-29T09:42:24Z</time></trkpt><trkpt lat="45.98719334612775" lon="12.336200878869342"><ele>180.75</ele><time>2026-03-29T09:42:25Z</time></trkpt><trkpt lat="45.987160593774135" lon="12.336019940651902"><ele>181.5</ele><time>2026-03-29T09:42:26Z</time></trkpt><trkpt lat="45.98713414704682" lon="12.335839338617236"><ele>182.25</ele><time>2026-03-29T09:42:27Z</time></trkpt><trkpt lat="45.98710482218157" lon="12.335664503320286"><ele>183.0</ele><time>2026-03-29T09:42:28Z</time></trkpt><trkpt lat="45.98707721876423" lon="12.33549227027409"><ele>184.5</ele><time>2026-03-29T09:42:29Z</time></trkpt><trkpt lat="45.98704971283914" lon="12.335322012979116"><ele>186.0</ele><time>2026-03-29T09:42:30Z</time></trkpt><trkpt lat="45.98702417875942" lon="12.335152571715149"><ele>187.5</ele><time>2026-03-29T09:42:31Z</time></trkpt><trkpt lat="45.98700127590353" lon="12.334987371998787"><ele>189.0</ele><time>2026-03-29T09:42:32Z</time></trkpt><trkpt lat="45.98699066106885" lon="12.334818511302082"><ele>187.5</ele><time>2026-03-29T09:42:33Z</time></trkpt><trkpt lat="45.986999169031634" lon="12.334647207041556"><ele>186.0</ele><time>2026-03-29T09:42:34Z</time></trkpt><trkpt lat="45.98702446269438" lon="12.334485352320655"><ele>184.5</ele><time>2026-03-29T09:42:35Z</time></trkpt><trkpt lat="45.98704428905883" lon="12.334321074302457"><ele>183.0</ele><time>2026-03-29T09:42:36Z</time></trkpt><trkpt lat="45.98704543662235" lon="12.334158477597542"><ele>183.0</ele><time>2026-03-29T09:42:37Z</time></trkpt><trkpt lat="45.987037703348754" lon="12.333993216227752"><ele>183.0</ele><time>2026-03-29T09:42:38Z</time></trkpt><trkpt lat="45.987044479775285" lon="12.333825996639838"><ele>183.0</ele><time>2026-03-29T09:42:39Z</time></trkpt><trkpt lat="45.987079285938435" lon="12.333663241294207"><ele>183.0</ele><time>2026-03-29T09:42:40Z</time></trkpt><trkpt lat="45.987132456877106" lon="12.333510987922791"><ele>180.75</ele><time>2026-03-29T09:42:41Z</time></trkpt><trkpt lat="45.987199011818355" lon="12.333373272641001"><ele>178.5</ele><time>2026-03-29T09:42:42Z</time></trkpt><trkpt lat="45.987257689554795" lon="12.33323478979509"><ele>176.25</ele><time>2026-03-29T09:42:43Z</time></trkpt><trkpt lat="45.987296515451334" lon="12.333081987734873"><ele>174.0</ele><time>2026-03-29T09:42:44Z</time></trkpt><trkpt lat="45.98731471104701" lon="12.332918274544204"><ele>172.5</ele><time>2026-03-29T09:42:45Z</time></trkpt><trkpt lat="45.98731322799858" lon="12.332739364136378"><ele>171.0</ele><time>2026-03-29T09:42:46Z</time></trkpt><trkpt lat="45.98730395122789" lon="12.332553025829036"><ele>169.5</ele><time>2026-03-29T09:42:47Z</time></trkpt><trkpt lat="45.98729601180751" lon="12.332366476037938"><ele>168.0</ele><time>2026-03-29T09:42:48Z</time></trkpt><trkpt lat="45.98728836618248" lon="12.332183597976321"><ele>166.5</ele><time>2026-03-29T09:42:49Z</time></trkpt><trkpt lat="45.987273435097165" lon="12.331999840637106"><ele>165.0</ele><time>2026-03-29T09:42:50Z</time></trkpt><trkpt lat="45.98726172969799" lon="12.331820897272477"><ele>163.5</ele><time>2026-03-29T09:42:51Z</time></trkpt><trkpt lat="45.987234602041994" lon="12.331641993669495"><ele>162.0</ele><time>2026-03-29T09:42:52Z</time></trkpt><trkpt lat="45.98716607374371" lon="12.331484099091307"><ele>160.4</ele><time>2026-03-29T09:42:53Z</time></trkpt><trkpt lat="45.98710690197408" lon="12.331341490188361"><ele>158.79999999999998</ele><time>2026-03-29T09:42:54Z</time></trkpt><trkpt lat="45.987063807832534" lon="12.331204104181978"><ele>157.2</ele><time>2026-03-29T09:42:55Z</time></trkpt><trkpt lat="45.98705424156984" lon="12.331057894780749"><ele>155.6</ele><time>2026-03-29T09:42:56Z</time></trkpt><trkpt lat="45.987079519473724" lon="12.330921894678053"><ele>154.0</ele><time>2026-03-29T09:42:57Z</time></trkpt><trkpt lat="45.98713813677789" lon="12.330789739148521"><ele>154.0</ele><time>2026-03-29T09:42:58Z</time></trkpt><trkpt lat="45.98720770202974" lon="12.330655016401728"><ele>154.0</ele><time>2026-03-29T09:42:59Z</time></trkpt><trkpt lat="45.987281132573486" lon="12.33051288057216"><ele>154.0</ele><time>2026-03-29T09:43:00Z</time></trkpt><trkpt lat="45.98735746820889" lon="12.330374225888637"><ele>154.0</ele><time>2026-03-29T09:43:01Z</time></trkpt><trkpt lat="45.98742579383518" lon="12.330241105011533"><ele>154.0</ele><time>2026-03-29T09:43:02Z</time></trkpt><trkpt lat="45.98747923952083" lon="12.330107560019542"><ele>154.0</ele><time>2026-03-29T09:43:03Z</time></trkpt><trkpt lat="45.98752628201155" lon="12.32996437862077"><ele>154.0</ele><time>2026-03-29T09:43:04Z</time></trkpt><trkpt lat="45.987512380565974" lon="12.329809249963052"><ele>154.0</ele><time>2026-03-29T09:43:05Z</time></trkpt><trkpt lat="45.98748295095614" lon="12.329666549226575"><ele>154.0</ele><time>2026-03-29T09:43:06Z</time></trkpt><trkpt lat="45.987424914097716" lon="12.329535178573272"><ele>150.75</ele><time>2026-03-29T09:43:07Z</time></trkpt><trkpt lat="45.98734448012213" lon="12.329413161579287"><ele>147.5</ele><time>2026-03-29T09:43:08Z</time></trkpt><trkpt lat="45.98725145481161" lon="12.329299553123859"><ele>144.25</ele><time>2026-03-29T09:43:09Z</time></trkpt><trkpt lat="45.98715035780277" lon="12.329183583399221"><ele>141.0</ele><time>2026-03-29T09:43:10Z</time></trkpt><trkpt lat="45.98704745436333" lon="12.329063955150481"><ele>141.0</ele><time>2026-03-29T09:43:11Z</time></trkpt><trkpt lat="45.986944778039515" lon="12.328942727039323"><ele>141.0</ele><time>2026-03-29T09:43:12Z</time></trkpt><trkpt lat="45.98684850714484" lon="12.328831485951143"><ele>141.0</ele><time>2026-03-29T09:43:13Z</time></trkpt><trkpt lat="45.98675236008199" lon="12.328730570442337"><ele>141.0</ele><time>2026-03-29T09:43:14Z</time></trkpt><trkpt lat="45.986667024873334" lon="12.328625348228252"><ele>139.8</ele><time>2026-03-29T09:43:15Z</time></trkpt><trkpt lat="45.98658667250136" lon="12.328522738349543"><ele>138.6</ele><time>2026-03-29T09:43:16Z</time></trkpt><trkpt lat="45.98650568087018" lon="12.328430458830004"><ele>137.4</ele><time>2026-03-29T09:43:17Z</time></trkpt><trkpt lat="45.986428729545544" lon="12.328340586946513"><ele>136.2</ele><time>2026-03-29T09:43:18Z</time></trkpt><trkpt lat="45.98635455274198" lon="12.3282532965226"><ele>135.0</ele><time>2026-03-29T09:43:19Z</time></trkpt><trkpt lat="45.98628838828554" lon="12.328168717242942"><ele>135.0</ele><time>2026-03-29T09:43:20Z</time></trkpt><trkpt lat="45.98623357366234" lon="12.328100352278456"><ele>135.0</ele><time>2026-03-29T09:43:21Z</time></trkpt><trkpt lat="45.98614878364446" lon="12.328009257207531"><ele>135.0</ele><time>2026-03-29T09:43:23Z</time></trkpt><trkpt lat="45.98605525835501" lon="12.327881322008793"><ele>135.0</ele><time>2026-03-29T09:43:25Z</time></trkpt><trkpt lat="45.98599012424313" lon="12.327725596132481"><ele>135.0</ele><time>2026-03-29T09:43:27Z</time></trkpt><trkpt lat="45.98595847036641" lon="12.327637278558813"><ele>135.0</ele><time>2026-03-29T09:43:28Z</time></trkpt><trkpt lat="45.98592775050178" lon="12.327544412397076"><ele>135.0</ele><time>2026-03-29T09:43:29Z</time></trkpt><trkpt lat="45.98590074214536" lon="12.327454525108092"><ele>135.0</ele><time>2026-03-29T09:43:30Z</time></trkpt><trkpt lat="45.985873643929" lon="12.327354502096664"><ele>135.0</ele><time>2026-03-29T09:43:30.999Z</time></trkpt><trkpt lat="45.985851151736796" lon="12.327238070554484"><ele>135.0</ele><time>2026-03-29T09:43:31.999Z</time></trkpt><trkpt lat="45.985853600051826" lon="12.327105250614434"><ele>135.0</ele><time>2026-03-29T09:43:32.999Z</time></trkpt><trkpt lat="45.98582634698315" lon="12.326981204543145"><ele>134.2</ele><time>2026-03-29T09:43:33.999Z</time></trkpt><trkpt lat="45.98581830400553" lon="12.326859344231819"><ele>133.4</ele><time>2026-03-29T09:43:34.999Z</time></trkpt><trkpt lat="45.98580837211708" lon="12.326731654476221"><ele>132.6</ele><time>2026-03-29T09:43:35.999Z</time></trkpt><trkpt lat="45.98579736498983" lon="12.326595835608087"><ele>131.8</ele><time>2026-03-29T09:43:36.999Z</time></trkpt><trkpt lat="45.98578392068527" lon="12.326456126911562"><ele>131.0</ele><time>2026-03-29T09:43:37.999Z</time></trkpt><trkpt lat="45.98576948142608" lon="12.32631721608185"><ele>131.0</ele><time>2026-03-29T09:43:38.999Z</time></trkpt><trkpt lat="45.985760263130224" lon="12.32618065816926"><ele>131.0</ele><time>2026-03-29T09:43:39.999Z</time></trkpt><trkpt lat="45.98574897424521" lon="12.326040691510636"><ele>131.0</ele><time>2026-03-29T09:43:40.999Z</time></trkpt><trkpt lat="45.985734010684276" lon="12.32589728975822"><ele>131.0</ele><time>2026-03-29T09:43:41.999Z</time></trkpt><trkpt lat="45.98572053843939" lon="12.3257532526588"><ele>131.0</ele><time>2026-03-29T09:43:42.999Z</time></trkpt><trkpt lat="45.98570822717015" lon="12.325621611614855"><ele>130.83333333333331</ele><time>2026-03-29T09:43:43.999Z</time></trkpt><trkpt lat="45.98569755016228" lon="12.325504452281265"><ele>130.66666666666666</ele><time>2026-03-29T09:43:44.999Z</time></trkpt><trkpt lat="45.98568504475032" lon="12.325384688873909"><ele>130.5</ele><time>2026-03-29T09:43:45.999Z</time></trkpt><trkpt lat="45.98567426451742" lon="12.32526055033588"><ele>130.33333333333334</ele><time>2026-03-29T09:43:46.999Z</time></trkpt><trkpt lat="45.9856616672757" lon="12.325138648887208"><ele>130.16666666666669</ele><time>2026-03-29T09:43:47.999Z</time></trkpt><trkpt lat="45.98564680694741" lon="12.32501398065947"><ele>130.0</ele><time>2026-03-29T09:43:48.999Z</time></trkpt><trkpt lat="45.98563850927076" lon="12.324879186011676"><ele>130.0</ele><time>2026-03-29T09:43:49.999Z</time></trkpt><trkpt lat="45.98563364907216" lon="12.324732099821606"><ele>130.0</ele><time>2026-03-29T09:43:50.999Z</time></trkpt><trkpt lat="45.985632490072405" lon="12.324574803850075"><ele>130.0</ele><time>2026-03-29T09:43:51.999Z</time></trkpt><trkpt lat="45.98563196526746" lon="12.324407796127145"><ele>130.0</ele><time>2026-03-29T09:43:52.999Z</time></trkpt><trkpt lat="45.98563206690645" lon="12.32424037098417"><ele>130.0</ele><time>2026-03-29T09:43:53.999Z</time></trkpt><trkpt lat="45.985634202822155" lon="12.324077995182677"><ele>130.0</ele><time>2026-03-29T09:43:54.999Z</time></trkpt><trkpt lat="45.985639104106156" lon="12.323914986308484"><ele>130.0</ele><time>2026-03-29T09:43:56Z</time></trkpt><trkpt lat="45.98564430448227" lon="12.323745487469306"><ele>130.0</ele><time>2026-03-29T09:43:57Z</time></trkpt><trkpt lat="45.98565408440988" lon="12.323573329511525"><ele>130.0</ele><time>2026-03-29T09:43:58Z</time></trkpt><trkpt lat="45.985668538999484" lon="12.323401974273693"><ele>129.75</ele><time>2026-03-29T09:43:59Z</time></trkpt><trkpt lat="45.985685371517015" lon="12.32322664571888"><ele>129.5</ele><time>2026-03-29T09:44:00Z</time></trkpt><trkpt lat="45.98570585666293" lon="12.32304922291657"><ele>129.25</ele><time>2026-03-29T09:44:01Z</time></trkpt><trkpt lat="45.98572358126211" lon="12.322870767414882"><ele>129.0</ele><time>2026-03-29T09:44:02Z</time></trkpt><trkpt lat="45.985742481784314" lon="12.322692039218671"><ele>128.75</ele><time>2026-03-29T09:44:03Z</time></trkpt><trkpt lat="45.985762972191154" lon="12.322514121829084"><ele>128.5</ele><time>2026-03-29T09:44:04Z</time></trkpt><trkpt lat="45.98578678184977" lon="12.322332310640714"><ele>128.25</ele><time>2026-03-29T09:44:05Z</time></trkpt><trkpt lat="45.98580790966916" lon="12.322147638128031"><ele>128.0</ele><time>2026-03-29T09:44:06Z</time></trkpt><trkpt lat="45.985824503201506" lon="12.321961239853525"><ele>128.0</ele><time>2026-03-29T09:44:07Z</time></trkpt><trkpt lat="45.985840242158986" lon="12.321776605011834"><ele>128.0</ele><time>2026-03-29T09:44:08Z</time></trkpt><trkpt lat="45.98585497689186" lon="12.321596783945104"><ele>128.0</ele><time>2026-03-29T09:44:09Z</time></trkpt><trkpt lat="45.98587431058282" lon="12.321424880521446"><ele>128.0</ele><time>2026-03-29T09:44:10Z</time></trkpt><trkpt lat="45.9858976415686" lon="12.321262645924246"><ele>128.5</ele><time>2026-03-29T09:44:11Z</time></trkpt><trkpt lat="45.98593059456264" lon="12.32110471687173"><ele>129.0</ele><time>2026-03-29T09:44:12Z</time></trkpt><trkpt lat="45.98597783738081" lon="12.320944886588189"><ele>129.5</ele><time>2026-03-29T09:44:13Z</time></trkpt><trkpt lat="45.986037523668344" lon="12.320792702669497"><ele>130.0</ele><time>2026-03-29T09:44:14Z</time></trkpt><trkpt lat="45.98608467407604" lon="12.320631481777607"><ele>130.75</ele><time>2026-03-29T09:44:15Z</time></trkpt><trkpt lat="45.98615980505466" lon="12.320493505221066"><ele>131.5</ele><time>2026-03-29T09:44:16Z</time></trkpt><trkpt lat="45.98617242448992" lon="12.320323451408493"><ele>132.25</ele><time>2026-03-29T09:44:17Z</time></trkpt><trkpt lat="45.98616283062782" lon="12.320132714593136"><ele>133.0</ele><time>2026-03-29T09:44:18Z</time></trkpt><trkpt lat="45.986136258705955" lon="12.319919490279135"><ele>132.0</ele><time>2026-03-29T09:44:19Z</time></trkpt><trkpt lat="45.98611175514298" lon="12.319692775277217"><ele>131.0</ele><time>2026-03-29T09:44:20Z</time></trkpt><trkpt lat="45.98608051888598" lon="12.319483260341663"><ele>130.0</ele><time>2026-03-29T09:44:21Z</time></trkpt><trkpt lat="45.986118675494204" lon="12.319274674011432"><ele>130.0</ele><time>2026-03-29T09:44:22Z</time></trkpt><trkpt lat="45.98614794719659" lon="12.319065785343932"><ele>130.0</ele><time>2026-03-29T09:44:23Z</time></trkpt><trkpt lat="45.98619252610855" lon="12.318859782199935"><ele>130.0</ele><time>2026-03-29T09:44:24Z</time></trkpt><trkpt lat="45.986244960402225" lon="12.318652808319916"><ele>129.33333333333334</ele><time>2026-03-29T09:44:25Z</time></trkpt><trkpt lat="45.986301429241514" lon="12.318445372602625"><ele>128.66666666666666</ele><time>2026-03-29T09:44:26Z</time></trkpt><trkpt lat="45.98637054461307" lon="12.318241040633506"><ele>128.0</ele><time>2026-03-29T09:44:27Z</time></trkpt><trkpt lat="45.98644531019984" lon="12.31804151454773"><ele>128.0</ele><time>2026-03-29T09:44:28Z</time></trkpt><trkpt lat="45.98652392578067" lon="12.317845501069739"><ele>128.0</ele><time>2026-03-29T09:44:29Z</time></trkpt><trkpt lat="45.98660297601626" lon="12.317649698072113"><ele>128.0</ele><time>2026-03-29T09:44:30Z</time></trkpt><trkpt lat="45.98667937177062" lon="12.317453735948831"><ele>128.66666666666666</ele><time>2026-03-29T09:44:31Z</time></trkpt><trkpt lat="45.98675860268581" lon="12.31725916856908"><ele>129.33333333333334</ele><time>2026-03-29T09:44:32Z</time></trkpt><trkpt lat="45.98683982062398" lon="12.317067240886264"><ele>130.0</ele><time>2026-03-29T09:44:33Z</time></trkpt><trkpt lat="45.98692594716488" lon="12.316885360299679"><ele>130.0</ele><time>2026-03-29T09:44:34Z</time></trkpt><trkpt lat="45.98701031802257" lon="12.316702745728938"><ele>130.0</ele><time>2026-03-29T09:44:35Z</time></trkpt><trkpt lat="45.98709268704539" lon="12.31651721384179"><ele>130.0</ele><time>2026-03-29T09:44:36Z</time></trkpt><trkpt lat="45.98717384784053" lon="12.316327368655047"><ele>130.33333333333334</ele><time>2026-03-29T09:44:37Z</time></trkpt><trkpt lat="45.98724869772808" lon="12.316135215464548"><ele>130.66666666666666</ele><time>2026-03-29T09:44:38Z</time></trkpt><trkpt lat="45.98731665451715" lon="12.315939329745111"><ele>131.0</ele><time>2026-03-29T09:44:39Z</time></trkpt><trkpt lat="45.98737748189644" lon="12.315737937306807"><ele>130.66666666666666</ele><time>2026-03-29T09:44:40Z</time></trkpt><trkpt lat="45.98743306809022" lon="12.315533036943563"><ele>130.33333333333334</ele><time>2026-03-29T09:44:41Z</time></trkpt><trkpt lat="45.98748546807581" lon="12.315329240673284"><ele>130.0</ele><time>2026-03-29T09:44:42Z</time></trkpt><trkpt lat="45.987535916574245" lon="12.315130961041453"><ele>130.75</ele><time>2026-03-29T09:44:43Z</time></trkpt><trkpt lat="45.98758685932712" lon="12.314940491921213"><ele>131.5</ele><time>2026-03-29T09:44:44Z</time></trkpt><trkpt lat="45.987639256207174" lon="12.314756566832347"><ele>132.25</ele><time>2026-03-29T09:44:45Z</time></trkpt><trkpt lat="45.9876888446138" lon="12.314573200362469"><ele>133.0</ele><time>2026-03-29T09:44:46Z</time></trkpt><trkpt lat="45.9877339570472" lon="12.314388412641161"><ele>133.0</ele><time>2026-03-29T09:44:47Z</time></trkpt><trkpt lat="45.98777956402298" lon="12.314206051476352"><ele>133.0</ele><time>2026-03-29T09:44:48Z</time></trkpt><trkpt lat="45.987826888320704" lon="12.314025095859533"><ele>133.0</ele><time>2026-03-29T09:44:49Z</time></trkpt><trkpt lat="45.98787208783817" lon="12.313842900969597"><ele>133.0</ele><time>2026-03-29T09:44:50Z</time></trkpt><trkpt lat="45.98791537891139" lon="12.313658060139783"><ele>133.0</ele><time>2026-03-29T09:44:51Z</time></trkpt><trkpt lat="45.9879559130682" lon="12.313469276824858"><ele>133.0</ele><time>2026-03-29T09:44:52.001Z</time></trkpt><trkpt lat="45.98799946477062" lon="12.313286385124215"><ele>133.0</ele><time>2026-03-29T09:44:53.001Z</time></trkpt><trkpt lat="45.988038081759896" lon="12.313107918598597"><ele>133.0</ele><time>2026-03-29T09:44:54.001Z</time></trkpt><trkpt lat="45.988076748985094" lon="12.312932463794226"><ele>133.0</ele><time>2026-03-29T09:44:55.001Z</time></trkpt><trkpt lat="45.98810608055251" lon="12.312755784433145"><ele>133.0</ele><time>2026-03-29T09:44:56.001Z</time></trkpt><trkpt lat="45.98813093415191" lon="12.312580713221912"><ele>133.0</ele><time>2026-03-29T09:44:57.001Z</time></trkpt><trkpt lat="45.988151920497884" lon="12.312405810254822"><ele>133.0</ele><time>2026-03-29T09:44:58.001Z</time></trkpt><trkpt lat="45.988169413553805" lon="12.312227143024272"><ele>133.0</ele><time>2026-03-29T09:44:59.001Z</time></trkpt><trkpt lat="45.98818639658488" lon="12.312031578173398"><ele>133.0</ele><time>2026-03-29T09:45:00.001Z</time></trkpt><trkpt lat="45.98819787112771" lon="12.311841750969922"><ele>133.0</ele><time>2026-03-29T09:45:01.001Z</time></trkpt><trkpt lat="45.98820507986473" lon="12.311669994701242"><ele>133.0</ele><time>2026-03-29T09:45:02.001Z</time></trkpt><trkpt lat="45.988208634982506" lon="12.311488559367096"><ele>133.0</ele><time>2026-03-29T09:45:03.001Z</time></trkpt><trkpt lat="45.98821220176825" lon="12.31131761532948"><ele>133.0</ele><time>2026-03-29T09:45:04.001Z</time></trkpt><trkpt lat="45.98822225398056" lon="12.311142251219199"><ele>133.0</ele><time>2026-03-29T09:45:05.001Z</time></trkpt><trkpt lat="45.98823040764549" lon="12.31096807874479"><ele>133.0</ele><time>2026-03-29T09:45:06.001Z</time></trkpt><trkpt lat="45.98824134491431" lon="12.31080179478966"><ele>133.0</ele><time>2026-03-29T09:45:07.001Z</time></trkpt><trkpt lat="45.98824620139532" lon="12.310643067343424"><ele>133.0</ele><time>2026-03-29T09:45:08.001Z</time></trkpt><trkpt lat="45.98825179298177" lon="12.31048957858933"><ele>133.0</ele><time>2026-03-29T09:45:09.001Z</time></trkpt><trkpt lat="45.98825807751007" lon="12.3103409721143"><ele>133.0</ele><time>2026-03-29T09:45:10.001Z</time></trkpt><trkpt lat="45.98826399537184" lon="12.310193432859307"><ele>133.0</ele><time>2026-03-29T09:45:11.001Z</time></trkpt><trkpt lat="45.988264995128226" lon="12.31004398449849"><ele>133.0</ele><time>2026-03-29T09:45:12.001Z</time></trkpt><trkpt lat="45.98827359641457" lon="12.309896842482376"><ele>133.0</ele><time>2026-03-29T09:45:13.001Z</time></trkpt><trkpt lat="45.988284830729484" lon="12.30975044916944"><ele>133.0</ele><time>2026-03-29T09:45:14.001Z</time></trkpt><trkpt lat="45.988297036352556" lon="12.309603496537305"><ele>133.0</ele><time>2026-03-29T09:45:15.001Z</time></trkpt><trkpt lat="45.98830386257733" lon="12.30945464155671"><ele>133.0</ele><time>2026-03-29T09:45:16.001Z</time></trkpt><trkpt lat="45.98831235171572" lon="12.309299768437112"><ele>133.0</ele><time>2026-03-29T09:45:17.001Z</time></trkpt><trkpt lat="45.98831876796222" lon="12.309144840579313"><ele>133.0</ele><time>2026-03-29T09:45:18.001Z</time></trkpt><trkpt lat="45.98832744911331" lon="12.308986840673272"><ele>133.0</ele><time>2026-03-29T09:45:19.001Z</time></trkpt><trkpt lat="45.98833411834249" lon="12.30883381828656"><ele>133.0</ele><time>2026-03-29T09:45:20.001Z</time></trkpt><trkpt lat="45.988341867982435" lon="12.308685936344656"><ele>133.0</ele><time>2026-03-29T09:45:21.001Z</time></trkpt><trkpt lat="45.98834867572212" lon="12.308545220283616"><ele>133.4</ele><time>2026-03-29T09:45:22.001Z</time></trkpt><trkpt lat="45.98835541999009" lon="12.308414943078127"><ele>133.8</ele><time>2026-03-29T09:45:23.001Z</time></trkpt><trkpt lat="45.98836633751424" lon="12.308288513036487"><ele>134.2</ele><time>2026-03-29T09:45:24.001Z</time></trkpt><trkpt lat="45.988397912471555" lon="12.308165685667221"><ele>134.6</ele><time>2026-03-29T09:45:25.001Z</time></trkpt><trkpt lat="45.988410970912646" lon="12.30802969193179"><ele>135.0</ele><time>2026-03-29T09:45:26.001Z</time></trkpt><trkpt lat="45.988502327263" lon="12.307917486887678"><ele>135.0</ele><time>2026-03-29T09:45:27.001Z</time></trkpt><trkpt lat="45.988580169972806" lon="12.307804724186092"><ele>135.0</ele><time>2026-03-29T09:45:28.001Z</time></trkpt><trkpt lat="45.988669032865104" lon="12.30769899568361"><ele>135.0</ele><time>2026-03-29T09:45:29.001Z</time></trkpt><trkpt lat="45.98876686316671" lon="12.307600913046098"><ele>135.0</ele><time>2026-03-29T09:45:30.001Z</time></trkpt><trkpt lat="45.98887210578392" lon="12.307503842562081"><ele>135.0</ele><time>2026-03-29T09:45:31.001Z</time></trkpt><trkpt lat="45.98897702335038" lon="12.307407532820747"><ele>135.0</ele><time>2026-03-29T09:45:32.001Z</time></trkpt><trkpt lat="45.98908625617235" lon="12.307307631206989"><ele>135.0</ele><time>2026-03-29T09:45:33.001Z</time></trkpt><trkpt lat="45.98919829392028" lon="12.307210964449402"><ele>135.0</ele><time>2026-03-29T09:45:34.001Z</time></trkpt><trkpt lat="45.98931161897104" lon="12.307109894686686"><ele>134.0</ele><time>2026-03-29T09:45:35.001Z</time></trkpt><trkpt lat="45.989417425529616" lon="12.306990197348268"><ele>133.0</ele><time>2026-03-29T09:45:36.001Z</time></trkpt><trkpt lat="45.98952332012147" lon="12.306871015271406"><ele>132.0</ele><time>2026-03-29T09:45:36.999Z</time></trkpt><trkpt lat="45.989630338278864" lon="12.306747744483594"><ele>131.0</ele><time>2026-03-29T09:45:37.999Z</time></trkpt><trkpt lat="45.98973935030448" lon="12.30662503474571"><ele>131.0</ele><time>2026-03-29T09:45:38.999Z</time></trkpt><trkpt lat="45.98984662871967" lon="12.306505417501853"><ele>131.0</ele><time>2026-03-29T09:45:39.999Z</time></trkpt><trkpt lat="45.98994875060493" lon="12.306380279035963"><ele>131.0</ele><time>2026-03-29T09:45:40.999Z</time></trkpt><trkpt lat="45.99005254161402" lon="12.306258109075433"><ele>131.0</ele><time>2026-03-29T09:45:41.999Z</time></trkpt><trkpt lat="45.99016223350779" lon="12.306132973531572"><ele>131.0</ele><time>2026-03-29T09:45:42.999Z</time></trkpt><trkpt lat="45.99027087288367" lon="12.306008527045078"><ele>131.0</ele><time>2026-03-29T09:45:43.999Z</time></trkpt><trkpt lat="45.990379039731586" lon="12.305885366651635"><ele>131.0</ele><time>2026-03-29T09:45:44.999Z</time></trkpt><trkpt lat="45.99048723343874" lon="12.305763977593385"><ele>131.0</ele><time>2026-03-29T09:45:45.999Z</time></trkpt><trkpt lat="45.99059350004597" lon="12.305642279099022"><ele>130.75</ele><time>2026-03-29T09:45:46.999Z</time></trkpt><trkpt lat="45.990696865970015" lon="12.30551746257956"><ele>130.5</ele><time>2026-03-29T09:45:47.999Z</time></trkpt><trkpt lat="45.99079750697656" lon="12.305396760209977"><ele>130.25</ele><time>2026-03-29T09:45:48.999Z</time></trkpt><trkpt lat="45.99089380057213" lon="12.305287643199648"><ele>130.0</ele><time>2026-03-29T09:45:49.999Z</time></trkpt><trkpt lat="45.99098416340375" lon="12.305183512558125"><ele>131.0</ele><time>2026-03-29T09:45:50.999Z</time></trkpt><trkpt lat="45.99107562256141" lon="12.30508751584054"><ele>132.0</ele><time>2026-03-29T09:45:51.999Z</time></trkpt><trkpt lat="45.991167580912375" lon="12.304993299827299"><ele>133.0</ele><time>2026-03-29T09:45:52.999Z</time></trkpt><trkpt lat="45.9912597136741" lon="12.304891995727823"><ele>134.0</ele><time>2026-03-29T09:45:53.999Z</time></trkpt><trkpt lat="45.991356533535615" lon="12.304787884402193"><ele>134.5</ele><time>2026-03-29T09:45:54.999Z</time></trkpt><trkpt lat="45.99145081377752" lon="12.3046752004657"><ele>135.0</ele><time>2026-03-29T09:45:55.999Z</time></trkpt><trkpt lat="45.99154753567958" lon="12.304556000311083"><ele>135.5</ele><time>2026-03-29T09:45:56.999Z</time></trkpt><trkpt lat="45.99164726966052" lon="12.304435399362406"><ele>136.0</ele><time>2026-03-29T09:45:58Z</time></trkpt><trkpt lat="45.99174436254875" lon="12.304317516832004"><ele>136.0</ele><time>2026-03-29T09:45:59Z</time></trkpt><trkpt lat="45.99184632960606" lon="12.304195512334008"><ele>136.0</ele><time>2026-03-29T09:46:00Z</time></trkpt><trkpt lat="45.99195500375339" lon="12.30406816210362"><ele>136.0</ele><time>2026-03-29T09:46:01Z</time></trkpt><trkpt lat="45.99206821261005" lon="12.303941245202392"><ele>136.0</ele><time>2026-03-29T09:46:02Z</time></trkpt><trkpt lat="45.99218261950294" lon="12.303816582390958"><ele>136.0</ele><time>2026-03-29T09:46:03Z</time></trkpt><trkpt lat="45.99229919950938" lon="12.303687245101486"><ele>136.0</ele><time>2026-03-29T09:46:04Z</time></trkpt><trkpt lat="45.992415121546344" lon="12.303563733334316"><ele>136.0</ele><time>2026-03-29T09:46:05Z</time></trkpt><trkpt lat="45.99252208985273" lon="12.303446819444387"><ele>136.0</ele><time>2026-03-29T09:46:06Z</time></trkpt><trkpt lat="45.992620613401634" lon="12.303332574887945"><ele>136.0</ele><time>2026-03-29T09:46:07Z</time></trkpt><trkpt lat="45.9927174907636" lon="12.303215660722993"><ele>136.0</ele><time>2026-03-29T09:46:08Z</time></trkpt><trkpt lat="45.99281837112594" lon="12.30309705240689"><ele>136.0</ele><time>2026-03-29T09:46:09Z</time></trkpt><trkpt lat="45.99292003909213" lon="12.302981236253052"><ele>136.0</ele><time>2026-03-29T09:46:10Z</time></trkpt><trkpt lat="45.993017850593546" lon="12.302867454113715"><ele>136.0</ele><time>2026-03-29T09:46:11Z</time></trkpt><trkpt lat="45.99311340258963" lon="12.302750284699554"><ele>136.0</ele><time>2026-03-29T09:46:12Z</time></trkpt><trkpt lat="45.993212944173266" lon="12.302636762966332"><ele>136.0</ele><time>2026-03-29T09:46:13Z</time></trkpt><trkpt lat="45.99331432127258" lon="12.302519095080049"><ele>136.0</ele><time>2026-03-29T09:46:14Z</time></trkpt><trkpt lat="45.99342289836552" lon="12.302394014183728"><ele>136.5</ele><time>2026-03-29T09:46:15Z</time></trkpt><trkpt lat="45.993535824075444" lon="12.302253135039974"><ele>137.0</ele><time>2026-03-29T09:46:16Z</time></trkpt><trkpt lat="45.99364781259746" lon="12.30212750119505"><ele>137.5</ele><time>2026-03-29T09:46:17Z</time></trkpt><trkpt lat="45.99375272995038" lon="12.30199128698441"><ele>138.0</ele><time>2026-03-29T09:46:18Z</time></trkpt><trkpt lat="45.99385453741925" lon="12.301873430023212"><ele>138.0</ele><time>2026-03-29T09:46:19Z</time></trkpt><trkpt lat="45.993960145088145" lon="12.30177334625424"><ele>138.0</ele><time>2026-03-29T09:46:20Z</time></trkpt><trkpt lat="45.99403926573873" lon="12.301656348726391"><ele>138.0</ele><time>2026-03-29T09:46:21Z</time></trkpt><trkpt lat="45.99412944875222" lon="12.301579890301335"><ele>138.0</ele><time>2026-03-29T09:46:22Z</time></trkpt><trkpt lat="45.99421278607666" lon="12.301526844988386"><ele>138.0</ele><time>2026-03-29T09:46:23Z</time></trkpt><trkpt lat="45.994293765418405" lon="12.301502001091668"><ele>138.0</ele><time>2026-03-29T09:46:24Z</time></trkpt><trkpt lat="45.994368896330336" lon="12.30151503195152"><ele>138.0</ele><time>2026-03-29T09:46:25Z</time></trkpt><trkpt lat="45.994442874476974" lon="12.301568088490862"><ele>138.0</ele><time>2026-03-29T09:46:26Z</time></trkpt><trkpt lat="45.994528293352296" lon="12.301622344268003"><ele>138.0</ele><time>2026-03-29T09:46:27Z</time></trkpt><trkpt lat="45.99460696341077" lon="12.301755010273165"><ele>138.0</ele><time>2026-03-29T09:46:28Z</time></trkpt><trkpt lat="45.994689803714884" lon="12.301903252885086"><ele>138.0</ele><time>2026-03-29T09:46:29Z</time></trkpt><trkpt lat="45.994786624322465" lon="12.302072785592891"><ele>138.0</ele><time>2026-03-29T09:46:30Z</time></trkpt><trkpt lat="45.99491164089941" lon="12.302225691133309"><ele>138.0</ele><time>2026-03-29T09:46:31Z</time></trkpt><trkpt lat="45.99504887941539" lon="12.30234804050676"><ele>139.0</ele><time>2026-03-29T09:46:32Z</time></trkpt><trkpt lat="45.995185069592765" lon="12.302437003027304"><ele>140.0</ele><time>2026-03-29T09:46:33Z</time></trkpt><trkpt lat="45.99531807949917" lon="12.30249285205425"><ele>141.0</ele><time>2026-03-29T09:46:34Z</time></trkpt><trkpt lat="45.995453202544795" lon="12.302514763159193"><ele>142.0</ele><time>2026-03-29T09:46:35Z</time></trkpt><trkpt lat="45.99558582045595" lon="12.302503705520797"><ele>142.0</ele><time>2026-03-29T09:46:36Z</time></trkpt><trkpt lat="45.99571516563765" lon="12.302463715453053"><ele>142.0</ele><time>2026-03-29T09:46:37Z</time></trkpt><trkpt lat="45.99584337637569" lon="12.302397671870018"><ele>142.0</ele><time>2026-03-29T09:46:38Z</time></trkpt><trkpt lat="45.9959685488188" lon="12.302319804860632"><ele>142.0</ele><time>2026-03-29T09:46:39Z</time></trkpt><trkpt lat="45.996065642031354" lon="12.302215656331146"><ele>142.5</ele><time>2026-03-29T09:46:40Z</time></trkpt><trkpt lat="45.996148087843906" lon="12.302155046955184"><ele>143.0</ele><time>2026-03-29T09:46:41Z</time></trkpt><trkpt lat="45.99622406024558" lon="12.302106390523328"><ele>143.5</ele><time>2026-03-29T09:46:42Z</time></trkpt><trkpt lat="45.996298089079104" lon="12.30207523961682"><ele>144.0</ele><time>2026-03-29T09:46:43Z</time></trkpt><trkpt lat="45.99638857951121" lon="12.30211774606351"><ele>144.5</ele><time>2026-03-29T09:46:44Z</time></trkpt><trkpt lat="45.996460257031586" lon="12.302057133629823"><ele>145.0</ele><time>2026-03-29T09:46:45.001Z</time></trkpt><trkpt lat="45.996527757190435" lon="12.30196947741293"><ele>145.0</ele><time>2026-03-29T09:46:46.001Z</time></trkpt><trkpt lat="45.99658186428757" lon="12.301844925536317"><ele>145.0</ele><time>2026-03-29T09:46:47.001Z</time></trkpt><trkpt lat="45.99667098089892" lon="12.301767337044184"><ele>145.0</ele><time>2026-03-29T09:46:48.001Z</time></trkpt><trkpt lat="45.99676495145594" lon="12.30168219973442"><ele>145.0</ele><time>2026-03-29T09:46:49.001Z</time></trkpt><trkpt lat="45.99688179985195" lon="12.301642690656148"><ele>145.0</ele><time>2026-03-29T09:46:50.001Z</time></trkpt><trkpt lat="45.99698550919354" lon="12.301568325349729"><ele>145.0</ele><time>2026-03-29T09:46:51.001Z</time></trkpt><trkpt lat="45.9970874660681" lon="12.30147804434518"><ele>145.0</ele><time>2026-03-29T09:46:52.001Z</time></trkpt><trkpt lat="45.997187542433416" lon="12.301368543405431"><ele>145.0</ele><time>2026-03-29T09:46:53.001Z</time></trkpt><trkpt lat="45.99727392938521" lon="12.301224834261996"><ele>145.0</ele><time>2026-03-29T09:46:54.001Z</time></trkpt><trkpt lat="45.997380000199726" lon="12.301084952546802"><ele>145.0</ele><time>2026-03-29T09:46:55.001Z</time></trkpt><trkpt lat="45.99748870150981" lon="12.300939700737482"><ele>145.0</ele><time>2026-03-29T09:46:56.001Z</time></trkpt><trkpt lat="45.99759842872057" lon="12.30079307817146"><ele>145.0</ele><time>2026-03-29T09:46:57.001Z</time></trkpt><trkpt lat="45.99772370814784" lon="12.300661861268923"><ele>146.0</ele><time>2026-03-29T09:46:58.001Z</time></trkpt><trkpt lat="45.99783165438284" lon="12.300495164243"><ele>147.0</ele><time>2026-03-29T09:46:59.001Z</time></trkpt><trkpt lat="45.997946258683115" lon="12.30033948016872"><ele>148.0</ele><time>2026-03-29T09:47:00.001Z</time></trkpt><trkpt lat="45.99806127691237" lon="12.300179832373674"><ele>148.0</ele><time>2026-03-29T09:47:01.001Z</time></trkpt><trkpt lat="45.99817570986066" lon="12.300015034260229"><ele>148.0</ele><time>2026-03-29T09:47:02.001Z</time></trkpt><trkpt lat="45.99828903412536" lon="12.29984651412897"><ele>148.0</ele><time>2026-03-29T09:47:03.001Z</time></trkpt><trkpt lat="45.99839804646466" lon="12.2996810837126"><ele>150.33333333333334</ele><time>2026-03-29T09:47:04.001Z</time></trkpt><trkpt lat="45.99851643867239" lon="12.299514872986963"><ele>152.66666666666666</ele><time>2026-03-29T09:47:05.001Z</time></trkpt><trkpt lat="45.99863143339869" lon="12.299305260487117"><ele>155.0</ele><time>2026-03-29T09:47:06.001Z</time></trkpt><trkpt lat="45.998753728590614" lon="12.299065745617025"><ele>155.0</ele><time>2026-03-29T09:47:07.024Z</time></trkpt><trkpt lat="45.99887924793862" lon="12.298862795753308"><ele>155.0</ele><time>2026-03-29T09:47:08.025Z</time></trkpt><trkpt lat="45.99899756795811" lon="12.298672269282227"><ele>155.0</ele><time>2026-03-29T09:47:09.024Z</time></trkpt><trkpt lat="45.99912134636947" lon="12.298484060874788"><ele>158.0</ele><time>2026-03-29T09:47:10.024Z</time></trkpt><trkpt lat="45.999244423246246" lon="12.298297212956628"><ele>161.0</ele><time>2026-03-29T09:47:11.022Z</time></trkpt><trkpt lat="45.99980467949287" lon="12.297417221898794"><ele>165.66666666666666</ele><time>2026-03-29T09:47:15.531Z</time></trkpt><trkpt lat="45.99993169364194" lon="12.297225559076317"><ele>170.33333333333334</ele><time>2026-03-29T09:47:16.533Z</time></trkpt><trkpt lat="46.000057991686354" lon="12.297034350456247"><ele>175.0</ele><time>2026-03-29T09:47:17.53Z</time></trkpt><trkpt lat="46.0001851851278" lon="12.296841894631168"><ele>175.0</ele><time>2026-03-29T09:47:18.534Z</time></trkpt><trkpt lat="46.000323432931" lon="12.296667424418729"><ele>175.0</ele><time>2026-03-29T09:47:19.53Z</time></trkpt><trkpt lat="46.0004380480827" lon="12.296457975047556"><ele>175.0</ele><time>2026-03-29T09:47:20.534Z</time></trkpt><trkpt lat="46.00056318737757" lon="12.296264295982255"><ele>175.33333333333334</ele><time>2026-03-29T09:47:21.534Z</time></trkpt><trkpt lat="46.0007018581599" lon="12.296089686702336"><ele>175.66666666666666</ele><time>2026-03-29T09:47:22.533Z</time></trkpt><trkpt lat="46.000817004661954" lon="12.29588169387655"><ele>176.0</ele><time>2026-03-29T09:47:23.534Z</time></trkpt><trkpt lat="46.00095489214155" lon="12.295704843630487"><ele>178.33333333333331</ele><time>2026-03-29T09:47:24.533Z</time></trkpt><trkpt lat="46.001065508192426" lon="12.295493521215674"><ele>180.66666666666666</ele><time>2026-03-29T09:47:25.53Z</time></trkpt><trkpt lat="46.00120037120812" lon="12.295309825945385"><ele>183.0</ele><time>2026-03-29T09:47:26.534Z</time></trkpt><trkpt lat="46.00130591281599" lon="12.295092029809775"><ele>183.0</ele><time>2026-03-29T09:47:27.534Z</time></trkpt><trkpt lat="46.001436161372816" lon="12.294903843921972"><ele>183.0</ele><time>2026-03-29T09:47:28.534Z</time></trkpt><trkpt lat="46.00154159909596" lon="12.29468790830655"><ele>183.0</ele><time>2026-03-29T09:47:29.53Z</time></trkpt><trkpt lat="46.00167755044334" lon="12.294506687368932"><ele>192.66666666666669</ele><time>2026-03-29T09:47:30.534Z</time></trkpt><trkpt lat="46.001803446833165" lon="12.294314441837185"><ele>202.33333333333334</ele><time>2026-03-29T09:47:31.535Z</time></trkpt><trkpt lat="46.00193201250265" lon="12.294126325784372"><ele>212.0</ele><time>2026-03-29T09:47:32.534Z</time></trkpt><trkpt lat="46.002050251673325" lon="12.293922613976388"><ele>222.5</ele><time>2026-03-29T09:47:33.534Z</time></trkpt><trkpt lat="46.0021048" lon="12.2938447"><ele>233.0</ele><time>2026-03-29T09:47:34.534Z</time></trkpt><trkpt lat="46.00893680941873" lon="12.287651952367543"><ele>220.0</ele><time>2026-03-29T09:48:14.002Z</time></trkpt><trkpt lat="46.00903225902626" lon="12.287577649612189"><ele>207.0</ele><time>2026-03-29T09:48:15.002Z</time></trkpt><trkpt lat="46.009114331032535" lon="12.287510225384077"><ele>194.0</ele><time>2026-03-29T09:48:16.002Z</time></trkpt><trkpt lat="46.009198582435474" lon="12.287403827582958"><ele>181.0</ele><time>2026-03-29T09:48:18.002Z</time></trkpt><trkpt lat="46.00928080220488" lon="12.287389345065959"><ele>168.0</ele><time>2026-03-29T09:48:19.002Z</time></trkpt><trkpt lat="46.00936647358747" lon="12.287379630526598"><ele>166.4</ele><time>2026-03-29T09:48:19.999Z</time></trkpt><trkpt lat="46.00944830220188" lon="12.287350051812945"><ele>164.8</ele><time>2026-03-29T09:48:20.999Z</time></trkpt><trkpt lat="46.00953079846953" lon="12.287290037877765"><ele>163.2</ele><time>2026-03-29T09:48:21.999Z</time></trkpt><trkpt lat="46.009605410535265" lon="12.287220635695734"><ele>161.6</ele><time>2026-03-29T09:48:22.999Z</time></trkpt><trkpt lat="46.00972603771411" lon="12.287356248066956"><ele>160.0</ele><time>2026-03-29T09:48:23.999Z</time></trkpt><trkpt lat="46.009838353889506" lon="12.28735404076418"><ele>160.25</ele><time>2026-03-29T09:48:24.999Z</time></trkpt><trkpt lat="46.00993893814086" lon="12.287414799976613"><ele>160.5</ele><time>2026-03-29T09:48:25.999Z</time></trkpt><trkpt lat="46.010029464344115" lon="12.287516834788713"><ele>160.75</ele><time>2026-03-29T09:48:26.999Z</time></trkpt><trkpt lat="46.010119712785595" lon="12.287637809033823"><ele>161.0</ele><time>2026-03-29T09:48:27.999Z</time></trkpt><trkpt lat="46.01021205464395" lon="12.287761588236343"><ele>161.0</ele><time>2026-03-29T09:48:28.999Z</time></trkpt><trkpt lat="46.01030504795054" lon="12.287886240614439"><ele>161.0</ele><time>2026-03-29T09:48:29.999Z</time></trkpt><trkpt lat="46.01040327249588" lon="12.288019167488672"><ele>161.0</ele><time>2026-03-29T09:48:30.999Z</time></trkpt><trkpt lat="46.01050195923204" lon="12.288159802339306"><ele>161.0</ele><time>2026-03-29T09:48:31.999Z</time></trkpt><trkpt lat="46.01060466748474" lon="12.288302507647579"><ele>161.0</ele><time>2026-03-29T09:48:32.999Z</time></trkpt><trkpt lat="46.01073326583297" lon="12.288412470703538"><ele>161.0</ele><time>2026-03-29T09:48:33.999Z</time></trkpt><trkpt lat="46.01083936099485" lon="12.288561976821226"><ele>161.0</ele><time>2026-03-29T09:48:34.999Z</time></trkpt><trkpt lat="46.01092415336465" lon="12.288707892572893"><ele>161.0</ele><time>2026-03-29T09:48:35.999Z</time></trkpt><trkpt lat="46.01100592532298" lon="12.28888270537041"><ele>160.25</ele><time>2026-03-29T09:48:37Z</time></trkpt><trkpt lat="46.011123437069315" lon="12.28901475008165"><ele>159.5</ele><time>2026-03-29T09:48:38Z</time></trkpt><trkpt lat="46.01122431504414" lon="12.289163109033959"><ele>158.75</ele><time>2026-03-29T09:48:39Z</time></trkpt><trkpt lat="46.01132777895015" lon="12.289296404171246"><ele>158.0</ele><time>2026-03-29T09:48:40Z</time></trkpt><trkpt lat="46.011436655574954" lon="12.28941316105493"><ele>158.0</ele><time>2026-03-29T09:48:41Z</time></trkpt><trkpt lat="46.011541371235545" lon="12.28951293125134"><ele>158.0</ele><time>2026-03-29T09:48:42Z</time></trkpt><trkpt lat="46.01164430073339" lon="12.289607458419402"><ele>158.0</ele><time>2026-03-29T09:48:43Z</time></trkpt><trkpt lat="46.01175258604572" lon="12.289691781857314"><ele>158.0</ele><time>2026-03-29T09:48:44Z</time></trkpt><trkpt lat="46.01187795370888" lon="12.289745208558625"><ele>159.33333333333331</ele><time>2026-03-29T09:48:45Z</time></trkpt><trkpt lat="46.0120258866195" lon="12.289767326170166"><ele>160.66666666666666</ele><time>2026-03-29T09:48:46Z</time></trkpt><trkpt lat="46.01220470970084" lon="12.289773549569938"><ele>162.0</ele><time>2026-03-29T09:48:47Z</time></trkpt><trkpt lat="46.012395286613604" lon="12.28979798768189"><ele>165.0</ele><time>2026-03-29T09:48:48Z</time></trkpt><trkpt lat="46.012578410163414" lon="12.289851260743895"><ele>168.0</ele><time>2026-03-29T09:48:49Z</time></trkpt><trkpt lat="46.01276287256132" lon="12.289911732846491"><ele>171.0</ele><time>2026-03-29T09:48:50Z</time></trkpt><trkpt lat="46.01291167391203" lon="12.289989234932861"><ele>171.0</ele><time>2026-03-29T09:48:51Z</time></trkpt><trkpt lat="46.013035629275045" lon="12.290102244499264"><ele>171.0</ele><time>2026-03-29T09:48:52Z</time></trkpt><trkpt lat="46.01315450282323" lon="12.290181008884025"><ele>171.0</ele><time>2026-03-29T09:48:53Z</time></trkpt><trkpt lat="46.013272377944574" lon="12.290251442914938"><ele>171.0</ele><time>2026-03-29T09:48:54Z</time></trkpt><trkpt lat="46.013379362120176" lon="12.290259030925535"><ele>171.75</ele><time>2026-03-29T09:48:55Z</time></trkpt><trkpt lat="46.01348238633858" lon="12.290238313202924"><ele>172.5</ele><time>2026-03-29T09:48:56Z</time></trkpt><trkpt lat="46.0135742128296" lon="12.290165840198672"><ele>173.25</ele><time>2026-03-29T09:48:57Z</time></trkpt><trkpt lat="46.01367885364794" lon="12.290073380901234"><ele>174.0</ele><time>2026-03-29T09:48:58Z</time></trkpt><trkpt lat="46.01375845395142" lon="12.289945654812819"><ele>174.0</ele><time>2026-03-29T09:48:59Z</time></trkpt><trkpt lat="46.01382729944336" lon="12.289790946875103"><ele>174.0</ele><time>2026-03-29T09:49:00Z</time></trkpt><trkpt lat="46.01388883516977" lon="12.28962001701494"><ele>174.0</ele><time>2026-03-29T09:49:01Z</time></trkpt><trkpt lat="46.01394582548014" lon="12.289444541753236"><ele>174.0</ele><time>2026-03-29T09:49:02Z</time></trkpt><trkpt lat="46.01401509894713" lon="12.289301219275547"><ele>173.25</ele><time>2026-03-29T09:49:03Z</time></trkpt><trkpt lat="46.01409266227508" lon="12.289177291211296"><ele>172.5</ele><time>2026-03-29T09:49:04Z</time></trkpt><trkpt lat="46.01419565562565" lon="12.289114623049826"><ele>171.75</ele><time>2026-03-29T09:49:05Z</time></trkpt><trkpt lat="46.01429246476655" lon="12.289040003864477"><ele>171.0</ele><time>2026-03-29T09:49:06Z</time></trkpt><trkpt lat="46.01441389950129" lon="12.28901011170772"><ele>171.0</ele><time>2026-03-29T09:49:07Z</time></trkpt><trkpt lat="46.01454064215302" lon="12.28902427833181"><ele>171.0</ele><time>2026-03-29T09:49:08Z</time></trkpt><trkpt lat="46.01466436640251" lon="12.28900455994066"><ele>171.0</ele><time>2026-03-29T09:49:09Z</time></trkpt><trkpt lat="46.01478865571373" lon="12.28900011532929"><ele>171.0</ele><time>2026-03-29T09:49:10Z</time></trkpt><trkpt lat="46.01491780760143" lon="12.288973903562788"><ele>172.75</ele><time>2026-03-29T09:49:11Z</time></trkpt><trkpt lat="46.01504961411804" lon="12.288935344072804"><ele>174.5</ele><time>2026-03-29T09:49:12Z</time></trkpt><trkpt lat="46.015186271870796" lon="12.288878717027352"><ele>176.25</ele><time>2026-03-29T09:49:13Z</time></trkpt><trkpt lat="46.01532717899026" lon="12.288826144149926"><ele>178.0</ele><time>2026-03-29T09:49:14Z</time></trkpt><trkpt lat="46.01546659448495" lon="12.288780797084359"><ele>178.0</ele><time>2026-03-29T09:49:15Z</time></trkpt><trkpt lat="46.01559717618748" lon="12.28876504279634"><ele>178.0</ele><time>2026-03-29T09:49:16Z</time></trkpt><trkpt lat="46.015726039617526" lon="12.288779357886149"><ele>178.0</ele><time>2026-03-29T09:49:17Z</time></trkpt><trkpt lat="46.01585239204163" lon="12.288799104860734"><ele>178.0</ele><time>2026-03-29T09:49:18Z</time></trkpt><trkpt lat="46.01597800866833" lon="12.288819666748257"><ele>178.8</ele><time>2026-03-29T09:49:19Z</time></trkpt><trkpt lat="46.01609901727894" lon="12.288828713315969"><ele>179.60000000000002</ele><time>2026-03-29T09:49:20Z</time></trkpt><trkpt lat="46.01620946699719" lon="12.288837723854238"><ele>180.39999999999998</ele><time>2026-03-29T09:49:21.001Z</time></trkpt><trkpt lat="46.01631468199289" lon="12.288827053229856"><ele>181.2</ele><time>2026-03-29T09:49:22.001Z</time></trkpt><trkpt lat="46.01640913711346" lon="12.288812164344932"><ele>182.0</ele><time>2026-03-29T09:49:23.001Z</time></trkpt><trkpt lat="46.016498168881824" lon="12.288804845390647"><ele>182.0</ele><time>2026-03-29T09:49:24.001Z</time></trkpt><trkpt lat="46.01658503822112" lon="12.288804867001287"><ele>182.0</ele><time>2026-03-29T09:49:25.001Z</time></trkpt><trkpt lat="46.016667642800115" lon="12.28882784850592"><ele>182.0</ele><time>2026-03-29T09:49:26.001Z</time></trkpt><trkpt lat="46.01675365417217" lon="12.288863563212233"><ele>182.0</ele><time>2026-03-29T09:49:27.001Z</time></trkpt><trkpt lat="46.01683614262912" lon="12.288912071435185"><ele>182.0</ele><time>2026-03-29T09:49:28.001Z</time></trkpt><trkpt lat="46.01690732113774" lon="12.288964307852138"><ele>182.0</ele><time>2026-03-29T09:49:29.001Z</time></trkpt><trkpt lat="46.01697671660904" lon="12.289010310080167"><ele>177.8</ele><time>2026-03-29T09:49:30.001Z</time></trkpt><trkpt lat="46.017054111450875" lon="12.28905839519567"><ele>173.6</ele><time>2026-03-29T09:49:31.001Z</time></trkpt><trkpt lat="46.017137813664654" lon="12.28911864522413"><ele>169.4</ele><time>2026-03-29T09:49:32.001Z</time></trkpt><trkpt lat="46.01722732850902" lon="12.28919751094763"><ele>165.20000000000002</ele><time>2026-03-29T09:49:33.001Z</time></trkpt><trkpt lat="46.01732713205955" lon="12.289289708728916"><ele>161.0</ele><time>2026-03-29T09:49:34.001Z</time></trkpt><trkpt lat="46.01743764002565" lon="12.289392231005461"><ele>161.0</ele><time>2026-03-29T09:49:35.001Z</time></trkpt><trkpt lat="46.01755737782766" lon="12.289506746615665"><ele>161.0</ele><time>2026-03-29T09:49:36.001Z</time></trkpt><trkpt lat="46.01768363791089" lon="12.289621348466062"><ele>161.0</ele><time>2026-03-29T09:49:37.001Z</time></trkpt><trkpt lat="46.01781066088333" lon="12.28973108993931"><ele>161.0</ele><time>2026-03-29T09:49:38.001Z</time></trkpt><trkpt lat="46.01793053012769" lon="12.289832649310759"><ele>161.0</ele><time>2026-03-29T09:49:39.001Z</time></trkpt><trkpt lat="46.01804483181951" lon="12.289914135199188"><ele>161.0</ele><time>2026-03-29T09:49:40.001Z</time></trkpt><trkpt lat="46.018151014628174" lon="12.289990412397923"><ele>161.0</ele><time>2026-03-29T09:49:41.001Z</time></trkpt><trkpt lat="46.01824633687652" lon="12.290066222568182"><ele>161.0</ele><time>2026-03-29T09:49:42.001Z</time></trkpt><trkpt lat="46.01834218321743" lon="12.290127875781964"><ele>161.60000000000002</ele><time>2026-03-29T09:49:43.001Z</time></trkpt><trkpt lat="46.01843623035481" lon="12.290183114185393"><ele>162.2</ele><time>2026-03-29T09:49:44.001Z</time></trkpt><trkpt lat="46.018530024897615" lon="12.29023297648138"><ele>162.8</ele><time>2026-03-29T09:49:45.001Z</time></trkpt><trkpt lat="46.018620084455954" lon="12.290284804317148"><ele>163.39999999999998</ele><time>2026-03-29T09:49:46.001Z</time></trkpt><trkpt lat="46.01870973163696" lon="12.290336085327732"><ele>164.0</ele><time>2026-03-29T09:49:47.001Z</time></trkpt><trkpt lat="46.01877109064508" lon="12.290371839106644"><ele>164.0</ele><time>2026-03-29T09:49:48.001Z</time></trkpt><trkpt lat="46.01884251306307" lon="12.290395559118585"><ele>164.0</ele><time>2026-03-29T09:49:50.001Z</time></trkpt><trkpt lat="46.01884862946189" lon="12.29018577319983"><ele>164.0</ele><time>2026-03-29T09:49:57.001Z</time></trkpt><trkpt lat="46.01879086099954" lon="12.290087462585541"><ele>164.0</ele><time>2026-03-29T09:49:58.001Z</time></trkpt><trkpt lat="46.01877122463576" lon="12.289987809928549"><ele>164.0</ele><time>2026-03-29T09:49:59.001Z</time></trkpt><trkpt lat="46.01873912342325" lon="12.28988536271305"><ele>164.0</ele><time>2026-03-29T09:50:00.001Z</time></trkpt><trkpt lat="46.018687750234704" lon="12.289767437480762"><ele>164.0</ele><time>2026-03-29T09:50:01.001Z</time></trkpt><trkpt lat="46.018626248895295" lon="12.289663747053915"><ele>164.0</ele><time>2026-03-29T09:50:02.001Z</time></trkpt><trkpt lat="46.01856682361863" lon="12.289585863404428"><ele>164.0</ele><time>2026-03-29T09:50:03.001Z</time></trkpt><trkpt lat="46.01850927387871" lon="12.289520175571603"><ele>164.0</ele><time>2026-03-29T09:50:04.001Z</time></trkpt><trkpt lat="46.01842423403239" lon="12.28940627070628"><ele>164.16666666666666</ele><time>2026-03-29T09:50:06.001Z</time></trkpt><trkpt lat="46.018387765775884" lon="12.28931896421243"><ele>164.33333333333331</ele><time>2026-03-29T09:50:07.001Z</time></trkpt><trkpt lat="46.01833203958062" lon="12.28923283049247"><ele>164.5</ele><time>2026-03-29T09:50:08.001Z</time></trkpt><trkpt lat="46.01825777054138" lon="12.289152553190736"><ele>164.66666666666666</ele><time>2026-03-29T09:50:09.001Z</time></trkpt><trkpt lat="46.01820052797666" lon="12.289043536455942"><ele>164.83333333333334</ele><time>2026-03-29T09:50:10.001Z</time></trkpt><trkpt lat="46.018131189255115" lon="12.288947202141095"><ele>165.0</ele><time>2026-03-29T09:50:11.002Z</time></trkpt><trkpt lat="46.018061573873545" lon="12.28884487646718"><ele>167.8</ele><time>2026-03-29T09:50:12.002Z</time></trkpt><trkpt lat="46.018002008075264" lon="12.288737919472052"><ele>170.6</ele><time>2026-03-29T09:50:13.002Z</time></trkpt><trkpt lat="46.01792471080862" lon="12.288662793581784"><ele>173.39999999999998</ele><time>2026-03-29T09:50:14.002Z</time></trkpt><trkpt lat="46.017883575379045" lon="12.288583625765934"><ele>176.2</ele><time>2026-03-29T09:50:15.002Z</time></trkpt><trkpt lat="46.01780688440958" lon="12.288524972883593"><ele>179.0</ele><time>2026-03-29T09:50:21.002Z</time></trkpt><trkpt lat="46.01770235024411" lon="12.28840123852223"><ele>179.0</ele><time>2026-03-29T09:50:23.002Z</time></trkpt><trkpt lat="46.01763744459629" lon="12.28833097361638"><ele>179.0</ele><time>2026-03-29T09:50:24.002Z</time></trkpt><trkpt lat="46.01756528217727" lon="12.288261810255333"><ele>179.0</ele><time>2026-03-29T09:50:25.002Z</time></trkpt><trkpt lat="46.01748667367678" lon="12.288184776648288"><ele>179.0</ele><time>2026-03-29T09:50:26Z</time></trkpt><trkpt lat="46.0174000084121" lon="12.288106675181583"><ele>179.0</ele><time>2026-03-29T09:50:27Z</time></trkpt><trkpt lat="46.017307351642536" lon="12.28803871080052"><ele>181.0</ele><time>2026-03-29T09:50:28Z</time></trkpt><trkpt lat="46.01720090241655" lon="12.287985286556388"><ele>183.0</ele><time>2026-03-29T09:50:29Z</time></trkpt><trkpt lat="46.01709786841032" lon="12.28793305038597"><ele>185.0</ele><time>2026-03-29T09:50:30Z</time></trkpt><trkpt lat="46.01701055603072" lon="12.287883485949358"><ele>187.0</ele><time>2026-03-29T09:50:31Z</time></trkpt><trkpt lat="46.016916029147986" lon="12.287838193249854"><ele>189.0</ele><time>2026-03-29T09:50:32Z</time></trkpt><trkpt lat="46.016808874121935" lon="12.287805390724527"><ele>189.0</ele><time>2026-03-29T09:50:33Z</time></trkpt><trkpt lat="46.01668950560194" lon="12.287792718207275"><ele>189.0</ele><time>2026-03-29T09:50:34Z</time></trkpt><trkpt lat="46.01655895245343" lon="12.287790572965864"><ele>189.0</ele><time>2026-03-29T09:50:35Z</time></trkpt><trkpt lat="46.01642498658151" lon="12.287777406562604"><ele>189.0</ele><time>2026-03-29T09:50:36Z</time></trkpt><trkpt lat="46.01629487442431" lon="12.287750091159522"><ele>189.2</ele><time>2026-03-29T09:50:37Z</time></trkpt><trkpt lat="46.01617394960704" lon="12.287702821283164"><ele>189.39999999999998</ele><time>2026-03-29T09:50:38Z</time></trkpt><trkpt lat="46.016069286340546" lon="12.287657864656365"><ele>189.6</ele><time>2026-03-29T09:50:39Z</time></trkpt><trkpt lat="46.01598509677127" lon="12.287616813490482"><ele>189.8</ele><time>2026-03-29T09:50:40Z</time></trkpt><trkpt lat="46.01591462714156" lon="12.287546197754772"><ele>190.0</ele><time>2026-03-29T09:50:41Z</time></trkpt><trkpt lat="46.015858552145495" lon="12.287455990526468"><ele>190.0</ele><time>2026-03-29T09:50:42Z</time></trkpt><trkpt lat="46.015829205799186" lon="12.287321144863368"><ele>190.0</ele><time>2026-03-29T09:50:43Z</time></trkpt><trkpt lat="46.015781958951955" lon="12.287184150151138"><ele>190.0</ele><time>2026-03-29T09:50:44Z</time></trkpt><trkpt lat="46.015730316258214" lon="12.287038561101147"><ele>190.0</ele><time>2026-03-29T09:50:45Z</time></trkpt><trkpt lat="46.01570621052962" lon="12.286878728962407"><ele>190.0</ele><time>2026-03-29T09:50:46Z</time></trkpt><trkpt lat="46.01568209250833" lon="12.286716713009726"><ele>190.0</ele><time>2026-03-29T09:50:47Z</time></trkpt><trkpt lat="46.015645947721026" lon="12.28654995131368"><ele>190.0</ele><time>2026-03-29T09:50:48Z</time></trkpt><trkpt lat="46.015584735072494" lon="12.28638362633427"><ele>190.0</ele><time>2026-03-29T09:50:49Z</time></trkpt><trkpt lat="46.01550743958541" lon="12.286212053938764"><ele>190.0</ele><time>2026-03-29T09:50:50Z</time></trkpt><trkpt lat="46.01542572404393" lon="12.286031161222514"><ele>190.0</ele><time>2026-03-29T09:50:51Z</time></trkpt><trkpt lat="46.01534485225555" lon="12.2858534919527"><ele>190.0</ele><time>2026-03-29T09:50:52Z</time></trkpt><trkpt lat="46.015265949571" lon="12.285679885418444"><ele>190.0</ele><time>2026-03-29T09:50:53Z</time></trkpt><trkpt lat="46.01518847317777" lon="12.285521317475988"><ele>190.0</ele><time>2026-03-29T09:50:54Z</time></trkpt><trkpt lat="46.015114066454004" lon="12.28538099734963"><ele>189.8</ele><time>2026-03-29T09:50:55Z</time></trkpt><trkpt lat="46.01504267287758" lon="12.28525019210353"><ele>189.6</ele><time>2026-03-29T09:50:56Z</time></trkpt><trkpt lat="46.0149878586899" lon="12.285118318290476"><ele>189.39999999999998</ele><time>2026-03-29T09:50:57Z</time></trkpt><trkpt lat="46.01497017881158" lon="12.284967868874618"><ele>189.2</ele><time>2026-03-29T09:50:58Z</time></trkpt><trkpt lat="46.01495383012451" lon="12.284805996386494"><ele>189.0</ele><time>2026-03-29T09:50:59Z</time></trkpt><trkpt lat="46.0149244441113" lon="12.284643902118798"><ele>188.79999999999998</ele><time>2026-03-29T09:51:00Z</time></trkpt><trkpt lat="46.01491168876118" lon="12.284493880508562"><ele>188.6</ele><time>2026-03-29T09:51:01Z</time></trkpt><trkpt lat="46.01489580033933" lon="12.284356186740958"><ele>188.4</ele><time>2026-03-29T09:51:02Z</time></trkpt><trkpt lat="46.014884082479924" lon="12.284228559448389"><ele>188.2</ele><time>2026-03-29T09:51:03Z</time></trkpt><trkpt lat="46.01487137621598" lon="12.2841110798003"><ele>188.0</ele><time>2026-03-29T09:51:04Z</time></trkpt><trkpt lat="46.01487737051936" lon="12.283970104653472"><ele>188.0</ele><time>2026-03-29T09:51:06.001Z</time></trkpt><trkpt lat="46.0148925694448" lon="12.283853272390804"><ele>188.0</ele><time>2026-03-29T09:51:14.001Z</time></trkpt><trkpt lat="46.0148956057862" lon="12.283736714386974"><ele>188.0</ele><time>2026-03-29T09:51:16.001Z</time></trkpt><trkpt lat="46.0149305234835" lon="12.283610412188875"><ele>188.0</ele><time>2026-03-29T09:51:18.001Z</time></trkpt><trkpt lat="46.0149960334597" lon="12.283599032265267"><ele>188.0</ele><time>2026-03-29T09:51:19.001Z</time></trkpt><trkpt lat="46.015068062083834" lon="12.28362538289604"><ele>188.0</ele><time>2026-03-29T09:51:20.001Z</time></trkpt><trkpt lat="46.01514898249807" lon="12.283643465861655"><ele>188.2</ele><time>2026-03-29T09:51:21.001Z</time></trkpt><trkpt lat="46.015231577621336" lon="12.283648801546189"><ele>188.4</ele><time>2026-03-29T09:51:22.001Z</time></trkpt><trkpt lat="46.015319160686786" lon="12.28362686531053"><ele>188.6</ele><time>2026-03-29T09:51:23.001Z</time></trkpt><trkpt lat="46.015414081062644" lon="12.28358835455729"><ele>188.79999999999998</ele><time>2026-03-29T09:51:24.001Z</time></trkpt><trkpt lat="46.015493409330205" lon="12.283475067794308"><ele>189.0</ele><time>2026-03-29T09:51:25.001Z</time></trkpt><trkpt lat="46.015577207842085" lon="12.283359568986588"><ele>189.0</ele><time>2026-03-29T09:51:26.001Z</time></trkpt><trkpt lat="46.015660198936104" lon="12.28324295567132"><ele>189.0</ele><time>2026-03-29T09:51:27.001Z</time></trkpt><trkpt lat="46.01573914758467" lon="12.283155607198863"><ele>189.0</ele><time>2026-03-29T09:51:28.001Z</time></trkpt><trkpt lat="46.01581067196464" lon="12.283101919135861"><ele>189.0</ele><time>2026-03-29T09:51:29.001Z</time></trkpt><trkpt lat="46.01589282781988" lon="12.283074048714822"><ele>189.0</ele><time>2026-03-29T09:51:30.001Z</time></trkpt><trkpt lat="46.01596708158725" lon="12.283051318455232"><ele>189.39999999999998</ele><time>2026-03-29T09:51:31.001Z</time></trkpt><trkpt lat="46.016042007270066" lon="12.283070246070848"><ele>189.8</ele><time>2026-03-29T09:51:32.001Z</time></trkpt><trkpt lat="46.01613647126349" lon="12.28310562215461"><ele>190.2</ele><time>2026-03-29T09:51:33.001Z</time></trkpt><trkpt lat="46.01623176137096" lon="12.283146359513534"><ele>190.60000000000002</ele><time>2026-03-29T09:51:34.001Z</time></trkpt><trkpt lat="46.0163301707312" lon="12.283214611613042"><ele>191.0</ele><time>2026-03-29T09:51:35.001Z</time></trkpt><trkpt lat="46.016437283114676" lon="12.283262434793855"><ele>191.0</ele><time>2026-03-29T09:51:36.001Z</time></trkpt><trkpt lat="46.016552132717365" lon="12.28330912796966"><ele>191.0</ele><time>2026-03-29T09:51:37.001Z</time></trkpt><trkpt lat="46.01666852902896" lon="12.283346464444968"><ele>191.0</ele><time>2026-03-29T09:51:38.001Z</time></trkpt><trkpt lat="46.016787924930306" lon="12.283377836428064"><ele>191.0</ele><time>2026-03-29T09:51:39.001Z</time></trkpt><trkpt lat="46.0169090213591" lon="12.283409307052437"><ele>194.25</ele><time>2026-03-29T09:51:40.001Z</time></trkpt><trkpt lat="46.017028554528295" lon="12.283446921243035"><ele>197.5</ele><time>2026-03-29T09:51:41.001Z</time></trkpt><trkpt lat="46.01714419446171" lon="12.283508594002633"><ele>200.75</ele><time>2026-03-29T09:51:42.001Z</time></trkpt><trkpt lat="46.01725840045233" lon="12.283554327509417"><ele>204.0</ele><time>2026-03-29T09:51:43.001Z</time></trkpt><trkpt lat="46.01736599591197" lon="12.283581093900281"><ele>204.0</ele><time>2026-03-29T09:51:44.001Z</time></trkpt><trkpt lat="46.01746145242586" lon="12.283621547362227"><ele>204.0</ele><time>2026-03-29T09:51:45.001Z</time></trkpt><trkpt lat="46.01753260367563" lon="12.283666301536874"><ele>204.0</ele><time>2026-03-29T09:51:46.001Z</time></trkpt><trkpt lat="46.017620250764196" lon="12.283776385371167"><ele>204.0</ele><time>2026-03-29T09:51:48.001Z</time></trkpt><trkpt lat="46.01766455987002" lon="12.28384914394043"><ele>204.0</ele><time>2026-03-29T09:51:49.001Z</time></trkpt><trkpt lat="46.01772340071286" lon="12.283954810131831"><ele>204.2</ele><time>2026-03-29T09:51:50.001Z</time></trkpt><trkpt lat="46.017804425128865" lon="12.284045962102425"><ele>204.39999999999998</ele><time>2026-03-29T09:51:51.001Z</time></trkpt><trkpt lat="46.01787384019063" lon="12.284151608585079"><ele>204.6</ele><time>2026-03-29T09:51:52.001Z</time></trkpt><trkpt lat="46.01795583445428" lon="12.284256481013415"><ele>204.8</ele><time>2026-03-29T09:51:53.001Z</time></trkpt><trkpt lat="46.01804268567303" lon="12.284358016916268"><ele>205.0</ele><time>2026-03-29T09:51:54.001Z</time></trkpt><trkpt lat="46.01814723296549" lon="12.284453356002308"><ele>205.0</ele><time>2026-03-29T09:51:55.001Z</time></trkpt><trkpt lat="46.01827657887884" lon="12.284554535987729"><ele>205.0</ele><time>2026-03-29T09:51:56.001Z</time></trkpt><trkpt lat="46.018426959921584" lon="12.284658711966056"><ele>205.0</ele><time>2026-03-29T09:51:57.001Z</time></trkpt><trkpt lat="46.01859519781481" lon="12.284784777072662"><ele>204.66666666666666</ele><time>2026-03-29T09:51:58.001Z</time></trkpt><trkpt lat="46.01876783887552" lon="12.284912312454988"><ele>204.33333333333331</ele><time>2026-03-29T09:51:59.002Z</time></trkpt><trkpt lat="46.01893282894225" lon="12.285027573849458"><ele>204.0</ele><time>2026-03-29T09:52:00.002Z</time></trkpt><trkpt lat="46.01910181388031" lon="12.285136110208994"><ele>212.0</ele><time>2026-03-29T09:52:01.002Z</time></trkpt><trkpt lat="46.01926833224331" lon="12.285232946427582"><ele>220.0</ele><time>2026-03-29T09:52:02.002Z</time></trkpt><trkpt lat="46.01943827869701" lon="12.285321346829543"><ele>228.0</ele><time>2026-03-29T09:52:03.002Z</time></trkpt><trkpt lat="46.0196040528954" lon="12.28540215169785"><ele>228.0</ele><time>2026-03-29T09:52:04.002Z</time></trkpt><trkpt lat="46.019744643676276" lon="12.28548896844793"><ele>228.0</ele><time>2026-03-29T09:52:05.002Z</time></trkpt><trkpt lat="46.01986140195565" lon="12.28557684813946"><ele>228.0</ele><time>2026-03-29T09:52:06.002Z</time></trkpt><trkpt lat="46.01997186316476" lon="12.285652605404893"><ele>228.0</ele><time>2026-03-29T09:52:07.002Z</time></trkpt><trkpt lat="46.02007777633643" lon="12.285710157217359"><ele>229.25</ele><time>2026-03-29T09:52:08.002Z</time></trkpt><trkpt lat="46.02018245697603" lon="12.285787944231302"><ele>230.5</ele><time>2026-03-29T09:52:09.002Z</time></trkpt><trkpt lat="46.02030765210717" lon="12.2858102281876"><ele>231.75</ele><time>2026-03-29T09:52:10.002Z</time></trkpt><trkpt lat="46.02042801776721" lon="12.285825584528698"><ele>233.0</ele><time>2026-03-29T09:52:11.002Z</time></trkpt><trkpt lat="46.02054653607139" lon="12.285875611808176"><ele>233.0</ele><time>2026-03-29T09:52:12.002Z</time></trkpt><trkpt lat="46.02064036350263" lon="12.2859294012611"><ele>233.0</ele><time>2026-03-29T09:52:13.002Z</time></trkpt><trkpt lat="46.02072826711889" lon="12.286000644861602"><ele>233.0</ele><time>2026-03-29T09:52:14.002Z</time></trkpt><trkpt lat="46.02080823118702" lon="12.286091394873733"><ele>233.0</ele><time>2026-03-29T09:52:15.002Z</time></trkpt><trkpt lat="46.02087816633187" lon="12.28619074592976"><ele>233.0</ele><time>2026-03-29T09:52:16.002Z</time></trkpt><trkpt lat="46.02092846336299" lon="12.286303277776296"><ele>233.75</ele><time>2026-03-29T09:52:17.002Z</time></trkpt><trkpt lat="46.02097994851015" lon="12.286442057596654"><ele>234.5</ele><time>2026-03-29T09:52:18.002Z</time></trkpt><trkpt lat="46.02104372595924" lon="12.28660368277036"><ele>235.25</ele><time>2026-03-29T09:52:19.002Z</time></trkpt><trkpt lat="46.02113306089737" lon="12.2867396388385"><ele>236.0</ele><time>2026-03-29T09:52:20.002Z</time></trkpt><trkpt lat="46.02121998484157" lon="12.286874042090213"><ele>236.0</ele><time>2026-03-29T09:52:21.002Z</time></trkpt><trkpt lat="46.02130513002062" lon="12.286993588097857"><ele>236.00000000000003</ele><time>2026-03-29T09:52:22.002Z</time></trkpt><trkpt lat="46.021372307582226" lon="12.287100632485194"><ele>236.00000000000003</ele><time>2026-03-29T09:52:23.002Z</time></trkpt><trkpt lat="46.02145817278075" lon="12.287138956692859"><ele>236.0</ele><time>2026-03-29T09:52:24.002Z</time></trkpt><trkpt lat="46.02152022481406" lon="12.287191311008874"><ele>236.0</ele><time>2026-03-29T09:52:25.002Z</time></trkpt><trkpt lat="46.02159318307012" lon="12.287169699663044"><ele>240.16666666666669</ele><time>2026-03-29T09:52:26.002Z</time></trkpt><trkpt lat="46.02165790298464" lon="12.287130896393641"><ele>244.33333333333334</ele><time>2026-03-29T09:52:27.002Z</time></trkpt><trkpt lat="46.02174475385134" lon="12.28707891596736"><ele>248.5</ele><time>2026-03-29T09:52:28.002Z</time></trkpt><trkpt lat="46.02182941726572" lon="12.28703070032846"><ele>252.66666666666669</ele><time>2026-03-29T09:52:29.002Z</time></trkpt><trkpt lat="46.02191610708022" lon="12.28701118464492"><ele>256.8333333333333</ele><time>2026-03-29T09:52:30.002Z</time></trkpt><trkpt lat="46.022011177078284" lon="12.287020911450524"><ele>261.0</ele><time>2026-03-29T09:52:31.002Z</time></trkpt><trkpt lat="46.02211191799427" lon="12.287031118393497"><ele>261.0</ele><time>2026-03-29T09:52:32Z</time></trkpt><trkpt lat="46.0221977472834" lon="12.287033489809387"><ele>261.0</ele><time>2026-03-29T09:52:33Z</time></trkpt><trkpt lat="46.02230274714661" lon="12.287050238026914"><ele>261.0</ele><time>2026-03-29T09:52:35Z</time></trkpt><trkpt lat="46.022399621158016" lon="12.287133890925448"><ele>261.0</ele><time>2026-03-29T09:52:37Z</time></trkpt><trkpt lat="46.0224586584093" lon="12.287308162579029"><ele>261.0</ele><time>2026-03-29T09:52:39Z</time></trkpt><trkpt lat="46.02249317442967" lon="12.287441332067624"><ele>260.2</ele><time>2026-03-29T09:52:40Z</time></trkpt><trkpt lat="46.022541183802225" lon="12.287571337232118"><ele>259.40000000000003</ele><time>2026-03-29T09:52:41Z</time></trkpt><trkpt lat="46.022587200602466" lon="12.287686269183126"><ele>258.6</ele><time>2026-03-29T09:52:42Z</time></trkpt><trkpt lat="46.022666017908314" lon="12.28779828638094"><ele>257.8</ele><time>2026-03-29T09:52:43Z</time></trkpt><trkpt lat="46.022761500829986" lon="12.28788414333599"><ele>257.0</ele><time>2026-03-29T09:52:44Z</time></trkpt><trkpt lat="46.022865798705" lon="12.287946585905717"><ele>257.0</ele><time>2026-03-29T09:52:45Z</time></trkpt><trkpt lat="46.02297348997996" lon="12.28797614975295"><ele>257.0</ele><time>2026-03-29T09:52:46Z</time></trkpt><trkpt lat="46.02308966662769" lon="12.28797353875372"><ele>257.0</ele><time>2026-03-29T09:52:47Z</time></trkpt><trkpt lat="46.02324159177011" lon="12.287924977240895"><ele>257.0</ele><time>2026-03-29T09:52:48Z</time></trkpt><trkpt lat="46.02340662436773" lon="12.287899022097667"><ele>263.0</ele><time>2026-03-29T09:52:49Z</time></trkpt><trkpt lat="46.023551473400545" lon="12.287850888194017"><ele>269.0</ele><time>2026-03-29T09:52:50Z</time></trkpt><trkpt lat="46.023649014799275" lon="12.28781584744221"><ele>275.0</ele><time>2026-03-29T09:52:51Z</time></trkpt><trkpt lat="46.023718046164774" lon="12.287806393896366"><ele>281.0</ele><time>2026-03-29T09:52:52Z</time></trkpt><trkpt lat="46.02384163460265" lon="12.287854218043929"><ele>287.0</ele><time>2026-03-29T09:52:54Z</time></trkpt><trkpt lat="46.02389722624037" lon="12.28791232750229"><ele>287.0</ele><time>2026-03-29T09:52:55Z</time></trkpt><trkpt lat="46.02395212679399" lon="12.28798599792414"><ele>287.0</ele><time>2026-03-29T09:52:56Z</time></trkpt><trkpt lat="46.02398132689442" lon="12.288076595849846"><ele>287.0</ele><time>2026-03-29T09:52:57Z</time></trkpt><trkpt lat="46.02400375215775" lon="12.288184797489013"><ele>287.0</ele><time>2026-03-29T09:52:58Z</time></trkpt><trkpt lat="46.02403405038549" lon="12.288297339540632"><ele>287.0</ele><time>2026-03-29T09:52:59Z</time></trkpt><trkpt lat="46.024068091745065" lon="12.288410496069412"><ele>287.0</ele><time>2026-03-29T09:53:00Z</time></trkpt><trkpt lat="46.02411756334069" lon="12.288513013053072"><ele>289.1666666666667</ele><time>2026-03-29T09:53:01Z</time></trkpt><trkpt lat="46.02414801850079" lon="12.288625723018429"><ele>291.33333333333337</ele><time>2026-03-29T09:53:02Z</time></trkpt><trkpt lat="46.02418003167138" lon="12.28872890572579"><ele>293.5</ele><time>2026-03-29T09:53:03Z</time></trkpt><trkpt lat="46.02422660564057" lon="12.288803312069204"><ele>295.6666666666667</ele><time>2026-03-29T09:53:04Z</time></trkpt><trkpt lat="46.02429541373547" lon="12.288840977362751"><ele>297.8333333333333</ele><time>2026-03-29T09:53:05Z</time></trkpt><trkpt lat="46.024388134420605" lon="12.288841115723395"><ele>300.0</ele><time>2026-03-29T09:53:06Z</time></trkpt><trkpt lat="46.02450138009691" lon="12.288874059090437"><ele>300.0</ele><time>2026-03-29T09:53:07Z</time></trkpt><trkpt lat="46.02459058829585" lon="12.288889918385747"><ele>300.0</ele><time>2026-03-29T09:53:08Z</time></trkpt><trkpt lat="46.02466272227786" lon="12.288876645253707"><ele>300.0</ele><time>2026-03-29T09:53:09.001Z</time></trkpt><trkpt lat="46.02475045981999" lon="12.288762236037101"><ele>300.0</ele><time>2026-03-29T09:53:10.001Z</time></trkpt><trkpt lat="46.02484906890373" lon="12.288748682568231"><ele>300.0</ele><time>2026-03-29T09:53:11.001Z</time></trkpt><trkpt lat="46.024911680598116" lon="12.28870688674922"><ele>300.0</ele><time>2026-03-29T09:53:12.001Z</time></trkpt><trkpt lat="46.02497032278321" lon="12.288655356169896"><ele>304.1666666666667</ele><time>2026-03-29T09:53:13.001Z</time></trkpt><trkpt lat="46.025007028614695" lon="12.288563591791204"><ele>308.3333333333333</ele><time>2026-03-29T09:53:14.001Z</time></trkpt><trkpt lat="46.02502000526395" lon="12.288451073027531"><ele>312.5</ele><time>2026-03-29T09:53:15.001Z</time></trkpt><trkpt lat="46.02506141375881" lon="12.288364897902904"><ele>316.66666666666663</ele><time>2026-03-29T09:53:16.001Z</time></trkpt><trkpt lat="46.02514157074859" lon="12.288274614132245"><ele>320.8333333333333</ele><time>2026-03-29T09:53:18.001Z</time></trkpt><trkpt lat="46.02521714624402" lon="12.2882838465633"><ele>325.0</ele><time>2026-03-29T09:53:19.001Z</time></trkpt><trkpt lat="46.02529091381755" lon="12.288340780632364"><ele>325.0</ele><time>2026-03-29T09:53:20.001Z</time></trkpt><trkpt lat="46.02536200729243" lon="12.28844054203904"><ele>325.0</ele><time>2026-03-29T09:53:21.001Z</time></trkpt><trkpt lat="46.02544138915863" lon="12.28855970563182"><ele>325.0</ele><time>2026-03-29T09:53:22.001Z</time></trkpt><trkpt lat="46.02551668662751" lon="12.288677408906352"><ele>325.0</ele><time>2026-03-29T09:53:23.001Z</time></trkpt><trkpt lat="46.02558690814691" lon="12.288821703327335"><ele>325.0</ele><time>2026-03-29T09:53:24.001Z</time></trkpt><trkpt lat="46.025644785598644" lon="12.288976138331163"><ele>327.8</ele><time>2026-03-29T09:53:25.001Z</time></trkpt><trkpt lat="46.02567970942934" lon="12.289148437876063"><ele>330.6</ele><time>2026-03-29T09:53:26.001Z</time></trkpt><trkpt lat="46.025697269514524" lon="12.289299946489724"><ele>333.4</ele><time>2026-03-29T09:53:27.001Z</time></trkpt><trkpt lat="46.02571391534434" lon="12.289422675140848"><ele>336.2</ele><time>2026-03-29T09:53:28.001Z</time></trkpt><trkpt lat="46.02574372903629" lon="12.289544403555098"><ele>339.0</ele><time>2026-03-29T09:53:29.001Z</time></trkpt><trkpt lat="46.02581241500986" lon="12.289662578924347"><ele>335.6</ele><time>2026-03-29T09:53:30.001Z</time></trkpt><trkpt lat="46.02587748900101" lon="12.28978614809669"><ele>332.2</ele><time>2026-03-29T09:53:31.001Z</time></trkpt><trkpt lat="46.025923816862374" lon="12.28988799419452"><ele>328.8</ele><time>2026-03-29T09:53:32.001Z</time></trkpt><trkpt lat="46.025983376533" lon="12.290009321792063"><ele>325.40000000000003</ele><time>2026-03-29T09:53:33.001Z</time></trkpt><trkpt lat="46.02609283995615" lon="12.290118956435354"><ele>322.0</ele><time>2026-03-29T09:53:34.001Z</time></trkpt><trkpt lat="46.02618931923527" lon="12.29027888854163"><ele>322.0</ele><time>2026-03-29T09:53:35.001Z</time></trkpt><trkpt lat="46.0262829114137" lon="12.290458594506774"><ele>322.0</ele><time>2026-03-29T09:53:36.001Z</time></trkpt><trkpt lat="46.0263687842474" lon="12.290652085126474"><ele>322.0</ele><time>2026-03-29T09:53:37.001Z</time></trkpt><trkpt lat="46.02643604337449" lon="12.290819648716287"><ele>321.0</ele><time>2026-03-29T09:53:38.001Z</time></trkpt><trkpt lat="46.02648279886957" lon="12.290970342330468"><ele>320.0</ele><time>2026-03-29T09:53:39.001Z</time></trkpt><trkpt lat="46.02650306043364" lon="12.291103116435618"><ele>319.0</ele><time>2026-03-29T09:53:40.001Z</time></trkpt><trkpt lat="46.02650970203541" lon="12.291204794831422"><ele>318.0</ele><time>2026-03-29T09:53:41.001Z</time></trkpt><trkpt lat="46.0265268767346" lon="12.291328042958321"><ele>317.0</ele><time>2026-03-29T09:53:42.001Z</time></trkpt><trkpt lat="46.02658320242121" lon="12.291440529668527"><ele>324.5</ele><time>2026-03-29T09:53:43.001Z</time></trkpt><trkpt lat="46.026674680072716" lon="12.291549003218863"><ele>332.0</ele><time>2026-03-29T09:53:44.001Z</time></trkpt><trkpt lat="46.02676890068407" lon="12.29167633935164"><ele>339.5</ele><time>2026-03-29T09:53:45.001Z</time></trkpt><trkpt lat="46.02688778073656" lon="12.291817366962071"><ele>347.0</ele><time>2026-03-29T09:53:46.001Z</time></trkpt><trkpt lat="46.027017895150394" lon="12.291935023800482"><ele>347.0</ele><time>2026-03-29T09:53:47.001Z</time></trkpt><trkpt lat="46.027140933111646" lon="12.292046282001271"><ele>347.0</ele><time>2026-03-29T09:53:48.001Z</time></trkpt><trkpt lat="46.0272539044488" lon="12.292179434849809"><ele>347.0</ele><time>2026-03-29T09:53:49.001Z</time></trkpt><trkpt lat="46.027356224021716" lon="12.29234654550494"><ele>347.0</ele><time>2026-03-29T09:53:50.001Z</time></trkpt><trkpt lat="46.02743994305449" lon="12.292493839048028"><ele>350.0</ele><time>2026-03-29T09:53:51.001Z</time></trkpt><trkpt lat="46.027515277364294" lon="12.292616303528312"><ele>353.0</ele><time>2026-03-29T09:53:52.001Z</time></trkpt><trkpt lat="46.02759806124027" lon="12.292705755861459"><ele>356.0</ele><time>2026-03-29T09:53:53.001Z</time></trkpt><trkpt lat="46.027696875828276" lon="12.292743782031419"><ele>359.0</ele><time>2026-03-29T09:53:54.001Z</time></trkpt><trkpt lat="46.02780934318133" lon="12.292721249305103"><ele>362.0</ele><time>2026-03-29T09:53:55.001Z</time></trkpt><trkpt lat="46.027918261944265" lon="12.292681805561106"><ele>362.0</ele><time>2026-03-29T09:53:56.001Z</time></trkpt><trkpt lat="46.02800159171704" lon="12.29263273133822"><ele>362.0</ele><time>2026-03-29T09:53:57.001Z</time></trkpt><trkpt lat="46.028051910145194" lon="12.292468533624902"><ele>362.0</ele><time>2026-03-29T09:53:59.001Z</time></trkpt><trkpt lat="46.0280242034922" lon="12.292360047075492"><ele>362.0</ele><time>2026-03-29T09:54:00.001Z</time></trkpt><trkpt lat="46.02797550611263" lon="12.292256664678964"><ele>362.0</ele><time>2026-03-29T09:54:01.001Z</time></trkpt><trkpt lat="46.0279725617767" lon="12.29215146496654"><ele>362.0</ele><time>2026-03-29T09:54:02.001Z</time></trkpt><trkpt lat="46.02801430299303" lon="12.292059906670262"><ele>362.0</ele><time>2026-03-29T09:54:04.001Z</time></trkpt><trkpt lat="46.02808697590318" lon="12.292202709685958"><ele>362.0</ele><time>2026-03-29T09:54:06.001Z</time></trkpt><trkpt lat="46.028168319751835" lon="12.292308353582701"><ele>362.0</ele><time>2026-03-29T09:54:07.001Z</time></trkpt><trkpt lat="46.02826511160148" lon="12.2924291852578"><ele>362.0</ele><time>2026-03-29T09:54:08.002Z</time></trkpt><trkpt lat="46.02835644830285" lon="12.292553472190711"><ele>368.75</ele><time>2026-03-29T09:54:09.002Z</time></trkpt><trkpt lat="46.028449915726" lon="12.29267354598978"><ele>375.5</ele><time>2026-03-29T09:54:10.002Z</time></trkpt><trkpt lat="46.02853311904131" lon="12.29280092801938"><ele>382.25</ele><time>2026-03-29T09:54:11.002Z</time></trkpt><trkpt lat="46.02861226014176" lon="12.292936625047995"><ele>389.0</ele><time>2026-03-29T09:54:12.002Z</time></trkpt><trkpt lat="46.02871118561001" lon="12.293047676834394"><ele>390.75</ele><time>2026-03-29T09:54:13.002Z</time></trkpt><trkpt lat="46.02881364735067" lon="12.293145336115002"><ele>392.5</ele><time>2026-03-29T09:54:14.002Z</time></trkpt><trkpt lat="46.0289175753222" lon="12.293225013642195"><ele>394.25</ele><time>2026-03-29T09:54:15.002Z</time></trkpt><trkpt lat="46.02904099324403" lon="12.293272604488703"><ele>396.0</ele><time>2026-03-29T09:54:16.002Z</time></trkpt><trkpt lat="46.029170946723326" lon="12.293343114980344"><ele>396.0</ele><time>2026-03-29T09:54:17.002Z</time></trkpt><trkpt lat="46.02930461148654" lon="12.293410239577499"><ele>396.0</ele><time>2026-03-29T09:54:18.002Z</time></trkpt><trkpt lat="46.02943551729234" lon="12.29348051239288"><ele>396.0</ele><time>2026-03-29T09:54:19.002Z</time></trkpt><trkpt lat="46.02956700186157" lon="12.293567190950109"><ele>396.0</ele><time>2026-03-29T09:54:20.002Z</time></trkpt><trkpt lat="46.02970001349888" lon="12.29367933422183"><ele>396.0</ele><time>2026-03-29T09:54:21.002Z</time></trkpt><trkpt lat="46.02983700238712" lon="12.29381727146471"><ele>396.0</ele><time>2026-03-29T09:54:22.002Z</time></trkpt><trkpt lat="46.02999005929311" lon="12.293977368322123"><ele>396.0</ele><time>2026-03-29T09:54:23.002Z</time></trkpt><trkpt lat="46.030147052449635" lon="12.2941452651828"><ele>399.66666666666663</ele><time>2026-03-29T09:54:24.002Z</time></trkpt><trkpt lat="46.03031243886428" lon="12.29432443941687"><ele>403.3333333333333</ele><time>2026-03-29T09:54:25.002Z</time></trkpt><trkpt lat="46.03045959299148" lon="12.294492986587347"><ele>407.0</ele><time>2026-03-29T09:54:26.002Z</time></trkpt><trkpt lat="46.0305765022931" lon="12.294638673760925"><ele>409.40000000000003</ele><time>2026-03-29T09:54:27.002Z</time></trkpt><trkpt lat="46.030671680197" lon="12.294759310234486"><ele>411.8</ele><time>2026-03-29T09:54:28.002Z</time></trkpt><trkpt lat="46.03076786873082" lon="12.294840746705017"><ele>414.2</ele><time>2026-03-29T09:54:29.002Z</time></trkpt><trkpt lat="46.03084037742987" lon="12.294912366144052"><ele>416.6</ele><time>2026-03-29T09:54:30.002Z</time></trkpt><trkpt lat="46.030901510139856" lon="12.294951696240961"><ele>419.0</ele><time>2026-03-29T09:54:31.002Z</time></trkpt><trkpt lat="46.03098537899318" lon="12.294951169524412"><ele>419.0</ele><time>2026-03-29T09:54:33.002Z</time></trkpt><trkpt lat="46.031015923023304" lon="12.294759849520869"><ele>419.0</ele><time>2026-03-29T09:54:35.002Z</time></trkpt><trkpt lat="46.0309781806341" lon="12.29463480038087"><ele>419.0</ele><time>2026-03-29T09:54:36.002Z</time></trkpt><trkpt lat="46.03093719061032" lon="12.294493884464716"><ele>419.0</ele><time>2026-03-29T09:54:37.002Z</time></trkpt><trkpt lat="46.030914453503726" lon="12.294325030009597"><ele>420.66666666666663</ele><time>2026-03-29T09:54:38Z</time></trkpt><trkpt lat="46.03087266268255" lon="12.294135694935054"><ele>422.33333333333337</ele><time>2026-03-29T09:54:39Z</time></trkpt><trkpt lat="46.03080764425693" lon="12.293932758140203"><ele>424.0</ele><time>2026-03-29T09:54:40Z</time></trkpt><trkpt lat="46.03074733543727" lon="12.29371348259767"><ele>424.0</ele><time>2026-03-29T09:54:41Z</time></trkpt><trkpt lat="46.03067199071176" lon="12.293518048730709"><ele>424.0</ele><time>2026-03-29T09:54:42Z</time></trkpt><trkpt lat="46.030601117422975" lon="12.293358414139316"><ele>424.0</ele><time>2026-03-29T09:54:43Z</time></trkpt><trkpt lat="46.03051984613606" lon="12.293227224434066"><ele>424.0</ele><time>2026-03-29T09:54:44Z</time></trkpt><trkpt lat="46.03043176348557" lon="12.293099497337467"><ele>429.25</ele><time>2026-03-29T09:54:45Z</time></trkpt><trkpt lat="46.03032860002137" lon="12.29297131571253"><ele>434.5</ele><time>2026-03-29T09:54:46Z</time></trkpt><trkpt lat="46.0302403298838" lon="12.29283937751565"><ele>439.75</ele><time>2026-03-29T09:54:47Z</time></trkpt><trkpt lat="46.03015784304818" lon="12.292730116755932"><ele>445.0</ele><time>2026-03-29T09:54:48Z</time></trkpt><trkpt lat="46.03006703156195" lon="12.292639953797401"><ele>445.00000000000006</ele><time>2026-03-29T09:54:49Z</time></trkpt><trkpt lat="46.02997563730971" lon="12.292576517254961"><ele>445.0</ele><time>2026-03-29T09:54:50Z</time></trkpt><trkpt lat="46.02989025811365" lon="12.292526559694172"><ele>445.0</ele><time>2026-03-29T09:54:51Z</time></trkpt><trkpt lat="46.029819766059255" lon="12.292473237911791"><ele>445.0</ele><time>2026-03-29T09:54:52Z</time></trkpt><trkpt lat="46.02976050558629" lon="12.2924016822404"><ele>445.00000000000006</ele><time>2026-03-29T09:54:53Z</time></trkpt><trkpt lat="46.02971303782247" lon="12.292316852201578"><ele>445.0</ele><time>2026-03-29T09:54:54Z</time></trkpt><trkpt lat="46.02969421198022" lon="12.292198969487659"><ele>443.1666666666667</ele><time>2026-03-29T09:54:55Z</time></trkpt><trkpt lat="46.02966388316469" lon="12.292090835786922"><ele>441.33333333333337</ele><time>2026-03-29T09:54:56Z</time></trkpt><trkpt lat="46.029634107644576" lon="12.291978870848535"><ele>439.5</ele><time>2026-03-29T09:54:57Z</time></trkpt><trkpt lat="46.02960788169765" lon="12.291869852812965"><ele>437.66666666666663</ele><time>2026-03-29T09:54:58Z</time></trkpt><trkpt lat="46.029575124693906" lon="12.29175640144204"><ele>435.8333333333333</ele><time>2026-03-29T09:54:59Z</time></trkpt><trkpt lat="46.02952797176508" lon="12.291641445875602"><ele>434.0</ele><time>2026-03-29T09:55:00Z</time></trkpt><trkpt lat="46.02944438624825" lon="12.291537007388305"><ele>434.0</ele><time>2026-03-29T09:55:01Z</time></trkpt><trkpt lat="46.02938459487967" lon="12.29142704644586"><ele>434.0</ele><time>2026-03-29T09:55:02Z</time></trkpt><trkpt lat="46.02934512024944" lon="12.291287950051908"><ele>434.0</ele><time>2026-03-29T09:55:03Z</time></trkpt><trkpt lat="46.02929389863472" lon="12.29116670773748"><ele>434.0</ele><time>2026-03-29T09:55:04Z</time></trkpt><trkpt lat="46.02924124636544" lon="12.291044884079856"><ele>434.0</ele><time>2026-03-29T09:55:05Z</time></trkpt><trkpt lat="46.02917650048798" lon="12.290938070472297"><ele>436.4</ele><time>2026-03-29T09:55:06Z</time></trkpt><trkpt lat="46.02913643633598" lon="12.290814810929891"><ele>438.79999999999995</ele><time>2026-03-29T09:55:07Z</time></trkpt><trkpt lat="46.02912297595562" lon="12.290678034970039"><ele>441.20000000000005</ele><time>2026-03-29T09:55:08Z</time></trkpt><trkpt lat="46.02907792457823" lon="12.29056362606689"><ele>443.6</ele><time>2026-03-29T09:55:09Z</time></trkpt><trkpt lat="46.02904782476609" lon="12.290445181862255"><ele>446.0</ele><time>2026-03-29T09:55:10Z</time></trkpt><trkpt lat="46.02903240243631" lon="12.290318841055713"><ele>445.99999999999994</ele><time>2026-03-29T09:55:11Z</time></trkpt><trkpt lat="46.028985767508395" lon="12.29021409048378"><ele>446.0</ele><time>2026-03-29T09:55:12Z</time></trkpt><trkpt lat="46.02890819939804" lon="12.290145555140727"><ele>446.0</ele><time>2026-03-29T09:55:13Z</time></trkpt><trkpt lat="46.028839431838115" lon="12.290064736899032"><ele>446.0</ele><time>2026-03-29T09:55:14Z</time></trkpt><trkpt lat="46.02877149235106" lon="12.289984976871706"><ele>445.99999999999994</ele><time>2026-03-29T09:55:15.001Z</time></trkpt><trkpt lat="46.02870155935608" lon="12.28992118181631"><ele>446.0</ele><time>2026-03-29T09:55:16.001Z</time></trkpt><trkpt lat="46.028638807303395" lon="12.289878044564372"><ele>445.99999999999994</ele><time>2026-03-29T09:55:17.001Z</time></trkpt><trkpt lat="46.02854645088564" lon="12.289815827526551"><ele>446.0</ele><time>2026-03-29T09:55:19.001Z</time></trkpt><trkpt lat="46.02849045690838" lon="12.289772226986171"><ele>446.0</ele><time>2026-03-29T09:55:20.001Z</time></trkpt><trkpt lat="46.02843280123127" lon="12.289721716277194"><ele>446.0</ele><time>2026-03-29T09:55:21.001Z</time></trkpt><trkpt lat="46.02838082170286" lon="12.289646548900867"><ele>445.99999999999994</ele><time>2026-03-29T09:55:22.001Z</time></trkpt><trkpt lat="46.02832803275631" lon="12.289583352535805"><ele>446.0</ele><time>2026-03-29T09:55:23.001Z</time></trkpt><trkpt lat="46.028272650457495" lon="12.28948633308903"><ele>444.6</ele><time>2026-03-29T09:55:25.001Z</time></trkpt><trkpt lat="46.028247337544684" lon="12.289333931479497"><ele>443.20000000000005</ele><time>2026-03-29T09:55:27.001Z</time></trkpt><trkpt lat="46.028242304070105" lon="12.289184231071436"><ele>441.79999999999995</ele><time>2026-03-29T09:55:29.001Z</time></trkpt><trkpt lat="46.02827454532441" lon="12.289012164182921"><ele>440.4</ele><time>2026-03-29T09:55:31.001Z</time></trkpt><trkpt lat="46.02829217307093" lon="12.288923052083197"><ele>439.0</ele><time>2026-03-29T09:55:32.001Z</time></trkpt><trkpt lat="46.02832819228208" lon="12.288789841184316"><ele>444.6</ele><time>2026-03-29T09:55:34.001Z</time></trkpt><trkpt lat="46.02838559739629" lon="12.28865999875741"><ele>450.2</ele><time>2026-03-29T09:55:36.001Z</time></trkpt><trkpt lat="46.02846454137488" lon="12.288529071847723"><ele>455.80000000000007</ele><time>2026-03-29T09:55:38.001Z</time></trkpt><trkpt lat="46.028544622674886" lon="12.28841218326038"><ele>461.40000000000003</ele><time>2026-03-29T09:55:40.001Z</time></trkpt><trkpt lat="46.02861953765189" lon="12.288303800695877"><ele>467.0</ele><time>2026-03-29T09:55:42.001Z</time></trkpt><trkpt lat="46.028677608615446" lon="12.288202931951146"><ele>466.99999999999994</ele><time>2026-03-29T09:55:44.001Z</time></trkpt><trkpt lat="46.02867599851233" lon="12.288093918007375"><ele>467.0</ele><time>2026-03-29T09:55:46.001Z</time></trkpt><trkpt lat="46.02857124367763" lon="12.28797803353474"><ele>467.0</ele><time>2026-03-29T09:55:48.001Z</time></trkpt><trkpt lat="46.02852006450116" lon="12.287890324180909"><ele>467.0</ele><time>2026-03-29T09:55:49.001Z</time></trkpt><trkpt lat="46.02845291634009" lon="12.287828961908632"><ele>466.99999999999994</ele><time>2026-03-29T09:55:50.001Z</time></trkpt><trkpt lat="46.02840054234865" lon="12.287738843978618"><ele>467.0</ele><time>2026-03-29T09:55:51.001Z</time></trkpt><trkpt lat="46.028338380692716" lon="12.287658730424157"><ele>465.8333333333333</ele><time>2026-03-29T09:55:52.001Z</time></trkpt><trkpt lat="46.02827724676738" lon="12.287576434073111"><ele>464.66666666666663</ele><time>2026-03-29T09:55:53.001Z</time></trkpt><trkpt lat="46.02823458524275" lon="12.28747857641167"><ele>463.5</ele><time>2026-03-29T09:55:54.001Z</time></trkpt><trkpt lat="46.02817913697761" lon="12.287389063592148"><ele>462.33333333333337</ele><time>2026-03-29T09:55:55.001Z</time></trkpt><trkpt lat="46.02811812770456" lon="12.287323716513022"><ele>461.1666666666667</ele><time>2026-03-29T09:55:56.001Z</time></trkpt><trkpt lat="46.02807412107434" lon="12.287252586699186"><ele>460.0</ele><time>2026-03-29T09:55:57.001Z</time></trkpt><trkpt lat="46.02800588949817" lon="12.287173299966552"><ele>460.0</ele><time>2026-03-29T09:55:59.001Z</time></trkpt><trkpt lat="46.027930459056236" lon="12.287057326710942"><ele>460.0</ele><time>2026-03-29T09:56:01.001Z</time></trkpt><trkpt lat="46.02786262925137" lon="12.286902799335701"><ele>460.0</ele><time>2026-03-29T09:56:03.001Z</time></trkpt><trkpt lat="46.02785135770887" lon="12.286800941980989"><ele>460.0</ele><time>2026-03-29T09:56:04.001Z</time></trkpt><trkpt lat="46.02782042067306" lon="12.28670736241965"><ele>460.0</ele><time>2026-03-29T09:56:05.001Z</time></trkpt><trkpt lat="46.02780056460801" lon="12.286601353691415"><ele>460.0</ele><time>2026-03-29T09:56:06.001Z</time></trkpt><trkpt lat="46.02771088435636" lon="12.286464568197392"><ele>460.0</ele><time>2026-03-29T09:56:08.001Z</time></trkpt><trkpt lat="46.027615736539474" lon="12.286374183239245"><ele>460.0</ele><time>2026-03-29T09:56:10.001Z</time></trkpt><trkpt lat="46.02756648027381" lon="12.2862499214189"><ele>460.0</ele><time>2026-03-29T09:56:12.001Z</time></trkpt><trkpt lat="46.027536022455884" lon="12.286104590885234"><ele>460.0</ele><time>2026-03-29T09:56:14.002Z</time></trkpt><trkpt lat="46.027470027699856" lon="12.285962117509639"><ele>457.6</ele><time>2026-03-29T09:56:16.002Z</time></trkpt><trkpt lat="46.027409456818056" lon="12.285805685283453"><ele>455.2</ele><time>2026-03-29T09:56:18.002Z</time></trkpt><trkpt lat="46.02735460536503" lon="12.28572800331114"><ele>452.79999999999995</ele><time>2026-03-29T09:56:19.002Z</time></trkpt><trkpt lat="46.02729253550745" lon="12.285645820662873"><ele>450.4</ele><time>2026-03-29T09:56:20.002Z</time></trkpt><trkpt lat="46.02724127204137" lon="12.285547620830226"><ele>448.0</ele><time>2026-03-29T09:56:21.002Z</time></trkpt><trkpt lat="46.02717953930926" lon="12.285464805015055"><ele>452.50000000000006</ele><time>2026-03-29T09:56:22.002Z</time></trkpt><trkpt lat="46.02711037404215" lon="12.285378353645838"><ele>457.0</ele><time>2026-03-29T09:56:23.002Z</time></trkpt><trkpt lat="46.02704071445298" lon="12.285300815558621"><ele>461.5</ele><time>2026-03-29T09:56:24.002Z</time></trkpt><trkpt lat="46.026967016184315" lon="12.28525244336235"><ele>466.0</ele><time>2026-03-29T09:56:25.002Z</time></trkpt><trkpt lat="46.02690313071272" lon="12.28518720544289"><ele>470.50000000000006</ele><time>2026-03-29T09:56:26.002Z</time></trkpt><trkpt lat="46.02685557363638" lon="12.28512533124693"><ele>475.0</ele><time>2026-03-29T09:56:27.002Z</time></trkpt><trkpt lat="46.02681151543782" lon="12.285048035896331"><ele>475.0</ele><time>2026-03-29T09:56:28.002Z</time></trkpt><trkpt lat="46.02678029574985" lon="12.28492214341694"><ele>475.0</ele><time>2026-03-29T09:56:30.002Z</time></trkpt><trkpt lat="46.02682817623908" lon="12.284772307819347"><ele>475.0</ele><time>2026-03-29T09:56:32.002Z</time></trkpt><trkpt lat="46.02687857657162" lon="12.284602020020904"><ele>475.0</ele><time>2026-03-29T09:56:34.002Z</time></trkpt><trkpt lat="46.026890239876444" lon="12.28448279555734"><ele>475.0</ele><time>2026-03-29T09:56:36.002Z</time></trkpt><trkpt lat="46.02682739141082" lon="12.28438404895633"><ele>476.6</ele><time>2026-03-29T09:56:38.002Z</time></trkpt><trkpt lat="46.026753794712235" lon="12.284296063942534"><ele>478.2</ele><time>2026-03-29T09:56:40.002Z</time></trkpt><trkpt lat="46.02669917866104" lon="12.284170097833444"><ele>479.79999999999995</ele><time>2026-03-29T09:56:42.002Z</time></trkpt><trkpt lat="46.026687860649254" lon="12.283995121453795"><ele>481.4</ele><time>2026-03-29T09:56:44Z</time></trkpt><trkpt lat="46.0266849349056" lon="12.28389987922256"><ele>483.0</ele><time>2026-03-29T09:56:45Z</time></trkpt><trkpt lat="46.02666690872935" lon="12.283789408558023"><ele>477.4</ele><time>2026-03-29T09:56:46Z</time></trkpt><trkpt lat="46.0266443770389" lon="12.283667237124558"><ele>471.79999999999995</ele><time>2026-03-29T09:56:47Z</time></trkpt><trkpt lat="46.02662722860611" lon="12.283553130345966"><ele>466.2</ele><time>2026-03-29T09:56:48Z</time></trkpt><trkpt lat="46.02661337686926" lon="12.283459579968037"><ele>460.6</ele><time>2026-03-29T09:56:49Z</time></trkpt><trkpt lat="46.026561325456896" lon="12.283305020298197"><ele>455.0</ele><time>2026-03-29T09:56:51Z</time></trkpt><trkpt lat="46.0265625116934" lon="12.283129332514234"><ele>459.2</ele><time>2026-03-29T09:56:53Z</time></trkpt><trkpt lat="46.02658470531282" lon="12.283025261359615"><ele>463.4</ele><time>2026-03-29T09:56:54Z</time></trkpt><trkpt lat="46.0266166156932" lon="12.282926212441213"><ele>467.6</ele><time>2026-03-29T09:56:55Z</time></trkpt><trkpt lat="46.026666363158455" lon="12.28277340394902"><ele>471.8</ele><time>2026-03-29T09:56:57Z</time></trkpt><trkpt lat="46.026662892267424" lon="12.282624982895927"><ele>476.0</ele><time>2026-03-29T09:56:59Z</time></trkpt><trkpt lat="46.02661814075024" lon="12.282481262060728"><ele>475.99999999999994</ele><time>2026-03-29T09:57:01Z</time></trkpt><trkpt lat="46.026539266086075" lon="12.282472586335661"><ele>476.0</ele><time>2026-03-29T09:57:02Z</time></trkpt><trkpt lat="46.026460670686326" lon="12.282443784409459"><ele>476.0</ele><time>2026-03-29T09:57:03Z</time></trkpt><trkpt lat="46.02638265826191" lon="12.282432158402383"><ele>476.0</ele><time>2026-03-29T09:57:04Z</time></trkpt><trkpt lat="46.0263075212023" lon="12.282383822530358"><ele>475.99999999999994</ele><time>2026-03-29T09:57:05Z</time></trkpt><trkpt lat="46.02623750743764" lon="12.282356683816547"><ele>476.0</ele><time>2026-03-29T09:57:06Z</time></trkpt><trkpt lat="46.02616294111511" lon="12.282327326974752"><ele>475.99999999999994</ele><time>2026-03-29T09:57:07Z</time></trkpt><trkpt lat="46.02608968949457" lon="12.282295697100647"><ele>476.0</ele><time>2026-03-29T09:57:08Z</time></trkpt><trkpt lat="46.026016123323885" lon="12.282258818608279"><ele>476.0</ele><time>2026-03-29T09:57:09Z</time></trkpt><trkpt lat="46.025924081396155" lon="12.282153144193982"><ele>476.0</ele><time>2026-03-29T09:57:11Z</time></trkpt><trkpt lat="46.0258625780654" lon="12.28209586412166"><ele>475.99999999999994</ele><time>2026-03-29T09:57:12Z</time></trkpt><trkpt lat="46.025801705422175" lon="12.282040994592945"><ele>476.0</ele><time>2026-03-29T09:57:13Z</time></trkpt><trkpt lat="46.02573089145336" lon="12.281978478992217"><ele>478.8333333333333</ele><time>2026-03-29T09:57:15Z</time></trkpt><trkpt lat="46.025701532932224" lon="12.281885519515622"><ele>481.66666666666663</ele><time>2026-03-29T09:57:17Z</time></trkpt><trkpt lat="46.02574544534775" lon="12.281740887505237"><ele>484.5</ele><time>2026-03-29T09:57:19Z</time></trkpt><trkpt lat="46.025770482680926" lon="12.281651479345438"><ele>487.33333333333337</ele><time>2026-03-29T09:57:20Z</time></trkpt><trkpt lat="46.02581359143144" lon="12.281580201640152"><ele>490.1666666666667</ele><time>2026-03-29T09:57:21Z</time></trkpt><trkpt lat="46.02584632952234" lon="12.281499387738796"><ele>493.0</ele><time>2026-03-29T09:57:22Z</time></trkpt><trkpt lat="46.02587010815434" lon="12.281401085382642"><ele>495.6666666666667</ele><time>2026-03-29T09:57:23Z</time></trkpt><trkpt lat="46.025887279645254" lon="12.28127635645705"><ele>498.33333333333337</ele><time>2026-03-29T09:57:24Z</time></trkpt><trkpt lat="46.025890096796296" lon="12.281182573200473"><ele>501.0</ele><time>2026-03-29T09:57:25Z</time></trkpt><trkpt lat="46.02590119218956" lon="12.28108745224249"><ele>503.66666666666663</ele><time>2026-03-29T09:57:26Z</time></trkpt><trkpt lat="46.02591401201833" lon="12.280981565511528"><ele>506.3333333333333</ele><time>2026-03-29T09:57:27Z</time></trkpt><trkpt lat="46.0259777039789" lon="12.280820797883967"><ele>509.0</ele><time>2026-03-29T09:57:29.001Z</time></trkpt><trkpt lat="46.02601662777836" lon="12.280739712688817"><ele>508.99999999999994</ele><time>2026-03-29T09:57:30.001Z</time></trkpt><trkpt lat="46.026063976701465" lon="12.280663978498351"><ele>509.0</ele><time>2026-03-29T09:57:31.001Z</time></trkpt><trkpt lat="46.02611700754812" lon="12.28060149067386"><ele>509.0</ele><time>2026-03-29T09:57:32.001Z</time></trkpt><trkpt lat="46.02617255865108" lon="12.280550402739784"><ele>509.0</ele><time>2026-03-29T09:57:33.001Z</time></trkpt><trkpt lat="46.02626431776601" lon="12.280479919057209"><ele>508.99999999999994</ele><time>2026-03-29T09:57:35.001Z</time></trkpt><trkpt lat="46.02631057114387" lon="12.280417495187276"><ele>509.0</ele><time>2026-03-29T09:57:36.001Z</time></trkpt><trkpt lat="46.0263632217145" lon="12.280258730335323"><ele>511.66666666666663</ele><time>2026-03-29T09:57:38.001Z</time></trkpt><trkpt lat="46.026356007294076" lon="12.280149416003063"><ele>514.3333333333333</ele><time>2026-03-29T09:57:40.001Z</time></trkpt><trkpt lat="46.026265896631294" lon="12.280101568433887"><ele>517.0</ele><time>2026-03-29T09:57:43.001Z</time></trkpt><trkpt lat="46.02620010830161" lon="12.280140282749139"><ele>519.6666666666666</ele><time>2026-03-29T09:57:44.001Z</time></trkpt><trkpt lat="46.02610343670992" lon="12.280199000099898"><ele>522.3333333333334</ele><time>2026-03-29T09:57:46.001Z</time></trkpt><trkpt lat="46.02603480296482" lon="12.280228679117096"><ele>525.0</ele><time>2026-03-29T09:57:48.001Z</time></trkpt><trkpt lat="46.02593795149028" lon="12.280217142423114"><ele>525.0</ele><time>2026-03-29T09:57:51.001Z</time></trkpt><trkpt lat="46.02587898808373" lon="12.280184795338947"><ele>525.0</ele><time>2026-03-29T09:57:53.001Z</time></trkpt><trkpt lat="46.025918950716026" lon="12.28010783955902"><ele>525.0</ele><time>2026-03-29T09:57:55.001Z</time></trkpt><trkpt lat="46.026007481963894" lon="12.280151860192605"><ele>525.0</ele><time>2026-03-29T09:57:57.001Z</time></trkpt><trkpt lat="46.02609007033105" lon="12.280131716220307"><ele>525.0</ele><time>2026-03-29T09:57:59.001Z</time></trkpt><trkpt lat="46.02615576477516" lon="12.28007713636458"><ele>525.0</ele><time>2026-03-29T09:58:01.001Z</time></trkpt><trkpt lat="46.026155416412394" lon="12.279965402245773"><ele>525.0</ele><time>2026-03-29T09:58:03.001Z</time></trkpt><trkpt lat="46.02607044032837" lon="12.27990994999634"><ele>525.0</ele><time>2026-03-29T09:58:05.001Z</time></trkpt><trkpt lat="46.025985158952004" lon="12.279929020714222"><ele>525.0</ele><time>2026-03-29T09:58:07.001Z</time></trkpt><trkpt lat="46.02587433897825" lon="12.279893723713327"><ele>525.0</ele><time>2026-03-29T09:58:10.001Z</time></trkpt><trkpt lat="46.02574367719434" lon="12.279932028918475"><ele>525.0</ele><time>2026-03-29T09:58:12.001Z</time></trkpt><trkpt lat="46.02567501382118" lon="12.2800287079434"><ele>525.0</ele><time>2026-03-29T09:58:14.001Z</time></trkpt><trkpt lat="46.02569714090493" lon="12.279924163796117"><ele>525.0</ele><time>2026-03-29T09:58:19.001Z</time></trkpt><trkpt lat="46.02574725933588" lon="12.279866651391082"><ele>525.0</ele><time>2026-03-29T09:58:20.001Z</time></trkpt><trkpt lat="46.025811407787444" lon="12.279834703252654"><ele>525.0</ele><time>2026-03-29T09:58:21.001Z</time></trkpt><trkpt lat="46.02591078621307" lon="12.2797670319835"><ele>525.0</ele><time>2026-03-29T09:58:23.001Z</time></trkpt><trkpt lat="46.025995876391576" lon="12.279742991985104"><ele>525.0</ele><time>2026-03-29T09:58:26.001Z</time></trkpt><trkpt lat="46.02598165045269" lon="12.279642843091962"><ele>528.3333333333334</ele><time>2026-03-29T09:58:28.002Z</time></trkpt><trkpt lat="46.02591888919925" lon="12.279582974706893"><ele>531.6666666666666</ele><time>2026-03-29T09:58:29.002Z</time></trkpt><trkpt lat="46.02582449005969" lon="12.279607808936744"><ele>535.0</ele><time>2026-03-29T09:58:30.002Z</time></trkpt><trkpt lat="46.025730959040374" lon="12.279653217480746"><ele>538.3333333333333</ele><time>2026-03-29T09:58:31.002Z</time></trkpt><trkpt lat="46.02566468617804" lon="12.279687768660269"><ele>541.6666666666666</ele><time>2026-03-29T09:58:32.002Z</time></trkpt><trkpt lat="46.02560544437582" lon="12.279723117539454"><ele>545.0</ele><time>2026-03-29T09:58:33.002Z</time></trkpt><trkpt lat="46.025521804860716" lon="12.279786429091665"><ele>545.0</ele><time>2026-03-29T09:58:35.002Z</time></trkpt><trkpt lat="46.02544203288458" lon="12.279888256014035"><ele>545.0</ele><time>2026-03-29T09:58:37.002Z</time></trkpt><trkpt lat="46.02543013119607" lon="12.280002267567136"><ele>545.0</ele><time>2026-03-29T09:58:38.002Z</time></trkpt><trkpt lat="46.025445852470355" lon="12.280097936423106"><ele>545.0</ele><time>2026-03-29T09:58:39.002Z</time></trkpt><trkpt lat="46.02541036642584" lon="12.28020616497535"><ele>545.0</ele><time>2026-03-29T09:58:41.002Z</time></trkpt><trkpt lat="46.02535249928087" lon="12.280249501194742"><ele>545.0</ele><time>2026-03-29T09:58:43.002Z</time></trkpt><trkpt lat="46.02529087596346" lon="12.280228926314326"><ele>545.0</ele><time>2026-03-29T09:58:45.002Z</time></trkpt><trkpt lat="46.02518028692034" lon="12.280182949436924"><ele>545.0</ele><time>2026-03-29T09:58:47.002Z</time></trkpt><trkpt lat="46.025110843763535" lon="12.280071237673376"><ele>545.0</ele><time>2026-03-29T09:58:49.002Z</time></trkpt><trkpt lat="46.02505406132218" lon="12.279960532917478"><ele>545.0</ele><time>2026-03-29T09:58:51Z</time></trkpt><trkpt lat="46.0249837027057" lon="12.279883538589369"><ele>545.0</ele><time>2026-03-29T09:58:53Z</time></trkpt><trkpt lat="46.02492487621673" lon="12.279789168405202"><ele>546.8333333333333</ele><time>2026-03-29T09:58:55Z</time></trkpt><trkpt lat="46.02486335126028" lon="12.279745522859962"><ele>548.6666666666666</ele><time>2026-03-29T09:58:56Z</time></trkpt><trkpt lat="46.024776273383274" lon="12.279758883221078"><ele>550.5</ele><time>2026-03-29T09:58:57Z</time></trkpt><trkpt lat="46.02468412619302" lon="12.27981248998254"><ele>552.3333333333334</ele><time>2026-03-29T09:58:58Z</time></trkpt><trkpt lat="46.02460748914716" lon="12.279857636644085"><ele>554.1666666666667</ele><time>2026-03-29T09:58:59Z</time></trkpt><trkpt lat="46.02453656762303" lon="12.279896773547916"><ele>556.0</ele><time>2026-03-29T09:59:00Z</time></trkpt><trkpt lat="46.024408017402436" lon="12.279932744717456"><ele>556.0</ele><time>2026-03-29T09:59:02Z</time></trkpt><trkpt lat="46.024324644591104" lon="12.279945078489382"><ele>556.0</ele><time>2026-03-29T09:59:03Z</time></trkpt><trkpt lat="46.0242485314904" lon="12.27995672727053"><ele>556.0</ele><time>2026-03-29T09:59:04Z</time></trkpt><trkpt lat="46.02415819319446" lon="12.279978903614362"><ele>556.0</ele><time>2026-03-29T09:59:05Z</time></trkpt><trkpt lat="46.024089951730545" lon="12.280004010272462"><ele>556.0</ele><time>2026-03-29T09:59:06Z</time></trkpt><trkpt lat="46.02398933773168" lon="12.28001866379518"><ele>556.0</ele><time>2026-03-29T09:59:08Z</time></trkpt><trkpt lat="46.02389262940628" lon="12.279955921034242"><ele>558.2</ele><time>2026-03-29T09:59:10Z</time></trkpt><trkpt lat="46.023770487693156" lon="12.279882678747224"><ele>560.4000000000001</ele><time>2026-03-29T09:59:12Z</time></trkpt><trkpt lat="46.023704308872816" lon="12.27982985498156"><ele>562.6</ele><time>2026-03-29T09:59:13Z</time></trkpt><trkpt lat="46.02361225313503" lon="12.279792444374714"><ele>564.8000000000001</ele><time>2026-03-29T09:59:15Z</time></trkpt><trkpt lat="46.023516080007546" lon="12.279734976687141"><ele>567.0</ele><time>2026-03-29T09:59:17Z</time></trkpt><trkpt lat="46.02345412325538" lon="12.27978902819581"><ele>567.0</ele><time>2026-03-29T09:59:18Z</time></trkpt><trkpt lat="46.023421566291674" lon="12.27988078737467"><ele>567.0</ele><time>2026-03-29T09:59:19Z</time></trkpt><trkpt lat="46.023313507257846" lon="12.279957324304359"><ele>567.0</ele><time>2026-03-29T09:59:21Z</time></trkpt><trkpt lat="46.023245607223195" lon="12.279982534607505"><ele>567.0</ele><time>2026-03-29T09:59:22Z</time></trkpt><trkpt lat="46.02317699296783" lon="12.279954318126311"><ele>567.0</ele><time>2026-03-29T09:59:23Z</time></trkpt><trkpt lat="46.02304704142712" lon="12.279941746303681"><ele>567.5</ele><time>2026-03-29T09:59:25Z</time></trkpt><trkpt lat="46.02297812376556" lon="12.279922621739397"><ele>568.0</ele><time>2026-03-29T09:59:26Z</time></trkpt><trkpt lat="46.022881622345714" lon="12.279873408612561"><ele>568.5</ele><time>2026-03-29T09:59:28Z</time></trkpt><trkpt lat="46.022874400129076" lon="12.279780814269408"><ele>569.0</ele><time>2026-03-29T09:59:30Z</time></trkpt><trkpt lat="46.02295793645414" lon="12.279762491278548"><ele>569.5</ele><time>2026-03-29T09:59:32.001Z</time></trkpt><trkpt lat="46.02307657773787" lon="12.2797672830587"><ele>570.0</ele><time>2026-03-29T09:59:34.001Z</time></trkpt><trkpt lat="46.0231460717112" lon="12.279741786904054"><ele>570.0</ele><time>2026-03-29T09:59:35.001Z</time></trkpt><trkpt lat="46.02321668189675" lon="12.2796880241638"><ele>570.0</ele><time>2026-03-29T09:59:36.001Z</time></trkpt><trkpt lat="46.023281960688195" lon="12.279615372207477"><ele>570.0</ele><time>2026-03-29T09:59:37.001Z</time></trkpt><trkpt lat="46.023340292603685" lon="12.279527976665198"><ele>570.0</ele><time>2026-03-29T09:59:38.001Z</time></trkpt><trkpt lat="46.02340332869257" lon="12.279431708442809"><ele>570.0</ele><time>2026-03-29T09:59:39.001Z</time></trkpt><trkpt lat="46.02347383735056" lon="12.27934905744178"><ele>570.0</ele><time>2026-03-29T09:59:40.001Z</time></trkpt><trkpt lat="46.02354311511372" lon="12.279298654488034"><ele>575.0</ele><time>2026-03-29T09:59:41.001Z</time></trkpt><trkpt lat="46.023625490784134" lon="12.279272912152388"><ele>580.0</ele><time>2026-03-29T09:59:42.001Z</time></trkpt><trkpt lat="46.02371987079662" lon="12.279270411756084"><ele>585.0</ele><time>2026-03-29T09:59:43.001Z</time></trkpt><trkpt lat="46.023820216074554" lon="12.279286270217563"><ele>590.0</ele><time>2026-03-29T09:59:44.001Z</time></trkpt><trkpt lat="46.02392147306762" lon="12.279301631667009"><ele>595.0</ele><time>2026-03-29T09:59:45.001Z</time></trkpt><trkpt lat="46.024012475458704" lon="12.279302096964258"><ele>595.0</ele><time>2026-03-29T09:59:46.001Z</time></trkpt><trkpt lat="46.02410090693065" lon="12.279264923727077"><ele>595.0</ele><time>2026-03-29T09:59:47.001Z</time></trkpt><trkpt lat="46.024195131801115" lon="12.27918286425081"><ele>595.0</ele><time>2026-03-29T09:59:48.001Z</time></trkpt><trkpt lat="46.024301809727206" lon="12.279075737685986"><ele>595.0</ele><time>2026-03-29T09:59:49.001Z</time></trkpt><trkpt lat="46.02442671411318" lon="12.278951782562498"><ele>603.6666666666667</ele><time>2026-03-29T09:59:50.001Z</time></trkpt><trkpt lat="46.02456078937624" lon="12.278826018793639"><ele>612.3333333333334</ele><time>2026-03-29T09:59:51.001Z</time></trkpt><trkpt lat="46.024701569033205" lon="12.278694579304352"><ele>621.0</ele><time>2026-03-29T09:59:52.001Z</time></trkpt><trkpt lat="46.024832876353265" lon="12.278574938687466"><ele>621.0</ele><time>2026-03-29T09:59:53.001Z</time></trkpt><trkpt lat="46.024956831439425" lon="12.278464787769366"><ele>621.0</ele><time>2026-03-29T09:59:54.001Z</time></trkpt><trkpt lat="46.025075231379894" lon="12.278345450724863"><ele>621.0</ele><time>2026-03-29T09:59:55.001Z</time></trkpt><trkpt lat="46.02518060821189" lon="12.27820795510634"><ele>621.0</ele><time>2026-03-29T09:59:56.001Z</time></trkpt><trkpt lat="46.02528484027753" lon="12.278061896148484"><ele>626.0</ele><time>2026-03-29T09:59:57.001Z</time></trkpt><trkpt lat="46.02538855153511" lon="12.277906099451393"><ele>631.0</ele><time>2026-03-29T09:59:58.001Z</time></trkpt><trkpt lat="46.025505166539716" lon="12.277768157774172"><ele>636.0</ele><time>2026-03-29T09:59:59.001Z</time></trkpt><trkpt lat="46.025587975196586" lon="12.277610782345949"><ele>641.0</ele><time>2026-03-29T10:00:00.001Z</time></trkpt><trkpt lat="46.02566699034603" lon="12.277485802233945"><ele>641.0</ele><time>2026-03-29T10:00:01.001Z</time></trkpt><trkpt lat="46.02573438990869" lon="12.277366886198259"><ele>641.0</ele><time>2026-03-29T10:00:02.001Z</time></trkpt><trkpt lat="46.025801950252344" lon="12.277249603453441"><ele>641.0</ele><time>2026-03-29T10:00:03.001Z</time></trkpt><trkpt lat="46.02584871250568" lon="12.277092447626773"><ele>641.0</ele><time>2026-03-29T10:00:04.001Z</time></trkpt><trkpt lat="46.0258979655772" lon="12.276929844140057"><ele>643.0</ele><time>2026-03-29T10:00:05.001Z</time></trkpt><trkpt lat="46.02597606951673" lon="12.276764971340185"><ele>645.0</ele><time>2026-03-29T10:00:06.001Z</time></trkpt><trkpt lat="46.02607293402316" lon="12.276609754484205"><ele>647.0</ele><time>2026-03-29T10:00:07.001Z</time></trkpt><trkpt lat="46.026168506403984" lon="12.276481982120776"><ele>649.0</ele><time>2026-03-29T10:00:08.001Z</time></trkpt><trkpt lat="46.0262389085156" lon="12.276398921908987"><ele>649.0</ele><time>2026-03-29T10:00:09.001Z</time></trkpt><trkpt lat="46.0263106776319" lon="12.276303710396583"><ele>649.0</ele><time>2026-03-29T10:00:10.001Z</time></trkpt><trkpt lat="46.026398082975355" lon="12.276248957688287"><ele>649.0</ele><time>2026-03-29T10:00:11.001Z</time></trkpt><trkpt lat="46.02647616201055" lon="12.276182111859583"><ele>649.0</ele><time>2026-03-29T10:00:12.001Z</time></trkpt><trkpt lat="46.02653183740191" lon="12.276092170304477"><ele>649.0</ele><time>2026-03-29T10:00:13.001Z</time></trkpt><trkpt lat="46.02656029617636" lon="12.275959738962307"><ele>649.0</ele><time>2026-03-29T10:00:14.001Z</time></trkpt><trkpt lat="46.0265666982795" lon="12.275786382565277"><ele>649.0</ele><time>2026-03-29T10:00:15.001Z</time></trkpt><trkpt lat="46.026571295135994" lon="12.27560880861231"><ele>649.0</ele><time>2026-03-29T10:00:16.001Z</time></trkpt><trkpt lat="46.02661204936489" lon="12.275458604494673"><ele>649.0</ele><time>2026-03-29T10:00:17.001Z</time></trkpt><trkpt lat="46.026633789981176" lon="12.275340058486842"><ele>649.0</ele><time>2026-03-29T10:00:18.001Z</time></trkpt><trkpt lat="46.026703539055354" lon="12.275252077902149"><ele>649.0</ele><time>2026-03-29T10:00:19.001Z</time></trkpt><trkpt lat="46.0267965441807" lon="12.2751953095334"><ele>649.0</ele><time>2026-03-29T10:00:20.001Z</time></trkpt><trkpt lat="46.02690639750708" lon="12.275167316740307"><ele>649.0</ele><time>2026-03-29T10:00:21.001Z</time></trkpt><trkpt lat="46.02703101419983" lon="12.275185980980128"><ele>649.0</ele><time>2026-03-29T10:00:22.001Z</time></trkpt><trkpt lat="46.02715283366196" lon="12.275171847426485"><ele>649.0</ele><time>2026-03-29T10:00:23.001Z</time></trkpt><trkpt lat="46.027273044656674" lon="12.275168972063328"><ele>649.0</ele><time>2026-03-29T10:00:24.001Z</time></trkpt><trkpt lat="46.027376228246425" lon="12.275143069019874"><ele>649.0</ele><time>2026-03-29T10:00:25.001Z</time></trkpt><trkpt lat="46.0274598244284" lon="12.275108851164271"><ele>649.0</ele><time>2026-03-29T10:00:26.001Z</time></trkpt><trkpt lat="46.027534219240955" lon="12.275105453322219"><ele>649.0</ele><time>2026-03-29T10:00:27.001Z</time></trkpt><trkpt lat="46.02758645770869" lon="12.275172121218906"><ele>648.2</ele><time>2026-03-29T10:00:28.001Z</time></trkpt><trkpt lat="46.027620861794865" lon="12.275273920596515"><ele>647.4000000000001</ele><time>2026-03-29T10:00:29.002Z</time></trkpt><trkpt lat="46.02761677507904" lon="12.275407275577521"><ele>646.6</ele><time>2026-03-29T10:00:30.002Z</time></trkpt><trkpt lat="46.02765311460755" lon="12.275543992648517"><ele>645.8</ele><time>2026-03-29T10:00:31.002Z</time></trkpt><trkpt lat="46.027707481943025" lon="12.275695091480275"><ele>645.0</ele><time>2026-03-29T10:00:32.002Z</time></trkpt><trkpt lat="46.027787283746875" lon="12.275844606937001"><ele>642.8</ele><time>2026-03-29T10:00:33.002Z</time></trkpt><trkpt lat="46.02786831225049" lon="12.275994824410494"><ele>640.6</ele><time>2026-03-29T10:00:34.002Z</time></trkpt><trkpt lat="46.02793998855063" lon="12.276136005034969"><ele>638.4</ele><time>2026-03-29T10:00:35.002Z</time></trkpt><trkpt lat="46.02799940778745" lon="12.276258375656676"><ele>636.2</ele><time>2026-03-29T10:00:36.002Z</time></trkpt><trkpt lat="46.02804342137473" lon="12.276361372586214"><ele>634.0</ele><time>2026-03-29T10:00:37.002Z</time></trkpt><trkpt lat="46.0281374084906" lon="12.276452297460295"><ele>636.0</ele><time>2026-03-29T10:00:39.002Z</time></trkpt><trkpt lat="46.028212409280826" lon="12.276453676862586"><ele>638.0</ele><time>2026-03-29T10:00:40.002Z</time></trkpt><trkpt lat="46.02828931861655" lon="12.276474016106059"><ele>640.0</ele><time>2026-03-29T10:00:41.002Z</time></trkpt><trkpt lat="46.02835864323408" lon="12.276517784677564"><ele>642.0</ele><time>2026-03-29T10:00:42.002Z</time></trkpt><trkpt lat="46.02839316566684" lon="12.276618197672109"><ele>644.0</ele><time>2026-03-29T10:00:43.002Z</time></trkpt><trkpt lat="46.0284320024949" lon="12.276711579180478"><ele>646.0</ele><time>2026-03-29T10:00:44.002Z</time></trkpt><trkpt lat="46.02846271713161" lon="12.276817150538808"><ele>646.0</ele><time>2026-03-29T10:00:45.002Z</time></trkpt><trkpt lat="46.02849964543133" lon="12.276927994004243"><ele>646.0</ele><time>2026-03-29T10:00:46.002Z</time></trkpt><trkpt lat="46.02854500451721" lon="12.277005426207927"><ele>646.0</ele><time>2026-03-29T10:00:47.002Z</time></trkpt><trkpt lat="46.02861985739117" lon="12.277119806917023"><ele>646.0</ele><time>2026-03-29T10:00:49.002Z</time></trkpt><trkpt lat="46.02864624502983" lon="12.277209016929838"><ele>646.0</ele><time>2026-03-29T10:00:50.002Z</time></trkpt><trkpt lat="46.028684365938695" lon="12.277300021275991"><ele>646.0</ele><time>2026-03-29T10:00:51.002Z</time></trkpt><trkpt lat="46.02870581335665" lon="12.277402420524478"><ele>643.1666666666667</ele><time>2026-03-29T10:00:52.002Z</time></trkpt><trkpt lat="46.02873195546282" lon="12.277500395539791"><ele>640.3333333333334</ele><time>2026-03-29T10:00:53.002Z</time></trkpt><trkpt lat="46.02877244437487" lon="12.277594594355493"><ele>637.5</ele><time>2026-03-29T10:00:54.002Z</time></trkpt><trkpt lat="46.02881217743131" lon="12.277670868514717"><ele>634.6666666666666</ele><time>2026-03-29T10:00:55.002Z</time></trkpt><trkpt lat="46.0288657383768" lon="12.277720129080347"><ele>631.8333333333333</ele><time>2026-03-29T10:00:56Z</time></trkpt><trkpt lat="46.02894977775703" lon="12.277767659096112"><ele>629.0</ele><time>2026-03-29T10:00:57Z</time></trkpt><trkpt lat="46.02904353922538" lon="12.27785291306527"><ele>629.0</ele><time>2026-03-29T10:00:59Z</time></trkpt><trkpt lat="46.02904061559483" lon="12.278001920712853"><ele>629.0</ele><time>2026-03-29T10:01:01Z</time></trkpt><trkpt lat="46.028991741747696" lon="12.278067926193176"><ele>629.0</ele><time>2026-03-29T10:01:02Z</time></trkpt><trkpt lat="46.02892154261149" lon="12.27812883579386"><ele>629.0</ele><time>2026-03-29T10:01:03Z</time></trkpt><trkpt lat="46.02884352012421" lon="12.278185361259203"><ele>629.0</ele><time>2026-03-29T10:01:04Z</time></trkpt><trkpt lat="46.02877409629222" lon="12.278234886261016"><ele>629.0</ele><time>2026-03-29T10:01:05Z</time></trkpt><trkpt lat="46.02872693875371" lon="12.278304980481446"><ele>627.8333333333333</ele><time>2026-03-29T10:01:06Z</time></trkpt><trkpt lat="46.02869471275884" lon="12.27839102096527"><ele>626.6666666666666</ele><time>2026-03-29T10:01:07Z</time></trkpt><trkpt lat="46.028681049472176" lon="12.27848194646184"><ele>625.5</ele><time>2026-03-29T10:01:08Z</time></trkpt><trkpt lat="46.02871060342224" lon="12.278650262034017"><ele>624.3333333333334</ele><time>2026-03-29T10:01:10Z</time></trkpt><trkpt lat="46.0287715302509" lon="12.27872274724034"><ele>623.1666666666667</ele><time>2026-03-29T10:01:11Z</time></trkpt><trkpt lat="46.02885243903307" lon="12.278743217718494"><ele>622.0</ele><time>2026-03-29T10:01:12Z</time></trkpt><trkpt lat="46.02891963714301" lon="12.278773476999037"><ele>622.0</ele><time>2026-03-29T10:01:13Z</time></trkpt><trkpt lat="46.02897737622561" lon="12.27882601818181"><ele>622.0</ele><time>2026-03-29T10:01:14Z</time></trkpt><trkpt lat="46.02905806144474" lon="12.27894543646571"><ele>622.0</ele><time>2026-03-29T10:01:16Z</time></trkpt><trkpt lat="46.02909419167258" lon="12.279028547229762"><ele>622.0</ele><time>2026-03-29T10:01:17Z</time></trkpt><trkpt lat="46.02912454344952" lon="12.279117332062738"><ele>622.0</ele><time>2026-03-29T10:01:18Z</time></trkpt><trkpt lat="46.029151283631975" lon="12.279214092902992"><ele>622.0</ele><time>2026-03-29T10:01:19Z</time></trkpt><trkpt lat="46.029174050506036" lon="12.27931321626258"><ele>623.5</ele><time>2026-03-29T10:01:20Z</time></trkpt><trkpt lat="46.02919055664071" lon="12.279411206385412"><ele>625.0</ele><time>2026-03-29T10:01:21Z</time></trkpt><trkpt lat="46.02919372381393" lon="12.279521131614517"><ele>626.5</ele><time>2026-03-29T10:01:22Z</time></trkpt><trkpt lat="46.02920854819112" lon="12.279649720524665"><ele>628.0</ele><time>2026-03-29T10:01:23Z</time></trkpt><trkpt lat="46.029212097471316" lon="12.279774620420529"><ele>629.5</ele><time>2026-03-29T10:01:24Z</time></trkpt><trkpt lat="46.02920647183213" lon="12.279894676407043"><ele>631.0</ele><time>2026-03-29T10:01:25Z</time></trkpt><trkpt lat="46.029252365904185" lon="12.280018263554231"><ele>631.0</ele><time>2026-03-29T10:01:26Z</time></trkpt><trkpt lat="46.02931446740823" lon="12.28012162888262"><ele>631.0</ele><time>2026-03-29T10:01:27Z</time></trkpt><trkpt lat="46.029387978815556" lon="12.280214994155855"><ele>631.0</ele><time>2026-03-29T10:01:28Z</time></trkpt><trkpt lat="46.0294690889001" lon="12.280297870960677"><ele>631.0</ele><time>2026-03-29T10:01:29Z</time></trkpt><trkpt lat="46.02955405442655" lon="12.280369414052595"><ele>631.0</ele><time>2026-03-29T10:01:30Z</time></trkpt><trkpt lat="46.0296342628018" lon="12.280434698814588"><ele>631.0</ele><time>2026-03-29T10:01:31Z</time></trkpt><trkpt lat="46.02968681177472" lon="12.28051107305539"><ele>631.0</ele><time>2026-03-29T10:01:32.001Z</time></trkpt><trkpt lat="46.029722359422585" lon="12.280594506106313"><ele>631.0</ele><time>2026-03-29T10:01:33.001Z</time></trkpt><trkpt lat="46.02972902737296" lon="12.280689202631246"><ele>631.0</ele><time>2026-03-29T10:01:34.001Z</time></trkpt><trkpt lat="46.02974038856119" lon="12.28079700702517"><ele>631.0</ele><time>2026-03-29T10:01:35.001Z</time></trkpt><trkpt lat="46.02975119361134" lon="12.28091134007772"><ele>631.0</ele><time>2026-03-29T10:01:36.001Z</time></trkpt><trkpt lat="46.02975542326359" lon="12.281032864717593"><ele>631.0</ele><time>2026-03-29T10:01:37.001Z</time></trkpt><trkpt lat="46.02974066008134" lon="12.281155038460948"><ele>629.5</ele><time>2026-03-29T10:01:38.001Z</time></trkpt><trkpt lat="46.02970659647535" lon="12.281281444817619"><ele>628.0</ele><time>2026-03-29T10:01:39.001Z</time></trkpt><trkpt lat="46.02966150876174" lon="12.281417759053173"><ele>626.5</ele><time>2026-03-29T10:01:40.001Z</time></trkpt><trkpt lat="46.029634843338094" lon="12.281577518493751"><ele>625.0</ele><time>2026-03-29T10:01:41.001Z</time></trkpt><trkpt lat="46.02962475532423" lon="12.281777243962846"><ele>625.0</ele><time>2026-03-29T10:01:42.001Z</time></trkpt><trkpt lat="46.029623350019754" lon="12.282014140725645"><ele>625.0</ele><time>2026-03-29T10:01:43.001Z</time></trkpt><trkpt lat="46.029604416738486" lon="12.282279674251894"><ele>625.0</ele><time>2026-03-29T10:01:44.001Z</time></trkpt><trkpt lat="46.0295801554478" lon="12.282531281042452"><ele>625.0</ele><time>2026-03-29T10:01:45.001Z</time></trkpt><trkpt lat="46.02956467812899" lon="12.282745482037075"><ele>625.0</ele><time>2026-03-29T10:01:46.001Z</time></trkpt><trkpt lat="46.02954920427182" lon="12.282932057152575"><ele>625.0</ele><time>2026-03-29T10:01:47.001Z</time></trkpt><trkpt lat="46.029536702760474" lon="12.283098475914747"><ele>625.0</ele><time>2026-03-29T10:01:48.001Z</time></trkpt><trkpt lat="46.02952936755821" lon="12.283257645284758"><ele>625.5</ele><time>2026-03-29T10:01:49.001Z</time></trkpt><trkpt lat="46.02955261570409" lon="12.283436426952557"><ele>626.0</ele><time>2026-03-29T10:01:50.001Z</time></trkpt><trkpt lat="46.02960031637798" lon="12.283625933391473"><ele>626.5</ele><time>2026-03-29T10:01:51.001Z</time></trkpt><trkpt lat="46.02965959509835" lon="12.283839645052607"><ele>627.0</ele><time>2026-03-29T10:01:52.001Z</time></trkpt><trkpt lat="46.029703665972235" lon="12.284045544069654"><ele>625.75</ele><time>2026-03-29T10:01:53.001Z</time></trkpt><trkpt lat="46.029739519755914" lon="12.284209929262056"><ele>624.5</ele><time>2026-03-29T10:01:54.001Z</time></trkpt><trkpt lat="46.029784009699036" lon="12.28434353188828"><ele>623.25</ele><time>2026-03-29T10:01:55.001Z</time></trkpt><trkpt lat="46.02986030633731" lon="12.284469816965068"><ele>622.0</ele><time>2026-03-29T10:01:56.001Z</time></trkpt><trkpt lat="46.02996114124471" lon="12.284591612080293"><ele>627.5</ele><time>2026-03-29T10:01:57.001Z</time></trkpt><trkpt lat="46.03008401556852" lon="12.284705034238707"><ele>633.0</ele><time>2026-03-29T10:01:58.001Z</time></trkpt><trkpt lat="46.03020863642292" lon="12.284802713000822"><ele>638.5</ele><time>2026-03-29T10:01:59.001Z</time></trkpt><trkpt lat="46.03033071472671" lon="12.284896048855398"><ele>644.0</ele><time>2026-03-29T10:02:00.001Z</time></trkpt><trkpt lat="46.03045047206602" lon="12.284971135148231"><ele>644.0</ele><time>2026-03-29T10:02:01.001Z</time></trkpt><trkpt lat="46.03057113049809" lon="12.28502528112235"><ele>644.0</ele><time>2026-03-29T10:02:02.001Z</time></trkpt><trkpt lat="46.03069121620815" lon="12.28506261865741"><ele>644.0</ele><time>2026-03-29T10:02:03.001Z</time></trkpt><trkpt lat="46.03079889738286" lon="12.285092601317833"><ele>644.0</ele><time>2026-03-29T10:02:04.001Z</time></trkpt><trkpt lat="46.030892000131594" lon="12.285095496226974"><ele>644.0</ele><time>2026-03-29T10:02:05.001Z</time></trkpt><trkpt lat="46.030973563423736" lon="12.285119020865702"><ele>644.0</ele><time>2026-03-29T10:02:07.001Z</time></trkpt><trkpt lat="46.030940747009616" lon="12.284852169319782"><ele>644.0</ele><time>2026-03-29T10:02:10.001Z</time></trkpt><trkpt lat="46.030832254598565" lon="12.284844706021472"><ele>644.0</ele><time>2026-03-29T10:02:11.001Z</time></trkpt><trkpt lat="46.030723921035865" lon="12.284846107223352"><ele>644.0</ele><time>2026-03-29T10:02:12.001Z</time></trkpt><trkpt lat="46.03060705002935" lon="12.284832264822636"><ele>644.0</ele><time>2026-03-29T10:02:13.001Z</time></trkpt><trkpt lat="46.03048780653997" lon="12.284764986453428"><ele>644.0</ele><time>2026-03-29T10:02:14.001Z</time></trkpt><trkpt lat="46.030347364470465" lon="12.284644580089616"><ele>644.0</ele><time>2026-03-29T10:02:15.001Z</time></trkpt><trkpt lat="46.03023154075328" lon="12.284483397266888"><ele>649.5</ele><time>2026-03-29T10:02:16.001Z</time></trkpt><trkpt lat="46.03015125063042" lon="12.284322875189853"><ele>655.0</ele><time>2026-03-29T10:02:17.001Z</time></trkpt><trkpt lat="46.03008975284104" lon="12.284151606667676"><ele>660.5</ele><time>2026-03-29T10:02:18.001Z</time></trkpt><trkpt lat="46.03005078878907" lon="12.283966785917288"><ele>666.0</ele><time>2026-03-29T10:02:19.001Z</time></trkpt><trkpt lat="46.030032759652826" lon="12.283778113314227"><ele>668.0</ele><time>2026-03-29T10:02:20.001Z</time></trkpt><trkpt lat="46.0300233448761" lon="12.283539315051373"><ele>670.0</ele><time>2026-03-29T10:02:21.001Z</time></trkpt><trkpt lat="46.03003300176383" lon="12.283276489724306"><ele>672.0</ele><time>2026-03-29T10:02:22.001Z</time></trkpt><trkpt lat="46.03006222753439" lon="12.28304106109522"><ele>672.0</ele><time>2026-03-29T10:02:23.001Z</time></trkpt><trkpt lat="46.030103298148774" lon="12.282852613481385"><ele>672.0</ele><time>2026-03-29T10:02:24.001Z</time></trkpt><trkpt lat="46.030155041455814" lon="12.282714397289004"><ele>672.0</ele><time>2026-03-29T10:02:25.001Z</time></trkpt><trkpt lat="46.0302184302511" lon="12.282621170738285"><ele>672.0</ele><time>2026-03-29T10:02:26.001Z</time></trkpt><trkpt lat="46.030294478852056" lon="12.282569282653272"><ele>672.0</ele><time>2026-03-29T10:02:27.001Z</time></trkpt><trkpt lat="46.03039884987916" lon="12.282525532905833"><ele>672.0</ele><time>2026-03-29T10:02:28.001Z</time></trkpt><trkpt lat="46.03051734680806" lon="12.282411076664694"><ele>672.0</ele><time>2026-03-29T10:02:29.001Z</time></trkpt><trkpt lat="46.0305871554715" lon="12.282225713704891"><ele>672.0</ele><time>2026-03-29T10:02:30.001Z</time></trkpt><trkpt lat="46.03065342629667" lon="12.282014966586237"><ele>668.3333333333334</ele><time>2026-03-29T10:02:31.001Z</time></trkpt><trkpt lat="46.03071976434412" lon="12.28176185878931"><ele>664.6666666666667</ele><time>2026-03-29T10:02:32.002Z</time></trkpt><trkpt lat="46.03078552816667" lon="12.281471912010591"><ele>661.0</ele><time>2026-03-29T10:02:33.002Z</time></trkpt><trkpt lat="46.030841980859535" lon="12.281157780228682"><ele>683.0</ele><time>2026-03-29T10:02:34.002Z</time></trkpt><trkpt lat="46.0308994655244" lon="12.280828494374672"><ele>705.0</ele><time>2026-03-29T10:02:35.002Z</time></trkpt><trkpt lat="46.030953866085284" lon="12.280484317439111"><ele>705.0</ele><time>2026-03-29T10:02:36.002Z</time></trkpt><trkpt lat="46.03100986791589" lon="12.280144150306201"><ele>705.0</ele><time>2026-03-29T10:02:37.002Z</time></trkpt><trkpt lat="46.031074971560464" lon="12.279815320175011"><ele>706.0</ele><time>2026-03-29T10:02:38.002Z</time></trkpt><trkpt lat="46.03113261127567" lon="12.279469079817922"><ele>707.0</ele><time>2026-03-29T10:02:39.002Z</time></trkpt><trkpt lat="46.031172483054306" lon="12.279126003888571"><ele>711.6666666666666</ele><time>2026-03-29T10:02:40.002Z</time></trkpt><trkpt lat="46.0312001103287" lon="12.278832223369898"><ele>716.3333333333334</ele><time>2026-03-29T10:02:41.002Z</time></trkpt><trkpt lat="46.031208932450106" lon="12.278601524831288"><ele>721.0</ele><time>2026-03-29T10:02:42.002Z</time></trkpt><trkpt lat="46.03121496911245" lon="12.278406055049462"><ele>721.0</ele><time>2026-03-29T10:02:43.002Z</time></trkpt><trkpt lat="46.03119150675134" lon="12.27824442290786"><ele>721.0</ele><time>2026-03-29T10:02:44.002Z</time></trkpt><trkpt lat="46.03114207905936" lon="12.278083256992764"><ele>721.0</ele><time>2026-03-29T10:02:45.002Z</time></trkpt><trkpt lat="46.03107030643823" lon="12.277915636820591"><ele>721.0</ele><time>2026-03-29T10:02:46.002Z</time></trkpt><trkpt lat="46.03099965487743" lon="12.277755629210828"><ele>723.0</ele><time>2026-03-29T10:02:47.002Z</time></trkpt><trkpt lat="46.03094942481764" lon="12.27762425148075"><ele>725.0</ele><time>2026-03-29T10:02:48.002Z</time></trkpt><trkpt lat="46.03093371081575" lon="12.277474281648416"><ele>727.0</ele><time>2026-03-29T10:02:49.002Z</time></trkpt><trkpt lat="46.030954075083855" lon="12.27726971720608"><ele>729.0</ele><time>2026-03-29T10:02:50.002Z</time></trkpt><trkpt lat="46.03095297818077" lon="12.277060070518"><ele>731.0</ele><time>2026-03-29T10:02:51.002Z</time></trkpt><trkpt lat="46.030976850301606" lon="12.276880886794254"><ele>733.0</ele><time>2026-03-29T10:02:52.002Z</time></trkpt><trkpt lat="46.030980667920225" lon="12.276737210921002"><ele>735.0</ele><time>2026-03-29T10:02:53.002Z</time></trkpt><trkpt lat="46.03093620138074" lon="12.276590795534887"><ele>737.0</ele><time>2026-03-29T10:02:54.002Z</time></trkpt><trkpt lat="46.03087236004799" lon="12.276411979636626"><ele>733.0</ele><time>2026-03-29T10:02:55.002Z</time></trkpt><trkpt lat="46.03079317092954" lon="12.27620929116282"><ele>729.0</ele><time>2026-03-29T10:02:56.002Z</time></trkpt><trkpt lat="46.03070865726455" lon="12.275992974246817"><ele>725.0</ele><time>2026-03-29T10:02:57.002Z</time></trkpt><trkpt lat="46.0305914666321" lon="12.275771177990642"><ele>728.3333333333333</ele><time>2026-03-29T10:02:58.002Z</time></trkpt><trkpt lat="46.03052962336264" lon="12.27548436525071"><ele>731.6666666666666</ele><time>2026-03-29T10:02:59.002Z</time></trkpt><trkpt lat="46.03046810267911" lon="12.27516924813353"><ele>735.0</ele><time>2026-03-29T10:03:00.002Z</time></trkpt><trkpt lat="46.03041556636949" lon="12.274831841507824"><ele>737.6666666666666</ele><time>2026-03-29T10:03:01.002Z</time></trkpt><trkpt lat="46.030357551664935" lon="12.27453665285781"><ele>740.3333333333333</ele><time>2026-03-29T10:03:02Z</time></trkpt><trkpt lat="46.030299409379694" lon="12.274296389585478"><ele>743.0</ele><time>2026-03-29T10:03:03Z</time></trkpt><trkpt lat="46.03026814746344" lon="12.274075863505686"><ele>746.6666666666666</ele><time>2026-03-29T10:03:04Z</time></trkpt><trkpt lat="46.03027367144856" lon="12.273848688493482"><ele>750.3333333333334</ele><time>2026-03-29T10:03:05Z</time></trkpt><trkpt lat="46.030249847574105" lon="12.273618516591545"><ele>754.0</ele><time>2026-03-29T10:03:06Z</time></trkpt><trkpt lat="46.030229723527434" lon="12.273422611829966"><ele>754.0</ele><time>2026-03-29T10:03:07Z</time></trkpt><trkpt lat="46.03018723404929" lon="12.273245680535197"><ele>754.0</ele><time>2026-03-29T10:03:08Z</time></trkpt><trkpt lat="46.03010803623155" lon="12.273093509839423"><ele>754.0</ele><time>2026-03-29T10:03:09Z</time></trkpt><trkpt lat="46.030007571499645" lon="12.272949223001644"><ele>754.0</ele><time>2026-03-29T10:03:10Z</time></trkpt><trkpt lat="46.02989987177842" lon="12.27280839997382"><ele>755.6666666666667</ele><time>2026-03-29T10:03:11Z</time></trkpt><trkpt lat="46.02984172835102" lon="12.27263240368574"><ele>757.3333333333334</ele><time>2026-03-29T10:03:12Z</time></trkpt><trkpt lat="46.02978655609469" lon="12.27242928972375"><ele>759.0</ele><time>2026-03-29T10:03:13Z</time></trkpt><trkpt lat="46.0297181264208" lon="12.27216372356021"><ele>759.0</ele><time>2026-03-29T10:03:14Z</time></trkpt><trkpt lat="46.02963509034753" lon="12.271887403766168"><ele>759.0</ele><time>2026-03-29T10:03:15Z</time></trkpt><trkpt lat="46.029580722332035" lon="12.271620117439658"><ele>759.0</ele><time>2026-03-29T10:03:16Z</time></trkpt><trkpt lat="46.0295582862699" lon="12.27138949455095"><ele>764.6</ele><time>2026-03-29T10:03:17Z</time></trkpt><trkpt lat="46.02953599888285" lon="12.271185004761929"><ele>770.2</ele><time>2026-03-29T10:03:18Z</time></trkpt><trkpt lat="46.02950145387993" lon="12.27104118921367"><ele>775.8000000000001</ele><time>2026-03-29T10:03:19Z</time></trkpt><trkpt lat="46.029453193389145" lon="12.270944443799992"><ele>781.4000000000001</ele><time>2026-03-29T10:03:20Z</time></trkpt><trkpt lat="46.02937352096066" lon="12.270899802918487"><ele>787.0</ele><time>2026-03-29T10:03:21Z</time></trkpt><trkpt lat="46.02927350443324" lon="12.270944183391439"><ele>787.0</ele><time>2026-03-29T10:03:22Z</time></trkpt><trkpt lat="46.029163437119394" lon="12.271008314840536"><ele>787.0</ele><time>2026-03-29T10:03:23Z</time></trkpt><trkpt lat="46.029032546357065" lon="12.271106311470618"><ele>787.0</ele><time>2026-03-29T10:03:24Z</time></trkpt><trkpt lat="46.02891042349465" lon="12.271174102699817"><ele>787.0</ele><time>2026-03-29T10:03:25Z</time></trkpt><trkpt lat="46.02882212852606" lon="12.2711906510387"><ele>786.6</ele><time>2026-03-29T10:03:26Z</time></trkpt><trkpt lat="46.02874691914816" lon="12.27120071328786"><ele>786.2</ele><time>2026-03-29T10:03:27Z</time></trkpt><trkpt lat="46.02863348276289" lon="12.27116276142583"><ele>785.8</ele><time>2026-03-29T10:03:29Z</time></trkpt><trkpt lat="46.02855690016653" lon="12.27112846359172"><ele>785.4</ele><time>2026-03-29T10:03:30Z</time></trkpt><trkpt lat="46.0284389290198" lon="12.271057293366525"><ele>785.0</ele><time>2026-03-29T10:03:31Z</time></trkpt><trkpt lat="46.028272050471855" lon="12.27096928852535"><ele>785.0</ele><time>2026-03-29T10:03:32Z</time></trkpt><trkpt lat="46.02810370123671" lon="12.27083181435573"><ele>785.0</ele><time>2026-03-29T10:03:33Z</time></trkpt><trkpt lat="46.027903295157074" lon="12.270724104414578"><ele>785.0</ele><time>2026-03-29T10:03:34Z</time></trkpt><trkpt lat="46.02770246826196" lon="12.270632547392161"><ele>796.6666666666667</ele><time>2026-03-29T10:03:35Z</time></trkpt><trkpt lat="46.027509661122714" lon="12.270548707260906"><ele>808.3333333333333</ele><time>2026-03-29T10:03:36Z</time></trkpt><trkpt lat="46.027346829795746" lon="12.270465550066998"><ele>820.0</ele><time>2026-03-29T10:03:37Z</time></trkpt><trkpt lat="46.027198005827515" lon="12.270406223993222"><ele>823.6666666666666</ele><time>2026-03-29T10:03:38Z</time></trkpt><trkpt lat="46.02704848689703" lon="12.270365459209524"><ele>827.3333333333333</ele><time>2026-03-29T10:03:39Z</time></trkpt><trkpt lat="46.02689653776427" lon="12.270362202930329"><ele>831.0</ele><time>2026-03-29T10:03:40Z</time></trkpt><trkpt lat="46.02673391954088" lon="12.2703937951839"><ele>830.0</ele><time>2026-03-29T10:03:41Z</time></trkpt><trkpt lat="46.02657182690438" lon="12.27045920588286"><ele>829.0</ele><time>2026-03-29T10:03:42Z</time></trkpt><trkpt lat="46.02639861344649" lon="12.270553518025132"><ele>828.0</ele><time>2026-03-29T10:03:43Z</time></trkpt><trkpt lat="46.02622925869848" lon="12.270658631252067"><ele>828.0</ele><time>2026-03-29T10:03:44.001Z</time></trkpt><trkpt lat="46.02606999863779" lon="12.270788829723532"><ele>828.0</ele><time>2026-03-29T10:03:45.001Z</time></trkpt><trkpt lat="46.02593058239633" lon="12.270940082198248"><ele>828.0</ele><time>2026-03-29T10:03:46.001Z</time></trkpt><trkpt lat="46.025793644657874" lon="12.271116425464129"><ele>828.0</ele><time>2026-03-29T10:03:47.001Z</time></trkpt><trkpt lat="46.02565090283063" lon="12.271323965370039"><ele>828.0</ele><time>2026-03-29T10:03:48.001Z</time></trkpt><trkpt lat="46.025499909179224" lon="12.271542047135084"><ele>828.0</ele><time>2026-03-29T10:03:49.001Z</time></trkpt><trkpt lat="46.02537214478875" lon="12.271724918158453"><ele>828.0</ele><time>2026-03-29T10:03:50.001Z</time></trkpt><trkpt lat="46.025247028287886" lon="12.271885996016437"><ele>828.0</ele><time>2026-03-29T10:03:51.001Z</time></trkpt><trkpt lat="46.025098804342605" lon="12.272035033265269"><ele>828.0</ele><time>2026-03-29T10:03:52.001Z</time></trkpt><trkpt lat="46.024923571099755" lon="12.272201609746585"><ele>820.75</ele><time>2026-03-29T10:03:53.001Z</time></trkpt><trkpt lat="46.024770714532785" lon="12.272348513088312"><ele>813.5</ele><time>2026-03-29T10:03:54.001Z</time></trkpt><trkpt lat="46.024650484957114" lon="12.27247339094265"><ele>806.25</ele><time>2026-03-29T10:03:55.001Z</time></trkpt><trkpt lat="46.024559765597886" lon="12.272574913643986"><ele>799.0</ele><time>2026-03-29T10:03:56.001Z</time></trkpt><trkpt lat="46.02450309906203" lon="12.272623641581719"><ele>799.0</ele><time>2026-03-29T10:03:57.001Z</time></trkpt><trkpt lat="46.02444493849806" lon="12.272569481776417"><ele>799.0</ele><time>2026-03-29T10:03:59.001Z</time></trkpt><trkpt lat="46.024460074371724" lon="12.27247264798095"><ele>799.0</ele><time>2026-03-29T10:04:00.001Z</time></trkpt><trkpt lat="46.02451722934588" lon="12.272397070386146"><ele>799.0</ele><time>2026-03-29T10:04:01.001Z</time></trkpt><trkpt lat="46.0246270259485" lon="12.272343277958722"><ele>799.0</ele><time>2026-03-29T10:04:02.001Z</time></trkpt><trkpt lat="46.02475363793318" lon="12.272218815699173"><ele>804.3333333333333</ele><time>2026-03-29T10:04:03.001Z</time></trkpt><trkpt lat="46.0248963054275" lon="12.272078979446974"><ele>809.6666666666667</ele><time>2026-03-29T10:04:04.001Z</time></trkpt><trkpt lat="46.02503379530212" lon="12.27190559234726"><ele>815.0</ele><time>2026-03-29T10:04:05.001Z</time></trkpt><trkpt lat="46.025163290224064" lon="12.271709720182711"><ele>819.3333333333334</ele><time>2026-03-29T10:04:06.001Z</time></trkpt><trkpt lat="46.02528374165788" lon="12.271504263039526"><ele>823.6666666666667</ele><time>2026-03-29T10:04:07.001Z</time></trkpt><trkpt lat="46.025389137124684" lon="12.271278932286757"><ele>828.0</ele><time>2026-03-29T10:04:08.001Z</time></trkpt><trkpt lat="46.02547373580643" lon="12.271017492098704"><ele>838.6666666666667</ele><time>2026-03-29T10:04:09.001Z</time></trkpt><trkpt lat="46.02555434027815" lon="12.270729859833722"><ele>849.3333333333334</ele><time>2026-03-29T10:04:10.001Z</time></trkpt><trkpt lat="46.025674685601565" lon="12.270474235425697"><ele>860.0</ele><time>2026-03-29T10:04:11.001Z</time></trkpt><trkpt lat="46.02579594113522" lon="12.270241408976755"><ele>860.6666666666667</ele><time>2026-03-29T10:04:12.001Z</time></trkpt><trkpt lat="46.025906371787556" lon="12.27001645057611"><ele>861.3333333333333</ele><time>2026-03-29T10:04:13.001Z</time></trkpt><trkpt lat="46.026044152052755" lon="12.2698306597421"><ele>862.0</ele><time>2026-03-29T10:04:14.001Z</time></trkpt><trkpt lat="46.026189260081914" lon="12.269659096341785"><ele>873.3333333333333</ele><time>2026-03-29T10:04:15.001Z</time></trkpt><trkpt lat="46.026340636216595" lon="12.269497813837491"><ele>884.6666666666667</ele><time>2026-03-29T10:04:16.001Z</time></trkpt><trkpt lat="46.026485220794335" lon="12.269343158444709"><ele>896.0</ele><time>2026-03-29T10:04:17.001Z</time></trkpt><trkpt lat="46.02661091544083" lon="12.269219670438416"><ele>889.0</ele><time>2026-03-29T10:04:18.001Z</time></trkpt><trkpt lat="46.02672052828768" lon="12.269136623544934"><ele>882.0</ele><time>2026-03-29T10:04:19.001Z</time></trkpt><trkpt lat="46.02682874273264" lon="12.269103826156066"><ele>875.0</ele><time>2026-03-29T10:04:20.001Z</time></trkpt><trkpt lat="46.0269492452348" lon="12.269105399388556"><ele>868.0</ele><time>2026-03-29T10:04:21.001Z</time></trkpt><trkpt lat="46.02709090085598" lon="12.269113216906959"><ele>868.0</ele><time>2026-03-29T10:04:22.001Z</time></trkpt><trkpt lat="46.027249664639456" lon="12.269114371186053"><ele>868.0</ele><time>2026-03-29T10:04:23.001Z</time></trkpt><trkpt lat="46.02738293803488" lon="12.269117182831641"><ele>868.0</ele><time>2026-03-29T10:04:24.001Z</time></trkpt><trkpt lat="46.027486428879996" lon="12.269117848064237"><ele>868.0</ele><time>2026-03-29T10:04:25.001Z</time></trkpt><trkpt lat="46.027553672076415" lon="12.26909394012569"><ele>867.0</ele><time>2026-03-29T10:04:26.001Z</time></trkpt><trkpt lat="46.02756122072589" lon="12.268971102654982"><ele>866.0</ele><time>2026-03-29T10:04:28.001Z</time></trkpt><trkpt lat="46.027556468334424" lon="12.2688722561155"><ele>865.0</ele><time>2026-03-29T10:04:29.001Z</time></trkpt><trkpt lat="46.0274802577491" lon="12.268778088116493"><ele>864.0</ele><time>2026-03-29T10:04:30.001Z</time></trkpt><trkpt lat="46.02732242296676" lon="12.268836819788328"><ele>863.0</ele><time>2026-03-29T10:04:31.001Z</time></trkpt><trkpt lat="46.02719054856613" lon="12.26880159591153"><ele>874.5</ele><time>2026-03-29T10:04:32.001Z</time></trkpt><trkpt lat="46.027062476365394" lon="12.26874449398473"><ele>886.0</ele><time>2026-03-29T10:04:33.001Z</time></trkpt><trkpt lat="46.02692057104735" lon="12.268693268922421"><ele>897.5</ele><time>2026-03-29T10:04:34.001Z</time></trkpt><trkpt lat="46.02676396173181" lon="12.268740809893753"><ele>909.0</ele><time>2026-03-29T10:04:35.001Z</time></trkpt><trkpt lat="46.026599791736515" lon="12.268797566962817"><ele>904.6666666666667</ele><time>2026-03-29T10:04:36.001Z</time></trkpt><trkpt lat="46.026418047241066" lon="12.268842037016713"><ele>900.3333333333334</ele><time>2026-03-29T10:04:37.001Z</time></trkpt><trkpt lat="46.02623222028572" lon="12.268922076206088"><ele>896.0</ele><time>2026-03-29T10:04:38.001Z</time></trkpt><trkpt lat="46.026039028585515" lon="12.269021784705902"><ele>896.0</ele><time>2026-03-29T10:04:39.001Z</time></trkpt><trkpt lat="46.02584396604255" lon="12.269140977189435"><ele>896.0</ele><time>2026-03-29T10:04:40.001Z</time></trkpt><trkpt lat="46.02565148465265" lon="12.269259808817214"><ele>896.0</ele><time>2026-03-29T10:04:41.001Z</time></trkpt><trkpt lat="46.025474820922334" lon="12.26939894308861"><ele>897.0</ele><time>2026-03-29T10:04:42.001Z</time></trkpt><trkpt lat="46.02532353622195" lon="12.26953519725919"><ele>898.0</ele><time>2026-03-29T10:04:43.001Z</time></trkpt><trkpt lat="46.025207171370496" lon="12.269688446534174"><ele>899.0</ele><time>2026-03-29T10:04:44.001Z</time></trkpt><trkpt lat="46.02508804048175" lon="12.269806463175698"><ele>895.8000000000001</ele><time>2026-03-29T10:04:45.002Z</time></trkpt><trkpt lat="46.024988181641255" lon="12.269931970602993"><ele>892.6000000000001</ele><time>2026-03-29T10:04:46.002Z</time></trkpt><trkpt lat="46.02491703964998" lon="12.269997177065656"><ele>889.4</ele><time>2026-03-29T10:04:47.002Z</time></trkpt><trkpt lat="46.02480412576714" lon="12.269978251034136"><ele>886.2</ele><time>2026-03-29T10:04:49.002Z</time></trkpt><trkpt lat="46.024750908465336" lon="12.269886566569367"><ele>883.0</ele><time>2026-03-29T10:04:50.002Z</time></trkpt><trkpt lat="46.02470090778548" lon="12.269749961063313"><ele>878.0</ele><time>2026-03-29T10:04:51.002Z</time></trkpt><trkpt lat="46.02464117772066" lon="12.269598882030069"><ele>873.0</ele><time>2026-03-29T10:04:52.002Z</time></trkpt><trkpt lat="46.02459561526994" lon="12.26943785899309"><ele>868.0</ele><time>2026-03-29T10:04:53.002Z</time></trkpt><trkpt lat="46.024559195710296" lon="12.269302401286415"><ele>863.0</ele><time>2026-03-29T10:04:54.002Z</time></trkpt><trkpt lat="46.02456568471976" lon="12.269156560400326"><ele>858.0</ele><time>2026-03-29T10:04:55.002Z</time></trkpt><trkpt lat="46.02460995731813" lon="12.269024022364897"><ele>858.2</ele><time>2026-03-29T10:04:56.002Z</time></trkpt><trkpt lat="46.024630711100144" lon="12.26887626208536"><ele>858.4</ele><time>2026-03-29T10:04:57.002Z</time></trkpt><trkpt lat="46.024651680944224" lon="12.268720078102376"><ele>858.6000000000001</ele><time>2026-03-29T10:04:58.002Z</time></trkpt><trkpt lat="46.02465295495027" lon="12.268554047519636"><ele>858.8000000000001</ele><time>2026-03-29T10:04:59.002Z</time></trkpt><trkpt lat="46.02465339791722" lon="12.268382989946765"><ele>859.0</ele><time>2026-03-29T10:05:00.002Z</time></trkpt><trkpt lat="46.024627030570144" lon="12.268214694042461"><ele>862.75</ele><time>2026-03-29T10:05:01.002Z</time></trkpt><trkpt lat="46.02458269647977" lon="12.268052073585336"><ele>866.5</ele><time>2026-03-29T10:05:02.002Z</time></trkpt><trkpt lat="46.024523984670324" lon="12.267882833872742"><ele>870.25</ele><time>2026-03-29T10:05:03.002Z</time></trkpt><trkpt lat="46.024451874305875" lon="12.26770650866194"><ele>874.0</ele><time>2026-03-29T10:05:04.002Z</time></trkpt><trkpt lat="46.024361328087046" lon="12.267549361369214"><ele>874.0</ele><time>2026-03-29T10:05:05.002Z</time></trkpt><trkpt lat="46.02428060266143" lon="12.267390600818537"><ele>874.0</ele><time>2026-03-29T10:05:06.002Z</time></trkpt><trkpt lat="46.02421493585273" lon="12.267224005125101"><ele>874.0</ele><time>2026-03-29T10:05:07.002Z</time></trkpt><trkpt lat="46.024139419185666" lon="12.26707139089926"><ele>874.0</ele><time>2026-03-29T10:05:08Z</time></trkpt><trkpt lat="46.02406279209891" lon="12.26692807282682"><ele>867.8000000000001</ele><time>2026-03-29T10:05:09Z</time></trkpt><trkpt lat="46.02398181064461" lon="12.266797073433594"><ele>861.6000000000001</ele><time>2026-03-29T10:05:10Z</time></trkpt><trkpt lat="46.023900409467444" lon="12.266703405680214"><ele>855.4</ele><time>2026-03-29T10:05:11Z</time></trkpt><trkpt lat="46.023834802414505" lon="12.266630404612561"><ele>849.2</ele><time>2026-03-29T10:05:12Z</time></trkpt><trkpt lat="46.02381002439146" lon="12.266522660601524"><ele>843.0</ele><time>2026-03-29T10:05:13Z</time></trkpt><trkpt lat="46.02382111181576" lon="12.266412610057358"><ele>841.8</ele><time>2026-03-29T10:05:14Z</time></trkpt><trkpt lat="46.02385599245024" lon="12.266298921069843"><ele>840.5999999999999</ele><time>2026-03-29T10:05:15Z</time></trkpt><trkpt lat="46.02390763928811" lon="12.2661841588358"><ele>839.4000000000001</ele><time>2026-03-29T10:05:16Z</time></trkpt><trkpt lat="46.02397827799375" lon="12.266066268195091"><ele>838.2</ele><time>2026-03-29T10:05:17Z</time></trkpt><trkpt lat="46.02404284465412" lon="12.265913701802127"><ele>837.0</ele><time>2026-03-29T10:05:18Z</time></trkpt><trkpt lat="46.024111359661795" lon="12.265744848428575"><ele>849.0</ele><time>2026-03-29T10:05:19Z</time></trkpt><trkpt lat="46.02418545410827" lon="12.265562770465191"><ele>861.0</ele><time>2026-03-29T10:05:20Z</time></trkpt><trkpt lat="46.02424727627079" lon="12.265373127012932"><ele>873.0</ele><time>2026-03-29T10:05:21Z</time></trkpt><trkpt lat="46.02432433762102" lon="12.265199398524334"><ele>885.0</ele><time>2026-03-29T10:05:22Z</time></trkpt><trkpt lat="46.02439853146782" lon="12.26504663339798"><ele>885.0</ele><time>2026-03-29T10:05:23Z</time></trkpt><trkpt lat="46.02446655779213" lon="12.264927110539952"><ele>885.0</ele><time>2026-03-29T10:05:24Z</time></trkpt><trkpt lat="46.02453251511316" lon="12.264817536209415"><ele>885.0</ele><time>2026-03-29T10:05:25Z</time></trkpt><trkpt lat="46.02457926811126" lon="12.264717331061009"><ele>885.0</ele><time>2026-03-29T10:05:26Z</time></trkpt><trkpt lat="46.02460039438907" lon="12.264610900333976"><ele>885.0</ele><time>2026-03-29T10:05:27Z</time></trkpt><trkpt lat="46.02459194673459" lon="12.264504431571053"><ele>885.0</ele><time>2026-03-29T10:05:28Z</time></trkpt><trkpt lat="46.02458126791916" lon="12.264399592960897"><ele>883.25</ele><time>2026-03-29T10:05:29Z</time></trkpt><trkpt lat="46.024507676731595" lon="12.264304608781694"><ele>881.5</ele><time>2026-03-29T10:05:30Z</time></trkpt><trkpt lat="46.02439350717809" lon="12.264254522247606"><ele>879.75</ele><time>2026-03-29T10:05:31Z</time></trkpt><trkpt lat="46.02426131760187" lon="12.26421069727612"><ele>878.0</ele><time>2026-03-29T10:05:32Z</time></trkpt><trkpt lat="46.02411298403855" lon="12.264172067760796"><ele>878.0</ele><time>2026-03-29T10:05:33Z</time></trkpt><trkpt lat="46.02398868623446" lon="12.264107211668897"><ele>878.0</ele><time>2026-03-29T10:05:34Z</time></trkpt><trkpt lat="46.02388291439744" lon="12.264031374462034"><ele>878.0</ele><time>2026-03-29T10:05:35Z</time></trkpt><trkpt lat="46.02379981725425" lon="12.263950550458526"><ele>878.0</ele><time>2026-03-29T10:05:36Z</time></trkpt><trkpt lat="46.02371651482374" lon="12.263857691638067"><ele>882.75</ele><time>2026-03-29T10:05:37Z</time></trkpt><trkpt lat="46.02366379372004" lon="12.26371313488988"><ele>887.5</ele><time>2026-03-29T10:05:38Z</time></trkpt><trkpt lat="46.02364610376799" lon="12.263530123229478"><ele>892.25</ele><time>2026-03-29T10:05:39Z</time></trkpt><trkpt lat="46.02362997870505" lon="12.263319519755777"><ele>897.0</ele><time>2026-03-29T10:05:40Z</time></trkpt><trkpt lat="46.02361955605263" lon="12.2630828221359"><ele>900.3333333333333</ele><time>2026-03-29T10:05:41Z</time></trkpt><trkpt lat="46.02361084603579" lon="12.262818317017546"><ele>903.6666666666666</ele><time>2026-03-29T10:05:42Z</time></trkpt><trkpt lat="46.02357747526081" lon="12.262561818899199"><ele>907.0</ele><time>2026-03-29T10:05:43Z</time></trkpt><trkpt lat="46.02357140501614" lon="12.26233156854003"><ele>914.0</ele><time>2026-03-29T10:05:44Z</time></trkpt><trkpt lat="46.02354516961567" lon="12.262136801092849"><ele>921.0</ele><time>2026-03-29T10:05:45Z</time></trkpt><trkpt lat="46.02350149142356" lon="12.261961582776793"><ele>928.0</ele><time>2026-03-29T10:05:46Z</time></trkpt><trkpt lat="46.02342737030415" lon="12.261788178465677"><ele>935.0</ele><time>2026-03-29T10:05:47Z</time></trkpt><trkpt lat="46.023332155626846" lon="12.26160584338537"><ele>925.0</ele><time>2026-03-29T10:05:48Z</time></trkpt><trkpt lat="46.023242830130975" lon="12.261424154734577"><ele>915.0</ele><time>2026-03-29T10:05:49Z</time></trkpt><trkpt lat="46.023168100077825" lon="12.26124571839413"><ele>905.0</ele><time>2026-03-29T10:05:50Z</time></trkpt><trkpt lat="46.02312149576074" lon="12.261036744966093"><ele>905.0</ele><time>2026-03-29T10:05:51Z</time></trkpt><trkpt lat="46.023064936774595" lon="12.260787370902076"><ele>905.0</ele><time>2026-03-29T10:05:52Z</time></trkpt><trkpt lat="46.02301057431053" lon="12.260555266340091"><ele>905.0</ele><time>2026-03-29T10:05:53.001Z</time></trkpt><trkpt lat="46.02296596638804" lon="12.260364809103624"><ele>909.75</ele><time>2026-03-29T10:05:54.001Z</time></trkpt><trkpt lat="46.02287137727575" lon="12.260210102021938"><ele>914.5</ele><time>2026-03-29T10:05:55.001Z</time></trkpt><trkpt lat="46.022862428915104" lon="12.260002217837146"><ele>919.25</ele><time>2026-03-29T10:05:56.001Z</time></trkpt><trkpt lat="46.02287604706621" lon="12.25980408761876"><ele>924.0</ele><time>2026-03-29T10:05:57.001Z</time></trkpt><trkpt lat="46.0228875446704" lon="12.259646789342634"><ele>931.75</ele><time>2026-03-29T10:05:58.001Z</time></trkpt><trkpt lat="46.022860562006926" lon="12.25951149039362"><ele>939.5</ele><time>2026-03-29T10:05:59.001Z</time></trkpt><trkpt lat="46.02279684551092" lon="12.259376322398262"><ele>947.25</ele><time>2026-03-29T10:06:00.001Z</time></trkpt><trkpt lat="46.02270070958576" lon="12.259232455895164"><ele>955.0</ele><time>2026-03-29T10:06:01.001Z</time></trkpt><trkpt lat="46.02257797984163" lon="12.259090781187108"><ele>958.6666666666666</ele><time>2026-03-29T10:06:02.001Z</time></trkpt><trkpt lat="46.02243962775484" lon="12.25897240368431"><ele>962.3333333333333</ele><time>2026-03-29T10:06:03.001Z</time></trkpt><trkpt lat="46.02228726552041" lon="12.258878278228547"><ele>966.0</ele><time>2026-03-29T10:06:04.001Z</time></trkpt><trkpt lat="46.02213347262909" lon="12.258790740347417"><ele>966.0</ele><time>2026-03-29T10:06:05.001Z</time></trkpt><trkpt lat="46.02199734807216" lon="12.258709945346936"><ele>966.0</ele><time>2026-03-29T10:06:06.001Z</time></trkpt><trkpt lat="46.02188705898686" lon="12.258624350856786"><ele>966.0</ele><time>2026-03-29T10:06:07.001Z</time></trkpt><trkpt lat="46.021794741708916" lon="12.258522451385284"><ele>966.0</ele><time>2026-03-29T10:06:08.001Z</time></trkpt><trkpt lat="46.021711805700065" lon="12.25840769394631"><ele>966.0</ele><time>2026-03-29T10:06:09.001Z</time></trkpt><trkpt lat="46.02165218922976" lon="12.258259788697087"><ele>966.0</ele><time>2026-03-29T10:06:10.001Z</time></trkpt><trkpt lat="46.02160985944525" lon="12.258086189260544"><ele>966.0</ele><time>2026-03-29T10:06:11.001Z</time></trkpt><trkpt lat="46.02158014399332" lon="12.257896064657904"><ele>966.0</ele><time>2026-03-29T10:06:12.001Z</time></trkpt><trkpt lat="46.02155516703215" lon="12.257746476613406"><ele>963.8</ele><time>2026-03-29T10:06:13.001Z</time></trkpt><trkpt lat="46.02152100905334" lon="12.257630468359993"><ele>961.5999999999999</ele><time>2026-03-29T10:06:14.001Z</time></trkpt><trkpt lat="46.02144921006756" lon="12.257535996074466"><ele>959.4</ele><time>2026-03-29T10:06:15.001Z</time></trkpt><trkpt lat="46.02134432457606" lon="12.257444786641805"><ele>957.2</ele><time>2026-03-29T10:06:16.001Z</time></trkpt><trkpt lat="46.021223314813334" lon="12.257359030478469"><ele>955.0</ele><time>2026-03-29T10:06:17.001Z</time></trkpt><trkpt lat="46.021118647599835" lon="12.25725994656975"><ele>962.5</ele><time>2026-03-29T10:06:18.001Z</time></trkpt><trkpt lat="46.021047085467636" lon="12.257159311130815"><ele>970.0</ele><time>2026-03-29T10:06:19.001Z</time></trkpt><trkpt lat="46.020994041324926" lon="12.257039167895517"><ele>977.5</ele><time>2026-03-29T10:06:20.001Z</time></trkpt><trkpt lat="46.02093680048376" lon="12.256881365682018"><ele>985.0</ele><time>2026-03-29T10:06:21.001Z</time></trkpt><trkpt lat="46.02087146603123" lon="12.25670850285996"><ele>980.6666666666666</ele><time>2026-03-29T10:06:22.001Z</time></trkpt><trkpt lat="46.0207950251886" lon="12.256526629084584"><ele>976.3333333333333</ele><time>2026-03-29T10:06:23.001Z</time></trkpt><trkpt lat="46.020714649381226" lon="12.256333451916092"><ele>972.0</ele><time>2026-03-29T10:06:24.001Z</time></trkpt><trkpt lat="46.02061640113705" lon="12.256138952645562"><ele>972.0</ele><time>2026-03-29T10:06:25.001Z</time></trkpt><trkpt lat="46.02052312151581" lon="12.255951601108316"><ele>972.0</ele><time>2026-03-29T10:06:26.001Z</time></trkpt><trkpt lat="46.02044099947077" lon="12.255744354741957"><ele>972.0</ele><time>2026-03-29T10:06:27.001Z</time></trkpt><trkpt lat="46.02035871690076" lon="12.255532959999613"><ele>977.0</ele><time>2026-03-29T10:06:28.001Z</time></trkpt><trkpt lat="46.02027131368589" lon="12.255329319821065"><ele>982.0</ele><time>2026-03-29T10:06:29.001Z</time></trkpt><trkpt lat="46.0201830005032" lon="12.25515367745251"><ele>987.0</ele><time>2026-03-29T10:06:30.001Z</time></trkpt><trkpt lat="46.02010868900177" lon="12.2550003305574"><ele>992.0</ele><time>2026-03-29T10:06:31.001Z</time></trkpt><trkpt lat="46.02005188208569" lon="12.254883139919128"><ele>992.0000000000001</ele><time>2026-03-29T10:06:32.001Z</time></trkpt><trkpt lat="46.02002080750654" lon="12.254801914720161"><ele>992.0</ele><time>2026-03-29T10:06:33.001Z</time></trkpt><trkpt lat="46.0200607779403" lon="12.254696249425425"><ele>992.0</ele><time>2026-03-29T10:06:36.001Z</time></trkpt><trkpt lat="46.020140783707085" lon="12.25474731713762"><ele>992.0</ele><time>2026-03-29T10:06:49.001Z</time></trkpt><trkpt lat="46.0201808135291" lon="12.254832085898114"><ele>992.0000000000001</ele><time>2026-03-29T10:06:50.001Z</time></trkpt><trkpt lat="46.0202036828989" lon="12.254933026899439"><ele>992.0</ele><time>2026-03-29T10:06:51.001Z</time></trkpt><trkpt lat="46.02024704036959" lon="12.255032980055228"><ele>992.0000000000001</ele><time>2026-03-29T10:06:52.001Z</time></trkpt><trkpt lat="46.02030167245931" lon="12.255123679814835"><ele>992.0</ele><time>2026-03-29T10:06:53.001Z</time></trkpt><trkpt lat="46.02036231180023" lon="12.255185305499316"><ele>992.0</ele><time>2026-03-29T10:06:54.001Z</time></trkpt><trkpt lat="46.02042611622397" lon="12.255250278192962"><ele>992.0</ele><time>2026-03-29T10:06:55.002Z</time></trkpt><trkpt lat="46.020488106392136" lon="12.255316439695829"><ele>992.0000000000001</ele><time>2026-03-29T10:06:56.002Z</time></trkpt><trkpt lat="46.020553040847865" lon="12.255407117664717"><ele>992.0</ele><time>2026-03-29T10:06:57.002Z</time></trkpt><trkpt lat="46.020615363370666" lon="12.255515083273476"><ele>988.0</ele><time>2026-03-29T10:06:58.002Z</time></trkpt><trkpt lat="46.02067653216188" lon="12.25562994369899"><ele>984.0</ele><time>2026-03-29T10:06:59.002Z</time></trkpt><trkpt lat="46.02075364175058" lon="12.255732530646759"><ele>980.0</ele><time>2026-03-29T10:07:00.002Z</time></trkpt><trkpt lat="46.02084556621263" lon="12.255828500649281"><ele>976.0</ele><time>2026-03-29T10:07:01.002Z</time></trkpt><trkpt lat="46.02094516028203" lon="12.255924633762248"><ele>972.0</ele><time>2026-03-29T10:07:02.002Z</time></trkpt><trkpt lat="46.02104930233943" lon="12.25602211846369"><ele>983.75</ele><time>2026-03-29T10:07:03.002Z</time></trkpt><trkpt lat="46.021149775841515" lon="12.256126544261384"><ele>995.5</ele><time>2026-03-29T10:07:04.002Z</time></trkpt><trkpt lat="46.02124499516691" lon="12.256236672403205"><ele>1007.25</ele><time>2026-03-29T10:07:05.002Z</time></trkpt><trkpt lat="46.021342721908674" lon="12.25633972206059"><ele>1019.0</ele><time>2026-03-29T10:07:06.002Z</time></trkpt><trkpt lat="46.0214399343892" lon="12.256422148410294"><ele>1021.25</ele><time>2026-03-29T10:07:07.002Z</time></trkpt><trkpt lat="46.02154419808932" lon="12.256476720017574"><ele>1023.5</ele><time>2026-03-29T10:07:08.002Z</time></trkpt><trkpt lat="46.021661036182145" lon="12.256504449907922"><ele>1025.75</ele><time>2026-03-29T10:07:09.002Z</time></trkpt><trkpt lat="46.02177578566396" lon="12.256515585900233"><ele>1028.0</ele><time>2026-03-29T10:07:10.002Z</time></trkpt><trkpt lat="46.021887417110136" lon="12.25651596517315"><ele>1028.0</ele><time>2026-03-29T10:07:11.002Z</time></trkpt><trkpt lat="46.021991945851106" lon="12.25652108299237"><ele>1028.0</ele><time>2026-03-29T10:07:12.002Z</time></trkpt><trkpt lat="46.02207371077528" lon="12.256556206641797"><ele>1028.0</ele><time>2026-03-29T10:07:13.002Z</time></trkpt><trkpt lat="46.022142806051924" lon="12.256613960974043"><ele>1028.0</ele><time>2026-03-29T10:07:14Z</time></trkpt><trkpt lat="46.02219455536297" lon="12.256700525040387"><ele>1028.0</ele><time>2026-03-29T10:07:15Z</time></trkpt><trkpt lat="46.02223145382572" lon="12.256820038780482"><ele>1028.0</ele><time>2026-03-29T10:07:16Z</time></trkpt><trkpt lat="46.0222713797125" lon="12.256944336907056"><ele>1028.0</ele><time>2026-03-29T10:07:17Z</time></trkpt><trkpt lat="46.02233087320557" lon="12.257057164047072"><ele>1028.0</ele><time>2026-03-29T10:07:18Z</time></trkpt><trkpt lat="46.022413979509075" lon="12.257140231904653"><ele>1028.0</ele><time>2026-03-29T10:07:19Z</time></trkpt><trkpt lat="46.02250950657963" lon="12.257204022380998"><ele>1028.0</ele><time>2026-03-29T10:07:20Z</time></trkpt><trkpt lat="46.02261423202307" lon="12.257241863790727"><ele>1028.0</ele><time>2026-03-29T10:07:21Z</time></trkpt><trkpt lat="46.02272197497629" lon="12.257268959778036"><ele>1029.6</ele><time>2026-03-29T10:07:22Z</time></trkpt><trkpt lat="46.02282987817305" lon="12.257286811310449"><ele>1031.1999999999998</ele><time>2026-03-29T10:07:23Z</time></trkpt><trkpt lat="46.02293882246848" lon="12.257311417105173"><ele>1032.8</ele><time>2026-03-29T10:07:24Z</time></trkpt><trkpt lat="46.023049133243305" lon="12.25734180692303"><ele>1034.3999999999999</ele><time>2026-03-29T10:07:25Z</time></trkpt><trkpt lat="46.02315428439541" lon="12.257379615046357"><ele>1036.0</ele><time>2026-03-29T10:07:26Z</time></trkpt><trkpt lat="46.023258656941934" lon="12.257429128780114"><ele>1041.25</ele><time>2026-03-29T10:07:27Z</time></trkpt><trkpt lat="46.02336194747383" lon="12.25748411621943"><ele>1046.5</ele><time>2026-03-29T10:07:28Z</time></trkpt><trkpt lat="46.023466424730934" lon="12.257542801136069"><ele>1051.75</ele><time>2026-03-29T10:07:29Z</time></trkpt><trkpt lat="46.02358920571366" lon="12.257597877446207"><ele>1057.0</ele><time>2026-03-29T10:07:30Z</time></trkpt><trkpt lat="46.023719861362146" lon="12.257646720595693"><ele>1057.0</ele><time>2026-03-29T10:07:31Z</time></trkpt><trkpt lat="46.02383443540784" lon="12.257688301193461"><ele>1057.0</ele><time>2026-03-29T10:07:32Z</time></trkpt><trkpt lat="46.02392856731613" lon="12.257730146308022"><ele>1057.0</ele><time>2026-03-29T10:07:33Z</time></trkpt><trkpt lat="46.024007443175414" lon="12.257795267434714"><ele>1057.0</ele><time>2026-03-29T10:07:34Z</time></trkpt><trkpt lat="46.02407586400209" lon="12.257896225367142"><ele>1057.0</ele><time>2026-03-29T10:07:35Z</time></trkpt><trkpt lat="46.02413183796663" lon="12.258049039222996"><ele>1057.5</ele><time>2026-03-29T10:07:36Z</time></trkpt><trkpt lat="46.0241982585838" lon="12.258222556194907"><ele>1058.0</ele><time>2026-03-29T10:07:37Z</time></trkpt><trkpt lat="46.024280596542056" lon="12.258401584964666"><ele>1058.5</ele><time>2026-03-29T10:07:38Z</time></trkpt><trkpt lat="46.02438245211475" lon="12.258569309890802"><ele>1059.0</ele><time>2026-03-29T10:07:39Z</time></trkpt><trkpt lat="46.02450124221979" lon="12.258720754486907"><ele>1059.0</ele><time>2026-03-29T10:07:40Z</time></trkpt><trkpt lat="46.024632463841506" lon="12.258846757925461"><ele>1059.0</ele><time>2026-03-29T10:07:41Z</time></trkpt><trkpt lat="46.024749567418915" lon="12.25897040544809"><ele>1059.0</ele><time>2026-03-29T10:07:42Z</time></trkpt><trkpt lat="46.02485045167322" lon="12.259131250807682"><ele>1062.6666666666667</ele><time>2026-03-29T10:07:43Z</time></trkpt><trkpt lat="46.024949428856736" lon="12.259345450115465"><ele>1066.3333333333335</ele><time>2026-03-29T10:07:44Z</time></trkpt><trkpt lat="46.02506579002542" lon="12.259583344867947"><ele>1070.0</ele><time>2026-03-29T10:07:45Z</time></trkpt><trkpt lat="46.02521510398701" lon="12.259837203084418"><ele>1070.0</ele><time>2026-03-29T10:07:46Z</time></trkpt><trkpt lat="46.025351733780774" lon="12.260068395497443"><ele>1070.0</ele><time>2026-03-29T10:07:47Z</time></trkpt><trkpt lat="46.02548340672489" lon="12.260300600204667"><ele>1070.0</ele><time>2026-03-29T10:07:48Z</time></trkpt><trkpt lat="46.02557506322061" lon="12.260418939601555"><ele>1070.0</ele><time>2026-03-29T10:07:49.001Z</time></trkpt><trkpt lat="46.02565656460692" lon="12.26054893252511"><ele>1070.0</ele><time>2026-03-29T10:07:50.001Z</time></trkpt><trkpt lat="46.025739740109984" lon="12.260637688289727"><ele>1070.0</ele><time>2026-03-29T10:07:51.001Z</time></trkpt><trkpt lat="46.025830382363964" lon="12.260689265517856"><ele>1070.0</ele><time>2026-03-29T10:07:52.001Z</time></trkpt><trkpt lat="46.02591448292337" lon="12.260693511517717"><ele>1070.0</ele><time>2026-03-29T10:07:53.001Z</time></trkpt><trkpt lat="46.0260029062867" lon="12.260636122870945"><ele>1072.5</ele><time>2026-03-29T10:07:54.001Z</time></trkpt><trkpt lat="46.02610507139724" lon="12.260554362765467"><ele>1075.0</ele><time>2026-03-29T10:07:55.001Z</time></trkpt><trkpt lat="46.026205691967625" lon="12.260491049009678"><ele>1077.5</ele><time>2026-03-29T10:07:56.001Z</time></trkpt><trkpt lat="46.026285364700556" lon="12.260459168848353"><ele>1080.0</ele><time>2026-03-29T10:07:57.001Z</time></trkpt><trkpt lat="46.0263556131002" lon="12.260475743506866"><ele>1082.5</ele><time>2026-03-29T10:07:58.001Z</time></trkpt><trkpt lat="46.02640865154509" lon="12.260534866729982"><ele>1085.0</ele><time>2026-03-29T10:07:59.001Z</time></trkpt><trkpt lat="46.02644942779349" lon="12.260638441546956"><ele>1085.0</ele><time>2026-03-29T10:08:00.001Z</time></trkpt><trkpt lat="46.026492046305194" lon="12.260797674858487"><ele>1085.0</ele><time>2026-03-29T10:08:01.001Z</time></trkpt><trkpt lat="46.026540555185875" lon="12.260988197399161"><ele>1085.0</ele><time>2026-03-29T10:08:02.001Z</time></trkpt><trkpt lat="46.02660858853113" lon="12.261158657341905"><ele>1085.0</ele><time>2026-03-29T10:08:03.001Z</time></trkpt><trkpt lat="46.02670325642296" lon="12.261306040413343"><ele>1086.75</ele><time>2026-03-29T10:08:04.001Z</time></trkpt><trkpt lat="46.02682045453581" lon="12.261407609419905"><ele>1088.5</ele><time>2026-03-29T10:08:05.001Z</time></trkpt><trkpt lat="46.02696015300546" lon="12.261481964926217"><ele>1090.25</ele><time>2026-03-29T10:08:06.001Z</time></trkpt><trkpt lat="46.02709957461621" lon="12.261532879438226"><ele>1092.0</ele><time>2026-03-29T10:08:07.001Z</time></trkpt><trkpt lat="46.02720783613935" lon="12.261586117014216"><ele>1092.0</ele><time>2026-03-29T10:08:08.001Z</time></trkpt><trkpt lat="46.02729077258077" lon="12.261679393374903"><ele>1092.0</ele><time>2026-03-29T10:08:09.001Z</time></trkpt><trkpt lat="46.02735296643246" lon="12.261804583469205"><ele>1092.0</ele><time>2026-03-29T10:08:10.001Z</time></trkpt><trkpt lat="46.02738513724775" lon="12.26198591447733"><ele>1092.0</ele><time>2026-03-29T10:08:11.001Z</time></trkpt><trkpt lat="46.027432660131325" lon="12.262149308963942"><ele>1097.2</ele><time>2026-03-29T10:08:12.001Z</time></trkpt><trkpt lat="46.02748209173189" lon="12.262304009110462"><ele>1102.4</ele><time>2026-03-29T10:08:13.001Z</time></trkpt><trkpt lat="46.027534690543476" lon="12.26244336903589"><ele>1107.6</ele><time>2026-03-29T10:08:14.001Z</time></trkpt><trkpt lat="46.027588507373956" lon="12.262557844622245"><ele>1112.8</ele><time>2026-03-29T10:08:15.001Z</time></trkpt><trkpt lat="46.02766106746277" lon="12.262624694324657"><ele>1118.0</ele><time>2026-03-29T10:08:16.001Z</time></trkpt><trkpt lat="46.02773396538418" lon="12.262683774182083"><ele>1118.0</ele><time>2026-03-29T10:08:17.001Z</time></trkpt><trkpt lat="46.02781208791845" lon="12.262729664377117"><ele>1118.0</ele><time>2026-03-29T10:08:18.001Z</time></trkpt><trkpt lat="46.02789762121394" lon="12.262747827851403"><ele>1118.0</ele><time>2026-03-29T10:08:19.001Z</time></trkpt><trkpt lat="46.02798109535656" lon="12.262744120937839"><ele>1118.0</ele><time>2026-03-29T10:08:20.001Z</time></trkpt><trkpt lat="46.02806050196233" lon="12.262712135823868"><ele>1118.0</ele><time>2026-03-29T10:08:21.001Z</time></trkpt><trkpt lat="46.02813534623834" lon="12.262666326582382"><ele>1118.0</ele><time>2026-03-29T10:08:22.001Z</time></trkpt><trkpt lat="46.02821409865293" lon="12.262618567153783"><ele>1118.0</ele><time>2026-03-29T10:08:23.001Z</time></trkpt><trkpt lat="46.02829251583752" lon="12.262590511028716"><ele>1118.0</ele><time>2026-03-29T10:08:24.001Z</time></trkpt><trkpt lat="46.02837237764069" lon="12.262558384818618"><ele>1118.0</ele><time>2026-03-29T10:08:25.001Z</time></trkpt><trkpt lat="46.0284531046894" lon="12.262516803890865"><ele>1118.0</ele><time>2026-03-29T10:08:26.001Z</time></trkpt><trkpt lat="46.02853424571878" lon="12.26247934612346"><ele>1118.0</ele><time>2026-03-29T10:08:27.001Z</time></trkpt><trkpt lat="46.02861440721927" lon="12.262440476302181"><ele>1118.0</ele><time>2026-03-29T10:08:28.001Z</time></trkpt><trkpt lat="46.0286907871881" lon="12.262402323438806"><ele>1120.1666666666667</ele><time>2026-03-29T10:08:29.001Z</time></trkpt><trkpt lat="46.028768181428966" lon="12.262364381828387"><ele>1122.3333333333335</ele><time>2026-03-29T10:08:30.001Z</time></trkpt><trkpt lat="46.02884102753705" lon="12.262335517914313"><ele>1124.5</ele><time>2026-03-29T10:08:31.001Z</time></trkpt><trkpt lat="46.02890935889057" lon="12.262305937936587"><ele>1126.6666666666667</ele><time>2026-03-29T10:08:32.001Z</time></trkpt><trkpt lat="46.02897306946743" lon="12.262192470770616"><ele>1128.8333333333333</ele><time>2026-03-29T10:08:34.001Z</time></trkpt><trkpt lat="46.0288810813951" lon="12.262086732437533"><ele>1131.0</ele><time>2026-03-29T10:08:36.001Z</time></trkpt><trkpt lat="46.028801395429454" lon="12.262095923849717"><ele>1134.8</ele><time>2026-03-29T10:08:37.001Z</time></trkpt><trkpt lat="46.02872329984283" lon="12.262129782383239"><ele>1138.6</ele><time>2026-03-29T10:08:38.001Z</time></trkpt><trkpt lat="46.02863554515345" lon="12.262152764297152"><ele>1142.4</ele><time>2026-03-29T10:08:39.001Z</time></trkpt><trkpt lat="46.028546468376625" lon="12.262136990376083"><ele>1146.2</ele><time>2026-03-29T10:08:40.001Z</time></trkpt><trkpt lat="46.02845984490789" lon="12.2620867901871"><ele>1150.0</ele><time>2026-03-29T10:08:41.001Z</time></trkpt><trkpt lat="46.02837700404971" lon="12.262017471165274"><ele>1145.6</ele><time>2026-03-29T10:08:42.001Z</time></trkpt><trkpt lat="46.02829784638305" lon="12.261932141753125"><ele>1141.2</ele><time>2026-03-29T10:08:43.001Z</time></trkpt><trkpt lat="46.028218566048956" lon="12.261832703999428"><ele>1136.8</ele><time>2026-03-29T10:08:44.001Z</time></trkpt><trkpt lat="46.02814420685335" lon="12.261723599449208"><ele>1132.4</ele><time>2026-03-29T10:08:45.001Z</time></trkpt><trkpt lat="46.02808106337904" lon="12.261627286018763"><ele>1128.0</ele><time>2026-03-29T10:08:46.001Z</time></trkpt><trkpt lat="46.02802203449206" lon="12.261542875191411"><ele>1130.5</ele><time>2026-03-29T10:08:47.001Z</time></trkpt><trkpt lat="46.0279692319042" lon="12.261440771331195"><ele>1133.0</ele><time>2026-03-29T10:08:48.001Z</time></trkpt><trkpt lat="46.027916715047105" lon="12.261318331544517"><ele>1135.5</ele><time>2026-03-29T10:08:49.001Z</time></trkpt><trkpt lat="46.02786849587746" lon="12.261207105187378"><ele>1138.0</ele><time>2026-03-29T10:08:50.001Z</time></trkpt><trkpt lat="46.027831369817584" lon="12.261130367103389"><ele>1140.5</ele><time>2026-03-29T10:08:51.001Z</time></trkpt><trkpt lat="46.027784984782684" lon="12.2610453431891"><ele>1143.0</ele><time>2026-03-29T10:08:53.001Z</time></trkpt><trkpt lat="46.02776311713671" lon="12.260936469220102"><ele>1143.0</ele><time>2026-03-29T10:09:00.002Z</time></trkpt><trkpt lat="46.02783453769483" lon="12.260975486264543"><ele>1143.0</ele><time>2026-03-29T10:17:49.001Z</time></trkpt><trkpt lat="46.02785608747374" lon="12.26112713328691"><ele>1143.0</ele><time>2026-03-29T10:17:51.001Z</time></trkpt><trkpt lat="46.027894953518015" lon="12.261237340787147"><ele>1143.0</ele><time>2026-03-29T10:17:52.001Z</time></trkpt><trkpt lat="46.02793294420023" lon="12.261336578018387"><ele>1143.0</ele><time>2026-03-29T10:17:53.001Z</time></trkpt><trkpt lat="46.027964356187994" lon="12.261420948441549"><ele>1143.0</ele><time>2026-03-29T10:17:54.001Z</time></trkpt><trkpt lat="46.028009752473814" lon="12.261555421678414"><ele>1143.0</ele><time>2026-03-29T10:17:56.001Z</time></trkpt><trkpt lat="46.027971150581614" lon="12.261415661979317"><ele>1143.0</ele><time>2026-03-29T10:18:04Z</time></trkpt><trkpt lat="46.02793371512939" lon="12.261338020829296"><ele>1143.0</ele><time>2026-03-29T10:18:05Z</time></trkpt><trkpt lat="46.0278934278448" lon="12.261242843833987"><ele>1143.0</ele><time>2026-03-29T10:18:06Z</time></trkpt><trkpt lat="46.027838385808565" lon="12.261122489684452"><ele>1143.0</ele><time>2026-03-29T10:18:07Z</time></trkpt><trkpt lat="46.02780646257097" lon="12.261028824784635"><ele>1143.0</ele><time>2026-03-29T10:18:08Z</time></trkpt><trkpt lat="46.0277902580766" lon="12.26092700043708"><ele>1143.0</ele><time>2026-03-29T10:18:09Z</time></trkpt><trkpt lat="46.02774572853695" lon="12.26077409798821"><ele>1143.0</ele><time>2026-03-29T10:18:10Z</time></trkpt><trkpt lat="46.02769597136936" lon="12.260611062773139"><ele>1143.0</ele><time>2026-03-29T10:18:11Z</time></trkpt><trkpt lat="46.027670033567105" lon="12.260494012344905"><ele>1143.0</ele><time>2026-03-29T10:18:12Z</time></trkpt><trkpt lat="46.02765262703591" lon="12.260384532174255"><ele>1143.0</ele><time>2026-03-29T10:18:13Z</time></trkpt><trkpt lat="46.02763186537987" lon="12.260284653320307"><ele>1147.0</ele><time>2026-03-29T10:18:14Z</time></trkpt><trkpt lat="46.02759898563494" lon="12.260190692012273"><ele>1151.0</ele><time>2026-03-29T10:18:15Z</time></trkpt><trkpt lat="46.027549361831106" lon="12.260122973530073"><ele>1155.0</ele><time>2026-03-29T10:18:17Z</time></trkpt><trkpt lat="46.02755907352366" lon="12.2602505162938"><ele>1159.0</ele><time>2026-03-29T10:18:20Z</time></trkpt><trkpt lat="46.02764077602664" lon="12.260363568187922"><ele>1163.0</ele><time>2026-03-29T10:18:22Z</time></trkpt><trkpt lat="46.02768293107357" lon="12.260507189612486"><ele>1159.0</ele><time>2026-03-29T10:18:24Z</time></trkpt><trkpt lat="46.02772630087757" lon="12.2606913629515"><ele>1155.0</ele><time>2026-03-29T10:18:26Z</time></trkpt><trkpt lat="46.027746145640975" lon="12.260778127200036"><ele>1151.0</ele><time>2026-03-29T10:18:27Z</time></trkpt><trkpt lat="46.02778063117137" lon="12.260921046495307"><ele>1147.0</ele><time>2026-03-29T10:18:29Z</time></trkpt><trkpt lat="46.02782855325997" lon="12.261071045557534"><ele>1143.0</ele><time>2026-03-29T10:18:38Z</time></trkpt><trkpt lat="46.027874653807665" lon="12.261187502402985"><ele>1143.0</ele><time>2026-03-29T10:18:39Z</time></trkpt><trkpt lat="46.02793336454828" lon="12.261340096921144"><ele>1143.0</ele><time>2026-03-29T10:18:40Z</time></trkpt><trkpt lat="46.027981378690946" lon="12.261466867222111"><ele>1143.0</ele><time>2026-03-29T10:18:41Z</time></trkpt><trkpt lat="46.02801848464779" lon="12.261556432667765"><ele>1143.0</ele><time>2026-03-29T10:18:42Z</time></trkpt><trkpt lat="46.02807790564978" lon="12.26165854734685"><ele>1143.0</ele><time>2026-03-29T10:18:44Z</time></trkpt><trkpt lat="46.02805046592467" lon="12.261552413071623"><ele>1143.0</ele><time>2026-03-29T10:18:59Z</time></trkpt><trkpt lat="46.02798204287854" lon="12.261409837342056"><ele>1143.0</ele><time>2026-03-29T10:19:01Z</time></trkpt><trkpt lat="46.02789353214001" lon="12.261224360072761"><ele>1143.0</ele><time>2026-03-29T10:19:02Z</time></trkpt><trkpt lat="46.02782818767115" lon="12.261052782679165"><ele>1143.0</ele><time>2026-03-29T10:19:03Z</time></trkpt><trkpt lat="46.027774113663696" lon="12.260849845657914"><ele>1143.0</ele><time>2026-03-29T10:19:04Z</time></trkpt><trkpt lat="46.02774054065025" lon="12.260699740850388"><ele>1143.0</ele><time>2026-03-29T10:19:05Z</time></trkpt><trkpt lat="46.027702101898214" lon="12.260539036531654"><ele>1143.0</ele><time>2026-03-29T10:19:06Z</time></trkpt><trkpt lat="46.02766640593709" lon="12.260403859732442"><ele>1143.0</ele><time>2026-03-29T10:19:07Z</time></trkpt><trkpt lat="46.02762913773587" lon="12.260295789313629"><ele>1143.0</ele><time>2026-03-29T10:19:08Z</time></trkpt><trkpt lat="46.02759972548884" lon="12.260199844617919"><ele>1143.0</ele><time>2026-03-29T10:19:09Z</time></trkpt><trkpt lat="46.02755163873922" lon="12.260112479085379"><ele>1143.0</ele><time>2026-03-29T10:19:11Z</time></trkpt><trkpt lat="46.02754734080174" lon="12.260258009022564"><ele>1143.0</ele><time>2026-03-29T10:19:14Z</time></trkpt><trkpt lat="46.02760572129959" lon="12.260342026006777"><ele>1143.0</ele><time>2026-03-29T10:19:15Z</time></trkpt><trkpt lat="46.02765151565138" lon="12.260418999902116"><ele>1143.0</ele><time>2026-03-29T10:19:16Z</time></trkpt><trkpt lat="46.02768439876011" lon="12.26051635179054"><ele>1143.0</ele><time>2026-03-29T10:19:17Z</time></trkpt><trkpt lat="46.02771647435532" lon="12.26062313567719"><ele>1143.0</ele><time>2026-03-29T10:19:18Z</time></trkpt><trkpt lat="46.02774677490597" lon="12.26073807099648"><ele>1143.0</ele><time>2026-03-29T10:19:19Z</time></trkpt><trkpt lat="46.027766488383314" lon="12.260842805945503"><ele>1143.0</ele><time>2026-03-29T10:19:20Z</time></trkpt><trkpt lat="46.02778950583326" lon="12.260973386918524"><ele>1143.0</ele><time>2026-03-29T10:19:22Z</time></trkpt><trkpt lat="46.02783990624644" lon="12.261086803971562"><ele>1143.0</ele><time>2026-03-29T10:20:16Z</time></trkpt><trkpt lat="46.02789531099203" lon="12.261242261919667"><ele>1143.0</ele><time>2026-03-29T10:20:18Z</time></trkpt><trkpt lat="46.02792910568024" lon="12.261335600078638"><ele>1143.0</ele><time>2026-03-29T10:20:19Z</time></trkpt><trkpt lat="46.02797207905328" lon="12.261433397543556"><ele>1143.0</ele><time>2026-03-29T10:20:20Z</time></trkpt><trkpt lat="46.02802323776188" lon="12.261533754606182"><ele>1143.0</ele><time>2026-03-29T10:20:21Z</time></trkpt><trkpt lat="46.02807905121177" lon="12.261638271429579"><ele>1143.0</ele><time>2026-03-29T10:20:22Z</time></trkpt><trkpt lat="46.02814696880499" lon="12.261734749034584"><ele>1143.0</ele><time>2026-03-29T10:20:23Z</time></trkpt><trkpt lat="46.02821815836544" lon="12.261824213877583"><ele>1144.4</ele><time>2026-03-29T10:20:24Z</time></trkpt><trkpt lat="46.028287859722575" lon="12.261915219654274"><ele>1145.8</ele><time>2026-03-29T10:20:25Z</time></trkpt><trkpt lat="46.02835916441558" lon="12.262003430877648"><ele>1147.2</ele><time>2026-03-29T10:20:26Z</time></trkpt><trkpt lat="46.02843541360708" lon="12.262081737452057"><ele>1148.6</ele><time>2026-03-29T10:20:27Z</time></trkpt><trkpt lat="46.02852138380321" lon="12.262139408438964"><ele>1150.0</ele><time>2026-03-29T10:20:28Z</time></trkpt><trkpt lat="46.02861392607148" lon="12.262169804951956"><ele>1150.0</ele><time>2026-03-29T10:20:29Z</time></trkpt><trkpt lat="46.028709658035524" lon="12.262174893588492"><ele>1150.0</ele><time>2026-03-29T10:20:30Z</time></trkpt><trkpt lat="46.028798531363215" lon="12.262155474202867"><ele>1150.0</ele><time>2026-03-29T10:20:31Z</time></trkpt><trkpt lat="46.028872256621916" lon="12.26211275237135"><ele>1150.0</ele><time>2026-03-29T10:20:32Z</time></trkpt><trkpt lat="46.028940364180656" lon="12.262184855497722"><ele>1150.0</ele><time>2026-03-29T10:20:34Z</time></trkpt><trkpt lat="46.028891260348544" lon="12.262337328767089"><ele>1146.2</ele><time>2026-03-29T10:20:36Z</time></trkpt><trkpt lat="46.028808074674764" lon="12.262374816071326"><ele>1142.4</ele><time>2026-03-29T10:20:37Z</time></trkpt><trkpt lat="46.02870752173933" lon="12.262408435122339"><ele>1138.6</ele><time>2026-03-29T10:20:38Z</time></trkpt><trkpt lat="46.02859904141645" lon="12.26244827591801"><ele>1134.8</ele><time>2026-03-29T10:20:39Z</time></trkpt><trkpt lat="46.028478901711836" lon="12.262498705921777"><ele>1131.0</ele><time>2026-03-29T10:20:40Z</time></trkpt><trkpt lat="46.02835551151674" lon="12.262560946060018"><ele>1128.3999999999999</ele><time>2026-03-29T10:20:41Z</time></trkpt><trkpt lat="46.028233443611725" lon="12.262616919551544"><ele>1125.8</ele><time>2026-03-29T10:20:42Z</time></trkpt><trkpt lat="46.028124768896475" lon="12.262665486697008"><ele>1123.1999999999998</ele><time>2026-03-29T10:20:43Z</time></trkpt><trkpt lat="46.02802457256667" lon="12.262707030920824"><ele>1120.6</ele><time>2026-03-29T10:20:44Z</time></trkpt><trkpt lat="46.027937947359334" lon="12.262725984652231"><ele>1118.0</ele><time>2026-03-29T10:20:45Z</time></trkpt><trkpt lat="46.02785948223025" lon="12.26272346775279"><ele>1118.0</ele><time>2026-03-29T10:20:46Z</time></trkpt><trkpt lat="46.027787221413" lon="12.262701912664657"><ele>1118.0</ele><time>2026-03-29T10:20:47Z</time></trkpt><trkpt lat="46.027717457247135" lon="12.262656576864375"><ele>1118.0</ele><time>2026-03-29T10:20:48Z</time></trkpt><trkpt lat="46.02765304856474" lon="12.262599078328675"><ele>1118.0</ele><time>2026-03-29T10:20:49Z</time></trkpt><trkpt lat="46.02759352584504" lon="12.262521559435383"><ele>1118.0</ele><time>2026-03-29T10:20:50Z</time></trkpt><trkpt lat="46.0275376965424" lon="12.262427029556568"><ele>1118.0</ele><time>2026-03-29T10:20:51Z</time></trkpt><trkpt lat="46.02748683436053" lon="12.262322559470697"><ele>1112.8</ele><time>2026-03-29T10:20:52Z</time></trkpt><trkpt lat="46.027439035220176" lon="12.262206003382946"><ele>1107.6</ele><time>2026-03-29T10:20:53Z</time></trkpt><trkpt lat="46.02739478183443" lon="12.262073154348244"><ele>1102.4</ele><time>2026-03-29T10:20:54Z</time></trkpt><trkpt lat="46.027348597649244" lon="12.261927593485941"><ele>1097.2</ele><time>2026-03-29T10:20:55Z</time></trkpt><trkpt lat="46.02729791714115" lon="12.261781886007913"><ele>1092.0</ele><time>2026-03-29T10:20:56Z</time></trkpt><trkpt lat="46.027236050668286" lon="12.26165952695419"><ele>1092.0</ele><time>2026-03-29T10:20:57Z</time></trkpt><trkpt lat="46.02715956840839" lon="12.261560995732763"><ele>1092.0</ele><time>2026-03-29T10:20:58Z</time></trkpt><trkpt lat="46.02707243076218" lon="12.26149202901793"><ele>1092.0</ele><time>2026-03-29T10:20:59Z</time></trkpt><trkpt lat="46.02697183617298" lon="12.261450868105998"><ele>1092.0</ele><time>2026-03-29T10:21:00Z</time></trkpt><trkpt lat="46.0268663361015" lon="12.261403278669544"><ele>1092.0</ele><time>2026-03-29T10:21:01Z</time></trkpt><trkpt lat="46.02676487413842" lon="12.261328329330667"><ele>1090.25</ele><time>2026-03-29T10:21:02Z</time></trkpt><trkpt lat="46.02667057892884" lon="12.261230864241064"><ele>1088.5</ele><time>2026-03-29T10:21:03Z</time></trkpt><trkpt lat="46.026592323811656" lon="12.261110413101399"><ele>1086.75</ele><time>2026-03-29T10:21:04Z</time></trkpt><trkpt lat="46.02653072613542" lon="12.260971774941245"><ele>1085.0</ele><time>2026-03-29T10:21:05Z</time></trkpt><trkpt lat="46.02648238929669" lon="12.260825537102068"><ele>1085.0</ele><time>2026-03-29T10:21:06Z</time></trkpt><trkpt lat="46.026433548278725" lon="12.26069488607873"><ele>1085.0</ele><time>2026-03-29T10:21:07Z</time></trkpt><trkpt lat="46.02637875303991" lon="12.260580157845853"><ele>1085.0</ele><time>2026-03-29T10:21:08Z</time></trkpt><trkpt lat="46.02633078860542" lon="12.260503529673608"><ele>1085.0</ele><time>2026-03-29T10:21:09Z</time></trkpt><trkpt lat="46.02620298820572" lon="12.26048753041993"><ele>1085.0</ele><time>2026-03-29T10:21:11Z</time></trkpt><trkpt lat="46.02611262775387" lon="12.260535840960529"><ele>1085.0</ele><time>2026-03-29T10:21:12Z</time></trkpt><trkpt lat="46.02600935912164" lon="12.260592741560137"><ele>1085.0</ele><time>2026-03-29T10:21:13Z</time></trkpt><trkpt lat="46.02591367623402" lon="12.260631718915329"><ele>1085.0</ele><time>2026-03-29T10:21:14Z</time></trkpt><trkpt lat="46.02582477957463" lon="12.26063506621495"><ele>1085.0</ele><time>2026-03-29T10:21:15Z</time></trkpt><trkpt lat="46.02573715517636" lon="12.260592325442005"><ele>1085.0</ele><time>2026-03-29T10:21:16Z</time></trkpt><trkpt lat="46.025655912751326" lon="12.260515940149673"><ele>1081.25</ele><time>2026-03-29T10:21:17Z</time></trkpt><trkpt lat="46.02557098637689" lon="12.260398702663888"><ele>1077.5</ele><time>2026-03-29T10:21:18Z</time></trkpt><trkpt lat="46.0254784170155" lon="12.26027248873248"><ele>1073.75</ele><time>2026-03-29T10:21:19Z</time></trkpt><trkpt lat="46.02538650335286" lon="12.26012497719475"><ele>1070.0</ele><time>2026-03-29T10:21:20Z</time></trkpt><trkpt lat="46.025291623460426" lon="12.259973358644553"><ele>1070.0</ele><time>2026-03-29T10:21:21Z</time></trkpt><trkpt lat="46.02519422290417" lon="12.259817464766035"><ele>1070.0</ele><time>2026-03-29T10:21:22Z</time></trkpt><trkpt lat="46.025102797570504" lon="12.259657298817173"><ele>1070.0</ele><time>2026-03-29T10:21:23Z</time></trkpt><trkpt lat="46.025015540916684" lon="12.259495814205852"><ele>1070.0</ele><time>2026-03-29T10:21:24Z</time></trkpt><trkpt lat="46.02493776246909" lon="12.25933124399926"><ele>1067.25</ele><time>2026-03-29T10:21:25Z</time></trkpt><trkpt lat="46.0248638062127" lon="12.259175070537536"><ele>1064.5</ele><time>2026-03-29T10:21:26Z</time></trkpt><trkpt lat="46.02477841031987" lon="12.259025341964952"><ele>1061.75</ele><time>2026-03-29T10:21:27Z</time></trkpt><trkpt lat="46.02467976097812" lon="12.258895972538696"><ele>1059.0</ele><time>2026-03-29T10:21:28Z</time></trkpt><trkpt lat="46.024570384364424" lon="12.25878155836594"><ele>1059.0</ele><time>2026-03-29T10:21:29Z</time></trkpt><trkpt lat="46.024461546632274" lon="12.258667739255094"><ele>1059.0</ele><time>2026-03-29T10:21:30Z</time></trkpt><trkpt lat="46.02436888019726" lon="12.25853046692068"><ele>1059.0</ele><time>2026-03-29T10:21:31Z</time></trkpt><trkpt lat="46.0242815690859" lon="12.258370637447358"><ele>1059.0</ele><time>2026-03-29T10:21:32Z</time></trkpt><trkpt lat="46.0242009405516" lon="12.25820228736336"><ele>1058.6000000000001</ele><time>2026-03-29T10:21:33Z</time></trkpt><trkpt lat="46.024131580351586" lon="12.258039122195447"><ele>1058.2</ele><time>2026-03-29T10:21:34Z</time></trkpt><trkpt lat="46.02407363861967" lon="12.257896856568978"><ele>1057.8000000000002</ele><time>2026-03-29T10:21:35Z</time></trkpt><trkpt lat="46.024012860006486" lon="12.257797628099533"><ele>1057.4</ele><time>2026-03-29T10:21:36Z</time></trkpt><trkpt lat="46.023929661215185" lon="12.257732579699818"><ele>1057.0</ele><time>2026-03-29T10:21:37Z</time></trkpt><trkpt lat="46.02383390515663" lon="12.257696895535995"><ele>1057.0</ele><time>2026-03-29T10:21:38Z</time></trkpt><trkpt lat="46.02373628164394" lon="12.25766678290614"><ele>1057.0</ele><time>2026-03-29T10:21:39Z</time></trkpt><trkpt lat="46.0236369823529" lon="12.257628574705363"><ele>1057.0</ele><time>2026-03-29T10:21:40Z</time></trkpt><trkpt lat="46.023535022291604" lon="12.257579408497145"><ele>1057.0</ele><time>2026-03-29T10:21:41Z</time></trkpt><trkpt lat="46.023435492225595" lon="12.25752945877668"><ele>1057.0</ele><time>2026-03-29T10:21:42Z</time></trkpt><trkpt lat="46.023332267405245" lon="12.257481863499653"><ele>1051.75</ele><time>2026-03-29T10:21:43Z</time></trkpt><trkpt lat="46.02322761416801" lon="12.257430569473168"><ele>1046.5</ele><time>2026-03-29T10:21:44Z</time></trkpt><trkpt lat="46.02312012208586" lon="12.25739083261156"><ele>1041.25</ele><time>2026-03-29T10:21:45Z</time></trkpt><trkpt lat="46.0230058006014" lon="12.257355392683447"><ele>1036.0</ele><time>2026-03-29T10:21:46Z</time></trkpt><trkpt lat="46.0228901553603" lon="12.257320414936764"><ele>1034.3999999999999</ele><time>2026-03-29T10:21:47Z</time></trkpt><trkpt lat="46.02277249695088" lon="12.257283287378145"><ele>1032.8</ele><time>2026-03-29T10:21:48Z</time></trkpt><trkpt lat="46.02265578420826" lon="12.257248281198471"><ele>1031.1999999999998</ele><time>2026-03-29T10:21:49Z</time></trkpt><trkpt lat="46.02254543607394" lon="12.257217072112642"><ele>1029.6</ele><time>2026-03-29T10:21:50Z</time></trkpt><trkpt lat="46.022455532261084" lon="12.25716806053783"><ele>1028.0</ele><time>2026-03-29T10:21:51Z</time></trkpt><trkpt lat="46.02237413562864" lon="12.257097698190403"><ele>1028.0</ele><time>2026-03-29T10:21:52Z</time></trkpt><trkpt lat="46.022311435526575" lon="12.257006152338375"><ele>1028.0</ele><time>2026-03-29T10:21:53Z</time></trkpt><trkpt lat="46.02227018853144" lon="12.256907871771947"><ele>1028.0</ele><time>2026-03-29T10:21:54Z</time></trkpt><trkpt lat="46.022235773683576" lon="12.256807755198912"><ele>1028.0</ele><time>2026-03-29T10:21:54.999Z</time></trkpt><trkpt lat="46.02219960046949" lon="12.25671678972304"><ele>1028.0</ele><time>2026-03-29T10:21:55.999Z</time></trkpt><trkpt lat="46.02216242905414" lon="12.256640804247683"><ele>1028.0</ele><time>2026-03-29T10:21:56.999Z</time></trkpt><trkpt lat="46.02204825025568" lon="12.256553163219701"><ele>1028.0</ele><time>2026-03-29T10:21:58.999Z</time></trkpt><trkpt lat="46.021978243993594" lon="12.256543951255262"><ele>1028.0</ele><time>2026-03-29T10:21:59.999Z</time></trkpt><trkpt lat="46.02188679353955" lon="12.256544678211403"><ele>1028.0</ele><time>2026-03-29T10:22:00.999Z</time></trkpt><trkpt lat="46.021787087731724" lon="12.256541148195153"><ele>1028.0</ele><time>2026-03-29T10:22:01.999Z</time></trkpt><trkpt lat="46.02168637636273" lon="12.256521437788779"><ele>1028.0</ele><time>2026-03-29T10:22:02.999Z</time></trkpt><trkpt lat="46.02158500000594" lon="12.25648848188185"><ele>1025.75</ele><time>2026-03-29T10:22:03.999Z</time></trkpt><trkpt lat="46.0214854369664" lon="12.256438935978625"><ele>1023.5</ele><time>2026-03-29T10:22:04.999Z</time></trkpt><trkpt lat="46.02138457448605" lon="12.256357900363716"><ele>1021.25</ele><time>2026-03-29T10:22:05.999Z</time></trkpt><trkpt lat="46.02127752202685" lon="12.25625724016804"><ele>1019.0</ele><time>2026-03-29T10:22:06.999Z</time></trkpt><trkpt lat="46.021168443886054" lon="12.256137918450763"><ele>1019.0</ele><time>2026-03-29T10:22:07.999Z</time></trkpt><trkpt lat="46.02106182435567" lon="12.256014961331447"><ele>1019.0</ele><time>2026-03-29T10:22:08.999Z</time></trkpt><trkpt lat="46.02094954048313" lon="12.255905037330784"><ele>1019.0</ele><time>2026-03-29T10:22:09.999Z</time></trkpt><trkpt lat="46.02083334141885" lon="12.25579869447703"><ele>1019.0</ele><time>2026-03-29T10:22:10.999Z</time></trkpt><trkpt lat="46.02072269401886" lon="12.25567616551594"><ele>1012.25</ele><time>2026-03-29T10:22:11.999Z</time></trkpt><trkpt lat="46.02062651712516" lon="12.255529967446044"><ele>1005.5</ele><time>2026-03-29T10:22:12.999Z</time></trkpt><trkpt lat="46.02053124576625" lon="12.25538361223233"><ele>998.75</ele><time>2026-03-29T10:22:13.999Z</time></trkpt><trkpt lat="46.020426140761245" lon="12.25524661148564"><ele>992.0</ele><time>2026-03-29T10:22:14.999Z</time></trkpt><trkpt lat="46.020325042536285" lon="12.255131206568493"><ele>992.0</ele><time>2026-03-29T10:22:15.999Z</time></trkpt><trkpt lat="46.02024324759775" lon="12.255013790092333"><ele>992.0</ele><time>2026-03-29T10:22:16.999Z</time></trkpt><trkpt lat="46.02018368395834" lon="12.254871617732162"><ele>992.0</ele><time>2026-03-29T10:22:17.999Z</time></trkpt><trkpt lat="46.02014152410324" lon="12.254733197176726"><ele>992.0</ele><time>2026-03-29T10:22:18.999Z</time></trkpt><trkpt lat="46.020112962761246" lon="12.254617804164482"><ele>992.0</ele><time>2026-03-29T10:22:19.999Z</time></trkpt><trkpt lat="46.020089351718205" lon="12.2545322716133"><ele>992.3333333333334</ele><time>2026-03-29T10:22:20.999Z</time></trkpt><trkpt lat="46.02008383241648" lon="12.254387265670998"><ele>992.6666666666667</ele><time>2026-03-29T10:22:22.999Z</time></trkpt><trkpt lat="46.02009374337741" lon="12.254291085218993"><ele>993.0</ele><time>2026-03-29T10:22:25.999Z</time></trkpt><trkpt lat="46.02008296662641" lon="12.254163938901296"><ele>993.3333333333333</ele><time>2026-03-29T10:22:37.999Z</time></trkpt><trkpt lat="46.02008315469961" lon="12.254069182643802"><ele>993.6666666666666</ele><time>2026-03-29T10:22:38.999Z</time></trkpt><trkpt lat="46.020061273591494" lon="12.253911105097464"><ele>994.0</ele><time>2026-03-29T10:22:41Z</time></trkpt><trkpt lat="46.020024254929965" lon="12.253785884615663"><ele>992.8000000000001</ele><time>2026-03-29T10:22:43Z</time></trkpt><trkpt lat="46.020011754062025" lon="12.25364803539011"><ele>991.6000000000001</ele><time>2026-03-29T10:22:45Z</time></trkpt><trkpt lat="46.01998030044036" lon="12.253533555499633"><ele>990.4</ele><time>2026-03-29T10:22:47Z</time></trkpt><trkpt lat="46.0199066786912" lon="12.253556721369304"><ele>989.2</ele><time>2026-03-29T10:22:49Z</time></trkpt><trkpt lat="46.0198513955022" lon="12.25372400242923"><ele>988.0</ele><time>2026-03-29T10:22:51Z</time></trkpt><trkpt lat="46.019820538167735" lon="12.253819039345764"><ele>988.0</ele><time>2026-03-29T10:22:52Z</time></trkpt><trkpt lat="46.019767696259215" lon="12.253884107369581"><ele>988.0</ele><time>2026-03-29T10:22:53Z</time></trkpt><trkpt lat="46.01970802712946" lon="12.253939996245366"><ele>988.0</ele><time>2026-03-29T10:22:54Z</time></trkpt><trkpt lat="46.01965185880343" lon="12.253998620042388"><ele>988.0</ele><time>2026-03-29T10:22:55Z</time></trkpt><trkpt lat="46.0195960392697" lon="12.254060995052726"><ele>988.0</ele><time>2026-03-29T10:22:56Z</time></trkpt><trkpt lat="46.0195393645221" lon="12.254135150670074"><ele>988.0</ele><time>2026-03-29T10:22:57Z</time></trkpt><trkpt lat="46.01948761106678" lon="12.254210348615507"><ele>988.0</ele><time>2026-03-29T10:22:58Z</time></trkpt><trkpt lat="46.01945369232174" lon="12.254289935943078"><ele>988.0</ele><time>2026-03-29T10:22:59Z</time></trkpt><trkpt lat="46.0193917426076" lon="12.254375407812427"><ele>988.0</ele><time>2026-03-29T10:23:01Z</time></trkpt><trkpt lat="46.01933600647334" lon="12.254278442413822"><ele>988.0</ele><time>2026-03-29T10:23:04Z</time></trkpt><trkpt lat="46.01939038766849" lon="12.254135679996967"><ele>988.0</ele><time>2026-03-29T10:23:06Z</time></trkpt><trkpt lat="46.01943984892528" lon="12.253992410128134"><ele>988.0</ele><time>2026-03-29T10:23:08Z</time></trkpt><trkpt lat="46.01949389415908" lon="12.253825283730224"><ele>987.9999999999999</ele><time>2026-03-29T10:23:10Z</time></trkpt><trkpt lat="46.0195065479041" lon="12.253678050804538"><ele>988.0</ele><time>2026-03-29T10:23:12Z</time></trkpt><trkpt lat="46.01944097847179" lon="12.25363460555043"><ele>988.0</ele><time>2026-03-29T10:23:14Z</time></trkpt><trkpt lat="46.01937880979843" lon="12.253661839084096"><ele>988.0</ele><time>2026-03-29T10:23:15Z</time></trkpt><trkpt lat="46.01930875824457" lon="12.253740029392121"><ele>987.9999999999999</ele><time>2026-03-29T10:23:16Z</time></trkpt><trkpt lat="46.01924119464763" lon="12.253784460703073"><ele>988.0</ele><time>2026-03-29T10:23:17Z</time></trkpt><trkpt lat="46.019165163985996" lon="12.253831922894111"><ele>986.9999999999999</ele><time>2026-03-29T10:23:18Z</time></trkpt><trkpt lat="46.019096132215225" lon="12.253872190379502"><ele>986.0</ele><time>2026-03-29T10:23:19Z</time></trkpt><trkpt lat="46.019017611197036" lon="12.253852672605218"><ele>985.0</ele><time>2026-03-29T10:23:20Z</time></trkpt><trkpt lat="46.018941270040706" lon="12.253860349088608"><ele>984.0</ele><time>2026-03-29T10:23:21Z</time></trkpt><trkpt lat="46.01885278001512" lon="12.253890620973092"><ele>982.9999999999999</ele><time>2026-03-29T10:23:22Z</time></trkpt><trkpt lat="46.018763482134155" lon="12.25392004213881"><ele>982.0</ele><time>2026-03-29T10:23:23Z</time></trkpt><trkpt lat="46.01869525801265" lon="12.253970980658698"><ele>978.6666666666666</ele><time>2026-03-29T10:23:24Z</time></trkpt><trkpt lat="46.01863355327204" lon="12.254027967553558"><ele>975.3333333333333</ele><time>2026-03-29T10:23:25Z</time></trkpt><trkpt lat="46.01858617932824" lon="12.254090741017103"><ele>972.0</ele><time>2026-03-29T10:23:26Z</time></trkpt><trkpt lat="46.018526692054756" lon="12.254235904539861"><ele>968.6666666666667</ele><time>2026-03-29T10:23:28Z</time></trkpt><trkpt lat="46.01848619553096" lon="12.254309207022706"><ele>965.3333333333334</ele><time>2026-03-29T10:23:29Z</time></trkpt><trkpt lat="46.018440451349704" lon="12.254372917146725"><ele>962.0</ele><time>2026-03-29T10:23:30Z</time></trkpt><trkpt lat="46.01837961569573" lon="12.254414918893698"><ele>959.5000000000001</ele><time>2026-03-29T10:23:31Z</time></trkpt><trkpt lat="46.01830820590849" lon="12.254445791307424"><ele>957.0</ele><time>2026-03-29T10:23:32Z</time></trkpt><trkpt lat="46.01822839038308" lon="12.254461772246335"><ele>954.5</ele><time>2026-03-29T10:23:33Z</time></trkpt><trkpt lat="46.018155782916025" lon="12.254479529734398"><ele>952.0</ele><time>2026-03-29T10:23:34Z</time></trkpt><trkpt lat="46.01808314685863" lon="12.254507789511432"><ele>949.5000000000001</ele><time>2026-03-29T10:23:35Z</time></trkpt><trkpt lat="46.01800860397767" lon="12.254529846673117"><ele>947.0</ele><time>2026-03-29T10:23:36Z</time></trkpt><trkpt lat="46.01792606625775" lon="12.254554197666572"><ele>947.0000000000001</ele><time>2026-03-29T10:23:37Z</time></trkpt><trkpt lat="46.0178382340944" lon="12.254578589570668"><ele>947.0</ele><time>2026-03-29T10:23:38Z</time></trkpt><trkpt lat="46.0177432327807" lon="12.2546047758194"><ele>947.0</ele><time>2026-03-29T10:23:39Z</time></trkpt><trkpt lat="46.01765425766042" lon="12.254622448090736"><ele>947.0</ele><time>2026-03-29T10:23:40Z</time></trkpt><trkpt lat="46.01758226179291" lon="12.254628797446228"><ele>947.0000000000001</ele><time>2026-03-29T10:23:41Z</time></trkpt><trkpt lat="46.01751647423319" lon="12.254611404118497"><ele>947.0</ele><time>2026-03-29T10:23:42Z</time></trkpt><trkpt lat="46.017456906010075" lon="12.254576165456381"><ele>943.7142857142857</ele><time>2026-03-29T10:23:43Z</time></trkpt><trkpt lat="46.017398630314155" lon="12.254517268215194"><ele>940.4285714285713</ele><time>2026-03-29T10:23:44Z</time></trkpt><trkpt lat="46.017352441411994" lon="12.254448591602218"><ele>937.1428571428571</ele><time>2026-03-29T10:23:45Z</time></trkpt><trkpt lat="46.01731369357518" lon="12.25437071156621"><ele>933.8571428571429</ele><time>2026-03-29T10:23:46Z</time></trkpt><trkpt lat="46.01727794435033" lon="12.254292752291434"><ele>930.5714285714286</ele><time>2026-03-29T10:23:47Z</time></trkpt><trkpt lat="46.01724367160638" lon="12.25421516247433"><ele>927.2857142857142</ele><time>2026-03-29T10:23:48Z</time></trkpt><trkpt lat="46.01720175346143" lon="12.254140812029338"><ele>924.0</ele><time>2026-03-29T10:23:49Z</time></trkpt><trkpt lat="46.01715259487488" lon="12.25407323436731"><ele>924.0</ele><time>2026-03-29T10:23:50Z</time></trkpt><trkpt lat="46.01710217357508" lon="12.25400819897426"><ele>924.0</ele><time>2026-03-29T10:23:51Z</time></trkpt><trkpt lat="46.01703986609111" lon="12.253962828190886"><ele>924.0</ele><time>2026-03-29T10:23:52Z</time></trkpt><trkpt lat="46.01694953956606" lon="12.253917123896642"><ele>924.0</ele><time>2026-03-29T10:23:54Z</time></trkpt><trkpt lat="46.01690351650293" lon="12.253846107825792"><ele>924.0</ele><time>2026-03-29T10:23:57Z</time></trkpt><trkpt lat="46.01687008119614" lon="12.253742029604627"><ele>924.0</ele><time>2026-03-29T10:23:59Z</time></trkpt><trkpt lat="46.01685468076653" lon="12.253628507083869"><ele>923.6666666666666</ele><time>2026-03-29T10:24:00Z</time></trkpt><trkpt lat="46.01683124368801" lon="12.253513005025615"><ele>923.3333333333333</ele><time>2026-03-29T10:24:00.999Z</time></trkpt><trkpt lat="46.01680126298287" lon="12.253401137174954"><ele>923.0</ele><time>2026-03-29T10:24:01.999Z</time></trkpt><trkpt lat="46.01677599767394" lon="12.253286336826315"><ele>922.6666666666666</ele><time>2026-03-29T10:24:02.999Z</time></trkpt><trkpt lat="46.01675330523983" lon="12.253173918121334"><ele>922.3333333333333</ele><time>2026-03-29T10:24:03.999Z</time></trkpt><trkpt lat="46.01673999268483" lon="12.253055097001429"><ele>922.0</ele><time>2026-03-29T10:24:04.999Z</time></trkpt><trkpt lat="46.01673787733103" lon="12.25293395224491"><ele>920.6666666666666</ele><time>2026-03-29T10:24:05.999Z</time></trkpt><trkpt lat="46.01674917008495" lon="12.252812933601875"><ele>919.3333333333333</ele><time>2026-03-29T10:24:06.999Z</time></trkpt><trkpt lat="46.016769031049535" lon="12.25269487521077"><ele>918.0</ele><time>2026-03-29T10:24:07.999Z</time></trkpt><trkpt lat="46.01678569537779" lon="12.252575203382156"><ele>916.6666666666667</ele><time>2026-03-29T10:24:08.999Z</time></trkpt><trkpt lat="46.01679424754001" lon="12.252458420514087"><ele>915.3333333333334</ele><time>2026-03-29T10:24:09.999Z</time></trkpt><trkpt lat="46.016800898799765" lon="12.25234795142356"><ele>914.0</ele><time>2026-03-29T10:24:10.999Z</time></trkpt><trkpt lat="46.01681342164407" lon="12.252246186608877"><ele>911.3333333333334</ele><time>2026-03-29T10:24:11.999Z</time></trkpt><trkpt lat="46.0168337860602" lon="12.252138102384405"><ele>908.6666666666667</ele><time>2026-03-29T10:24:12.999Z</time></trkpt><trkpt lat="46.01685964045104" lon="12.252029307430208"><ele>906.0</ele><time>2026-03-29T10:24:13.999Z</time></trkpt><trkpt lat="46.01689262236658" lon="12.251937917725236"><ele>903.3333333333333</ele><time>2026-03-29T10:24:14.999Z</time></trkpt><trkpt lat="46.01695431074251" lon="12.251834452801784"><ele>900.6666666666666</ele><time>2026-03-29T10:24:16.999Z</time></trkpt><trkpt lat="46.01702807252899" lon="12.251732461722414"><ele>898.0</ele><time>2026-03-29T10:24:18.999Z</time></trkpt><trkpt lat="46.017102766098326" lon="12.251660257853198"><ele>898.0</ele><time>2026-03-29T10:24:19.999Z</time></trkpt><trkpt lat="46.01718094687408" lon="12.251561363351742"><ele>898.0</ele><time>2026-03-29T10:24:20.999Z</time></trkpt><trkpt lat="46.017259860336736" lon="12.251435871310099"><ele>898.0</ele><time>2026-03-29T10:24:21.999Z</time></trkpt><trkpt lat="46.01732936091028" lon="12.25129929108188"><ele>898.0</ele><time>2026-03-29T10:24:22.999Z</time></trkpt><trkpt lat="46.01740869427275" lon="12.251152156818728"><ele>903.25</ele><time>2026-03-29T10:24:23.999Z</time></trkpt><trkpt lat="46.017506366779706" lon="12.251017958772204"><ele>908.5</ele><time>2026-03-29T10:24:24.999Z</time></trkpt><trkpt lat="46.01760970003808" lon="12.250901109239374"><ele>913.75</ele><time>2026-03-29T10:24:25.999Z</time></trkpt><trkpt lat="46.01770919169265" lon="12.250779879232557"><ele>919.0</ele><time>2026-03-29T10:24:26.999Z</time></trkpt><trkpt lat="46.017813694812276" lon="12.25066457947963"><ele>915.0</ele><time>2026-03-29T10:24:27.999Z</time></trkpt><trkpt lat="46.01791179257829" lon="12.250534311164959"><ele>911.0</ele><time>2026-03-29T10:24:28.999Z</time></trkpt><trkpt lat="46.01801524712203" lon="12.250420517144335"><ele>907.0</ele><time>2026-03-29T10:24:29.999Z</time></trkpt><trkpt lat="46.01810814428479" lon="12.2503022216116"><ele>903.0</ele><time>2026-03-29T10:24:30.999Z</time></trkpt><trkpt lat="46.018186899820044" lon="12.250165308442753"><ele>903.0</ele><time>2026-03-29T10:24:31.999Z</time></trkpt><trkpt lat="46.018253825374956" lon="12.250005794466594"><ele>903.0</ele><time>2026-03-29T10:24:32.999Z</time></trkpt><trkpt lat="46.01829527619456" lon="12.249838745855321"><ele>903.0</ele><time>2026-03-29T10:24:33.999Z</time></trkpt><trkpt lat="46.01833108427044" lon="12.249699055704227"><ele>903.0</ele><time>2026-03-29T10:24:34.999Z</time></trkpt><trkpt lat="46.018349344336166" lon="12.249576592053936"><ele>903.0</ele><time>2026-03-29T10:24:35.999Z</time></trkpt><trkpt lat="46.01833551654008" lon="12.249454654257459"><ele>903.8</ele><time>2026-03-29T10:24:36.999Z</time></trkpt><trkpt lat="46.01829640613479" lon="12.249326399198353"><ele>904.5999999999999</ele><time>2026-03-29T10:24:37.999Z</time></trkpt><trkpt lat="46.018246837543586" lon="12.249201641022706"><ele>905.4000000000001</ele><time>2026-03-29T10:24:39Z</time></trkpt><trkpt lat="46.01819859565238" lon="12.249067954584227"><ele>906.2</ele><time>2026-03-29T10:24:40Z</time></trkpt><trkpt lat="46.018192983685076" lon="12.248934306499843"><ele>907.0</ele><time>2026-03-29T10:24:41Z</time></trkpt><trkpt lat="46.018217243787085" lon="12.248797704510155"><ele>908.8</ele><time>2026-03-29T10:24:42Z</time></trkpt><trkpt lat="46.01826706125255" lon="12.248678079823877"><ele>910.6</ele><time>2026-03-29T10:24:43Z</time></trkpt><trkpt lat="46.018322338968524" lon="12.248554856437675"><ele>912.3999999999999</ele><time>2026-03-29T10:24:44Z</time></trkpt><trkpt lat="46.01836563106945" lon="12.248423394597744"><ele>914.1999999999999</ele><time>2026-03-29T10:24:45Z</time></trkpt><trkpt lat="46.01836573170682" lon="12.248284025602107"><ele>916.0</ele><time>2026-03-29T10:24:46Z</time></trkpt><trkpt lat="46.01831660116231" lon="12.248163428644464"><ele>917.8</ele><time>2026-03-29T10:24:47Z</time></trkpt><trkpt lat="46.01823989887867" lon="12.248070603838901"><ele>919.5999999999999</ele><time>2026-03-29T10:24:48Z</time></trkpt><trkpt lat="46.018173993256184" lon="12.247958052667954"><ele>921.4</ele><time>2026-03-29T10:24:49Z</time></trkpt><trkpt lat="46.018146506004655" lon="12.247821299405633"><ele>923.2</ele><time>2026-03-29T10:24:50Z</time></trkpt><trkpt lat="46.01814230541368" lon="12.247684814241055"><ele>925.0</ele><time>2026-03-29T10:24:51Z</time></trkpt><trkpt lat="46.01817555337437" lon="12.247559419035156"><ele>925.0</ele><time>2026-03-29T10:24:52Z</time></trkpt><trkpt lat="46.018222808168495" lon="12.247434616735312"><ele>925.0</ele><time>2026-03-29T10:24:53Z</time></trkpt><trkpt lat="46.01828330607417" lon="12.24731588316"><ele>925.0</ele><time>2026-03-29T10:24:54Z</time></trkpt><trkpt lat="46.01835866198132" lon="12.247238570644328"><ele>925.0</ele><time>2026-03-29T10:24:55Z</time></trkpt><trkpt lat="46.01844653511523" lon="12.247195565632323"><ele>925.0</ele><time>2026-03-29T10:24:56Z</time></trkpt><trkpt lat="46.01851889649787" lon="12.247139168246358"><ele>927.1666666666666</ele><time>2026-03-29T10:24:57Z</time></trkpt><trkpt lat="46.018546911434264" lon="12.24704540048412"><ele>929.3333333333333</ele><time>2026-03-29T10:24:58Z</time></trkpt><trkpt lat="46.018541456272914" lon="12.246938604423377"><ele>931.5</ele><time>2026-03-29T10:24:59Z</time></trkpt><trkpt lat="46.01850941893813" lon="12.246838467012541"><ele>933.6666666666667</ele><time>2026-03-29T10:25:00Z</time></trkpt><trkpt lat="46.01844590506822" lon="12.246751294680925"><ele>935.8333333333334</ele><time>2026-03-29T10:25:01Z</time></trkpt><trkpt lat="46.018344276850634" lon="12.246680566814522"><ele>938.0</ele><time>2026-03-29T10:25:02Z</time></trkpt><trkpt lat="46.01824037797117" lon="12.246617838703894"><ele>938.0</ele><time>2026-03-29T10:25:03Z</time></trkpt><trkpt lat="46.0181670951489" lon="12.246503302941365"><ele>938.0</ele><time>2026-03-29T10:25:04Z</time></trkpt><trkpt lat="46.01810440955654" lon="12.24636643134675"><ele>938.0</ele><time>2026-03-29T10:25:05Z</time></trkpt><trkpt lat="46.01806845075877" lon="12.246211900926163"><ele>938.0</ele><time>2026-03-29T10:25:06Z</time></trkpt><trkpt lat="46.0180461518855" lon="12.246059602577859"><ele>938.0</ele><time>2026-03-29T10:25:07Z</time></trkpt><trkpt lat="46.018047149057026" lon="12.245906835512507"><ele>940.2</ele><time>2026-03-29T10:25:08Z</time></trkpt><trkpt lat="46.01806263493747" lon="12.245752064617516"><ele>942.4</ele><time>2026-03-29T10:25:09Z</time></trkpt><trkpt lat="46.01806862746359" lon="12.245593847511808"><ele>944.6000000000001</ele><time>2026-03-29T10:25:10Z</time></trkpt><trkpt lat="46.01807801774546" lon="12.245433721657239"><ele>946.8000000000001</ele><time>2026-03-29T10:25:11Z</time></trkpt><trkpt lat="46.01809180709255" lon="12.245278540776802"><ele>949.0</ele><time>2026-03-29T10:25:12Z</time></trkpt><trkpt lat="46.018120711451864" lon="12.245132727910905"><ele>949.0</ele><time>2026-03-29T10:25:13Z</time></trkpt><trkpt lat="46.0181600654851" lon="12.244991789146688"><ele>949.0000000000001</ele><time>2026-03-29T10:25:14Z</time></trkpt><trkpt lat="46.018226701903075" lon="12.244870294144587"><ele>949.0000000000001</ele><time>2026-03-29T10:25:15Z</time></trkpt><trkpt lat="46.01830656178243" lon="12.244766194625429"><ele>949.0</ele><time>2026-03-29T10:25:16Z</time></trkpt><trkpt lat="46.0183960272299" lon="12.244669920010235"><ele>949.0</ele><time>2026-03-29T10:25:17Z</time></trkpt><trkpt lat="46.01848681088927" lon="12.244576251704359"><ele>954.0</ele><time>2026-03-29T10:25:18Z</time></trkpt><trkpt lat="46.018582553918996" lon="12.244498517686855"><ele>959.0000000000001</ele><time>2026-03-29T10:25:19Z</time></trkpt><trkpt lat="46.018678006114534" lon="12.244425674415186"><ele>964.0000000000001</ele><time>2026-03-29T10:25:20Z</time></trkpt><trkpt lat="46.0187740392428" lon="12.244352516372278"><ele>969.0</ele><time>2026-03-29T10:25:21Z</time></trkpt><trkpt lat="46.01886547044881" lon="12.244297946585238"><ele>974.0</ele><time>2026-03-29T10:25:22Z</time></trkpt><trkpt lat="46.018963266094254" lon="12.244267814521345"><ele>974.0</ele><time>2026-03-29T10:25:23Z</time></trkpt><trkpt lat="46.01903957359722" lon="12.24426241119579"><ele>974.0000000000001</ele><time>2026-03-29T10:25:24Z</time></trkpt><trkpt lat="46.01911974967877" lon="12.24414313197954"><ele>974.0000000000001</ele><time>2026-03-29T10:25:26Z</time></trkpt><trkpt lat="46.019114195235154" lon="12.244031486724458"><ele>974.0</ele><time>2026-03-29T10:25:27Z</time></trkpt><trkpt lat="46.01906828358275" lon="12.243909416594018"><ele>974.0</ele><time>2026-03-29T10:25:28Z</time></trkpt><trkpt lat="46.01900579627542" lon="12.24377583712428"><ele>976.0</ele><time>2026-03-29T10:25:29Z</time></trkpt><trkpt lat="46.01894236143361" lon="12.243621573306022"><ele>978.0</ele><time>2026-03-29T10:25:30Z</time></trkpt><trkpt lat="46.01887793862463" lon="12.24344472975816"><ele>980.0</ele><time>2026-03-29T10:25:31Z</time></trkpt><trkpt lat="46.01882687339423" lon="12.2432832930713"><ele>982.0</ele><time>2026-03-29T10:25:32Z</time></trkpt><trkpt lat="46.01878452290129" lon="12.243100871945268"><ele>985.6666666666666</ele><time>2026-03-29T10:25:33Z</time></trkpt><trkpt lat="46.01874812193755" lon="12.242895805737597"><ele>989.3333333333333</ele><time>2026-03-29T10:25:34Z</time></trkpt><trkpt lat="46.018706329126914" lon="12.24268421416788"><ele>993.0</ele><time>2026-03-29T10:25:35Z</time></trkpt><trkpt lat="46.0186502934233" lon="12.242460914981281"><ele>996.6666666666667</ele><time>2026-03-29T10:25:36Z</time></trkpt><trkpt lat="46.01859943529099" lon="12.242226541009572"><ele>1000.3333333333334</ele><time>2026-03-29T10:25:37Z</time></trkpt><trkpt lat="46.01856240570953" lon="12.24198442635644"><ele>1004.0</ele><time>2026-03-29T10:25:38Z</time></trkpt><trkpt lat="46.018541054145494" lon="12.241742914431873"><ele>1004.0</ele><time>2026-03-29T10:25:39Z</time></trkpt><trkpt lat="46.01852942187858" lon="12.241492993374793"><ele>1004.0</ele><time>2026-03-29T10:25:40Z</time></trkpt><trkpt lat="46.01851248734562" lon="12.241215872819398"><ele>1004.0</ele><time>2026-03-29T10:25:41Z</time></trkpt><trkpt lat="46.01847647100849" lon="12.240943797314793"><ele>1001.25</ele><time>2026-03-29T10:25:42Z</time></trkpt><trkpt lat="46.01844704207428" lon="12.240708509458246"><ele>998.5</ele><time>2026-03-29T10:25:43Z</time></trkpt><trkpt lat="46.01842248417907" lon="12.240499718698034"><ele>995.75</ele><time>2026-03-29T10:25:44Z</time></trkpt><trkpt lat="46.01837134828646" lon="12.240322506218655"><ele>993.0</ele><time>2026-03-29T10:25:45Z</time></trkpt><trkpt lat="46.01829705449711" lon="12.24015708693315"><ele>993.0</ele><time>2026-03-29T10:25:46Z</time></trkpt><trkpt lat="46.01826947272223" lon="12.239990171763658"><ele>993.0</ele><time>2026-03-29T10:25:47Z</time></trkpt><trkpt lat="46.01825966448164" lon="12.23983085688015"><ele>993.0</ele><time>2026-03-29T10:25:48Z</time></trkpt><trkpt lat="46.018256787170294" lon="12.239669143373627"><ele>993.0</ele><time>2026-03-29T10:25:49Z</time></trkpt><trkpt lat="46.01824769416683" lon="12.239520025703126"><ele>993.0</ele><time>2026-03-29T10:25:50Z</time></trkpt><trkpt lat="46.018215003127565" lon="12.239407218683214"><ele>995.1666666666666</ele><time>2026-03-29T10:25:51Z</time></trkpt><trkpt lat="46.018150257910186" lon="12.239327523493019"><ele>997.3333333333333</ele><time>2026-03-29T10:25:52Z</time></trkpt><trkpt lat="46.01805255097687" lon="12.239302122583771"><ele>999.5</ele><time>2026-03-29T10:25:53Z</time></trkpt><trkpt lat="46.01795237083933" lon="12.239291570939837"><ele>1001.6666666666666</ele><time>2026-03-29T10:25:54Z</time></trkpt><trkpt lat="46.01789156045173" lon="12.239211974387496"><ele>1003.8333333333333</ele><time>2026-03-29T10:25:55Z</time></trkpt><trkpt lat="46.017860276582475" lon="12.239114077785436"><ele>1006.0</ele><time>2026-03-29T10:25:56Z</time></trkpt><trkpt lat="46.01786599159848" lon="12.238999751970416"><ele>1011.0</ele><time>2026-03-29T10:25:57Z</time></trkpt><trkpt lat="46.01790427275543" lon="12.238900057985774"><ele>1015.9999999999999</ele><time>2026-03-29T10:25:58Z</time></trkpt><trkpt lat="46.017968607887084" lon="12.238818620282949"><ele>1020.9999999999999</ele><time>2026-03-29T10:25:59Z</time></trkpt><trkpt lat="46.01801175305967" lon="12.238696633738932"><ele>1026.0</ele><time>2026-03-29T10:26:00Z</time></trkpt><trkpt lat="46.01800886724732" lon="12.238549796031698"><ele>1031.0</ele><time>2026-03-29T10:26:01Z</time></trkpt><trkpt lat="46.01796291950649" lon="12.238403801296252"><ele>1031.0</ele><time>2026-03-29T10:26:02Z</time></trkpt><trkpt lat="46.017878210436095" lon="12.238256885904608"><ele>1031.0</ele><time>2026-03-29T10:26:03Z</time></trkpt><trkpt lat="46.01776742343518" lon="12.238134016256993"><ele>1031.0</ele><time>2026-03-29T10:26:04Z</time></trkpt><trkpt lat="46.01768351820813" lon="12.237992342738385"><ele>1031.0</ele><time>2026-03-29T10:26:05Z</time></trkpt><trkpt lat="46.017625231834295" lon="12.237820427970759"><ele>1034.3333333333335</ele><time>2026-03-29T10:26:06Z</time></trkpt><trkpt lat="46.01752941930294" lon="12.237681703579621"><ele>1037.6666666666667</ele><time>2026-03-29T10:26:06.999Z</time></trkpt><trkpt lat="46.01738615064564" lon="12.237557537794235"><ele>1041.0</ele><time>2026-03-29T10:26:07.999Z</time></trkpt><trkpt lat="46.01722777057727" lon="12.237453722284611"><ele>1041.0</ele><time>2026-03-29T10:26:08.999Z</time></trkpt><trkpt lat="46.01706614369206" lon="12.237361855395621"><ele>1041.0</ele><time>2026-03-29T10:26:09.999Z</time></trkpt><trkpt lat="46.0169410063169" lon="12.237283237006713"><ele>1041.0</ele><time>2026-03-29T10:26:10.999Z</time></trkpt><trkpt lat="46.01682875552577" lon="12.23719037165313"><ele>1041.0</ele><time>2026-03-29T10:26:11.999Z</time></trkpt><trkpt lat="46.01670553325027" lon="12.237073612281629"><ele>1039.3333333333333</ele><time>2026-03-29T10:26:12.999Z</time></trkpt><trkpt lat="46.01656580107357" lon="12.23692621751123"><ele>1037.6666666666665</ele><time>2026-03-29T10:26:13.999Z</time></trkpt><trkpt lat="46.016441737850634" lon="12.236761168364279"><ele>1036.0</ele><time>2026-03-29T10:26:14.999Z</time></trkpt><trkpt lat="46.016326563713115" lon="12.236608339750324"><ele>1041.0</ele><time>2026-03-29T10:26:15.999Z</time></trkpt><trkpt lat="46.01622115085364" lon="12.236447473300196"><ele>1046.0</ele><time>2026-03-29T10:26:16.999Z</time></trkpt><trkpt lat="46.01612616944" lon="12.23627464919339"><ele>1051.0</ele><time>2026-03-29T10:26:17.999Z</time></trkpt><trkpt lat="46.01606767841342" lon="12.236117527908506"><ele>1056.0</ele><time>2026-03-29T10:26:18.999Z</time></trkpt><trkpt lat="46.01601686313586" lon="12.235992449313379"><ele>1056.0</ele><time>2026-03-29T10:26:19.999Z</time></trkpt><trkpt lat="46.015988791037" lon="12.235873776794897"><ele>1056.0</ele><time>2026-03-29T10:26:20.999Z</time></trkpt><trkpt lat="46.015983740379575" lon="12.235739688990154"><ele>1056.0</ele><time>2026-03-29T10:26:21.999Z</time></trkpt><trkpt lat="46.01599218014911" lon="12.235602873749576"><ele>1056.0</ele><time>2026-03-29T10:26:22.999Z</time></trkpt><trkpt lat="46.01598200961877" lon="12.235439861420394"><ele>1056.0</ele><time>2026-03-29T10:26:23.999Z</time></trkpt><trkpt lat="46.015953072678386" lon="12.23526874461834"><ele>1056.0</ele><time>2026-03-29T10:26:24.999Z</time></trkpt><trkpt lat="46.015921376672644" lon="12.235091884478186"><ele>1056.0</ele><time>2026-03-29T10:26:25.999Z</time></trkpt><trkpt lat="46.0158460188933" lon="12.234929425778521"><ele>1056.0</ele><time>2026-03-29T10:26:26.999Z</time></trkpt><trkpt lat="46.01575209788565" lon="12.234780227856414"><ele>1056.0</ele><time>2026-03-29T10:26:27.999Z</time></trkpt><trkpt lat="46.015662381255765" lon="12.234642166416695"><ele>1056.0</ele><time>2026-03-29T10:26:28.999Z</time></trkpt><trkpt lat="46.015597297621355" lon="12.23448747625703"><ele>1056.0</ele><time>2026-03-29T10:26:29.999Z</time></trkpt><trkpt lat="46.01554459142976" lon="12.234303132015024"><ele>1056.0</ele><time>2026-03-29T10:26:30.999Z</time></trkpt><trkpt lat="46.01549451360254" lon="12.234080449505909"><ele>1056.0</ele><time>2026-03-29T10:26:31.999Z</time></trkpt><trkpt lat="46.01543741422603" lon="12.23384112303947"><ele>1062.3333333333333</ele><time>2026-03-29T10:26:33Z</time></trkpt><trkpt lat="46.01536010157878" lon="12.233604424300845"><ele>1068.6666666666665</ele><time>2026-03-29T10:26:34Z</time></trkpt><trkpt lat="46.015280349556" lon="12.233415309798888"><ele>1075.0</ele><time>2026-03-29T10:26:35Z</time></trkpt><trkpt lat="46.01520273665545" lon="12.233257394880768"><ele>1079.6</ele><time>2026-03-29T10:26:36Z</time></trkpt><trkpt lat="46.01512641363443" lon="12.233124718944385"><ele>1084.2</ele><time>2026-03-29T10:26:37Z</time></trkpt><trkpt lat="46.015072612221246" lon="12.23300181085948"><ele>1088.8</ele><time>2026-03-29T10:26:38Z</time></trkpt><trkpt lat="46.015035877781564" lon="12.232869171031098"><ele>1093.4</ele><time>2026-03-29T10:26:39Z</time></trkpt><trkpt lat="46.01502253959263" lon="12.232723652227666"><ele>1098.0</ele><time>2026-03-29T10:26:40Z</time></trkpt><trkpt lat="46.01500524296325" lon="12.232579211210075"><ele>1094.8</ele><time>2026-03-29T10:26:41Z</time></trkpt><trkpt lat="46.01497365664169" lon="12.232439021608647"><ele>1091.6</ele><time>2026-03-29T10:26:42Z</time></trkpt><trkpt lat="46.01492764915246" lon="12.232305677201923"><ele>1088.4</ele><time>2026-03-29T10:26:43Z</time></trkpt><trkpt lat="46.01487473554528" lon="12.23217105926296"><ele>1085.2</ele><time>2026-03-29T10:26:44Z</time></trkpt><trkpt lat="46.01482386213048" lon="12.232030765104346"><ele>1082.0</ele><time>2026-03-29T10:26:45Z</time></trkpt><trkpt lat="46.01477271246838" lon="12.23188939796024"><ele>1082.0</ele><time>2026-03-29T10:26:46Z</time></trkpt><trkpt lat="46.01471970855263" lon="12.23174686396955"><ele>1082.0</ele><time>2026-03-29T10:26:47Z</time></trkpt><trkpt lat="46.01465996619918" lon="12.231607484922721"><ele>1082.0</ele><time>2026-03-29T10:26:48Z</time></trkpt><trkpt lat="46.01459707386215" lon="12.231463745282579"><ele>1082.0</ele><time>2026-03-29T10:26:49Z</time></trkpt><trkpt lat="46.014539993033296" lon="12.231315046363623"><ele>1087.25</ele><time>2026-03-29T10:26:50Z</time></trkpt><trkpt lat="46.014479846377355" lon="12.23117189350339"><ele>1092.5</ele><time>2026-03-29T10:26:51Z</time></trkpt><trkpt lat="46.014400528508396" lon="12.231048907148251"><ele>1097.75</ele><time>2026-03-29T10:26:52Z</time></trkpt><trkpt lat="46.014310777667184" lon="12.230932529670353"><ele>1103.0</ele><time>2026-03-29T10:26:53Z</time></trkpt><trkpt lat="46.01421497082292" lon="12.230809229260128"><ele>1099.25</ele><time>2026-03-29T10:26:54Z</time></trkpt><trkpt lat="46.014131865002234" lon="12.230680159360546"><ele>1095.5</ele><time>2026-03-29T10:26:55Z</time></trkpt><trkpt lat="46.01405910057925" lon="12.230546903331994"><ele>1091.75</ele><time>2026-03-29T10:26:56Z</time></trkpt><trkpt lat="46.014000408189354" lon="12.230411857733964"><ele>1088.0</ele><time>2026-03-29T10:26:57Z</time></trkpt><trkpt lat="46.01393105543427" lon="12.23029941262221"><ele>1088.0</ele><time>2026-03-29T10:26:58Z</time></trkpt><trkpt lat="46.01386512342457" lon="12.23019139610156"><ele>1088.0</ele><time>2026-03-29T10:26:59Z</time></trkpt><trkpt lat="46.01380047244887" lon="12.230086436350646"><ele>1088.0</ele><time>2026-03-29T10:27:00Z</time></trkpt><trkpt lat="46.01374188971313" lon="12.229987078336535"><ele>1088.0</ele><time>2026-03-29T10:27:01Z</time></trkpt><trkpt lat="46.01368838240156" lon="12.229883229770781"><ele>1088.0</ele><time>2026-03-29T10:27:02Z</time></trkpt><trkpt lat="46.01363478913458" lon="12.229780925407345"><ele>1094.0</ele><time>2026-03-29T10:27:03Z</time></trkpt><trkpt lat="46.01358850050398" lon="12.229666946115277"><ele>1100.0</ele><time>2026-03-29T10:27:04Z</time></trkpt><trkpt lat="46.01354880917178" lon="12.229544292954325"><ele>1106.0</ele><time>2026-03-29T10:27:05Z</time></trkpt><trkpt lat="46.01351198270229" lon="12.22942397591167"><ele>1112.0</ele><time>2026-03-29T10:27:06Z</time></trkpt><trkpt lat="46.01346280701192" lon="12.229312870206135"><ele>1118.0</ele><time>2026-03-29T10:27:07Z</time></trkpt><trkpt lat="46.01340300127393" lon="12.22921214415933"><ele>1118.0</ele><time>2026-03-29T10:27:08Z</time></trkpt><trkpt lat="46.01333147774353" lon="12.22912454138837"><ele>1118.0</ele><time>2026-03-29T10:27:09Z</time></trkpt><trkpt lat="46.01325578204627" lon="12.229038859580179"><ele>1118.0</ele><time>2026-03-29T10:27:10Z</time></trkpt><trkpt lat="46.01318714448521" lon="12.228939826723412"><ele>1118.0</ele><time>2026-03-29T10:27:11Z</time></trkpt><trkpt lat="46.01312827326411" lon="12.22883213456864"><ele>1118.0</ele><time>2026-03-29T10:27:12Z</time></trkpt><trkpt lat="46.013066018496595" lon="12.22873195541091"><ele>1116.0</ele><time>2026-03-29T10:27:13Z</time></trkpt><trkpt lat="46.01300646008456" lon="12.22863153063328"><ele>1114.0</ele><time>2026-03-29T10:27:14Z</time></trkpt><trkpt lat="46.01295943082456" lon="12.228538290711166"><ele>1112.0</ele><time>2026-03-29T10:27:15Z</time></trkpt><trkpt lat="46.01292579664979" lon="12.228454620807627"><ele>1110.0</ele><time>2026-03-29T10:27:16Z</time></trkpt><trkpt lat="46.012919144918705" lon="12.228312134082737"><ele>1108.0</ele><time>2026-03-29T10:27:18Z</time></trkpt><trkpt lat="46.01298391948991" lon="12.22821089102887"><ele>1106.0</ele><time>2026-03-29T10:27:20Z</time></trkpt><trkpt lat="46.013072341567124" lon="12.228090195146798"><ele>1106.0</ele><time>2026-03-29T10:27:22Z</time></trkpt><trkpt lat="46.01311947151497" lon="12.228002873468842"><ele>1106.0</ele><time>2026-03-29T10:27:23Z</time></trkpt><trkpt lat="46.013163835768644" lon="12.227900653517942"><ele>1106.0</ele><time>2026-03-29T10:27:24Z</time></trkpt><trkpt lat="46.01320322845059" lon="12.227788611603936"><ele>1106.0</ele><time>2026-03-29T10:27:25Z</time></trkpt><trkpt lat="46.01323962252134" lon="12.22767073359715"><ele>1106.0</ele><time>2026-03-29T10:27:26Z</time></trkpt><trkpt lat="46.0132731456654" lon="12.227566177344036"><ele>1106.0</ele><time>2026-03-29T10:27:27Z</time></trkpt><trkpt lat="46.01330214902993" lon="12.227468316349825"><ele>1110.6</ele><time>2026-03-29T10:27:28Z</time></trkpt><trkpt lat="46.01332736867644" lon="12.227382194737581"><ele>1115.1999999999998</ele><time>2026-03-29T10:27:29Z</time></trkpt><trkpt lat="46.013375326097645" lon="12.227231926200533"><ele>1119.8000000000002</ele><time>2026-03-29T10:27:31Z</time></trkpt><trkpt lat="46.01341087559082" lon="12.227073541902463"><ele>1124.4</ele><time>2026-03-29T10:27:33Z</time></trkpt><trkpt lat="46.01345281668654" lon="12.226916629987002"><ele>1129.0</ele><time>2026-03-29T10:27:35Z</time></trkpt><trkpt lat="46.01350487975288" lon="12.226768005946358"><ele>1129.0</ele><time>2026-03-29T10:27:37Z</time></trkpt><trkpt lat="46.0135465709107" lon="12.226600051583391"><ele>1129.0</ele><time>2026-03-29T10:27:39.001Z</time></trkpt><trkpt lat="46.013571434157555" lon="12.226510803568749"><ele>1129.0</ele><time>2026-03-29T10:27:40.001Z</time></trkpt><trkpt lat="46.01360122937514" lon="12.2264225952936"><ele>1129.0</ele><time>2026-03-29T10:27:41.001Z</time></trkpt><trkpt lat="46.01363064457618" lon="12.226339048357557"><ele>1129.0</ele><time>2026-03-29T10:27:42.001Z</time></trkpt><trkpt lat="46.01368794387446" lon="12.226183323447131"><ele>1129.0</ele><time>2026-03-29T10:27:44.001Z</time></trkpt><trkpt lat="46.01373665996214" lon="12.226028916794629"><ele>1129.8</ele><time>2026-03-29T10:27:46.001Z</time></trkpt><trkpt lat="46.01378058561615" lon="12.225896469386116"><ele>1130.6000000000001</ele><time>2026-03-29T10:27:48.001Z</time></trkpt><trkpt lat="46.013825520599" lon="12.225764004122409"><ele>1131.4</ele><time>2026-03-29T10:27:50.001Z</time></trkpt><trkpt lat="46.013869603566725" lon="12.225610760148781"><ele>1132.2</ele><time>2026-03-29T10:27:52.001Z</time></trkpt><trkpt lat="46.01391436235618" lon="12.225466470467328"><ele>1133.0</ele><time>2026-03-29T10:27:54.001Z</time></trkpt><trkpt lat="46.01391306887632" lon="12.225341984685828"><ele>1131.0</ele><time>2026-03-29T10:27:56.001Z</time></trkpt><trkpt lat="46.013843039016464" lon="12.2252358206683"><ele>1129.0</ele><time>2026-03-29T10:27:58.001Z</time></trkpt><trkpt lat="46.013743993787784" lon="12.225147915532919"><ele>1127.0</ele><time>2026-03-29T10:28:00.001Z</time></trkpt><trkpt lat="46.01363478382966" lon="12.225062616176027"><ele>1125.0</ele><time>2026-03-29T10:28:02.001Z</time></trkpt><trkpt lat="46.01357732014782" lon="12.225021696132295"><ele>1123.0</ele><time>2026-03-29T10:28:03.001Z</time></trkpt><trkpt lat="46.01351555461713" lon="12.224984006922526"><ele>1123.0</ele><time>2026-03-29T10:28:04.001Z</time></trkpt><trkpt lat="46.013454653008615" lon="12.22494671981187"><ele>1123.0</ele><time>2026-03-29T10:28:05.001Z</time></trkpt><trkpt lat="46.0133513311813" lon="12.22488214976414"><ele>1123.0</ele><time>2026-03-29T10:28:07.001Z</time></trkpt><trkpt lat="46.01326772960827" lon="12.224834568285754"><ele>1123.0</ele><time>2026-03-29T10:28:09.001Z</time></trkpt><trkpt lat="46.01325751334856" lon="12.224742819155955"><ele>1123.0</ele><time>2026-03-29T10:28:12.999Z</time></trkpt><trkpt lat="46.013359592202626" lon="12.224762611452892"><ele>1123.0</ele><time>2026-03-29T10:28:15.999Z</time></trkpt><trkpt lat="46.0134521052308" lon="12.224807936632978"><ele>1123.0</ele><time>2026-03-29T10:28:17.999Z</time></trkpt><trkpt lat="46.01356955522983" lon="12.224846626571965"><ele>1123.0</ele><time>2026-03-29T10:28:19.999Z</time></trkpt><trkpt lat="46.01363946691898" lon="12.22485693501398"><ele>1123.0</ele><time>2026-03-29T10:28:20.999Z</time></trkpt><trkpt lat="46.01371427557613" lon="12.224865685986147"><ele>1123.0</ele><time>2026-03-29T10:28:21.999Z</time></trkpt><trkpt lat="46.01379035856541" lon="12.224878111711819"><ele>1123.0</ele><time>2026-03-29T10:28:22.999Z</time></trkpt><trkpt lat="46.0138691188976" lon="12.224889560861952"><ele>1123.0</ele><time>2026-03-29T10:28:23.999Z</time></trkpt><trkpt lat="46.013949099292546" lon="12.224896121228065"><ele>1122.9999999999998</ele><time>2026-03-29T10:28:25Z</time></trkpt><trkpt lat="46.01402594161544" lon="12.224910459056506"><ele>1123.0</ele><time>2026-03-29T10:28:26Z</time></trkpt><trkpt lat="46.01410120151209" lon="12.224941393228796"><ele>1123.0</ele><time>2026-03-29T10:28:27Z</time></trkpt><trkpt lat="46.01417270039698" lon="12.224983842033929"><ele>1123.0</ele><time>2026-03-29T10:28:28Z</time></trkpt><trkpt lat="46.01423879230758" lon="12.225033721325167"><ele>1123.0</ele><time>2026-03-29T10:28:29Z</time></trkpt><trkpt lat="46.01429603325528" lon="12.225074591438117"><ele>1122.9999999999998</ele><time>2026-03-29T10:28:30Z</time></trkpt><trkpt lat="46.01435607725801" lon="12.225108754629213"><ele>1123.0</ele><time>2026-03-29T10:28:31Z</time></trkpt><trkpt lat="46.0144278966543" lon="12.22512970225655"><ele>1121.5</ele><time>2026-03-29T10:28:32Z</time></trkpt><trkpt lat="46.01450431047385" lon="12.225145785360912"><ele>1120.0</ele><time>2026-03-29T10:28:33Z</time></trkpt><trkpt lat="46.01457182547231" lon="12.225153075380454"><ele>1118.5</ele><time>2026-03-29T10:28:34Z</time></trkpt><trkpt lat="46.014651589329105" lon="12.22516330656405"><ele>1117.0</ele><time>2026-03-29T10:28:35Z</time></trkpt><trkpt lat="46.01473593440169" lon="12.225159162694608"><ele>1115.5</ele><time>2026-03-29T10:28:36Z</time></trkpt><trkpt lat="46.014827116546236" lon="12.225143426024314"><ele>1114.0</ele><time>2026-03-29T10:28:37Z</time></trkpt><trkpt lat="46.01490967029451" lon="12.225113965979359"><ele>1114.0</ele><time>2026-03-29T10:28:38Z</time></trkpt><trkpt lat="46.014988175446845" lon="12.225070579948056"><ele>1114.0</ele><time>2026-03-29T10:28:39Z</time></trkpt><trkpt lat="46.01506541488885" lon="12.225026750401522"><ele>1114.0</ele><time>2026-03-29T10:28:40Z</time></trkpt><trkpt lat="46.01513424074171" lon="12.225004279934558"><ele>1114.0</ele><time>2026-03-29T10:28:41Z</time></trkpt><trkpt lat="46.01521013888637" lon="12.224997355944788"><ele>1114.0</ele><time>2026-03-29T10:28:42Z</time></trkpt><trkpt lat="46.01528467856822" lon="12.225007574214244"><ele>1114.0</ele><time>2026-03-29T10:28:43Z</time></trkpt><trkpt lat="46.015363227585844" lon="12.225043649649503"><ele>1114.0</ele><time>2026-03-29T10:28:44Z</time></trkpt><trkpt lat="46.01542578977119" lon="12.225062041391059"><ele>1114.0</ele><time>2026-03-29T10:28:45Z</time></trkpt><trkpt lat="46.01551621314032" lon="12.225089091691004"><ele>1114.0</ele><time>2026-03-29T10:28:46Z</time></trkpt><trkpt lat="46.01559759951182" lon="12.22513815913732"><ele>1114.0</ele><time>2026-03-29T10:28:47Z</time></trkpt><trkpt lat="46.01568626922339" lon="12.225160431133505"><ele>1114.0</ele><time>2026-03-29T10:28:48Z</time></trkpt><trkpt lat="46.01575813600704" lon="12.225199735118492"><ele>1114.0</ele><time>2026-03-29T10:28:49Z</time></trkpt><trkpt lat="46.015829416463575" lon="12.225230453185329"><ele>1112.4</ele><time>2026-03-29T10:28:50Z</time></trkpt><trkpt lat="46.01594947203212" lon="12.22523246767506"><ele>1110.8000000000002</ele><time>2026-03-29T10:28:52Z</time></trkpt><trkpt lat="46.01604462563484" lon="12.225180456887758"><ele>1109.1999999999998</ele><time>2026-03-29T10:28:54Z</time></trkpt><trkpt lat="46.016114798644885" lon="12.22517209739235"><ele>1107.6</ele><time>2026-03-29T10:28:56Z</time></trkpt><trkpt lat="46.016198081239736" lon="12.22520979631756"><ele>1106.0</ele><time>2026-03-29T10:28:59Z</time></trkpt><trkpt lat="46.01629614061022" lon="12.225272591593594"><ele>1106.0</ele><time>2026-03-29T10:29:02Z</time></trkpt><trkpt lat="46.01637453457106" lon="12.225282334881813"><ele>1106.0</ele><time>2026-03-29T10:29:04Z</time></trkpt><trkpt lat="46.016472258530236" lon="12.22524601217829"><ele>1106.0</ele><time>2026-03-29T10:29:06Z</time></trkpt><trkpt lat="46.01656062229865" lon="12.225248278787365"><ele>1106.0</ele><time>2026-03-29T10:29:08Z</time></trkpt><trkpt lat="46.016671825387725" lon="12.225329046990051"><ele>1106.0</ele><time>2026-03-29T10:29:10Z</time></trkpt><trkpt lat="46.01673452676052" lon="12.225363667527951"><ele>1104.0</ele><time>2026-03-29T10:29:11Z</time></trkpt><trkpt lat="46.016802363878234" lon="12.225369562194333"><ele>1102.0</ele><time>2026-03-29T10:29:12Z</time></trkpt><trkpt lat="46.016944375074175" lon="12.225373632524326"><ele>1100.0</ele><time>2026-03-29T10:29:14Z</time></trkpt><trkpt lat="46.01706272342405" lon="12.225357284888567"><ele>1098.0</ele><time>2026-03-29T10:29:16Z</time></trkpt><trkpt lat="46.01718998195853" lon="12.22537848701896"><ele>1098.0</ele><time>2026-03-29T10:29:18Z</time></trkpt><trkpt lat="46.017257678752756" lon="12.225408070296037"><ele>1098.0</ele><time>2026-03-29T10:29:19Z</time></trkpt><trkpt lat="46.01732535557528" lon="12.225435192976992"><ele>1098.0</ele><time>2026-03-29T10:29:20Z</time></trkpt><trkpt lat="46.017411482690086" lon="12.225430542175626"><ele>1098.0</ele><time>2026-03-29T10:29:21Z</time></trkpt><trkpt lat="46.01750539985339" lon="12.22541085266631"><ele>1098.0</ele><time>2026-03-29T10:29:22.001Z</time></trkpt><trkpt lat="46.01757912256933" lon="12.225399464111899"><ele>1098.0</ele><time>2026-03-29T10:29:23.001Z</time></trkpt><trkpt lat="46.017681510478596" lon="12.22541713898817"><ele>1096.0</ele><time>2026-03-29T10:29:25.001Z</time></trkpt><trkpt lat="46.017808520383305" lon="12.225440941908367"><ele>1094.0</ele><time>2026-03-29T10:29:27.001Z</time></trkpt><trkpt lat="46.01787534253327" lon="12.225476233600101"><ele>1092.0</ele><time>2026-03-29T10:29:28.001Z</time></trkpt><trkpt lat="46.017942972203166" lon="12.225493057033562"><ele>1090.0</ele><time>2026-03-29T10:29:29.001Z</time></trkpt><trkpt lat="46.018005086234794" lon="12.225513029237787"><ele>1088.0</ele><time>2026-03-29T10:29:30.001Z</time></trkpt><trkpt lat="46.018070269541255" lon="12.225525460091982"><ele>1086.0</ele><time>2026-03-29T10:29:31.001Z</time></trkpt><trkpt lat="46.01813678059716" lon="12.225524176496204"><ele>1086.0</ele><time>2026-03-29T10:29:32.001Z</time></trkpt><trkpt lat="46.01823615551149" lon="12.22555252390711"><ele>1086.0</ele><time>2026-03-29T10:29:34.001Z</time></trkpt><trkpt lat="46.01833474700484" lon="12.225572234745112"><ele>1086.0</ele><time>2026-03-29T10:29:36.001Z</time></trkpt><trkpt lat="46.01843869087809" lon="12.225586555113681"><ele>1086.0</ele><time>2026-03-29T10:29:38.001Z</time></trkpt><trkpt lat="46.01855996227158" lon="12.225587424676911"><ele>1086.0</ele><time>2026-03-29T10:29:40.001Z</time></trkpt><trkpt lat="46.018669300036365" lon="12.225671191948232"><ele>1081.8333333333333</ele><time>2026-03-29T10:29:42.001Z</time></trkpt><trkpt lat="46.01872032575724" lon="12.225737593422487"><ele>1077.6666666666667</ele><time>2026-03-29T10:29:43.001Z</time></trkpt><trkpt lat="46.01877629743183" lon="12.225791849945077"><ele>1073.5</ele><time>2026-03-29T10:29:44.001Z</time></trkpt><trkpt lat="46.01884744959876" lon="12.225836029711756"><ele>1069.3333333333335</ele><time>2026-03-29T10:29:45.001Z</time></trkpt><trkpt lat="46.01891393412742" lon="12.22585907405665"><ele>1065.1666666666667</ele><time>2026-03-29T10:29:46.001Z</time></trkpt><trkpt lat="46.01899847793236" lon="12.225891979713213"><ele>1061.0</ele><time>2026-03-29T10:29:47.001Z</time></trkpt><trkpt lat="46.01907800036791" lon="12.225910053834813"><ele>1058.6666666666667</ele><time>2026-03-29T10:29:48.001Z</time></trkpt><trkpt lat="46.01916084970246" lon="12.225928057803939"><ele>1056.3333333333335</ele><time>2026-03-29T10:29:49.001Z</time></trkpt><trkpt lat="46.019238612873856" lon="12.225952036906458"><ele>1054.0</ele><time>2026-03-29T10:29:50.001Z</time></trkpt><trkpt lat="46.019327841383976" lon="12.22596603002093"><ele>1051.6666666666667</ele><time>2026-03-29T10:29:51.001Z</time></trkpt><trkpt lat="46.019407881950315" lon="12.225976008824064"><ele>1049.3333333333333</ele><time>2026-03-29T10:29:52.001Z</time></trkpt><trkpt lat="46.01949022625966" lon="12.225971517489699"><ele>1047.0</ele><time>2026-03-29T10:29:53.001Z</time></trkpt><trkpt lat="46.0195725918946" lon="12.225983925156186"><ele>1047.0</ele><time>2026-03-29T10:29:54.001Z</time></trkpt><trkpt lat="46.019667784412945" lon="12.225975468460884"><ele>1047.0</ele><time>2026-03-29T10:29:55.001Z</time></trkpt><trkpt lat="46.019757182245854" lon="12.225995272714158"><ele>1047.0</ele><time>2026-03-29T10:29:56.001Z</time></trkpt><trkpt lat="46.01985147570629" lon="12.226003365013765"><ele>1047.0</ele><time>2026-03-29T10:29:57.001Z</time></trkpt><trkpt lat="46.01993970832582" lon="12.226005452721424"><ele>1047.0</ele><time>2026-03-29T10:29:58.001Z</time></trkpt><trkpt lat="46.020029976853145" lon="12.226015397163058"><ele>1044.8333333333333</ele><time>2026-03-29T10:29:59.001Z</time></trkpt><trkpt lat="46.020111310524186" lon="12.226024919796716"><ele>1042.6666666666667</ele><time>2026-03-29T10:30:00.001Z</time></trkpt><trkpt lat="46.02019178757017" lon="12.226053217743386"><ele>1040.5</ele><time>2026-03-29T10:30:01.001Z</time></trkpt><trkpt lat="46.02027188929552" lon="12.226087505157942"><ele>1038.3333333333335</ele><time>2026-03-29T10:30:02.001Z</time></trkpt><trkpt lat="46.020342321174724" lon="12.226114792720193"><ele>1036.1666666666667</ele><time>2026-03-29T10:30:03.001Z</time></trkpt><trkpt lat="46.02041339102806" lon="12.2261566487019"><ele>1034.0</ele><time>2026-03-29T10:30:04.001Z</time></trkpt><trkpt lat="46.02048724541396" lon="12.226216953872854"><ele>1034.0</ele><time>2026-03-29T10:30:05.001Z</time></trkpt><trkpt lat="46.02055984155732" lon="12.226276788032928"><ele>1034.0</ele><time>2026-03-29T10:30:06.001Z</time></trkpt><trkpt lat="46.02062833926314" lon="12.226328346595203"><ele>1034.0</ele><time>2026-03-29T10:30:07.001Z</time></trkpt><trkpt lat="46.02070084323931" lon="12.226335599131371"><ele>1034.0</ele><time>2026-03-29T10:30:08.001Z</time></trkpt><trkpt lat="46.02077894031296" lon="12.226335279990828"><ele>1034.0</ele><time>2026-03-29T10:30:09.001Z</time></trkpt><trkpt lat="46.02085612209232" lon="12.226343167956955"><ele>1034.0</ele><time>2026-03-29T10:30:10.001Z</time></trkpt><trkpt lat="46.0209291449797" lon="12.226355119795596"><ele>1032.3333333333335</ele><time>2026-03-29T10:30:11.001Z</time></trkpt><trkpt lat="46.02101099118791" lon="12.226371274847224"><ele>1030.6666666666667</ele><time>2026-03-29T10:30:12.001Z</time></trkpt><trkpt lat="46.02109660852165" lon="12.226382985648021"><ele>1029.0</ele><time>2026-03-29T10:30:13.001Z</time></trkpt><trkpt lat="46.02117859861019" lon="12.226397268024202"><ele>1027.3333333333333</ele><time>2026-03-29T10:30:14.001Z</time></trkpt><trkpt lat="46.02125699167485" lon="12.226389513486925"><ele>1025.6666666666665</ele><time>2026-03-29T10:30:15.001Z</time></trkpt><trkpt lat="46.02133842294813" lon="12.22638945714607"><ele>1024.0</ele><time>2026-03-29T10:30:16.001Z</time></trkpt><trkpt lat="46.02143339020342" lon="12.22641044898061"><ele>1024.0</ele><time>2026-03-29T10:30:17.001Z</time></trkpt><trkpt lat="46.02150044912712" lon="12.226455243507226"><ele>1024.0</ele><time>2026-03-29T10:30:18.001Z</time></trkpt><trkpt lat="46.021658338974675" lon="12.226440943935101"><ele>1024.0</ele><time>2026-03-29T10:30:20Z</time></trkpt><trkpt lat="46.02174746596673" lon="12.226415968059774"><ele>1024.0</ele><time>2026-03-29T10:30:21Z</time></trkpt><trkpt lat="46.02185575044302" lon="12.22645653875708"><ele>1024.0</ele><time>2026-03-29T10:30:23Z</time></trkpt><trkpt lat="46.02193870096057" lon="12.226602891358072"><ele>1019.4000000000001</ele><time>2026-03-29T10:30:25Z</time></trkpt><trkpt lat="46.021980355950944" lon="12.22668604295733"><ele>1014.8000000000001</ele><time>2026-03-29T10:30:26Z</time></trkpt><trkpt lat="46.022074040142876" lon="12.226744636879044"><ele>1010.1999999999999</ele><time>2026-03-29T10:30:28Z</time></trkpt><trkpt lat="46.022213730569185" lon="12.226674487002885"><ele>1005.5999999999999</ele><time>2026-03-29T10:30:30Z</time></trkpt><trkpt lat="46.02230125793314" lon="12.22663920058429"><ele>1001.0</ele><time>2026-03-29T10:30:31Z</time></trkpt><trkpt lat="46.022383835268904" lon="12.226631413491534"><ele>1001.0000000000001</ele><time>2026-03-29T10:30:32Z</time></trkpt><trkpt lat="46.02246344105358" lon="12.22661967999072"><ele>1001.0</ele><time>2026-03-29T10:30:33Z</time></trkpt><trkpt lat="46.02254706004825" lon="12.226581169349725"><ele>1001.0</ele><time>2026-03-29T10:30:34Z</time></trkpt><trkpt lat="46.02261912210041" lon="12.226526094630788"><ele>1001.0</ele><time>2026-03-29T10:30:35Z</time></trkpt><trkpt lat="46.02271827558621" lon="12.226451873786312"><ele>1001.0000000000001</ele><time>2026-03-29T10:30:37Z</time></trkpt><trkpt lat="46.02280076285863" lon="12.226485639423613"><ele>1001.0</ele><time>2026-03-29T10:30:39Z</time></trkpt><trkpt lat="46.02285497906209" lon="12.226563978181817"><ele>999.5000000000001</ele><time>2026-03-29T10:30:40Z</time></trkpt><trkpt lat="46.02291732593599" lon="12.226637259296396"><ele>998.0</ele><time>2026-03-29T10:30:41Z</time></trkpt><trkpt lat="46.02297684779944" lon="12.226714538104016"><ele>996.5</ele><time>2026-03-29T10:30:42Z</time></trkpt><trkpt lat="46.02303751241497" lon="12.226763597166638"><ele>995.0</ele><time>2026-03-29T10:30:43Z</time></trkpt><trkpt lat="46.023109993322144" lon="12.226799952280325"><ele>993.5000000000001</ele><time>2026-03-29T10:30:44Z</time></trkpt><trkpt lat="46.02319371778865" lon="12.226811929851342"><ele>992.0</ele><time>2026-03-29T10:30:45Z</time></trkpt><trkpt lat="46.02329506393384" lon="12.226823275260406"><ele>990.1666666666667</ele><time>2026-03-29T10:30:46Z</time></trkpt><trkpt lat="46.02338878005857" lon="12.226836250209425"><ele>988.3333333333334</ele><time>2026-03-29T10:30:47Z</time></trkpt><trkpt lat="46.0234811680975" lon="12.22686232865238"><ele>986.5</ele><time>2026-03-29T10:30:48Z</time></trkpt><trkpt lat="46.02356979363076" lon="12.226885027234049"><ele>984.6666666666667</ele><time>2026-03-29T10:30:49Z</time></trkpt><trkpt lat="46.023650389965944" lon="12.226906887330617"><ele>982.8333333333334</ele><time>2026-03-29T10:30:50Z</time></trkpt><trkpt lat="46.02372845301646" lon="12.22692078628551"><ele>981.0</ele><time>2026-03-29T10:30:51Z</time></trkpt><trkpt lat="46.02380864288457" lon="12.226922068352618"><ele>981.0</ele><time>2026-03-29T10:30:52Z</time></trkpt><trkpt lat="46.02388766026461" lon="12.226914971961707"><ele>980.9999999999999</ele><time>2026-03-29T10:30:53Z</time></trkpt><trkpt lat="46.023994955124195" lon="12.226957577286893"><ele>980.9999999999999</ele><time>2026-03-29T10:30:55Z</time></trkpt><trkpt lat="46.02403375700086" lon="12.227120992342149"><ele>981.0</ele><time>2026-03-29T10:30:57Z</time></trkpt><trkpt lat="46.02404641279466" lon="12.2272263499201"><ele>981.0</ele><time>2026-03-29T10:30:58Z</time></trkpt><trkpt lat="46.0241203469606" lon="12.227310123236757"><ele>981.6666666666666</ele><time>2026-03-29T10:31:00Z</time></trkpt><trkpt lat="46.02417938797402" lon="12.227272949213122"><ele>982.3333333333333</ele><time>2026-03-29T10:31:01Z</time></trkpt><trkpt lat="46.02423412559898" lon="12.227225424724992"><ele>983.0</ele><time>2026-03-29T10:31:02Z</time></trkpt><trkpt lat="46.02430419994157" lon="12.227183493951562"><ele>983.6666666666666</ele><time>2026-03-29T10:31:03Z</time></trkpt><trkpt lat="46.02438561396258" lon="12.227151469120114"><ele>984.3333333333333</ele><time>2026-03-29T10:31:04Z</time></trkpt><trkpt lat="46.02445093530069" lon="12.227118818270112"><ele>985.0</ele><time>2026-03-29T10:31:05Z</time></trkpt><trkpt lat="46.02455502739495" lon="12.227069053508826"><ele>985.0</ele><time>2026-03-29T10:31:07Z</time></trkpt><trkpt lat="46.02466636503569" lon="12.227139671916884"><ele>985.0</ele><time>2026-03-29T10:31:09.001Z</time></trkpt><trkpt lat="46.02473124575542" lon="12.227207352486515"><ele>985.0</ele><time>2026-03-29T10:31:10.001Z</time></trkpt><trkpt lat="46.02479991052653" lon="12.227224386830736"><ele>985.0</ele><time>2026-03-29T10:31:11.001Z</time></trkpt><trkpt lat="46.024917158484676" lon="12.22718841339516"><ele>985.0</ele><time>2026-03-29T10:31:13.001Z</time></trkpt><trkpt lat="46.02502507087654" lon="12.22715225079886"><ele>983.4</ele><time>2026-03-29T10:31:15.001Z</time></trkpt><trkpt lat="46.025151469688204" lon="12.227179659750437"><ele>981.8</ele><time>2026-03-29T10:31:17.001Z</time></trkpt><trkpt lat="46.02526518466513" lon="12.22721476128841"><ele>980.2</ele><time>2026-03-29T10:31:19.001Z</time></trkpt><trkpt lat="46.02537931054773" lon="12.227228290105428"><ele>978.6</ele><time>2026-03-29T10:31:21.001Z</time></trkpt><trkpt lat="46.02545285777068" lon="12.227164521106548"><ele>977.0</ele><time>2026-03-29T10:31:23.001Z</time></trkpt><trkpt lat="46.02555025240754" lon="12.227056086325911"><ele>977.0</ele><time>2026-03-29T10:31:25.001Z</time></trkpt><trkpt lat="46.02563587581824" lon="12.226993411596817"><ele>977.0</ele><time>2026-03-29T10:31:26.001Z</time></trkpt><trkpt lat="46.02573921792876" lon="12.226917371598313"><ele>977.0</ele><time>2026-03-29T10:31:27.001Z</time></trkpt><trkpt lat="46.025837513968604" lon="12.226856230304287"><ele>977.0</ele><time>2026-03-29T10:31:28.001Z</time></trkpt><trkpt lat="46.02593188795254" lon="12.22681081969755"><ele>977.0</ele><time>2026-03-29T10:31:29.001Z</time></trkpt><trkpt lat="46.02604256234654" lon="12.226783465491351"><ele>974.25</ele><time>2026-03-29T10:31:30.001Z</time></trkpt><trkpt lat="46.026164205921326" lon="12.226753050840479"><ele>971.5</ele><time>2026-03-29T10:31:31.001Z</time></trkpt><trkpt lat="46.02628570545274" lon="12.226718113619334"><ele>968.75</ele><time>2026-03-29T10:31:32.001Z</time></trkpt><trkpt lat="46.02639481809374" lon="12.226692611372009"><ele>966.0</ele><time>2026-03-29T10:31:33.001Z</time></trkpt><trkpt lat="46.026511997704276" lon="12.226685299303199"><ele>966.0</ele><time>2026-03-29T10:31:34.001Z</time></trkpt><trkpt lat="46.02661873271627" lon="12.226678582129416"><ele>966.0</ele><time>2026-03-29T10:31:35.001Z</time></trkpt><trkpt lat="46.02671345602433" lon="12.22667873907532"><ele>966.0</ele><time>2026-03-29T10:31:36.001Z</time></trkpt><trkpt lat="46.02679617756753" lon="12.226667950309295"><ele>966.0</ele><time>2026-03-29T10:31:37.001Z</time></trkpt><trkpt lat="46.02686518186439" lon="12.226637657715775"><ele>966.0</ele><time>2026-03-29T10:31:38.001Z</time></trkpt><trkpt lat="46.02693447563799" lon="12.226601974379776"><ele>966.0</ele><time>2026-03-29T10:31:39.001Z</time></trkpt><trkpt lat="46.02701870644248" lon="12.226547831926709"><ele>967.8</ele><time>2026-03-29T10:31:40.001Z</time></trkpt><trkpt lat="46.02710764207425" lon="12.22647486543845"><ele>969.5999999999999</ele><time>2026-03-29T10:31:41.001Z</time></trkpt><trkpt lat="46.0271983536803" lon="12.226388861476469"><ele>971.4</ele><time>2026-03-29T10:31:42.001Z</time></trkpt><trkpt lat="46.02728257997389" lon="12.22629780513008"><ele>973.2</ele><time>2026-03-29T10:31:43.001Z</time></trkpt><trkpt lat="46.027359618247296" lon="12.226225258780058"><ele>975.0</ele><time>2026-03-29T10:31:44.001Z</time></trkpt><trkpt lat="46.02743376803597" lon="12.226152461173493"><ele>972.0</ele><time>2026-03-29T10:31:45.001Z</time></trkpt><trkpt lat="46.02751043569846" lon="12.226067983729662"><ele>969.0</ele><time>2026-03-29T10:31:46.001Z</time></trkpt><trkpt lat="46.027579736819916" lon="12.22598159430294"><ele>966.0</ele><time>2026-03-29T10:31:47.001Z</time></trkpt><trkpt lat="46.02764931283234" lon="12.225905826962808"><ele>963.0</ele><time>2026-03-29T10:31:48.001Z</time></trkpt><trkpt lat="46.02771688682648" lon="12.225840963941344"><ele>960.0</ele><time>2026-03-29T10:31:49.001Z</time></trkpt><trkpt lat="46.027784525073265" lon="12.225787339445136"><ele>957.0</ele><time>2026-03-29T10:31:50.001Z</time></trkpt><trkpt lat="46.02785177518076" lon="12.22574478110339"><ele>957.0</ele><time>2026-03-29T10:31:51.001Z</time></trkpt><trkpt lat="46.02791327823283" lon="12.225705549066646"><ele>957.0</ele><time>2026-03-29T10:31:52.001Z</time></trkpt><trkpt lat="46.028014167128454" lon="12.225624065118765"><ele>957.0</ele><time>2026-03-29T10:31:54.001Z</time></trkpt><trkpt lat="46.02811195661384" lon="12.225530043053862"><ele>957.0</ele><time>2026-03-29T10:31:56.001Z</time></trkpt><trkpt lat="46.02817617467354" lon="12.225474232071603"><ele>957.0</ele><time>2026-03-29T10:31:57.001Z</time></trkpt><trkpt lat="46.02825560388892" lon="12.225428900050652"><ele>956.8</ele><time>2026-03-29T10:31:58.001Z</time></trkpt><trkpt lat="46.0283438474148" lon="12.225396542054183"><ele>956.6</ele><time>2026-03-29T10:31:59.001Z</time></trkpt><trkpt lat="46.02844140578288" lon="12.225348389302617"><ele>956.3999999999999</ele><time>2026-03-29T10:32:00.001Z</time></trkpt><trkpt lat="46.02854498918371" lon="12.225294797030072"><ele>956.1999999999999</ele><time>2026-03-29T10:32:01.001Z</time></trkpt><trkpt lat="46.02864946488067" lon="12.225245157774188"><ele>956.0</ele><time>2026-03-29T10:32:02.001Z</time></trkpt><trkpt lat="46.02875470694218" lon="12.225185309132659"><ele>956.0</ele><time>2026-03-29T10:32:03.001Z</time></trkpt><trkpt lat="46.02885495967799" lon="12.225129677412315"><ele>955.9999999999999</ele><time>2026-03-29T10:32:04.001Z</time></trkpt><trkpt lat="46.028951770524486" lon="12.225083465186398"><ele>955.9999999999999</ele><time>2026-03-29T10:32:05.001Z</time></trkpt><trkpt lat="46.02904090091408" lon="12.22504147671008"><ele>956.0</ele><time>2026-03-29T10:32:06.001Z</time></trkpt><trkpt lat="46.02912300126354" lon="12.225013697689654"><ele>956.0</ele><time>2026-03-29T10:32:07.001Z</time></trkpt><trkpt lat="46.0292058037041" lon="12.225009077567021"><ele>953.5000000000001</ele><time>2026-03-29T10:32:08.001Z</time></trkpt><trkpt lat="46.02929252432913" lon="12.225015386932114"><ele>951.0</ele><time>2026-03-29T10:32:09.001Z</time></trkpt><trkpt lat="46.02937620816004" lon="12.225046578874606"><ele>948.5</ele><time>2026-03-29T10:32:10.001Z</time></trkpt><trkpt lat="46.029441859058906" lon="12.225085094127895"><ele>946.0</ele><time>2026-03-29T10:32:11.001Z</time></trkpt><trkpt lat="46.029504453016465" lon="12.225100333649097"><ele>943.5000000000001</ele><time>2026-03-29T10:32:12.001Z</time></trkpt><trkpt lat="46.02956827786313" lon="12.22508045116275"><ele>941.0</ele><time>2026-03-29T10:32:13.001Z</time></trkpt><trkpt lat="46.02963527231477" lon="12.225021348220992"><ele>941.0000000000001</ele><time>2026-03-29T10:32:14.001Z</time></trkpt><trkpt lat="46.02969635959794" lon="12.224932341893139"><ele>941.0</ele><time>2026-03-29T10:32:15.001Z</time></trkpt><trkpt lat="46.02975763508431" lon="12.224843083616026"><ele>941.0</ele><time>2026-03-29T10:32:16.001Z</time></trkpt><trkpt lat="46.029828971240114" lon="12.224787409791439"><ele>941.0</ele><time>2026-03-29T10:32:17.001Z</time></trkpt><trkpt lat="46.029920744912104" lon="12.224765653459663"><ele>941.0000000000001</ele><time>2026-03-29T10:32:18.001Z</time></trkpt><trkpt lat="46.030015399071665" lon="12.224767266743058"><ele>941.0</ele><time>2026-03-29T10:32:19.001Z</time></trkpt><trkpt lat="46.03010905214451" lon="12.224765254571683"><ele>942.8333333333334</ele><time>2026-03-29T10:32:20.001Z</time></trkpt><trkpt lat="46.030197487703305" lon="12.224742441941318"><ele>944.6666666666667</ele><time>2026-03-29T10:32:21.001Z</time></trkpt><trkpt lat="46.03029158710014" lon="12.224711063539113"><ele>946.5</ele><time>2026-03-29T10:32:22.001Z</time></trkpt><trkpt lat="46.03037248853826" lon="12.224692981866069"><ele>948.3333333333333</ele><time>2026-03-29T10:32:23.002Z</time></trkpt><trkpt lat="46.03044728771037" lon="12.224667135619816"><ele>950.1666666666666</ele><time>2026-03-29T10:32:24Z</time></trkpt><trkpt lat="46.03050611612994" lon="12.224615467858236"><ele>952.0</ele><time>2026-03-29T10:32:25Z</time></trkpt><trkpt lat="46.030571538289415" lon="12.224541946913465"><ele>952.0</ele><time>2026-03-29T10:32:26Z</time></trkpt><trkpt lat="46.030635434565134" lon="12.224448381745104"><ele>952.0</ele><time>2026-03-29T10:32:27Z</time></trkpt><trkpt lat="46.0306989014944" lon="12.224336752312254"><ele>952.0</ele><time>2026-03-29T10:32:28Z</time></trkpt><trkpt lat="46.03076425539325" lon="12.224213969055537"><ele>952.0</ele><time>2026-03-29T10:32:29Z</time></trkpt><trkpt lat="46.0308299853638" lon="12.224096861662561"><ele>952.0</ele><time>2026-03-29T10:32:30Z</time></trkpt><trkpt lat="46.03089085307375" lon="12.223975709071638"><ele>951.9999999999999</ele><time>2026-03-29T10:32:31Z</time></trkpt><trkpt lat="46.03095013287552" lon="12.223877288572535"><ele>952.0</ele><time>2026-03-29T10:32:32Z</time></trkpt><trkpt lat="46.03101117087251" lon="12.22377238564771"><ele>952.0</ele><time>2026-03-29T10:32:33Z</time></trkpt><trkpt lat="46.03107101387396" lon="12.223681149473212"><ele>952.0</ele><time>2026-03-29T10:32:34Z</time></trkpt><trkpt lat="46.03113281248452" lon="12.2236096185398"><ele>951.9999999999999</ele><time>2026-03-29T10:32:35Z</time></trkpt><trkpt lat="46.03119693630255" lon="12.223557480884033"><ele>952.0</ele><time>2026-03-29T10:32:36Z</time></trkpt><trkpt lat="46.03127475811354" lon="12.223518393294288"><ele>952.0</ele><time>2026-03-29T10:32:37Z</time></trkpt><trkpt lat="46.0313798864023" lon="12.22350365370534"><ele>952.0</ele><time>2026-03-29T10:32:38Z</time></trkpt><trkpt lat="46.03148289950891" lon="12.223487161576303"><ele>952.0</ele><time>2026-03-29T10:32:39Z</time></trkpt><trkpt lat="46.03157988641668" lon="12.223458953529832"><ele>952.0</ele><time>2026-03-29T10:32:40Z</time></trkpt><trkpt lat="46.03167114997836" lon="12.223426394458702"><ele>952.0</ele><time>2026-03-29T10:32:41Z</time></trkpt><trkpt lat="46.031758459500175" lon="12.223408142458503"><ele>949.4999999999999</ele><time>2026-03-29T10:32:42Z</time></trkpt><trkpt lat="46.031850493564335" lon="12.223399779084415"><ele>947.0</ele><time>2026-03-29T10:32:43Z</time></trkpt><trkpt lat="46.03193622945142" lon="12.223381457679114"><ele>944.5</ele><time>2026-03-29T10:32:44Z</time></trkpt><trkpt lat="46.032011556426355" lon="12.223337134287561"><ele>942.0</ele><time>2026-03-29T10:32:45Z</time></trkpt><trkpt lat="46.03208534898692" lon="12.2232844522382"><ele>939.4999999999999</ele><time>2026-03-29T10:32:46Z</time></trkpt><trkpt lat="46.032147188521364" lon="12.223233310347178"><ele>937.0</ele><time>2026-03-29T10:32:47Z</time></trkpt><trkpt lat="46.0322053777724" lon="12.22317514705216"><ele>938.3333333333333</ele><time>2026-03-29T10:32:48Z</time></trkpt><trkpt lat="46.032274513649455" lon="12.223120963252935"><ele>939.6666666666666</ele><time>2026-03-29T10:32:49Z</time></trkpt><trkpt lat="46.03235692156854" lon="12.223082950737282"><ele>941.0</ele><time>2026-03-29T10:32:50Z</time></trkpt><trkpt lat="46.03243877099455" lon="12.223056909501462"><ele>942.3333333333333</ele><time>2026-03-29T10:32:51Z</time></trkpt><trkpt lat="46.03251038097905" lon="12.223031954188896"><ele>943.6666666666666</ele><time>2026-03-29T10:32:52Z</time></trkpt><trkpt lat="46.03258790186471" lon="12.223017783372015"><ele>945.0</ele><time>2026-03-29T10:32:53Z</time></trkpt><trkpt lat="46.03266919285746" lon="12.223013166962783"><ele>945.0</ele><time>2026-03-29T10:32:54Z</time></trkpt><trkpt lat="46.03275791126228" lon="12.223012878429799"><ele>945.0</ele><time>2026-03-29T10:32:55Z</time></trkpt><trkpt lat="46.032847159323524" lon="12.223019548837351"><ele>945.0</ele><time>2026-03-29T10:32:56Z</time></trkpt><trkpt lat="46.03293631394363" lon="12.223041569213871"><ele>945.0</ele><time>2026-03-29T10:32:57Z</time></trkpt><trkpt lat="46.033027284031355" lon="12.223055297107289"><ele>945.0</ele><time>2026-03-29T10:32:58Z</time></trkpt><trkpt lat="46.0331292050056" lon="12.223063117336538"><ele>945.0</ele><time>2026-03-29T10:32:59Z</time></trkpt><trkpt lat="46.03324413597084" lon="12.223065320795456"><ele>945.0</ele><time>2026-03-29T10:33:00Z</time></trkpt><trkpt lat="46.033370905024015" lon="12.22304944436833"><ele>945.0</ele><time>2026-03-29T10:33:01Z</time></trkpt><trkpt lat="46.033479125771116" lon="12.223034650253034"><ele>945.0</ele><time>2026-03-29T10:33:02Z</time></trkpt><trkpt lat="46.03358071840777" lon="12.223026308156292"><ele>944.0</ele><time>2026-03-29T10:33:03Z</time></trkpt><trkpt lat="46.03367537916489" lon="12.223016750341873"><ele>943.0</ele><time>2026-03-29T10:33:04Z</time></trkpt><trkpt lat="46.03376267833265" lon="12.223012505045718"><ele>942.0</ele><time>2026-03-29T10:33:05Z</time></trkpt><trkpt lat="46.0338399847424" lon="12.223015453489557"><ele>941.0</ele><time>2026-03-29T10:33:06Z</time></trkpt><trkpt lat="46.03391411638783" lon="12.223008385703572"><ele>940.0</ele><time>2026-03-29T10:33:07Z</time></trkpt><trkpt lat="46.03398320008" lon="12.222996903096123"><ele>939.0</ele><time>2026-03-29T10:33:08.001Z</time></trkpt><trkpt lat="46.03406695569463" lon="12.222988804108864"><ele>938.6</ele><time>2026-03-29T10:33:09.001Z</time></trkpt><trkpt lat="46.03416626481524" lon="12.222984565775247"><ele>938.2</ele><time>2026-03-29T10:33:10.001Z</time></trkpt><trkpt lat="46.03426555771296" lon="12.222983818326234"><ele>937.8000000000001</ele><time>2026-03-29T10:33:11.001Z</time></trkpt><trkpt lat="46.03436501356371" lon="12.222979374805092"><ele>937.4000000000001</ele><time>2026-03-29T10:33:12.001Z</time></trkpt><trkpt lat="46.034462363562795" lon="12.222965507293946"><ele>937.0</ele><time>2026-03-29T10:33:13.001Z</time></trkpt><trkpt lat="46.03455760499156" lon="12.22295045092693"><ele>936.9999999999999</ele><time>2026-03-29T10:33:14.001Z</time></trkpt><trkpt lat="46.0346396075107" lon="12.222941275005295"><ele>937.0</ele><time>2026-03-29T10:33:15.001Z</time></trkpt><trkpt lat="46.034728183192385" lon="12.222937324023079"><ele>937.0</ele><time>2026-03-29T10:33:17.001Z</time></trkpt><trkpt lat="46.03484496188535" lon="12.222959185049714"><ele>937.0</ele><time>2026-03-29T10:33:19.001Z</time></trkpt><trkpt lat="46.03491212686382" lon="12.2229864696729"><ele>936.9999999999999</ele><time>2026-03-29T10:33:20.001Z</time></trkpt><trkpt lat="46.03498159384839" lon="12.22302075034751"><ele>937.0</ele><time>2026-03-29T10:33:21.001Z</time></trkpt><trkpt lat="46.03505457350575" lon="12.223055387322312"><ele>936.6666666666666</ele><time>2026-03-29T10:33:22.001Z</time></trkpt><trkpt lat="46.035134284797884" lon="12.223084334086947"><ele>936.3333333333333</ele><time>2026-03-29T10:33:23.001Z</time></trkpt><trkpt lat="46.035224654901455" lon="12.223107365504115"><ele>936.0</ele><time>2026-03-29T10:33:24.001Z</time></trkpt><trkpt lat="46.03531833596146" lon="12.223131957697221"><ele>935.6666666666667</ele><time>2026-03-29T10:33:25.001Z</time></trkpt><trkpt lat="46.03540402144382" lon="12.223152132835951"><ele>935.3333333333334</ele><time>2026-03-29T10:33:26.001Z</time></trkpt><trkpt lat="46.03547989370245" lon="12.223175716801693"><ele>935.0</ele><time>2026-03-29T10:33:27.001Z</time></trkpt><trkpt lat="46.035552983384626" lon="12.223198534062815"><ele>933.1428571428573</ele><time>2026-03-29T10:33:28.001Z</time></trkpt><trkpt lat="46.03562456012956" lon="12.223216700006985"><ele>931.2857142857143</ele><time>2026-03-29T10:33:29.001Z</time></trkpt><trkpt lat="46.035698306951396" lon="12.223239859262998"><ele>929.4285714285716</ele><time>2026-03-29T10:33:30.001Z</time></trkpt><trkpt lat="46.03576598703937" lon="12.223269375776006"><ele>927.5714285714287</ele><time>2026-03-29T10:33:31.001Z</time></trkpt><trkpt lat="46.035831908697055" lon="12.223300197861935"><ele>925.7142857142858</ele><time>2026-03-29T10:33:32.001Z</time></trkpt><trkpt lat="46.03590118588818" lon="12.223321539025461"><ele>923.8571428571429</ele><time>2026-03-29T10:33:33.001Z</time></trkpt><trkpt lat="46.03596982650224" lon="12.22333534230007"><ele>922.0</ele><time>2026-03-29T10:33:34.001Z</time></trkpt><trkpt lat="46.0360400543787" lon="12.223341684688627"><ele>921.4999999999999</ele><time>2026-03-29T10:33:35.001Z</time></trkpt><trkpt lat="46.036115234363116" lon="12.223334783522683"><ele>921.0</ele><time>2026-03-29T10:33:36.001Z</time></trkpt><trkpt lat="46.03618868678208" lon="12.22332768210941"><ele>920.5</ele><time>2026-03-29T10:33:37.001Z</time></trkpt><trkpt lat="46.036260744015564" lon="12.223317438867719"><ele>920.0</ele><time>2026-03-29T10:33:38.001Z</time></trkpt><trkpt lat="46.036340154702636" lon="12.22329776476424"><ele>919.4999999999999</ele><time>2026-03-29T10:33:39.001Z</time></trkpt><trkpt lat="46.03642846585802" lon="12.22328235775783"><ele>919.0</ele><time>2026-03-29T10:33:40.001Z</time></trkpt><trkpt lat="46.03650774396747" lon="12.223273631530503"><ele>918.9999999999999</ele><time>2026-03-29T10:33:41.001Z</time></trkpt><trkpt lat="46.03657091309465" lon="12.22326743449227"><ele>919.0</ele><time>2026-03-29T10:33:42.001Z</time></trkpt><trkpt lat="46.036635124496335" lon="12.223257144458948"><ele>919.0</ele><time>2026-03-29T10:33:43.001Z</time></trkpt><trkpt lat="46.03675511829968" lon="12.223234279005961"><ele>919.0</ele><time>2026-03-29T10:33:45.001Z</time></trkpt><trkpt lat="46.036818064612" lon="12.223227089945087"><ele>918.9999999999999</ele><time>2026-03-29T10:33:46.001Z</time></trkpt><trkpt lat="46.036897723940534" lon="12.223212596539195"><ele>919.0</ele><time>2026-03-29T10:33:47.001Z</time></trkpt><trkpt lat="46.03698526844573" lon="12.223199531345038"><ele>919.4000000000001</ele><time>2026-03-29T10:33:48.001Z</time></trkpt><trkpt lat="46.03708105335237" lon="12.223184049483677"><ele>919.8000000000001</ele><time>2026-03-29T10:33:49.001Z</time></trkpt><trkpt lat="46.03718591777677" lon="12.22316823606471"><ele>920.1999999999999</ele><time>2026-03-29T10:33:50.001Z</time></trkpt><trkpt lat="46.03729436522096" lon="12.223151523554156"><ele>920.5999999999999</ele><time>2026-03-29T10:33:51.001Z</time></trkpt><trkpt lat="46.037402080463245" lon="12.223142646026687"><ele>921.0</ele><time>2026-03-29T10:33:52.001Z</time></trkpt><trkpt lat="46.03751175170713" lon="12.223135007296673"><ele>921.0</ele><time>2026-03-29T10:33:53.001Z</time></trkpt><trkpt lat="46.03761384059904" lon="12.22312165655695"><ele>920.9999999999999</ele><time>2026-03-29T10:33:54.001Z</time></trkpt><trkpt lat="46.0377084404476" lon="12.22310814536683"><ele>920.9999999999999</ele><time>2026-03-29T10:33:55.001Z</time></trkpt><trkpt lat="46.03780989229149" lon="12.223092606325052"><ele>921.0</ele><time>2026-03-29T10:33:56.001Z</time></trkpt><trkpt lat="46.03790805661102" lon="12.223081991271734"><ele>921.0</ele><time>2026-03-29T10:33:57.001Z</time></trkpt><trkpt lat="46.03800527926043" lon="12.223073036742333"><ele>921.0</ele><time>2026-03-29T10:33:58.001Z</time></trkpt><trkpt lat="46.03810452358393" lon="12.223078690414779"><ele>920.9999999999999</ele><time>2026-03-29T10:33:59.001Z</time></trkpt><trkpt lat="46.03820455675441" lon="12.223109846708017"><ele>920.9999999999999</ele><time>2026-03-29T10:34:00.001Z</time></trkpt><trkpt lat="46.03829217976411" lon="12.223132909562334"><ele>921.0</ele><time>2026-03-29T10:34:01.001Z</time></trkpt><trkpt lat="46.038379210583926" lon="12.223154021394658"><ele>921.0</ele><time>2026-03-29T10:34:02.001Z</time></trkpt><trkpt lat="46.03846481337927" lon="12.223150026827817"><ele>919.1999999999999</ele><time>2026-03-29T10:34:03.001Z</time></trkpt><trkpt lat="46.038558777858434" lon="12.223115015900806"><ele>917.3999999999999</ele><time>2026-03-29T10:34:04.001Z</time></trkpt><trkpt lat="46.038655299091495" lon="12.223069837653089"><ele>915.6</ele><time>2026-03-29T10:34:05.001Z</time></trkpt><trkpt lat="46.03875568583543" lon="12.223005844804261"><ele>913.8</ele><time>2026-03-29T10:34:06.001Z</time></trkpt><trkpt lat="46.03885937528408" lon="12.222934687440839"><ele>912.0</ele><time>2026-03-29T10:34:07.001Z</time></trkpt><trkpt lat="46.038967345223284" lon="12.222858288317049"><ele>912.0</ele><time>2026-03-29T10:34:08.001Z</time></trkpt><trkpt lat="46.039082001173355" lon="12.222787499691048"><ele>912.0</ele><time>2026-03-29T10:34:09.001Z</time></trkpt><trkpt lat="46.03920126362891" lon="12.222719764081111"><ele>912.0</ele><time>2026-03-29T10:34:10.001Z</time></trkpt><trkpt lat="46.03932568773545" lon="12.222658477825437"><ele>912.0</ele><time>2026-03-29T10:34:11.001Z</time></trkpt><trkpt lat="46.03945259816742" lon="12.222594820304495"><ele>909.25</ele><time>2026-03-29T10:34:12.001Z</time></trkpt><trkpt lat="46.039578932932706" lon="12.222528435595574"><ele>906.5</ele><time>2026-03-29T10:34:13.001Z</time></trkpt><trkpt lat="46.03969840589248" lon="12.222466374964144"><ele>903.75</ele><time>2026-03-29T10:34:14.001Z</time></trkpt><trkpt lat="46.03981093775097" lon="12.222407808011534"><ele>901.0</ele><time>2026-03-29T10:34:15.001Z</time></trkpt><trkpt lat="46.039905701842365" lon="12.222349787505596"><ele>901.1666666666666</ele><time>2026-03-29T10:34:16.001Z</time></trkpt><trkpt lat="46.03998440434705" lon="12.222311134784679"><ele>901.3333333333333</ele><time>2026-03-29T10:34:17.001Z</time></trkpt><trkpt lat="46.04005256453988" lon="12.222257130263213"><ele>901.5</ele><time>2026-03-29T10:34:18.001Z</time></trkpt><trkpt lat="46.04012456534634" lon="12.222205678360528"><ele>901.6666666666667</ele><time>2026-03-29T10:34:19.001Z</time></trkpt><trkpt lat="46.040209934836675" lon="12.222144152250426"><ele>901.8333333333334</ele><time>2026-03-29T10:34:20.001Z</time></trkpt><trkpt lat="46.040303595263566" lon="12.222072864834848"><ele>902.0</ele><time>2026-03-29T10:34:21.001Z</time></trkpt><trkpt lat="46.04039755504991" lon="12.222003121287948"><ele>902.0</ele><time>2026-03-29T10:34:22.001Z</time></trkpt><trkpt lat="46.04048834486452" lon="12.221933632471826"><ele>902.0</ele><time>2026-03-29T10:34:23.001Z</time></trkpt><trkpt lat="46.04057675185932" lon="12.221844693038394"><ele>902.0</ele><time>2026-03-29T10:34:24.001Z</time></trkpt><trkpt lat="46.0406711096897" lon="12.221721100829331"><ele>902.0</ele><time>2026-03-29T10:34:25.001Z</time></trkpt><trkpt lat="46.0407566458367" lon="12.22159447319971"><ele>902.6</ele><time>2026-03-29T10:34:26.002Z</time></trkpt><trkpt lat="46.04083582098253" lon="12.221476170674473"><ele>903.2</ele><time>2026-03-29T10:34:27.002Z</time></trkpt><trkpt lat="46.04091380470288" lon="12.221373455378847"><ele>903.8</ele><time>2026-03-29T10:34:28.002Z</time></trkpt><trkpt lat="46.0409847635462" lon="12.221273467906153"><ele>904.4</ele><time>2026-03-29T10:34:29.002Z</time></trkpt><trkpt lat="46.041037573824354" lon="12.22121016901359"><ele>905.0</ele><time>2026-03-29T10:34:30Z</time></trkpt><trkpt lat="46.04110308359942" lon="12.221132268125356"><ele>905.0</ele><time>2026-03-29T10:34:32Z</time></trkpt><trkpt lat="46.04117487169396" lon="12.220995009712274"><ele>905.0</ele><time>2026-03-29T10:34:34Z</time></trkpt><trkpt lat="46.04124969160284" lon="12.220878250398595"><ele>905.0</ele><time>2026-03-29T10:34:35Z</time></trkpt><trkpt lat="46.04137184260292" lon="12.220727228892082"><ele>905.0</ele><time>2026-03-29T10:34:36Z</time></trkpt><trkpt lat="46.04148100019808" lon="12.220570261713062"><ele>906.4</ele><time>2026-03-29T10:34:37Z</time></trkpt><trkpt lat="46.04156802533063" lon="12.220439039287951"><ele>907.8</ele><time>2026-03-29T10:34:38Z</time></trkpt><trkpt lat="46.04164978001856" lon="12.220355929315417"><ele>909.2</ele><time>2026-03-29T10:34:39Z</time></trkpt><trkpt lat="46.0417360481528" lon="12.220286287319567"><ele>910.6</ele><time>2026-03-29T10:34:40Z</time></trkpt><trkpt lat="46.04183213463036" lon="12.220231726315035"><ele>912.0</ele><time>2026-03-29T10:34:41Z</time></trkpt><trkpt lat="46.04194117574451" lon="12.220202434731291"><ele>912.0</ele><time>2026-03-29T10:34:42Z</time></trkpt><trkpt lat="46.04206522328075" lon="12.22018340215356"><ele>912.0</ele><time>2026-03-29T10:34:43Z</time></trkpt><trkpt lat="46.042212986575514" lon="12.220143322792302"><ele>912.0</ele><time>2026-03-29T10:34:44Z</time></trkpt><trkpt lat="46.04236604224949" lon="12.220099255888481"><ele>912.0</ele><time>2026-03-29T10:34:45Z</time></trkpt><trkpt lat="46.0424992487599" lon="12.220069764427981"><ele>909.8</ele><time>2026-03-29T10:34:46Z</time></trkpt><trkpt lat="46.042616590865805" lon="12.220066692211041"><ele>907.6</ele><time>2026-03-29T10:34:47Z</time></trkpt><trkpt lat="46.04272108296782" lon="12.220068620004128"><ele>905.3999999999999</ele><time>2026-03-29T10:34:48Z</time></trkpt><trkpt lat="46.04279768935342" lon="12.220044236000113"><ele>903.1999999999999</ele><time>2026-03-29T10:34:49Z</time></trkpt><trkpt lat="46.04287888394703" lon="12.22000060535888"><ele>901.0</ele><time>2026-03-29T10:34:50Z</time></trkpt><trkpt lat="46.04296479122185" lon="12.21993381114714"><ele>900.9999999999999</ele><time>2026-03-29T10:34:51Z</time></trkpt><trkpt lat="46.04302580692914" lon="12.219859573534587"><ele>901.0</ele><time>2026-03-29T10:34:52Z</time></trkpt><trkpt lat="46.04308151546873" lon="12.219780347633591"><ele>901.0</ele><time>2026-03-29T10:34:53Z</time></trkpt><trkpt lat="46.04312993099693" lon="12.219694087922608"><ele>901.0</ele><time>2026-03-29T10:34:54Z</time></trkpt><trkpt lat="46.04316865568259" lon="12.219589588447333"><ele>900.9999999999999</ele><time>2026-03-29T10:34:55Z</time></trkpt><trkpt lat="46.04318890597606" lon="12.21944662759932"><ele>901.0</ele><time>2026-03-29T10:34:57Z</time></trkpt><trkpt lat="46.04315097743239" lon="12.219257357416163"><ele>905.8</ele><time>2026-03-29T10:34:59Z</time></trkpt><trkpt lat="46.04311663478681" lon="12.219117520871313"><ele>910.5999999999999</ele><time>2026-03-29T10:35:00Z</time></trkpt><trkpt lat="46.04308753202895" lon="12.218998283833502"><ele>915.4</ele><time>2026-03-29T10:35:01Z</time></trkpt><trkpt lat="46.04306434498193" lon="12.218879958544104"><ele>920.2</ele><time>2026-03-29T10:35:02Z</time></trkpt><trkpt lat="46.0430421838569" lon="12.218750246935697"><ele>925.0</ele><time>2026-03-29T10:35:03Z</time></trkpt><trkpt lat="46.04302832526241" lon="12.218630444487834"><ele>924.6</ele><time>2026-03-29T10:35:04Z</time></trkpt><trkpt lat="46.04302306860618" lon="12.21851617350716"><ele>924.2</ele><time>2026-03-29T10:35:05Z</time></trkpt><trkpt lat="46.04300685491729" lon="12.218404326217913"><ele>923.8</ele><time>2026-03-29T10:35:06Z</time></trkpt><trkpt lat="46.04300294420229" lon="12.218247875769054"><ele>923.4</ele><time>2026-03-29T10:35:07Z</time></trkpt><trkpt lat="46.04299492690778" lon="12.218096874441384"><ele>923.0</ele><time>2026-03-29T10:35:08Z</time></trkpt><trkpt lat="46.04298210668202" lon="12.217949351337209"><ele>923.0</ele><time>2026-03-29T10:35:09Z</time></trkpt><trkpt lat="46.04298181060191" lon="12.217791962545194"><ele>923.0</ele><time>2026-03-29T10:35:10.001Z</time></trkpt><trkpt lat="46.042984184377374" lon="12.217630327778489"><ele>923.0</ele><time>2026-03-29T10:35:11.001Z</time></trkpt><trkpt lat="46.042997672544175" lon="12.217481242134472"><ele>923.0</ele><time>2026-03-29T10:35:12.001Z</time></trkpt><trkpt lat="46.0430189742735" lon="12.217346755440778"><ele>923.0</ele><time>2026-03-29T10:35:13.001Z</time></trkpt><trkpt lat="46.043036147383525" lon="12.217220322201111"><ele>922.1666666666667</ele><time>2026-03-29T10:35:14.001Z</time></trkpt><trkpt lat="46.04306580194761" lon="12.217102297584697"><ele>921.3333333333334</ele><time>2026-03-29T10:35:15.001Z</time></trkpt><trkpt lat="46.043104931277554" lon="12.216984767277488"><ele>920.5</ele><time>2026-03-29T10:35:16.001Z</time></trkpt><trkpt lat="46.04313808496007" lon="12.216876047401163"><ele>919.6666666666667</ele><time>2026-03-29T10:35:17.001Z</time></trkpt><trkpt lat="46.043166696595236" lon="12.216775186775024"><ele>918.8333333333334</ele><time>2026-03-29T10:35:18.001Z</time></trkpt><trkpt lat="46.043195349626096" lon="12.216679976588349"><ele>918.0</ele><time>2026-03-29T10:35:19.001Z</time></trkpt><trkpt lat="46.043206189999545" lon="12.21658743697781"><ele>918.0</ele><time>2026-03-29T10:35:20.001Z</time></trkpt><trkpt lat="46.04320106742271" lon="12.216486994698693"><ele>918.0</ele><time>2026-03-29T10:35:21.001Z</time></trkpt><trkpt lat="46.04317742728765" lon="12.216384713472236"><ele>918.0</ele><time>2026-03-29T10:35:22.001Z</time></trkpt><trkpt lat="46.04314542129095" lon="12.216271207095465"><ele>918.0</ele><time>2026-03-29T10:35:23.001Z</time></trkpt><trkpt lat="46.04310450723222" lon="12.216155403804132"><ele>918.0</ele><time>2026-03-29T10:35:24.001Z</time></trkpt><trkpt lat="46.04306971941614" lon="12.216039421044238"><ele>918.0</ele><time>2026-03-29T10:35:25.001Z</time></trkpt><trkpt lat="46.04303524405973" lon="12.215918919672715"><ele>916.8333333333334</ele><time>2026-03-29T10:35:26.001Z</time></trkpt><trkpt lat="46.04300858074376" lon="12.215802910525072"><ele>915.6666666666667</ele><time>2026-03-29T10:35:27.001Z</time></trkpt><trkpt lat="46.043005413142765" lon="12.215684524390642"><ele>914.5</ele><time>2026-03-29T10:35:28.001Z</time></trkpt><trkpt lat="46.04301017723324" lon="12.21556875001254"><ele>913.3333333333334</ele><time>2026-03-29T10:35:29.001Z</time></trkpt><trkpt lat="46.04303778049928" lon="12.215434990157526"><ele>912.1666666666667</ele><time>2026-03-29T10:35:30.001Z</time></trkpt><trkpt lat="46.043062614701775" lon="12.215318756896833"><ele>911.0</ele><time>2026-03-29T10:35:31.001Z</time></trkpt><trkpt lat="46.04306530579965" lon="12.215202431291592"><ele>910.0</ele><time>2026-03-29T10:35:32.001Z</time></trkpt><trkpt lat="46.04305619508282" lon="12.215053486122283"><ele>908.9999999999999</ele><time>2026-03-29T10:35:33.001Z</time></trkpt><trkpt lat="46.0430295258882" lon="12.214897430176793"><ele>907.9999999999999</ele><time>2026-03-29T10:35:34.001Z</time></trkpt><trkpt lat="46.04300491699638" lon="12.214733304882062"><ele>907.0</ele><time>2026-03-29T10:35:35.001Z</time></trkpt><trkpt lat="46.04297560599413" lon="12.214580548422248"><ele>906.0</ele><time>2026-03-29T10:35:36.001Z</time></trkpt><trkpt lat="46.042960755507565" lon="12.214440074907424"><ele>905.1666666666666</ele><time>2026-03-29T10:35:37.001Z</time></trkpt><trkpt lat="46.04295661691007" lon="12.21434401820349"><ele>904.3333333333333</ele><time>2026-03-29T10:35:38.001Z</time></trkpt><trkpt lat="46.04295606261289" lon="12.214222963096312"><ele>903.5</ele><time>2026-03-29T10:35:40.001Z</time></trkpt><trkpt lat="46.0429615594235" lon="12.214125840762982"><ele>902.6666666666666</ele><time>2026-03-29T10:35:41.001Z</time></trkpt><trkpt lat="46.04298656307883" lon="12.214004703536476"><ele>901.8333333333333</ele><time>2026-03-29T10:35:42.001Z</time></trkpt><trkpt lat="46.042997250979845" lon="12.213885982192405"><ele>901.0</ele><time>2026-03-29T10:35:43.001Z</time></trkpt><trkpt lat="46.04300506378295" lon="12.213773132070287"><ele>900.3333333333333</ele><time>2026-03-29T10:35:44.001Z</time></trkpt><trkpt lat="46.043017688973826" lon="12.213659680465579"><ele>899.6666666666666</ele><time>2026-03-29T10:35:45.001Z</time></trkpt><trkpt lat="46.04303333248451" lon="12.213551307051562"><ele>899.0</ele><time>2026-03-29T10:35:46.001Z</time></trkpt><trkpt lat="46.04305663193875" lon="12.213440473129808"><ele>898.3333333333333</ele><time>2026-03-29T10:35:47.001Z</time></trkpt><trkpt lat="46.04307815928729" lon="12.213330989521994"><ele>897.6666666666666</ele><time>2026-03-29T10:35:48.001Z</time></trkpt><trkpt lat="46.043086868544584" lon="12.213234333138482"><ele>897.0</ele><time>2026-03-29T10:35:49.001Z</time></trkpt><trkpt lat="46.04308108184791" lon="12.213125467185307"><ele>895.0</ele><time>2026-03-29T10:35:50.001Z</time></trkpt><trkpt lat="46.043066652633435" lon="12.213026926531558"><ele>893.0</ele><time>2026-03-29T10:35:51.001Z</time></trkpt><trkpt lat="46.043049660062735" lon="12.212909282554811"><ele>891.0</ele><time>2026-03-29T10:35:52.001Z</time></trkpt><trkpt lat="46.043026597214435" lon="12.212782280460626"><ele>889.0</ele><time>2026-03-29T10:35:53.001Z</time></trkpt><trkpt lat="46.042994418950705" lon="12.212651342862854"><ele>887.0</ele><time>2026-03-29T10:35:54.001Z</time></trkpt><trkpt lat="46.04297678276643" lon="12.212531032294306"><ele>885.0</ele><time>2026-03-29T10:35:55.001Z</time></trkpt><trkpt lat="46.04294586225679" lon="12.212412722537621"><ele>882.8333333333334</ele><time>2026-03-29T10:35:56.001Z</time></trkpt><trkpt lat="46.04291534451063" lon="12.212304684212096"><ele>880.6666666666667</ele><time>2026-03-29T10:35:57.001Z</time></trkpt><trkpt lat="46.04287966796427" lon="12.212194811935458"><ele>878.5</ele><time>2026-03-29T10:35:58.001Z</time></trkpt><trkpt lat="46.042858274333916" lon="12.212085399197429"><ele>876.3333333333334</ele><time>2026-03-29T10:35:59.001Z</time></trkpt><trkpt lat="46.04283914624087" lon="12.21198558085723"><ele>874.1666666666667</ele><time>2026-03-29T10:36:00.001Z</time></trkpt><trkpt lat="46.04280545869568" lon="12.211887921887646"><ele>872.0</ele><time>2026-03-29T10:36:01.001Z</time></trkpt><trkpt lat="46.0427809370704" lon="12.211794139184372"><ele>872.0</ele><time>2026-03-29T10:36:02.001Z</time></trkpt><trkpt lat="46.04275868842506" lon="12.211698849098292"><ele>872.0</ele><time>2026-03-29T10:36:03.001Z</time></trkpt><trkpt lat="46.042732927071796" lon="12.211538812819532"><ele>872.0</ele><time>2026-03-29T10:36:05.001Z</time></trkpt><trkpt lat="46.04277023241428" lon="12.211386117543057"><ele>872.0</ele><time>2026-03-29T10:36:07.001Z</time></trkpt><trkpt lat="46.0428162437261" lon="12.211291144810776"><ele>872.0</ele><time>2026-03-29T10:36:08.001Z</time></trkpt><trkpt lat="46.042867891986745" lon="12.21118641947157"><ele>870.8333333333334</ele><time>2026-03-29T10:36:09.001Z</time></trkpt><trkpt lat="46.042924452025105" lon="12.211093184385257"><ele>869.6666666666667</ele><time>2026-03-29T10:36:10.001Z</time></trkpt><trkpt lat="46.042985629147466" lon="12.211013988586588"><ele>868.5</ele><time>2026-03-29T10:36:11.001Z</time></trkpt><trkpt lat="46.04304614768554" lon="12.210932766838072"><ele>867.3333333333333</ele><time>2026-03-29T10:36:12.001Z</time></trkpt><trkpt lat="46.04310511963286" lon="12.210862865351137"><ele>866.1666666666666</ele><time>2026-03-29T10:36:13.001Z</time></trkpt><trkpt lat="46.043155313116834" lon="12.210785205264793"><ele>865.0</ele><time>2026-03-29T10:36:14.001Z</time></trkpt><trkpt lat="46.04319740668322" lon="12.21070076056422"><ele>863.0</ele><time>2026-03-29T10:36:15.001Z</time></trkpt><trkpt lat="46.04322800867867" lon="12.210610584178268"><ele>861.0</ele><time>2026-03-29T10:36:16.001Z</time></trkpt><trkpt lat="46.04324251367861" lon="12.210518018844228"><ele>859.0</ele><time>2026-03-29T10:36:17.001Z</time></trkpt><trkpt lat="46.04325565848882" lon="12.21042039018763"><ele>857.0</ele><time>2026-03-29T10:36:18.001Z</time></trkpt><trkpt lat="46.0432551560988" lon="12.210329394764793"><ele>855.0</ele><time>2026-03-29T10:36:19.001Z</time></trkpt><trkpt lat="46.043264905351045" lon="12.210217583571382"><ele>853.0</ele><time>2026-03-29T10:36:21.001Z</time></trkpt><trkpt lat="46.04332570787112" lon="12.21016389481665"><ele>851.0</ele><time>2026-03-29T10:36:23.001Z</time></trkpt><trkpt lat="46.04341883941169" lon="12.210202897498219"><ele>850.6666666666667</ele><time>2026-03-29T10:36:25.001Z</time></trkpt><trkpt lat="46.04346933558459" lon="12.210276026719292"><ele>850.3333333333334</ele><time>2026-03-29T10:36:26.001Z</time></trkpt><trkpt lat="46.043520505141224" lon="12.210351995701833"><ele>850.0</ele><time>2026-03-29T10:36:27.001Z</time></trkpt><trkpt lat="46.043580490084175" lon="12.210425600417175"><ele>849.6666666666667</ele><time>2026-03-29T10:36:28.001Z</time></trkpt><trkpt lat="46.043640229325234" lon="12.210512355493062"><ele>849.3333333333334</ele><time>2026-03-29T10:36:29.001Z</time></trkpt><trkpt lat="46.043699074148634" lon="12.210608709473474"><ele>849.0</ele><time>2026-03-29T10:36:30.001Z</time></trkpt><trkpt lat="46.04376170108101" lon="12.210717637343604"><ele>849.0</ele><time>2026-03-29T10:36:31.001Z</time></trkpt><trkpt lat="46.043828398975286" lon="12.210834038007132"><ele>849.0</ele><time>2026-03-29T10:36:32.001Z</time></trkpt><trkpt lat="46.04389137125375" lon="12.21095090824533"><ele>849.0</ele><time>2026-03-29T10:36:33.001Z</time></trkpt><trkpt lat="46.04395578537975" lon="12.211061674634824"><ele>849.0</ele><time>2026-03-29T10:36:34.001Z</time></trkpt><trkpt lat="46.044017642340705" lon="12.211179323301643"><ele>849.0</ele><time>2026-03-29T10:36:35.001Z</time></trkpt><trkpt lat="46.04407767185374" lon="12.211296517506918"><ele>848.1666666666666</ele><time>2026-03-29T10:36:36.001Z</time></trkpt><trkpt lat="46.044141243089115" lon="12.211404746908277"><ele>847.3333333333333</ele><time>2026-03-29T10:36:37.001Z</time></trkpt><trkpt lat="46.04420321180992" lon="12.211505069816774"><ele>846.5</ele><time>2026-03-29T10:36:38.001Z</time></trkpt><trkpt lat="46.04425918463239" lon="12.211605193017128"><ele>845.6666666666666</ele><time>2026-03-29T10:36:39.001Z</time></trkpt><trkpt lat="46.04430717839957" lon="12.211700695236761"><ele>844.8333333333333</ele><time>2026-03-29T10:36:40.001Z</time></trkpt><trkpt lat="46.044350322697646" lon="12.211803537990054"><ele>844.0</ele><time>2026-03-29T10:36:41.001Z</time></trkpt><trkpt lat="46.04438955755944" lon="12.21192180231989"><ele>844.0</ele><time>2026-03-29T10:36:42.001Z</time></trkpt><trkpt lat="46.04442903843725" lon="12.212058441209916"><ele>844.0</ele><time>2026-03-29T10:36:43.001Z</time></trkpt><trkpt lat="46.04446625961454" lon="12.21220930261598"><ele>844.0</ele><time>2026-03-29T10:36:44.001Z</time></trkpt><trkpt lat="46.04449883315048" lon="12.212371001485899"><ele>844.0</ele><time>2026-03-29T10:36:45.001Z</time></trkpt><trkpt lat="46.04453151695467" lon="12.21254059391478"><ele>843.75</ele><time>2026-03-29T10:36:46Z</time></trkpt><trkpt lat="46.044568686410656" lon="12.212709148942999"><ele>843.5</ele><time>2026-03-29T10:36:47Z</time></trkpt><trkpt lat="46.04460195594521" lon="12.21286906289981"><ele>843.25</ele><time>2026-03-29T10:36:48Z</time></trkpt><trkpt lat="46.044636947701676" lon="12.213026739898694"><ele>843.0</ele><time>2026-03-29T10:36:49Z</time></trkpt><trkpt lat="46.044667243625945" lon="12.213178452556571"><ele>842.5999999999999</ele><time>2026-03-29T10:36:50Z</time></trkpt><trkpt lat="46.04469666306995" lon="12.21333060999256"><ele>842.1999999999999</ele><time>2026-03-29T10:36:51Z</time></trkpt><trkpt lat="46.044724358544684" lon="12.21347570467855"><ele>841.8</ele><time>2026-03-29T10:36:52Z</time></trkpt><trkpt lat="46.04475621872876" lon="12.21361599761439"><ele>841.4</ele><time>2026-03-29T10:36:53Z</time></trkpt><trkpt lat="46.044781599585804" lon="12.213753187101215"><ele>841.0</ele><time>2026-03-29T10:36:54Z</time></trkpt><trkpt lat="46.044810182895674" lon="12.213896389181116"><ele>841.25</ele><time>2026-03-29T10:36:55Z</time></trkpt><trkpt lat="46.044840004771594" lon="12.21405918967581"><ele>841.5</ele><time>2026-03-29T10:36:56Z</time></trkpt><trkpt lat="46.044877704723625" lon="12.214218247106032"><ele>841.75</ele><time>2026-03-29T10:36:57Z</time></trkpt><trkpt lat="46.04491474635225" lon="12.214389781926057"><ele>842.0</ele><time>2026-03-29T10:36:58Z</time></trkpt><trkpt lat="46.04495287033119" lon="12.214563930405944"><ele>838.0</ele><time>2026-03-29T10:36:59Z</time></trkpt><trkpt lat="46.044989779889605" lon="12.21473554916489"><ele>834.0</ele><time>2026-03-29T10:37:00Z</time></trkpt><trkpt lat="46.04502737807232" lon="12.214905793937474"><ele>830.0</ele><time>2026-03-29T10:37:01Z</time></trkpt><trkpt lat="46.045063838478264" lon="12.215075350416218"><ele>826.0</ele><time>2026-03-29T10:37:02Z</time></trkpt><trkpt lat="46.045096080745516" lon="12.21524754510156"><ele>826.0</ele><time>2026-03-29T10:37:03Z</time></trkpt><trkpt lat="46.045134048763025" lon="12.21544003409254"><ele>826.0</ele><time>2026-03-29T10:37:04.001Z</time></trkpt><trkpt lat="46.045174482193495" lon="12.215640285916885"><ele>826.0</ele><time>2026-03-29T10:37:05.001Z</time></trkpt><trkpt lat="46.04521469613445" lon="12.215848869599014"><ele>826.0</ele><time>2026-03-29T10:37:06.001Z</time></trkpt><trkpt lat="46.045258910683614" lon="12.216062369172493"><ele>826.6666666666666</ele><time>2026-03-29T10:37:07.001Z</time></trkpt><trkpt lat="46.04530571177632" lon="12.21627497525282"><ele>827.3333333333333</ele><time>2026-03-29T10:37:08.001Z</time></trkpt><trkpt lat="46.045349390336845" lon="12.216486589425145"><ele>828.0</ele><time>2026-03-29T10:37:09.001Z</time></trkpt><trkpt lat="46.0453909007155" lon="12.216690708148628"><ele>828.75</ele><time>2026-03-29T10:37:10.001Z</time></trkpt><trkpt lat="46.04543339013995" lon="12.216885538947263"><ele>829.5</ele><time>2026-03-29T10:37:11.001Z</time></trkpt><trkpt lat="46.04547429204844" lon="12.217074035143286"><ele>830.25</ele><time>2026-03-29T10:37:12.001Z</time></trkpt><trkpt lat="46.045514481682915" lon="12.217259386503027"><ele>831.0</ele><time>2026-03-29T10:37:13.001Z</time></trkpt><trkpt lat="46.04555111672008" lon="12.217436423777789"><ele>831.25</ele><time>2026-03-29T10:37:14.001Z</time></trkpt><trkpt lat="46.045586147364425" lon="12.217606353888227"><ele>831.5</ele><time>2026-03-29T10:37:15.001Z</time></trkpt><trkpt lat="46.04561423210763" lon="12.217771353756115"><ele>831.75</ele><time>2026-03-29T10:37:16.001Z</time></trkpt><trkpt lat="46.045628929299674" lon="12.217934151604712"><ele>832.0</ele><time>2026-03-29T10:37:17.001Z</time></trkpt><trkpt lat="46.04563254396145" lon="12.21809005905296"><ele>831.2</ele><time>2026-03-29T10:37:18.001Z</time></trkpt><trkpt lat="46.045617469528416" lon="12.218234599483209"><ele>830.4000000000001</ele><time>2026-03-29T10:37:19.001Z</time></trkpt><trkpt lat="46.04557936437944" lon="12.218372046336826"><ele>829.5999999999999</ele><time>2026-03-29T10:37:20.001Z</time></trkpt><trkpt lat="46.04552760024284" lon="12.21850023639529"><ele>828.8</ele><time>2026-03-29T10:37:21.001Z</time></trkpt><trkpt lat="46.04547754464774" lon="12.218624710261322"><ele>828.0</ele><time>2026-03-29T10:37:22.001Z</time></trkpt><trkpt lat="46.04543812993636" lon="12.218757589951363"><ele>828.0</ele><time>2026-03-29T10:37:23.001Z</time></trkpt><trkpt lat="46.04541499300298" lon="12.218898764925997"><ele>828.0</ele><time>2026-03-29T10:37:24.001Z</time></trkpt><trkpt lat="46.045407757459785" lon="12.219045361074544"><ele>828.0</ele><time>2026-03-29T10:37:25.001Z</time></trkpt><trkpt lat="46.04541757735018" lon="12.219184979578346"><ele>828.0</ele><time>2026-03-29T10:37:26.001Z</time></trkpt><trkpt lat="46.04540491227072" lon="12.219320718434613"><ele>828.0</ele><time>2026-03-29T10:37:27.001Z</time></trkpt><trkpt lat="46.04535694153165" lon="12.219438909739662"><ele>827.0</ele><time>2026-03-29T10:37:28.001Z</time></trkpt><trkpt lat="46.04530214372426" lon="12.219543733974445"><ele>826.0</ele><time>2026-03-29T10:37:29.001Z</time></trkpt><trkpt lat="46.04526445796133" lon="12.21964929176086"><ele>825.0</ele><time>2026-03-29T10:37:30.001Z</time></trkpt><trkpt lat="46.04524861141999" lon="12.219770218472759"><ele>824.0</ele><time>2026-03-29T10:37:31.001Z</time></trkpt><trkpt lat="46.04526489638374" lon="12.21990421392775"><ele>823.0</ele><time>2026-03-29T10:37:32.001Z</time></trkpt><trkpt lat="46.0453005334719" lon="12.220031417179555"><ele>822.0</ele><time>2026-03-29T10:37:33.001Z</time></trkpt><trkpt lat="46.04536106470282" lon="12.220142080161795"><ele>821.25</ele><time>2026-03-29T10:37:34.001Z</time></trkpt><trkpt lat="46.045441899602416" lon="12.220228475044943"><ele>820.5</ele><time>2026-03-29T10:37:35.001Z</time></trkpt><trkpt lat="46.04554909178201" lon="12.220305970588619"><ele>819.75</ele><time>2026-03-29T10:37:36.001Z</time></trkpt><trkpt lat="46.04567401387478" lon="12.22038935883143"><ele>819.0</ele><time>2026-03-29T10:37:37.001Z</time></trkpt><trkpt lat="46.04579808680264" lon="12.22044571913836"><ele>815.6</ele><time>2026-03-29T10:37:38.001Z</time></trkpt><trkpt lat="46.04590725888763" lon="12.220471394318954"><ele>812.2</ele><time>2026-03-29T10:37:39.001Z</time></trkpt><trkpt lat="46.04600242852408" lon="12.22045887726771"><ele>808.8000000000001</ele><time>2026-03-29T10:37:40.001Z</time></trkpt><trkpt lat="46.04608463052201" lon="12.220411054384495"><ele>805.4000000000001</ele><time>2026-03-29T10:37:41.001Z</time></trkpt><trkpt lat="46.04615988985854" lon="12.22032850274522"><ele>802.0</ele><time>2026-03-29T10:37:42.001Z</time></trkpt><trkpt lat="46.04623282340843" lon="12.220209570239849"><ele>802.0</ele><time>2026-03-29T10:37:43.001Z</time></trkpt><trkpt lat="46.04630185681901" lon="12.220047125688378"><ele>802.0</ele><time>2026-03-29T10:37:44.001Z</time></trkpt><trkpt lat="46.04636291470463" lon="12.219858917704837"><ele>802.0</ele><time>2026-03-29T10:37:45.001Z</time></trkpt><trkpt lat="46.046432045626354" lon="12.21971913580236"><ele>802.0</ele><time>2026-03-29T10:37:46.001Z</time></trkpt><trkpt lat="46.04651245459766" lon="12.219572314965522"><ele>801.6</ele><time>2026-03-29T10:37:47.001Z</time></trkpt><trkpt lat="46.04658725424932" lon="12.219413621536603"><ele>801.2</ele><time>2026-03-29T10:37:48.001Z</time></trkpt><trkpt lat="46.04665395422035" lon="12.219281717739367"><ele>800.8</ele><time>2026-03-29T10:37:49.001Z</time></trkpt><trkpt lat="46.04670878133209" lon="12.219170652198681"><ele>800.4</ele><time>2026-03-29T10:37:50.001Z</time></trkpt><trkpt lat="46.04676404258295" lon="12.21909032606525"><ele>800.0</ele><time>2026-03-29T10:37:51.001Z</time></trkpt><trkpt lat="46.046827655592715" lon="12.219060857952204"><ele>802.2</ele><time>2026-03-29T10:37:52.001Z</time></trkpt><trkpt lat="46.04693424693731" lon="12.219135823363692"><ele>804.4</ele><time>2026-03-29T10:37:54.001Z</time></trkpt><trkpt lat="46.046970035539246" lon="12.219231157475551"><ele>806.5999999999999</ele><time>2026-03-29T10:37:55.001Z</time></trkpt><trkpt lat="46.04699955340254" lon="12.219353019497422"><ele>808.8</ele><time>2026-03-29T10:37:56.001Z</time></trkpt><trkpt lat="46.04702361428954" lon="12.219499220718005"><ele>811.0</ele><time>2026-03-29T10:37:57.001Z</time></trkpt><trkpt lat="46.04704021924286" lon="12.219649424431683"><ele>811.0</ele><time>2026-03-29T10:37:58.001Z</time></trkpt><trkpt lat="46.04706070367432" lon="12.219802837866885"><ele>811.0</ele><time>2026-03-29T10:37:59.001Z</time></trkpt><trkpt lat="46.047080130100866" lon="12.21995868049719"><ele>811.0</ele><time>2026-03-29T10:38:00.001Z</time></trkpt><trkpt lat="46.047099652361055" lon="12.220101807148755"><ele>811.0</ele><time>2026-03-29T10:38:01.001Z</time></trkpt><trkpt lat="46.04712063571388" lon="12.220227286702922"><ele>811.0</ele><time>2026-03-29T10:38:02.001Z</time></trkpt><trkpt lat="46.047139091447804" lon="12.220340391999827"><ele>812.1999999999999</ele><time>2026-03-29T10:38:03.001Z</time></trkpt><trkpt lat="46.047156621605026" lon="12.220444383290555"><ele>813.4</ele><time>2026-03-29T10:38:04.001Z</time></trkpt><trkpt lat="46.04717204151951" lon="12.220541504713571"><ele>814.6</ele><time>2026-03-29T10:38:05.001Z</time></trkpt><trkpt lat="46.04719677906513" lon="12.220710815861436"><ele>815.8</ele><time>2026-03-29T10:38:07.001Z</time></trkpt><trkpt lat="46.047222361251386" lon="12.220848240184596"><ele>817.0</ele><time>2026-03-29T10:38:09.001Z</time></trkpt><trkpt lat="46.04724277741297" lon="12.220971788650385"><ele>817.4999999999999</ele><time>2026-03-29T10:38:11.001Z</time></trkpt><trkpt lat="46.04725640241202" lon="12.221119060442684"><ele>818.0</ele><time>2026-03-29T10:38:13.001Z</time></trkpt><trkpt lat="46.047245957521284" lon="12.221214146635505"><ele>818.5</ele><time>2026-03-29T10:38:14.001Z</time></trkpt><trkpt lat="46.047210446090304" lon="12.221310206059549"><ele>819.0</ele><time>2026-03-29T10:38:15.001Z</time></trkpt><trkpt lat="46.04715698796833" lon="12.221403979673248"><ele>819.4999999999999</ele><time>2026-03-29T10:38:16.001Z</time></trkpt><trkpt lat="46.047080123613775" lon="12.221486094807577"><ele>820.0</ele><time>2026-03-29T10:38:17.001Z</time></trkpt><trkpt lat="46.04699068721012" lon="12.221533519993303"><ele>819.9999999999999</ele><time>2026-03-29T10:38:18.001Z</time></trkpt><trkpt lat="46.04689281547286" lon="12.221560826738068"><ele>820.0</ele><time>2026-03-29T10:38:19.001Z</time></trkpt><trkpt lat="46.04679628031626" lon="12.221581468137943"><ele>820.0</ele><time>2026-03-29T10:38:20.001Z</time></trkpt><trkpt lat="46.046709655142045" lon="12.221598868612256"><ele>820.0</ele><time>2026-03-29T10:38:21.001Z</time></trkpt><trkpt lat="46.04663047698784" lon="12.2216321706811"><ele>819.9999999999999</ele><time>2026-03-29T10:38:22.001Z</time></trkpt><trkpt lat="46.04655887270077" lon="12.221687884264316"><ele>820.0</ele><time>2026-03-29T10:38:23.001Z</time></trkpt><trkpt lat="46.0464920157993" lon="12.221752613287212"><ele>820.9999999999999</ele><time>2026-03-29T10:38:24.001Z</time></trkpt><trkpt lat="46.04643540458182" lon="12.221827861519994"><ele>822.0</ele><time>2026-03-29T10:38:25.001Z</time></trkpt><trkpt lat="46.04638580793651" lon="12.221909890504659"><ele>823.0</ele><time>2026-03-29T10:38:26.001Z</time></trkpt><trkpt lat="46.04634131747695" lon="12.221995538060451"><ele>824.0</ele><time>2026-03-29T10:38:27.001Z</time></trkpt><trkpt lat="46.046295521618845" lon="12.222084612010034"><ele>824.9999999999999</ele><time>2026-03-29T10:38:28.001Z</time></trkpt><trkpt lat="46.04624733017272" lon="12.222175630808369"><ele>826.0</ele><time>2026-03-29T10:38:29.001Z</time></trkpt><trkpt lat="46.04619662857927" lon="12.222268728852367"><ele>826.1666666666666</ele><time>2026-03-29T10:38:30.001Z</time></trkpt><trkpt lat="46.04614295721292" lon="12.222360961839657"><ele>826.3333333333333</ele><time>2026-03-29T10:38:31.001Z</time></trkpt><trkpt lat="46.046102224527964" lon="12.222457518439724"><ele>826.5</ele><time>2026-03-29T10:38:32.001Z</time></trkpt><trkpt lat="46.04608171095077" lon="12.222556887393457"><ele>826.6666666666667</ele><time>2026-03-29T10:38:33.001Z</time></trkpt><trkpt lat="46.046095477067226" lon="12.222651748668115"><ele>826.8333333333334</ele><time>2026-03-29T10:38:34.001Z</time></trkpt><trkpt lat="46.04614448733474" lon="12.222738263151971"><ele>827.0</ele><time>2026-03-29T10:38:35.001Z</time></trkpt><trkpt lat="46.04622794373774" lon="12.222787766144963"><ele>827.0</ele><time>2026-03-29T10:38:36.001Z</time></trkpt><trkpt lat="46.04633144510591" lon="12.222831608710914"><ele>827.0</ele><time>2026-03-29T10:38:37.001Z</time></trkpt><trkpt lat="46.04642910390021" lon="12.22290552112434"><ele>827.0</ele><time>2026-03-29T10:38:38.001Z</time></trkpt><trkpt lat="46.04649903965674" lon="12.223022544302411"><ele>827.0</ele><time>2026-03-29T10:38:39.001Z</time></trkpt><trkpt lat="46.04654340953182" lon="12.223168829543928"><ele>827.0</ele><time>2026-03-29T10:38:40.001Z</time></trkpt><trkpt lat="46.04657187956629" lon="12.223351744073693"><ele>827.5</ele><time>2026-03-29T10:38:41.001Z</time></trkpt><trkpt lat="46.04661875703841" lon="12.223530519471348"><ele>828.0</ele><time>2026-03-29T10:38:42.001Z</time></trkpt><trkpt lat="46.0466879499854" lon="12.223684241671155"><ele>828.5</ele><time>2026-03-29T10:38:43.001Z</time></trkpt><trkpt lat="46.046777843007746" lon="12.223805552739371"><ele>829.0</ele><time>2026-03-29T10:38:44.001Z</time></trkpt><trkpt lat="46.04688125129232" lon="12.223910899740009"><ele>831.0</ele><time>2026-03-29T10:38:45.001Z</time></trkpt><trkpt lat="46.046977921358476" lon="12.224007847638653"><ele>833.0</ele><time>2026-03-29T10:38:46.001Z</time></trkpt><trkpt lat="46.047071462464615" lon="12.224109021445548"><ele>835.0</ele><time>2026-03-29T10:38:47.001Z</time></trkpt><trkpt lat="46.04716578019008" lon="12.224210263124576"><ele>837.0</ele><time>2026-03-29T10:38:48.001Z</time></trkpt><trkpt lat="46.04725740443707" lon="12.224309593032537"><ele>837.0</ele><time>2026-03-29T10:38:49.001Z</time></trkpt><trkpt lat="46.04734922602322" lon="12.224406148960005"><ele>837.0</ele><time>2026-03-29T10:38:50.001Z</time></trkpt><trkpt lat="46.047431066491036" lon="12.22449462627714"><ele>837.0</ele><time>2026-03-29T10:38:51.001Z</time></trkpt><trkpt lat="46.04750715202785" lon="12.2245751984008"><ele>837.0</ele><time>2026-03-29T10:38:52.001Z</time></trkpt><trkpt lat="46.047587483728776" lon="12.22465029998458"><ele>837.0</ele><time>2026-03-29T10:38:53.001Z</time></trkpt><trkpt lat="46.04767390719684" lon="12.224720477169672"><ele>835.25</ele><time>2026-03-29T10:38:54.001Z</time></trkpt><trkpt lat="46.04776985145199" lon="12.224786261856716"><ele>833.5</ele><time>2026-03-29T10:38:55.001Z</time></trkpt><trkpt lat="46.04787155682124" lon="12.224855586534188"><ele>831.75</ele><time>2026-03-29T10:38:56Z</time></trkpt><trkpt lat="46.04797649716725" lon="12.224923731678045"><ele>830.0</ele><time>2026-03-29T10:38:57Z</time></trkpt><trkpt lat="46.04808549934766" lon="12.224980315676447"><ele>830.0</ele><time>2026-03-29T10:38:58Z</time></trkpt><trkpt lat="46.04819798340368" lon="12.225022930029283"><ele>830.0</ele><time>2026-03-29T10:38:59Z</time></trkpt><trkpt lat="46.04831265623894" lon="12.225060390419502"><ele>830.0</ele><time>2026-03-29T10:39:00Z</time></trkpt><trkpt lat="46.048430052349325" lon="12.225092885720022"><ele>830.0</ele><time>2026-03-29T10:39:01Z</time></trkpt><trkpt lat="46.04855261496001" lon="12.22511493419436"><ele>830.0</ele><time>2026-03-29T10:39:02Z</time></trkpt><trkpt lat="46.04867591196894" lon="12.225127973368979"><ele>830.0</ele><time>2026-03-29T10:39:03Z</time></trkpt><trkpt lat="46.04879203598607" lon="12.225130202552243"><ele>830.0</ele><time>2026-03-29T10:39:04Z</time></trkpt><trkpt lat="46.048899472128014" lon="12.225132484007359"><ele>830.0</ele><time>2026-03-29T10:39:05Z</time></trkpt><trkpt lat="46.04899865059225" lon="12.225147978713837"><ele>830.0</ele><time>2026-03-29T10:39:06Z</time></trkpt><trkpt lat="46.04909045284486" lon="12.225183753986856"><ele>828.4</ele><time>2026-03-29T10:39:07Z</time></trkpt><trkpt lat="46.0491839178307" lon="12.225236988290483"><ele>826.8</ele><time>2026-03-29T10:39:08Z</time></trkpt><trkpt lat="46.04927717918098" lon="12.22531279339438"><ele>825.2</ele><time>2026-03-29T10:39:09Z</time></trkpt><trkpt lat="46.04936475706573" lon="12.22539535991221"><ele>823.6</ele><time>2026-03-29T10:39:10Z</time></trkpt><trkpt lat="46.04944996796033" lon="12.225476995706709"><ele>822.0</ele><time>2026-03-29T10:39:11Z</time></trkpt><trkpt lat="46.04954229589668" lon="12.225558459832548"><ele>822.0</ele><time>2026-03-29T10:39:12Z</time></trkpt><trkpt lat="46.049636667012805" lon="12.225643266762527"><ele>822.0</ele><time>2026-03-29T10:39:13Z</time></trkpt><trkpt lat="46.049730450837686" lon="12.225734222212886"><ele>822.0</ele><time>2026-03-29T10:39:14Z</time></trkpt><trkpt lat="46.04981919685861" lon="12.225816654287867"><ele>822.0</ele><time>2026-03-29T10:39:15Z</time></trkpt><trkpt lat="46.0499060311199" lon="12.225892345772266"><ele>822.0</ele><time>2026-03-29T10:39:16Z</time></trkpt><trkpt lat="46.049989675610206" lon="12.225963410975003"><ele>822.2</ele><time>2026-03-29T10:39:17Z</time></trkpt><trkpt lat="46.05006889827017" lon="12.22603300215419"><ele>822.4000000000001</ele><time>2026-03-29T10:39:18Z</time></trkpt><trkpt lat="46.050150291247995" lon="12.22610157183477"><ele>822.5999999999999</ele><time>2026-03-29T10:39:19Z</time></trkpt><trkpt lat="46.05023217227075" lon="12.226176037491955"><ele>822.8</ele><time>2026-03-29T10:39:20.001Z</time></trkpt><trkpt lat="46.05031211348285" lon="12.226256714882632"><ele>823.0</ele><time>2026-03-29T10:39:21.001Z</time></trkpt><trkpt lat="46.0503983812653" lon="12.22633006218901"><ele>823.0</ele><time>2026-03-29T10:39:22.001Z</time></trkpt><trkpt lat="46.05048641654683" lon="12.226412158609506"><ele>823.0</ele><time>2026-03-29T10:39:23.001Z</time></trkpt><trkpt lat="46.05057734307373" lon="12.226496420838194"><ele>823.0</ele><time>2026-03-29T10:39:24.001Z</time></trkpt><trkpt lat="46.050669585611026" lon="12.22658577747317"><ele>823.0</ele><time>2026-03-29T10:39:25.001Z</time></trkpt><trkpt lat="46.0507589469422" lon="12.226671712187644"><ele>823.0</ele><time>2026-03-29T10:39:26.001Z</time></trkpt><trkpt lat="46.05084476703765" lon="12.226754443284962"><ele>822.2</ele><time>2026-03-29T10:39:27.001Z</time></trkpt><trkpt lat="46.050919909799845" lon="12.226845360563958"><ele>821.4</ele><time>2026-03-29T10:39:28.001Z</time></trkpt><trkpt lat="46.05098491242615" lon="12.22694971630449"><ele>820.6</ele><time>2026-03-29T10:39:29.001Z</time></trkpt><trkpt lat="46.05104170939998" lon="12.227064897446176"><ele>819.8000000000001</ele><time>2026-03-29T10:39:30.001Z</time></trkpt><trkpt lat="46.051092595084164" lon="12.227184907398513"><ele>819.0</ele><time>2026-03-29T10:39:31.001Z</time></trkpt><trkpt lat="46.05115241558928" lon="12.227302971563503"><ele>820.4000000000001</ele><time>2026-03-29T10:39:32.001Z</time></trkpt><trkpt lat="46.05121798940959" lon="12.227415787241359"><ele>821.8</ele><time>2026-03-29T10:39:33.001Z</time></trkpt><trkpt lat="46.05129486472289" lon="12.227510026082935"><ele>823.2</ele><time>2026-03-29T10:39:34.001Z</time></trkpt><trkpt lat="46.05138197748117" lon="12.22760367087125"><ele>824.5999999999999</ele><time>2026-03-29T10:39:35.001Z</time></trkpt><trkpt lat="46.05148174009021" lon="12.227691708667605"><ele>826.0</ele><time>2026-03-29T10:39:36.001Z</time></trkpt><trkpt lat="46.05158124914686" lon="12.227771888866766"><ele>823.8</ele><time>2026-03-29T10:39:37.001Z</time></trkpt><trkpt lat="46.05167959948407" lon="12.227831286991641"><ele>821.5999999999999</ele><time>2026-03-29T10:39:38.001Z</time></trkpt><trkpt lat="46.05177786305044" lon="12.22787733262376"><ele>819.4</ele><time>2026-03-29T10:39:39.001Z</time></trkpt><trkpt lat="46.051878167261634" lon="12.227908570700523"><ele>817.2</ele><time>2026-03-29T10:39:40.001Z</time></trkpt><trkpt lat="46.05197555216642" lon="12.227937483522446"><ele>815.0</ele><time>2026-03-29T10:39:41.001Z</time></trkpt><trkpt lat="46.05207222073601" lon="12.227967507622932"><ele>815.0</ele><time>2026-03-29T10:39:42.001Z</time></trkpt><trkpt lat="46.052168927585875" lon="12.227995194491799"><ele>815.0</ele><time>2026-03-29T10:39:43.001Z</time></trkpt><trkpt lat="46.05226495111466" lon="12.228019431702519"><ele>815.0</ele><time>2026-03-29T10:39:44.001Z</time></trkpt><trkpt lat="46.052359457714196" lon="12.228036553679043"><ele>815.0</ele><time>2026-03-29T10:39:45.001Z</time></trkpt><trkpt lat="46.05245211854475" lon="12.228061149374007"><ele>815.0</ele><time>2026-03-29T10:39:46.001Z</time></trkpt><trkpt lat="46.052544585337" lon="12.228091501453962"><ele>814.2</ele><time>2026-03-29T10:39:47.001Z</time></trkpt><trkpt lat="46.05263658610019" lon="12.228121798205038"><ele>813.4</ele><time>2026-03-29T10:39:48.001Z</time></trkpt><trkpt lat="46.05272738181863" lon="12.228152606084032"><ele>812.5999999999999</ele><time>2026-03-29T10:39:49.001Z</time></trkpt><trkpt lat="46.052816640335934" lon="12.228181733030546"><ele>811.8</ele><time>2026-03-29T10:39:50.001Z</time></trkpt><trkpt lat="46.05290574254746" lon="12.228208316519046"><ele>811.0</ele><time>2026-03-29T10:39:51.001Z</time></trkpt><trkpt lat="46.05299533423038" lon="12.22822956766672"><ele>810.9999999999999</ele><time>2026-03-29T10:39:52.001Z</time></trkpt><trkpt lat="46.053083548907615" lon="12.228252255271938"><ele>811.0</ele><time>2026-03-29T10:39:53.001Z</time></trkpt><trkpt lat="46.05317168185855" lon="12.228284492587322"><ele>811.0</ele><time>2026-03-29T10:39:54.001Z</time></trkpt><trkpt lat="46.05325943656744" lon="12.22832063602089"><ele>811.0</ele><time>2026-03-29T10:39:55.001Z</time></trkpt><trkpt lat="46.05334561973402" lon="12.228358771717076"><ele>810.9999999999999</ele><time>2026-03-29T10:39:56.001Z</time></trkpt><trkpt lat="46.053423452653476" lon="12.228398149851186"><ele>811.0</ele><time>2026-03-29T10:39:57.001Z</time></trkpt><trkpt lat="46.05349348438272" lon="12.228443877856048"><ele>808.9999999999999</ele><time>2026-03-29T10:39:58.001Z</time></trkpt><trkpt lat="46.0535585704392" lon="12.228502378006958"><ele>807.0</ele><time>2026-03-29T10:39:59.001Z</time></trkpt><trkpt lat="46.05361393955447" lon="12.228557915592921"><ele>805.0</ele><time>2026-03-29T10:40:00.001Z</time></trkpt><trkpt lat="46.05371473749797" lon="12.22860625858944"><ele>803.0</ele><time>2026-03-29T10:40:02.001Z</time></trkpt><trkpt lat="46.05383901644019" lon="12.228575780788699"><ele>800.9999999999999</ele><time>2026-03-29T10:40:04.001Z</time></trkpt><trkpt lat="46.0539031245267" lon="12.228554066799346"><ele>799.0</ele><time>2026-03-29T10:40:05.001Z</time></trkpt><trkpt lat="46.05396725434683" lon="12.22852907219594"><ele>799.0</ele><time>2026-03-29T10:40:06.001Z</time></trkpt><trkpt lat="46.05403558998046" lon="12.22851392783512"><ele>799.0</ele><time>2026-03-29T10:40:07.001Z</time></trkpt><trkpt lat="46.0541035981401" lon="12.228519129361732"><ele>799.0</ele><time>2026-03-29T10:40:08.001Z</time></trkpt><trkpt lat="46.054172464883386" lon="12.228535550281084"><ele>799.0</ele><time>2026-03-29T10:40:09.001Z</time></trkpt><trkpt lat="46.05424455255853" lon="12.22855676339797"><ele>799.0</ele><time>2026-03-29T10:40:10.001Z</time></trkpt><trkpt lat="46.05431831850655" lon="12.228570397618682"><ele>799.0</ele><time>2026-03-29T10:40:11.001Z</time></trkpt><trkpt lat="46.05440811120909" lon="12.228575387967295"><ele>799.0</ele><time>2026-03-29T10:40:12.001Z</time></trkpt><trkpt lat="46.054506858729226" lon="12.228563645955884"><ele>797.4000000000001</ele><time>2026-03-29T10:40:13.001Z</time></trkpt><trkpt lat="46.05461203203168" lon="12.228538300048738"><ele>795.8</ele><time>2026-03-29T10:40:14.001Z</time></trkpt><trkpt lat="46.05471404201091" lon="12.228519929095008"><ele>794.2</ele><time>2026-03-29T10:40:15.001Z</time></trkpt><trkpt lat="46.05481446245785" lon="12.228503865582834"><ele>792.5999999999999</ele><time>2026-03-29T10:40:16.001Z</time></trkpt><trkpt lat="46.054904569115315" lon="12.228492368621973"><ele>791.0</ele><time>2026-03-29T10:40:17.001Z</time></trkpt><trkpt lat="46.0549823707888" lon="12.22848595730881"><ele>790.0</ele><time>2026-03-29T10:40:18.001Z</time></trkpt><trkpt lat="46.05505659097838" lon="12.228482110437954"><ele>789.0</ele><time>2026-03-29T10:40:19.001Z</time></trkpt><trkpt lat="46.05512890733077" lon="12.228478079872461"><ele>788.0</ele><time>2026-03-29T10:40:20.001Z</time></trkpt><trkpt lat="46.055198175364545" lon="12.228466249269996"><ele>787.0</ele><time>2026-03-29T10:40:21.001Z</time></trkpt><trkpt lat="46.05526675094462" lon="12.228449495554008"><ele>786.0</ele><time>2026-03-29T10:40:22.001Z</time></trkpt><trkpt lat="46.05535766411656" lon="12.228449134605286"><ele>785.0</ele><time>2026-03-29T10:40:24.001Z</time></trkpt><trkpt lat="46.055385962327875" lon="12.228536226321259"><ele>784.0</ele><time>2026-03-29T10:40:26.001Z</time></trkpt><trkpt lat="46.055353427145285" lon="12.22862134901572"><ele>784.0</ele><time>2026-03-29T10:40:28.001Z</time></trkpt><trkpt lat="46.055272935064664" lon="12.228654482774143"><ele>784.0</ele><time>2026-03-29T10:40:30.001Z</time></trkpt><trkpt lat="46.05517472872004" lon="12.228673142174165"><ele>784.0</ele><time>2026-03-29T10:40:32.001Z</time></trkpt><trkpt lat="46.05507719330496" lon="12.22875515777146"><ele>784.0</ele><time>2026-03-29T10:40:34.001Z</time></trkpt><trkpt lat="46.05496898021202" lon="12.22884945318309"><ele>784.0</ele><time>2026-03-29T10:40:36.001Z</time></trkpt><trkpt lat="46.05490954641275" lon="12.228879785679071"><ele>783.9999999999999</ele><time>2026-03-29T10:40:37.001Z</time></trkpt><trkpt lat="46.054844854403036" lon="12.22890546217403"><ele>784.0</ele><time>2026-03-29T10:40:38.001Z</time></trkpt><trkpt lat="46.054769852075886" lon="12.229035321615713"><ele>784.0</ele><time>2026-03-29T10:40:40.001Z</time></trkpt><trkpt lat="46.05480656517178" lon="12.229132060725753"><ele>784.0</ele><time>2026-03-29T10:40:42.001Z</time></trkpt><trkpt lat="46.054906975622174" lon="12.229097192025062"><ele>783.9999999999999</ele><time>2026-03-29T10:40:44.001Z</time></trkpt><trkpt lat="46.05495820545104" lon="12.229024945628609"><ele>784.0</ele><time>2026-03-29T10:40:45.001Z</time></trkpt><trkpt lat="46.05502994779264" lon="12.228966232654962"><ele>784.0</ele><time>2026-03-29T10:40:46.001Z</time></trkpt><trkpt lat="46.05510683473642" lon="12.228924645156182"><ele>784.0</ele><time>2026-03-29T10:40:47.001Z</time></trkpt><trkpt lat="46.05518887042229" lon="12.228897284225702"><ele>784.0</ele><time>2026-03-29T10:40:48Z</time></trkpt><trkpt lat="46.055267070502836" lon="12.228872851100204"><ele>784.0</ele><time>2026-03-29T10:40:49Z</time></trkpt><trkpt lat="46.05533641695223" lon="12.228884429049389"><ele>784.0</ele><time>2026-03-29T10:40:50Z</time></trkpt><trkpt lat="46.05540297860667" lon="12.228880516499197"><ele>784.0</ele><time>2026-03-29T10:40:51Z</time></trkpt><trkpt lat="46.05546686713793" lon="12.228856849331029"><ele>784.0</ele><time>2026-03-29T10:40:52Z</time></trkpt><trkpt lat="46.055523799035235" lon="12.228801438973495"><ele>784.0</ele><time>2026-03-29T10:40:53Z</time></trkpt><trkpt lat="46.055577588299215" lon="12.22872905908969"><ele>784.0</ele><time>2026-03-29T10:40:54Z</time></trkpt><trkpt lat="46.05562389663783" lon="12.228644535425428"><ele>784.0</ele><time>2026-03-29T10:40:55Z</time></trkpt><trkpt lat="46.055665736338" lon="12.228557524666407"><ele>784.0</ele><time>2026-03-29T10:40:56Z</time></trkpt><trkpt lat="46.05571769967234" lon="12.228478099307743"><ele>784.0</ele><time>2026-03-29T10:40:57Z</time></trkpt><trkpt lat="46.05577536886341" lon="12.228410897562293"><ele>784.0</ele><time>2026-03-29T10:40:58Z</time></trkpt><trkpt lat="46.05583925289058" lon="12.228355479202122"><ele>784.0</ele><time>2026-03-29T10:40:59Z</time></trkpt><trkpt lat="46.0559134585841" lon="12.228330532644712"><ele>782.3333333333333</ele><time>2026-03-29T10:41:00Z</time></trkpt><trkpt lat="46.055990617367364" lon="12.228330643135129"><ele>780.6666666666666</ele><time>2026-03-29T10:41:01Z</time></trkpt><trkpt lat="46.05606321371329" lon="12.228359533619258"><ele>779.0</ele><time>2026-03-29T10:41:02Z</time></trkpt><trkpt lat="46.05613047148261" lon="12.228422544791913"><ele>777.3333333333333</ele><time>2026-03-29T10:41:03Z</time></trkpt><trkpt lat="46.05619684224404" lon="12.228502549803691"><ele>775.6666666666666</ele><time>2026-03-29T10:41:04Z</time></trkpt><trkpt lat="46.056252404151934" lon="12.228588934763183"><ele>774.0</ele><time>2026-03-29T10:41:05Z</time></trkpt><trkpt lat="46.05631407825097" lon="12.228661722364286"><ele>774.0</ele><time>2026-03-29T10:41:06Z</time></trkpt><trkpt lat="46.05637956607289" lon="12.22871423715512"><ele>774.0</ele><time>2026-03-29T10:41:07Z</time></trkpt><trkpt lat="46.05644450148401" lon="12.228744279680937"><ele>774.0</ele><time>2026-03-29T10:41:08Z</time></trkpt><trkpt lat="46.05650854637548" lon="12.228731617926769"><ele>774.0</ele><time>2026-03-29T10:41:09Z</time></trkpt><trkpt lat="46.05657232069938" lon="12.228686476035545"><ele>774.0</ele><time>2026-03-29T10:41:10Z</time></trkpt><trkpt lat="46.05663281199551" lon="12.22861355981714"><ele>774.0</ele><time>2026-03-29T10:41:11Z</time></trkpt><trkpt lat="46.056688600675294" lon="12.228526115562572"><ele>774.0</ele><time>2026-03-29T10:41:12Z</time></trkpt><trkpt lat="46.05673740400925" lon="12.228444990002115"><ele>772.1428571428571</ele><time>2026-03-29T10:41:13Z</time></trkpt><trkpt lat="46.05679878374086" lon="12.228403103484526"><ele>770.2857142857143</ele><time>2026-03-29T10:41:14Z</time></trkpt><trkpt lat="46.05686524320282" lon="12.228383312139712"><ele>768.4285714285713</ele><time>2026-03-29T10:41:15Z</time></trkpt><trkpt lat="46.056934849617285" lon="12.228380389983492"><ele>766.5714285714286</ele><time>2026-03-29T10:41:16Z</time></trkpt><trkpt lat="46.056999376986774" lon="12.228401772514408"><ele>764.7142857142857</ele><time>2026-03-29T10:41:17Z</time></trkpt><trkpt lat="46.05705425939205" lon="12.228466682928003"><ele>762.8571428571428</ele><time>2026-03-29T10:41:18Z</time></trkpt><trkpt lat="46.057088746817485" lon="12.228553417859635"><ele>761.0</ele><time>2026-03-29T10:41:19Z</time></trkpt><trkpt lat="46.05710689191579" lon="12.228670357526749"><ele>761.0</ele><time>2026-03-29T10:41:20Z</time></trkpt><trkpt lat="46.0571482052498" lon="12.228792762998967"><ele>761.0</ele><time>2026-03-29T10:41:21Z</time></trkpt><trkpt lat="46.05721285800194" lon="12.228915344424069"><ele>761.0</ele><time>2026-03-29T10:41:22Z</time></trkpt><trkpt lat="46.05728011572385" lon="12.229026692102172"><ele>761.0</ele><time>2026-03-29T10:41:23Z</time></trkpt><trkpt lat="46.05736058800913" lon="12.22913675292465"><ele>761.0</ele><time>2026-03-29T10:41:24Z</time></trkpt><trkpt lat="46.05744436138577" lon="12.229251393688301"><ele>757.8</ele><time>2026-03-29T10:41:25Z</time></trkpt><trkpt lat="46.05752871250849" lon="12.22936471552096"><ele>754.5999999999999</ele><time>2026-03-29T10:41:26Z</time></trkpt><trkpt lat="46.05760529716601" lon="12.229470664191009"><ele>751.4</ele><time>2026-03-29T10:41:27Z</time></trkpt><trkpt lat="46.05768127556909" lon="12.229571038165238"><ele>748.2</ele><time>2026-03-29T10:41:28Z</time></trkpt><trkpt lat="46.05777076650661" lon="12.229637977212677"><ele>745.0</ele><time>2026-03-29T10:41:29Z</time></trkpt><trkpt lat="46.057865822123325" lon="12.22968853150543"><ele>745.0</ele><time>2026-03-29T10:41:30Z</time></trkpt><trkpt lat="46.05797305956862" lon="12.229743437375232"><ele>745.0</ele><time>2026-03-29T10:41:31Z</time></trkpt><trkpt lat="46.05808735027457" lon="12.229797566114645"><ele>745.0</ele><time>2026-03-29T10:41:32Z</time></trkpt><trkpt lat="46.058196017389186" lon="12.229853438215452"><ele>745.0</ele><time>2026-03-29T10:41:33Z</time></trkpt><trkpt lat="46.05829926252828" lon="12.229903272780273"><ele>742.8333333333334</ele><time>2026-03-29T10:41:34Z</time></trkpt><trkpt lat="46.05840023905659" lon="12.229949478485153"><ele>740.6666666666667</ele><time>2026-03-29T10:41:35.001Z</time></trkpt><trkpt lat="46.0584790811501" lon="12.22999877540404"><ele>738.5</ele><time>2026-03-29T10:41:36.001Z</time></trkpt><trkpt lat="46.05853453341" lon="12.230042441872799"><ele>736.3333333333334</ele><time>2026-03-29T10:41:37.001Z</time></trkpt><trkpt lat="46.05856299434818" lon="12.230158255572121"><ele>734.1666666666666</ele><time>2026-03-29T10:41:39.001Z</time></trkpt><trkpt lat="46.05849406337103" lon="12.230237204667574"><ele>732.0</ele><time>2026-03-29T10:41:41.001Z</time></trkpt><trkpt lat="46.05842379013778" lon="12.230217153073596"><ele>732.0</ele><time>2026-03-29T10:41:42.001Z</time></trkpt><trkpt lat="46.05834492832597" lon="12.230170290200949"><ele>732.0</ele><time>2026-03-29T10:41:43.001Z</time></trkpt><trkpt lat="46.05825212902723" lon="12.230150166337404"><ele>732.0</ele><time>2026-03-29T10:41:44.001Z</time></trkpt><trkpt lat="46.05815010883547" lon="12.230140332149597"><ele>732.0</ele><time>2026-03-29T10:41:45.001Z</time></trkpt><trkpt lat="46.05805235985646" lon="12.230154785830145"><ele>732.0</ele><time>2026-03-29T10:41:46.001Z</time></trkpt><trkpt lat="46.05796125514462" lon="12.230180380707527"><ele>729.2</ele><time>2026-03-29T10:41:47.001Z</time></trkpt><trkpt lat="46.057872457110534" lon="12.230185175058985"><ele>726.4000000000001</ele><time>2026-03-29T10:41:48.001Z</time></trkpt><trkpt lat="46.057768813511046" lon="12.230167573713928"><ele>723.5999999999999</ele><time>2026-03-29T10:41:49.001Z</time></trkpt><trkpt lat="46.05765539736557" lon="12.230129521740379"><ele>720.8</ele><time>2026-03-29T10:41:50.001Z</time></trkpt><trkpt lat="46.057537723680696" lon="12.230088412415274"><ele>718.0</ele><time>2026-03-29T10:41:51.001Z</time></trkpt><trkpt lat="46.05742908003944" lon="12.230049113823732"><ele>716.4</ele><time>2026-03-29T10:41:52.001Z</time></trkpt><trkpt lat="46.05732909486341" lon="12.230001072408077"><ele>714.8</ele><time>2026-03-29T10:41:53.001Z</time></trkpt><trkpt lat="46.05723690240075" lon="12.229947805266033"><ele>713.2</ele><time>2026-03-29T10:41:54.001Z</time></trkpt><trkpt lat="46.0571500251731" lon="12.229888841367806"><ele>711.6</ele><time>2026-03-29T10:41:55.001Z</time></trkpt><trkpt lat="46.05707164671565" lon="12.229831664754606"><ele>710.0</ele><time>2026-03-29T10:41:56.001Z</time></trkpt><trkpt lat="46.05700387391892" lon="12.229797247877114"><ele>710.0</ele><time>2026-03-29T10:41:57.001Z</time></trkpt><trkpt lat="46.05693473703658" lon="12.229834644808125"><ele>710.0</ele><time>2026-03-29T10:41:59.001Z</time></trkpt><trkpt lat="46.056962978036545" lon="12.229975948662604"><ele>710.0</ele><time>2026-03-29T10:42:01.001Z</time></trkpt><trkpt lat="46.05704338290947" lon="12.230039335183001"><ele>710.0</ele><time>2026-03-29T10:42:02.001Z</time></trkpt><trkpt lat="46.05711324956538" lon="12.230092916336636"><ele>710.0</ele><time>2026-03-29T10:42:03.001Z</time></trkpt><trkpt lat="46.05719256399269" lon="12.230178132408307"><ele>710.0</ele><time>2026-03-29T10:42:04.001Z</time></trkpt><trkpt lat="46.05727722914158" lon="12.230276511438172"><ele>710.0</ele><time>2026-03-29T10:42:05.001Z</time></trkpt><trkpt lat="46.05736123257177" lon="12.230386218984226"><ele>710.0</ele><time>2026-03-29T10:42:06.001Z</time></trkpt><trkpt lat="46.05744161547511" lon="12.230492729983439"><ele>710.0</ele><time>2026-03-29T10:42:07.001Z</time></trkpt><trkpt lat="46.057522706667406" lon="12.230593224397131"><ele>710.0</ele><time>2026-03-29T10:42:08.001Z</time></trkpt><trkpt lat="46.057604875215326" lon="12.230682427308958"><ele>710.0</ele><time>2026-03-29T10:42:09.001Z</time></trkpt><trkpt lat="46.057687223570554" lon="12.230762731233186"><ele>707.6</ele><time>2026-03-29T10:42:10.001Z</time></trkpt><trkpt lat="46.0577640710134" lon="12.230853163852009"><ele>705.2</ele><time>2026-03-29T10:42:11.001Z</time></trkpt><trkpt lat="46.057837247298274" lon="12.230950920005624"><ele>702.8</ele><time>2026-03-29T10:42:12.001Z</time></trkpt><trkpt lat="46.05790493583913" lon="12.231058589932525"><ele>700.4</ele><time>2026-03-29T10:42:13.001Z</time></trkpt><trkpt lat="46.05797071015133" lon="12.231164774533587"><ele>698.0</ele><time>2026-03-29T10:42:14.001Z</time></trkpt><trkpt lat="46.05803185151301" lon="12.231265379582087"><ele>698.0</ele><time>2026-03-29T10:42:15.001Z</time></trkpt><trkpt lat="46.05810426635573" lon="12.23136173805673"><ele>698.0</ele><time>2026-03-29T10:42:16.001Z</time></trkpt><trkpt lat="46.05818073959054" lon="12.231433970969276"><ele>698.0</ele><time>2026-03-29T10:42:17.001Z</time></trkpt><trkpt lat="46.058259792303396" lon="12.231460011373187"><ele>698.0</ele><time>2026-03-29T10:42:18.001Z</time></trkpt><trkpt lat="46.05834562245339" lon="12.231456677085527"><ele>698.0</ele><time>2026-03-29T10:42:19.001Z</time></trkpt><trkpt lat="46.05844849388426" lon="12.231437025674705"><ele>697.4</ele><time>2026-03-29T10:42:20.001Z</time></trkpt><trkpt lat="46.05837779989198" lon="12.231575295041944"><ele>696.8</ele><time>2026-03-29T10:42:21.001Z</time></trkpt><trkpt lat="46.058470375323196" lon="12.231575034712497"><ele>696.2</ele><time>2026-03-29T10:42:22.001Z</time></trkpt><trkpt lat="46.05855686087464" lon="12.231602656382801"><ele>695.6</ele><time>2026-03-29T10:42:23.001Z</time></trkpt><trkpt lat="46.05863897305047" lon="12.231655954710858"><ele>695.0</ele><time>2026-03-29T10:42:24.001Z</time></trkpt><trkpt lat="46.05870092205714" lon="12.231738953640944"><ele>695.0</ele><time>2026-03-29T10:42:25.001Z</time></trkpt><trkpt lat="46.05874802315961" lon="12.231863699206974"><ele>695.0</ele><time>2026-03-29T10:42:26.001Z</time></trkpt><trkpt lat="46.05879695873883" lon="12.232008763233047"><ele>695.0</ele><time>2026-03-29T10:42:27.001Z</time></trkpt><trkpt lat="46.058850108193724" lon="12.232173516002055"><ele>695.0</ele><time>2026-03-29T10:42:28.001Z</time></trkpt><trkpt lat="46.05889328640388" lon="12.232344053749788"><ele>690.0</ele><time>2026-03-29T10:42:29.001Z</time></trkpt><trkpt lat="46.05894438391001" lon="12.232501404115036"><ele>685.0</ele><time>2026-03-29T10:42:30.001Z</time></trkpt><trkpt lat="46.0589931413443" lon="12.232642276643592"><ele>680.0</ele><time>2026-03-29T10:42:31.001Z</time></trkpt><trkpt lat="46.059049203704205" lon="12.23278030401408"><ele>675.0</ele><time>2026-03-29T10:42:32.001Z</time></trkpt><trkpt lat="46.059110172919084" lon="12.232916600308043"><ele>675.0</ele><time>2026-03-29T10:42:33.001Z</time></trkpt><trkpt lat="46.059168707326805" lon="12.233064055394818"><ele>675.0</ele><time>2026-03-29T10:42:34.001Z</time></trkpt><trkpt lat="46.05922585824648" lon="12.23320469488033"><ele>675.0</ele><time>2026-03-29T10:42:35.001Z</time></trkpt><trkpt lat="46.05928492012114" lon="12.233333636404781"><ele>675.0</ele><time>2026-03-29T10:42:36.001Z</time></trkpt><trkpt lat="46.059343827647886" lon="12.233452339568192"><ele>675.0</ele><time>2026-03-29T10:42:37.001Z</time></trkpt><trkpt lat="46.059403544272016" lon="12.233559713444183"><ele>675.0</ele><time>2026-03-29T10:42:38.001Z</time></trkpt><trkpt lat="46.05947225553841" lon="12.233663367462515"><ele>675.0</ele><time>2026-03-29T10:42:39.001Z</time></trkpt><trkpt lat="46.05953853090672" lon="12.233774130533948"><ele>675.0</ele><time>2026-03-29T10:42:40.001Z</time></trkpt><trkpt lat="46.0595962771617" lon="12.233883413202824"><ele>675.0</ele><time>2026-03-29T10:42:41.001Z</time></trkpt><trkpt lat="46.05965516313635" lon="12.23399687321011"><ele>675.0</ele><time>2026-03-29T10:42:42.001Z</time></trkpt><trkpt lat="46.05971271239986" lon="12.234059114334492"><ele>674.3333333333334</ele><time>2026-03-29T10:42:43.001Z</time></trkpt><trkpt lat="46.059789077699435" lon="12.23410613912723"><ele>673.6666666666666</ele><time>2026-03-29T10:42:44.001Z</time></trkpt><trkpt lat="46.05987643864902" lon="12.234122495907862"><ele>673.0</ele><time>2026-03-29T10:42:45.001Z</time></trkpt><trkpt lat="46.059958222282056" lon="12.234138913456125"><ele>672.3333333333333</ele><time>2026-03-29T10:42:46.001Z</time></trkpt><trkpt lat="46.06004544235627" lon="12.234118139010862"><ele>671.6666666666666</ele><time>2026-03-29T10:42:47.001Z</time></trkpt><trkpt lat="46.060138079741904" lon="12.234103763659204"><ele>671.0</ele><time>2026-03-29T10:42:48.001Z</time></trkpt><trkpt lat="46.0602270642057" lon="12.23409118411065"><ele>671.0</ele><time>2026-03-29T10:42:49.001Z</time></trkpt><trkpt lat="46.06029982526889" lon="12.23412392431545"><ele>671.0</ele><time>2026-03-29T10:42:50.001Z</time></trkpt><trkpt lat="46.06035948298785" lon="12.234196322690805"><ele>671.0</ele><time>2026-03-29T10:42:51.001Z</time></trkpt><trkpt lat="46.060405864516575" lon="12.234295133021002"><ele>671.0</ele><time>2026-03-29T10:42:52.001Z</time></trkpt><trkpt lat="46.06044772418618" lon="12.234422439817365"><ele>671.0</ele><time>2026-03-29T10:42:53.001Z</time></trkpt><trkpt lat="46.06048308872473" lon="12.234557195799708"><ele>671.0</ele><time>2026-03-29T10:42:54Z</time></trkpt><trkpt lat="46.06052953434951" lon="12.2346791359793"><ele>671.0</ele><time>2026-03-29T10:42:55Z</time></trkpt><trkpt lat="46.06058047720404" lon="12.234781504772345"><ele>671.0</ele><time>2026-03-29T10:42:56Z</time></trkpt><trkpt lat="46.06063678889271" lon="12.234856912201382"><ele>671.0</ele><time>2026-03-29T10:42:57Z</time></trkpt><trkpt lat="46.06070856641307" lon="12.234898320414555"><ele>671.0</ele><time>2026-03-29T10:42:58Z</time></trkpt><trkpt lat="46.06078977967106" lon="12.234927639909897"><ele>671.0</ele><time>2026-03-29T10:42:59Z</time></trkpt><trkpt lat="46.06087114948361" lon="12.234961371348556"><ele>671.0</ele><time>2026-03-29T10:43:00Z</time></trkpt><trkpt lat="46.060960192467235" lon="12.2349917627826"><ele>668.1666666666666</ele><time>2026-03-29T10:43:01Z</time></trkpt><trkpt lat="46.061040941749035" lon="12.235026337789499"><ele>665.3333333333333</ele><time>2026-03-29T10:43:02Z</time></trkpt><trkpt lat="46.06109509374033" lon="12.235072955702307"><ele>662.5</ele><time>2026-03-29T10:43:03Z</time></trkpt><trkpt lat="46.06114463032069" lon="12.235189987749866"><ele>659.6666666666666</ele><time>2026-03-29T10:43:05Z</time></trkpt><trkpt lat="46.06106211904675" lon="12.23528563748193"><ele>656.8333333333334</ele><time>2026-03-29T10:43:07Z</time></trkpt><trkpt lat="46.06097444533502" lon="12.235290452298132"><ele>654.0</ele><time>2026-03-29T10:43:08Z</time></trkpt><trkpt lat="46.06087282944395" lon="12.235284136446571"><ele>652.6666666666666</ele><time>2026-03-29T10:43:09Z</time></trkpt><trkpt lat="46.06076578007912" lon="12.235284249478616"><ele>651.3333333333334</ele><time>2026-03-29T10:43:10Z</time></trkpt><trkpt lat="46.060668265262464" lon="12.235293215980665"><ele>650.0</ele><time>2026-03-29T10:43:11Z</time></trkpt><trkpt lat="46.06058658210628" lon="12.235314344791801"><ele>648.6666666666667</ele><time>2026-03-29T10:43:12Z</time></trkpt><trkpt lat="46.06052361845309" lon="12.235339107390422"><ele>647.3333333333334</ele><time>2026-03-29T10:43:13Z</time></trkpt><trkpt lat="46.06047775433158" lon="12.235425653491253"><ele>646.0</ele><time>2026-03-29T10:43:15Z</time></trkpt><trkpt lat="46.06054869731689" lon="12.235552653841028"><ele>646.0</ele><time>2026-03-29T10:43:17Z</time></trkpt><trkpt lat="46.060623806011364" lon="12.235619086888219"><ele>646.0</ele><time>2026-03-29T10:43:18Z</time></trkpt><trkpt lat="46.06070949054638" lon="12.23569285865294"><ele>646.0</ele><time>2026-03-29T10:43:19Z</time></trkpt><trkpt lat="46.06078245731718" lon="12.235789012730079"><ele>646.0</ele><time>2026-03-29T10:43:20Z</time></trkpt><trkpt lat="46.06084195795978" lon="12.235901983442327"><ele>646.0</ele><time>2026-03-29T10:43:21Z</time></trkpt><trkpt lat="46.06089372832347" lon="12.236021818411423"><ele>643.5</ele><time>2026-03-29T10:43:22Z</time></trkpt><trkpt lat="46.06094200847036" lon="12.236142795183326"><ele>641.0</ele><time>2026-03-29T10:43:23Z</time></trkpt><trkpt lat="46.06098571849849" lon="12.236252888918404"><ele>638.5</ele><time>2026-03-29T10:43:24Z</time></trkpt><trkpt lat="46.06102732925293" lon="12.236343438455119"><ele>636.0</ele><time>2026-03-29T10:43:25Z</time></trkpt><trkpt lat="46.061075776379404" lon="12.236410385832306"><ele>633.5</ele><time>2026-03-29T10:43:26Z</time></trkpt><trkpt lat="46.06114522884186" lon="12.23643515191628"><ele>631.0</ele><time>2026-03-29T10:43:27Z</time></trkpt><trkpt lat="46.06122426122187" lon="12.23642412705918"><ele>631.0</ele><time>2026-03-29T10:43:28Z</time></trkpt><trkpt lat="46.06129743083267" lon="12.236397808656278"><ele>631.0</ele><time>2026-03-29T10:43:29Z</time></trkpt><trkpt lat="46.061379135153686" lon="12.236492763434564"><ele>631.0</ele><time>2026-03-29T10:43:31Z</time></trkpt><trkpt lat="46.061354444420736" lon="12.236650575390009"><ele>631.0</ele><time>2026-03-29T10:43:33Z</time></trkpt><trkpt lat="46.06130021464497" lon="12.236724751492844"><ele>631.0</ele><time>2026-03-29T10:43:34Z</time></trkpt><trkpt lat="46.06123255073248" lon="12.236816700299077"><ele>627.6</ele><time>2026-03-29T10:43:35Z</time></trkpt><trkpt lat="46.06117320804847" lon="12.236947988502376"><ele>624.2</ele><time>2026-03-29T10:43:36Z</time></trkpt><trkpt lat="46.06112666148791" lon="12.23710661453275"><ele>620.8</ele><time>2026-03-29T10:43:37Z</time></trkpt><trkpt lat="46.0610837751606" lon="12.237259564764143"><ele>617.4</ele><time>2026-03-29T10:43:38Z</time></trkpt><trkpt lat="46.06103377553502" lon="12.237395092981327"><ele>614.0</ele><time>2026-03-29T10:43:39Z</time></trkpt><trkpt lat="46.06098715688233" lon="12.237522446524556"><ele>613.0</ele><time>2026-03-29T10:43:40Z</time></trkpt><trkpt lat="46.06095593037922" lon="12.237660209145863"><ele>612.0</ele><time>2026-03-29T10:43:41Z</time></trkpt><trkpt lat="46.06093867282999" lon="12.237799012365533"><ele>611.0</ele><time>2026-03-29T10:43:42Z</time></trkpt><trkpt lat="46.060935498504335" lon="12.237939190448564"><ele>610.0</ele><time>2026-03-29T10:43:43Z</time></trkpt><trkpt lat="46.060955140134894" lon="12.238077639665637"><ele>609.0</ele><time>2026-03-29T10:43:44Z</time></trkpt><trkpt lat="46.060988599987134" lon="12.23821114087556"><ele>609.0</ele><time>2026-03-29T10:43:45Z</time></trkpt><trkpt lat="46.06104114777159" lon="12.238323535245629"><ele>609.0</ele><time>2026-03-29T10:43:46Z</time></trkpt><trkpt lat="46.061098762215344" lon="12.23842542845027"><ele>609.0</ele><time>2026-03-29T10:43:47Z</time></trkpt><trkpt lat="46.06115455095076" lon="12.238511625090322"><ele>609.0</ele><time>2026-03-29T10:43:48Z</time></trkpt><trkpt lat="46.061206078339765" lon="12.2385987946226"><ele>609.0</ele><time>2026-03-29T10:43:49Z</time></trkpt><trkpt lat="46.06127137072143" lon="12.238679563568418"><ele>609.0</ele><time>2026-03-29T10:43:50Z</time></trkpt><trkpt lat="46.061358075774336" lon="12.238731602377007"><ele>609.0</ele><time>2026-03-29T10:43:51Z</time></trkpt><trkpt lat="46.06145670909474" lon="12.238755048276799"><ele>609.0</ele><time>2026-03-29T10:43:52Z</time></trkpt><trkpt lat="46.061569532192436" lon="12.238765843154573"><ele>609.0</ele><time>2026-03-29T10:43:53Z</time></trkpt><trkpt lat="46.061697045957466" lon="12.238767041388364"><ele>609.0</ele><time>2026-03-29T10:43:54Z</time></trkpt><trkpt lat="46.06183227683269" lon="12.23876817879593"><ele>606.2</ele><time>2026-03-29T10:43:55Z</time></trkpt><trkpt lat="46.061962495650626" lon="12.238775489316893"><ele>603.4</ele><time>2026-03-29T10:43:56Z</time></trkpt><trkpt lat="46.062058367919136" lon="12.23879055204636"><ele>600.6</ele><time>2026-03-29T10:43:57Z</time></trkpt><trkpt lat="46.06213685990246" lon="12.23880989407763"><ele>597.8</ele><time>2026-03-29T10:43:58Z</time></trkpt><trkpt lat="46.06221121669737" lon="12.238860568303554"><ele>595.0</ele><time>2026-03-29T10:43:59Z</time></trkpt><trkpt lat="46.06230117569915" lon="12.238933113836973"><ele>597.2</ele><time>2026-03-29T10:44:00.001Z</time></trkpt><trkpt lat="46.06240314423678" lon="12.239021631550292"><ele>599.4</ele><time>2026-03-29T10:44:01.001Z</time></trkpt><trkpt lat="46.06251012578883" lon="12.239106580907931"><ele>601.6</ele><time>2026-03-29T10:44:02.001Z</time></trkpt><trkpt lat="46.062591254643316" lon="12.23915892078447"><ele>603.8</ele><time>2026-03-29T10:44:03.001Z</time></trkpt><trkpt lat="46.062662999940954" lon="12.239267697370895"><ele>606.0</ele><time>2026-03-29T10:44:05.001Z</time></trkpt><trkpt lat="46.0627416045027" lon="12.239380231094973"><ele>606.0</ele><time>2026-03-29T10:44:07.001Z</time></trkpt><trkpt lat="46.06280873447736" lon="12.239368549327926"><ele>606.0</ele><time>2026-03-29T10:44:08.001Z</time></trkpt><trkpt lat="46.06288105176735" lon="12.239324564281594"><ele>606.0</ele><time>2026-03-29T10:44:09.001Z</time></trkpt><trkpt lat="46.06296897294704" lon="12.239242761780284"><ele>606.0</ele><time>2026-03-29T10:44:10.001Z</time></trkpt><trkpt lat="46.06305091979928" lon="12.239179217428191"><ele>606.0</ele><time>2026-03-29T10:44:11.001Z</time></trkpt><trkpt lat="46.06312554564536" lon="12.23915227505907"><ele>606.0</ele><time>2026-03-29T10:44:12.001Z</time></trkpt><trkpt lat="46.063234123494524" lon="12.239186272046966"><ele>604.8333333333334</ele><time>2026-03-29T10:44:14.001Z</time></trkpt><trkpt lat="46.06328876862408" lon="12.239256034309653"><ele>603.6666666666666</ele><time>2026-03-29T10:44:15.001Z</time></trkpt><trkpt lat="46.06335478073832" lon="12.239334941013706"><ele>602.5</ele><time>2026-03-29T10:44:16.001Z</time></trkpt><trkpt lat="46.063416867466174" lon="12.239419422698186"><ele>601.3333333333333</ele><time>2026-03-29T10:44:17.001Z</time></trkpt><trkpt lat="46.063468273856564" lon="12.239519761870866"><ele>600.1666666666666</ele><time>2026-03-29T10:44:18.001Z</time></trkpt><trkpt lat="46.06350743051361" lon="12.239627450485715"><ele>599.0</ele><time>2026-03-29T10:44:19.001Z</time></trkpt><trkpt lat="46.063551435198406" lon="12.239706676490508"><ele>599.0</ele><time>2026-03-29T10:44:20.001Z</time></trkpt><trkpt lat="46.0636769861127" lon="12.239732197753941"><ele>599.0</ele><time>2026-03-29T10:44:22.001Z</time></trkpt><trkpt lat="46.063769202449514" lon="12.239683324491152"><ele>599.0</ele><time>2026-03-29T10:44:23.001Z</time></trkpt><trkpt lat="46.06385174942583" lon="12.239659691133571"><ele>599.0</ele><time>2026-03-29T10:44:24.001Z</time></trkpt><trkpt lat="46.0639253850382" lon="12.239682657476388"><ele>599.0</ele><time>2026-03-29T10:44:25.001Z</time></trkpt><trkpt lat="46.06399042118812" lon="12.239726439741137"><ele>599.0</ele><time>2026-03-29T10:44:26.001Z</time></trkpt><trkpt lat="46.06408879745313" lon="12.239629461272727"><ele>599.0</ele><time>2026-03-29T10:44:28.001Z</time></trkpt><trkpt lat="46.06416207436153" lon="12.23949481505293"><ele>599.0</ele><time>2026-03-29T10:44:30.001Z</time></trkpt><trkpt lat="46.06425998689573" lon="12.239478580009077"><ele>599.0</ele><time>2026-03-29T10:44:32.001Z</time></trkpt><trkpt lat="46.06432630457223" lon="12.23952880651276"><ele>599.0</ele><time>2026-03-29T10:44:33.001Z</time></trkpt><trkpt lat="46.06439593308574" lon="12.239620307135159"><ele>596.8333333333333</ele><time>2026-03-29T10:44:34.001Z</time></trkpt><trkpt lat="46.0644597800873" lon="12.239732737318958"><ele>594.6666666666666</ele><time>2026-03-29T10:44:35.001Z</time></trkpt><trkpt lat="46.06452620844497" lon="12.239815046486209"><ele>592.5</ele><time>2026-03-29T10:44:36.001Z</time></trkpt><trkpt lat="46.06460206601378" lon="12.239869440727746"><ele>590.3333333333334</ele><time>2026-03-29T10:44:37.001Z</time></trkpt><trkpt lat="46.064679496522984" lon="12.23992566014218"><ele>588.1666666666667</ele><time>2026-03-29T10:44:38.001Z</time></trkpt><trkpt lat="46.06474116719604" lon="12.239994906279017"><ele>586.0</ele><time>2026-03-29T10:44:39.001Z</time></trkpt><trkpt lat="46.06477888912299" lon="12.240134392282139"><ele>586.5714285714286</ele><time>2026-03-29T10:44:41.001Z</time></trkpt><trkpt lat="46.064752731071344" lon="12.24024378690624"><ele>587.1428571428571</ele><time>2026-03-29T10:44:42.001Z</time></trkpt><trkpt lat="46.06471414070637" lon="12.240349973470197"><ele>587.7142857142858</ele><time>2026-03-29T10:44:43.001Z</time></trkpt><trkpt lat="46.06470748469453" lon="12.240447604378446"><ele>588.2857142857142</ele><time>2026-03-29T10:44:44.001Z</time></trkpt><trkpt lat="46.06474223801176" lon="12.24053157929387"><ele>588.8571428571429</ele><time>2026-03-29T10:44:45.001Z</time></trkpt><trkpt lat="46.06480522164013" lon="12.24056495716669"><ele>589.4285714285714</ele><time>2026-03-29T10:44:46.001Z</time></trkpt><trkpt lat="46.06488043631569" lon="12.240553588050652"><ele>590.0</ele><time>2026-03-29T10:44:47.001Z</time></trkpt><trkpt lat="46.064968664941844" lon="12.240517110057313"><ele>590.0</ele><time>2026-03-29T10:44:48.001Z</time></trkpt><trkpt lat="46.06507464687371" lon="12.2404657045344"><ele>590.0</ele><time>2026-03-29T10:44:49.001Z</time></trkpt><trkpt lat="46.06518641707533" lon="12.240446985698595"><ele>590.0</ele><time>2026-03-29T10:44:50.001Z</time></trkpt><trkpt lat="46.065299546618284" lon="12.240464525175998"><ele>590.0</ele><time>2026-03-29T10:44:51.001Z</time></trkpt><trkpt lat="46.06540868370598" lon="12.240489847827124"><ele>590.0</ele><time>2026-03-29T10:44:52.001Z</time></trkpt><trkpt lat="46.06550681927409" lon="12.240505173838281"><ele>590.0</ele><time>2026-03-29T10:44:53.001Z</time></trkpt><trkpt lat="46.065596141501175" lon="12.240528347749928"><ele>590.0</ele><time>2026-03-29T10:44:54.001Z</time></trkpt><trkpt lat="46.065680298596135" lon="12.24057719172142"><ele>590.0</ele><time>2026-03-29T10:44:55.001Z</time></trkpt><trkpt lat="46.06576849175495" lon="12.2406503099287"><ele>590.0</ele><time>2026-03-29T10:44:56.001Z</time></trkpt><trkpt lat="46.06586493374179" lon="12.240734125921787"><ele>590.0</ele><time>2026-03-29T10:44:57.001Z</time></trkpt><trkpt lat="46.06596977596677" lon="12.240826617029438"><ele>589.25</ele><time>2026-03-29T10:44:58.001Z</time></trkpt><trkpt lat="46.06607530993263" lon="12.240922712658296"><ele>588.5</ele><time>2026-03-29T10:44:59.001Z</time></trkpt><trkpt lat="46.06617842008428" lon="12.241020980197115"><ele>587.75</ele><time>2026-03-29T10:45:00Z</time></trkpt><trkpt lat="46.066269448568725" lon="12.241112275670508"><ele>587.0</ele><time>2026-03-29T10:45:01Z</time></trkpt><trkpt lat="46.0663444080844" lon="12.241192001661794"><ele>587.0</ele><time>2026-03-29T10:45:02Z</time></trkpt><trkpt lat="46.06641500422746" lon="12.241259770390396"><ele>587.0</ele><time>2026-03-29T10:45:03Z</time></trkpt><trkpt lat="46.06649141885587" lon="12.241384377695445"><ele>587.0</ele><time>2026-03-29T10:45:05Z</time></trkpt><trkpt lat="46.06652537685274" lon="12.241544207452046"><ele>587.0</ele><time>2026-03-29T10:45:07Z</time></trkpt><trkpt lat="46.06655890692362" lon="12.241709209534736"><ele>587.0</ele><time>2026-03-29T10:45:09Z</time></trkpt><trkpt lat="46.06657201141012" lon="12.241802977071092"><ele>586.5</ele><time>2026-03-29T10:45:10Z</time></trkpt><trkpt lat="46.06659306758625" lon="12.24196910864397"><ele>586.0</ele><time>2026-03-29T10:45:12Z</time></trkpt><trkpt lat="46.06659977353619" lon="12.242130472901673"><ele>585.5</ele><time>2026-03-29T10:45:14Z</time></trkpt><trkpt lat="46.06655020567463" lon="12.242289011335021"><ele>585.0</ele><time>2026-03-29T10:45:16Z</time></trkpt><trkpt lat="46.06647630502263" lon="12.242427141144818"><ele>585.0</ele><time>2026-03-29T10:45:18Z</time></trkpt><trkpt lat="46.06640376742032" lon="12.242571118955706"><ele>585.0</ele><time>2026-03-29T10:45:20Z</time></trkpt><trkpt lat="46.06633129380139" lon="12.242712631979137"><ele>585.0</ele><time>2026-03-29T10:45:22Z</time></trkpt><trkpt lat="46.06625403381894" lon="12.24284559610166"><ele>585.0</ele><time>2026-03-29T10:45:24Z</time></trkpt><trkpt lat="46.066200202387044" lon="12.242983955378627"><ele>585.0</ele><time>2026-03-29T10:45:26Z</time></trkpt><trkpt lat="46.06620510336302" lon="12.243105361986078"><ele>585.0</ele><time>2026-03-29T10:45:28Z</time></trkpt><trkpt lat="46.066301731508304" lon="12.243189728793187"><ele>585.0</ele><time>2026-03-29T10:45:30Z</time></trkpt><trkpt lat="46.06636224108138" lon="12.243221737322896"><ele>585.0</ele><time>2026-03-29T10:45:31Z</time></trkpt><trkpt lat="46.06642595174098" lon="12.243253645533043"><ele>585.0</ele><time>2026-03-29T10:45:32Z</time></trkpt><trkpt lat="46.066490852222785" lon="12.243268870651283"><ele>585.0</ele><time>2026-03-29T10:45:33Z</time></trkpt><trkpt lat="46.066555429704806" lon="12.243273657682876"><ele>582.0</ele><time>2026-03-29T10:45:34Z</time></trkpt><trkpt lat="46.06661999649909" lon="12.243261366535627"><ele>579.0</ele><time>2026-03-29T10:45:35Z</time></trkpt><trkpt lat="46.06668396908143" lon="12.243247469482812"><ele>576.0</ele><time>2026-03-29T10:45:36Z</time></trkpt><trkpt lat="46.0668076456512" lon="12.243231833216838"><ele>573.0</ele><time>2026-03-29T10:45:38Z</time></trkpt><trkpt lat="46.06692577029553" lon="12.243202545056562"><ele>570.0</ele><time>2026-03-29T10:45:40Z</time></trkpt><trkpt lat="46.06698851898149" lon="12.243190850456086"><ele>567.0</ele><time>2026-03-29T10:45:41Z</time></trkpt><trkpt lat="46.06705311783426" lon="12.24318974786106"><ele>567.0</ele><time>2026-03-29T10:45:42Z</time></trkpt><trkpt lat="46.06711935607453" lon="12.243186614647886"><ele>567.0</ele><time>2026-03-29T10:45:43Z</time></trkpt><trkpt lat="46.06718427876955" lon="12.243192766085206"><ele>567.0</ele><time>2026-03-29T10:45:44Z</time></trkpt><trkpt lat="46.06729668258199" lon="12.243247639348679"><ele>567.0</ele><time>2026-03-29T10:45:46Z</time></trkpt><trkpt lat="46.0673539510099" lon="12.243321043549592"><ele>567.0</ele><time>2026-03-29T10:45:48Z</time></trkpt><trkpt lat="46.06732223674225" lon="12.243412393533564"><ele>567.0</ele><time>2026-03-29T10:45:50Z</time></trkpt><trkpt lat="46.06720409485421" lon="12.24344643705981"><ele>567.0</ele><time>2026-03-29T10:45:52Z</time></trkpt><trkpt lat="46.06714043676605" lon="12.243483856980285"><ele>567.0</ele><time>2026-03-29T10:45:53Z</time></trkpt><trkpt lat="46.067088757484825" lon="12.243551829310697"><ele>567.0</ele><time>2026-03-29T10:45:54Z</time></trkpt><trkpt lat="46.067058753737804" lon="12.24364264009729"><ele>567.0</ele><time>2026-03-29T10:45:55Z</time></trkpt><trkpt lat="46.067037853239604" lon="12.24374709183724"><ele>567.0</ele><time>2026-03-29T10:45:56Z</time></trkpt><trkpt lat="46.06702523360613" lon="12.243857797424331"><ele>567.0</ele><time>2026-03-29T10:45:57Z</time></trkpt><trkpt lat="46.0670142581084" lon="12.243973412727156"><ele>567.0</ele><time>2026-03-29T10:45:58Z</time></trkpt><trkpt lat="46.067003206073046" lon="12.244087727679673"><ele>565.3333333333334</ele><time>2026-03-29T10:45:59Z</time></trkpt><trkpt lat="46.06698443398029" lon="12.244200217062398"><ele>563.6666666666666</ele><time>2026-03-29T10:46:00Z</time></trkpt><trkpt lat="46.066966213666184" lon="12.244311590934338"><ele>562.0</ele><time>2026-03-29T10:46:01Z</time></trkpt><trkpt lat="46.06694574133096" lon="12.244425618946586"><ele>560.3333333333333</ele><time>2026-03-29T10:46:02Z</time></trkpt><trkpt lat="46.066932022280305" lon="12.244543425206068"><ele>558.6666666666666</ele><time>2026-03-29T10:46:03Z</time></trkpt><trkpt lat="46.06692491190303" lon="12.244660649739156"><ele>557.0</ele><time>2026-03-29T10:46:04Z</time></trkpt><trkpt lat="46.06693230371841" lon="12.244780383363585"><ele>557.5</ele><time>2026-03-29T10:46:05Z</time></trkpt><trkpt lat="46.066949464398455" lon="12.2448949479266"><ele>558.0</ele><time>2026-03-29T10:46:06Z</time></trkpt><trkpt lat="46.06696619863335" lon="12.244995379589783"><ele>558.5</ele><time>2026-03-29T10:46:07Z</time></trkpt><trkpt lat="46.06701319898602" lon="12.245124630786329"><ele>559.0</ele><time>2026-03-29T10:46:09Z</time></trkpt><trkpt lat="46.06710771853387" lon="12.245153353909085"><ele>559.5</ele><time>2026-03-29T10:46:11Z</time></trkpt><trkpt lat="46.06717620938281" lon="12.245115123653614"><ele>560.0</ele><time>2026-03-29T10:46:12Z</time></trkpt><trkpt lat="46.06726310868217" lon="12.24506866162293"><ele>560.0</ele><time>2026-03-29T10:46:13Z</time></trkpt><trkpt lat="46.06735884209045" lon="12.245062840161376"><ele>560.0</ele><time>2026-03-29T10:46:14Z</time></trkpt><trkpt lat="46.06744658125613" lon="12.245071163208113"><ele>560.0</ele><time>2026-03-29T10:46:15Z</time></trkpt><trkpt lat="46.067533004736454" lon="12.245089507024828"><ele>560.0</ele><time>2026-03-29T10:46:16Z</time></trkpt><trkpt lat="46.06762439911826" lon="12.24512259875291"><ele>560.0</ele><time>2026-03-29T10:46:17Z</time></trkpt><trkpt lat="46.067721708306486" lon="12.245179397896887"><ele>558.8333333333333</ele><time>2026-03-29T10:46:18Z</time></trkpt><trkpt lat="46.067826951042726" lon="12.245220943400332"><ele>557.6666666666666</ele><time>2026-03-29T10:46:19Z</time></trkpt><trkpt lat="46.06791538433803" lon="12.245245982577094"><ele>556.5</ele><time>2026-03-29T10:46:20Z</time></trkpt><trkpt lat="46.06797811244878" lon="12.245280481198128"><ele>555.3333333333334</ele><time>2026-03-29T10:46:21Z</time></trkpt><trkpt lat="46.06802918844262" lon="12.245338176657224"><ele>554.1666666666667</ele><time>2026-03-29T10:46:22Z</time></trkpt><trkpt lat="46.068091024099054" lon="12.245392258305438"><ele>553.0</ele><time>2026-03-29T10:46:23Z</time></trkpt><trkpt lat="46.06816119234394" lon="12.24541533745"><ele>553.0</ele><time>2026-03-29T10:46:24Z</time></trkpt><trkpt lat="46.068243239313105" lon="12.245417907180185"><ele>553.0</ele><time>2026-03-29T10:46:25Z</time></trkpt><trkpt lat="46.06834088814269" lon="12.245426765880032"><ele>553.0</ele><time>2026-03-29T10:46:26Z</time></trkpt><trkpt lat="46.06843168246624" lon="12.245441693360544"><ele>553.0</ele><time>2026-03-29T10:46:27Z</time></trkpt><trkpt lat="46.06852246869513" lon="12.245461558739413"><ele>553.0</ele><time>2026-03-29T10:46:28Z</time></trkpt><trkpt lat="46.06862102565224" lon="12.245487875278672"><ele>550.5</ele><time>2026-03-29T10:46:29Z</time></trkpt><trkpt lat="46.06872464617551" lon="12.2455060329462"><ele>548.0</ele><time>2026-03-29T10:46:30.001Z</time></trkpt><trkpt lat="46.0688366859975" lon="12.245535473638009"><ele>545.5</ele><time>2026-03-29T10:46:31.001Z</time></trkpt><trkpt lat="46.068955988146264" lon="12.245566848886144"><ele>543.0</ele><time>2026-03-29T10:46:32.001Z</time></trkpt><trkpt lat="46.06907701161074" lon="12.245605748519703"><ele>551.5</ele><time>2026-03-29T10:46:33.001Z</time></trkpt><trkpt lat="46.069209874493836" lon="12.245641353352452"><ele>560.0</ele><time>2026-03-29T10:46:34.001Z</time></trkpt><trkpt lat="46.069360069743176" lon="12.245682393627762"><ele>568.5</ele><time>2026-03-29T10:46:35.001Z</time></trkpt><trkpt lat="46.0695126250568" lon="12.245727511207493"><ele>577.0</ele><time>2026-03-29T10:46:36.001Z</time></trkpt><trkpt lat="46.06964703365299" lon="12.245770136125676"><ele>577.0</ele><time>2026-03-29T10:46:37.001Z</time></trkpt><trkpt lat="46.06977014474241" lon="12.24581039295957"><ele>577.0</ele><time>2026-03-29T10:46:38.001Z</time></trkpt><trkpt lat="46.06986947140151" lon="12.245835696331302"><ele>577.0</ele><time>2026-03-29T10:46:39.001Z</time></trkpt><trkpt lat="46.06994653954756" lon="12.245837934838246"><ele>577.0</ele><time>2026-03-29T10:46:40.001Z</time></trkpt><trkpt lat="46.07000931907962" lon="12.245806239964265"><ele>577.0</ele><time>2026-03-29T10:46:41.001Z</time></trkpt><trkpt lat="46.07006995000208" lon="12.245746922198188"><ele>577.0</ele><time>2026-03-29T10:46:42.001Z</time></trkpt><trkpt lat="46.07012390598825" lon="12.24567990924345"><ele>575.4285714285714</ele><time>2026-03-29T10:46:43.001Z</time></trkpt><trkpt lat="46.07016812724164" lon="12.245602668853719"><ele>573.8571428571429</ele><time>2026-03-29T10:46:44.001Z</time></trkpt><trkpt lat="46.07021441186862" lon="12.24553201727125"><ele>572.2857142857143</ele><time>2026-03-29T10:46:45.001Z</time></trkpt><trkpt lat="46.07026893593812" lon="12.245476945232769"><ele>570.7142857142858</ele><time>2026-03-29T10:46:46.001Z</time></trkpt><trkpt lat="46.07032839534957" lon="12.245445101744362"><ele>569.1428571428572</ele><time>2026-03-29T10:46:47.001Z</time></trkpt><trkpt lat="46.07039166847649" lon="12.245429062535248"><ele>567.5714285714286</ele><time>2026-03-29T10:46:48.001Z</time></trkpt><trkpt lat="46.07045594865393" lon="12.245414042751866"><ele>566.0</ele><time>2026-03-29T10:46:49.001Z</time></trkpt><trkpt lat="46.07052165933416" lon="12.245393621880247"><ele>566.0</ele><time>2026-03-29T10:46:50.001Z</time></trkpt><trkpt lat="46.07058710417059" lon="12.245381699560712"><ele>566.0</ele><time>2026-03-29T10:46:51.001Z</time></trkpt><trkpt lat="46.07070369770218" lon="12.245376613449011"><ele>566.0</ele><time>2026-03-29T10:46:53.001Z</time></trkpt><trkpt lat="46.070776561244706" lon="12.245370855689714"><ele>566.0</ele><time>2026-03-29T10:46:54.001Z</time></trkpt><trkpt lat="46.070852168223595" lon="12.24534302052514"><ele>566.0</ele><time>2026-03-29T10:46:55.001Z</time></trkpt><trkpt lat="46.07092829513858" lon="12.245309586196798"><ele>566.0</ele><time>2026-03-29T10:46:56.001Z</time></trkpt><trkpt lat="46.07099415561436" lon="12.245273109155221"><ele>566.6666666666666</ele><time>2026-03-29T10:46:57.001Z</time></trkpt><trkpt lat="46.07105881632907" lon="12.245234256947414"><ele>567.3333333333333</ele><time>2026-03-29T10:46:58.001Z</time></trkpt><trkpt lat="46.07112190474037" lon="12.245207044819017"><ele>568.0</ele><time>2026-03-29T10:46:59.001Z</time></trkpt><trkpt lat="46.07121957639631" lon="12.245188221691757"><ele>568.6666666666666</ele><time>2026-03-29T10:47:01.001Z</time></trkpt><trkpt lat="46.07126657737315" lon="12.245256968441637"><ele>569.3333333333334</ele><time>2026-03-29T10:47:12Z</time></trkpt><trkpt lat="46.07118058585367" lon="12.245353980334565"><ele>570.0</ele><time>2026-03-29T10:47:15Z</time></trkpt><trkpt lat="46.07112030288938" lon="12.24539913551425"><ele>570.0</ele><time>2026-03-29T10:47:16Z</time></trkpt><trkpt lat="46.07100591795868" lon="12.2454793691734"><ele>570.0</ele><time>2026-03-29T10:47:17Z</time></trkpt><trkpt lat="46.07092426777257" lon="12.245542276233566"><ele>570.0</ele><time>2026-03-29T10:47:18Z</time></trkpt><trkpt lat="46.07084110836692" lon="12.245614445236228"><ele>570.0</ele><time>2026-03-29T10:47:19Z</time></trkpt><trkpt lat="46.07075520589056" lon="12.245684384430936"><ele>570.0</ele><time>2026-03-29T10:47:20Z</time></trkpt><trkpt lat="46.07067852090636" lon="12.24575142213207"><ele>572.0</ele><time>2026-03-29T10:47:21Z</time></trkpt><trkpt lat="46.07062008644355" lon="12.24580701766412"><ele>574.0</ele><time>2026-03-29T10:47:22Z</time></trkpt><trkpt lat="46.07056393905871" lon="12.245954049481847"><ele>576.0</ele><time>2026-03-29T10:47:24Z</time></trkpt><trkpt lat="46.070609009199735" lon="12.246092402776677"><ele>578.0</ele><time>2026-03-29T10:47:26Z</time></trkpt><trkpt lat="46.07067890872707" lon="12.246151718052309"><ele>580.0</ele><time>2026-03-29T10:47:27Z</time></trkpt><trkpt lat="46.0707597868879" lon="12.246194120857687"><ele>580.6</ele><time>2026-03-29T10:47:28Z</time></trkpt><trkpt lat="46.07085093210835" lon="12.246237260109865"><ele>581.2</ele><time>2026-03-29T10:47:29Z</time></trkpt><trkpt lat="46.07095028621886" lon="12.246291780235008"><ele>581.8</ele><time>2026-03-29T10:47:30Z</time></trkpt><trkpt lat="46.071049193599386" lon="12.246343408946737"><ele>582.4</ele><time>2026-03-29T10:47:31Z</time></trkpt><trkpt lat="46.07114657211743" lon="12.246384042083886"><ele>583.0</ele><time>2026-03-29T10:47:32Z</time></trkpt><trkpt lat="46.07123792665218" lon="12.246403252854503"><ele>583.0</ele><time>2026-03-29T10:47:33Z</time></trkpt><trkpt lat="46.07132905354781" lon="12.246386807256844"><ele>583.0</ele><time>2026-03-29T10:47:34Z</time></trkpt><trkpt lat="46.071402458698934" lon="12.2463497875849"><ele>583.0</ele><time>2026-03-29T10:47:35Z</time></trkpt><trkpt lat="46.071503549337905" lon="12.24632413201349"><ele>583.0</ele><time>2026-03-29T10:47:37Z</time></trkpt><trkpt lat="46.0715659534215" lon="12.246423218057613"><ele>583.0</ele><time>2026-03-29T10:47:39Z</time></trkpt><trkpt lat="46.07151673439322" lon="12.246541209331253"><ele>587.1666666666667</ele><time>2026-03-29T10:47:41Z</time></trkpt><trkpt lat="46.071394487799175" lon="12.246576246267086"><ele>591.3333333333334</ele><time>2026-03-29T10:47:43Z</time></trkpt><trkpt lat="46.07132248463131" lon="12.246586027191068"><ele>595.5</ele><time>2026-03-29T10:47:44Z</time></trkpt><trkpt lat="46.07124777956658" lon="12.246619715190766"><ele>599.6666666666666</ele><time>2026-03-29T10:47:45Z</time></trkpt><trkpt lat="46.07116747481457" lon="12.246645687949098"><ele>603.8333333333333</ele><time>2026-03-29T10:47:46Z</time></trkpt><trkpt lat="46.071080723689526" lon="12.246661113825283"><ele>608.0</ele><time>2026-03-29T10:47:47Z</time></trkpt><trkpt lat="46.07098447510533" lon="12.246676715662629"><ele>608.0</ele><time>2026-03-29T10:47:48Z</time></trkpt><trkpt lat="46.070883622940634" lon="12.246710612515429"><ele>608.0</ele><time>2026-03-29T10:47:49Z</time></trkpt><trkpt lat="46.07078238058409" lon="12.246728957255511"><ele>608.0</ele><time>2026-03-29T10:47:50Z</time></trkpt><trkpt lat="46.070680852781585" lon="12.24673608512357"><ele>608.0</ele><time>2026-03-29T10:47:51Z</time></trkpt><trkpt lat="46.07057706266592" lon="12.24673213798247"><ele>608.0</ele><time>2026-03-29T10:47:52Z</time></trkpt><trkpt lat="46.07047929757931" lon="12.246730545145617"><ele>608.1666666666666</ele><time>2026-03-29T10:47:53Z</time></trkpt><trkpt lat="46.07038370495814" lon="12.24672734722032"><ele>608.3333333333333</ele><time>2026-03-29T10:47:54Z</time></trkpt><trkpt lat="46.0703144722827" lon="12.246735675404018"><ele>608.5</ele><time>2026-03-29T10:47:55Z</time></trkpt><trkpt lat="46.07025886588416" lon="12.246849516768258"><ele>608.6666666666666</ele><time>2026-03-29T10:47:57Z</time></trkpt><trkpt lat="46.07026258822492" lon="12.246963859762246"><ele>608.8333333333334</ele><time>2026-03-29T10:47:58Z</time></trkpt><trkpt lat="46.07026989178833" lon="12.24708273945247"><ele>609.0</ele><time>2026-03-29T10:47:59Z</time></trkpt><trkpt lat="46.070251525214324" lon="12.247177759056337"><ele>609.0</ele><time>2026-03-29T10:48:00Z</time></trkpt><trkpt lat="46.07015444418797" lon="12.247268680049817"><ele>609.0</ele><time>2026-03-29T10:48:02Z</time></trkpt><trkpt lat="46.0700598621077" lon="12.2472589716248"><ele>609.0</ele><time>2026-03-29T10:48:03Z</time></trkpt><trkpt lat="46.069940932873976" lon="12.24726279045789"><ele>609.0</ele><time>2026-03-29T10:48:04Z</time></trkpt><trkpt lat="46.06979152478182" lon="12.247284788755104"><ele>609.2</ele><time>2026-03-29T10:48:05Z</time></trkpt><trkpt lat="46.06967840425388" lon="12.247298348484652"><ele>609.4</ele><time>2026-03-29T10:48:06Z</time></trkpt><trkpt lat="46.0695842003361" lon="12.247284478535981"><ele>609.6</ele><time>2026-03-29T10:48:07Z</time></trkpt><trkpt lat="46.06950173496923" lon="12.247260046850208"><ele>609.8</ele><time>2026-03-29T10:48:08Z</time></trkpt><trkpt lat="46.06941538231639" lon="12.247298699922867"><ele>610.0</ele><time>2026-03-29T10:48:10Z</time></trkpt><trkpt lat="46.06944180705471" lon="12.24745540823786"><ele>614.6666666666667</ele><time>2026-03-29T10:48:12Z</time></trkpt><trkpt lat="46.069504207821836" lon="12.247474439306133"><ele>619.3333333333334</ele><time>2026-03-29T10:48:13Z</time></trkpt><trkpt lat="46.069589534328756" lon="12.247461103353894"><ele>624.0</ele><time>2026-03-29T10:48:14Z</time></trkpt><trkpt lat="46.06968741627631" lon="12.247439133365328"><ele>628.6666666666666</ele><time>2026-03-29T10:48:15Z</time></trkpt><trkpt lat="46.069783507374545" lon="12.24746325229187"><ele>633.3333333333333</ele><time>2026-03-29T10:48:16Z</time></trkpt><trkpt lat="46.069878510253105" lon="12.247488657561291"><ele>638.0</ele><time>2026-03-29T10:48:17Z</time></trkpt><trkpt lat="46.069953334432874" lon="12.247475811403275"><ele>638.0</ele><time>2026-03-29T10:48:18Z</time></trkpt><trkpt lat="46.07000372050065" lon="12.24758780843459"><ele>638.0</ele><time>2026-03-29T10:48:20Z</time></trkpt><trkpt lat="46.06992463764" lon="12.247691220457952"><ele>638.0</ele><time>2026-03-29T10:48:22Z</time></trkpt><trkpt lat="46.069849737751596" lon="12.247666044030604"><ele>638.0</ele><time>2026-03-29T10:48:23Z</time></trkpt><trkpt lat="46.06975683128977" lon="12.247620882597825"><ele>638.0</ele><time>2026-03-29T10:48:24Z</time></trkpt><trkpt lat="46.069643102633336" lon="12.247582527621462"><ele>638.8</ele><time>2026-03-29T10:48:25Z</time></trkpt><trkpt lat="46.069522229436046" lon="12.247594866492856"><ele>639.5999999999999</ele><time>2026-03-29T10:48:26Z</time></trkpt><trkpt lat="46.06940733775301" lon="12.247600403933456"><ele>640.4000000000001</ele><time>2026-03-29T10:48:27Z</time></trkpt><trkpt lat="46.0693142739792" lon="12.247566645044625"><ele>641.2</ele><time>2026-03-29T10:48:28Z</time></trkpt><trkpt lat="46.069234767075194" lon="12.247541070342848"><ele>642.0</ele><time>2026-03-29T10:48:29Z</time></trkpt><trkpt lat="46.069137950973754" lon="12.247557372745538"><ele>643.0</ele><time>2026-03-29T10:48:30Z</time></trkpt><trkpt lat="46.06901637274792" lon="12.2475828557951"><ele>644.0</ele><time>2026-03-29T10:48:31Z</time></trkpt><trkpt lat="46.068886111656916" lon="12.247613837313118"><ele>645.0</ele><time>2026-03-29T10:48:32Z</time></trkpt><trkpt lat="46.068755175767286" lon="12.24764221343158"><ele>646.0</ele><time>2026-03-29T10:48:33Z</time></trkpt><trkpt lat="46.068624037237214" lon="12.247677444549252"><ele>646.0</ele><time>2026-03-29T10:48:34Z</time></trkpt><trkpt lat="46.06848970455635" lon="12.24768454592279"><ele>646.0</ele><time>2026-03-29T10:48:35Z</time></trkpt><trkpt lat="46.068336415498734" lon="12.247655563389038"><ele>646.0</ele><time>2026-03-29T10:48:36Z</time></trkpt><trkpt lat="46.06814907023679" lon="12.24765553232949"><ele>650.6666666666667</ele><time>2026-03-29T10:48:37Z</time></trkpt><trkpt lat="46.06794817687862" lon="12.247658161012373"><ele>655.3333333333334</ele><time>2026-03-29T10:48:38Z</time></trkpt><trkpt lat="46.06776253048693" lon="12.247641974995854"><ele>660.0</ele><time>2026-03-29T10:48:39.001Z</time></trkpt><trkpt lat="46.067597630341766" lon="12.247626080958744"><ele>660.0</ele><time>2026-03-29T10:48:40.001Z</time></trkpt><trkpt lat="46.06744855613891" lon="12.24760869164155"><ele>660.0</ele><time>2026-03-29T10:48:41.001Z</time></trkpt><trkpt lat="46.06730627678236" lon="12.247603407470862"><ele>660.0</ele><time>2026-03-29T10:48:42.001Z</time></trkpt><trkpt lat="46.06717859840958" lon="12.247601533298527"><ele>660.0</ele><time>2026-03-29T10:48:43.001Z</time></trkpt><trkpt lat="46.06707263076867" lon="12.247591385566741"><ele>661.1666666666666</ele><time>2026-03-29T10:48:44.001Z</time></trkpt><trkpt lat="46.066988542463086" lon="12.24757939195519"><ele>662.3333333333334</ele><time>2026-03-29T10:48:45.001Z</time></trkpt><trkpt lat="46.06686965829332" lon="12.247575890577265"><ele>663.5</ele><time>2026-03-29T10:48:47.001Z</time></trkpt><trkpt lat="46.06680813711634" lon="12.247601542011283"><ele>664.6666666666667</ele><time>2026-03-29T10:48:48.001Z</time></trkpt><trkpt lat="46.06674661698341" lon="12.247642188145557"><ele>665.8333333333334</ele><time>2026-03-29T10:48:49.001Z</time></trkpt><trkpt lat="46.066673817901744" lon="12.247691195359192"><ele>667.0</ele><time>2026-03-29T10:48:50.001Z</time></trkpt><trkpt lat="46.06659458797263" lon="12.247751932715266"><ele>662.6666666666667</ele><time>2026-03-29T10:48:51.001Z</time></trkpt><trkpt lat="46.06651143417981" lon="12.247820074546112"><ele>658.3333333333334</ele><time>2026-03-29T10:48:52.001Z</time></trkpt><trkpt lat="46.06642657271957" lon="12.247890589806753"><ele>654.0</ele><time>2026-03-29T10:48:53.001Z</time></trkpt><trkpt lat="46.066353580209025" lon="12.247916811297769"><ele>649.6666666666666</ele><time>2026-03-29T10:48:54.001Z</time></trkpt><trkpt lat="46.06628862471777" lon="12.247899924530318"><ele>645.3333333333333</ele><time>2026-03-29T10:48:55.001Z</time></trkpt><trkpt lat="46.0662228312352" lon="12.247858495009229"><ele>641.0</ele><time>2026-03-29T10:48:56.001Z</time></trkpt><trkpt lat="46.0661309722819" lon="12.247893781955074"><ele>641.0</ele><time>2026-03-29T10:48:58.001Z</time></trkpt><trkpt lat="46.06612301879538" lon="12.247989222184847"><ele>641.0</ele><time>2026-03-29T10:48:59.001Z</time></trkpt><trkpt lat="46.066160829712786" lon="12.248069500761426"><ele>641.0</ele><time>2026-03-29T10:49:00.001Z</time></trkpt><trkpt lat="46.06623088053766" lon="12.248082066331946"><ele>641.0</ele><time>2026-03-29T10:49:01.001Z</time></trkpt><trkpt lat="46.0663217214596" lon="12.248030153988397"><ele>641.0</ele><time>2026-03-29T10:49:02.001Z</time></trkpt><trkpt lat="46.06642900505972" lon="12.247978589947607"><ele>641.0</ele><time>2026-03-29T10:49:03.001Z</time></trkpt><trkpt lat="46.06653629268493" lon="12.247952593726442"><ele>647.5</ele><time>2026-03-29T10:49:04.001Z</time></trkpt><trkpt lat="46.06664597842986" lon="12.247951810967912"><ele>654.0</ele><time>2026-03-29T10:49:05.001Z</time></trkpt><trkpt lat="46.06675999505966" lon="12.247965421315396"><ele>660.5</ele><time>2026-03-29T10:49:06.001Z</time></trkpt><trkpt lat="46.06687543328464" lon="12.247989588292288"><ele>667.0</ele><time>2026-03-29T10:49:07.001Z</time></trkpt><trkpt lat="46.066990504449535" lon="12.248018520194329"><ele>667.0</ele><time>2026-03-29T10:49:08.001Z</time></trkpt><trkpt lat="46.06709812258096" lon="12.24805264903436"><ele>667.0</ele><time>2026-03-29T10:49:09.001Z</time></trkpt><trkpt lat="46.067194772345665" lon="12.248099038501897"><ele>667.0</ele><time>2026-03-29T10:49:10.001Z</time></trkpt><trkpt lat="46.06727537464162" lon="12.248142862203245"><ele>667.0</ele><time>2026-03-29T10:49:11.001Z</time></trkpt><trkpt lat="46.06735818785076" lon="12.248218456229"><ele>667.0</ele><time>2026-03-29T10:49:12Z</time></trkpt><trkpt lat="46.06744008227247" lon="12.248298509018618"><ele>675.25</ele><time>2026-03-29T10:49:13Z</time></trkpt><trkpt lat="46.06753760375001" lon="12.24841140490963"><ele>683.5</ele><time>2026-03-29T10:49:14Z</time></trkpt><trkpt lat="46.067643581009555" lon="12.248531074481185"><ele>691.75</ele><time>2026-03-29T10:49:15Z</time></trkpt><trkpt lat="46.067759386444386" lon="12.248620891789379"><ele>700.0</ele><time>2026-03-29T10:49:16Z</time></trkpt><trkpt lat="46.067866138377035" lon="12.248708233897618"><ele>700.0</ele><time>2026-03-29T10:49:17Z</time></trkpt><trkpt lat="46.06796145748507" lon="12.24877627545452"><ele>700.0</ele><time>2026-03-29T10:49:18Z</time></trkpt><trkpt lat="46.068071846511174" lon="12.248800632023322"><ele>700.0</ele><time>2026-03-29T10:49:19Z</time></trkpt><trkpt lat="46.06820283900719" lon="12.248833806918961"><ele>700.0</ele><time>2026-03-29T10:49:20Z</time></trkpt><trkpt lat="46.06834958422591" lon="12.248914469564284"><ele>709.6666666666667</ele><time>2026-03-29T10:49:21Z</time></trkpt><trkpt lat="46.06850793084994" lon="12.24900194251177"><ele>719.3333333333334</ele><time>2026-03-29T10:49:22Z</time></trkpt><trkpt lat="46.068645481648645" lon="12.249049689388723"><ele>729.0</ele><time>2026-03-29T10:49:23Z</time></trkpt><trkpt lat="46.06879551676109" lon="12.249088287934214"><ele>729.0</ele><time>2026-03-29T10:49:24Z</time></trkpt><trkpt lat="46.068952875610144" lon="12.249088054145608"><ele>729.0</ele><time>2026-03-29T10:49:25Z</time></trkpt><trkpt lat="46.069112465673435" lon="12.249075366642236"><ele>729.0</ele><time>2026-03-29T10:49:26Z</time></trkpt><trkpt lat="46.06924990485279" lon="12.249079199115288"><ele>729.0</ele><time>2026-03-29T10:49:27Z</time></trkpt><trkpt lat="46.069380539638935" lon="12.24910287976635"><ele>729.0</ele><time>2026-03-29T10:49:28Z</time></trkpt><trkpt lat="46.06951649212737" lon="12.249143280152937"><ele>729.0</ele><time>2026-03-29T10:49:29Z</time></trkpt><trkpt lat="46.06963639100545" lon="12.249184603040874"><ele>729.0</ele><time>2026-03-29T10:49:30Z</time></trkpt><trkpt lat="46.06974786123632" lon="12.249221754191307"><ele>729.0</ele><time>2026-03-29T10:49:31Z</time></trkpt><trkpt lat="46.06987881218982" lon="12.2492739088025"><ele>729.0</ele><time>2026-03-29T10:49:32Z</time></trkpt><trkpt lat="46.06999585061249" lon="12.249357291090789"><ele>729.0</ele><time>2026-03-29T10:49:33Z</time></trkpt><trkpt lat="46.0701036028758" lon="12.249399002004928"><ele>729.0</ele><time>2026-03-29T10:49:34Z</time></trkpt><trkpt lat="46.070235376045844" lon="12.249419288136233"><ele>727.0</ele><time>2026-03-29T10:49:35Z</time></trkpt><trkpt lat="46.0704018748007" lon="12.249466821676757"><ele>725.0</ele><time>2026-03-29T10:49:36Z</time></trkpt><trkpt lat="46.0705752373153" lon="12.249532465082234"><ele>723.0</ele><time>2026-03-29T10:49:37Z</time></trkpt><trkpt lat="46.07072513718986" lon="12.249589385620453"><ele>721.5</ele><time>2026-03-29T10:49:38Z</time></trkpt><trkpt lat="46.07085508698646" lon="12.249640870364024"><ele>720.0</ele><time>2026-03-29T10:49:39Z</time></trkpt><trkpt lat="46.07098277755285" lon="12.249702207433739"><ele>718.5</ele><time>2026-03-29T10:49:40Z</time></trkpt><trkpt lat="46.071109517927205" lon="12.249785317144193"><ele>717.0</ele><time>2026-03-29T10:49:41Z</time></trkpt><trkpt lat="46.07124310080522" lon="12.2498798865691"><ele>727.0</ele><time>2026-03-29T10:49:42Z</time></trkpt><trkpt lat="46.07137726424459" lon="12.249972877416551"><ele>737.0</ele><time>2026-03-29T10:49:43Z</time></trkpt><trkpt lat="46.07151259930017" lon="12.25004873997966"><ele>747.0</ele><time>2026-03-29T10:49:44Z</time></trkpt><trkpt lat="46.071637154902234" lon="12.25010515286392"><ele>757.0</ele><time>2026-03-29T10:49:45Z</time></trkpt><trkpt lat="46.07176778609072" lon="12.250124637852519"><ele>757.0</ele><time>2026-03-29T10:49:46Z</time></trkpt><trkpt lat="46.07189506840354" lon="12.25010849327257"><ele>757.0</ele><time>2026-03-29T10:49:47Z</time></trkpt><trkpt lat="46.072024226666976" lon="12.250065586837161"><ele>757.0</ele><time>2026-03-29T10:49:48Z</time></trkpt><trkpt lat="46.07215828180564" lon="12.249991692232705"><ele>757.0</ele><time>2026-03-29T10:49:49Z</time></trkpt><trkpt lat="46.07228342906016" lon="12.249908615595492"><ele>757.0</ele><time>2026-03-29T10:49:50Z</time></trkpt><trkpt lat="46.07237848228424" lon="12.249852555449788"><ele>757.0</ele><time>2026-03-29T10:49:51Z</time></trkpt><trkpt lat="46.07246605065463" lon="12.249820790610586"><ele>757.0</ele><time>2026-03-29T10:49:52Z</time></trkpt><trkpt lat="46.072573548765035" lon="12.24980585176232"><ele>757.0</ele><time>2026-03-29T10:49:53Z</time></trkpt><trkpt lat="46.07268294949628" lon="12.24980211938202"><ele>757.0</ele><time>2026-03-29T10:49:54Z</time></trkpt><trkpt lat="46.07278946897113" lon="12.249795916978075"><ele>760.5</ele><time>2026-03-29T10:49:55Z</time></trkpt><trkpt lat="46.07290155254697" lon="12.249791091877793"><ele>764.0</ele><time>2026-03-29T10:49:56Z</time></trkpt><trkpt lat="46.07302096247155" lon="12.249785287821641"><ele>767.5</ele><time>2026-03-29T10:49:57Z</time></trkpt><trkpt lat="46.073141065985354" lon="12.249789129664517"><ele>771.0</ele><time>2026-03-29T10:49:58Z</time></trkpt><trkpt lat="46.07325529581575" lon="12.249805745616602"><ele>772.4</ele><time>2026-03-29T10:49:59Z</time></trkpt><trkpt lat="46.073366150732355" lon="12.2498388108822"><ele>773.8</ele><time>2026-03-29T10:50:00Z</time></trkpt><trkpt lat="46.07347604732618" lon="12.249874924314254"><ele>775.1999999999999</ele><time>2026-03-29T10:50:01Z</time></trkpt><trkpt lat="46.07358833051985" lon="12.2499218583071"><ele>776.5999999999999</ele><time>2026-03-29T10:50:02Z</time></trkpt><trkpt lat="46.073683127963704" lon="12.249939123522058"><ele>778.0</ele><time>2026-03-29T10:50:03Z</time></trkpt><trkpt lat="46.073753441716136" lon="12.24993467680847"><ele>778.0</ele><time>2026-03-29T10:50:04Z</time></trkpt><trkpt lat="46.07380259212513" lon="12.250019221193332"><ele>778.0</ele><time>2026-03-29T10:50:06Z</time></trkpt><trkpt lat="46.07372868623373" lon="12.250094004662966"><ele>778.0</ele><time>2026-03-29T10:50:08Z</time></trkpt><trkpt lat="46.07363779148121" lon="12.250058099900974"><ele>778.0</ele><time>2026-03-29T10:50:09Z</time></trkpt><trkpt lat="46.073539799158716" lon="12.250020689424334"><ele>778.0</ele><time>2026-03-29T10:50:10Z</time></trkpt><trkpt lat="46.07342419241372" lon="12.250016516964694"><ele>778.0</ele><time>2026-03-29T10:50:11Z</time></trkpt><trkpt lat="46.07331181029825" lon="12.250030661156032"><ele>778.0</ele><time>2026-03-29T10:50:12Z</time></trkpt><trkpt lat="46.07319244592211" lon="12.25004607831126"><ele>778.0</ele><time>2026-03-29T10:50:13Z</time></trkpt><trkpt lat="46.07306868178224" lon="12.250071327621075"><ele>778.0</ele><time>2026-03-29T10:50:14Z</time></trkpt><trkpt lat="46.072938728415586" lon="12.250123906991657"><ele>776.25</ele><time>2026-03-29T10:50:15Z</time></trkpt><trkpt lat="46.07282044955047" lon="12.250180512787992"><ele>774.5</ele><time>2026-03-29T10:50:16Z</time></trkpt><trkpt lat="46.072713179079685" lon="12.250251517473831"><ele>772.75</ele><time>2026-03-29T10:50:17Z</time></trkpt><trkpt lat="46.07261060226934" lon="12.25034757336217"><ele>771.0</ele><time>2026-03-29T10:50:18Z</time></trkpt><trkpt lat="46.07250605500194" lon="12.250468262234653"><ele>768.1999999999999</ele><time>2026-03-29T10:50:19Z</time></trkpt><trkpt lat="46.072403655663216" lon="12.250574031146256"><ele>765.4</ele><time>2026-03-29T10:50:20Z</time></trkpt><trkpt lat="46.072316088180024" lon="12.250654197855754"><ele>762.6</ele><time>2026-03-29T10:50:21Z</time></trkpt><trkpt lat="46.07223824881725" lon="12.250706899050147"><ele>759.8</ele><time>2026-03-29T10:50:22Z</time></trkpt><trkpt lat="46.07217601038465" lon="12.250734949371589"><ele>757.0</ele><time>2026-03-29T10:50:23Z</time></trkpt><trkpt lat="46.07216481776487" lon="12.250834176998724"><ele>764.0</ele><time>2026-03-29T10:50:25Z</time></trkpt><trkpt lat="46.072301849887026" lon="12.250850843135924"><ele>771.0</ele><time>2026-03-29T10:50:27Z</time></trkpt><trkpt lat="46.07239386183647" lon="12.2507625973634"><ele>778.0</ele><time>2026-03-29T10:50:28Z</time></trkpt><trkpt lat="46.07247284629824" lon="12.250671462345492"><ele>785.0</ele><time>2026-03-29T10:50:29Z</time></trkpt><trkpt lat="46.072550793918005" lon="12.250629361973104"><ele>792.0</ele><time>2026-03-29T10:50:30Z</time></trkpt><trkpt lat="46.07262371850068" lon="12.250643995042934"><ele>792.6</ele><time>2026-03-29T10:50:31Z</time></trkpt><trkpt lat="46.07270813222477" lon="12.250682880392091"><ele>793.2</ele><time>2026-03-29T10:50:32Z</time></trkpt><trkpt lat="46.07279878938543" lon="12.250741027275025"><ele>793.8</ele><time>2026-03-29T10:50:33.001Z</time></trkpt><trkpt lat="46.07290777726852" lon="12.250808306460826"><ele>794.4</ele><time>2026-03-29T10:50:34.001Z</time></trkpt><trkpt lat="46.07302634249097" lon="12.250870244539904"><ele>795.0</ele><time>2026-03-29T10:50:35.001Z</time></trkpt><trkpt lat="46.073162279280844" lon="12.25094448304664"><ele>797.25</ele><time>2026-03-29T10:50:36.001Z</time></trkpt><trkpt lat="46.07329534807289" lon="12.251029528998801"><ele>799.5</ele><time>2026-03-29T10:50:37.001Z</time></trkpt><trkpt lat="46.073412738498284" lon="12.251117392551373"><ele>801.75</ele><time>2026-03-29T10:50:38.001Z</time></trkpt><trkpt lat="46.07351572611532" lon="12.251198183431114"><ele>804.0</ele><time>2026-03-29T10:50:39.001Z</time></trkpt><trkpt lat="46.07360643944155" lon="12.251275561656406"><ele>804.0</ele><time>2026-03-29T10:50:40.001Z</time></trkpt><trkpt lat="46.073685452899625" lon="12.251355625068035"><ele>804.0</ele><time>2026-03-29T10:50:41.001Z</time></trkpt><trkpt lat="46.073760822085156" lon="12.251445833170763"><ele>804.0</ele><time>2026-03-29T10:50:42.001Z</time></trkpt><trkpt lat="46.07383244115071" lon="12.251559820433434"><ele>804.0</ele><time>2026-03-29T10:50:43.001Z</time></trkpt><trkpt lat="46.07389040133455" lon="12.251681290405214"><ele>804.0</ele><time>2026-03-29T10:50:44.001Z</time></trkpt><trkpt lat="46.07393337737781" lon="12.251813830718854"><ele>806.0</ele><time>2026-03-29T10:50:45.001Z</time></trkpt><trkpt lat="46.0739775370509" lon="12.251955749326292"><ele>808.0</ele><time>2026-03-29T10:50:46.001Z</time></trkpt><trkpt lat="46.07403030898663" lon="12.252099932294005"><ele>810.0</ele><time>2026-03-29T10:50:47.001Z</time></trkpt><trkpt lat="46.07409189921571" lon="12.252242119192626"><ele>812.0</ele><time>2026-03-29T10:50:48.001Z</time></trkpt><trkpt lat="46.074170727488905" lon="12.252369426910576"><ele>812.0</ele><time>2026-03-29T10:50:49.001Z</time></trkpt><trkpt lat="46.07426929232869" lon="12.252477106710563"><ele>812.0</ele><time>2026-03-29T10:50:50.001Z</time></trkpt><trkpt lat="46.074380676106834" lon="12.252580909612615"><ele>812.0</ele><time>2026-03-29T10:50:51.001Z</time></trkpt><trkpt lat="46.07448622820492" lon="12.25268093545895"><ele>812.0</ele><time>2026-03-29T10:50:52.001Z</time></trkpt><trkpt lat="46.07458549976147" lon="12.252780519529994"><ele>812.0</ele><time>2026-03-29T10:50:53.001Z</time></trkpt><trkpt lat="46.074675470730696" lon="12.252874195490726"><ele>812.0</ele><time>2026-03-29T10:50:54.001Z</time></trkpt><trkpt lat="46.07475799648793" lon="12.252960975506591"><ele>812.0</ele><time>2026-03-29T10:50:55.001Z</time></trkpt><trkpt lat="46.07483339376364" lon="12.253054296768426"><ele>812.0</ele><time>2026-03-29T10:50:56.001Z</time></trkpt><trkpt lat="46.07490694899586" lon="12.253167209846278"><ele>812.0</ele><time>2026-03-29T10:50:57.001Z</time></trkpt><trkpt lat="46.0749749218938" lon="12.253282004944225"><ele>812.6</ele><time>2026-03-29T10:50:58.001Z</time></trkpt><trkpt lat="46.07504111260218" lon="12.253388764174506"><ele>813.2</ele><time>2026-03-29T10:50:59.001Z</time></trkpt><trkpt lat="46.07510102843849" lon="12.253483889960448"><ele>813.8</ele><time>2026-03-29T10:51:00.001Z</time></trkpt><trkpt lat="46.07515920865094" lon="12.253581209831179"><ele>814.4</ele><time>2026-03-29T10:51:01.001Z</time></trkpt><trkpt lat="46.07522090592116" lon="12.253687874502178"><ele>815.0</ele><time>2026-03-29T10:51:02.001Z</time></trkpt><trkpt lat="46.07528489461546" lon="12.253801496268089"><ele>815.0</ele><time>2026-03-29T10:51:03.001Z</time></trkpt><trkpt lat="46.07535793175404" lon="12.253914987853369"><ele>815.0</ele><time>2026-03-29T10:51:04.001Z</time></trkpt><trkpt lat="46.07543417599605" lon="12.254027006296894"><ele>815.0</ele><time>2026-03-29T10:51:05.001Z</time></trkpt><trkpt lat="46.07552412530679" lon="12.254113298039492"><ele>815.0</ele><time>2026-03-29T10:51:06.001Z</time></trkpt><trkpt lat="46.07563810015267" lon="12.254178069948129"><ele>815.0</ele><time>2026-03-29T10:51:07.001Z</time></trkpt><trkpt lat="46.07575453685384" lon="12.254243590200717"><ele>815.5</ele><time>2026-03-29T10:51:08.001Z</time></trkpt><trkpt lat="46.0758696248041" lon="12.25430065751194"><ele>816.0</ele><time>2026-03-29T10:51:09.001Z</time></trkpt><trkpt lat="46.07599131196541" lon="12.254350130592359"><ele>816.5</ele><time>2026-03-29T10:51:10.001Z</time></trkpt><trkpt lat="46.076102102778336" lon="12.254398679954637"><ele>817.0</ele><time>2026-03-29T10:51:11.001Z</time></trkpt><trkpt lat="46.07620176993095" lon="12.254443654072917"><ele>817.0</ele><time>2026-03-29T10:51:12.001Z</time></trkpt><trkpt lat="46.07629261381464" lon="12.254479693431083"><ele>817.0</ele><time>2026-03-29T10:51:13.001Z</time></trkpt><trkpt lat="46.07638460815767" lon="12.254509380277405"><ele>817.0</ele><time>2026-03-29T10:51:14.001Z</time></trkpt><trkpt lat="46.076478017486664" lon="12.25452248152988"><ele>817.0</ele><time>2026-03-29T10:51:15.001Z</time></trkpt><trkpt lat="46.076578003838115" lon="12.254521880761018"><ele>817.0</ele><time>2026-03-29T10:51:16.001Z</time></trkpt><trkpt lat="46.07668408704142" lon="12.254510834550864"><ele>816.8</ele><time>2026-03-29T10:51:17.001Z</time></trkpt><trkpt lat="46.07678097677412" lon="12.254526669293252"><ele>816.6</ele><time>2026-03-29T10:51:18Z</time></trkpt><trkpt lat="46.07686874599876" lon="12.25457884650798"><ele>816.4</ele><time>2026-03-29T10:51:19Z</time></trkpt><trkpt lat="46.07696676724088" lon="12.254640875010466"><ele>816.1999999999999</ele><time>2026-03-29T10:51:20Z</time></trkpt><trkpt lat="46.077071555674266" lon="12.254716316567357"><ele>816.0</ele><time>2026-03-29T10:51:21Z</time></trkpt><trkpt lat="46.07716735037296" lon="12.254779390116934"><ele>817.4</ele><time>2026-03-29T10:51:22Z</time></trkpt><trkpt lat="46.07725194929789" lon="12.254842612948176"><ele>818.8</ele><time>2026-03-29T10:51:23Z</time></trkpt><trkpt lat="46.07732698720488" lon="12.254915542878255"><ele>820.1999999999999</ele><time>2026-03-29T10:51:24Z</time></trkpt><trkpt lat="46.077387048951564" lon="12.255005560936015"><ele>821.5999999999999</ele><time>2026-03-29T10:51:25Z</time></trkpt><trkpt lat="46.07743137052573" lon="12.255135415452457"><ele>823.0</ele><time>2026-03-29T10:51:26Z</time></trkpt><trkpt lat="46.077466913889914" lon="12.255314373698958"><ele>823.0</ele><time>2026-03-29T10:51:27Z</time></trkpt><trkpt lat="46.0775145921388" lon="12.255512177907216"><ele>823.0</ele><time>2026-03-29T10:51:28Z</time></trkpt><trkpt lat="46.077558127713345" lon="12.255747088240726"><ele>823.0</ele><time>2026-03-29T10:51:29Z</time></trkpt><trkpt lat="46.07760342326674" lon="12.255940710887263"><ele>825.5</ele><time>2026-03-29T10:51:30Z</time></trkpt><trkpt lat="46.077666470167564" lon="12.25611286516665"><ele>828.0</ele><time>2026-03-29T10:51:31Z</time></trkpt><trkpt lat="46.077733067680334" lon="12.256260003639005"><ele>830.5</ele><time>2026-03-29T10:51:32Z</time></trkpt><trkpt lat="46.077804700863005" lon="12.25640053576855"><ele>833.0</ele><time>2026-03-29T10:51:33Z</time></trkpt><trkpt lat="46.07787610321222" lon="12.25653074804268"><ele>835.4</ele><time>2026-03-29T10:51:34Z</time></trkpt><trkpt lat="46.07795277588742" lon="12.256653076728682"><ele>837.8</ele><time>2026-03-29T10:51:35Z</time></trkpt><trkpt lat="46.078029497273306" lon="12.256757535213392"><ele>840.2</ele><time>2026-03-29T10:51:36Z</time></trkpt><trkpt lat="46.078112472631574" lon="12.256844833580026"><ele>842.6</ele><time>2026-03-29T10:51:37Z</time></trkpt><trkpt lat="46.0781904424326" lon="12.25692485387356"><ele>845.0</ele><time>2026-03-29T10:51:38Z</time></trkpt><trkpt lat="46.07826644430972" lon="12.257001064327294"><ele>843.0000000000001</ele><time>2026-03-29T10:51:39Z</time></trkpt><trkpt lat="46.078341480430105" lon="12.25706965317356"><ele>841.0</ele><time>2026-03-29T10:51:40Z</time></trkpt><trkpt lat="46.07841529833409" lon="12.257114720714148"><ele>839.0</ele><time>2026-03-29T10:51:41Z</time></trkpt><trkpt lat="46.07849311954879" lon="12.25711804767375"><ele>837.0</ele><time>2026-03-29T10:51:42Z</time></trkpt><trkpt lat="46.07855696393399" lon="12.25708623698561"><ele>835.0000000000001</ele><time>2026-03-29T10:51:43Z</time></trkpt><trkpt lat="46.07860762200543" lon="12.25702333823461"><ele>833.0</ele><time>2026-03-29T10:51:44Z</time></trkpt><trkpt lat="46.07864959819701" lon="12.256931379460532"><ele>833.0</ele><time>2026-03-29T10:51:45Z</time></trkpt><trkpt lat="46.07868111588671" lon="12.25683201410261"><ele>833.0</ele><time>2026-03-29T10:51:46Z</time></trkpt><trkpt lat="46.07870834686137" lon="12.256733812306498"><ele>833.0</ele><time>2026-03-29T10:51:47Z</time></trkpt><trkpt lat="46.078784993686234" lon="12.256605752915402"><ele>833.0</ele><time>2026-03-29T10:51:49Z</time></trkpt><trkpt lat="46.07890036575195" lon="12.256547482860984"><ele>833.0</ele><time>2026-03-29T10:51:51Z</time></trkpt><trkpt lat="46.07898222722121" lon="12.256550171315585"><ele>833.0</ele><time>2026-03-29T10:51:52Z</time></trkpt><trkpt lat="46.07907812412765" lon="12.256573936853936"><ele>833.0</ele><time>2026-03-29T10:51:53Z</time></trkpt><trkpt lat="46.07918358836454" lon="12.25661859295912"><ele>833.0</ele><time>2026-03-29T10:51:54Z</time></trkpt><trkpt lat="46.079304654580696" lon="12.256665652852627"><ele>833.0</ele><time>2026-03-29T10:51:55Z</time></trkpt><trkpt lat="46.07943866055456" lon="12.25670416407215"><ele>832.3333333333334</ele><time>2026-03-29T10:51:56Z</time></trkpt><trkpt lat="46.079581931206484" lon="12.256748757784028"><ele>831.6666666666667</ele><time>2026-03-29T10:51:57Z</time></trkpt><trkpt lat="46.07972952795717" lon="12.256801508826289"><ele>831.0</ele><time>2026-03-29T10:51:58Z</time></trkpt><trkpt lat="46.07988902388942" lon="12.25686047605506"><ele>833.3333333333333</ele><time>2026-03-29T10:51:59Z</time></trkpt><trkpt lat="46.08006272753186" lon="12.256924675661736"><ele>835.6666666666666</ele><time>2026-03-29T10:52:00Z</time></trkpt><trkpt lat="46.08022234145174" lon="12.25698301710682"><ele>838.0</ele><time>2026-03-29T10:52:01Z</time></trkpt><trkpt lat="46.0803672072898" lon="12.257030886829464"><ele>838.0</ele><time>2026-03-29T10:52:02Z</time></trkpt><trkpt lat="46.08049677565474" lon="12.257071654011385"><ele>838.0</ele><time>2026-03-29T10:52:03Z</time></trkpt><trkpt lat="46.08059695817429" lon="12.257112452306666"><ele>838.0</ele><time>2026-03-29T10:52:04Z</time></trkpt><trkpt lat="46.080671489602025" lon="12.257161880841709"><ele>838.0</ele><time>2026-03-29T10:52:05Z</time></trkpt><trkpt lat="46.08071470092491" lon="12.25722838596108"><ele>838.0</ele><time>2026-03-29T10:52:06Z</time></trkpt><trkpt lat="46.080739096199935" lon="12.25732286559933"><ele>838.5999999999999</ele><time>2026-03-29T10:52:07Z</time></trkpt><trkpt lat="46.080758111317216" lon="12.257450674594367"><ele>839.1999999999999</ele><time>2026-03-29T10:52:08Z</time></trkpt><trkpt lat="46.08077945290157" lon="12.257604965050682"><ele>839.8</ele><time>2026-03-29T10:52:09Z</time></trkpt><trkpt lat="46.08079495273753" lon="12.257769685056363"><ele>840.4</ele><time>2026-03-29T10:52:10Z</time></trkpt><trkpt lat="46.08080222200014" lon="12.257902353077958"><ele>841.0</ele><time>2026-03-29T10:52:11Z</time></trkpt><trkpt lat="46.08078868031384" lon="12.2580033039298"><ele>844.25</ele><time>2026-03-29T10:52:12Z</time></trkpt><trkpt lat="46.08069152111459" lon="12.258122478548946"><ele>847.5</ele><time>2026-03-29T10:52:14Z</time></trkpt><trkpt lat="46.08059962536993" lon="12.258158606813726"><ele>850.75</ele><time>2026-03-29T10:52:15Z</time></trkpt><trkpt lat="46.08048691035184" lon="12.25818970010224"><ele>854.0</ele><time>2026-03-29T10:52:16Z</time></trkpt><trkpt lat="46.08037047243166" lon="12.258216374966302"><ele>854.0</ele><time>2026-03-29T10:52:17Z</time></trkpt><trkpt lat="46.080262234625756" lon="12.258263359806303"><ele>854.0</ele><time>2026-03-29T10:52:18Z</time></trkpt><trkpt lat="46.08016523660608" lon="12.258357476910406"><ele>854.0</ele><time>2026-03-29T10:52:19Z</time></trkpt><trkpt lat="46.08007287318249" lon="12.258489689085069"><ele>854.0</ele><time>2026-03-29T10:52:20Z</time></trkpt><trkpt lat="46.07997802847571" lon="12.258651104864576"><ele>854.0</ele><time>2026-03-29T10:52:21Z</time></trkpt><trkpt lat="46.07989227915769" lon="12.25880766924485"><ele>854.0</ele><time>2026-03-29T10:52:22Z</time></trkpt><trkpt lat="46.07983434124414" lon="12.258951437774313"><ele>854.0</ele><time>2026-03-29T10:52:23Z</time></trkpt><trkpt lat="46.079797297833245" lon="12.259098097192386"><ele>854.0</ele><time>2026-03-29T10:52:24Z</time></trkpt><trkpt lat="46.079775563694064" lon="12.259253837424515"><ele>856.4000000000001</ele><time>2026-03-29T10:52:25Z</time></trkpt><trkpt lat="46.07976083638915" lon="12.259408134051013"><ele>858.8000000000001</ele><time>2026-03-29T10:52:26Z</time></trkpt><trkpt lat="46.079752110379516" lon="12.259558937960277"><ele>861.1999999999999</ele><time>2026-03-29T10:52:27Z</time></trkpt><trkpt lat="46.079745245727835" lon="12.259696578773738"><ele>863.5999999999999</ele><time>2026-03-29T10:52:28Z</time></trkpt><trkpt lat="46.07974187617092" lon="12.259822172949407"><ele>866.0</ele><time>2026-03-29T10:52:29Z</time></trkpt><trkpt lat="46.079742262562064" lon="12.25994359778117"><ele>868.8</ele><time>2026-03-29T10:52:30Z</time></trkpt><trkpt lat="46.07973987293393" lon="12.2600576321205"><ele>871.5999999999999</ele><time>2026-03-29T10:52:31Z</time></trkpt><trkpt lat="46.07972854393797" lon="12.260175021266598"><ele>874.4</ele><time>2026-03-29T10:52:32Z</time></trkpt><trkpt lat="46.079716104366454" lon="12.260299411823455"><ele>877.2</ele><time>2026-03-29T10:52:33.001Z</time></trkpt><trkpt lat="46.07970494217957" lon="12.260440591739126"><ele>880.0</ele><time>2026-03-29T10:52:34.001Z</time></trkpt><trkpt lat="46.079697486716505" lon="12.260592857797858"><ele>881.9999999999999</ele><time>2026-03-29T10:52:35.001Z</time></trkpt><trkpt lat="46.079693979657115" lon="12.260741278409576"><ele>884.0</ele><time>2026-03-29T10:52:36.001Z</time></trkpt><trkpt lat="46.07969504798346" lon="12.260883930467257"><ele>886.0</ele><time>2026-03-29T10:52:37.001Z</time></trkpt><trkpt lat="46.07969431991325" lon="12.2610131421476"><ele>888.0</ele><time>2026-03-29T10:52:38.001Z</time></trkpt><trkpt lat="46.079691789311866" lon="12.26113422892871"><ele>889.9999999999999</ele><time>2026-03-29T10:52:39.001Z</time></trkpt><trkpt lat="46.07969257014715" lon="12.261237736123057"><ele>892.0</ele><time>2026-03-29T10:52:40.001Z</time></trkpt><trkpt lat="46.079719500089496" lon="12.26138757546461"><ele>893.1666666666666</ele><time>2026-03-29T10:52:42.001Z</time></trkpt><trkpt lat="46.07976337180816" lon="12.261506904202685"><ele>894.3333333333333</ele><time>2026-03-29T10:52:44.001Z</time></trkpt><trkpt lat="46.079843407303585" lon="12.261635376773208"><ele>895.5</ele><time>2026-03-29T10:52:46.001Z</time></trkpt><trkpt lat="46.0799070252523" lon="12.26167825690856"><ele>896.6666666666667</ele><time>2026-03-29T10:52:47.001Z</time></trkpt><trkpt lat="46.07997842451907" lon="12.261699473024615"><ele>897.8333333333334</ele><time>2026-03-29T10:52:48.001Z</time></trkpt><trkpt lat="46.08005086661183" lon="12.261706523345053"><ele>899.0</ele><time>2026-03-29T10:52:49.001Z</time></trkpt><trkpt lat="46.08011920873464" lon="12.2617095252116"><ele>894.8000000000001</ele><time>2026-03-29T10:52:50.001Z</time></trkpt><trkpt lat="46.080216843527715" lon="12.261740173641972"><ele>890.6000000000001</ele><time>2026-03-29T10:52:52.001Z</time></trkpt><trkpt lat="46.08028009262369" lon="12.261812125779946"><ele>886.4</ele><time>2026-03-29T10:52:54.001Z</time></trkpt><trkpt lat="46.08030108962418" lon="12.261936173700564"><ele>882.2</ele><time>2026-03-29T10:52:56.001Z</time></trkpt><trkpt lat="46.08025566906696" lon="12.262107991981653"><ele>878.0</ele><time>2026-03-29T10:52:58.001Z</time></trkpt><trkpt lat="46.08021806087809" lon="12.262193086565913"><ele>878.6666666666667</ele><time>2026-03-29T10:52:59.001Z</time></trkpt><trkpt lat="46.08017759133156" lon="12.262289883938035"><ele>879.3333333333334</ele><time>2026-03-29T10:53:00.001Z</time></trkpt><trkpt lat="46.08015497151257" lon="12.262416652979496"><ele>880.0</ele><time>2026-03-29T10:53:01.001Z</time></trkpt><trkpt lat="46.08014985705615" lon="12.26254957119871"><ele>880.6666666666667</ele><time>2026-03-29T10:53:02.001Z</time></trkpt><trkpt lat="46.08014573832946" lon="12.262671301571803"><ele>881.3333333333334</ele><time>2026-03-29T10:53:03.001Z</time></trkpt><trkpt lat="46.08014670834063" lon="12.262788295085265"><ele>882.0</ele><time>2026-03-29T10:53:04.001Z</time></trkpt><trkpt lat="46.08014880043722" lon="12.262903307130724"><ele>882.0</ele><time>2026-03-29T10:53:05.001Z</time></trkpt><trkpt lat="46.08015631488967" lon="12.263025315921093"><ele>882.0</ele><time>2026-03-29T10:53:06.001Z</time></trkpt><trkpt lat="46.08016912772649" lon="12.263149384003261"><ele>882.0</ele><time>2026-03-29T10:53:07.001Z</time></trkpt><trkpt lat="46.080178521464056" lon="12.263268690217611"><ele>882.0</ele><time>2026-03-29T10:53:08.001Z</time></trkpt><trkpt lat="46.08017682009298" lon="12.263411409747697"><ele>882.0</ele><time>2026-03-29T10:53:09.001Z</time></trkpt><trkpt lat="46.08016339282667" lon="12.263530129489142"><ele>882.0</ele><time>2026-03-29T10:53:10.001Z</time></trkpt><trkpt lat="46.080160686797846" lon="12.263664258010351"><ele>883.4000000000001</ele><time>2026-03-29T10:53:11.001Z</time></trkpt><trkpt lat="46.08017720725287" lon="12.263791085161316"><ele>884.8000000000001</ele><time>2026-03-29T10:53:12.001Z</time></trkpt><trkpt lat="46.080215881279834" lon="12.263914207171894"><ele>886.2</ele><time>2026-03-29T10:53:13.001Z</time></trkpt><trkpt lat="46.08026059997935" lon="12.26402646089978"><ele>887.6</ele><time>2026-03-29T10:53:14.001Z</time></trkpt><trkpt lat="46.080300762609696" lon="12.264119624647902"><ele>889.0</ele><time>2026-03-29T10:53:15.001Z</time></trkpt><trkpt lat="46.08033759062215" lon="12.26426210662697"><ele>890.4000000000001</ele><time>2026-03-29T10:53:17.001Z</time></trkpt><trkpt lat="46.08034717227813" lon="12.264439833852707"><ele>891.8000000000001</ele><time>2026-03-29T10:53:19.001Z</time></trkpt><trkpt lat="46.08033685312885" lon="12.264565082610188"><ele>893.1999999999999</ele><time>2026-03-29T10:53:20.001Z</time></trkpt><trkpt lat="46.08033040748935" lon="12.264698236800493"><ele>894.5999999999999</ele><time>2026-03-29T10:53:21.001Z</time></trkpt><trkpt lat="46.08035140014551" lon="12.264817219217756"><ele>896.0</ele><time>2026-03-29T10:53:22.001Z</time></trkpt><trkpt lat="46.080404094385244" lon="12.264921189738386"><ele>896.75</ele><time>2026-03-29T10:53:23.001Z</time></trkpt><trkpt lat="46.08047788627434" lon="12.26500625101196"><ele>897.5</ele><time>2026-03-29T10:53:24Z</time></trkpt><trkpt lat="46.08056867364305" lon="12.26509259569765"><ele>898.25</ele><time>2026-03-29T10:53:25Z</time></trkpt><trkpt lat="46.08067384651055" lon="12.265194952714177"><ele>899.0</ele><time>2026-03-29T10:53:26Z</time></trkpt><trkpt lat="46.08078916222602" lon="12.265340348169474"><ele>895.75</ele><time>2026-03-29T10:53:27Z</time></trkpt><trkpt lat="46.08090010725505" lon="12.265498685710153"><ele>892.5</ele><time>2026-03-29T10:53:28Z</time></trkpt><trkpt lat="46.08100322799926" lon="12.265649715836474"><ele>889.25</ele><time>2026-03-29T10:53:29Z</time></trkpt><trkpt lat="46.08109030379014" lon="12.265774355536383"><ele>886.0</ele><time>2026-03-29T10:53:30Z</time></trkpt><trkpt lat="46.08115462361751" lon="12.265866407912595"><ele>885.9999999999999</ele><time>2026-03-29T10:53:31Z</time></trkpt><trkpt lat="46.0811995265194" lon="12.265940430129929"><ele>886.0</ele><time>2026-03-29T10:53:32Z</time></trkpt><trkpt lat="46.08122692853984" lon="12.266025748261528"><ele>886.0</ele><time>2026-03-29T10:53:33Z</time></trkpt><trkpt lat="46.08123837339341" lon="12.26614869581448"><ele>886.0</ele><time>2026-03-29T10:53:34Z</time></trkpt><trkpt lat="46.08124799653106" lon="12.26630636389317"><ele>885.9999999999999</ele><time>2026-03-29T10:53:35Z</time></trkpt><trkpt lat="46.08127178227832" lon="12.266456348626543"><ele>886.0</ele><time>2026-03-29T10:53:36Z</time></trkpt><trkpt lat="46.081317422222675" lon="12.266572623664484"><ele>888.1666666666666</ele><time>2026-03-29T10:53:37Z</time></trkpt><trkpt lat="46.08137748226597" lon="12.26667104223574"><ele>890.3333333333333</ele><time>2026-03-29T10:53:38Z</time></trkpt><trkpt lat="46.081431342161835" lon="12.266742287448302"><ele>892.5</ele><time>2026-03-29T10:53:39Z</time></trkpt><trkpt lat="46.08146626963201" lon="12.266822362837567"><ele>894.6666666666667</ele><time>2026-03-29T10:53:40Z</time></trkpt><trkpt lat="46.08148028896231" lon="12.266934636212747"><ele>896.8333333333334</ele><time>2026-03-29T10:53:41Z</time></trkpt><trkpt lat="46.081480191517535" lon="12.267055730915231"><ele>899.0</ele><time>2026-03-29T10:53:42Z</time></trkpt><trkpt lat="46.08146769690906" lon="12.267170565242012"><ele>899.0000000000001</ele><time>2026-03-29T10:53:43Z</time></trkpt><trkpt lat="46.081444891465296" lon="12.267274321851312"><ele>899.0</ele><time>2026-03-29T10:53:44Z</time></trkpt><trkpt lat="46.08140319947265" lon="12.267382224580624"><ele>899.0</ele><time>2026-03-29T10:53:45Z</time></trkpt><trkpt lat="46.08136918113032" lon="12.267511278495247"><ele>899.0</ele><time>2026-03-29T10:53:46Z</time></trkpt><trkpt lat="46.08135911253806" lon="12.267642209165667"><ele>899.0000000000001</ele><time>2026-03-29T10:53:47Z</time></trkpt><trkpt lat="46.081371672741646" lon="12.267761287384367"><ele>899.0</ele><time>2026-03-29T10:53:48Z</time></trkpt><trkpt lat="46.08140244578965" lon="12.267845176838852"><ele>899.8333333333334</ele><time>2026-03-29T10:53:49Z</time></trkpt><trkpt lat="46.08144361109833" lon="12.267960458928636"><ele>900.6666666666667</ele><time>2026-03-29T10:53:51Z</time></trkpt><trkpt lat="46.081452462592985" lon="12.26805923803676"><ele>901.5</ele><time>2026-03-29T10:53:54Z</time></trkpt><trkpt lat="46.081415924907134" lon="12.267909582328945"><ele>902.3333333333333</ele><time>2026-03-29T10:55:53Z</time></trkpt><trkpt lat="46.08135982619119" lon="12.267807249460693"><ele>903.1666666666666</ele><time>2026-03-29T10:55:55Z</time></trkpt><trkpt lat="46.081320656511146" lon="12.267729557511803"><ele>904.0</ele><time>2026-03-29T10:55:57Z</time></trkpt><trkpt lat="46.081428014820666" lon="12.267773553533624"><ele>903.9999999999999</ele><time>2026-03-29T10:56:01Z</time></trkpt><trkpt lat="46.08148581464285" lon="12.267902638370462"><ele>904.0</ele><time>2026-03-29T10:56:02Z</time></trkpt><trkpt lat="46.08154033337776" lon="12.26796061140358"><ele>904.0</ele><time>2026-03-29T10:56:35.001Z</time></trkpt><trkpt lat="46.08166061822385" lon="12.267996898018076"><ele>904.0</ele><time>2026-03-29T10:56:37.001Z</time></trkpt><trkpt lat="46.08173085868585" lon="12.268026874014911"><ele>903.9999999999999</ele><time>2026-03-29T10:56:38.001Z</time></trkpt><trkpt lat="46.08180431901481" lon="12.268057594911888"><ele>904.0</ele><time>2026-03-29T10:56:39.001Z</time></trkpt><trkpt lat="46.08188077152325" lon="12.268089720050936"><ele>900.6666666666666</ele><time>2026-03-29T10:56:40.001Z</time></trkpt><trkpt lat="46.081952512786664" lon="12.26813210219038"><ele>897.3333333333333</ele><time>2026-03-29T10:56:41.001Z</time></trkpt><trkpt lat="46.08202964691767" lon="12.268253296649185"><ele>894.0</ele><time>2026-03-29T10:56:43.001Z</time></trkpt><trkpt lat="46.08204049948684" lon="12.268343967479785"><ele>890.6666666666667</ele><time>2026-03-29T10:56:44.001Z</time></trkpt><trkpt lat="46.082038362244845" lon="12.268442034581179"><ele>887.3333333333334</ele><time>2026-03-29T10:56:45.001Z</time></trkpt><trkpt lat="46.08203546139061" lon="12.268540021817028"><ele>884.0</ele><time>2026-03-29T10:56:46.001Z</time></trkpt><trkpt lat="46.082086938442394" lon="12.268659942501255"><ele>884.0000000000001</ele><time>2026-03-29T10:56:48.001Z</time></trkpt><trkpt lat="46.08219085547981" lon="12.268641191489701"><ele>884.0</ele><time>2026-03-29T10:56:50.001Z</time></trkpt><trkpt lat="46.082230542902956" lon="12.2685045263915"><ele>884.0</ele><time>2026-03-29T10:56:52.001Z</time></trkpt><trkpt lat="46.08222615880253" lon="12.268408576365154"><ele>884.0</ele><time>2026-03-29T10:56:53.001Z</time></trkpt><trkpt lat="46.08220941855684" lon="12.268284140992575"><ele>884.0000000000001</ele><time>2026-03-29T10:56:54.001Z</time></trkpt><trkpt lat="46.082210945015476" lon="12.268183351197427"><ele>884.0</ele><time>2026-03-29T10:56:55.001Z</time></trkpt><trkpt lat="46.0822422899063" lon="12.268101047275096"><ele>883.5000000000001</ele><time>2026-03-29T10:56:56.001Z</time></trkpt><trkpt lat="46.08228615605424" lon="12.268022531481483"><ele>883.0</ele><time>2026-03-29T10:56:57.001Z</time></trkpt><trkpt lat="46.08234819637213" lon="12.267952802418414"><ele>882.5</ele><time>2026-03-29T10:56:58.001Z</time></trkpt><trkpt lat="46.08242535642676" lon="12.267901782886986"><ele>882.0</ele><time>2026-03-29T10:56:59.001Z</time></trkpt><trkpt lat="46.08252021003908" lon="12.267861267787872"><ele>881.5000000000001</ele><time>2026-03-29T10:57:00.001Z</time></trkpt><trkpt lat="46.08262637751631" lon="12.267825479383754"><ele>881.0</ele><time>2026-03-29T10:57:01.001Z</time></trkpt><trkpt lat="46.082738927922236" lon="12.267792985519836"><ele>881.0</ele><time>2026-03-29T10:57:02.001Z</time></trkpt><trkpt lat="46.082851797852754" lon="12.26775848110777"><ele>880.9999999999999</ele><time>2026-03-29T10:57:03.001Z</time></trkpt><trkpt lat="46.08295647346643" lon="12.26770610761327"><ele>880.9999999999999</ele><time>2026-03-29T10:57:04.001Z</time></trkpt><trkpt lat="46.0830555570628" lon="12.267630981921299"><ele>881.0</ele><time>2026-03-29T10:57:05.001Z</time></trkpt><trkpt lat="46.08313920359101" lon="12.26754406371404"><ele>881.0</ele><time>2026-03-29T10:57:06.001Z</time></trkpt><trkpt lat="46.08321858022706" lon="12.26749205891591"><ele>880.8</ele><time>2026-03-29T10:57:07.001Z</time></trkpt><trkpt lat="46.08330532500495" lon="12.267481251931988"><ele>880.5999999999999</ele><time>2026-03-29T10:57:08.001Z</time></trkpt><trkpt lat="46.083381370072345" lon="12.267455075377669"><ele>880.4</ele><time>2026-03-29T10:57:09.001Z</time></trkpt><trkpt lat="46.083457272605926" lon="12.267377665106977"><ele>880.2</ele><time>2026-03-29T10:57:10.001Z</time></trkpt><trkpt lat="46.083529540950316" lon="12.26726963740336"><ele>880.0</ele><time>2026-03-29T10:57:11.001Z</time></trkpt><trkpt lat="46.083596503709835" lon="12.267119506762025"><ele>880.0</ele><time>2026-03-29T10:57:12.001Z</time></trkpt><trkpt lat="46.08367897352527" lon="12.267007738344338"><ele>880.0</ele><time>2026-03-29T10:57:13.001Z</time></trkpt><trkpt lat="46.08377176895089" lon="12.26687323144653"><ele>880.0</ele><time>2026-03-29T10:57:14.001Z</time></trkpt><trkpt lat="46.08386174078643" lon="12.266719321404532"><ele>880.0</ele><time>2026-03-29T10:57:15.001Z</time></trkpt><trkpt lat="46.0839306800191" lon="12.266579907106046"><ele>879.9999999999999</ele><time>2026-03-29T10:57:16.001Z</time></trkpt><trkpt lat="46.08398706749998" lon="12.266468723074539"><ele>880.0</ele><time>2026-03-29T10:57:17.001Z</time></trkpt><trkpt lat="46.08403046950238" lon="12.266361634549929"><ele>880.0</ele><time>2026-03-29T10:57:18.001Z</time></trkpt><trkpt lat="46.084058413281184" lon="12.266240630655583"><ele>880.0</ele><time>2026-03-29T10:57:19.001Z</time></trkpt><trkpt lat="46.08409042919023" lon="12.266119575812912"><ele>879.9999999999999</ele><time>2026-03-29T10:57:20.001Z</time></trkpt><trkpt lat="46.08411527941841" lon="12.265999077178444"><ele>880.0</ele><time>2026-03-29T10:57:21.001Z</time></trkpt><trkpt lat="46.08413799922035" lon="12.265894904364178"><ele>882.9999999999999</ele><time>2026-03-29T10:57:22.001Z</time></trkpt><trkpt lat="46.08416545562937" lon="12.265796712979345"><ele>886.0</ele><time>2026-03-29T10:57:23.001Z</time></trkpt><trkpt lat="46.08421794811581" lon="12.265699393452556"><ele>889.0</ele><time>2026-03-29T10:57:24.001Z</time></trkpt><trkpt lat="46.08427868197061" lon="12.26559723211942"><ele>892.0</ele><time>2026-03-29T10:57:25.001Z</time></trkpt><trkpt lat="46.08432021625684" lon="12.265481798724633"><ele>894.9999999999999</ele><time>2026-03-29T10:57:26.001Z</time></trkpt><trkpt lat="46.08433442767106" lon="12.2653541058591"><ele>898.0</ele><time>2026-03-29T10:57:27.001Z</time></trkpt><trkpt lat="46.08432398278893" lon="12.265206970023527"><ele>898.0</ele><time>2026-03-29T10:57:28.001Z</time></trkpt><trkpt lat="46.08435176781212" lon="12.265023288370795"><ele>898.0</ele><time>2026-03-29T10:57:29.001Z</time></trkpt><trkpt lat="46.084379518620615" lon="12.2648416848741"><ele>898.0</ele><time>2026-03-29T10:57:30.001Z</time></trkpt><trkpt lat="46.08439883844497" lon="12.264681628536822"><ele>898.0</ele><time>2026-03-29T10:57:31.001Z</time></trkpt><trkpt lat="46.08442202432847" lon="12.264527919989227"><ele>897.4</ele><time>2026-03-29T10:57:32.001Z</time></trkpt><trkpt lat="46.084440243308244" lon="12.264418348693107"><ele>896.8</ele><time>2026-03-29T10:57:33.001Z</time></trkpt><trkpt lat="46.084465010935624" lon="12.264307778677614"><ele>896.2</ele><time>2026-03-29T10:57:34.001Z</time></trkpt><trkpt lat="46.08450351912661" lon="12.26415889817257"><ele>895.6</ele><time>2026-03-29T10:57:36Z</time></trkpt><trkpt lat="46.08455991590296" lon="12.26409901506939"><ele>895.0</ele><time>2026-03-29T10:57:38Z</time></trkpt><trkpt lat="46.08468293468584" lon="12.264071657920871"><ele>895.0</ele><time>2026-03-29T10:57:40Z</time></trkpt><trkpt lat="46.08476308569987" lon="12.26409135310078"><ele>895.0</ele><time>2026-03-29T10:57:41Z</time></trkpt><trkpt lat="46.08485068906908" lon="12.264113601942405"><ele>895.0</ele><time>2026-03-29T10:57:42Z</time></trkpt><trkpt lat="46.084946945343624" lon="12.26413635439635"><ele>895.0</ele><time>2026-03-29T10:57:43Z</time></trkpt><trkpt lat="46.0850455194922" lon="12.264155351851684"><ele>895.0</ele><time>2026-03-29T10:57:44Z</time></trkpt><trkpt lat="46.08514372159815" lon="12.264174656414584"><ele>899.3333333333333</ele><time>2026-03-29T10:57:45Z</time></trkpt><trkpt lat="46.08523655555174" lon="12.264194225268305"><ele>903.6666666666666</ele><time>2026-03-29T10:57:46Z</time></trkpt><trkpt lat="46.0853250418245" lon="12.264211247216904"><ele>908.0</ele><time>2026-03-29T10:57:47Z</time></trkpt><trkpt lat="46.08539976419674" lon="12.264214599834165"><ele>912.3333333333333</ele><time>2026-03-29T10:57:48Z</time></trkpt><trkpt lat="46.08546745639274" lon="12.264195255349673"><ele>916.6666666666666</ele><time>2026-03-29T10:57:49Z</time></trkpt><trkpt lat="46.08554537497471" lon="12.26414289618259"><ele>921.0</ele><time>2026-03-29T10:57:50Z</time></trkpt><trkpt lat="46.085629110821294" lon="12.264088480053084"><ele>921.0</ele><time>2026-03-29T10:57:51Z</time></trkpt><trkpt lat="46.08571540456308" lon="12.264019145906481"><ele>920.9999999999999</ele><time>2026-03-29T10:57:52Z</time></trkpt><trkpt lat="46.08581460229342" lon="12.263941644685755"><ele>920.9999999999999</ele><time>2026-03-29T10:57:53Z</time></trkpt><trkpt lat="46.08591346434891" lon="12.263869092747772"><ele>921.0</ele><time>2026-03-29T10:57:54Z</time></trkpt><trkpt lat="46.086011829856496" lon="12.263803403100157"><ele>921.0</ele><time>2026-03-29T10:57:55Z</time></trkpt><trkpt lat="46.08610528990318" lon="12.263737882243616"><ele>918.8333333333334</ele><time>2026-03-29T10:57:56Z</time></trkpt><trkpt lat="46.086199523382035" lon="12.263675745128142"><ele>916.6666666666667</ele><time>2026-03-29T10:57:57Z</time></trkpt><trkpt lat="46.08628121231848" lon="12.263654207053984"><ele>914.5</ele><time>2026-03-29T10:57:58Z</time></trkpt><trkpt lat="46.086360479422225" lon="12.263647776390203"><ele>912.3333333333334</ele><time>2026-03-29T10:57:59Z</time></trkpt><trkpt lat="46.08643089231689" lon="12.263657681240433"><ele>910.1666666666667</ele><time>2026-03-29T10:58:00Z</time></trkpt><trkpt lat="46.08650507231521" lon="12.26369203527432"><ele>908.0</ele><time>2026-03-29T10:58:01Z</time></trkpt><trkpt lat="46.08659329355403" lon="12.263737192967648"><ele>910.2</ele><time>2026-03-29T10:58:02Z</time></trkpt><trkpt lat="46.08667800156531" lon="12.263793799171896"><ele>912.4</ele><time>2026-03-29T10:58:03Z</time></trkpt><trkpt lat="46.08676015337376" lon="12.263862747246334"><ele>914.6000000000001</ele><time>2026-03-29T10:58:04Z</time></trkpt><trkpt lat="46.086834497831944" lon="12.263945814040492"><ele>916.8000000000001</ele><time>2026-03-29T10:58:05Z</time></trkpt><trkpt lat="46.086903848100405" lon="12.264043785929312"><ele>919.0</ele><time>2026-03-29T10:58:06Z</time></trkpt><trkpt lat="46.08697185374116" lon="12.26415096231744"><ele>921.1666666666666</ele><time>2026-03-29T10:58:07Z</time></trkpt><trkpt lat="46.08703789617759" lon="12.264248998958104"><ele>923.3333333333333</ele><time>2026-03-29T10:58:08Z</time></trkpt><trkpt lat="46.087101638378044" lon="12.264322269789947"><ele>925.5</ele><time>2026-03-29T10:58:09Z</time></trkpt><trkpt lat="46.087170982777025" lon="12.264395756761798"><ele>927.6666666666667</ele><time>2026-03-29T10:58:10Z</time></trkpt><trkpt lat="46.08723399878261" lon="12.264462263572298"><ele>929.8333333333334</ele><time>2026-03-29T10:58:11Z</time></trkpt><trkpt lat="46.087302272969104" lon="12.264535775494705"><ele>932.0</ele><time>2026-03-29T10:58:12Z</time></trkpt><trkpt lat="46.08736353228423" lon="12.264611436058939"><ele>932.0000000000001</ele><time>2026-03-29T10:58:13Z</time></trkpt><trkpt lat="46.08742602457923" lon="12.264696151965353"><ele>932.0</ele><time>2026-03-29T10:58:14Z</time></trkpt><trkpt lat="46.087486114282775" lon="12.264782166715639"><ele>932.0</ele><time>2026-03-29T10:58:15Z</time></trkpt><trkpt lat="46.08754452053967" lon="12.264859365423085"><ele>932.0</ele><time>2026-03-29T10:58:16Z</time></trkpt><trkpt lat="46.08759218824972" lon="12.264931214270277"><ele>932.0000000000001</ele><time>2026-03-29T10:58:17Z</time></trkpt><trkpt lat="46.08769341046262" lon="12.265040420233138"><ele>932.0</ele><time>2026-03-29T10:58:19Z</time></trkpt><trkpt lat="46.08775330542857" lon="12.265101878884835"><ele>933.6</ele><time>2026-03-29T10:58:20Z</time></trkpt><trkpt lat="46.08782523388726" lon="12.265165849811263"><ele>935.2</ele><time>2026-03-29T10:58:21Z</time></trkpt><trkpt lat="46.087906732520665" lon="12.265238472147933"><ele>936.8</ele><time>2026-03-29T10:58:22Z</time></trkpt><trkpt lat="46.08799156808957" lon="12.265306400415247"><ele>938.4</ele><time>2026-03-29T10:58:23Z</time></trkpt><trkpt lat="46.08808867105581" lon="12.265373170052413"><ele>940.0</ele><time>2026-03-29T10:58:24Z</time></trkpt><trkpt lat="46.08818162456839" lon="12.265450583109923"><ele>940.4</ele><time>2026-03-29T10:58:25Z</time></trkpt><trkpt lat="46.08827854670633" lon="12.265528946090528"><ele>940.8</ele><time>2026-03-29T10:58:26Z</time></trkpt><trkpt lat="46.08837039879372" lon="12.265608591464684"><ele>941.2</ele><time>2026-03-29T10:58:27Z</time></trkpt><trkpt lat="46.08844577230831" lon="12.265671884345492"><ele>941.6</ele><time>2026-03-29T10:58:28.001Z</time></trkpt><trkpt lat="46.08852188256616" lon="12.26572166257046"><ele>942.0</ele><time>2026-03-29T10:58:29.001Z</time></trkpt><trkpt lat="46.08861030189183" lon="12.265807699018673"><ele>942.0</ele><time>2026-03-29T10:58:31.001Z</time></trkpt><trkpt lat="46.088630489817646" lon="12.265926901320002"><ele>942.0</ele><time>2026-03-29T10:58:33.001Z</time></trkpt><trkpt lat="46.08860773785477" lon="12.266106483523815"><ele>942.0</ele><time>2026-03-29T10:58:35.001Z</time></trkpt><trkpt lat="46.08857049464177" lon="12.266217194945389"><ele>942.0</ele><time>2026-03-29T10:58:36.001Z</time></trkpt><trkpt lat="46.08852526822432" lon="12.266346555131047"><ele>942.0</ele><time>2026-03-29T10:58:37.001Z</time></trkpt><trkpt lat="46.088479834512945" lon="12.266494511772128"><ele>943.5</ele><time>2026-03-29T10:58:38.001Z</time></trkpt><trkpt lat="46.0884382546566" lon="12.266630285844279"><ele>945.0</ele><time>2026-03-29T10:58:39.001Z</time></trkpt><trkpt lat="46.088390243648846" lon="12.266721118744123"><ele>946.5</ele><time>2026-03-29T10:58:40.001Z</time></trkpt><trkpt lat="46.08837435656864" lon="12.266819311841177"><ele>948.0</ele><time>2026-03-29T10:58:41.001Z</time></trkpt><trkpt lat="46.08838173792799" lon="12.26691116471768"><ele>949.5</ele><time>2026-03-29T10:58:42.001Z</time></trkpt><trkpt lat="46.08841467732474" lon="12.267005299875342"><ele>951.0</ele><time>2026-03-29T10:58:43.001Z</time></trkpt><trkpt lat="46.08845778211114" lon="12.267075957440492"><ele>951.0</ele><time>2026-03-29T10:58:44.001Z</time></trkpt><trkpt lat="46.08850088774954" lon="12.26722445904825"><ele>950.9999999999999</ele><time>2026-03-29T10:58:46.001Z</time></trkpt><trkpt lat="46.08848396218467" lon="12.267325122922488"><ele>950.9999999999999</ele><time>2026-03-29T10:58:47.001Z</time></trkpt><trkpt lat="46.088453820702036" lon="12.267449409566131"><ele>951.0</ele><time>2026-03-29T10:58:48.001Z</time></trkpt><trkpt lat="46.08841808115616" lon="12.2675852129139"><ele>951.0</ele><time>2026-03-29T10:58:49.001Z</time></trkpt><trkpt lat="46.08840368776211" lon="12.26771276581293"><ele>952.0</ele><time>2026-03-29T10:58:50.001Z</time></trkpt><trkpt lat="46.08842156622474" lon="12.267827235498952"><ele>952.9999999999999</ele><time>2026-03-29T10:58:51.001Z</time></trkpt><trkpt lat="46.088466831681906" lon="12.267948771788996"><ele>953.9999999999999</ele><time>2026-03-29T10:58:52.001Z</time></trkpt><trkpt lat="46.088505881873104" lon="12.26807392047968"><ele>955.0</ele><time>2026-03-29T10:58:53.001Z</time></trkpt><trkpt lat="46.0885186086256" lon="12.268244176816388"><ele>956.0</ele><time>2026-03-29T10:58:54.001Z</time></trkpt><trkpt lat="46.08851935127718" lon="12.268422750798088"><ele>956.75</ele><time>2026-03-29T10:58:55.001Z</time></trkpt><trkpt lat="46.08851841751003" lon="12.268595875193014"><ele>957.5</ele><time>2026-03-29T10:58:56.001Z</time></trkpt><trkpt lat="46.08850950518802" lon="12.26875910526943"><ele>958.25</ele><time>2026-03-29T10:58:57.001Z</time></trkpt><trkpt lat="46.08849472186393" lon="12.268922803273393"><ele>959.0</ele><time>2026-03-29T10:58:58.001Z</time></trkpt><trkpt lat="46.08847257776773" lon="12.269077403713979"><ele>959.0</ele><time>2026-03-29T10:58:59.001Z</time></trkpt><trkpt lat="46.08845946667166" lon="12.26921953291641"><ele>959.0000000000001</ele><time>2026-03-29T10:59:00.001Z</time></trkpt><trkpt lat="46.08845009554777" lon="12.269345345732994"><ele>959.0000000000001</ele><time>2026-03-29T10:59:01.001Z</time></trkpt><trkpt lat="46.0884245437556" lon="12.269472512746436"><ele>959.0</ele><time>2026-03-29T10:59:02.001Z</time></trkpt><trkpt lat="46.08838551521221" lon="12.269617631200695"><ele>959.0</ele><time>2026-03-29T10:59:03.001Z</time></trkpt><trkpt lat="46.08834688256772" lon="12.269751041635038"><ele>958.5000000000001</ele><time>2026-03-29T10:59:04.001Z</time></trkpt><trkpt lat="46.08832082634696" lon="12.269867414752998"><ele>958.0</ele><time>2026-03-29T10:59:05.001Z</time></trkpt><trkpt lat="46.08830029074628" lon="12.269974917240699"><ele>957.5</ele><time>2026-03-29T10:59:06.001Z</time></trkpt><trkpt lat="46.08829397726047" lon="12.270085409563544"><ele>957.0</ele><time>2026-03-29T10:59:07.001Z</time></trkpt><trkpt lat="46.08829782948577" lon="12.270209039194825"><ele>956.5000000000001</ele><time>2026-03-29T10:59:08.001Z</time></trkpt><trkpt lat="46.08832591901759" lon="12.27033119342303"><ele>956.0</ele><time>2026-03-29T10:59:09.001Z</time></trkpt><trkpt lat="46.0883558781874" lon="12.270458732952676"><ele>956.0000000000001</ele><time>2026-03-29T10:59:10.001Z</time></trkpt><trkpt lat="46.088391160120814" lon="12.270592589374786"><ele>956.0</ele><time>2026-03-29T10:59:11.001Z</time></trkpt><trkpt lat="46.08843239994092" lon="12.270713166935382"><ele>956.0</ele><time>2026-03-29T10:59:12.001Z</time></trkpt><trkpt lat="46.08847388422866" lon="12.27080737098303"><ele>956.0</ele><time>2026-03-29T10:59:13.001Z</time></trkpt><trkpt lat="46.08850091767689" lon="12.270900325382152"><ele>956.0000000000001</ele><time>2026-03-29T10:59:14.001Z</time></trkpt><trkpt lat="46.08850003738338" lon="12.27099163259341"><ele>956.0</ele><time>2026-03-29T10:59:15.001Z</time></trkpt><trkpt lat="46.08848116604665" lon="12.271091619706048"><ele>956.6666666666667</ele><time>2026-03-29T10:59:16.001Z</time></trkpt><trkpt lat="46.08845298596036" lon="12.271206472253988"><ele>957.3333333333334</ele><time>2026-03-29T10:59:17.001Z</time></trkpt><trkpt lat="46.08843158896364" lon="12.27133018724518"><ele>958.0</ele><time>2026-03-29T10:59:18.001Z</time></trkpt><trkpt lat="46.08841760059838" lon="12.27144861620974"><ele>958.6666666666667</ele><time>2026-03-29T10:59:19.001Z</time></trkpt><trkpt lat="46.08841236822839" lon="12.27155367564257"><ele>959.3333333333334</ele><time>2026-03-29T10:59:20.001Z</time></trkpt><trkpt lat="46.08842528794426" lon="12.271649752131697"><ele>960.0</ele><time>2026-03-29T10:59:21.001Z</time></trkpt><trkpt lat="46.08845722419473" lon="12.271734920045722"><ele>960.5</ele><time>2026-03-29T10:59:22.001Z</time></trkpt><trkpt lat="46.08850534894331" lon="12.271825582429042"><ele>961.0</ele><time>2026-03-29T10:59:23.001Z</time></trkpt><trkpt lat="46.08854994686947" lon="12.271917750936499"><ele>961.5</ele><time>2026-03-29T10:59:24.001Z</time></trkpt><trkpt lat="46.08857178169729" lon="12.272006015849309"><ele>962.0</ele><time>2026-03-29T10:59:25.001Z</time></trkpt><trkpt lat="46.088580505374225" lon="12.272119273463472"><ele>962.5</ele><time>2026-03-29T10:59:26.001Z</time></trkpt><trkpt lat="46.08857856389025" lon="12.272249982941236"><ele>963.0</ele><time>2026-03-29T10:59:27.001Z</time></trkpt><trkpt lat="46.08857615197652" lon="12.272393167240025"><ele>964.0</ele><time>2026-03-29T10:59:28.001Z</time></trkpt><trkpt lat="46.08856707462358" lon="12.272535939688721"><ele>965.0</ele><time>2026-03-29T10:59:29.001Z</time></trkpt><trkpt lat="46.08855798774175" lon="12.27265467148514"><ele>966.0</ele><time>2026-03-29T10:59:30.001Z</time></trkpt><trkpt lat="46.08857140468879" lon="12.272768297528128"><ele>967.0</ele><time>2026-03-29T10:59:31.001Z</time></trkpt><trkpt lat="46.08860784475805" lon="12.27288620835181"><ele>968.0</ele><time>2026-03-29T10:59:32.001Z</time></trkpt><trkpt lat="46.08864462977809" lon="12.272990512526338"><ele>969.0</ele><time>2026-03-29T10:59:33.001Z</time></trkpt><trkpt lat="46.088676469466634" lon="12.273087441775207"><ele>969.0</ele><time>2026-03-29T10:59:34.001Z</time></trkpt><trkpt lat="46.088712643299715" lon="12.273179955870589"><ele>969.0</ele><time>2026-03-29T10:59:35.001Z</time></trkpt><trkpt lat="46.08875899083639" lon="12.27327949679222"><ele>969.0</ele><time>2026-03-29T10:59:37.001Z</time></trkpt><trkpt lat="46.08883843283441" lon="12.273252528500903"><ele>969.0</ele><time>2026-03-29T10:59:39.001Z</time></trkpt><trkpt lat="46.08889004593384" lon="12.273197715282308"><ele>969.0</ele><time>2026-03-29T10:59:40.001Z</time></trkpt><trkpt lat="46.088947057322656" lon="12.273112119636137"><ele>969.0</ele><time>2026-03-29T10:59:41.001Z</time></trkpt><trkpt lat="46.089016852595485" lon="12.273002639345501"><ele>969.0</ele><time>2026-03-29T10:59:42Z</time></trkpt><trkpt lat="46.08907728005851" lon="12.272864986047233"><ele>969.0</ele><time>2026-03-29T10:59:43Z</time></trkpt><trkpt lat="46.08914656819521" lon="12.272714334707983"><ele>969.0</ele><time>2026-03-29T10:59:44Z</time></trkpt><trkpt lat="46.089212027027195" lon="12.272574041845102"><ele>969.0</ele><time>2026-03-29T10:59:45Z</time></trkpt><trkpt lat="46.0892756306612" lon="12.272470437572636"><ele>966.6666666666666</ele><time>2026-03-29T10:59:46Z</time></trkpt><trkpt lat="46.08932948505038" lon="12.272379312855806"><ele>964.3333333333333</ele><time>2026-03-29T10:59:47Z</time></trkpt><trkpt lat="46.08939987953306" lon="12.272300262488782"><ele>962.0</ele><time>2026-03-29T10:59:48Z</time></trkpt><trkpt lat="46.08946431202" lon="12.272206645563648"><ele>959.6666666666666</ele><time>2026-03-29T10:59:49Z</time></trkpt><trkpt lat="46.08950737918138" lon="12.272110520673147"><ele>957.3333333333333</ele><time>2026-03-29T10:59:50Z</time></trkpt><trkpt lat="46.08956380009831" lon="12.272000708906809"><ele>955.0</ele><time>2026-03-29T10:59:52Z</time></trkpt><trkpt lat="46.089644221354725" lon="12.272001085823257"><ele>954.9999999999999</ele><time>2026-03-29T11:00:00Z</time></trkpt><trkpt lat="46.08962834832261" lon="12.27212014242124"><ele>955.0</ele><time>2026-03-29T11:01:01.001Z</time></trkpt><trkpt lat="46.089588397464716" lon="12.272190815247507"><ele>954.9999999999999</ele><time>2026-03-29T11:01:02.001Z</time></trkpt><trkpt lat="46.089534242524685" lon="12.272256347409826"><ele>954.9999999999999</ele><time>2026-03-29T11:01:03.001Z</time></trkpt><trkpt lat="46.08947981977486" lon="12.272314285283855"><ele>955.0</ele><time>2026-03-29T11:01:04.001Z</time></trkpt><trkpt lat="46.089428452806054" lon="12.272378948819101"><ele>954.9999999999999</ele><time>2026-03-29T11:01:05.001Z</time></trkpt><trkpt lat="46.08938088907236" lon="12.272458079077943"><ele>954.9999999999999</ele><time>2026-03-29T11:01:06.001Z</time></trkpt><trkpt lat="46.08932766434414" lon="12.272551525373588"><ele>954.9999999999999</ele><time>2026-03-29T11:01:07.001Z</time></trkpt><trkpt lat="46.08927738694932" lon="12.272642122444168"><ele>955.0</ele><time>2026-03-29T11:01:08.001Z</time></trkpt><trkpt lat="46.08923820205842" lon="12.272748209275239"><ele>955.0</ele><time>2026-03-29T11:01:09.001Z</time></trkpt><trkpt lat="46.08920953046887" lon="12.272869628221338"><ele>955.0</ele><time>2026-03-29T11:01:10.001Z</time></trkpt><trkpt lat="46.08919094990239" lon="12.273000679751132"><ele>954.9999999999999</ele><time>2026-03-29T11:01:11.001Z</time></trkpt><trkpt lat="46.08916920768686" lon="12.273134449515226"><ele>955.0</ele><time>2026-03-29T11:01:12.001Z</time></trkpt><trkpt lat="46.089138873857195" lon="12.273262586168048"><ele>957.2</ele><time>2026-03-29T11:01:13.001Z</time></trkpt><trkpt lat="46.08910787385524" lon="12.273397642966774"><ele>959.4</ele><time>2026-03-29T11:01:14.001Z</time></trkpt><trkpt lat="46.08906680069727" lon="12.273536608786687"><ele>961.5999999999999</ele><time>2026-03-29T11:01:15.001Z</time></trkpt><trkpt lat="46.08901130532313" lon="12.273675425690314"><ele>963.8</ele><time>2026-03-29T11:01:16.001Z</time></trkpt><trkpt lat="46.08894899988998" lon="12.273804087025574"><ele>966.0</ele><time>2026-03-29T11:01:17.001Z</time></trkpt><trkpt lat="46.088885670665725" lon="12.273928064878868"><ele>968.1999999999999</ele><time>2026-03-29T11:01:18.001Z</time></trkpt><trkpt lat="46.08884253447272" lon="12.274069539686339"><ele>970.3999999999999</ele><time>2026-03-29T11:01:19.001Z</time></trkpt><trkpt lat="46.08881899347645" lon="12.274226492075787"><ele>972.6</ele><time>2026-03-29T11:01:20.001Z</time></trkpt><trkpt lat="46.08878863561615" lon="12.274374726330313"><ele>974.8</ele><time>2026-03-29T11:01:21.001Z</time></trkpt><trkpt lat="46.0887619777997" lon="12.274500922370859"><ele>977.0</ele><time>2026-03-29T11:01:22.001Z</time></trkpt><trkpt lat="46.08872772028129" lon="12.274589546903098"><ele>977.0</ele><time>2026-03-29T11:01:23.001Z</time></trkpt><trkpt lat="46.08859859505489" lon="12.274603515778692"><ele>977.0</ele><time>2026-03-29T11:01:25.001Z</time></trkpt><trkpt lat="46.08850654158514" lon="12.274603715515234"><ele>977.0</ele><time>2026-03-29T11:01:26.001Z</time></trkpt><trkpt lat="46.0884111878066" lon="12.2746619911094"><ele>977.0</ele><time>2026-03-29T11:01:27.001Z</time></trkpt><trkpt lat="46.08834362426967" lon="12.27474938626883"><ele>977.0</ele><time>2026-03-29T11:01:28.001Z</time></trkpt><trkpt lat="46.08828277151829" lon="12.27485691073447"><ele>980.3333333333334</ele><time>2026-03-29T11:01:29.001Z</time></trkpt><trkpt lat="46.08821122662534" lon="12.274930543286754"><ele>983.6666666666667</ele><time>2026-03-29T11:01:30.001Z</time></trkpt><trkpt lat="46.08812093290862" lon="12.27495176795612"><ele>987.0</ele><time>2026-03-29T11:01:31.001Z</time></trkpt><trkpt lat="46.088030219881794" lon="12.274928332169363"><ele>990.3333333333333</ele><time>2026-03-29T11:01:32.001Z</time></trkpt><trkpt lat="46.08794317222881" lon="12.274886517872574"><ele>993.6666666666666</ele><time>2026-03-29T11:01:33.001Z</time></trkpt><trkpt lat="46.08787231523785" lon="12.27486772755931"><ele>997.0</ele><time>2026-03-29T11:01:34.001Z</time></trkpt><trkpt lat="46.08780409550557" lon="12.274875322261174"><ele>996.9999999999999</ele><time>2026-03-29T11:01:35.001Z</time></trkpt><trkpt lat="46.08773932470133" lon="12.274894063753356"><ele>997.0</ele><time>2026-03-29T11:01:36.001Z</time></trkpt><trkpt lat="46.08765170609839" lon="12.27483720366752"><ele>997.0</ele><time>2026-03-29T11:01:38.001Z</time></trkpt><trkpt lat="46.087682756224424" lon="12.274671847907305"><ele>997.0</ele><time>2026-03-29T11:01:40.001Z</time></trkpt><trkpt lat="46.0877242708735" lon="12.274591256508934"><ele>996.9999999999999</ele><time>2026-03-29T11:01:41.001Z</time></trkpt><trkpt lat="46.08774888407154" lon="12.274504016202977"><ele>997.0</ele><time>2026-03-29T11:01:42.001Z</time></trkpt><trkpt lat="46.08774194829195" lon="12.274403631395597"><ele>996.4999999999999</ele><time>2026-03-29T11:01:43.001Z</time></trkpt><trkpt lat="46.08771223598163" lon="12.274291641854518"><ele>996.0</ele><time>2026-03-29T11:01:44.001Z</time></trkpt><trkpt lat="46.08767191794488" lon="12.274172420983687"><ele>995.5</ele><time>2026-03-29T11:01:45.001Z</time></trkpt><trkpt lat="46.08761960579348" lon="12.274061477899872"><ele>995.0</ele><time>2026-03-29T11:01:46.001Z</time></trkpt><trkpt lat="46.087558996499865" lon="12.273978509799493"><ele>994.4999999999999</ele><time>2026-03-29T11:01:47.001Z</time></trkpt><trkpt lat="46.0874893984013" lon="12.273942115873497"><ele>994.0</ele><time>2026-03-29T11:01:48Z</time></trkpt><trkpt lat="46.08741368230372" lon="12.273948825668201"><ele>995.8000000000001</ele><time>2026-03-29T11:01:49Z</time></trkpt><trkpt lat="46.087334132183386" lon="12.273995945267682"><ele>997.6000000000001</ele><time>2026-03-29T11:01:50Z</time></trkpt><trkpt lat="46.08724696334918" lon="12.274027134000601"><ele>999.4</ele><time>2026-03-29T11:01:51Z</time></trkpt><trkpt lat="46.0871473610345" lon="12.274029002097535"><ele>1001.2</ele><time>2026-03-29T11:01:52Z</time></trkpt><trkpt lat="46.0870428809647" lon="12.273991325389865"><ele>1003.0</ele><time>2026-03-29T11:01:53Z</time></trkpt><trkpt lat="46.086950969037254" lon="12.273921602081897"><ele>1002.9999999999999</ele><time>2026-03-29T11:01:54Z</time></trkpt><trkpt lat="46.08688097906431" lon="12.273871610448827"><ele>1003.0</ele><time>2026-03-29T11:01:55Z</time></trkpt><trkpt lat="46.086763854210815" lon="12.273938515224726"><ele>1003.0</ele><time>2026-03-29T11:01:57Z</time></trkpt><trkpt lat="46.086714079745526" lon="12.274010573370076"><ele>1003.0</ele><time>2026-03-29T11:01:58Z</time></trkpt><trkpt lat="46.086667730283445" lon="12.274092785487266"><ele>1002.9999999999999</ele><time>2026-03-29T11:01:59Z</time></trkpt><trkpt lat="46.08663585951841" lon="12.274193412018008"><ele>1003.0</ele><time>2026-03-29T11:02:00Z</time></trkpt><trkpt lat="46.08663571554811" lon="12.274316253826282"><ele>1002.9999999999999</ele><time>2026-03-29T11:02:01Z</time></trkpt><trkpt lat="46.08665043982773" lon="12.274444674546261"><ele>1003.0</ele><time>2026-03-29T11:02:02Z</time></trkpt><trkpt lat="46.08667205207801" lon="12.274571676941873"><ele>1003.0</ele><time>2026-03-29T11:02:03Z</time></trkpt><trkpt lat="46.08668651521905" lon="12.274705432146707"><ele>1003.0</ele><time>2026-03-29T11:02:04Z</time></trkpt><trkpt lat="46.086692866808164" lon="12.274831413906178"><ele>1002.9999999999999</ele><time>2026-03-29T11:02:05Z</time></trkpt><trkpt lat="46.08669251603626" lon="12.274942104590027"><ele>1003.0</ele><time>2026-03-29T11:02:06Z</time></trkpt><trkpt lat="46.08668061698736" lon="12.275044952535168"><ele>1003.6666666666666</ele><time>2026-03-29T11:02:07Z</time></trkpt><trkpt lat="46.08665383852137" lon="12.27513947393943"><ele>1004.3333333333333</ele><time>2026-03-29T11:02:08Z</time></trkpt><trkpt lat="46.086628402380434" lon="12.275244763368768"><ele>1005.0</ele><time>2026-03-29T11:02:09Z</time></trkpt><trkpt lat="46.086622199985506" lon="12.275362464225752"><ele>1005.6666666666667</ele><time>2026-03-29T11:02:10Z</time></trkpt><trkpt lat="46.08663637455954" lon="12.275475069937242"><ele>1006.3333333333334</ele><time>2026-03-29T11:02:11Z</time></trkpt><trkpt lat="46.08666477641001" lon="12.27558044720419"><ele>1007.0</ele><time>2026-03-29T11:02:12Z</time></trkpt><trkpt lat="46.086696972142136" lon="12.275679040722215"><ele>1007.5000000000001</ele><time>2026-03-29T11:02:13Z</time></trkpt><trkpt lat="46.086725296263594" lon="12.275770183819818"><ele>1008.0</ele><time>2026-03-29T11:02:14Z</time></trkpt><trkpt lat="46.0867975797581" lon="12.275904742509011"><ele>1008.5</ele><time>2026-03-29T11:02:16Z</time></trkpt><trkpt lat="46.08686139844531" lon="12.275943962058825"><ele>1009.0</ele><time>2026-03-29T11:02:17Z</time></trkpt><trkpt lat="46.08693343072724" lon="12.275962965507045"><ele>1009.5000000000001</ele><time>2026-03-29T11:02:18Z</time></trkpt><trkpt lat="46.08699601907929" lon="12.27598589028627"><ele>1010.0</ele><time>2026-03-29T11:02:19Z</time></trkpt><trkpt lat="46.0870511400345" lon="12.27603043906449"><ele>1010.0000000000001</ele><time>2026-03-29T11:02:20Z</time></trkpt><trkpt lat="46.087103360298045" lon="12.276086251999416"><ele>1010.0</ele><time>2026-03-29T11:02:21Z</time></trkpt><trkpt lat="46.08715728174959" lon="12.276145674737139"><ele>1010.0</ele><time>2026-03-29T11:02:22Z</time></trkpt><trkpt lat="46.08721789468902" lon="12.276209479720153"><ele>1010.0</ele><time>2026-03-29T11:02:23Z</time></trkpt><trkpt lat="46.08728263982836" lon="12.276284081874964"><ele>1010.0000000000001</ele><time>2026-03-29T11:02:24Z</time></trkpt><trkpt lat="46.08734621446021" lon="12.276374640819153"><ele>1010.0</ele><time>2026-03-29T11:02:25Z</time></trkpt><trkpt lat="46.08740525860225" lon="12.276480030902722"><ele>1010.3333333333334</ele><time>2026-03-29T11:02:26Z</time></trkpt><trkpt lat="46.08745620992459" lon="12.276598884190237"><ele>1010.6666666666667</ele><time>2026-03-29T11:02:27Z</time></trkpt><trkpt lat="46.08750216218844" lon="12.276713173884461"><ele>1011.0</ele><time>2026-03-29T11:02:28Z</time></trkpt><trkpt lat="46.08753825463726" lon="12.276811164536836"><ele>1011.3333333333333</ele><time>2026-03-29T11:02:29Z</time></trkpt><trkpt lat="46.087573166666104" lon="12.276889023581646"><ele>1011.6666666666666</ele><time>2026-03-29T11:02:30Z</time></trkpt><trkpt lat="46.087621145591605" lon="12.276961197009866"><ele>1012.0</ele><time>2026-03-29T11:02:31Z</time></trkpt><trkpt lat="46.087685026139944" lon="12.27703739649296"><ele>1011.9999999999999</ele><time>2026-03-29T11:02:32Z</time></trkpt><trkpt lat="46.08775415030841" lon="12.277120782721349"><ele>1012.0</ele><time>2026-03-29T11:02:33Z</time></trkpt><trkpt lat="46.08782202171413" lon="12.277213494254779"><ele>1012.0</ele><time>2026-03-29T11:02:34Z</time></trkpt><trkpt lat="46.08788158738103" lon="12.277304970416532"><ele>1012.0</ele><time>2026-03-29T11:02:35Z</time></trkpt><trkpt lat="46.08794305715282" lon="12.277384987043934"><ele>1011.9999999999999</ele><time>2026-03-29T11:02:36Z</time></trkpt><trkpt lat="46.0880010707477" lon="12.277446759122833"><ele>1012.0</ele><time>2026-03-29T11:02:37Z</time></trkpt><trkpt lat="46.08806663489" lon="12.277474480355433"><ele>1011.4999999999999</ele><time>2026-03-29T11:02:38Z</time></trkpt><trkpt lat="46.08812920915577" lon="12.277494339190788"><ele>1011.0</ele><time>2026-03-29T11:02:39Z</time></trkpt><trkpt lat="46.08820034810888" lon="12.277491629836005"><ele>1010.5</ele><time>2026-03-29T11:02:40Z</time></trkpt><trkpt lat="46.08826479746604" lon="12.277461808423881"><ele>1010.0</ele><time>2026-03-29T11:02:41Z</time></trkpt><trkpt lat="46.088324799628005" lon="12.27739623978515"><ele>1009.4999999999999</ele><time>2026-03-29T11:02:42Z</time></trkpt><trkpt lat="46.088375599817354" lon="12.277306674119508"><ele>1009.0</ele><time>2026-03-29T11:02:43Z</time></trkpt><trkpt lat="46.08841864816012" lon="12.27718896468424"><ele>1009.0</ele><time>2026-03-29T11:02:44Z</time></trkpt><trkpt lat="46.0884597786464" lon="12.277056811270702"><ele>1009.0000000000001</ele><time>2026-03-29T11:02:45Z</time></trkpt><trkpt lat="46.088499789773806" lon="12.276925797000404"><ele>1009.0000000000001</ele><time>2026-03-29T11:02:46Z</time></trkpt><trkpt lat="46.08853741290148" lon="12.276797613391178"><ele>1009.0</ele><time>2026-03-29T11:02:47Z</time></trkpt><trkpt lat="46.0885801246414" lon="12.276676985052402"><ele>1009.0</ele><time>2026-03-29T11:02:48Z</time></trkpt><trkpt lat="46.08863474763942" lon="12.276582056334798"><ele>1009.0</ele><time>2026-03-29T11:02:49Z</time></trkpt><trkpt lat="46.08870244135157" lon="12.276492810949195"><ele>1009.0000000000001</ele><time>2026-03-29T11:02:50Z</time></trkpt><trkpt lat="46.08878268151518" lon="12.276414083596295"><ele>1009.0000000000001</ele><time>2026-03-29T11:02:51Z</time></trkpt><trkpt lat="46.08887843219129" lon="12.276345066799738"><ele>1009.0</ele><time>2026-03-29T11:02:52Z</time></trkpt><trkpt lat="46.08898654063292" lon="12.276281004917696"><ele>1009.0</ele><time>2026-03-29T11:02:53Z</time></trkpt><trkpt lat="46.08909747795602" lon="12.276221268524491"><ele>1009.25</ele><time>2026-03-29T11:02:54Z</time></trkpt><trkpt lat="46.08921278106951" lon="12.276169151858696"><ele>1009.5</ele><time>2026-03-29T11:02:55Z</time></trkpt><trkpt lat="46.08932677907371" lon="12.276117961426085"><ele>1009.75</ele><time>2026-03-29T11:02:56Z</time></trkpt><trkpt lat="46.08943895927545" lon="12.276070614445977"><ele>1010.0</ele><time>2026-03-29T11:02:57Z</time></trkpt><trkpt lat="46.089543509624285" lon="12.276036388607995"><ele>1010.0000000000001</ele><time>2026-03-29T11:02:58Z</time></trkpt><trkpt lat="46.08963668766429" lon="12.276015107823564"><ele>1010.0</ele><time>2026-03-29T11:02:59Z</time></trkpt><trkpt lat="46.08971451901639" lon="12.276013834318316"><ele>1010.0</ele><time>2026-03-29T11:03:00Z</time></trkpt><trkpt lat="46.089787328810985" lon="12.276026472302524"><ele>1010.0</ele><time>2026-03-29T11:03:01Z</time></trkpt><trkpt lat="46.089870130728826" lon="12.276059767798365"><ele>1010.0000000000001</ele><time>2026-03-29T11:03:02Z</time></trkpt><trkpt lat="46.08996152685838" lon="12.27611321033589"><ele>1010.0</ele><time>2026-03-29T11:03:03.001Z</time></trkpt><trkpt lat="46.0900592467736" lon="12.276177806589173"><ele>1012.75</ele><time>2026-03-29T11:03:04.001Z</time></trkpt><trkpt lat="46.09016357415339" lon="12.276246141026293"><ele>1015.5</ele><time>2026-03-29T11:03:05.001Z</time></trkpt><trkpt lat="46.090274831000244" lon="12.276308220175146"><ele>1018.25</ele><time>2026-03-29T11:03:06.001Z</time></trkpt><trkpt lat="46.090387135316895" lon="12.276373145925255"><ele>1021.0</ele><time>2026-03-29T11:03:07.001Z</time></trkpt><trkpt lat="46.09050136183894" lon="12.276445674766487"><ele>1022.1999999999999</ele><time>2026-03-29T11:03:08.001Z</time></trkpt><trkpt lat="46.090606686286144" lon="12.276512739551217"><ele>1023.3999999999999</ele><time>2026-03-29T11:03:09.001Z</time></trkpt><trkpt lat="46.09070451298821" lon="12.276577546909634"><ele>1024.6</ele><time>2026-03-29T11:03:10.001Z</time></trkpt><trkpt lat="46.090797774241" lon="12.276641928334616"><ele>1025.8</ele><time>2026-03-29T11:03:11.001Z</time></trkpt><trkpt lat="46.09088487428265" lon="12.276706021371405"><ele>1027.0</ele><time>2026-03-29T11:03:12.001Z</time></trkpt><trkpt lat="46.09096320409833" lon="12.276761554336137"><ele>1027.0</ele><time>2026-03-29T11:03:13.001Z</time></trkpt><trkpt lat="46.091034042084154" lon="12.276813139091336"><ele>1027.0</ele><time>2026-03-29T11:03:14.001Z</time></trkpt><trkpt lat="46.091102303374385" lon="12.276872397650095"><ele>1027.0</ele><time>2026-03-29T11:03:15.001Z</time></trkpt><trkpt lat="46.091181762331985" lon="12.276933899742309"><ele>1027.0</ele><time>2026-03-29T11:03:16.001Z</time></trkpt><trkpt lat="46.09126684826874" lon="12.27698903574301"><ele>1027.0</ele><time>2026-03-29T11:03:17.001Z</time></trkpt><trkpt lat="46.09135325143823" lon="12.277049201455444"><ele>1027.0</ele><time>2026-03-29T11:03:18.001Z</time></trkpt><trkpt lat="46.09144296828528" lon="12.277107246757373"><ele>1027.0</ele><time>2026-03-29T11:03:19.001Z</time></trkpt><trkpt lat="46.09153578460138" lon="12.277162189150364"><ele>1027.0</ele><time>2026-03-29T11:03:20.001Z</time></trkpt><trkpt lat="46.09163196531856" lon="12.277215024761848"><ele>1027.0</ele><time>2026-03-29T11:03:21.001Z</time></trkpt><trkpt lat="46.09172878208818" lon="12.277261214234521"><ele>1027.0</ele><time>2026-03-29T11:03:22.001Z</time></trkpt><trkpt lat="46.09182433894335" lon="12.277294803292314"><ele>1027.0</ele><time>2026-03-29T11:03:23.001Z</time></trkpt><trkpt lat="46.0919224570423" lon="12.27730104559333"><ele>1028.0</ele><time>2026-03-29T11:03:24.001Z</time></trkpt><trkpt lat="46.09202633366486" lon="12.277278761617417"><ele>1029.0</ele><time>2026-03-29T11:03:25.001Z</time></trkpt><trkpt lat="46.09213767059846" lon="12.277243056636536"><ele>1030.0</ele><time>2026-03-29T11:03:26.001Z</time></trkpt><trkpt lat="46.09225841325167" lon="12.277198188362819"><ele>1031.0</ele><time>2026-03-29T11:03:27.001Z</time></trkpt><trkpt lat="46.092381049342364" lon="12.277149146974704"><ele>1031.8</ele><time>2026-03-29T11:03:28.001Z</time></trkpt><trkpt lat="46.09248528790099" lon="12.277108890899077"><ele>1032.6</ele><time>2026-03-29T11:03:29.001Z</time></trkpt><trkpt lat="46.09257757381394" lon="12.27707991356895"><ele>1033.4</ele><time>2026-03-29T11:03:30.001Z</time></trkpt><trkpt lat="46.09265165016863" lon="12.277095153973868"><ele>1034.2</ele><time>2026-03-29T11:03:31.001Z</time></trkpt><trkpt lat="46.09273228465381" lon="12.277204383195524"><ele>1035.0</ele><time>2026-03-29T11:03:33.001Z</time></trkpt><trkpt lat="46.09274482203253" lon="12.27736226342801"><ele>1035.0</ele><time>2026-03-29T11:03:35.001Z</time></trkpt><trkpt lat="46.092666138740015" lon="12.277495669432376"><ele>1035.0</ele><time>2026-03-29T11:03:37.001Z</time></trkpt><trkpt lat="46.092598502007796" lon="12.277560505659451"><ele>1035.0</ele><time>2026-03-29T11:03:38.001Z</time></trkpt><trkpt lat="46.09251016786969" lon="12.277645593344706"><ele>1035.0</ele><time>2026-03-29T11:03:39.001Z</time></trkpt><trkpt lat="46.0924208659656" lon="12.277768076954848"><ele>1035.0</ele><time>2026-03-29T11:03:40.001Z</time></trkpt><trkpt lat="46.092354893546535" lon="12.277918695850913"><ele>1034.4</ele><time>2026-03-29T11:03:41.001Z</time></trkpt><trkpt lat="46.092303714467256" lon="12.27808322788145"><ele>1033.8</ele><time>2026-03-29T11:03:42.001Z</time></trkpt><trkpt lat="46.09225470793219" lon="12.278242317426434"><ele>1033.2</ele><time>2026-03-29T11:03:43.001Z</time></trkpt><trkpt lat="46.09220642950687" lon="12.278381284704668"><ele>1032.6</ele><time>2026-03-29T11:03:44.001Z</time></trkpt><trkpt lat="46.09216799740161" lon="12.278505998758979"><ele>1032.0</ele><time>2026-03-29T11:03:45.001Z</time></trkpt><trkpt lat="46.09213872710207" lon="12.278624405711819"><ele>1033.8333333333333</ele><time>2026-03-29T11:03:46.001Z</time></trkpt><trkpt lat="46.09211178510908" lon="12.278739782795236"><ele>1035.6666666666667</ele><time>2026-03-29T11:03:47.001Z</time></trkpt><trkpt lat="46.09209471882872" lon="12.27884975841851"><ele>1037.5</ele><time>2026-03-29T11:03:48.001Z</time></trkpt><trkpt lat="46.09209085542776" lon="12.278959608846407"><ele>1039.3333333333335</ele><time>2026-03-29T11:03:49.001Z</time></trkpt><trkpt lat="46.09209430130781" lon="12.279073763408329"><ele>1041.1666666666667</ele><time>2026-03-29T11:03:50.001Z</time></trkpt><trkpt lat="46.09210603524239" lon="12.279197381769048"><ele>1043.0</ele><time>2026-03-29T11:03:51.001Z</time></trkpt><trkpt lat="46.092125852024644" lon="12.27931966234399"><ele>1043.8333333333335</ele><time>2026-03-29T11:03:52.001Z</time></trkpt><trkpt lat="46.09215399623962" lon="12.279437316407284"><ele>1044.6666666666667</ele><time>2026-03-29T11:03:53.001Z</time></trkpt><trkpt lat="46.09218526360128" lon="12.27954482134784"><ele>1045.5</ele><time>2026-03-29T11:03:53.999Z</time></trkpt><trkpt lat="46.092217129399025" lon="12.279634668873785"><ele>1046.3333333333333</ele><time>2026-03-29T11:03:54.999Z</time></trkpt><trkpt lat="46.092268896545626" lon="12.279788190953996"><ele>1047.1666666666665</ele><time>2026-03-29T11:03:56.999Z</time></trkpt><trkpt lat="46.092293745830624" lon="12.279872274136096"><ele>1048.0</ele><time>2026-03-29T11:03:57.999Z</time></trkpt><trkpt lat="46.09232309694532" lon="12.279959197264972"><ele>1048.2857142857142</ele><time>2026-03-29T11:03:59Z</time></trkpt><trkpt lat="46.09235109994955" lon="12.280050693723915"><ele>1048.5714285714287</ele><time>2026-03-29T11:04:00Z</time></trkpt><trkpt lat="46.092381528461615" lon="12.280145388186078"><ele>1048.857142857143</ele><time>2026-03-29T11:04:01Z</time></trkpt><trkpt lat="46.09240983787506" lon="12.280242303749876"><ele>1049.142857142857</ele><time>2026-03-29T11:04:02Z</time></trkpt><trkpt lat="46.09243693960392" lon="12.280334907345638"><ele>1049.4285714285716</ele><time>2026-03-29T11:04:03Z</time></trkpt><trkpt lat="46.0924648096973" lon="12.280423232050701"><ele>1049.7142857142858</ele><time>2026-03-29T11:04:04Z</time></trkpt><trkpt lat="46.0924900412757" lon="12.280516388876618"><ele>1050.0</ele><time>2026-03-29T11:04:05Z</time></trkpt><trkpt lat="46.09251340940061" lon="12.280614754939247"><ele>1050.0</ele><time>2026-03-29T11:04:06Z</time></trkpt><trkpt lat="46.09253674879629" lon="12.28071546389686"><ele>1050.0</ele><time>2026-03-29T11:04:07Z</time></trkpt><trkpt lat="46.09256052210062" lon="12.280816254462621"><ele>1050.0</ele><time>2026-03-29T11:04:08Z</time></trkpt><trkpt lat="46.09257943801273" lon="12.280905955648732"><ele>1050.0</ele><time>2026-03-29T11:04:09Z</time></trkpt><trkpt lat="46.09261156675864" lon="12.281053360591608"><ele>1050.0</ele><time>2026-03-29T11:04:11Z</time></trkpt><trkpt lat="46.092624412290704" lon="12.281170744360304"><ele>1050.0</ele><time>2026-03-29T11:04:13Z</time></trkpt><trkpt lat="46.09258059354627" lon="12.281267655771021"><ele>1050.0</ele><time>2026-03-29T11:04:16Z</time></trkpt><trkpt lat="46.09252391002619" lon="12.28131024540539"><ele>1050.0</ele><time>2026-03-29T11:04:20Z</time></trkpt><trkpt lat="46.09253107426686" lon="12.281423934265545"><ele>1050.0</ele><time>2026-03-29T11:04:33Z</time></trkpt><trkpt lat="46.092637695301306" lon="12.281403767118265"><ele>1050.0</ele><time>2026-03-29T11:04:36Z</time></trkpt><trkpt lat="46.09268554745925" lon="12.281276185329133"><ele>1050.0</ele><time>2026-03-29T11:04:43Z</time></trkpt><trkpt lat="46.09267180853638" lon="12.28111938058011"><ele>1050.0</ele><time>2026-03-29T11:04:45Z</time></trkpt><trkpt lat="46.09263640692523" lon="12.280976849897026"><ele>1050.0</ele><time>2026-03-29T11:04:47Z</time></trkpt><trkpt lat="46.092596914731885" lon="12.28081999216073"><ele>1050.0</ele><time>2026-03-29T11:04:49Z</time></trkpt><trkpt lat="46.09257659769457" lon="12.280731028883464"><ele>1050.0</ele><time>2026-03-29T11:04:50Z</time></trkpt><trkpt lat="46.092550079262324" lon="12.280624771069027"><ele>1050.0</ele><time>2026-03-29T11:04:51Z</time></trkpt><trkpt lat="46.09252525862856" lon="12.280507506333716"><ele>1050.0</ele><time>2026-03-29T11:04:52Z</time></trkpt><trkpt lat="46.09249514078956" lon="12.280385381751836"><ele>1050.0</ele><time>2026-03-29T11:04:53Z</time></trkpt><trkpt lat="46.092456859129626" lon="12.28025855484861"><ele>1050.0</ele><time>2026-03-29T11:04:54Z</time></trkpt><trkpt lat="46.09241566544799" lon="12.280133611021775"><ele>1050.0</ele><time>2026-03-29T11:04:55Z</time></trkpt><trkpt lat="46.0923701878001" lon="12.280019989833423"><ele>1050.0</ele><time>2026-03-29T11:04:56Z</time></trkpt><trkpt lat="46.09232863666975" lon="12.279907650823667"><ele>1050.0</ele><time>2026-03-29T11:04:57Z</time></trkpt><trkpt lat="46.092291790068266" lon="12.279799143704288"><ele>1049.7142857142858</ele><time>2026-03-29T11:04:58Z</time></trkpt><trkpt lat="46.09225856345017" lon="12.279694589479956"><ele>1049.4285714285716</ele><time>2026-03-29T11:04:59Z</time></trkpt><trkpt lat="46.092225391082124" lon="12.27959729338386"><ele>1049.142857142857</ele><time>2026-03-29T11:05:00Z</time></trkpt><trkpt lat="46.09219123095695" lon="12.279500485958277"><ele>1048.857142857143</ele><time>2026-03-29T11:05:01Z</time></trkpt><trkpt lat="46.0921610956879" lon="12.279402862889356"><ele>1048.5714285714287</ele><time>2026-03-29T11:05:02Z</time></trkpt><trkpt lat="46.09214086989419" lon="12.279304523508712"><ele>1048.2857142857142</ele><time>2026-03-29T11:05:03Z</time></trkpt><trkpt lat="46.092130581822104" lon="12.27920586191627"><ele>1048.0</ele><time>2026-03-29T11:05:04.001Z</time></trkpt><trkpt lat="46.09212748909039" lon="12.279107318095743"><ele>1048.0</ele><time>2026-03-29T11:05:05.001Z</time></trkpt><trkpt lat="46.09212247959761" lon="12.279003280456788"><ele>1048.0</ele><time>2026-03-29T11:05:06.001Z</time></trkpt><trkpt lat="46.09212429791301" lon="12.278889632497426"><ele>1048.0</ele><time>2026-03-29T11:05:07.001Z</time></trkpt><trkpt lat="46.092130985411075" lon="12.278771351751672"><ele>1048.0</ele><time>2026-03-29T11:05:08.001Z</time></trkpt><trkpt lat="46.09215804455171" lon="12.27865291472409"><ele>1048.0</ele><time>2026-03-29T11:05:09.001Z</time></trkpt><trkpt lat="46.09219215092686" lon="12.278537163616503"><ele>1048.0</ele><time>2026-03-29T11:05:10.001Z</time></trkpt><trkpt lat="46.09223086010308" lon="12.278421328557224"><ele>1047.0</ele><time>2026-03-29T11:05:11.001Z</time></trkpt><trkpt lat="46.092269962405446" lon="12.278299259240278"><ele>1046.0</ele><time>2026-03-29T11:05:12.001Z</time></trkpt><trkpt lat="46.09231269886181" lon="12.278168587566208"><ele>1045.0</ele><time>2026-03-29T11:05:13.001Z</time></trkpt><trkpt lat="46.092354297813515" lon="12.278035391872542"><ele>1044.0</ele><time>2026-03-29T11:05:14.001Z</time></trkpt><trkpt lat="46.092399081229594" lon="12.277903575471452"><ele>1043.0</ele><time>2026-03-29T11:05:15.001Z</time></trkpt><trkpt lat="46.09245271107381" lon="12.277785073636704"><ele>1041.4</ele><time>2026-03-29T11:05:16.001Z</time></trkpt><trkpt lat="46.09251410969333" lon="12.27768181941131"><ele>1039.8</ele><time>2026-03-29T11:05:17.001Z</time></trkpt><trkpt lat="46.09258508621885" lon="12.277607473020293"><ele>1038.2</ele><time>2026-03-29T11:05:18.001Z</time></trkpt><trkpt lat="46.092662204258446" lon="12.277551166210513"><ele>1036.6</ele><time>2026-03-29T11:05:19.001Z</time></trkpt><trkpt lat="46.09274835564073" lon="12.277523739647618"><ele>1035.0</ele><time>2026-03-29T11:05:20.001Z</time></trkpt><trkpt lat="46.09284552409018" lon="12.27750770421702"><ele>1035.0</ele><time>2026-03-29T11:05:21.001Z</time></trkpt><trkpt lat="46.09295163997602" lon="12.277504171485093"><ele>1035.0</ele><time>2026-03-29T11:05:22.001Z</time></trkpt><trkpt lat="46.093063704023315" lon="12.277515667063021"><ele>1035.0</ele><time>2026-03-29T11:05:23.001Z</time></trkpt><trkpt lat="46.09316635608917" lon="12.277530747243643"><ele>1035.0</ele><time>2026-03-29T11:05:24.001Z</time></trkpt><trkpt lat="46.09326120265483" lon="12.277543946909471"><ele>1035.0</ele><time>2026-03-29T11:05:25.001Z</time></trkpt><trkpt lat="46.093353596582574" lon="12.277573876855136"><ele>1035.2857142857142</ele><time>2026-03-29T11:05:26.001Z</time></trkpt><trkpt lat="46.093435460220554" lon="12.277620798647833"><ele>1035.5714285714287</ele><time>2026-03-29T11:05:27.001Z</time></trkpt><trkpt lat="46.09350798667054" lon="12.27766427951474"><ele>1035.857142857143</ele><time>2026-03-29T11:05:28.001Z</time></trkpt><trkpt lat="46.09357599919046" lon="12.277704006357538"><ele>1036.142857142857</ele><time>2026-03-29T11:05:29.001Z</time></trkpt><trkpt lat="46.09364489600879" lon="12.27773257440716"><ele>1036.4285714285713</ele><time>2026-03-29T11:05:30.001Z</time></trkpt><trkpt lat="46.09371442342668" lon="12.277745447397349"><ele>1036.7142857142858</ele><time>2026-03-29T11:05:31.001Z</time></trkpt><trkpt lat="46.093778135191236" lon="12.27773037136874"><ele>1037.0</ele><time>2026-03-29T11:05:32.001Z</time></trkpt><trkpt lat="46.093879020909135" lon="12.277611168141856"><ele>1037.0</ele><time>2026-03-29T11:05:34.001Z</time></trkpt><trkpt lat="46.09390507935937" lon="12.277500153714179"><ele>1037.0</ele><time>2026-03-29T11:05:35.001Z</time></trkpt><trkpt lat="46.09392394327581" lon="12.277386329022793"><ele>1037.0</ele><time>2026-03-29T11:05:36.001Z</time></trkpt><trkpt lat="46.09394356341748" lon="12.277271055934227"><ele>1037.0</ele><time>2026-03-29T11:05:37.001Z</time></trkpt><trkpt lat="46.09397390641058" lon="12.277173118806116"><ele>1037.0</ele><time>2026-03-29T11:05:38.001Z</time></trkpt><trkpt lat="46.09401287056906" lon="12.27708197385406"><ele>1037.0</ele><time>2026-03-29T11:05:39.001Z</time></trkpt><trkpt lat="46.09405858541042" lon="12.276996192011277"><ele>1035.2</ele><time>2026-03-29T11:05:40.001Z</time></trkpt><trkpt lat="46.09412035936049" lon="12.276909397485438"><ele>1033.4</ele><time>2026-03-29T11:05:41.001Z</time></trkpt><trkpt lat="46.09419851810383" lon="12.27683855710879"><ele>1031.6</ele><time>2026-03-29T11:05:42.001Z</time></trkpt><trkpt lat="46.09428148637171" lon="12.276776960555027"><ele>1029.8</ele><time>2026-03-29T11:05:43.001Z</time></trkpt><trkpt lat="46.09437289256271" lon="12.276722151745181"><ele>1028.0</ele><time>2026-03-29T11:05:44.001Z</time></trkpt><trkpt lat="46.09445961263918" lon="12.276668235323127"><ele>1028.0</ele><time>2026-03-29T11:05:45.001Z</time></trkpt><trkpt lat="46.094542751014345" lon="12.276625934254753"><ele>1028.0</ele><time>2026-03-29T11:05:46.001Z</time></trkpt><trkpt lat="46.09462471713425" lon="12.276585930317989"><ele>1028.0</ele><time>2026-03-29T11:05:47.001Z</time></trkpt><trkpt lat="46.094708022141745" lon="12.276543739538967"><ele>1028.0</ele><time>2026-03-29T11:05:48.001Z</time></trkpt><trkpt lat="46.094798464655995" lon="12.276498191347388"><ele>1028.0</ele><time>2026-03-29T11:05:49.001Z</time></trkpt><trkpt lat="46.094890329026526" lon="12.27643762395979"><ele>1028.0</ele><time>2026-03-29T11:05:50.001Z</time></trkpt><trkpt lat="46.09498827105609" lon="12.276375237946395"><ele>1028.0</ele><time>2026-03-29T11:05:51.001Z</time></trkpt><trkpt lat="46.0950840915511" lon="12.27630270010067"><ele>1028.0</ele><time>2026-03-29T11:05:52.001Z</time></trkpt><trkpt lat="46.09517761178997" lon="12.276222938602638"><ele>1028.0</ele><time>2026-03-29T11:05:53.001Z</time></trkpt><trkpt lat="46.09527543258836" lon="12.276136681954409"><ele>1028.0</ele><time>2026-03-29T11:05:54.001Z</time></trkpt><trkpt lat="46.09537896024971" lon="12.276051039673144"><ele>1028.0</ele><time>2026-03-29T11:05:55.001Z</time></trkpt><trkpt lat="46.09548724885085" lon="12.275966137495848"><ele>1028.0</ele><time>2026-03-29T11:05:56.001Z</time></trkpt><trkpt lat="46.09559924361817" lon="12.27587651643367"><ele>1028.0</ele><time>2026-03-29T11:05:57.001Z</time></trkpt><trkpt lat="46.09571451119013" lon="12.27578541943667"><ele>1028.0</ele><time>2026-03-29T11:05:58.001Z</time></trkpt><trkpt lat="46.09583229772612" lon="12.275691307583564"><ele>1026.0</ele><time>2026-03-29T11:05:59.001Z</time></trkpt><trkpt lat="46.09595051453494" lon="12.275597785722672"><ele>1024.0</ele><time>2026-03-29T11:05:59.999Z</time></trkpt><trkpt lat="46.09606056047242" lon="12.275509002002362"><ele>1022.0</ele><time>2026-03-29T11:06:00.999Z</time></trkpt><trkpt lat="46.096162667280595" lon="12.275426470459049"><ele>1020.0</ele><time>2026-03-29T11:06:01.999Z</time></trkpt><trkpt lat="46.096260825791674" lon="12.275349981146366"><ele>1020.0</ele><time>2026-03-29T11:06:02.999Z</time></trkpt><trkpt lat="46.096352034555004" lon="12.275280408922107"><ele>1020.0</ele><time>2026-03-29T11:06:03.999Z</time></trkpt><trkpt lat="46.096436183634786" lon="12.275210580241886"><ele>1020.0</ele><time>2026-03-29T11:06:04.999Z</time></trkpt><trkpt lat="46.09651649610494" lon="12.275143696997528"><ele>1020.0</ele><time>2026-03-29T11:06:05.999Z</time></trkpt><trkpt lat="46.09659913905478" lon="12.275079762022548"><ele>1020.0</ele><time>2026-03-29T11:06:06.999Z</time></trkpt><trkpt lat="46.096693252180806" lon="12.275026071786124"><ele>1018.2</ele><time>2026-03-29T11:06:07.999Z</time></trkpt><trkpt lat="46.09679315431353" lon="12.274990689338816"><ele>1016.4</ele><time>2026-03-29T11:06:08.999Z</time></trkpt><trkpt lat="46.096895603779814" lon="12.274972377807117"><ele>1014.5999999999999</ele><time>2026-03-29T11:06:09.999Z</time></trkpt><trkpt lat="46.09699826299152" lon="12.274967149147203"><ele>1012.8</ele><time>2026-03-29T11:06:10.999Z</time></trkpt><trkpt lat="46.09710522817902" lon="12.274965175146663"><ele>1011.0</ele><time>2026-03-29T11:06:11.999Z</time></trkpt><trkpt lat="46.09721628153315" lon="12.274961893390671"><ele>1011.0</ele><time>2026-03-29T11:06:12.999Z</time></trkpt><trkpt lat="46.09732617180311" lon="12.274955971289495"><ele>1011.0</ele><time>2026-03-29T11:06:13.999Z</time></trkpt><trkpt lat="46.09743962100419" lon="12.2749522079474"><ele>1011.0</ele><time>2026-03-29T11:06:15Z</time></trkpt><trkpt lat="46.09755811433923" lon="12.27494924318694"><ele>1011.0</ele><time>2026-03-29T11:06:16Z</time></trkpt><trkpt lat="46.09767837985416" lon="12.274946153989475"><ele>1011.0</ele><time>2026-03-29T11:06:17Z</time></trkpt><trkpt lat="46.097799715988714" lon="12.274939427699993"><ele>1011.0</ele><time>2026-03-29T11:06:18Z</time></trkpt><trkpt lat="46.09791966538828" lon="12.27493062049596"><ele>1011.0</ele><time>2026-03-29T11:06:19Z</time></trkpt><trkpt lat="46.09804027705475" lon="12.274918192425591"><ele>1011.0</ele><time>2026-03-29T11:06:20Z</time></trkpt><trkpt lat="46.098159703586305" lon="12.274904006726388"><ele>1011.5</ele><time>2026-03-29T11:06:21Z</time></trkpt><trkpt lat="46.09827635821688" lon="12.274878666673258"><ele>1012.0</ele><time>2026-03-29T11:06:22Z</time></trkpt><trkpt lat="46.09839586018254" lon="12.274845181144986"><ele>1012.5</ele><time>2026-03-29T11:06:23Z</time></trkpt><trkpt lat="46.09851897635928" lon="12.274815253524004"><ele>1013.0</ele><time>2026-03-29T11:06:24Z</time></trkpt><trkpt lat="46.0986510302087" lon="12.274792483293115"><ele>1013.0</ele><time>2026-03-29T11:06:25Z</time></trkpt><trkpt lat="46.09878240706978" lon="12.274767521156319"><ele>1013.0</ele><time>2026-03-29T11:06:26Z</time></trkpt><trkpt lat="46.098911010369086" lon="12.274726440728934"><ele>1013.0</ele><time>2026-03-29T11:06:27Z</time></trkpt><trkpt lat="46.09904087740725" lon="12.274678169418744"><ele>1013.0</ele><time>2026-03-29T11:06:28Z</time></trkpt><trkpt lat="46.099169544889975" lon="12.274619654990067"><ele>1013.0</ele><time>2026-03-29T11:06:29Z</time></trkpt><trkpt lat="46.09929713241299" lon="12.274553110060443"><ele>1013.0</ele><time>2026-03-29T11:06:30Z</time></trkpt><trkpt lat="46.0994132138017" lon="12.2744750614199"><ele>1013.0</ele><time>2026-03-29T11:06:31Z</time></trkpt><trkpt lat="46.09952355467414" lon="12.274389648482037"><ele>1013.0</ele><time>2026-03-29T11:06:32Z</time></trkpt><trkpt lat="46.09963993907447" lon="12.274298879002176"><ele>1013.0</ele><time>2026-03-29T11:06:33Z</time></trkpt><trkpt lat="46.09976162474604" lon="12.274208514442375"><ele>1013.0</ele><time>2026-03-29T11:06:34Z</time></trkpt><trkpt lat="46.09987716559759" lon="12.274120732495318"><ele>1013.0</ele><time>2026-03-29T11:06:35Z</time></trkpt><trkpt lat="46.09998302976756" lon="12.274034456457594"><ele>1013.0</ele><time>2026-03-29T11:06:36Z</time></trkpt><trkpt lat="46.10009039241333" lon="12.273951738963142"><ele>1012.25</ele><time>2026-03-29T11:06:37Z</time></trkpt><trkpt lat="46.10020239120066" lon="12.273871806781653"><ele>1011.5</ele><time>2026-03-29T11:06:38Z</time></trkpt><trkpt lat="46.10031818061437" lon="12.273789960436764"><ele>1010.75</ele><time>2026-03-29T11:06:39Z</time></trkpt><trkpt lat="46.10043729299908" lon="12.273705126048688"><ele>1010.0</ele><time>2026-03-29T11:06:40Z</time></trkpt><trkpt lat="46.100560950562645" lon="12.273615351264286"><ele>1010.0</ele><time>2026-03-29T11:06:41Z</time></trkpt><trkpt lat="46.10068572911922" lon="12.273524887192874"><ele>1010.0</ele><time>2026-03-29T11:06:42Z</time></trkpt><trkpt lat="46.10081071036046" lon="12.27344005728018"><ele>1010.0</ele><time>2026-03-29T11:06:43Z</time></trkpt><trkpt lat="46.100930976564044" lon="12.273352921386468"><ele>1010.0</ele><time>2026-03-29T11:06:44Z</time></trkpt><trkpt lat="46.101048900243214" lon="12.273268337762175"><ele>1009.75</ele><time>2026-03-29T11:06:45Z</time></trkpt><trkpt lat="46.1011607678782" lon="12.27318884925106"><ele>1009.5</ele><time>2026-03-29T11:06:46Z</time></trkpt><trkpt lat="46.101268210024465" lon="12.273114176929043"><ele>1009.25</ele><time>2026-03-29T11:06:47Z</time></trkpt><trkpt lat="46.10135987388428" lon="12.27304023143967"><ele>1009.0</ele><time>2026-03-29T11:06:48Z</time></trkpt><trkpt lat="46.101444898569405" lon="12.27295715340061"><ele>1008.4000000000001</ele><time>2026-03-29T11:06:49Z</time></trkpt><trkpt lat="46.10151273427422" lon="12.272857452639993"><ele>1007.8000000000001</ele><time>2026-03-29T11:06:50Z</time></trkpt><trkpt lat="46.10157331631945" lon="12.272743539137368"><ele>1007.1999999999999</ele><time>2026-03-29T11:06:51Z</time></trkpt><trkpt lat="46.10162179669225" lon="12.272608197045141"><ele>1006.5999999999999</ele><time>2026-03-29T11:06:52Z</time></trkpt><trkpt lat="46.10166112588911" lon="12.272457785987887"><ele>1006.0</ele><time>2026-03-29T11:06:53Z</time></trkpt><trkpt lat="46.101686725347996" lon="12.272278589687014"><ele>1004.6666666666666</ele><time>2026-03-29T11:06:54Z</time></trkpt><trkpt lat="46.10171782522366" lon="12.272059480965726"><ele>1003.3333333333333</ele><time>2026-03-29T11:06:55Z</time></trkpt><trkpt lat="46.101753787664656" lon="12.271824213355131"><ele>1002.0</ele><time>2026-03-29T11:06:56Z</time></trkpt><trkpt lat="46.101795854306424" lon="12.271567021524392"><ele>1000.6666666666667</ele><time>2026-03-29T11:06:57Z</time></trkpt><trkpt lat="46.10183458309872" lon="12.271319139821015"><ele>999.3333333333334</ele><time>2026-03-29T11:06:58Z</time></trkpt><trkpt lat="46.101875103873546" lon="12.271080904290102"><ele>998.0</ele><time>2026-03-29T11:06:59Z</time></trkpt><trkpt lat="46.101914491364006" lon="12.270853644376105"><ele>998.0</ele><time>2026-03-29T11:07:00Z</time></trkpt><trkpt lat="46.10195783148292" lon="12.27063815107081"><ele>998.0</ele><time>2026-03-29T11:07:01Z</time></trkpt><trkpt lat="46.10200663635897" lon="12.270431977214024"><ele>998.0</ele><time>2026-03-29T11:07:02Z</time></trkpt><trkpt lat="46.102063339864294" lon="12.270232639169258"><ele>996.75</ele><time>2026-03-29T11:07:03Z</time></trkpt><trkpt lat="46.10213075931352" lon="12.270045466197802"><ele>995.5</ele><time>2026-03-29T11:07:04Z</time></trkpt><trkpt lat="46.10220581612737" lon="12.269875819903815"><ele>994.25</ele><time>2026-03-29T11:07:05Z</time></trkpt><trkpt lat="46.10230226221402" lon="12.269707849949857"><ele>993.0</ele><time>2026-03-29T11:07:06Z</time></trkpt><trkpt lat="46.102414169125225" lon="12.269536124977932"><ele>993.6666666666667</ele><time>2026-03-29T11:07:07Z</time></trkpt><trkpt lat="46.102534175616995" lon="12.269357244438968"><ele>994.3333333333334</ele><time>2026-03-29T11:07:08Z</time></trkpt><trkpt lat="46.10265174655719" lon="12.269185004524003"><ele>995.0</ele><time>2026-03-29T11:07:09Z</time></trkpt><trkpt lat="46.10275959289622" lon="12.269026178300466"><ele>995.25</ele><time>2026-03-29T11:07:10Z</time></trkpt><trkpt lat="46.10286099875248" lon="12.268876214752376"><ele>995.5</ele><time>2026-03-29T11:07:11Z</time></trkpt><trkpt lat="46.10295394694688" lon="12.268739879338899"><ele>995.75</ele><time>2026-03-29T11:07:12Z</time></trkpt><trkpt lat="46.103035669332876" lon="12.26861802111326"><ele>996.0</ele><time>2026-03-29T11:07:13Z</time></trkpt><trkpt lat="46.103102564626994" lon="12.268514508784413"><ele>996.0</ele><time>2026-03-29T11:07:14.001Z</time></trkpt><trkpt lat="46.1031586847031" lon="12.26842812123443"><ele>995.9999999999999</ele><time>2026-03-29T11:07:15.001Z</time></trkpt><trkpt lat="46.10321840270869" lon="12.268290323586669"><ele>995.9999999999999</ele><time>2026-03-29T11:07:17.001Z</time></trkpt><trkpt lat="46.10322740792419" lon="12.268173113263941"><ele>996.0</ele><time>2026-03-29T11:07:19.001Z</time></trkpt><trkpt lat="46.1031660850477" lon="12.26809877825258"><ele>996.0</ele><time>2026-03-29T11:07:21.001Z</time></trkpt><trkpt lat="46.1030447377529" lon="12.268164780678367"><ele>996.0</ele><time>2026-03-29T11:07:23.001Z</time></trkpt><trkpt lat="46.1029702880469" lon="12.268229679321877"><ele>996.0</ele><time>2026-03-29T11:07:24.001Z</time></trkpt><trkpt lat="46.10289856947054" lon="12.268282447121615"><ele>996.0</ele><time>2026-03-29T11:07:25.001Z</time></trkpt><trkpt lat="46.10281579059201" lon="12.26833568210947"><ele>996.0</ele><time>2026-03-29T11:07:26.001Z</time></trkpt><trkpt lat="46.10273574392155" lon="12.268378407298782"><ele>996.0</ele><time>2026-03-29T11:07:27.001Z</time></trkpt><trkpt lat="46.10266467670007" lon="12.268411752162319"><ele>996.0</ele><time>2026-03-29T11:07:28.001Z</time></trkpt><trkpt lat="46.10258551316335" lon="12.268461531226073"><ele>996.0</ele><time>2026-03-29T11:07:29.001Z</time></trkpt><trkpt lat="46.10249335226319" lon="12.268518625425706"><ele>995.9999999999999</ele><time>2026-03-29T11:07:30.001Z</time></trkpt><trkpt lat="46.102390277692756" lon="12.268573375175565"><ele>995.9999999999999</ele><time>2026-03-29T11:07:31.001Z</time></trkpt><trkpt lat="46.102286729121204" lon="12.268623606447491"><ele>996.0</ele><time>2026-03-29T11:07:32.001Z</time></trkpt><trkpt lat="46.10218900037023" lon="12.268677805380385"><ele>996.0</ele><time>2026-03-29T11:07:33.001Z</time></trkpt><trkpt lat="46.102098117391144" lon="12.268730021909226"><ele>995.4</ele><time>2026-03-29T11:07:34.001Z</time></trkpt><trkpt lat="46.102006320858834" lon="12.268779486146007"><ele>994.8</ele><time>2026-03-29T11:07:35.001Z</time></trkpt><trkpt lat="46.10191934614461" lon="12.26882480059974"><ele>994.1999999999999</ele><time>2026-03-29T11:07:36.001Z</time></trkpt><trkpt lat="46.10185058680585" lon="12.268866511842749"><ele>993.5999999999999</ele><time>2026-03-29T11:07:37.001Z</time></trkpt><trkpt lat="46.10174561904611" lon="12.268933194432774"><ele>993.0</ele><time>2026-03-29T11:07:39.001Z</time></trkpt><trkpt lat="46.1016465458668" lon="12.268983297653797"><ele>992.2</ele><time>2026-03-29T11:07:41.001Z</time></trkpt><trkpt lat="46.10154277651591" lon="12.26901297480732"><ele>991.4</ele><time>2026-03-29T11:07:43.001Z</time></trkpt><trkpt lat="46.10141611587452" lon="12.269062353310442"><ele>990.6000000000001</ele><time>2026-03-29T11:07:45.001Z</time></trkpt><trkpt lat="46.101350702609736" lon="12.269121845950401"><ele>989.8000000000001</ele><time>2026-03-29T11:07:46.001Z</time></trkpt><trkpt lat="46.101289982679695" lon="12.269208901346417"><ele>989.0</ele><time>2026-03-29T11:07:47.001Z</time></trkpt><trkpt lat="46.101229523694386" lon="12.269322924904346"><ele>989.0000000000001</ele><time>2026-03-29T11:07:48.001Z</time></trkpt><trkpt lat="46.10116820393781" lon="12.269432277634566"><ele>989.0</ele><time>2026-03-29T11:07:49.001Z</time></trkpt><trkpt lat="46.10111417433038" lon="12.269505832834167"><ele>989.0</ele><time>2026-03-29T11:07:50.001Z</time></trkpt><trkpt lat="46.10104699449567" lon="12.269568127650736"><ele>989.0</ele><time>2026-03-29T11:07:51.001Z</time></trkpt><trkpt lat="46.10097905314864" lon="12.269606267378407"><ele>989.0000000000001</ele><time>2026-03-29T11:07:52.001Z</time></trkpt><trkpt lat="46.10090173328586" lon="12.26962967654934"><ele>989.0</ele><time>2026-03-29T11:07:53.001Z</time></trkpt><trkpt lat="46.10081744772749" lon="12.269617295519962"><ele>988.1666666666667</ele><time>2026-03-29T11:07:54.001Z</time></trkpt><trkpt lat="46.100736739932806" lon="12.269623976310983"><ele>987.3333333333334</ele><time>2026-03-29T11:07:55.001Z</time></trkpt><trkpt lat="46.10065773521784" lon="12.269645306807847"><ele>986.5</ele><time>2026-03-29T11:07:56.001Z</time></trkpt><trkpt lat="46.10058057470341" lon="12.26966573561068"><ele>985.6666666666667</ele><time>2026-03-29T11:07:57.001Z</time></trkpt><trkpt lat="46.10050740412644" lon="12.269686515357034"><ele>984.8333333333334</ele><time>2026-03-29T11:07:58.001Z</time></trkpt><trkpt lat="46.100435766763496" lon="12.269719178739749"><ele>984.0</ele><time>2026-03-29T11:07:59.001Z</time></trkpt><trkpt lat="46.10037222401871" lon="12.269759475765303"><ele>984.8333333333334</ele><time>2026-03-29T11:08:00.001Z</time></trkpt><trkpt lat="46.100316364455274" lon="12.269805783980082"><ele>985.6666666666667</ele><time>2026-03-29T11:08:01.001Z</time></trkpt><trkpt lat="46.10025601719017" lon="12.269863786623382"><ele>986.5</ele><time>2026-03-29T11:08:02.001Z</time></trkpt><trkpt lat="46.10018728036196" lon="12.269930571414545"><ele>987.3333333333334</ele><time>2026-03-29T11:08:03.001Z</time></trkpt><trkpt lat="46.100120158183834" lon="12.269995806239972"><ele>988.1666666666667</ele><time>2026-03-29T11:08:04.001Z</time></trkpt><trkpt lat="46.100056957924835" lon="12.270070823849062"><ele>989.0</ele><time>2026-03-29T11:08:05.001Z</time></trkpt><trkpt lat="46.09999302005782" lon="12.270168629149143"><ele>989.0</ele><time>2026-03-29T11:08:05.999Z</time></trkpt><trkpt lat="46.099928216309145" lon="12.270277265126627"><ele>989.0000000000001</ele><time>2026-03-29T11:08:06.999Z</time></trkpt><trkpt lat="46.099861765878046" lon="12.270388938692465"><ele>989.0000000000001</ele><time>2026-03-29T11:08:07.999Z</time></trkpt><trkpt lat="46.099796706498694" lon="12.270487131707988"><ele>989.0</ele><time>2026-03-29T11:08:08.999Z</time></trkpt><trkpt lat="46.099734875849194" lon="12.27056959554381"><ele>989.0</ele><time>2026-03-29T11:08:09.999Z</time></trkpt><trkpt lat="46.09967611279865" lon="12.270644849511436"><ele>989.3333333333334</ele><time>2026-03-29T11:08:10.999Z</time></trkpt><trkpt lat="46.09961909009894" lon="12.270698680262369"><ele>989.6666666666667</ele><time>2026-03-29T11:08:11.999Z</time></trkpt><trkpt lat="46.0995532716757" lon="12.27072886883073"><ele>990.0</ele><time>2026-03-29T11:08:12.999Z</time></trkpt><trkpt lat="46.09945720516847" lon="12.270747382009661"><ele>990.3333333333333</ele><time>2026-03-29T11:08:14.999Z</time></trkpt><trkpt lat="46.09938412208364" lon="12.270696112648366"><ele>990.6666666666666</ele><time>2026-03-29T11:08:16.999Z</time></trkpt><trkpt lat="46.099336870324194" lon="12.270570220888507"><ele>991.0</ele><time>2026-03-29T11:08:18.999Z</time></trkpt><trkpt lat="46.099297082996586" lon="12.27049234101914"><ele>990.9999999999999</ele><time>2026-03-29T11:08:19.999Z</time></trkpt><trkpt lat="46.09924219592767" lon="12.270410671642722"><ele>991.0</ele><time>2026-03-29T11:08:22Z</time></trkpt><trkpt lat="46.099128695856244" lon="12.270394902336513"><ele>991.0</ele><time>2026-03-29T11:08:25Z</time></trkpt><trkpt lat="46.09905813123723" lon="12.270415868081018"><ele>991.0</ele><time>2026-03-29T11:08:26Z</time></trkpt><trkpt lat="46.098983852484594" lon="12.270453587348326"><ele>990.9999999999999</ele><time>2026-03-29T11:08:27Z</time></trkpt><trkpt lat="46.09891502561579" lon="12.27047373608461"><ele>991.0</ele><time>2026-03-29T11:08:28Z</time></trkpt><trkpt lat="46.098843366291746" lon="12.27047834854166"><ele>992.9999999999999</ele><time>2026-03-29T11:08:29Z</time></trkpt><trkpt lat="46.09876089186254" lon="12.270500429774277"><ele>995.0</ele><time>2026-03-29T11:08:30Z</time></trkpt><trkpt lat="46.098672698758634" lon="12.27052712215215"><ele>997.0</ele><time>2026-03-29T11:08:31Z</time></trkpt><trkpt lat="46.09860864907046" lon="12.270560328943443"><ele>999.0</ele><time>2026-03-29T11:08:32Z</time></trkpt><trkpt lat="46.09854497403281" lon="12.270656591616115"><ele>1000.9999999999999</ele><time>2026-03-29T11:08:34Z</time></trkpt><trkpt lat="46.09857105231351" lon="12.270771081875116"><ele>1003.0</ele><time>2026-03-29T11:08:36Z</time></trkpt><trkpt lat="46.098645825131705" lon="12.270770401657838"><ele>1003.5999999999999</ele><time>2026-03-29T11:08:38Z</time></trkpt><trkpt lat="46.098750364127014" lon="12.27073343532165"><ele>1004.1999999999999</ele><time>2026-03-29T11:08:40Z</time></trkpt><trkpt lat="46.098855087746536" lon="12.270707473884"><ele>1004.8</ele><time>2026-03-29T11:08:42Z</time></trkpt><trkpt lat="46.09898068050021" lon="12.270710480281116"><ele>1005.4</ele><time>2026-03-29T11:08:44Z</time></trkpt><trkpt lat="46.099061611793424" lon="12.27070378551586"><ele>1006.0</ele><time>2026-03-29T11:08:45Z</time></trkpt><trkpt lat="46.099150220530504" lon="12.270716218731467"><ele>1003.9999999999999</ele><time>2026-03-29T11:08:46Z</time></trkpt><trkpt lat="46.09926473482519" lon="12.270745671166235"><ele>1002.0</ele><time>2026-03-29T11:08:48Z</time></trkpt><trkpt lat="46.09935388939289" lon="12.270743364307808"><ele>1000.0</ele><time>2026-03-29T11:08:50Z</time></trkpt><trkpt lat="46.09942769379551" lon="12.270741468541434"><ele>998.0</ele><time>2026-03-29T11:08:52Z</time></trkpt><trkpt lat="46.09949315962789" lon="12.270744437392713"><ele>995.9999999999999</ele><time>2026-03-29T11:08:53Z</time></trkpt><trkpt lat="46.09959404118757" lon="12.270705258209953"><ele>994.0</ele><time>2026-03-29T11:08:55Z</time></trkpt><trkpt lat="46.099695829230214" lon="12.2706080055897"><ele>993.4999999999999</ele><time>2026-03-29T11:08:57Z</time></trkpt><trkpt lat="46.099750541972256" lon="12.27053735235045"><ele>993.0</ele><time>2026-03-29T11:08:58Z</time></trkpt><trkpt lat="46.09980366304275" lon="12.270455312027021"><ele>992.5</ele><time>2026-03-29T11:08:59Z</time></trkpt><trkpt lat="46.09986054054254" lon="12.270364271699906"><ele>992.0</ele><time>2026-03-29T11:09:00Z</time></trkpt><trkpt lat="46.099921851468075" lon="12.270266201178893"><ele>991.4999999999999</ele><time>2026-03-29T11:09:01Z</time></trkpt><trkpt lat="46.09998197413441" lon="12.27016926766829"><ele>991.0</ele><time>2026-03-29T11:09:02Z</time></trkpt><trkpt lat="46.10004525174294" lon="12.270075228922115"><ele>990.6666666666666</ele><time>2026-03-29T11:09:03Z</time></trkpt><trkpt lat="46.100109736936595" lon="12.26999424465538"><ele>990.3333333333333</ele><time>2026-03-29T11:09:04Z</time></trkpt><trkpt lat="46.10017801683868" lon="12.269918627733908"><ele>990.0</ele><time>2026-03-29T11:09:05Z</time></trkpt><trkpt lat="46.10025515210735" lon="12.26984924841332"><ele>989.6666666666667</ele><time>2026-03-29T11:09:06Z</time></trkpt><trkpt lat="46.10032810566563" lon="12.269793771652642"><ele>989.3333333333334</ele><time>2026-03-29T11:09:07Z</time></trkpt><trkpt lat="46.10038924207969" lon="12.269750252762025"><ele>989.0</ele><time>2026-03-29T11:09:08Z</time></trkpt><trkpt lat="46.100495357224794" lon="12.269700715395404"><ele>989.0000000000001</ele><time>2026-03-29T11:09:10.001Z</time></trkpt><trkpt lat="46.100558988577575" lon="12.26967510134825"><ele>989.0</ele><time>2026-03-29T11:09:11.001Z</time></trkpt><trkpt lat="46.10063174785091" lon="12.269651822804907"><ele>989.0</ele><time>2026-03-29T11:09:12.001Z</time></trkpt><trkpt lat="46.1007073139337" lon="12.269632801897757"><ele>989.0</ele><time>2026-03-29T11:09:13.001Z</time></trkpt><trkpt lat="46.100786511966135" lon="12.269620624408596"><ele>989.0000000000001</ele><time>2026-03-29T11:09:14.001Z</time></trkpt><trkpt lat="46.10087210408267" lon="12.269601282913703"><ele>989.0</ele><time>2026-03-29T11:09:15.001Z</time></trkpt><trkpt lat="46.10095071132604" lon="12.269592931697325"><ele>989.0000000000001</ele><time>2026-03-29T11:09:16.001Z</time></trkpt><trkpt lat="46.10102317348473" lon="12.26957867189788"><ele>989.0</ele><time>2026-03-29T11:09:17.001Z</time></trkpt><trkpt lat="46.10108388708021" lon="12.269548824429025"><ele>989.0</ele><time>2026-03-29T11:09:18.001Z</time></trkpt><trkpt lat="46.10114985911117" lon="12.269480592202642"><ele>989.0</ele><time>2026-03-29T11:09:19.001Z</time></trkpt><trkpt lat="46.101207675077546" lon="12.269380104538344"><ele>989.0000000000001</ele><time>2026-03-29T11:09:20.001Z</time></trkpt><trkpt lat="46.101259397574715" lon="12.269277977973422"><ele>989.0</ele><time>2026-03-29T11:09:21.001Z</time></trkpt><trkpt lat="46.10130755338058" lon="12.269179142998206"><ele>989.0</ele><time>2026-03-29T11:09:22.001Z</time></trkpt><trkpt lat="46.101365257699584" lon="12.269101227363949"><ele>989.0000000000001</ele><time>2026-03-29T11:09:23.001Z</time></trkpt><trkpt lat="46.10147157893761" lon="12.269026390339224"><ele>989.0000000000001</ele><time>2026-03-29T11:09:25.001Z</time></trkpt><trkpt lat="46.10161100740896" lon="12.268996379449664"><ele>989.0</ele><time>2026-03-29T11:09:27.001Z</time></trkpt><trkpt lat="46.10168457680868" lon="12.268970319480342"><ele>989.0</ele><time>2026-03-29T11:09:28.001Z</time></trkpt><trkpt lat="46.101759644074626" lon="12.268939955887404"><ele>989.8000000000001</ele><time>2026-03-29T11:09:29.001Z</time></trkpt><trkpt lat="46.10187196922634" lon="12.268853821873858"><ele>990.6000000000001</ele><time>2026-03-29T11:09:31.001Z</time></trkpt><trkpt lat="46.101940677426555" lon="12.26881824221401"><ele>991.4</ele><time>2026-03-29T11:09:32.001Z</time></trkpt><trkpt lat="46.10202901469877" lon="12.268780576602131"><ele>992.2</ele><time>2026-03-29T11:09:33.001Z</time></trkpt><trkpt lat="46.10212917080127" lon="12.268727494037146"><ele>993.0</ele><time>2026-03-29T11:09:34.001Z</time></trkpt><trkpt lat="46.10223087083517" lon="12.268669291772683"><ele>993.0</ele><time>2026-03-29T11:09:35.001Z</time></trkpt><trkpt lat="46.102337273183636" lon="12.268607306602433"><ele>993.0</ele><time>2026-03-29T11:09:36.001Z</time></trkpt><trkpt lat="46.10244960602164" lon="12.268540391831117"><ele>993.0</ele><time>2026-03-29T11:09:37.001Z</time></trkpt><trkpt lat="46.1025664983868" lon="12.268469743670147"><ele>993.0</ele><time>2026-03-29T11:09:38.001Z</time></trkpt><trkpt lat="46.10268392881455" lon="12.268401199795973"><ele>993.5999999999999</ele><time>2026-03-29T11:09:39.001Z</time></trkpt><trkpt lat="46.10278743042202" lon="12.268340199826337"><ele>994.1999999999999</ele><time>2026-03-29T11:09:40.001Z</time></trkpt><trkpt lat="46.102888264388426" lon="12.268283758804314"><ele>994.8</ele><time>2026-03-29T11:09:41.001Z</time></trkpt><trkpt lat="46.102982165639894" lon="12.268234725903028"><ele>995.4</ele><time>2026-03-29T11:09:42.001Z</time></trkpt><trkpt lat="46.10306709543853" lon="12.268186873066556"><ele>996.0</ele><time>2026-03-29T11:09:43.001Z</time></trkpt><trkpt lat="46.103141240909146" lon="12.268142821466036"><ele>995.8333333333334</ele><time>2026-03-29T11:09:44.001Z</time></trkpt><trkpt lat="46.10324742606965" lon="12.268088651273638"><ele>995.6666666666667</ele><time>2026-03-29T11:09:46.001Z</time></trkpt><trkpt lat="46.10333040699435" lon="12.268064050348801"><ele>995.5</ele><time>2026-03-29T11:09:49.001Z</time></trkpt><trkpt lat="46.10340431093592" lon="12.26803449599082"><ele>995.3333333333334</ele><time>2026-03-29T11:09:51.001Z</time></trkpt><trkpt lat="46.103469506387896" lon="12.267991067708683"><ele>995.1666666666667</ele><time>2026-03-29T11:09:52.001Z</time></trkpt><trkpt lat="46.103541503415165" lon="12.26794322951965"><ele>995.0</ele><time>2026-03-29T11:09:53.001Z</time></trkpt><trkpt lat="46.103625293362704" lon="12.267908444443488"><ele>995.0</ele><time>2026-03-29T11:09:54.001Z</time></trkpt><trkpt lat="46.103712959507014" lon="12.267892511568537"><ele>995.0</ele><time>2026-03-29T11:09:55.001Z</time></trkpt><trkpt lat="46.10380971764376" lon="12.267889625855876"><ele>995.0</ele><time>2026-03-29T11:09:56.001Z</time></trkpt><trkpt lat="46.10390814627538" lon="12.267903353686995"><ele>995.0</ele><time>2026-03-29T11:09:57.001Z</time></trkpt><trkpt lat="46.10401111998906" lon="12.267931590796843"><ele>995.0</ele><time>2026-03-29T11:09:58.001Z</time></trkpt><trkpt lat="46.10412061924377" lon="12.267969071467215"><ele>994.0</ele><time>2026-03-29T11:09:59.001Z</time></trkpt><trkpt lat="46.10422937128188" lon="12.268017349218002"><ele>993.0</ele><time>2026-03-29T11:10:00.001Z</time></trkpt><trkpt lat="46.10433414163123" lon="12.268065026251476"><ele>992.0</ele><time>2026-03-29T11:10:01.001Z</time></trkpt><trkpt lat="46.10443446583402" lon="12.268116174267979"><ele>991.0</ele><time>2026-03-29T11:10:02.001Z</time></trkpt><trkpt lat="46.104533971350556" lon="12.268167529947041"><ele>990.0</ele><time>2026-03-29T11:10:03.001Z</time></trkpt><trkpt lat="46.10463165574821" lon="12.268222617797923"><ele>990.0</ele><time>2026-03-29T11:10:04.001Z</time></trkpt><trkpt lat="46.10472358063682" lon="12.268274710156202"><ele>990.0</ele><time>2026-03-29T11:10:05.001Z</time></trkpt><trkpt lat="46.10481376551194" lon="12.268323186256728"><ele>990.0</ele><time>2026-03-29T11:10:06.001Z</time></trkpt><trkpt lat="46.10488897833536" lon="12.268360890375767"><ele>990.0</ele><time>2026-03-29T11:10:07.001Z</time></trkpt><trkpt lat="46.10497319410179" lon="12.268367697017178"><ele>990.0</ele><time>2026-03-29T11:10:09.001Z</time></trkpt><trkpt lat="46.10501290601776" lon="12.268292060547328"><ele>990.0</ele><time>2026-03-29T11:10:11.001Z</time></trkpt><trkpt lat="46.105009794953254" lon="12.268200784480142"><ele>988.0</ele><time>2026-03-29T11:10:12Z</time></trkpt><trkpt lat="46.1049817313901" lon="12.268088450283834"><ele>986.0</ele><time>2026-03-29T11:10:13Z</time></trkpt><trkpt lat="46.10495545359181" lon="12.267956759878947"><ele>984.0</ele><time>2026-03-29T11:10:14Z</time></trkpt><trkpt lat="46.104922400735504" lon="12.267794014956724"><ele>982.0</ele><time>2026-03-29T11:10:15Z</time></trkpt><trkpt lat="46.10488444496194" lon="12.267612616805327"><ele>980.0</ele><time>2026-03-29T11:10:16Z</time></trkpt><trkpt lat="46.10484715468277" lon="12.267430969038811"><ele>978.75</ele><time>2026-03-29T11:10:17Z</time></trkpt><trkpt lat="46.1048163800431" lon="12.267256284548486"><ele>977.5</ele><time>2026-03-29T11:10:18Z</time></trkpt><trkpt lat="46.10478748548545" lon="12.267088708560118"><ele>976.25</ele><time>2026-03-29T11:10:19Z</time></trkpt><trkpt lat="46.10475965022844" lon="12.266926789524085"><ele>975.0</ele><time>2026-03-29T11:10:20Z</time></trkpt><trkpt lat="46.10473490557402" lon="12.26677186325616"><ele>975.0</ele><time>2026-03-29T11:10:21Z</time></trkpt><trkpt lat="46.10471157274024" lon="12.266627055389447"><ele>975.0</ele><time>2026-03-29T11:10:22Z</time></trkpt><trkpt lat="46.104689572099105" lon="12.266486116208604"><ele>975.0</ele><time>2026-03-29T11:10:23Z</time></trkpt><trkpt lat="46.10467316246113" lon="12.26634660859916"><ele>975.0</ele><time>2026-03-29T11:10:24Z</time></trkpt><trkpt lat="46.104651535605235" lon="12.26619819933234"><ele>975.0</ele><time>2026-03-29T11:10:25Z</time></trkpt><trkpt lat="46.10462231385717" lon="12.266046080941225"><ele>974.1666666666666</ele><time>2026-03-29T11:10:26Z</time></trkpt><trkpt lat="46.10458919692441" lon="12.26591046885263"><ele>973.3333333333333</ele><time>2026-03-29T11:10:27Z</time></trkpt><trkpt lat="46.104561854509946" lon="12.265791348779288"><ele>972.5</ele><time>2026-03-29T11:10:28Z</time></trkpt><trkpt lat="46.10453389176957" lon="12.265678776180371"><ele>971.6666666666666</ele><time>2026-03-29T11:10:29Z</time></trkpt><trkpt lat="46.10450676270641" lon="12.265571915576194"><ele>970.8333333333333</ele><time>2026-03-29T11:10:30Z</time></trkpt><trkpt lat="46.10448205458985" lon="12.265476377158071"><ele>970.0</ele><time>2026-03-29T11:10:31Z</time></trkpt><trkpt lat="46.10441929146848" lon="12.265347825500545"><ele>967.8</ele><time>2026-03-29T11:10:33Z</time></trkpt><trkpt lat="46.10429814916905" lon="12.26524150364501"><ele>965.6</ele><time>2026-03-29T11:10:35Z</time></trkpt><trkpt lat="46.10421330398106" lon="12.265194305245652"><ele>963.4000000000001</ele><time>2026-03-29T11:10:36Z</time></trkpt><trkpt lat="46.104119270545645" lon="12.265143335179804"><ele>961.2</ele><time>2026-03-29T11:10:37Z</time></trkpt><trkpt lat="46.10404089476206" lon="12.26507525107465"><ele>959.0</ele><time>2026-03-29T11:10:38Z</time></trkpt><trkpt lat="46.103969230789424" lon="12.26498455397509"><ele>957.75</ele><time>2026-03-29T11:10:39Z</time></trkpt><trkpt lat="46.10389755347401" lon="12.264871322863641"><ele>956.5</ele><time>2026-03-29T11:10:40Z</time></trkpt><trkpt lat="46.103824928404634" lon="12.264740039275184"><ele>955.25</ele><time>2026-03-29T11:10:41Z</time></trkpt><trkpt lat="46.10374502909634" lon="12.264602611972052"><ele>954.0</ele><time>2026-03-29T11:10:42Z</time></trkpt><trkpt lat="46.1036647621462" lon="12.264476994764973"><ele>953.2</ele><time>2026-03-29T11:10:43Z</time></trkpt><trkpt lat="46.10359534715949" lon="12.264348893978442"><ele>952.4000000000001</ele><time>2026-03-29T11:10:44Z</time></trkpt><trkpt lat="46.103529244671165" lon="12.264234166122739"><ele>951.6</ele><time>2026-03-29T11:10:45Z</time></trkpt><trkpt lat="46.10346746317749" lon="12.264130358839429"><ele>950.8</ele><time>2026-03-29T11:10:46Z</time></trkpt><trkpt lat="46.103409965825904" lon="12.264025025125537"><ele>950.0</ele><time>2026-03-29T11:10:47Z</time></trkpt><trkpt lat="46.10335700218826" lon="12.263921728074019"><ele>949.1666666666667</ele><time>2026-03-29T11:10:48Z</time></trkpt><trkpt lat="46.103318105728725" lon="12.263820261475072"><ele>948.3333333333334</ele><time>2026-03-29T11:10:49Z</time></trkpt><trkpt lat="46.10328481251333" lon="12.263703747378905"><ele>947.5</ele><time>2026-03-29T11:10:50Z</time></trkpt><trkpt lat="46.10325888795635" lon="12.263589236461467"><ele>946.6666666666667</ele><time>2026-03-29T11:10:51Z</time></trkpt><trkpt lat="46.103232723800694" lon="12.26347781254105"><ele>945.8333333333334</ele><time>2026-03-29T11:10:52Z</time></trkpt><trkpt lat="46.103210823860415" lon="12.263366560422286"><ele>945.0</ele><time>2026-03-29T11:10:53Z</time></trkpt><trkpt lat="46.103187075523834" lon="12.263259229437637"><ele>945.5</ele><time>2026-03-29T11:10:54Z</time></trkpt><trkpt lat="46.103167545446674" lon="12.26315560586392"><ele>946.0</ele><time>2026-03-29T11:10:55Z</time></trkpt><trkpt lat="46.10314716202934" lon="12.2630372425121"><ele>946.5</ele><time>2026-03-29T11:10:56Z</time></trkpt><trkpt lat="46.10312249715724" lon="12.262907560286516"><ele>947.0</ele><time>2026-03-29T11:10:57Z</time></trkpt><trkpt lat="46.10309636136951" lon="12.26278233903081"><ele>947.5</ele><time>2026-03-29T11:10:58Z</time></trkpt><trkpt lat="46.10307581170418" lon="12.262665220686598"><ele>948.0</ele><time>2026-03-29T11:10:59Z</time></trkpt><trkpt lat="46.10305562749995" lon="12.262552381363374"><ele>948.0</ele><time>2026-03-29T11:11:00Z</time></trkpt><trkpt lat="46.10303954130829" lon="12.262436917647086"><ele>948.0</ele><time>2026-03-29T11:11:01Z</time></trkpt><trkpt lat="46.10302612935446" lon="12.262312559259247"><ele>948.0</ele><time>2026-03-29T11:11:02Z</time></trkpt><trkpt lat="46.10302123491566" lon="12.262191458506173"><ele>948.0</ele><time>2026-03-29T11:11:03Z</time></trkpt><trkpt lat="46.10301776790319" lon="12.262076958154193"><ele>948.0</ele><time>2026-03-29T11:11:04Z</time></trkpt><trkpt lat="46.10301931761519" lon="12.261971304231755"><ele>948.0</ele><time>2026-03-29T11:11:05Z</time></trkpt><trkpt lat="46.10300618261958" lon="12.261877620359385"><ele>945.2</ele><time>2026-03-29T11:11:06Z</time></trkpt><trkpt lat="46.10297376558476" lon="12.26172244068504"><ele>942.4</ele><time>2026-03-29T11:11:08.001Z</time></trkpt><trkpt lat="46.10290664424578" lon="12.261598112835909"><ele>939.6000000000001</ele><time>2026-03-29T11:11:10.001Z</time></trkpt><trkpt lat="46.10284828017164" lon="12.261528426690287"><ele>936.8000000000001</ele><time>2026-03-29T11:11:11.001Z</time></trkpt><trkpt lat="46.10277788754008" lon="12.261445990154874"><ele>934.0</ele><time>2026-03-29T11:11:12.001Z</time></trkpt><trkpt lat="46.102699293971334" lon="12.261358116461093"><ele>932.4999999999999</ele><time>2026-03-29T11:11:13.001Z</time></trkpt><trkpt lat="46.102630419300034" lon="12.261270130646967"><ele>931.0</ele><time>2026-03-29T11:11:14.001Z</time></trkpt><trkpt lat="46.10256952730679" lon="12.261183275364834"><ele>929.5</ele><time>2026-03-29T11:11:15.001Z</time></trkpt><trkpt lat="46.10252601617439" lon="12.261067364224544"><ele>928.0</ele><time>2026-03-29T11:11:16.001Z</time></trkpt><trkpt lat="46.10250485290726" lon="12.26095173136972"><ele>926.4999999999999</ele><time>2026-03-29T11:11:17.001Z</time></trkpt><trkpt lat="46.1024833375228" lon="12.260847197470707"><ele>925.0</ele><time>2026-03-29T11:11:18.001Z</time></trkpt><trkpt lat="46.10245186386988" lon="12.26075375494764"><ele>924.3333333333333</ele><time>2026-03-29T11:11:19.001Z</time></trkpt><trkpt lat="46.10241021127506" lon="12.2606653386653"><ele>923.6666666666666</ele><time>2026-03-29T11:11:20.001Z</time></trkpt><trkpt lat="46.10235479332717" lon="12.260598884907886"><ele>923.0</ele><time>2026-03-29T11:11:21.001Z</time></trkpt><trkpt lat="46.10228442553379" lon="12.260535288728713"><ele>922.3333333333333</ele><time>2026-03-29T11:11:22.001Z</time></trkpt><trkpt lat="46.1022150652807" lon="12.260471776152256"><ele>921.6666666666666</ele><time>2026-03-29T11:11:23.001Z</time></trkpt><trkpt lat="46.10214446841744" lon="12.260414420722084"><ele>921.0</ele><time>2026-03-29T11:11:24.001Z</time></trkpt><trkpt lat="46.10206534060003" lon="12.260347081366602"><ele>921.0</ele><time>2026-03-29T11:11:25.001Z</time></trkpt><trkpt lat="46.101976310118324" lon="12.260267893833346"><ele>921.0</ele><time>2026-03-29T11:11:26.001Z</time></trkpt><trkpt lat="46.10187841988875" lon="12.260179797155576"><ele>921.0</ele><time>2026-03-29T11:11:27.001Z</time></trkpt><trkpt lat="46.10177404514692" lon="12.260087400266352"><ele>921.0</ele><time>2026-03-29T11:11:28.001Z</time></trkpt><trkpt lat="46.10166848417233" lon="12.25999306957956"><ele>922.4</ele><time>2026-03-29T11:11:29.001Z</time></trkpt><trkpt lat="46.10156816744223" lon="12.259901702656874"><ele>923.8</ele><time>2026-03-29T11:11:30.001Z</time></trkpt><trkpt lat="46.10147304078181" lon="12.25981969341944"><ele>925.1999999999999</ele><time>2026-03-29T11:11:31.001Z</time></trkpt><trkpt lat="46.10138116798052" lon="12.259744208587819"><ele>926.5999999999999</ele><time>2026-03-29T11:11:32.001Z</time></trkpt><trkpt lat="46.101287816984026" lon="12.25966880482656"><ele>928.0</ele><time>2026-03-29T11:11:33.001Z</time></trkpt><trkpt lat="46.101198718789284" lon="12.259605869194973"><ele>925.4999999999999</ele><time>2026-03-29T11:11:34.001Z</time></trkpt><trkpt lat="46.101110896029844" lon="12.259550022144854"><ele>923.0</ele><time>2026-03-29T11:11:35.001Z</time></trkpt><trkpt lat="46.101029681767216" lon="12.259493978324159"><ele>920.5</ele><time>2026-03-29T11:11:36.001Z</time></trkpt><trkpt lat="46.100953137805874" lon="12.259435776499332"><ele>918.0</ele><time>2026-03-29T11:11:37.001Z</time></trkpt><trkpt lat="46.1008830110902" lon="12.259383863616526"><ele>915.4999999999999</ele><time>2026-03-29T11:11:38.001Z</time></trkpt><trkpt lat="46.100823675014574" lon="12.259336575225163"><ele>913.0</ele><time>2026-03-29T11:11:39.001Z</time></trkpt><trkpt lat="46.10076202485936" lon="12.25931055333672"><ele>913.0</ele><time>2026-03-29T11:11:40.001Z</time></trkpt><trkpt lat="46.10068752725215" lon="12.259308917104338"><ele>913.0</ele><time>2026-03-29T11:11:41.001Z</time></trkpt><trkpt lat="46.100601656884386" lon="12.259316095662962"><ele>913.0</ele><time>2026-03-29T11:11:42.001Z</time></trkpt><trkpt lat="46.100501531623436" lon="12.259308990891036"><ele>913.0</ele><time>2026-03-29T11:11:43.001Z</time></trkpt><trkpt lat="46.10040071870646" lon="12.259269148035745"><ele>913.0</ele><time>2026-03-29T11:11:44.001Z</time></trkpt><trkpt lat="46.1002999361519" lon="12.259225008175692"><ele>913.0</ele><time>2026-03-29T11:11:45.001Z</time></trkpt><trkpt lat="46.10020643681545" lon="12.259185127274863"><ele>913.0</ele><time>2026-03-29T11:11:46.001Z</time></trkpt><trkpt lat="46.100109370498046" lon="12.259139161704544"><ele>913.0</ele><time>2026-03-29T11:11:47.001Z</time></trkpt><trkpt lat="46.10000996612237" lon="12.259084614592313"><ele>913.0</ele><time>2026-03-29T11:11:48.001Z</time></trkpt><trkpt lat="46.099913804138154" lon="12.259024139520632"><ele>913.0</ele><time>2026-03-29T11:11:49.001Z</time></trkpt><trkpt lat="46.09982936888628" lon="12.258967924508664"><ele>909.5999999999999</ele><time>2026-03-29T11:11:50.001Z</time></trkpt><trkpt lat="46.09973839477778" lon="12.258906277113823"><ele>906.1999999999999</ele><time>2026-03-29T11:11:51.001Z</time></trkpt><trkpt lat="46.099646901412996" lon="12.258850722620426"><ele>902.8</ele><time>2026-03-29T11:11:52.001Z</time></trkpt><trkpt lat="46.09955167175521" lon="12.258801714763596"><ele>899.4</ele><time>2026-03-29T11:11:53.001Z</time></trkpt><trkpt lat="46.099439274352626" lon="12.25876146036913"><ele>896.0</ele><time>2026-03-29T11:11:54.001Z</time></trkpt><trkpt lat="46.09933180304824" lon="12.258717777952281"><ele>896.0</ele><time>2026-03-29T11:11:55.001Z</time></trkpt><trkpt lat="46.0992285885278" lon="12.258668242423974"><ele>895.9999999999999</ele><time>2026-03-29T11:11:56.001Z</time></trkpt><trkpt lat="46.099128903355" lon="12.258608773425767"><ele>895.9999999999999</ele><time>2026-03-29T11:11:57.001Z</time></trkpt><trkpt lat="46.099040637420664" lon="12.25856202209481"><ele>896.0</ele><time>2026-03-29T11:11:58.001Z</time></trkpt><trkpt lat="46.09895872407384" lon="12.258521796193888"><ele>896.0</ele><time>2026-03-29T11:11:59.001Z</time></trkpt><trkpt lat="46.098888249835994" lon="12.25848985154965"><ele>894.8</ele><time>2026-03-29T11:12:00.001Z</time></trkpt><trkpt lat="46.098809478490324" lon="12.258460608475698"><ele>893.5999999999999</ele><time>2026-03-29T11:12:01.001Z</time></trkpt><trkpt lat="46.09871664819711" lon="12.258439191503077"><ele>892.4</ele><time>2026-03-29T11:12:02.001Z</time></trkpt><trkpt lat="46.09861538089517" lon="12.258414192246903"><ele>891.2</ele><time>2026-03-29T11:12:03.001Z</time></trkpt><trkpt lat="46.09851222684537" lon="12.258397039210964"><ele>890.0</ele><time>2026-03-29T11:12:04.001Z</time></trkpt><trkpt lat="46.098422835121404" lon="12.258380419537461"><ele>890.0</ele><time>2026-03-29T11:12:05.001Z</time></trkpt><trkpt lat="46.098347187210514" lon="12.258359249919828"><ele>890.0</ele><time>2026-03-29T11:12:06.001Z</time></trkpt><trkpt lat="46.09822733788207" lon="12.258333000460185"><ele>890.0</ele><time>2026-03-29T11:12:08.001Z</time></trkpt><trkpt lat="46.09812555295003" lon="12.258219926710485"><ele>890.0</ele><time>2026-03-29T11:12:10.002Z</time></trkpt><trkpt lat="46.09807661356986" lon="12.258136417849608"><ele>890.0</ele><time>2026-03-29T11:12:11.002Z</time></trkpt><trkpt lat="46.09803403097833" lon="12.258064504928832"><ele>887.3333333333334</ele><time>2026-03-29T11:12:12.002Z</time></trkpt><trkpt lat="46.09797982705342" lon="12.258013572854175"><ele>884.6666666666667</ele><time>2026-03-29T11:12:13.002Z</time></trkpt><trkpt lat="46.09790485011123" lon="12.257976981411558"><ele>882.0</ele><time>2026-03-29T11:12:14.002Z</time></trkpt><trkpt lat="46.09783547825027" lon="12.257941566034507"><ele>879.3333333333333</ele><time>2026-03-29T11:12:15.002Z</time></trkpt><trkpt lat="46.0977575247202" lon="12.257896016560101"><ele>876.6666666666666</ele><time>2026-03-29T11:12:16.002Z</time></trkpt><trkpt lat="46.0976883700507" lon="12.257833038356143"><ele>874.0</ele><time>2026-03-29T11:12:17.002Z</time></trkpt><trkpt lat="46.097622059613215" lon="12.257755376992819"><ele>873.9999999999999</ele><time>2026-03-29T11:12:18Z</time></trkpt><trkpt lat="46.097559484619055" lon="12.257675811706955"><ele>874.0</ele><time>2026-03-29T11:12:19Z</time></trkpt><trkpt lat="46.09749840590398" lon="12.257581127000705"><ele>874.0</ele><time>2026-03-29T11:12:20Z</time></trkpt><trkpt lat="46.097436242907" lon="12.257494728690693"><ele>874.0</ele><time>2026-03-29T11:12:21Z</time></trkpt><trkpt lat="46.09737751994769" lon="12.257409638593522"><ele>873.9999999999999</ele><time>2026-03-29T11:12:22Z</time></trkpt><trkpt lat="46.09731876418223" lon="12.257326217974324"><ele>874.0</ele><time>2026-03-29T11:12:23Z</time></trkpt><trkpt lat="46.09726009091203" lon="12.257243779710729"><ele>872.8333333333333</ele><time>2026-03-29T11:12:24Z</time></trkpt><trkpt lat="46.09720285207205" lon="12.257164127682394"><ele>871.6666666666666</ele><time>2026-03-29T11:12:25Z</time></trkpt><trkpt lat="46.09714354868494" lon="12.257081728994827"><ele>870.5</ele><time>2026-03-29T11:12:26Z</time></trkpt><trkpt lat="46.09708024953358" lon="12.25700202232972"><ele>869.3333333333333</ele><time>2026-03-29T11:12:27Z</time></trkpt><trkpt lat="46.097024406787526" lon="12.256921385476408"><ele>868.1666666666666</ele><time>2026-03-29T11:12:28Z</time></trkpt><trkpt lat="46.096966707628326" lon="12.256846438441109"><ele>867.0</ele><time>2026-03-29T11:12:29Z</time></trkpt><trkpt lat="46.09692680131848" lon="12.25677594543249"><ele>867.0</ele><time>2026-03-29T11:12:30Z</time></trkpt><trkpt lat="46.09686065465722" lon="12.256664469623539"><ele>867.0</ele><time>2026-03-29T11:12:32Z</time></trkpt><trkpt lat="46.096840343889454" lon="12.256561591125053"><ele>867.0</ele><time>2026-03-29T11:12:35Z</time></trkpt><trkpt lat="46.096945032098894" lon="12.25649624738586"><ele>867.0</ele><time>2026-03-29T11:12:38Z</time></trkpt><trkpt lat="46.09702473507383" lon="12.256527687235744"><ele>867.0</ele><time>2026-03-29T11:12:39Z</time></trkpt><trkpt lat="46.09709813775857" lon="12.256554511870078"><ele>867.0</ele><time>2026-03-29T11:12:40Z</time></trkpt><trkpt lat="46.097179236024594" lon="12.256592784553995"><ele>867.0</ele><time>2026-03-29T11:12:41Z</time></trkpt><trkpt lat="46.097279286954254" lon="12.256650874958032"><ele>867.0</ele><time>2026-03-29T11:12:42Z</time></trkpt><trkpt lat="46.09738393758948" lon="12.256694382411448"><ele>867.0</ele><time>2026-03-29T11:12:43Z</time></trkpt><trkpt lat="46.09748757618306" lon="12.256731016969736"><ele>867.0</ele><time>2026-03-29T11:12:44Z</time></trkpt><trkpt lat="46.09757932109598" lon="12.256756743293337"><ele>867.0</ele><time>2026-03-29T11:12:45Z</time></trkpt><trkpt lat="46.097661121214024" lon="12.256770646112326"><ele>866.2</ele><time>2026-03-29T11:12:46Z</time></trkpt><trkpt lat="46.0977408191585" lon="12.256769868462698"><ele>865.4000000000001</ele><time>2026-03-29T11:12:47Z</time></trkpt><trkpt lat="46.09782909077485" lon="12.256758006496696"><ele>864.5999999999999</ele><time>2026-03-29T11:12:48Z</time></trkpt><trkpt lat="46.097922994543495" lon="12.25676029675248"><ele>863.8</ele><time>2026-03-29T11:12:49Z</time></trkpt><trkpt lat="46.09801739789154" lon="12.256786604303352"><ele>863.0</ele><time>2026-03-29T11:12:50Z</time></trkpt><trkpt lat="46.0981126457072" lon="12.256817724251613"><ele>863.0000000000001</ele><time>2026-03-29T11:12:51Z</time></trkpt><trkpt lat="46.0982132521093" lon="12.256845783811746"><ele>863.0</ele><time>2026-03-29T11:12:52Z</time></trkpt><trkpt lat="46.0983028168491" lon="12.256864381297076"><ele>863.0</ele><time>2026-03-29T11:12:53Z</time></trkpt><trkpt lat="46.09838024946593" lon="12.25688513905624"><ele>863.0</ele><time>2026-03-29T11:12:54Z</time></trkpt><trkpt lat="46.098455179459584" lon="12.256885391036487"><ele>863.0000000000001</ele><time>2026-03-29T11:12:55Z</time></trkpt><trkpt lat="46.098531712732864" lon="12.25689554968331"><ele>863.0</ele><time>2026-03-29T11:12:56Z</time></trkpt><trkpt lat="46.098605043148076" lon="12.256925591982174"><ele>863.6666666666667</ele><time>2026-03-29T11:12:57Z</time></trkpt><trkpt lat="46.098710648881664" lon="12.256925967912288"><ele>864.3333333333334</ele><time>2026-03-29T11:12:59Z</time></trkpt><trkpt lat="46.0987621337652" lon="12.256833740056988"><ele>865.0</ele><time>2026-03-29T11:13:02.001Z</time></trkpt><trkpt lat="46.09876325325801" lon="12.256728424274298"><ele>865.6666666666667</ele><time>2026-03-29T11:13:13.001Z</time></trkpt><trkpt lat="46.09877364974039" lon="12.256622459554203"><ele>866.3333333333334</ele><time>2026-03-29T11:33:57Z</time></trkpt><trkpt lat="46.098749641757" lon="12.25652573301996"><ele>867.0</ele><time>2026-03-29T11:33:59Z</time></trkpt><trkpt lat="46.09867234521967" lon="12.256516904439206"><ele>867.0</ele><time>2026-03-29T11:34:01Z</time></trkpt><trkpt lat="46.098627366460974" lon="12.256621732168604"><ele>867.0</ele><time>2026-03-29T11:34:03Z</time></trkpt><trkpt lat="46.09864448549777" lon="12.25676308002659"><ele>867.0</ele><time>2026-03-29T11:34:05Z</time></trkpt><trkpt lat="46.09873496220615" lon="12.25688990352904"><ele>867.0</ele><time>2026-03-29T11:34:07Z</time></trkpt><trkpt lat="46.09878595048891" lon="12.25702862944739"><ele>867.0</ele><time>2026-03-29T11:34:09Z</time></trkpt><trkpt lat="46.09878981982623" lon="12.257134262687574"><ele>867.0</ele><time>2026-03-29T11:34:10Z</time></trkpt><trkpt lat="46.09876741152384" lon="12.257262365626412"><ele>867.0</ele><time>2026-03-29T11:34:11Z</time></trkpt><trkpt lat="46.09875175467523" lon="12.257367794738824"><ele>867.0</ele><time>2026-03-29T11:34:12Z</time></trkpt><trkpt lat="46.09873820476801" lon="12.257468710485844"><ele>867.0</ele><time>2026-03-29T11:34:13Z</time></trkpt><trkpt lat="46.098726870817" lon="12.257579549474315"><ele>867.0</ele><time>2026-03-29T11:34:14Z</time></trkpt><trkpt lat="46.098733664876264" lon="12.257694926432148"><ele>867.0</ele><time>2026-03-29T11:34:16Z</time></trkpt><trkpt lat="46.09877940307162" lon="12.257801340149372"><ele>868.3333333333334</ele><time>2026-03-29T11:34:19Z</time></trkpt><trkpt lat="46.09886498610398" lon="12.257857451062252"><ele>869.6666666666667</ele><time>2026-03-29T11:34:21Z</time></trkpt><trkpt lat="46.09894147818775" lon="12.257772817299967"><ele>871.0</ele><time>2026-03-29T11:34:23Z</time></trkpt><trkpt lat="46.09894345402903" lon="12.257678487218499"><ele>872.3333333333334</ele><time>2026-03-29T11:34:26Z</time></trkpt><trkpt lat="46.098870244184354" lon="12.257612146400053"><ele>873.6666666666667</ele><time>2026-03-29T11:34:29Z</time></trkpt><trkpt lat="46.098806074495336" lon="12.257515190554123"><ele>875.0</ele><time>2026-03-29T11:34:32Z</time></trkpt><trkpt lat="46.09875607971773" lon="12.257347177259252"><ele>873.6666666666667</ele><time>2026-03-29T11:34:34Z</time></trkpt><trkpt lat="46.09875111740508" lon="12.257217644366772"><ele>872.3333333333334</ele><time>2026-03-29T11:34:36Z</time></trkpt><trkpt lat="46.09879181649415" lon="12.257070957429963"><ele>871.0</ele><time>2026-03-29T11:34:38Z</time></trkpt><trkpt lat="46.098757507280816" lon="12.256940674289805"><ele>869.6666666666667</ele><time>2026-03-29T11:34:40Z</time></trkpt><trkpt lat="46.098751170068304" lon="12.256826931760278"><ele>868.3333333333334</ele><time>2026-03-29T11:34:43Z</time></trkpt><trkpt lat="46.09876127644508" lon="12.256727857729704"><ele>867.0</ele><time>2026-03-29T11:34:46Z</time></trkpt><trkpt lat="46.09875378554951" lon="12.256572584495995"><ele>867.0</ele><time>2026-03-29T11:34:50Z</time></trkpt><trkpt lat="46.0986796186863" lon="12.256616179740575"><ele>867.0</ele><time>2026-03-29T11:34:52Z</time></trkpt><trkpt lat="46.098711144623216" lon="12.25672764516179"><ele>867.0</ele><time>2026-03-29T11:34:56Z</time></trkpt><trkpt lat="46.09877465719559" lon="12.25672407086795"><ele>867.0</ele><time>2026-03-29T11:34:59Z</time></trkpt><trkpt lat="46.0988497433835" lon="12.256734130575946"><ele>867.0</ele><time>2026-03-29T11:35:01Z</time></trkpt><trkpt lat="46.098909124138224" lon="12.256790746364066"><ele>867.0</ele><time>2026-03-29T11:35:04Z</time></trkpt><trkpt lat="46.09884995746343" lon="12.256825949705007"><ele>867.0</ele><time>2026-03-29T11:35:07Z</time></trkpt><trkpt lat="46.0987839770109" lon="12.256779679316423"><ele>867.0</ele><time>2026-03-29T11:35:10Z</time></trkpt><trkpt lat="46.09876439861199" lon="12.256687053584555"><ele>867.0</ele><time>2026-03-29T11:37:42.999Z</time></trkpt><trkpt lat="46.09876546151651" lon="12.256573364906316"><ele>867.0</ele><time>2026-03-29T11:37:44.999Z</time></trkpt><trkpt lat="46.09874373876372" lon="12.256462531157988"><ele>867.0</ele><time>2026-03-29T11:37:47.999Z</time></trkpt><trkpt lat="46.09875904147201" lon="12.256363484605586"><ele>867.0</ele><time>2026-03-29T11:37:49.999Z</time></trkpt><trkpt lat="46.098781607845325" lon="12.256276226975316"><ele>867.0</ele><time>2026-03-29T11:37:52Z</time></trkpt><trkpt lat="46.09886876806355" lon="12.256228370987419"><ele>864.6</ele><time>2026-03-29T11:37:55Z</time></trkpt><trkpt lat="46.09896074851166" lon="12.256219122627698"><ele>862.2</ele><time>2026-03-29T11:37:57Z</time></trkpt><trkpt lat="46.09903198562477" lon="12.256169895239855"><ele>859.8</ele><time>2026-03-29T11:37:59Z</time></trkpt><trkpt lat="46.09911805242018" lon="12.256218230060021"><ele>857.4</ele><time>2026-03-29T11:38:03Z</time></trkpt><trkpt lat="46.09911632896867" lon="12.25631080725596"><ele>855.0</ele><time>2026-03-29T11:38:05Z</time></trkpt><trkpt lat="46.09899608645178" lon="12.256265371843542"><ele>855.0</ele><time>2026-03-29T11:38:08Z</time></trkpt><trkpt lat="46.098895449482036" lon="12.256228127474381"><ele>855.0</ele><time>2026-03-29T11:38:09Z</time></trkpt><trkpt lat="46.098815518541436" lon="12.256215509378576"><ele>855.0</ele><time>2026-03-29T11:38:10Z</time></trkpt><trkpt lat="46.09875613043699" lon="12.256250886712333"><ele>855.0</ele><time>2026-03-29T11:38:12Z</time></trkpt><trkpt lat="46.09871183318278" lon="12.256357077023672"><ele>855.0</ele><time>2026-03-29T11:38:14Z</time></trkpt><trkpt lat="46.098689326823546" lon="12.256511711218536"><ele>855.0</ele><time>2026-03-29T11:38:16Z</time></trkpt><trkpt lat="46.098669236078656" lon="12.25666199262009"><ele>857.0</ele><time>2026-03-29T11:38:18Z</time></trkpt><trkpt lat="46.09860504214486" lon="12.256742015814126"><ele>859.0</ele><time>2026-03-29T11:38:19Z</time></trkpt><trkpt lat="46.098536620507566" lon="12.25669457613349"><ele>861.0</ele><time>2026-03-29T11:38:21Z</time></trkpt><trkpt lat="46.09857574967841" lon="12.256586898731518"><ele>863.0</ele><time>2026-03-29T11:38:23Z</time></trkpt><trkpt lat="46.09863901694136" lon="12.25653495232312"><ele>865.0</ele><time>2026-03-29T11:38:24Z</time></trkpt><trkpt lat="46.098731713407446" lon="12.256547946251787"><ele>867.0</ele><time>2026-03-29T11:38:49Z</time></trkpt><trkpt lat="46.098773397056185" lon="12.25667749365879"><ele>867.0</ele><time>2026-03-29T11:38:51Z</time></trkpt><trkpt lat="46.09876128823802" lon="12.256819526843246"><ele>867.0</ele><time>2026-03-29T11:38:53Z</time></trkpt><trkpt lat="46.098756596050634" lon="12.25695115611446"><ele>867.0</ele><time>2026-03-29T11:38:56Z</time></trkpt><trkpt lat="46.09877854931954" lon="12.257156617981055"><ele>867.0</ele><time>2026-03-29T11:38:58Z</time></trkpt><trkpt lat="46.09876591945931" lon="12.257288883227524"><ele>867.0</ele><time>2026-03-29T11:38:59Z</time></trkpt><trkpt lat="46.09875190477538" lon="12.257423195044172"><ele>868.3333333333334</ele><time>2026-03-29T11:39:00Z</time></trkpt><trkpt lat="46.09873206040087" lon="12.257531780511693"><ele>869.6666666666667</ele><time>2026-03-29T11:39:01Z</time></trkpt><trkpt lat="46.09872295859191" lon="12.257637697657382"><ele>871.0</ele><time>2026-03-29T11:39:02Z</time></trkpt><trkpt lat="46.09876534668424" lon="12.257753943081784"><ele>872.3333333333334</ele><time>2026-03-29T11:39:05Z</time></trkpt><trkpt lat="46.09883985985204" lon="12.257768889756525"><ele>873.6666666666667</ele><time>2026-03-29T11:39:07Z</time></trkpt><trkpt lat="46.09889202253618" lon="12.257699320189781"><ele>875.0</ele><time>2026-03-29T11:39:09Z</time></trkpt><trkpt lat="46.09889104499314" lon="12.257599044486838"><ele>875.0000000000001</ele><time>2026-03-29T11:39:21Z</time></trkpt><trkpt lat="46.09888585952949" lon="12.257470066303341"><ele>875.0</ele><time>2026-03-29T11:39:23Z</time></trkpt><trkpt lat="46.098866634678544" lon="12.257378177119303"><ele>875.0</ele><time>2026-03-29T11:39:24Z</time></trkpt><trkpt lat="46.098850650579344" lon="12.257281963567472"><ele>875.0</ele><time>2026-03-29T11:39:25Z</time></trkpt><trkpt lat="46.098835704191316" lon="12.257191476458125"><ele>875.0000000000001</ele><time>2026-03-29T11:39:26Z</time></trkpt><trkpt lat="46.09880245274608" lon="12.257026817704762"><ele>875.0</ele><time>2026-03-29T11:39:28Z</time></trkpt><trkpt lat="46.09877108447538" lon="12.25693206692284"><ele>873.6666666666667</ele><time>2026-03-29T11:39:30.001Z</time></trkpt><trkpt lat="46.098723325307716" lon="12.256866916065835"><ele>872.3333333333334</ele><time>2026-03-29T11:39:33.001Z</time></trkpt><trkpt lat="46.09867190806469" lon="12.2567840687573"><ele>871.0</ele><time>2026-03-29T11:39:34.999Z</time></trkpt><trkpt lat="46.09862740061481" lon="12.256716585736518"><ele>869.6666666666667</ele><time>2026-03-29T11:39:35.999Z</time></trkpt><trkpt lat="46.09857807862335" lon="12.2566391229588"><ele>868.3333333333334</ele><time>2026-03-29T11:39:36.999Z</time></trkpt><trkpt lat="46.09849574249165" lon="12.256538369531906"><ele>867.0</ele><time>2026-03-29T11:39:38.999Z</time></trkpt><trkpt lat="46.098415553939596" lon="12.256495966499612"><ele>867.0</ele><time>2026-03-29T11:39:40.999Z</time></trkpt><trkpt lat="46.098382445472005" lon="12.256605010622923"><ele>867.0</ele><time>2026-03-29T11:39:42.999Z</time></trkpt><trkpt lat="46.09845349741933" lon="12.256711463163294"><ele>867.0</ele><time>2026-03-29T11:39:44.999Z</time></trkpt><trkpt lat="46.09856524701092" lon="12.256755460698619"><ele>867.0</ele><time>2026-03-29T11:39:46.999Z</time></trkpt><trkpt lat="46.098669074228354" lon="12.256791206487797"><ele>867.0</ele><time>2026-03-29T11:39:47.999Z</time></trkpt><trkpt lat="46.098733425178544" lon="12.256801614977466"><ele>867.0</ele><time>2026-03-29T11:39:48.999Z</time></trkpt><trkpt lat="46.098683820993024" lon="12.256912896079887"><ele>867.0</ele><time>2026-03-29T11:40:52Z</time></trkpt><trkpt lat="46.098559502698265" lon="12.256855841634827"><ele>867.0</ele><time>2026-03-29T11:40:54Z</time></trkpt><trkpt lat="46.09849178230486" lon="12.256836673663829"><ele>867.0</ele><time>2026-03-29T11:40:55Z</time></trkpt><trkpt lat="46.098414817669855" lon="12.25682467682125"><ele>867.0</ele><time>2026-03-29T11:40:56Z</time></trkpt><trkpt lat="46.09833815785754" lon="12.256817804318418"><ele>867.0</ele><time>2026-03-29T11:40:57Z</time></trkpt><trkpt lat="46.09825364883792" lon="12.25680526664128"><ele>866.2</ele><time>2026-03-29T11:40:58Z</time></trkpt><trkpt lat="46.09816719026247" lon="12.25678750389319"><ele>865.4000000000001</ele><time>2026-03-29T11:40:59Z</time></trkpt><trkpt lat="46.098078144270985" lon="12.256762202068309"><ele>864.5999999999999</ele><time>2026-03-29T11:41:00Z</time></trkpt><trkpt lat="46.09798498236968" lon="12.256738479881408"><ele>863.8</ele><time>2026-03-29T11:41:01Z</time></trkpt><trkpt lat="46.09789175559271" lon="12.256713124906419"><ele>863.0</ele><time>2026-03-29T11:41:02Z</time></trkpt><trkpt lat="46.09780230442902" lon="12.2566957115294"><ele>863.0</ele><time>2026-03-29T11:41:03Z</time></trkpt><trkpt lat="46.097712337331934" lon="12.256705296367636"><ele>863.0</ele><time>2026-03-29T11:41:04Z</time></trkpt><trkpt lat="46.09762293261046" lon="12.256720441989097"><ele>863.0</ele><time>2026-03-29T11:41:05Z</time></trkpt><trkpt lat="46.09752573263588" lon="12.256708626992317"><ele>863.0</ele><time>2026-03-29T11:41:06Z</time></trkpt><trkpt lat="46.09743137505953" lon="12.256673972981158"><ele>863.0</ele><time>2026-03-29T11:41:07Z</time></trkpt><trkpt lat="46.09733424460901" lon="12.256628963219832"><ele>863.6666666666667</ele><time>2026-03-29T11:41:08Z</time></trkpt><trkpt lat="46.09724367247901" lon="12.256583395316936"><ele>864.3333333333334</ele><time>2026-03-29T11:41:09Z</time></trkpt><trkpt lat="46.09716252268036" lon="12.25654144830053"><ele>865.0</ele><time>2026-03-29T11:41:10Z</time></trkpt><trkpt lat="46.09708890317339" lon="12.256508156058034"><ele>865.6666666666667</ele><time>2026-03-29T11:41:11Z</time></trkpt><trkpt lat="46.09701881369012" lon="12.256483633561421"><ele>866.3333333333334</ele><time>2026-03-29T11:41:12Z</time></trkpt><trkpt lat="46.096950610841226" lon="12.25645958552652"><ele>867.0</ele><time>2026-03-29T11:41:13Z</time></trkpt><trkpt lat="46.096846354125034" lon="12.256490122194544"><ele>867.0</ele><time>2026-03-29T11:41:15Z</time></trkpt><trkpt lat="46.09677628276011" lon="12.25648604823006"><ele>867.0</ele><time>2026-03-29T11:41:37.001Z</time></trkpt><trkpt lat="46.09670731606105" lon="12.25634144062796"><ele>867.0</ele><time>2026-03-29T11:41:39.001Z</time></trkpt><trkpt lat="46.09662410820362" lon="12.256218697765217"><ele>867.0</ele><time>2026-03-29T11:41:40.999Z</time></trkpt><trkpt lat="46.09653603790468" lon="12.256106290612287"><ele>867.0</ele><time>2026-03-29T11:41:42.999Z</time></trkpt><trkpt lat="46.09646592947346" lon="12.256049979308052"><ele>864.8333333333334</ele><time>2026-03-29T11:41:43.999Z</time></trkpt><trkpt lat="46.09638931993133" lon="12.256003442530513"><ele>862.6666666666667</ele><time>2026-03-29T11:41:44.999Z</time></trkpt><trkpt lat="46.0963090823451" lon="12.255975283490104"><ele>860.5</ele><time>2026-03-29T11:41:45.999Z</time></trkpt><trkpt lat="46.09623058453796" lon="12.255965777087091"><ele>858.3333333333334</ele><time>2026-03-29T11:41:46.999Z</time></trkpt><trkpt lat="46.0961441445894" lon="12.255963634362738"><ele>856.1666666666667</ele><time>2026-03-29T11:41:48Z</time></trkpt><trkpt lat="46.096052478135384" lon="12.255974830639317"><ele>854.0</ele><time>2026-03-29T11:41:49Z</time></trkpt><trkpt lat="46.095963053914765" lon="12.255987160832552"><ele>854.0000000000001</ele><time>2026-03-29T11:41:50Z</time></trkpt><trkpt lat="46.09587593404626" lon="12.255997515838777"><ele>854.0</ele><time>2026-03-29T11:41:51Z</time></trkpt><trkpt lat="46.09579549658326" lon="12.256021303567215"><ele>854.0</ele><time>2026-03-29T11:41:52Z</time></trkpt><trkpt lat="46.095713619575235" lon="12.25603865461276"><ele>854.0</ele><time>2026-03-29T11:41:53Z</time></trkpt><trkpt lat="46.09563469576455" lon="12.256061229603569"><ele>854.0000000000001</ele><time>2026-03-29T11:41:54Z</time></trkpt><trkpt lat="46.09556479622764" lon="12.256070961554007"><ele>854.0</ele><time>2026-03-29T11:41:55Z</time></trkpt><trkpt lat="46.09549504609686" lon="12.256083602092135"><ele>851.4000000000001</ele><time>2026-03-29T11:41:56Z</time></trkpt><trkpt lat="46.09542948164251" lon="12.25609676134252"><ele>848.8000000000001</ele><time>2026-03-29T11:41:57Z</time></trkpt><trkpt lat="46.095336543492046" lon="12.256135254629754"><ele>846.2</ele><time>2026-03-29T11:41:59Z</time></trkpt><trkpt lat="46.09527719665383" lon="12.256183624293666"><ele>843.5999999999999</ele><time>2026-03-29T11:42:01Z</time></trkpt><trkpt lat="46.09525536146157" lon="12.256376181589804"><ele>841.0</ele><time>2026-03-29T11:42:03Z</time></trkpt><trkpt lat="46.09524349766731" lon="12.256512258138176"><ele>839.4999999999999</ele><time>2026-03-29T11:42:04Z</time></trkpt><trkpt lat="46.09523196809667" lon="12.256634523970039"><ele>838.0</ele><time>2026-03-29T11:42:05Z</time></trkpt><trkpt lat="46.09522476280921" lon="12.256738175486172"><ele>836.5</ele><time>2026-03-29T11:42:06Z</time></trkpt><trkpt lat="46.09522971986824" lon="12.256854878509142"><ele>835.0</ele><time>2026-03-29T11:42:07Z</time></trkpt><trkpt lat="46.09524429262843" lon="12.256979155885402"><ele>833.4999999999999</ele><time>2026-03-29T11:42:08Z</time></trkpt><trkpt lat="46.095261166433225" lon="12.257110635201856"><ele>832.0</ele><time>2026-03-29T11:42:09Z</time></trkpt><trkpt lat="46.09527549556225" lon="12.25724526400185"><ele>831.4999999999999</ele><time>2026-03-29T11:42:10Z</time></trkpt><trkpt lat="46.0952870017552" lon="12.257373618161779"><ele>831.0</ele><time>2026-03-29T11:42:11Z</time></trkpt><trkpt lat="46.09530286216907" lon="12.257471996465757"><ele>830.5</ele><time>2026-03-29T11:42:12Z</time></trkpt><trkpt lat="46.09532030117894" lon="12.257605074228751"><ele>830.0</ele><time>2026-03-29T11:42:14Z</time></trkpt><trkpt lat="46.09525422191597" lon="12.257652427140668"><ele>829.4999999999999</ele><time>2026-03-29T11:42:17Z</time></trkpt><trkpt lat="46.09518890682323" lon="12.257547753800313"><ele>829.0</ele><time>2026-03-29T11:42:19Z</time></trkpt><trkpt lat="46.09517832823472" lon="12.25741859857162"><ele>829.0</ele><time>2026-03-29T11:42:20Z</time></trkpt><trkpt lat="46.09515938859108" lon="12.2572981936899"><ele>829.0</ele><time>2026-03-29T11:42:21Z</time></trkpt><trkpt lat="46.0951343637791" lon="12.25715994658756"><ele>829.0</ele><time>2026-03-29T11:42:22Z</time></trkpt><trkpt lat="46.0950978713142" lon="12.257012978119365"><ele>829.0</ele><time>2026-03-29T11:42:23Z</time></trkpt><trkpt lat="46.09505409031328" lon="12.256859069482953"><ele>829.0</ele><time>2026-03-29T11:42:24Z</time></trkpt><trkpt lat="46.095017230710326" lon="12.256718134447121"><ele>829.4999999999999</ele><time>2026-03-29T11:42:25Z</time></trkpt><trkpt lat="46.09498594629013" lon="12.256605157951983"><ele>830.0</ele><time>2026-03-29T11:42:26Z</time></trkpt><trkpt lat="46.094945154656976" lon="12.256514225540167"><ele>830.5</ele><time>2026-03-29T11:42:27Z</time></trkpt><trkpt lat="46.094890621774006" lon="12.256416130670015"><ele>831.0</ele><time>2026-03-29T11:42:28Z</time></trkpt><trkpt lat="46.09482061341576" lon="12.25632204696816"><ele>831.4999999999999</ele><time>2026-03-29T11:42:29Z</time></trkpt><trkpt lat="46.09474871385262" lon="12.256241737884723"><ele>832.0</ele><time>2026-03-29T11:42:30Z</time></trkpt><trkpt lat="46.094678383096785" lon="12.256162683748203"><ele>829.4999999999999</ele><time>2026-03-29T11:42:31Z</time></trkpt><trkpt lat="46.094605591202715" lon="12.256090934719067"><ele>827.0</ele><time>2026-03-29T11:42:32Z</time></trkpt><trkpt lat="46.09453271979912" lon="12.256027512769872"><ele>824.5</ele><time>2026-03-29T11:42:33Z</time></trkpt><trkpt lat="46.09445731564941" lon="12.25597659023448"><ele>822.0</ele><time>2026-03-29T11:42:34Z</time></trkpt><trkpt lat="46.0943811094039" lon="12.255933856083379"><ele>819.4999999999999</ele><time>2026-03-29T11:42:35Z</time></trkpt><trkpt lat="46.094297357034776" lon="12.255903889532762"><ele>817.0</ele><time>2026-03-29T11:42:36Z</time></trkpt><trkpt lat="46.09422499066379" lon="12.255866550404797"><ele>816.9999999999999</ele><time>2026-03-29T11:42:37Z</time></trkpt><trkpt lat="46.09416684010604" lon="12.25583066993397"><ele>817.0</ele><time>2026-03-29T11:42:38Z</time></trkpt><trkpt lat="46.09407867353197" lon="12.2557525966944"><ele>817.0</ele><time>2026-03-29T11:42:40Z</time></trkpt><trkpt lat="46.094049419392874" lon="12.255604894328604"><ele>817.0</ele><time>2026-03-29T11:42:42Z</time></trkpt><trkpt lat="46.09406320969508" lon="12.255494622745061"><ele>816.9999999999999</ele><time>2026-03-29T11:42:43Z</time></trkpt><trkpt lat="46.094092158291566" lon="12.255382518207787"><ele>817.0</ele><time>2026-03-29T11:42:44Z</time></trkpt><trkpt lat="46.09413822137004" lon="12.255268447415476"><ele>815.0</ele><time>2026-03-29T11:42:45Z</time></trkpt><trkpt lat="46.09418686842735" lon="12.255137522930108"><ele>813.0</ele><time>2026-03-29T11:42:46Z</time></trkpt><trkpt lat="46.094239079601394" lon="12.25500057371208"><ele>811.0</ele><time>2026-03-29T11:42:47Z</time></trkpt><trkpt lat="46.094292439924665" lon="12.254866213965151"><ele>809.0</ele><time>2026-03-29T11:42:48Z</time></trkpt><trkpt lat="46.09433956445644" lon="12.254734578658098"><ele>807.0</ele><time>2026-03-29T11:42:49Z</time></trkpt><trkpt lat="46.09438122039191" lon="12.254610518974896"><ele>803.0</ele><time>2026-03-29T11:42:50Z</time></trkpt><trkpt lat="46.09442738587285" lon="12.25449448797444"><ele>799.0</ele><time>2026-03-29T11:42:51Z</time></trkpt><trkpt lat="46.09447148471164" lon="12.2543754064949"><ele>795.0</ele><time>2026-03-29T11:42:52Z</time></trkpt><trkpt lat="46.094519220426136" lon="12.254263708745256"><ele>791.0</ele><time>2026-03-29T11:42:53Z</time></trkpt><trkpt lat="46.094563056540565" lon="12.254153235551998"><ele>787.0</ele><time>2026-03-29T11:42:54Z</time></trkpt><trkpt lat="46.094614298307924" lon="12.254044047916972"><ele>787.4999999999999</ele><time>2026-03-29T11:42:55Z</time></trkpt><trkpt lat="46.09467808394096" lon="12.253951425802219"><ele>788.0</ele><time>2026-03-29T11:42:56Z</time></trkpt><trkpt lat="46.09473646998979" lon="12.25387303981837"><ele>788.5</ele><time>2026-03-29T11:42:57Z</time></trkpt><trkpt lat="46.0947902349187" lon="12.253808229608095"><ele>789.0</ele><time>2026-03-29T11:42:58Z</time></trkpt><trkpt lat="46.09486443916832" lon="12.253762305844058"><ele>789.4999999999999</ele><time>2026-03-29T11:42:59Z</time></trkpt><trkpt lat="46.09492863981618" lon="12.253729475653923"><ele>790.0</ele><time>2026-03-29T11:43:00.001Z</time></trkpt><trkpt lat="46.094997124622765" lon="12.253676225834433"><ele>790.0</ele><time>2026-03-29T11:43:01.001Z</time></trkpt><trkpt lat="46.09504195868554" lon="12.253593542446978"><ele>790.0</ele><time>2026-03-29T11:43:02.001Z</time></trkpt><trkpt lat="46.095084044779156" lon="12.253502193904204"><ele>790.0</ele><time>2026-03-29T11:43:03.001Z</time></trkpt><trkpt lat="46.09515804922275" lon="12.25333918378078"><ele>790.0</ele><time>2026-03-29T11:43:05.001Z</time></trkpt><trkpt lat="46.095198293387774" lon="12.253263820417766"><ele>790.0</ele><time>2026-03-29T11:43:06.001Z</time></trkpt><trkpt lat="46.09530888662588" lon="12.253220391350718"><ele>790.0</ele><time>2026-03-29T11:43:08.001Z</time></trkpt><trkpt lat="46.09539665197349" lon="12.253263052865458"><ele>790.0</ele><time>2026-03-29T11:43:09.001Z</time></trkpt><trkpt lat="46.09549583467792" lon="12.253270815905134"><ele>790.0</ele><time>2026-03-29T11:43:10.001Z</time></trkpt><trkpt lat="46.09558031849101" lon="12.25322827557402"><ele>790.0</ele><time>2026-03-29T11:43:11.001Z</time></trkpt><trkpt lat="46.095663398803396" lon="12.253187069863852"><ele>790.0</ele><time>2026-03-29T11:43:12.001Z</time></trkpt><trkpt lat="46.09574334906683" lon="12.253153887357307"><ele>789.5714285714286</ele><time>2026-03-29T11:43:13.001Z</time></trkpt><trkpt lat="46.09581543116023" lon="12.253156078401709"><ele>789.1428571428572</ele><time>2026-03-29T11:43:14.001Z</time></trkpt><trkpt lat="46.095893888104634" lon="12.253155406166618"><ele>788.7142857142858</ele><time>2026-03-29T11:43:15.001Z</time></trkpt><trkpt lat="46.095951364358704" lon="12.253102468857362"><ele>788.2857142857142</ele><time>2026-03-29T11:43:16.001Z</time></trkpt><trkpt lat="46.096006992829096" lon="12.25302441156448"><ele>787.8571428571429</ele><time>2026-03-29T11:43:17.001Z</time></trkpt><trkpt lat="46.096065650376566" lon="12.25295675733095"><ele>787.4285714285714</ele><time>2026-03-29T11:43:18.001Z</time></trkpt><trkpt lat="46.09612072830259" lon="12.25289898650099"><ele>787.0</ele><time>2026-03-29T11:43:19.001Z</time></trkpt><trkpt lat="46.096179314731515" lon="12.25285726292765"><ele>784.3333333333333</ele><time>2026-03-29T11:43:20.001Z</time></trkpt><trkpt lat="46.09621834906306" lon="12.25277109107182"><ele>781.6666666666666</ele><time>2026-03-29T11:43:22.001Z</time></trkpt><trkpt lat="46.09617373444451" lon="12.25270639822249"><ele>779.0</ele><time>2026-03-29T11:43:24.001Z</time></trkpt><trkpt lat="46.09608754964451" lon="12.252704433913147"><ele>776.3333333333333</ele><time>2026-03-29T11:43:26.001Z</time></trkpt><trkpt lat="46.095967424605874" lon="12.252735915218192"><ele>773.6666666666666</ele><time>2026-03-29T11:43:28.001Z</time></trkpt><trkpt lat="46.09588804894912" lon="12.252719578302331"><ele>771.0</ele><time>2026-03-29T11:43:29.001Z</time></trkpt><trkpt lat="46.095803609600246" lon="12.252635109838192"><ele>770.4</ele><time>2026-03-29T11:43:31.001Z</time></trkpt><trkpt lat="46.095749037515596" lon="12.25247316194153"><ele>769.8</ele><time>2026-03-29T11:43:33.001Z</time></trkpt><trkpt lat="46.095686233062736" lon="12.252322611642143"><ele>769.1999999999999</ele><time>2026-03-29T11:43:35.001Z</time></trkpt><trkpt lat="46.0956804756469" lon="12.252206675035094"><ele>768.5999999999999</ele><time>2026-03-29T11:43:37.001Z</time></trkpt><trkpt lat="46.09570381507817" lon="12.252117062501497"><ele>768.0</ele><time>2026-03-29T11:43:39.001Z</time></trkpt><trkpt lat="46.09577855322078" lon="12.252075288679038"><ele>768.5</ele><time>2026-03-29T11:43:41.001Z</time></trkpt><trkpt lat="46.09584968975348" lon="12.25211633336736"><ele>769.0</ele><time>2026-03-29T11:43:43.001Z</time></trkpt><trkpt lat="46.09589216845456" lon="12.252219397662348"><ele>769.5</ele><time>2026-03-29T11:43:45.001Z</time></trkpt><trkpt lat="46.09594822501032" lon="12.252294997429107"><ele>770.0</ele><time>2026-03-29T11:43:46.999Z</time></trkpt><trkpt lat="46.09603231951972" lon="12.252253812442572"><ele>770.5</ele><time>2026-03-29T11:43:48.999Z</time></trkpt><trkpt lat="46.09608472844157" lon="12.252197242732311"><ele>771.0</ele><time>2026-03-29T11:43:49.999Z</time></trkpt><trkpt lat="46.09612573354967" lon="12.252111232146838"><ele>768.1666666666666</ele><time>2026-03-29T11:43:50.999Z</time></trkpt><trkpt lat="46.09616383753474" lon="12.252001534912914"><ele>765.3333333333334</ele><time>2026-03-29T11:43:52Z</time></trkpt><trkpt lat="46.0962008849048" lon="12.251926275651172"><ele>762.5</ele><time>2026-03-29T11:43:53Z</time></trkpt><trkpt lat="46.09626582080266" lon="12.251807700486651"><ele>759.6666666666667</ele><time>2026-03-29T11:43:55Z</time></trkpt><trkpt lat="46.09633145079831" lon="12.251773830366117"><ele>756.8333333333334</ele><time>2026-03-29T11:43:56Z</time></trkpt><trkpt lat="46.096424551467855" lon="12.251736562331024"><ele>754.0</ele><time>2026-03-29T11:43:57Z</time></trkpt><trkpt lat="46.09652508284356" lon="12.251692344356044"><ele>753.4000000000001</ele><time>2026-03-29T11:43:58Z</time></trkpt><trkpt lat="46.09661465149667" lon="12.251653150183639"><ele>752.8</ele><time>2026-03-29T11:43:59Z</time></trkpt><trkpt lat="46.09668651770598" lon="12.251613071112441"><ele>752.2</ele><time>2026-03-29T11:44:00Z</time></trkpt><trkpt lat="46.09674764045075" lon="12.251569681441042"><ele>751.5999999999999</ele><time>2026-03-29T11:44:01Z</time></trkpt><trkpt lat="46.09687219194998" lon="12.25157074586695"><ele>751.0</ele><time>2026-03-29T11:44:03Z</time></trkpt><trkpt lat="46.096957495217545" lon="12.251605402773732"><ele>751.0</ele><time>2026-03-29T11:44:04Z</time></trkpt><trkpt lat="46.09702407327092" lon="12.251650019029977"><ele>751.0</ele><time>2026-03-29T11:44:05Z</time></trkpt><trkpt lat="46.09714081623688" lon="12.251610333137613"><ele>751.0</ele><time>2026-03-29T11:44:07Z</time></trkpt><trkpt lat="46.09720067881611" lon="12.251521748417751"><ele>751.0</ele><time>2026-03-29T11:44:08Z</time></trkpt><trkpt lat="46.09724590963563" lon="12.251454472072886"><ele>751.0</ele><time>2026-03-29T11:44:09Z</time></trkpt><trkpt lat="46.09737178578466" lon="12.251414893668471"><ele>748.5999999999999</ele><time>2026-03-29T11:44:11Z</time></trkpt><trkpt lat="46.09745520860262" lon="12.2514427183429"><ele>746.2</ele><time>2026-03-29T11:44:12Z</time></trkpt><trkpt lat="46.097544804658206" lon="12.251491706951942"><ele>743.8</ele><time>2026-03-29T11:44:13Z</time></trkpt><trkpt lat="46.097629756429896" lon="12.251513646365831"><ele>741.4000000000001</ele><time>2026-03-29T11:44:14Z</time></trkpt><trkpt lat="46.09772561721256" lon="12.251496300896985"><ele>739.0</ele><time>2026-03-29T11:44:15Z</time></trkpt><trkpt lat="46.09782938989674" lon="12.251486121077267"><ele>739.0</ele><time>2026-03-29T11:44:16Z</time></trkpt><trkpt lat="46.09792486862648" lon="12.251494595504075"><ele>739.0</ele><time>2026-03-29T11:44:17Z</time></trkpt><trkpt lat="46.098029014564126" lon="12.251499271632701"><ele>739.0</ele><time>2026-03-29T11:44:18Z</time></trkpt><trkpt lat="46.09812692757402" lon="12.251494074804512"><ele>739.0</ele><time>2026-03-29T11:44:19Z</time></trkpt><trkpt lat="46.09822375495799" lon="12.251496669677723"><ele>739.0</ele><time>2026-03-29T11:44:20Z</time></trkpt><trkpt lat="46.09832753802291" lon="12.251500023825109"><ele>737.6</ele><time>2026-03-29T11:44:21Z</time></trkpt><trkpt lat="46.0984247442404" lon="12.25149250139669"><ele>736.2</ele><time>2026-03-29T11:44:22Z</time></trkpt><trkpt lat="46.0985188696593" lon="12.251502708651156"><ele>734.8000000000001</ele><time>2026-03-29T11:44:23Z</time></trkpt><trkpt lat="46.09861256027844" lon="12.25150870534539"><ele>733.4000000000001</ele><time>2026-03-29T11:44:24Z</time></trkpt><trkpt lat="46.09870597912117" lon="12.251527383247918"><ele>732.0</ele><time>2026-03-29T11:44:25Z</time></trkpt><trkpt lat="46.09879734377727" lon="12.251548015792228"><ele>732.0</ele><time>2026-03-29T11:44:26Z</time></trkpt><trkpt lat="46.09887585934113" lon="12.251564896739412"><ele>732.0</ele><time>2026-03-29T11:44:27Z</time></trkpt><trkpt lat="46.098941831563685" lon="12.251593307269411"><ele>732.0</ele><time>2026-03-29T11:44:28Z</time></trkpt><trkpt lat="46.09900168070053" lon="12.251637702226745"><ele>732.0</ele><time>2026-03-29T11:44:29Z</time></trkpt><trkpt lat="46.09905754039212" lon="12.251699479968783"><ele>732.0</ele><time>2026-03-29T11:44:30Z</time></trkpt><trkpt lat="46.0991017176916" lon="12.251769500356756"><ele>732.0</ele><time>2026-03-29T11:44:31Z</time></trkpt><trkpt lat="46.099220801149706" lon="12.251809798224519"><ele>729.4000000000001</ele><time>2026-03-29T11:44:33Z</time></trkpt><trkpt lat="46.09929643293627" lon="12.251804456988744"><ele>726.8000000000001</ele><time>2026-03-29T11:44:34Z</time></trkpt><trkpt lat="46.099393194583065" lon="12.251759780516029"><ele>724.2</ele><time>2026-03-29T11:44:35Z</time></trkpt><trkpt lat="46.099481864103524" lon="12.251715572000862"><ele>721.6</ele><time>2026-03-29T11:44:36Z</time></trkpt><trkpt lat="46.09957443153029" lon="12.251670951887977"><ele>719.0</ele><time>2026-03-29T11:44:37Z</time></trkpt><trkpt lat="46.09965696658511" lon="12.251599269286436"><ele>719.0</ele><time>2026-03-29T11:44:38Z</time></trkpt><trkpt lat="46.099722310696585" lon="12.251520199323586"><ele>719.0</ele><time>2026-03-29T11:44:39Z</time></trkpt><trkpt lat="46.09977474416694" lon="12.251438752826674"><ele>719.0</ele><time>2026-03-29T11:44:40Z</time></trkpt><trkpt lat="46.09982742900579" lon="12.25138217297839"><ele>719.0</ele><time>2026-03-29T11:44:41Z</time></trkpt><trkpt lat="46.09994720175166" lon="12.25128445392684"><ele>719.0</ele><time>2026-03-29T11:44:43Z</time></trkpt><trkpt lat="46.10003307509465" lon="12.2512419962388"><ele>714.0</ele><time>2026-03-29T11:44:44Z</time></trkpt><trkpt lat="46.10010874121695" lon="12.251198341146955"><ele>709.0</ele><time>2026-03-29T11:44:45Z</time></trkpt><trkpt lat="46.100192843393465" lon="12.251167673945465"><ele>704.0</ele><time>2026-03-29T11:44:46Z</time></trkpt><trkpt lat="46.10025719381824" lon="12.2511443607959"><ele>699.0</ele><time>2026-03-29T11:44:47Z</time></trkpt><trkpt lat="46.10033353378175" lon="12.251070623417604"><ele>694.0</ele><time>2026-03-29T11:44:49Z</time></trkpt><trkpt lat="46.10030088182052" lon="12.250991779823382"><ele>689.0</ele><time>2026-03-29T11:44:51Z</time></trkpt><trkpt lat="46.10020873887667" lon="12.250957686065933"><ele>689.0</ele><time>2026-03-29T11:44:53Z</time></trkpt><trkpt lat="46.1001448067133" lon="12.250982126841846"><ele>689.0</ele><time>2026-03-29T11:44:54Z</time></trkpt><trkpt lat="46.10003584005914" lon="12.250985225639651"><ele>689.0</ele><time>2026-03-29T11:44:56Z</time></trkpt><trkpt lat="46.099914919494296" lon="12.250993927920689"><ele>689.0</ele><time>2026-03-29T11:44:58Z</time></trkpt><trkpt lat="46.09984972322563" lon="12.250995419169055"><ele>689.0</ele><time>2026-03-29T11:44:59Z</time></trkpt><trkpt lat="46.09973054058535" lon="12.250974684532748"><ele>690.2</ele><time>2026-03-29T11:45:01.001Z</time></trkpt><trkpt lat="46.09969240243054" lon="12.25087575654974"><ele>691.4000000000001</ele><time>2026-03-29T11:45:03.001Z</time></trkpt><trkpt lat="46.099775189146136" lon="12.25073799820215"><ele>692.6</ele><time>2026-03-29T11:45:05.001Z</time></trkpt><trkpt lat="46.09984498350162" lon="12.250687421812113"><ele>693.8</ele><time>2026-03-29T11:45:06.001Z</time></trkpt><trkpt lat="46.099924229973254" lon="12.250610324279728"><ele>695.0</ele><time>2026-03-29T11:45:07.001Z</time></trkpt><trkpt lat="46.10000555271731" lon="12.250524707643802"><ele>690.6666666666666</ele><time>2026-03-29T11:45:08.001Z</time></trkpt><trkpt lat="46.100074454930414" lon="12.250428716899465"><ele>686.3333333333333</ele><time>2026-03-29T11:45:09.001Z</time></trkpt><trkpt lat="46.100123389306624" lon="12.250333557953343"><ele>682.0</ele><time>2026-03-29T11:45:10.001Z</time></trkpt><trkpt lat="46.10015969641231" lon="12.250226870438654"><ele>677.6666666666666</ele><time>2026-03-29T11:45:11.001Z</time></trkpt><trkpt lat="46.10018826117238" lon="12.250114889042319"><ele>673.3333333333334</ele><time>2026-03-29T11:45:12.001Z</time></trkpt><trkpt lat="46.10021510859612" lon="12.249999787936535"><ele>669.0</ele><time>2026-03-29T11:45:13.001Z</time></trkpt><trkpt lat="46.10022773915615" lon="12.249879905032584"><ele>667.8333333333334</ele><time>2026-03-29T11:45:14.001Z</time></trkpt><trkpt lat="46.100232036748714" lon="12.24975671013805"><ele>666.6666666666666</ele><time>2026-03-29T11:45:15.001Z</time></trkpt><trkpt lat="46.100236687425856" lon="12.249631337889374"><ele>665.5</ele><time>2026-03-29T11:45:16.001Z</time></trkpt><trkpt lat="46.10024893641257" lon="12.249507143197274"><ele>664.3333333333333</ele><time>2026-03-29T11:45:17.001Z</time></trkpt><trkpt lat="46.100257555908335" lon="12.24938147653035"><ele>663.1666666666666</ele><time>2026-03-29T11:45:18.001Z</time></trkpt><trkpt lat="46.100267283954366" lon="12.24926049855698"><ele>662.0</ele><time>2026-03-29T11:45:19.001Z</time></trkpt><trkpt lat="46.10027547619753" lon="12.249138918223228"><ele>662.0</ele><time>2026-03-29T11:45:20.001Z</time></trkpt><trkpt lat="46.100285369309596" lon="12.2490138190188"><ele>662.0</ele><time>2026-03-29T11:45:21.001Z</time></trkpt><trkpt lat="46.100297792533226" lon="12.248890673877938"><ele>662.0</ele><time>2026-03-29T11:45:22.001Z</time></trkpt><trkpt lat="46.100312525892754" lon="12.248767135886196"><ele>662.0</ele><time>2026-03-29T11:45:23.001Z</time></trkpt><trkpt lat="46.10033732255643" lon="12.248645961846885"><ele>662.0</ele><time>2026-03-29T11:45:24.001Z</time></trkpt><trkpt lat="46.10038184917396" lon="12.248534327878135"><ele>662.0</ele><time>2026-03-29T11:45:25.001Z</time></trkpt><trkpt lat="46.10044134845534" lon="12.248440766963244"><ele>660.2</ele><time>2026-03-29T11:45:26.001Z</time></trkpt><trkpt lat="46.100496356635205" lon="12.248368871154533"><ele>658.4000000000001</ele><time>2026-03-29T11:45:27.001Z</time></trkpt><trkpt lat="46.100594237111686" lon="12.248310370700365"><ele>656.5999999999999</ele><time>2026-03-29T11:45:29.001Z</time></trkpt><trkpt lat="46.10069344399221" lon="12.248387628459856"><ele>654.8</ele><time>2026-03-29T11:45:31.001Z</time></trkpt><trkpt lat="46.100778197709985" lon="12.248504550813013"><ele>653.0</ele><time>2026-03-29T11:45:33.001Z</time></trkpt><trkpt lat="46.1008924818607" lon="12.248508060678827"><ele>652.8333333333333</ele><time>2026-03-29T11:45:35.001Z</time></trkpt><trkpt lat="46.10095983385958" lon="12.248453268976325"><ele>652.6666666666666</ele><time>2026-03-29T11:45:36.001Z</time></trkpt><trkpt lat="46.10103200579262" lon="12.248374074793222"><ele>652.5</ele><time>2026-03-29T11:45:37.001Z</time></trkpt><trkpt lat="46.10110481840233" lon="12.248290738945162"><ele>652.3333333333334</ele><time>2026-03-29T11:45:38.001Z</time></trkpt><trkpt lat="46.10118019303763" lon="12.248217410882182"><ele>652.1666666666667</ele><time>2026-03-29T11:45:39.001Z</time></trkpt><trkpt lat="46.10124560689584" lon="12.248156590845888"><ele>652.0</ele><time>2026-03-29T11:45:40.001Z</time></trkpt><trkpt lat="46.1013138822263" lon="12.248114713545633"><ele>652.0</ele><time>2026-03-29T11:45:41.001Z</time></trkpt><trkpt lat="46.10143559027245" lon="12.24815227744493"><ele>652.0</ele><time>2026-03-29T11:45:43.001Z</time></trkpt><trkpt lat="46.10148939325882" lon="12.248216088336926"><ele>652.0</ele><time>2026-03-29T11:45:44.001Z</time></trkpt><trkpt lat="46.10154305424338" lon="12.248286616356847"><ele>652.0</ele><time>2026-03-29T11:45:45.001Z</time></trkpt><trkpt lat="46.101605165535325" lon="12.248330662920923"><ele>652.0</ele><time>2026-03-29T11:45:46.001Z</time></trkpt><trkpt lat="46.101693375581384" lon="12.248329795719949"><ele>652.0</ele><time>2026-03-29T11:45:47.001Z</time></trkpt><trkpt lat="46.10179127240531" lon="12.248282834459564"><ele>650.8</ele><time>2026-03-29T11:45:48.001Z</time></trkpt><trkpt lat="46.10188175143735" lon="12.248179912427291"><ele>649.6</ele><time>2026-03-29T11:45:49.001Z</time></trkpt><trkpt lat="46.101974126374536" lon="12.248090717256753"><ele>648.4</ele><time>2026-03-29T11:45:50.001Z</time></trkpt><trkpt lat="46.10207393222964" lon="12.248003382442638"><ele>647.1999999999999</ele><time>2026-03-29T11:45:51.001Z</time></trkpt><trkpt lat="46.102161459612894" lon="12.247933854081944"><ele>646.0</ele><time>2026-03-29T11:45:52.001Z</time></trkpt><trkpt lat="46.1022444530175" lon="12.247876445698413"><ele>644.0</ele><time>2026-03-29T11:45:53Z</time></trkpt><trkpt lat="46.102325518429836" lon="12.247856039052579"><ele>642.0</ele><time>2026-03-29T11:45:54Z</time></trkpt><trkpt lat="46.10240841937994" lon="12.24786700900367"><ele>640.0</ele><time>2026-03-29T11:45:55Z</time></trkpt><trkpt lat="46.10248393735296" lon="12.247869009209772"><ele>638.0</ele><time>2026-03-29T11:45:56Z</time></trkpt><trkpt lat="46.1025437091806" lon="12.247824246072136"><ele>636.0</ele><time>2026-03-29T11:45:57Z</time></trkpt><trkpt lat="46.10258306429736" lon="12.247743266451304"><ele>634.0</ele><time>2026-03-29T11:45:58Z</time></trkpt><trkpt lat="46.102613604045295" lon="12.247618963711439"><ele>632.0</ele><time>2026-03-29T11:45:59Z</time></trkpt><trkpt lat="46.10264955714926" lon="12.247442153415987"><ele>630.0</ele><time>2026-03-29T11:46:00Z</time></trkpt><trkpt lat="46.102679286310604" lon="12.2472623089996"><ele>628.0</ele><time>2026-03-29T11:46:01Z</time></trkpt><trkpt lat="46.10270813866195" lon="12.24709859990889"><ele>626.0</ele><time>2026-03-29T11:46:02Z</time></trkpt><trkpt lat="46.10274726049069" lon="12.246935967203623"><ele>623.75</ele><time>2026-03-29T11:46:03Z</time></trkpt><trkpt lat="46.102790426244376" lon="12.246772859161798"><ele>621.5</ele><time>2026-03-29T11:46:04Z</time></trkpt><trkpt lat="46.102830203151306" lon="12.24660798185282"><ele>619.25</ele><time>2026-03-29T11:46:05Z</time></trkpt><trkpt lat="46.102872868561484" lon="12.246449022873284"><ele>617.0</ele><time>2026-03-29T11:46:06Z</time></trkpt><trkpt lat="46.102911437938616" lon="12.246291875462125"><ele>616.4</ele><time>2026-03-29T11:46:07Z</time></trkpt><trkpt lat="46.10294053822287" lon="12.246146074377677"><ele>615.8000000000001</ele><time>2026-03-29T11:46:08Z</time></trkpt><trkpt lat="46.10296767718247" lon="12.246013901409732"><ele>615.2</ele><time>2026-03-29T11:46:09Z</time></trkpt><trkpt lat="46.10298994986324" lon="12.24589405067648"><ele>614.6</ele><time>2026-03-29T11:46:10Z</time></trkpt><trkpt lat="46.103023106129214" lon="12.245783360656041"><ele>614.0</ele><time>2026-03-29T11:46:11Z</time></trkpt><trkpt lat="46.1030690932793" lon="12.245679886202684"><ele>612.8333333333333</ele><time>2026-03-29T11:46:12Z</time></trkpt><trkpt lat="46.1031175136284" lon="12.24557911314169"><ele>611.6666666666666</ele><time>2026-03-29T11:46:13Z</time></trkpt><trkpt lat="46.10316308331047" lon="12.245477140783333"><ele>610.5</ele><time>2026-03-29T11:46:14Z</time></trkpt><trkpt lat="46.1032013233121" lon="12.24537272703204"><ele>609.3333333333334</ele><time>2026-03-29T11:46:15Z</time></trkpt><trkpt lat="46.103225891393066" lon="12.245259500628128"><ele>608.1666666666667</ele><time>2026-03-29T11:46:16Z</time></trkpt><trkpt lat="46.10324017072336" lon="12.245145108036153"><ele>607.0</ele><time>2026-03-29T11:46:17Z</time></trkpt><trkpt lat="46.10324877454345" lon="12.245030999371274"><ele>607.0</ele><time>2026-03-29T11:46:18Z</time></trkpt><trkpt lat="46.10325904806435" lon="12.244916349177508"><ele>607.0</ele><time>2026-03-29T11:46:19Z</time></trkpt><trkpt lat="46.103262319644244" lon="12.244798699948902"><ele>607.0</ele><time>2026-03-29T11:46:20Z</time></trkpt><trkpt lat="46.10326874873749" lon="12.244680006790823"><ele>607.0</ele><time>2026-03-29T11:46:21Z</time></trkpt><trkpt lat="46.103277237630586" lon="12.244570346800952"><ele>607.0</ele><time>2026-03-29T11:46:22Z</time></trkpt><trkpt lat="46.10326992007892" lon="12.244400636043107"><ele>607.0</ele><time>2026-03-29T11:46:24Z</time></trkpt><trkpt lat="46.103220159885296" lon="12.244235991592884"><ele>605.5</ele><time>2026-03-29T11:46:26Z</time></trkpt><trkpt lat="46.103189859674835" lon="12.244152715983851"><ele>604.0</ele><time>2026-03-29T11:46:27Z</time></trkpt><trkpt lat="46.10316073775861" lon="12.244060079289193"><ele>602.5</ele><time>2026-03-29T11:46:28Z</time></trkpt><trkpt lat="46.10313064334576" lon="12.243962722806936"><ele>601.0</ele><time>2026-03-29T11:46:29Z</time></trkpt><trkpt lat="46.10308160891275" lon="12.243859769293898"><ele>599.5</ele><time>2026-03-29T11:46:30Z</time></trkpt><trkpt lat="46.10302232719374" lon="12.243772863131689"><ele>598.0</ele><time>2026-03-29T11:46:31Z</time></trkpt><trkpt lat="46.10296223447737" lon="12.243696320240097"><ele>597.0</ele><time>2026-03-29T11:46:32Z</time></trkpt><trkpt lat="46.10290353752211" lon="12.243614652305261"><ele>596.0</ele><time>2026-03-29T11:46:33Z</time></trkpt><trkpt lat="46.10284415662085" lon="12.243532486361426"><ele>595.0</ele><time>2026-03-29T11:46:34Z</time></trkpt><trkpt lat="46.10278352130028" lon="12.243451941227118"><ele>594.0</ele><time>2026-03-29T11:46:35Z</time></trkpt><trkpt lat="46.10271992200527" lon="12.243360136835818"><ele>593.0</ele><time>2026-03-29T11:46:36Z</time></trkpt><trkpt lat="46.10265069393568" lon="12.243264737665541"><ele>592.0</ele><time>2026-03-29T11:46:37Z</time></trkpt><trkpt lat="46.10258184317665" lon="12.24315984816475"><ele>590.6</ele><time>2026-03-29T11:46:38Z</time></trkpt><trkpt lat="46.102512037420276" lon="12.243055275796745"><ele>589.2</ele><time>2026-03-29T11:46:39Z</time></trkpt><trkpt lat="46.1024446076355" lon="12.242948084275493"><ele>587.8</ele><time>2026-03-29T11:46:40Z</time></trkpt><trkpt lat="46.10237689348203" lon="12.242845471873629"><ele>586.4</ele><time>2026-03-29T11:46:41Z</time></trkpt><trkpt lat="46.10231131455348" lon="12.242742697542443"><ele>585.0</ele><time>2026-03-29T11:46:42Z</time></trkpt><trkpt lat="46.10224619109435" lon="12.242640909489976"><ele>585.0</ele><time>2026-03-29T11:46:43Z</time></trkpt><trkpt lat="46.10217823028862" lon="12.24254454676066"><ele>585.0</ele><time>2026-03-29T11:46:44Z</time></trkpt><trkpt lat="46.10210464697254" lon="12.242462366341794"><ele>585.0</ele><time>2026-03-29T11:46:45Z</time></trkpt><trkpt lat="46.10202377643459" lon="12.242397196273265"><ele>585.0</ele><time>2026-03-29T11:46:46Z</time></trkpt><trkpt lat="46.101944327487494" lon="12.242338244956429"><ele>585.0</ele><time>2026-03-29T11:46:47Z</time></trkpt><trkpt lat="46.10187486699809" lon="12.24228769212272"><ele>585.0</ele><time>2026-03-29T11:46:48Z</time></trkpt><trkpt lat="46.101793164635076" lon="12.24218971400785"><ele>582.2</ele><time>2026-03-29T11:46:50Z</time></trkpt><trkpt lat="46.10179076619976" lon="12.242050427616558"><ele>579.4</ele><time>2026-03-29T11:46:52Z</time></trkpt><trkpt lat="46.10186354555422" lon="12.241928701686346"><ele>576.6</ele><time>2026-03-29T11:46:54Z</time></trkpt><trkpt lat="46.10192710739288" lon="12.24188064504667"><ele>573.8</ele><time>2026-03-29T11:46:55Z</time></trkpt><trkpt lat="46.102006557576" lon="12.241827444377641"><ele>571.0</ele><time>2026-03-29T11:46:56Z</time></trkpt><trkpt lat="46.10209611790377" lon="12.241772395589505"><ele>571.0</ele><time>2026-03-29T11:46:57Z</time></trkpt><trkpt lat="46.102196359108966" lon="12.24173030548142"><ele>571.0</ele><time>2026-03-29T11:46:58Z</time></trkpt><trkpt lat="46.10229815918483" lon="12.241694739648729"><ele>571.0</ele><time>2026-03-29T11:46:59.001Z</time></trkpt><trkpt lat="46.10239467620244" lon="12.241656320900326"><ele>571.0</ele><time>2026-03-29T11:47:00.001Z</time></trkpt><trkpt lat="46.102484993415935" lon="12.241618542983561"><ele>571.0</ele><time>2026-03-29T11:47:01.001Z</time></trkpt><trkpt lat="46.10257321277079" lon="12.241581964519558"><ele>570.0</ele><time>2026-03-29T11:47:02.001Z</time></trkpt><trkpt lat="46.102666979726486" lon="12.24155253270343"><ele>569.0</ele><time>2026-03-29T11:47:03.001Z</time></trkpt><trkpt lat="46.102755922649294" lon="12.24152299926379"><ele>568.0</ele><time>2026-03-29T11:47:04.001Z</time></trkpt><trkpt lat="46.10284470594265" lon="12.241497468526864"><ele>567.0</ele><time>2026-03-29T11:47:05.001Z</time></trkpt><trkpt lat="46.10293233014764" lon="12.241481631278592"><ele>566.0</ele><time>2026-03-29T11:47:06.001Z</time></trkpt><trkpt lat="46.103017907103506" lon="12.241468047743309"><ele>564.8333333333333</ele><time>2026-03-29T11:47:07.001Z</time></trkpt><trkpt lat="46.10309945532125" lon="12.24144725576144"><ele>563.6666666666666</ele><time>2026-03-29T11:47:08.001Z</time></trkpt><trkpt lat="46.10317368973996" lon="12.241406100995345"><ele>562.5</ele><time>2026-03-29T11:47:09.001Z</time></trkpt><trkpt lat="46.103245324347135" lon="12.241355077229672"><ele>561.3333333333334</ele><time>2026-03-29T11:47:10.001Z</time></trkpt><trkpt lat="46.10331162566743" lon="12.241294087534033"><ele>560.1666666666667</ele><time>2026-03-29T11:47:11.001Z</time></trkpt><trkpt lat="46.10337015752377" lon="12.241218608606438"><ele>559.0</ele><time>2026-03-29T11:47:12.001Z</time></trkpt><trkpt lat="46.10342175920533" lon="12.241136638321048"><ele>558.3333333333334</ele><time>2026-03-29T11:47:13.001Z</time></trkpt><trkpt lat="46.10347685263222" lon="12.241034528501059"><ele>557.6666666666667</ele><time>2026-03-29T11:47:14.001Z</time></trkpt><trkpt lat="46.10352360934351" lon="12.240932610896605"><ele>557.0</ele><time>2026-03-29T11:47:15.001Z</time></trkpt><trkpt lat="46.103557073249355" lon="12.24082704271471"><ele>556.3333333333334</ele><time>2026-03-29T11:47:16.001Z</time></trkpt><trkpt lat="46.103574731067056" lon="12.240721030366714"><ele>555.6666666666666</ele><time>2026-03-29T11:47:17.001Z</time></trkpt><trkpt lat="46.1035877156875" lon="12.24061009266764"><ele>555.0</ele><time>2026-03-29T11:47:18.001Z</time></trkpt><trkpt lat="46.10359059592978" lon="12.240487499344919"><ele>554.0</ele><time>2026-03-29T11:47:19.001Z</time></trkpt><trkpt lat="46.103579169353715" lon="12.240359780930296"><ele>553.0</ele><time>2026-03-29T11:47:20.001Z</time></trkpt><trkpt lat="46.103565170718085" lon="12.240227311923295"><ele>552.0</ele><time>2026-03-29T11:47:21.001Z</time></trkpt><trkpt lat="46.1035358698397" lon="12.24009886956089"><ele>551.0</ele><time>2026-03-29T11:47:22.001Z</time></trkpt><trkpt lat="46.10350126293466" lon="12.239966763820414"><ele>550.0</ele><time>2026-03-29T11:47:23.001Z</time></trkpt><trkpt lat="46.10345819030604" lon="12.239825563181087"><ele>549.6</ele><time>2026-03-29T11:47:24.001Z</time></trkpt><trkpt lat="46.10340388697133" lon="12.239690898304907"><ele>549.2</ele><time>2026-03-29T11:47:25.001Z</time></trkpt><trkpt lat="46.10334359223755" lon="12.23957230695956"><ele>548.8</ele><time>2026-03-29T11:47:26.001Z</time></trkpt><trkpt lat="46.103284551113475" lon="12.239469509966778"><ele>548.4</ele><time>2026-03-29T11:47:27.001Z</time></trkpt><trkpt lat="46.10321412557783" lon="12.239385302526852"><ele>548.0</ele><time>2026-03-29T11:47:28.001Z</time></trkpt><trkpt lat="46.1031397161969" lon="12.239300439788018"><ele>548.0</ele><time>2026-03-29T11:47:29.001Z</time></trkpt><trkpt lat="46.1030696512675" lon="12.239224389202036"><ele>548.0</ele><time>2026-03-29T11:47:30.001Z</time></trkpt><trkpt lat="46.10300256425179" lon="12.239154872909479"><ele>548.0</ele><time>2026-03-29T11:47:31.001Z</time></trkpt><trkpt lat="46.10294279322667" lon="12.239097923961323"><ele>548.0</ele><time>2026-03-29T11:47:32.001Z</time></trkpt><trkpt lat="46.102884474541" lon="12.239054934023478"><ele>548.0</ele><time>2026-03-29T11:47:33.001Z</time></trkpt><trkpt lat="46.102821575109004" lon="12.239028228286852"><ele>548.0</ele><time>2026-03-29T11:47:34.001Z</time></trkpt><trkpt lat="46.1027189833603" lon="12.238982892807485"><ele>547.1999999999999</ele><time>2026-03-29T11:47:36.001Z</time></trkpt><trkpt lat="46.10264628196903" lon="12.238953265172977"><ele>546.4</ele><time>2026-03-29T11:47:38.001Z</time></trkpt><trkpt lat="46.10256840428572" lon="12.238884486140519"><ele>545.5999999999999</ele><time>2026-03-29T11:47:40.001Z</time></trkpt><trkpt lat="46.102489208534834" lon="12.238801768907893"><ele>544.8</ele><time>2026-03-29T11:47:42.001Z</time></trkpt><trkpt lat="46.102450868264754" lon="12.238685353779138"><ele>544.0</ele><time>2026-03-29T11:47:44.001Z</time></trkpt><trkpt lat="46.1025148761339" lon="12.238512833644172"><ele>544.0</ele><time>2026-03-29T11:47:46.001Z</time></trkpt><trkpt lat="46.10256851498837" lon="12.238403234639923"><ele>544.0</ele><time>2026-03-29T11:47:47.001Z</time></trkpt><trkpt lat="46.10262492293801" lon="12.238288299545363"><ele>544.0</ele><time>2026-03-29T11:47:48.001Z</time></trkpt><trkpt lat="46.10267249693896" lon="12.238184795283734"><ele>544.0</ele><time>2026-03-29T11:47:49.001Z</time></trkpt><trkpt lat="46.102714091824126" lon="12.238093836349867"><ele>544.0</ele><time>2026-03-29T11:47:50.001Z</time></trkpt><trkpt lat="46.102751715599695" lon="12.238016511942604"><ele>544.0</ele><time>2026-03-29T11:47:51.001Z</time></trkpt><trkpt lat="46.10280400958925" lon="12.237963698705991"><ele>544.0</ele><time>2026-03-29T11:47:52.001Z</time></trkpt><trkpt lat="46.10286659435696" lon="12.237952389896128"><ele>544.0</ele><time>2026-03-29T11:47:53.001Z</time></trkpt><trkpt lat="46.10294791197123" lon="12.237976998273849"><ele>544.0</ele><time>2026-03-29T11:47:54.001Z</time></trkpt><trkpt lat="46.10302829041529" lon="12.23803300207752"><ele>544.0</ele><time>2026-03-29T11:47:55.001Z</time></trkpt><trkpt lat="46.10311766900077" lon="12.238102186419532"><ele>544.0</ele><time>2026-03-29T11:47:56.001Z</time></trkpt><trkpt lat="46.103217321128184" lon="12.238156134663672"><ele>544.0</ele><time>2026-03-29T11:47:57.001Z</time></trkpt><trkpt lat="46.10333044803831" lon="12.238196936277127"><ele>542.25</ele><time>2026-03-29T11:47:58.001Z</time></trkpt><trkpt lat="46.10344410312079" lon="12.238237803726692"><ele>540.5</ele><time>2026-03-29T11:47:59Z</time></trkpt><trkpt lat="46.1035603636682" lon="12.23827241110331"><ele>538.75</ele><time>2026-03-29T11:48:00Z</time></trkpt><trkpt lat="46.1036814525801" lon="12.238309248455373"><ele>537.0</ele><time>2026-03-29T11:48:01Z</time></trkpt><trkpt lat="46.10380123628405" lon="12.238349681948616"><ele>537.0</ele><time>2026-03-29T11:48:02Z</time></trkpt><trkpt lat="46.10391636433898" lon="12.2383874987022"><ele>537.0</ele><time>2026-03-29T11:48:03Z</time></trkpt><trkpt lat="46.10403020273403" lon="12.238422626319561"><ele>537.0</ele><time>2026-03-29T11:48:04Z</time></trkpt><trkpt lat="46.10414000350132" lon="12.238465838868626"><ele>537.0</ele><time>2026-03-29T11:48:05Z</time></trkpt><trkpt lat="46.104247575463475" lon="12.238503040890079"><ele>534.8000000000001</ele><time>2026-03-29T11:48:06Z</time></trkpt><trkpt lat="46.10435351107748" lon="12.23853911039192"><ele>532.6</ele><time>2026-03-29T11:48:07Z</time></trkpt><trkpt lat="46.104459872179625" lon="12.238572785611066"><ele>530.4000000000001</ele><time>2026-03-29T11:48:08Z</time></trkpt><trkpt lat="46.10456338065584" lon="12.23860117033032"><ele>528.2</ele><time>2026-03-29T11:48:09Z</time></trkpt><trkpt lat="46.10467055594025" lon="12.238628420059825"><ele>526.0</ele><time>2026-03-29T11:48:10Z</time></trkpt><trkpt lat="46.10478128404739" lon="12.238664806067353"><ele>526.0</ele><time>2026-03-29T11:48:11Z</time></trkpt><trkpt lat="46.10489551277064" lon="12.23870517345226"><ele>526.0</ele><time>2026-03-29T11:48:12Z</time></trkpt><trkpt lat="46.10501288202644" lon="12.238745207448227"><ele>526.0</ele><time>2026-03-29T11:48:13Z</time></trkpt><trkpt lat="46.10513110633869" lon="12.238781874453593"><ele>526.0</ele><time>2026-03-29T11:48:14Z</time></trkpt><trkpt lat="46.10524720524748" lon="12.23882193027973"><ele>525.0</ele><time>2026-03-29T11:48:15Z</time></trkpt><trkpt lat="46.105359377107014" lon="12.238854569248458"><ele>524.0</ele><time>2026-03-29T11:48:16Z</time></trkpt><trkpt lat="46.1054673239778" lon="12.238872011071287"><ele>523.0</ele><time>2026-03-29T11:48:17Z</time></trkpt><trkpt lat="46.10557361559378" lon="12.238877194998121"><ele>522.0</ele><time>2026-03-29T11:48:18Z</time></trkpt><trkpt lat="46.105681465702624" lon="12.238873152624432"><ele>521.0</ele><time>2026-03-29T11:48:19Z</time></trkpt><trkpt lat="46.105796261010106" lon="12.23886170670854"><ele>519.75</ele><time>2026-03-29T11:48:20Z</time></trkpt><trkpt lat="46.105917195046885" lon="12.238845237175838"><ele>518.5</ele><time>2026-03-29T11:48:21Z</time></trkpt><trkpt lat="46.106041522903894" lon="12.238819019684643"><ele>517.25</ele><time>2026-03-29T11:48:22Z</time></trkpt><trkpt lat="46.1061631409609" lon="12.2387867137611"><ele>516.0</ele><time>2026-03-29T11:48:23Z</time></trkpt><trkpt lat="46.10628834721241" lon="12.238763202768377"><ele>516.0</ele><time>2026-03-29T11:48:24Z</time></trkpt><trkpt lat="46.10641204899797" lon="12.238737636321853"><ele>516.0</ele><time>2026-03-29T11:48:25Z</time></trkpt><trkpt lat="46.10653895713342" lon="12.238722752827886"><ele>516.0</ele><time>2026-03-29T11:48:26Z</time></trkpt><trkpt lat="46.106664157750025" lon="12.23872258027913"><ele>516.0</ele><time>2026-03-29T11:48:27Z</time></trkpt><trkpt lat="46.10679198398697" lon="12.238723815147639"><ele>512.5</ele><time>2026-03-29T11:48:28Z</time></trkpt><trkpt lat="46.10691626633475" lon="12.238759651317878"><ele>509.0</ele><time>2026-03-29T11:48:29Z</time></trkpt><trkpt lat="46.10703618420212" lon="12.238816103549"><ele>505.5</ele><time>2026-03-29T11:48:30Z</time></trkpt><trkpt lat="46.10715242820672" lon="12.238884044373389"><ele>502.0</ele><time>2026-03-29T11:48:31Z</time></trkpt><trkpt lat="46.10726611109502" lon="12.238954051764397"><ele>501.5</ele><time>2026-03-29T11:48:32Z</time></trkpt><trkpt lat="46.1073765906812" lon="12.239026548801643"><ele>501.0</ele><time>2026-03-29T11:48:33Z</time></trkpt><trkpt lat="46.107485822367494" lon="12.239099912619993"><ele>500.5</ele><time>2026-03-29T11:48:34Z</time></trkpt><trkpt lat="46.10759556220361" lon="12.239166896118872"><ele>500.0</ele><time>2026-03-29T11:48:35Z</time></trkpt><trkpt lat="46.10770324830592" lon="12.239231405172143"><ele>500.0</ele><time>2026-03-29T11:48:36Z</time></trkpt><trkpt lat="46.10780873343141" lon="12.239297351215594"><ele>500.0</ele><time>2026-03-29T11:48:37Z</time></trkpt><trkpt lat="46.10791249741455" lon="12.23936121571626"><ele>500.0</ele><time>2026-03-29T11:48:38Z</time></trkpt><trkpt lat="46.108014784521274" lon="12.239427164274566"><ele>500.0</ele><time>2026-03-29T11:48:39Z</time></trkpt><trkpt lat="46.10811435200216" lon="12.239494436785499"><ele>500.0</ele><time>2026-03-29T11:48:40Z</time></trkpt><trkpt lat="46.10821296955936" lon="12.239558187298888"><ele>500.0</ele><time>2026-03-29T11:48:41Z</time></trkpt><trkpt lat="46.108311315792974" lon="12.239616384457246"><ele>500.0</ele><time>2026-03-29T11:48:42Z</time></trkpt><trkpt lat="46.108404640378225" lon="12.239680511843455"><ele>500.0</ele><time>2026-03-29T11:48:43Z</time></trkpt><trkpt lat="46.10849746698955" lon="12.239741818549767"><ele>500.0</ele><time>2026-03-29T11:48:44Z</time></trkpt><trkpt lat="46.10858907131357" lon="12.239798449815424"><ele>498.6</ele><time>2026-03-29T11:48:45Z</time></trkpt><trkpt lat="46.10867997221703" lon="12.23984271767286"><ele>497.2</ele><time>2026-03-29T11:48:46Z</time></trkpt><trkpt lat="46.1087700685038" lon="12.239866642556489"><ele>495.79999999999995</ele><time>2026-03-29T11:48:47.001Z</time></trkpt><trkpt lat="46.10886075708147" lon="12.23984807294499"><ele>494.4</ele><time>2026-03-29T11:48:48.001Z</time></trkpt><trkpt lat="46.10894446085636" lon="12.239796338360811"><ele>493.0</ele><time>2026-03-29T11:48:49.001Z</time></trkpt><trkpt lat="46.10901550483743" lon="12.23971445963093"><ele>491.2</ele><time>2026-03-29T11:48:50.001Z</time></trkpt><trkpt lat="46.109078525901424" lon="12.239614580385947"><ele>489.4</ele><time>2026-03-29T11:48:51.001Z</time></trkpt><trkpt lat="46.109136255592375" lon="12.239504521520079"><ele>487.59999999999997</ele><time>2026-03-29T11:48:52.001Z</time></trkpt><trkpt lat="46.1091975274917" lon="12.239393921780943"><ele>485.79999999999995</ele><time>2026-03-29T11:48:53.001Z</time></trkpt><trkpt lat="46.10926080177675" lon="12.239283011322204"><ele>484.0</ele><time>2026-03-29T11:48:54.001Z</time></trkpt><trkpt lat="46.10932714691013" lon="12.239170926598762"><ele>484.0</ele><time>2026-03-29T11:48:55.001Z</time></trkpt><trkpt lat="46.10939306951731" lon="12.239068376426653"><ele>484.0</ele><time>2026-03-29T11:48:56.001Z</time></trkpt><trkpt lat="46.10946168883036" lon="12.238974891437273"><ele>484.0</ele><time>2026-03-29T11:48:57.001Z</time></trkpt><trkpt lat="46.109540314325095" lon="12.238909130388409"><ele>484.0</ele><time>2026-03-29T11:48:58.001Z</time></trkpt><trkpt lat="46.10962496465157" lon="12.23888622381466"><ele>484.0</ele><time>2026-03-29T11:48:59.001Z</time></trkpt><trkpt lat="46.10971418531702" lon="12.238886495584682"><ele>483.6</ele><time>2026-03-29T11:49:00.001Z</time></trkpt><trkpt lat="46.109812369272426" lon="12.238886453605721"><ele>483.2</ele><time>2026-03-29T11:49:01.001Z</time></trkpt><trkpt lat="46.10991673857775" lon="12.238889517215137"><ele>482.80000000000007</ele><time>2026-03-29T11:49:02.001Z</time></trkpt><trkpt lat="46.110016248263435" lon="12.238905225523828"><ele>482.40000000000003</ele><time>2026-03-29T11:49:03.001Z</time></trkpt><trkpt lat="46.110105789025745" lon="12.238935640509034"><ele>482.0</ele><time>2026-03-29T11:49:04.001Z</time></trkpt><trkpt lat="46.11018440979633" lon="12.238989097709808"><ele>481.8</ele><time>2026-03-29T11:49:05.001Z</time></trkpt><trkpt lat="46.11025338397019" lon="12.239069886378182"><ele>481.6</ele><time>2026-03-29T11:49:06.001Z</time></trkpt><trkpt lat="46.110307583756516" lon="12.239174045632973"><ele>481.40000000000003</ele><time>2026-03-29T11:49:07.001Z</time></trkpt><trkpt lat="46.11036436710767" lon="12.239290482515306"><ele>481.20000000000005</ele><time>2026-03-29T11:49:08.001Z</time></trkpt><trkpt lat="46.11043001713541" lon="12.239406889548086"><ele>481.0</ele><time>2026-03-29T11:49:09.001Z</time></trkpt><trkpt lat="46.11050334730419" lon="12.239522546154994"><ele>481.0</ele><time>2026-03-29T11:49:10.001Z</time></trkpt><trkpt lat="46.11058632807508" lon="12.239627655576445"><ele>481.0</ele><time>2026-03-29T11:49:11.001Z</time></trkpt><trkpt lat="46.1106851318306" lon="12.239712671131702"><ele>481.0</ele><time>2026-03-29T11:49:12.001Z</time></trkpt><trkpt lat="46.11078767753326" lon="12.2397860929313"><ele>481.0</ele><time>2026-03-29T11:49:13.001Z</time></trkpt><trkpt lat="46.110884450800576" lon="12.23986903127617"><ele>480.0</ele><time>2026-03-29T11:49:14.001Z</time></trkpt><trkpt lat="46.110980890168406" lon="12.239941160804674"><ele>479.0</ele><time>2026-03-29T11:49:15.001Z</time></trkpt><trkpt lat="46.11107893316849" lon="12.239985852603073"><ele>478.0</ele><time>2026-03-29T11:49:16.001Z</time></trkpt><trkpt lat="46.111177145768565" lon="12.240007965891394"><ele>477.0</ele><time>2026-03-29T11:49:17.001Z</time></trkpt><trkpt lat="46.11127617468737" lon="12.240013240248611"><ele>476.0</ele><time>2026-03-29T11:49:18.001Z</time></trkpt><trkpt lat="46.111373098811704" lon="12.24000912087624"><ele>475.99999999999994</ele><time>2026-03-29T11:49:19.001Z</time></trkpt><trkpt lat="46.1114665879135" lon="12.239998554633337"><ele>476.0</ele><time>2026-03-29T11:49:20.001Z</time></trkpt><trkpt lat="46.11155351318754" lon="12.239993518078714"><ele>476.0</ele><time>2026-03-29T11:49:21.001Z</time></trkpt><trkpt lat="46.11163674854019" lon="12.239986709374385"><ele>476.0</ele><time>2026-03-29T11:49:22.001Z</time></trkpt><trkpt lat="46.11171711392686" lon="12.239968416908976"><ele>475.99999999999994</ele><time>2026-03-29T11:49:23.001Z</time></trkpt><trkpt lat="46.11179175388924" lon="12.239933472347278"><ele>476.0</ele><time>2026-03-29T11:49:24.001Z</time></trkpt><trkpt lat="46.111864465461416" lon="12.239875120904461"><ele>474.49999999999994</ele><time>2026-03-29T11:49:25.001Z</time></trkpt><trkpt lat="46.111942503599074" lon="12.239808566619221"><ele>473.0</ele><time>2026-03-29T11:49:26.001Z</time></trkpt><trkpt lat="46.11201784629704" lon="12.23974551575123"><ele>471.5</ele><time>2026-03-29T11:49:27.001Z</time></trkpt><trkpt lat="46.1120945544549" lon="12.239686003307474"><ele>470.0</ele><time>2026-03-29T11:49:28.001Z</time></trkpt><trkpt lat="46.11217537295625" lon="12.239639233893136"><ele>468.49999999999994</ele><time>2026-03-29T11:49:29.001Z</time></trkpt><trkpt lat="46.112260422386846" lon="12.239614908541668"><ele>467.0</ele><time>2026-03-29T11:49:30.001Z</time></trkpt><trkpt lat="46.11234803930097" lon="12.239625371453222"><ele>465.99999999999994</ele><time>2026-03-29T11:49:31.001Z</time></trkpt><trkpt lat="46.11243031257786" lon="12.239650293640898"><ele>465.0</ele><time>2026-03-29T11:49:32.001Z</time></trkpt><trkpt lat="46.112510624311774" lon="12.239685457560034"><ele>464.0</ele><time>2026-03-29T11:49:33.001Z</time></trkpt><trkpt lat="46.1125854036167" lon="12.23973869257447"><ele>463.0</ele><time>2026-03-29T11:49:34.001Z</time></trkpt><trkpt lat="46.112653581671886" lon="12.239807292151951"><ele>461.99999999999994</ele><time>2026-03-29T11:49:35.001Z</time></trkpt><trkpt lat="46.11272076492474" lon="12.239876919089562"><ele>461.0</ele><time>2026-03-29T11:49:36.001Z</time></trkpt><trkpt lat="46.11278905926917" lon="12.239945399992374"><ele>461.0</ele><time>2026-03-29T11:49:37.001Z</time></trkpt><trkpt lat="46.11286172603045" lon="12.240027245336929"><ele>461.0</ele><time>2026-03-29T11:49:38.001Z</time></trkpt><trkpt lat="46.112939381437684" lon="12.240124734075506"><ele>461.0</ele><time>2026-03-29T11:49:39.001Z</time></trkpt><trkpt lat="46.113021678973105" lon="12.240225911599817"><ele>461.0</ele><time>2026-03-29T11:49:40.001Z</time></trkpt><trkpt lat="46.113101152171424" lon="12.240328009551455"><ele>461.0</ele><time>2026-03-29T11:49:41.001Z</time></trkpt><trkpt lat="46.113175543004424" lon="12.240433101563594"><ele>460.4</ele><time>2026-03-29T11:49:42.001Z</time></trkpt><trkpt lat="46.11325761510544" lon="12.240523978633679"><ele>459.8</ele><time>2026-03-29T11:49:43.001Z</time></trkpt><trkpt lat="46.113340576205225" lon="12.240617317429304"><ele>459.19999999999993</ele><time>2026-03-29T11:49:44.001Z</time></trkpt><trkpt lat="46.11342909033646" lon="12.240708911665246"><ele>458.59999999999997</ele><time>2026-03-29T11:49:45.001Z</time></trkpt><trkpt lat="46.113514479079136" lon="12.240806129597177"><ele>458.0</ele><time>2026-03-29T11:49:46.001Z</time></trkpt><trkpt lat="46.113605759203175" lon="12.240896916057828"><ele>458.0</ele><time>2026-03-29T11:49:47.001Z</time></trkpt><trkpt lat="46.113700843454374" lon="12.240977439627105"><ele>457.99999999999994</ele><time>2026-03-29T11:49:48.001Z</time></trkpt><trkpt lat="46.11379574175604" lon="12.241051935575234"><ele>457.99999999999994</ele><time>2026-03-29T11:49:49.001Z</time></trkpt><trkpt lat="46.113886076070344" lon="12.241116841737112"><ele>458.0</ele><time>2026-03-29T11:49:50.001Z</time></trkpt><trkpt lat="46.11396926669023" lon="12.241169563822867"><ele>458.0</ele><time>2026-03-29T11:49:51.001Z</time></trkpt><trkpt lat="46.11404562652701" lon="12.241215446037105"><ele>457.3333333333333</ele><time>2026-03-29T11:49:52.001Z</time></trkpt><trkpt lat="46.114114300069026" lon="12.241255047208002"><ele>456.66666666666663</ele><time>2026-03-29T11:49:53.001Z</time></trkpt><trkpt lat="46.11417932154142" lon="12.241290500143016"><ele>456.0</ele><time>2026-03-29T11:49:54.001Z</time></trkpt><trkpt lat="46.11425641868585" lon="12.241320561302288"><ele>455.33333333333337</ele><time>2026-03-29T11:49:55.001Z</time></trkpt><trkpt lat="46.1143366377064" lon="12.2413579742976"><ele>454.6666666666667</ele><time>2026-03-29T11:49:56.001Z</time></trkpt><trkpt lat="46.11441982925666" lon="12.24140399557106"><ele>454.0</ele><time>2026-03-29T11:49:57.001Z</time></trkpt><trkpt lat="46.114507990165606" lon="12.241458833118772"><ele>454.2</ele><time>2026-03-29T11:49:58.001Z</time></trkpt><trkpt lat="46.114603623567966" lon="12.241512942255664"><ele>454.4</ele><time>2026-03-29T11:49:59.001Z</time></trkpt><trkpt lat="46.11470158049716" lon="12.241554504599943"><ele>454.6</ele><time>2026-03-29T11:50:00.001Z</time></trkpt><trkpt lat="46.11479850356209" lon="12.241571500418578"><ele>454.8</ele><time>2026-03-29T11:50:01.002Z</time></trkpt><trkpt lat="46.114892724881585" lon="12.241577495107116"><ele>455.0</ele><time>2026-03-29T11:50:02.002Z</time></trkpt><trkpt lat="46.11498268075122" lon="12.241566509922913"><ele>454.99999999999994</ele><time>2026-03-29T11:50:03.002Z</time></trkpt><trkpt lat="46.11506494768784" lon="12.241552884060706"><ele>455.0</ele><time>2026-03-29T11:50:04.002Z</time></trkpt><trkpt lat="46.11512931517911" lon="12.241548861607878"><ele>455.0</ele><time>2026-03-29T11:50:05Z</time></trkpt><trkpt lat="46.11520958462895" lon="12.241504415306258"><ele>455.0</ele><time>2026-03-29T11:50:07Z</time></trkpt><trkpt lat="46.11528138250355" lon="12.241349231825872"><ele>454.99999999999994</ele><time>2026-03-29T11:50:09Z</time></trkpt><trkpt lat="46.115325050205435" lon="12.2412570869466"><ele>455.0</ele><time>2026-03-29T11:50:10Z</time></trkpt><trkpt lat="46.1153842864195" lon="12.241165504249384"><ele>454.0</ele><time>2026-03-29T11:50:11Z</time></trkpt><trkpt lat="46.11545279342338" lon="12.24106939164014"><ele>453.0</ele><time>2026-03-29T11:50:12Z</time></trkpt><trkpt lat="46.11552388319939" lon="12.2409601529408"><ele>452.0</ele><time>2026-03-29T11:50:13Z</time></trkpt><trkpt lat="46.11559176380334" lon="12.240826197016794"><ele>451.0</ele><time>2026-03-29T11:50:14Z</time></trkpt><trkpt lat="46.11565863945015" lon="12.240671337233255"><ele>450.0</ele><time>2026-03-29T11:50:15Z</time></trkpt><trkpt lat="46.11571776771847" lon="12.24051069338564"><ele>449.75</ele><time>2026-03-29T11:50:16Z</time></trkpt><trkpt lat="46.11576681840402" lon="12.240353376144208"><ele>449.5</ele><time>2026-03-29T11:50:17Z</time></trkpt><trkpt lat="46.11581160020352" lon="12.240200421748957"><ele>449.25</ele><time>2026-03-29T11:50:18Z</time></trkpt><trkpt lat="46.11585758292424" lon="12.240053873921896"><ele>449.0</ele><time>2026-03-29T11:50:19Z</time></trkpt><trkpt lat="46.115903395427054" lon="12.239909755636964"><ele>448.6</ele><time>2026-03-29T11:50:20Z</time></trkpt><trkpt lat="46.11594631718576" lon="12.239770602640135"><ele>448.2</ele><time>2026-03-29T11:50:21Z</time></trkpt><trkpt lat="46.11599181064182" lon="12.239637013964305"><ele>447.80000000000007</ele><time>2026-03-29T11:50:22Z</time></trkpt><trkpt lat="46.116043838956074" lon="12.239510797302788"><ele>447.40000000000003</ele><time>2026-03-29T11:50:23Z</time></trkpt><trkpt lat="46.11610530237091" lon="12.239395567633242"><ele>447.0</ele><time>2026-03-29T11:50:24Z</time></trkpt><trkpt lat="46.11618126013837" lon="12.23929935228256"><ele>447.0</ele><time>2026-03-29T11:50:25Z</time></trkpt><trkpt lat="46.11626710547873" lon="12.23922531653283"><ele>447.0</ele><time>2026-03-29T11:50:26Z</time></trkpt><trkpt lat="46.116364136117674" lon="12.239161719317432"><ele>447.0</ele><time>2026-03-29T11:50:27Z</time></trkpt><trkpt lat="46.116477192428555" lon="12.239116197279108"><ele>447.0</ele><time>2026-03-29T11:50:28Z</time></trkpt><trkpt lat="46.11660505793053" lon="12.239083892886143"><ele>446.0</ele><time>2026-03-29T11:50:29Z</time></trkpt><trkpt lat="46.1167445034477" lon="12.239056506715379"><ele>445.0</ele><time>2026-03-29T11:50:30Z</time></trkpt><trkpt lat="46.11686247772822" lon="12.239016232777844"><ele>444.0</ele><time>2026-03-29T11:50:31Z</time></trkpt><trkpt lat="46.11696993797663" lon="12.238946202541769"><ele>443.0</ele><time>2026-03-29T11:50:32Z</time></trkpt><trkpt lat="46.117073673226336" lon="12.23884873784423"><ele>442.0</ele><time>2026-03-29T11:50:33Z</time></trkpt><trkpt lat="46.11717361863999" lon="12.238722795422808"><ele>441.0</ele><time>2026-03-29T11:50:34Z</time></trkpt><trkpt lat="46.117270858313546" lon="12.238581934656978"><ele>440.0</ele><time>2026-03-29T11:50:35Z</time></trkpt><trkpt lat="46.11737324585561" lon="12.238436287946413"><ele>439.0</ele><time>2026-03-29T11:50:36Z</time></trkpt><trkpt lat="46.117477968416104" lon="12.238291728716012"><ele>438.5</ele><time>2026-03-29T11:50:37Z</time></trkpt><trkpt lat="46.11757962743991" lon="12.238151710227953"><ele>438.0</ele><time>2026-03-29T11:50:38Z</time></trkpt><trkpt lat="46.11769652803778" lon="12.238027881130945"><ele>437.5</ele><time>2026-03-29T11:50:39Z</time></trkpt><trkpt lat="46.11783166902369" lon="12.237923850287984"><ele>437.0</ele><time>2026-03-29T11:50:40Z</time></trkpt><trkpt lat="46.11797798111569" lon="12.237825850525176"><ele>436.0</ele><time>2026-03-29T11:50:41Z</time></trkpt><trkpt lat="46.11812156360103" lon="12.237735113108805"><ele>435.0</ele><time>2026-03-29T11:50:42Z</time></trkpt><trkpt lat="46.11825610456524" lon="12.237652901061843"><ele>434.0</ele><time>2026-03-29T11:50:43Z</time></trkpt><trkpt lat="46.11838840243364" lon="12.237576452281656"><ele>433.0</ele><time>2026-03-29T11:50:44Z</time></trkpt><trkpt lat="46.11852275374148" lon="12.237515966570156"><ele>431.75</ele><time>2026-03-29T11:50:45Z</time></trkpt><trkpt lat="46.118667130987205" lon="12.237468445612897"><ele>430.5</ele><time>2026-03-29T11:50:46Z</time></trkpt><trkpt lat="46.11881806107185" lon="12.237436115213038"><ele>429.25</ele><time>2026-03-29T11:50:47Z</time></trkpt><trkpt lat="46.118964326629474" lon="12.237424305974695"><ele>428.0</ele><time>2026-03-29T11:50:48Z</time></trkpt><trkpt lat="46.11910291095468" lon="12.237429884313968"><ele>427.66666666666663</ele><time>2026-03-29T11:50:49Z</time></trkpt><trkpt lat="46.119242416226065" lon="12.237460113815668"><ele>427.33333333333337</ele><time>2026-03-29T11:50:50Z</time></trkpt><trkpt lat="46.11938974367948" lon="12.237516340154125"><ele>427.0</ele><time>2026-03-29T11:50:51.001Z</time></trkpt><trkpt lat="46.11954376270433" lon="12.237589776377575"><ele>427.0</ele><time>2026-03-29T11:50:52.001Z</time></trkpt><trkpt lat="46.119697078908835" lon="12.23766992758526"><ele>427.0</ele><time>2026-03-29T11:50:53.001Z</time></trkpt><trkpt lat="46.11984214448604" lon="12.237734755693712"><ele>427.0</ele><time>2026-03-29T11:50:54.001Z</time></trkpt><trkpt lat="46.1199831388886" lon="12.237764135361337"><ele>427.75</ele><time>2026-03-29T11:50:55.001Z</time></trkpt><trkpt lat="46.12011710470054" lon="12.237762613876635"><ele>428.5</ele><time>2026-03-29T11:50:56.001Z</time></trkpt><trkpt lat="46.120243712458176" lon="12.237741896027194"><ele>429.25</ele><time>2026-03-29T11:50:57.001Z</time></trkpt><trkpt lat="46.1203716686924" lon="12.237690127058068"><ele>430.0</ele><time>2026-03-29T11:50:58.001Z</time></trkpt><trkpt lat="46.120502098141166" lon="12.237617263548348"><ele>430.0</ele><time>2026-03-29T11:50:59.001Z</time></trkpt><trkpt lat="46.120631451599365" lon="12.237530410600913"><ele>430.0</ele><time>2026-03-29T11:51:00.001Z</time></trkpt><trkpt lat="46.12075559975976" lon="12.237441652970311"><ele>430.0</ele><time>2026-03-29T11:51:01.001Z</time></trkpt><trkpt lat="46.12087365109812" lon="12.237362298340228"><ele>430.0</ele><time>2026-03-29T11:51:02.001Z</time></trkpt><trkpt lat="46.12097812758445" lon="12.237266445650985"><ele>428.75</ele><time>2026-03-29T11:51:03.001Z</time></trkpt><trkpt lat="46.12106951578019" lon="12.237156460255816"><ele>427.5</ele><time>2026-03-29T11:51:04.001Z</time></trkpt><trkpt lat="46.121143782886385" lon="12.237024839824462"><ele>426.25</ele><time>2026-03-29T11:51:05.001Z</time></trkpt><trkpt lat="46.12121373057401" lon="12.23685309179362"><ele>425.0</ele><time>2026-03-29T11:51:06.001Z</time></trkpt><trkpt lat="46.12128575486774" lon="12.236649014754962"><ele>425.75</ele><time>2026-03-29T11:51:07.001Z</time></trkpt><trkpt lat="46.121351224769214" lon="12.236438482456693"><ele>426.5</ele><time>2026-03-29T11:51:08.001Z</time></trkpt><trkpt lat="46.12141312608301" lon="12.236247350729649"><ele>427.25</ele><time>2026-03-29T11:51:09.001Z</time></trkpt><trkpt lat="46.12148999487981" lon="12.236089206110128"><ele>428.0</ele><time>2026-03-29T11:51:10.001Z</time></trkpt><trkpt lat="46.12158112558041" lon="12.235958615859605"><ele>426.5</ele><time>2026-03-29T11:51:11.001Z</time></trkpt><trkpt lat="46.121689235588434" lon="12.235840910603098"><ele>425.0</ele><time>2026-03-29T11:51:12.001Z</time></trkpt><trkpt lat="46.12180683173628" lon="12.235719429339794"><ele>423.5</ele><time>2026-03-29T11:51:13.001Z</time></trkpt><trkpt lat="46.12193201244625" lon="12.235576090346607"><ele>422.0</ele><time>2026-03-29T11:51:14.001Z</time></trkpt><trkpt lat="46.12205774369242" lon="12.235408535426274"><ele>421.66666666666663</ele><time>2026-03-29T11:51:15.001Z</time></trkpt><trkpt lat="46.122182374595354" lon="12.235230894644385"><ele>421.33333333333337</ele><time>2026-03-29T11:51:16.001Z</time></trkpt><trkpt lat="46.12229297603437" lon="12.235075811825832"><ele>421.0</ele><time>2026-03-29T11:51:17.001Z</time></trkpt><trkpt lat="46.122398564395894" lon="12.234946467077597"><ele>421.25</ele><time>2026-03-29T11:51:18.001Z</time></trkpt><trkpt lat="46.12249857865531" lon="12.234828164580822"><ele>421.5</ele><time>2026-03-29T11:51:19.001Z</time></trkpt><trkpt lat="46.12259686263276" lon="12.234714118845323"><ele>421.75</ele><time>2026-03-29T11:51:20.001Z</time></trkpt><trkpt lat="46.122694841511084" lon="12.234593356860376"><ele>422.0</ele><time>2026-03-29T11:51:21.001Z</time></trkpt><trkpt lat="46.122791688045574" lon="12.23447700619532"><ele>422.0</ele><time>2026-03-29T11:51:22.001Z</time></trkpt><trkpt lat="46.12288866704175" lon="12.234363344708763"><ele>422.0</ele><time>2026-03-29T11:51:23.001Z</time></trkpt><trkpt lat="46.12297901301304" lon="12.234255376050621"><ele>422.0</ele><time>2026-03-29T11:51:24.001Z</time></trkpt><trkpt lat="46.1230635348782" lon="12.234150856821197"><ele>422.0</ele><time>2026-03-29T11:51:25.001Z</time></trkpt><trkpt lat="46.123141068624236" lon="12.234050274243938"><ele>422.0</ele><time>2026-03-29T11:51:26.001Z</time></trkpt><trkpt lat="46.123228751193416" lon="12.233947526757474"><ele>422.0</ele><time>2026-03-29T11:51:27.001Z</time></trkpt><trkpt lat="46.12332274957944" lon="12.233846734439387"><ele>422.0</ele><time>2026-03-29T11:51:28.001Z</time></trkpt><trkpt lat="46.12342578195254" lon="12.233774118924794"><ele>422.0</ele><time>2026-03-29T11:51:29.001Z</time></trkpt><trkpt lat="46.12355015222674" lon="12.233725438051799"><ele>423.0</ele><time>2026-03-29T11:51:30.001Z</time></trkpt><trkpt lat="46.12368197700832" lon="12.233688189125553"><ele>424.0</ele><time>2026-03-29T11:51:31.001Z</time></trkpt><trkpt lat="46.1238042547878" lon="12.233650537716848"><ele>425.0</ele><time>2026-03-29T11:51:32.001Z</time></trkpt><trkpt lat="46.123935586772454" lon="12.233580347862514"><ele>426.0</ele><time>2026-03-29T11:51:33.001Z</time></trkpt><trkpt lat="46.124062511698746" lon="12.233488823339126"><ele>426.5</ele><time>2026-03-29T11:51:34.001Z</time></trkpt><trkpt lat="46.12417432149" lon="12.233388961715217"><ele>427.0</ele><time>2026-03-29T11:51:35.001Z</time></trkpt><trkpt lat="46.12428043258944" lon="12.233274212096525"><ele>427.5</ele><time>2026-03-29T11:51:36.001Z</time></trkpt><trkpt lat="46.124380203786245" lon="12.233138315545258"><ele>428.0</ele><time>2026-03-29T11:51:37.001Z</time></trkpt><trkpt lat="46.1244765103474" lon="12.232986295000547"><ele>428.3333333333333</ele><time>2026-03-29T11:51:38.001Z</time></trkpt><trkpt lat="46.12456993982758" lon="12.23281711740513"><ele>428.66666666666663</ele><time>2026-03-29T11:51:39.001Z</time></trkpt><trkpt lat="46.12466474742315" lon="12.232638238494921"><ele>429.0</ele><time>2026-03-29T11:51:40.001Z</time></trkpt><trkpt lat="46.124763620375454" lon="12.232456322648233"><ele>429.33333333333337</ele><time>2026-03-29T11:51:41.001Z</time></trkpt><trkpt lat="46.12486621458063" lon="12.23227249936631"><ele>429.6666666666667</ele><time>2026-03-29T11:51:42.001Z</time></trkpt><trkpt lat="46.12496958477236" lon="12.232081724822317"><ele>430.0</ele><time>2026-03-29T11:51:43.001Z</time></trkpt><trkpt lat="46.12506800823293" lon="12.231897768264476"><ele>430.0</ele><time>2026-03-29T11:51:44.001Z</time></trkpt><trkpt lat="46.12515745688286" lon="12.231733689285418"><ele>430.0</ele><time>2026-03-29T11:51:45.001Z</time></trkpt><trkpt lat="46.125248927426014" lon="12.231590648757708"><ele>430.0</ele><time>2026-03-29T11:51:46.001Z</time></trkpt><trkpt lat="46.12533649252997" lon="12.231470149593614"><ele>430.0</ele><time>2026-03-29T11:51:47.001Z</time></trkpt><trkpt lat="46.12541738336751" lon="12.231367956091967"><ele>430.33333333333337</ele><time>2026-03-29T11:51:48.001Z</time></trkpt><trkpt lat="46.125485261850876" lon="12.231280152299764"><ele>430.6666666666667</ele><time>2026-03-29T11:51:49.001Z</time></trkpt><trkpt lat="46.12554054343327" lon="12.231212616231934"><ele>431.0</ele><time>2026-03-29T11:51:50.001Z</time></trkpt><trkpt lat="46.125600810162034" lon="12.231125545748329"><ele>431.33333333333337</ele><time>2026-03-29T11:51:52.001Z</time></trkpt><trkpt lat="46.125651977676114" lon="12.231048867098233"><ele>431.6666666666667</ele><time>2026-03-29T11:51:59.001Z</time></trkpt><trkpt lat="46.125668068891926" lon="12.230959348641953"><ele>432.0</ele><time>2026-03-29T11:52:01.001Z</time></trkpt><trkpt lat="46.125729016084826" lon="12.230982303969396"><ele>432.0</ele><time>2026-03-29T11:52:06.001Z</time></trkpt><trkpt lat="46.12568559233865" lon="12.231071427949491"><ele>432.00000000000006</ele><time>2026-03-29T11:52:13Z</time></trkpt><trkpt lat="46.12572433931331" lon="12.231230902761684"><ele>432.00000000000006</ele><time>2026-03-29T11:52:15Z</time></trkpt><trkpt lat="46.1257769497792" lon="12.231319276799551"><ele>432.0</ele><time>2026-03-29T11:52:16Z</time></trkpt><trkpt lat="46.1258321943882" lon="12.231417220529634"><ele>432.0</ele><time>2026-03-29T11:52:17Z</time></trkpt><trkpt lat="46.125884057750326" lon="12.231524688685882"><ele>431.6</ele><time>2026-03-29T11:52:18Z</time></trkpt><trkpt lat="46.12594364688114" lon="12.231640546018415"><ele>431.20000000000005</ele><time>2026-03-29T11:52:19Z</time></trkpt><trkpt lat="46.1260030275575" lon="12.231762270428026"><ele>430.8</ele><time>2026-03-29T11:52:20Z</time></trkpt><trkpt lat="46.12607051760962" lon="12.23187897510427"><ele>430.4</ele><time>2026-03-29T11:52:21Z</time></trkpt><trkpt lat="46.12612744410428" lon="12.231999818289394"><ele>430.0</ele><time>2026-03-29T11:52:22Z</time></trkpt><trkpt lat="46.1261839455272" lon="12.232115369394922"><ele>430.0</ele><time>2026-03-29T11:52:23Z</time></trkpt><trkpt lat="46.126240460017854" lon="12.232249312132643"><ele>430.0</ele><time>2026-03-29T11:52:24Z</time></trkpt><trkpt lat="46.12629389914368" lon="12.232401254240935"><ele>430.0</ele><time>2026-03-29T11:52:25Z</time></trkpt><trkpt lat="46.126340203953966" lon="12.232561391369563"><ele>430.0</ele><time>2026-03-29T11:52:26Z</time></trkpt><trkpt lat="46.12637696606854" lon="12.232716176955735"><ele>429.6</ele><time>2026-03-29T11:52:27Z</time></trkpt><trkpt lat="46.1264118625329" lon="12.232865714628522"><ele>429.2</ele><time>2026-03-29T11:52:28Z</time></trkpt><trkpt lat="46.12645034226708" lon="12.23300361928836"><ele>428.79999999999995</ele><time>2026-03-29T11:52:29Z</time></trkpt><trkpt lat="46.12648496694212" lon="12.23313772296947"><ele>428.4</ele><time>2026-03-29T11:52:30Z</time></trkpt><trkpt lat="46.12652260705157" lon="12.233266671972116"><ele>428.0</ele><time>2026-03-29T11:52:31Z</time></trkpt><trkpt lat="46.1265525470853" lon="12.233391306084187"><ele>427.49999999999994</ele><time>2026-03-29T11:52:32Z</time></trkpt><trkpt lat="46.12658948728192" lon="12.233477749550545"><ele>427.0</ele><time>2026-03-29T11:52:33Z</time></trkpt><trkpt lat="46.126648129319605" lon="12.23355316018773"><ele>426.5</ele><time>2026-03-29T11:52:35Z</time></trkpt><trkpt lat="46.12671759798272" lon="12.233468060022261"><ele>426.0</ele><time>2026-03-29T11:52:38Z</time></trkpt><trkpt lat="46.12672382009085" lon="12.233337609264748"><ele>425.49999999999994</ele><time>2026-03-29T11:52:39Z</time></trkpt><trkpt lat="46.12671082523245" lon="12.233208759360833"><ele>425.0</ele><time>2026-03-29T11:52:40Z</time></trkpt><trkpt lat="46.126711270686926" lon="12.233068093988479"><ele>424.5</ele><time>2026-03-29T11:52:41Z</time></trkpt><trkpt lat="46.126721459345916" lon="12.232901785659354"><ele>424.0</ele><time>2026-03-29T11:52:42Z</time></trkpt><trkpt lat="46.12674000461075" lon="12.232727512717947"><ele>423.5</ele><time>2026-03-29T11:52:43Z</time></trkpt><trkpt lat="46.12676533424313" lon="12.232546251652876"><ele>423.0</ele><time>2026-03-29T11:52:44Z</time></trkpt><trkpt lat="46.1267940387913" lon="12.232375542004014"><ele>423.0</ele><time>2026-03-29T11:52:45Z</time></trkpt><trkpt lat="46.12682151663957" lon="12.23221849482255"><ele>423.0</ele><time>2026-03-29T11:52:46Z</time></trkpt><trkpt lat="46.12685069147683" lon="12.232067880649664"><ele>423.0</ele><time>2026-03-29T11:52:47Z</time></trkpt><trkpt lat="46.126878750958895" lon="12.231912592498157"><ele>423.0</ele><time>2026-03-29T11:52:48Z</time></trkpt><trkpt lat="46.1269138015172" lon="12.231744635992973"><ele>423.0</ele><time>2026-03-29T11:52:49Z</time></trkpt><trkpt lat="46.126955257313604" lon="12.231569633650412"><ele>423.0</ele><time>2026-03-29T11:52:50Z</time></trkpt><trkpt lat="46.1269907568546" lon="12.23138676644333"><ele>423.0</ele><time>2026-03-29T11:52:51Z</time></trkpt><trkpt lat="46.12701884918259" lon="12.231198530062882"><ele>423.0</ele><time>2026-03-29T11:52:52Z</time></trkpt><trkpt lat="46.12704156589594" lon="12.231009208743238"><ele>423.25</ele><time>2026-03-29T11:52:53Z</time></trkpt><trkpt lat="46.12706171722223" lon="12.230830657737151"><ele>423.5</ele><time>2026-03-29T11:52:54.001Z</time></trkpt><trkpt lat="46.127079204164026" lon="12.230665348956718"><ele>423.75</ele><time>2026-03-29T11:52:55.001Z</time></trkpt><trkpt lat="46.12709650504904" lon="12.23050864579397"><ele>424.0</ele><time>2026-03-29T11:52:56.001Z</time></trkpt><trkpt lat="46.12711248124479" lon="12.23036128396437"><ele>423.50000000000006</ele><time>2026-03-29T11:52:57.001Z</time></trkpt><trkpt lat="46.12712485130197" lon="12.230218633377154"><ele>423.0</ele><time>2026-03-29T11:52:58.001Z</time></trkpt><trkpt lat="46.127137155261" lon="12.230084768297045"><ele>422.5</ele><time>2026-03-29T11:52:59.001Z</time></trkpt><trkpt lat="46.127145536399205" lon="12.229958749302694"><ele>422.0</ele><time>2026-03-29T11:53:00.001Z</time></trkpt><trkpt lat="46.127152500063914" lon="12.229839228606965"><ele>421.50000000000006</ele><time>2026-03-29T11:53:01.001Z</time></trkpt><trkpt lat="46.127157954461445" lon="12.229723787221243"><ele>421.0</ele><time>2026-03-29T11:53:02.001Z</time></trkpt><trkpt lat="46.127165750170995" lon="12.229603890738035"><ele>420.8</ele><time>2026-03-29T11:53:03.001Z</time></trkpt><trkpt lat="46.12717854686858" lon="12.229475965145191"><ele>420.6</ele><time>2026-03-29T11:53:04.001Z</time></trkpt><trkpt lat="46.12720007207702" lon="12.22934253734152"><ele>420.4</ele><time>2026-03-29T11:53:05.001Z</time></trkpt><trkpt lat="46.127225566100776" lon="12.229207795057034"><ele>420.2</ele><time>2026-03-29T11:53:06.001Z</time></trkpt><trkpt lat="46.12725708772744" lon="12.22906766109376"><ele>420.0</ele><time>2026-03-29T11:53:07.001Z</time></trkpt><trkpt lat="46.12729018877362" lon="12.228921413644168"><ele>419.4</ele><time>2026-03-29T11:53:08.001Z</time></trkpt><trkpt lat="46.12732676904833" lon="12.228768183250555"><ele>418.8</ele><time>2026-03-29T11:53:09.001Z</time></trkpt><trkpt lat="46.12736418865814" lon="12.228611667316978"><ele>418.20000000000005</ele><time>2026-03-29T11:53:10.001Z</time></trkpt><trkpt lat="46.12740456492878" lon="12.22846456170902"><ele>417.6</ele><time>2026-03-29T11:53:11.001Z</time></trkpt><trkpt lat="46.12745676106159" lon="12.228331391725701"><ele>417.0</ele><time>2026-03-29T11:53:12.001Z</time></trkpt><trkpt lat="46.127529916848076" lon="12.228229922960198"><ele>416.40000000000003</ele><time>2026-03-29T11:53:13.001Z</time></trkpt><trkpt lat="46.12761110150096" lon="12.228155823800899"><ele>415.8</ele><time>2026-03-29T11:53:14.001Z</time></trkpt><trkpt lat="46.12769401163318" lon="12.228107452142533"><ele>415.2</ele><time>2026-03-29T11:53:15.001Z</time></trkpt><trkpt lat="46.127780094483704" lon="12.228081257448899"><ele>414.6</ele><time>2026-03-29T11:53:16.001Z</time></trkpt><trkpt lat="46.12787056410386" lon="12.228051760794887"><ele>414.0</ele><time>2026-03-29T11:53:17.001Z</time></trkpt><trkpt lat="46.12796880953126" lon="12.228020826623647"><ele>414.0</ele><time>2026-03-29T11:53:18.001Z</time></trkpt><trkpt lat="46.12807375593766" lon="12.22798757258428"><ele>414.0</ele><time>2026-03-29T11:53:19.001Z</time></trkpt><trkpt lat="46.12818198347336" lon="12.227951610699433"><ele>414.0</ele><time>2026-03-29T11:53:20.001Z</time></trkpt><trkpt lat="46.12829267037949" lon="12.227913874432911"><ele>414.0</ele><time>2026-03-29T11:53:21.001Z</time></trkpt><trkpt lat="46.128408980630006" lon="12.227878212618611"><ele>414.5</ele><time>2026-03-29T11:53:22.001Z</time></trkpt><trkpt lat="46.12852550618794" lon="12.227843178602605"><ele>415.0</ele><time>2026-03-29T11:53:23.001Z</time></trkpt><trkpt lat="46.12864239978942" lon="12.227808959497063"><ele>415.5</ele><time>2026-03-29T11:53:24.001Z</time></trkpt><trkpt lat="46.128764092657924" lon="12.227778283361282"><ele>416.0</ele><time>2026-03-29T11:53:25.001Z</time></trkpt><trkpt lat="46.12888399645501" lon="12.227746674154687"><ele>416.0</ele><time>2026-03-29T11:53:26.001Z</time></trkpt><trkpt lat="46.12900521254757" lon="12.22771510559183"><ele>416.0</ele><time>2026-03-29T11:53:27.001Z</time></trkpt><trkpt lat="46.12911206428424" lon="12.22768041182959"><ele>416.0</ele><time>2026-03-29T11:53:28.001Z</time></trkpt><trkpt lat="46.12921787366978" lon="12.227631652188247"><ele>416.0</ele><time>2026-03-29T11:53:29.001Z</time></trkpt><trkpt lat="46.12932140903831" lon="12.227563747419225"><ele>416.0</ele><time>2026-03-29T11:53:30.001Z</time></trkpt><trkpt lat="46.12942539203642" lon="12.227481351936058"><ele>416.0</ele><time>2026-03-29T11:53:31.001Z</time></trkpt><trkpt lat="46.129516768270356" lon="12.227394282518679"><ele>416.0</ele><time>2026-03-29T11:53:32.001Z</time></trkpt><trkpt lat="46.12959853098097" lon="12.22729911898514"><ele>416.0</ele><time>2026-03-29T11:53:33.001Z</time></trkpt><trkpt lat="46.12966324660463" lon="12.227192368585348"><ele>416.0</ele><time>2026-03-29T11:53:34.001Z</time></trkpt><trkpt lat="46.1297025495151" lon="12.22706806233499"><ele>416.25</ele><time>2026-03-29T11:53:35.001Z</time></trkpt><trkpt lat="46.12970346655518" lon="12.226932814345249"><ele>416.5</ele><time>2026-03-29T11:53:36.001Z</time></trkpt><trkpt lat="46.129674410091816" lon="12.226787249899374"><ele>416.75</ele><time>2026-03-29T11:53:37.001Z</time></trkpt><trkpt lat="46.12962665841239" lon="12.226612618570757"><ele>417.0</ele><time>2026-03-29T11:53:38.001Z</time></trkpt><trkpt lat="46.129570301972244" lon="12.226410603930743"><ele>417.0</ele><time>2026-03-29T11:53:39.001Z</time></trkpt><trkpt lat="46.12951368356672" lon="12.226203471519925"><ele>417.0</ele><time>2026-03-29T11:53:40.001Z</time></trkpt><trkpt lat="46.129456608822835" lon="12.225995812977846"><ele>417.0</ele><time>2026-03-29T11:53:41.001Z</time></trkpt><trkpt lat="46.12940149473824" lon="12.225788435414271"><ele>417.5</ele><time>2026-03-29T11:53:42.001Z</time></trkpt><trkpt lat="46.129349687098106" lon="12.225592811645454"><ele>418.0</ele><time>2026-03-29T11:53:43.001Z</time></trkpt><trkpt lat="46.12930236571423" lon="12.225396073481114"><ele>418.5</ele><time>2026-03-29T11:53:44.001Z</time></trkpt><trkpt lat="46.12925908709092" lon="12.225195443819619"><ele>419.0</ele><time>2026-03-29T11:53:45.001Z</time></trkpt><trkpt lat="46.12922054883928" lon="12.224989657325184"><ele>417.75</ele><time>2026-03-29T11:53:46.001Z</time></trkpt><trkpt lat="46.12919231626418" lon="12.224779674204857"><ele>416.5</ele><time>2026-03-29T11:53:47.001Z</time></trkpt><trkpt lat="46.12917191305743" lon="12.224573544587042"><ele>415.25</ele><time>2026-03-29T11:53:48.001Z</time></trkpt><trkpt lat="46.12915183618655" lon="12.224355653461346"><ele>414.0</ele><time>2026-03-29T11:53:49.001Z</time></trkpt><trkpt lat="46.129138112370825" lon="12.224145332231625"><ele>412.25</ele><time>2026-03-29T11:53:50.001Z</time></trkpt><trkpt lat="46.129127771743526" lon="12.223937614052002"><ele>410.5</ele><time>2026-03-29T11:53:51.001Z</time></trkpt><trkpt lat="46.12911633054629" lon="12.223734776258297"><ele>408.75</ele><time>2026-03-29T11:53:52.001Z</time></trkpt><trkpt lat="46.12909212284549" lon="12.223545236071189"><ele>407.0</ele><time>2026-03-29T11:53:53.001Z</time></trkpt><trkpt lat="46.129051213060336" lon="12.223361317250616"><ele>409.25</ele><time>2026-03-29T11:53:54.001Z</time></trkpt><trkpt lat="46.1289914198237" lon="12.223188614360488"><ele>411.5</ele><time>2026-03-29T11:53:55.001Z</time></trkpt><trkpt lat="46.128902438751005" lon="12.223027102834163"><ele>413.75</ele><time>2026-03-29T11:53:56.001Z</time></trkpt><trkpt lat="46.128805976563775" lon="12.222860939222404"><ele>416.0</ele><time>2026-03-29T11:53:57.001Z</time></trkpt><trkpt lat="46.12871031202947" lon="12.222688824420846"><ele>416.0</ele><time>2026-03-29T11:53:58.001Z</time></trkpt><trkpt lat="46.128618676972756" lon="12.222528497792176"><ele>416.0</ele><time>2026-03-29T11:53:59.001Z</time></trkpt><trkpt lat="46.12853186440595" lon="12.222381332662854"><ele>416.0</ele><time>2026-03-29T11:54:00.001Z</time></trkpt><trkpt lat="46.12845945378892" lon="12.222224901452236"><ele>416.0</ele><time>2026-03-29T11:54:01.001Z</time></trkpt><trkpt lat="46.128408322650884" lon="12.222048622689794"><ele>414.25</ele><time>2026-03-29T11:54:02.001Z</time></trkpt><trkpt lat="46.12838199345227" lon="12.221858322624426"><ele>412.5</ele><time>2026-03-29T11:54:03.001Z</time></trkpt><trkpt lat="46.128376505968035" lon="12.221665767743696"><ele>410.75</ele><time>2026-03-29T11:54:04.001Z</time></trkpt><trkpt lat="46.12837780350094" lon="12.221468445368613"><ele>409.0</ele><time>2026-03-29T11:54:05.001Z</time></trkpt><trkpt lat="46.128380591513306" lon="12.2212713900896"><ele>408.75</ele><time>2026-03-29T11:54:06.001Z</time></trkpt><trkpt lat="46.12837683046441" lon="12.22107388530464"><ele>408.5</ele><time>2026-03-29T11:54:07.001Z</time></trkpt><trkpt lat="46.12837117821523" lon="12.220879814701414"><ele>408.25</ele><time>2026-03-29T11:54:08.001Z</time></trkpt><trkpt lat="46.12835985609621" lon="12.220695377525889"><ele>408.0</ele><time>2026-03-29T11:54:09.001Z</time></trkpt><trkpt lat="46.12833284942938" lon="12.220521157412426"><ele>408.5</ele><time>2026-03-29T11:54:10.001Z</time></trkpt><trkpt lat="46.12828383956729" lon="12.2203550910013"><ele>409.0</ele><time>2026-03-29T11:54:11.001Z</time></trkpt><trkpt lat="46.12822102616826" lon="12.220191689580332"><ele>409.5</ele><time>2026-03-29T11:54:12.001Z</time></trkpt><trkpt lat="46.12814761771867" lon="12.220025685750953"><ele>410.0</ele><time>2026-03-29T11:54:13.002Z</time></trkpt><trkpt lat="46.12806320011711" lon="12.219858682771346"><ele>409.5</ele><time>2026-03-29T11:54:14.002Z</time></trkpt><trkpt lat="46.12797528333254" lon="12.219690049832515"><ele>409.0</ele><time>2026-03-29T11:54:15.002Z</time></trkpt><trkpt lat="46.127883570766635" lon="12.219519288260495"><ele>408.5</ele><time>2026-03-29T11:54:16.002Z</time></trkpt><trkpt lat="46.127792277236885" lon="12.219344806513947"><ele>408.0</ele><time>2026-03-29T11:54:17Z</time></trkpt><trkpt lat="46.12770179550363" lon="12.21916522995628"><ele>408.75</ele><time>2026-03-29T11:54:18Z</time></trkpt><trkpt lat="46.12761151560097" lon="12.218981837983852"><ele>409.5</ele><time>2026-03-29T11:54:19Z</time></trkpt><trkpt lat="46.127525251146324" lon="12.2188065477919"><ele>410.25</ele><time>2026-03-29T11:54:20Z</time></trkpt><trkpt lat="46.12744167742217" lon="12.21864121639957"><ele>411.0</ele><time>2026-03-29T11:54:21Z</time></trkpt><trkpt lat="46.12736059849263" lon="12.21847652269393"><ele>409.0</ele><time>2026-03-29T11:54:22Z</time></trkpt><trkpt lat="46.12728280607037" lon="12.218317980494035"><ele>407.0</ele><time>2026-03-29T11:54:23Z</time></trkpt><trkpt lat="46.12720906590854" lon="12.218164616181568"><ele>405.0</ele><time>2026-03-29T11:54:24Z</time></trkpt><trkpt lat="46.12714461972492" lon="12.218012641880431"><ele>403.0</ele><time>2026-03-29T11:54:25Z</time></trkpt><trkpt lat="46.12710176652129" lon="12.217857400800657"><ele>401.75</ele><time>2026-03-29T11:54:26Z</time></trkpt><trkpt lat="46.12708759516893" lon="12.217691327694833"><ele>400.5</ele><time>2026-03-29T11:54:27Z</time></trkpt><trkpt lat="46.12711029357386" lon="12.217532134367184"><ele>399.25</ele><time>2026-03-29T11:54:28Z</time></trkpt><trkpt lat="46.127166460566606" lon="12.217390238746725"><ele>398.0</ele><time>2026-03-29T11:54:29Z</time></trkpt><trkpt lat="46.12724103479734" lon="12.217241678121173"><ele>396.5</ele><time>2026-03-29T11:54:30Z</time></trkpt><trkpt lat="46.1273238807595" lon="12.21710745807471"><ele>395.0</ele><time>2026-03-29T11:54:31Z</time></trkpt><trkpt lat="46.127420511785616" lon="12.21699484294615"><ele>393.5</ele><time>2026-03-29T11:54:32Z</time></trkpt><trkpt lat="46.12754177315109" lon="12.216887086023744"><ele>392.0</ele><time>2026-03-29T11:54:33Z</time></trkpt><trkpt lat="46.12768322891016" lon="12.21678629219062"><ele>392.0</ele><time>2026-03-29T11:54:34Z</time></trkpt><trkpt lat="46.12782742313889" lon="12.216689003854047"><ele>392.0</ele><time>2026-03-29T11:54:35Z</time></trkpt><trkpt lat="46.127964111299164" lon="12.216601498309737"><ele>392.0</ele><time>2026-03-29T11:54:36Z</time></trkpt><trkpt lat="46.12809828009478" lon="12.216532050983425"><ele>388.0</ele><time>2026-03-29T11:54:37Z</time></trkpt><trkpt lat="46.12823477034129" lon="12.216481899006983"><ele>384.0</ele><time>2026-03-29T11:54:38Z</time></trkpt><trkpt lat="46.128369537542866" lon="12.216442124211468"><ele>380.0</ele><time>2026-03-29T11:54:39Z</time></trkpt><trkpt lat="46.12850008659466" lon="12.216402219822516"><ele>376.0</ele><time>2026-03-29T11:54:40Z</time></trkpt><trkpt lat="46.12862631356778" lon="12.216353852141392"><ele>376.0</ele><time>2026-03-29T11:54:41Z</time></trkpt><trkpt lat="46.12874610896039" lon="12.216296752155186"><ele>376.0</ele><time>2026-03-29T11:54:42Z</time></trkpt><trkpt lat="46.12885883147513" lon="12.216218205215833"><ele>376.0</ele><time>2026-03-29T11:54:43Z</time></trkpt><trkpt lat="46.128962163937125" lon="12.21610892147401"><ele>376.0</ele><time>2026-03-29T11:54:44Z</time></trkpt><trkpt lat="46.129066297621044" lon="12.215986067341158"><ele>377.5</ele><time>2026-03-29T11:54:45Z</time></trkpt><trkpt lat="46.12916255140536" lon="12.215867680619438"><ele>379.0</ele><time>2026-03-29T11:54:46Z</time></trkpt><trkpt lat="46.12926716014871" lon="12.215750827060312"><ele>380.5</ele><time>2026-03-29T11:54:47Z</time></trkpt><trkpt lat="46.12938218053991" lon="12.215639364842271"><ele>382.0</ele><time>2026-03-29T11:54:48Z</time></trkpt><trkpt lat="46.1294981647311" lon="12.215544815629297"><ele>380.0</ele><time>2026-03-29T11:54:49Z</time></trkpt><trkpt lat="46.1296232541583" lon="12.215452635373527"><ele>378.0</ele><time>2026-03-29T11:54:50Z</time></trkpt><trkpt lat="46.129747908517196" lon="12.215358994808161"><ele>376.0</ele><time>2026-03-29T11:54:51Z</time></trkpt><trkpt lat="46.12986707286043" lon="12.215268981844826"><ele>374.0</ele><time>2026-03-29T11:54:52Z</time></trkpt><trkpt lat="46.12998113692704" lon="12.215189392649535"><ele>374.0</ele><time>2026-03-29T11:54:53Z</time></trkpt><trkpt lat="46.13009123141543" lon="12.215110613095607"><ele>374.0</ele><time>2026-03-29T11:54:54Z</time></trkpt><trkpt lat="46.13019792822722" lon="12.215036585293813"><ele>374.0</ele><time>2026-03-29T11:54:55Z</time></trkpt><trkpt lat="46.13030413698421" lon="12.214974559360842"><ele>374.0</ele><time>2026-03-29T11:54:56Z</time></trkpt><trkpt lat="46.130411284780166" lon="12.214928892899492"><ele>374.0</ele><time>2026-03-29T11:54:57Z</time></trkpt><trkpt lat="46.13051850364504" lon="12.214912873727247"><ele>374.0</ele><time>2026-03-29T11:54:58Z</time></trkpt><trkpt lat="46.13062451434676" lon="12.214927432523313"><ele>374.0</ele><time>2026-03-29T11:54:59Z</time></trkpt><trkpt lat="46.13073128607325" lon="12.21496862440548"><ele>374.0</ele><time>2026-03-29T11:55:00Z</time></trkpt><trkpt lat="46.13084055930461" lon="12.215029030322237"><ele>374.0</ele><time>2026-03-29T11:55:01Z</time></trkpt><trkpt lat="46.13094324212545" lon="12.215120219459234"><ele>374.75</ele><time>2026-03-29T11:55:02Z</time></trkpt><trkpt lat="46.131044544631365" lon="12.215244168696783"><ele>375.5</ele><time>2026-03-29T11:55:03Z</time></trkpt><trkpt lat="46.13115309188982" lon="12.215389152940556"><ele>376.25</ele><time>2026-03-29T11:55:04Z</time></trkpt><trkpt lat="46.13126745131192" lon="12.21554395992"><ele>377.0</ele><time>2026-03-29T11:55:05Z</time></trkpt><trkpt lat="46.13138091543362" lon="12.215697598935186"><ele>377.0</ele><time>2026-03-29T11:55:06Z</time></trkpt><trkpt lat="46.1314851752243" lon="12.215837124308678"><ele>377.0</ele><time>2026-03-29T11:55:07Z</time></trkpt><trkpt lat="46.1315824464401" lon="12.215970774270492"><ele>377.0</ele><time>2026-03-29T11:55:08Z</time></trkpt><trkpt lat="46.131675229871725" lon="12.216101766892121"><ele>377.0</ele><time>2026-03-29T11:55:09Z</time></trkpt><trkpt lat="46.13176420696939" lon="12.21622503984731"><ele>374.0</ele><time>2026-03-29T11:55:10Z</time></trkpt><trkpt lat="46.13184934201128" lon="12.216342308724165"><ele>371.0</ele><time>2026-03-29T11:55:11Z</time></trkpt><trkpt lat="46.131932990519026" lon="12.216458256303252"><ele>368.0</ele><time>2026-03-29T11:55:12Z</time></trkpt><trkpt lat="46.13201264309033" lon="12.216572641698349"><ele>365.0</ele><time>2026-03-29T11:55:13Z</time></trkpt><trkpt lat="46.13208903862243" lon="12.216681331158313"><ele>365.0</ele><time>2026-03-29T11:55:14.001Z</time></trkpt><trkpt lat="46.13216684561035" lon="12.216784368936837"><ele>365.0</ele><time>2026-03-29T11:55:15.001Z</time></trkpt><trkpt lat="46.13224658436575" lon="12.216881571997217"><ele>365.0</ele><time>2026-03-29T11:55:16.001Z</time></trkpt><trkpt lat="46.13232806042856" lon="12.216977834768603"><ele>365.0</ele><time>2026-03-29T11:55:17.001Z</time></trkpt><trkpt lat="46.13241591689159" lon="12.21706623961822"><ele>365.0</ele><time>2026-03-29T11:55:18.001Z</time></trkpt><trkpt lat="46.13250898358397" lon="12.217149382504688"><ele>362.4</ele><time>2026-03-29T11:55:19.001Z</time></trkpt><trkpt lat="46.13259764905547" lon="12.217212766490231"><ele>359.8</ele><time>2026-03-29T11:55:20.001Z</time></trkpt><trkpt lat="46.132679287815975" lon="12.2172487826079"><ele>357.20000000000005</ele><time>2026-03-29T11:55:21.001Z</time></trkpt><trkpt lat="46.13275891495844" lon="12.217261814831506"><ele>354.6</ele><time>2026-03-29T11:55:22.001Z</time></trkpt><trkpt lat="46.13284080137127" lon="12.21725865520971"><ele>352.0</ele><time>2026-03-29T11:55:23.001Z</time></trkpt><trkpt lat="46.13296102346851" lon="12.21724109575272"><ele>352.0</ele><time>2026-03-29T11:55:25.001Z</time></trkpt><trkpt lat="46.13306838200158" lon="12.217235299968719"><ele>352.0</ele><time>2026-03-29T11:55:27.001Z</time></trkpt><trkpt lat="46.13315352279247" lon="12.217259537756314"><ele>352.0</ele><time>2026-03-29T11:55:29.001Z</time></trkpt><trkpt lat="46.13324385156311" lon="12.217293976006362"><ele>352.0</ele><time>2026-03-29T11:55:31.001Z</time></trkpt><trkpt lat="46.13336837504227" lon="12.217286092640036"><ele>352.0</ele><time>2026-03-29T11:55:33.001Z</time></trkpt><trkpt lat="46.13344390200421" lon="12.217262304169594"><ele>350.6</ele><time>2026-03-29T11:55:34.001Z</time></trkpt><trkpt lat="46.13352684561434" lon="12.217239116785713"><ele>349.20000000000005</ele><time>2026-03-29T11:55:35.001Z</time></trkpt><trkpt lat="46.133620558948486" lon="12.217229621466732"><ele>347.8</ele><time>2026-03-29T11:55:36.001Z</time></trkpt><trkpt lat="46.133723229335274" lon="12.217222335676809"><ele>346.4</ele><time>2026-03-29T11:55:37.001Z</time></trkpt><trkpt lat="46.133820366973275" lon="12.217196789667074"><ele>345.0</ele><time>2026-03-29T11:55:38.001Z</time></trkpt><trkpt lat="46.133911856631116" lon="12.21716710375132"><ele>345.0</ele><time>2026-03-29T11:55:39.001Z</time></trkpt><trkpt lat="46.134001624785014" lon="12.217117159105996"><ele>345.0</ele><time>2026-03-29T11:55:40.001Z</time></trkpt><trkpt lat="46.134094502880714" lon="12.2170535608794"><ele>345.0</ele><time>2026-03-29T11:55:41.001Z</time></trkpt><trkpt lat="46.13418990391106" lon="12.216957338929868"><ele>345.0</ele><time>2026-03-29T11:55:42.001Z</time></trkpt><trkpt lat="46.134287578510786" lon="12.216838507430685"><ele>345.0</ele><time>2026-03-29T11:55:43.001Z</time></trkpt><trkpt lat="46.134377992091586" lon="12.216691326941755"><ele>343.8</ele><time>2026-03-29T11:55:44.001Z</time></trkpt><trkpt lat="46.134451407058926" lon="12.216542222216084"><ele>342.6</ele><time>2026-03-29T11:55:45.001Z</time></trkpt><trkpt lat="46.13450481795664" lon="12.216406815969306"><ele>341.4</ele><time>2026-03-29T11:55:46.001Z</time></trkpt><trkpt lat="46.134568073436185" lon="12.216299393198394"><ele>340.2</ele><time>2026-03-29T11:55:47.001Z</time></trkpt><trkpt lat="46.1346455699441" lon="12.216229475417713"><ele>339.0</ele><time>2026-03-29T11:55:48.001Z</time></trkpt><trkpt lat="46.1347301969552" lon="12.216200158543236"><ele>339.0</ele><time>2026-03-29T11:55:49.001Z</time></trkpt><trkpt lat="46.13482179834944" lon="12.216201841318869"><ele>339.0</ele><time>2026-03-29T11:55:50.001Z</time></trkpt><trkpt lat="46.13491578799893" lon="12.216252800408602"><ele>339.0</ele><time>2026-03-29T11:55:51.001Z</time></trkpt><trkpt lat="46.13501714938371" lon="12.216338138716907"><ele>339.0</ele><time>2026-03-29T11:55:52.001Z</time></trkpt><trkpt lat="46.13513262715195" lon="12.216447833871314"><ele>339.0</ele><time>2026-03-29T11:55:53.001Z</time></trkpt><trkpt lat="46.135259663339866" lon="12.216567887105581"><ele>336.75</ele><time>2026-03-29T11:55:54.001Z</time></trkpt><trkpt lat="46.13538650094263" lon="12.21668825637542"><ele>334.5</ele><time>2026-03-29T11:55:55.001Z</time></trkpt><trkpt lat="46.13550169422445" lon="12.216797871873212"><ele>332.25</ele><time>2026-03-29T11:55:56.001Z</time></trkpt><trkpt lat="46.1356063750103" lon="12.21690408039798"><ele>330.0</ele><time>2026-03-29T11:55:57.001Z</time></trkpt><trkpt lat="46.135685557975954" lon="12.21699307970992"><ele>329.8333333333333</ele><time>2026-03-29T11:55:58.001Z</time></trkpt><trkpt lat="46.135740192456" lon="12.217064975198435"><ele>329.6666666666667</ele><time>2026-03-29T11:55:59.001Z</time></trkpt><trkpt lat="46.13577842332926" lon="12.217141038989672"><ele>329.5</ele><time>2026-03-29T11:56:00.001Z</time></trkpt><trkpt lat="46.135816012281985" lon="12.217239267271742"><ele>329.33333333333337</ele><time>2026-03-29T11:56:01.001Z</time></trkpt><trkpt lat="46.1358601442088" lon="12.21732183571316"><ele>329.1666666666667</ele><time>2026-03-29T11:56:02.001Z</time></trkpt><trkpt lat="46.135969543720265" lon="12.217356254168537"><ele>329.0</ele><time>2026-03-29T11:56:04.001Z</time></trkpt><trkpt lat="46.136062147837556" lon="12.21723589396739"><ele>329.0</ele><time>2026-03-29T11:56:06.001Z</time></trkpt><trkpt lat="46.13608090872005" lon="12.217125640549611"><ele>329.0</ele><time>2026-03-29T11:56:07.001Z</time></trkpt><trkpt lat="46.1360762010016" lon="12.21698441934734"><ele>329.0</ele><time>2026-03-29T11:56:08.001Z</time></trkpt><trkpt lat="46.136073769354475" lon="12.216829484699668"><ele>329.0</ele><time>2026-03-29T11:56:09.001Z</time></trkpt><trkpt lat="46.13610068510297" lon="12.216674857579944"><ele>329.0</ele><time>2026-03-29T11:56:10.001Z</time></trkpt><trkpt lat="46.1361480561132" lon="12.216520438442565"><ele>329.25</ele><time>2026-03-29T11:56:11.001Z</time></trkpt><trkpt lat="46.1361991121657" lon="12.216359446397995"><ele>329.5</ele><time>2026-03-29T11:56:12.001Z</time></trkpt><trkpt lat="46.13625456840106" lon="12.216186616760787"><ele>329.75</ele><time>2026-03-29T11:56:13.001Z</time></trkpt><trkpt lat="46.13631531047516" lon="12.215997970661386"><ele>330.0</ele><time>2026-03-29T11:56:14.001Z</time></trkpt><trkpt lat="46.136376228082554" lon="12.215817933515355"><ele>329.6666666666667</ele><time>2026-03-29T11:56:15.001Z</time></trkpt><trkpt lat="46.13643863377097" lon="12.215626975530764"><ele>329.33333333333337</ele><time>2026-03-29T11:56:16.001Z</time></trkpt><trkpt lat="46.136502856949726" lon="12.215427209386387"><ele>329.0</ele><time>2026-03-29T11:56:17.001Z</time></trkpt><trkpt lat="46.13657372456403" lon="12.215223115926493"><ele>329.33333333333337</ele><time>2026-03-29T11:56:18.001Z</time></trkpt><trkpt lat="46.13664890280523" lon="12.21501449909885"><ele>329.6666666666667</ele><time>2026-03-29T11:56:19.001Z</time></trkpt><trkpt lat="46.13672864601938" lon="12.214806780692328"><ele>330.0</ele><time>2026-03-29T11:56:20.001Z</time></trkpt><trkpt lat="46.13681481410602" lon="12.214603490068578"><ele>330.0</ele><time>2026-03-29T11:56:21.001Z</time></trkpt><trkpt lat="46.13690180559478" lon="12.214399231276325"><ele>330.0</ele><time>2026-03-29T11:56:22.001Z</time></trkpt><trkpt lat="46.136987443791874" lon="12.214190027142056"><ele>330.0</ele><time>2026-03-29T11:56:23Z</time></trkpt><trkpt lat="46.13706848371913" lon="12.213980370989209"><ele>330.3333333333333</ele><time>2026-03-29T11:56:24Z</time></trkpt><trkpt lat="46.13714177465686" lon="12.213760611354035"><ele>330.66666666666663</ele><time>2026-03-29T11:56:25Z</time></trkpt><trkpt lat="46.13720416958378" lon="12.213534376663455"><ele>331.0</ele><time>2026-03-29T11:56:26Z</time></trkpt><trkpt lat="46.1372568971343" lon="12.213303092590646"><ele>331.3333333333333</ele><time>2026-03-29T11:56:27Z</time></trkpt><trkpt lat="46.137299741350354" lon="12.213068323574879"><ele>331.6666666666667</ele><time>2026-03-29T11:56:28Z</time></trkpt><trkpt lat="46.137337125009076" lon="12.212834725632053"><ele>332.0</ele><time>2026-03-29T11:56:29Z</time></trkpt><trkpt lat="46.13736894344637" lon="12.212605171022759"><ele>333.0</ele><time>2026-03-29T11:56:30Z</time></trkpt><trkpt lat="46.13739897946718" lon="12.212380143907614"><ele>334.0</ele><time>2026-03-29T11:56:31Z</time></trkpt><trkpt lat="46.13742721285882" lon="12.212157433219428"><ele>335.0</ele><time>2026-03-29T11:56:32Z</time></trkpt><trkpt lat="46.13746623370215" lon="12.211942353554964"><ele>335.0</ele><time>2026-03-29T11:56:33Z</time></trkpt><trkpt lat="46.137521326392154" lon="12.211744551154425"><ele>335.0</ele><time>2026-03-29T11:56:34Z</time></trkpt><trkpt lat="46.13759753749176" lon="12.211558380168292"><ele>335.0</ele><time>2026-03-29T11:56:35Z</time></trkpt><trkpt lat="46.13769174851256" lon="12.211396407688303"><ele>335.0</ele><time>2026-03-29T11:56:36Z</time></trkpt><trkpt lat="46.137795968389575" lon="12.211244466170855"><ele>335.4</ele><time>2026-03-29T11:56:37Z</time></trkpt><trkpt lat="46.13788334810691" lon="12.21110484121297"><ele>335.8</ele><time>2026-03-29T11:56:38Z</time></trkpt><trkpt lat="46.137946147620745" lon="12.210963671247095"><ele>336.20000000000005</ele><time>2026-03-29T11:56:39Z</time></trkpt><trkpt lat="46.137980640598684" lon="12.210819641176634"><ele>336.6</ele><time>2026-03-29T11:56:40Z</time></trkpt><trkpt lat="46.13798813908313" lon="12.210681484408134"><ele>337.0</ele><time>2026-03-29T11:56:41Z</time></trkpt><trkpt lat="46.13797056108283" lon="12.210527781910866"><ele>338.0</ele><time>2026-03-29T11:56:42Z</time></trkpt><trkpt lat="46.137924095970696" lon="12.210350448322712"><ele>339.0</ele><time>2026-03-29T11:56:43Z</time></trkpt><trkpt lat="46.13785025468458" lon="12.210144246070024"><ele>340.0</ele><time>2026-03-29T11:56:44Z</time></trkpt><trkpt lat="46.13775509594155" lon="12.209932231745716"><ele>341.3333333333333</ele><time>2026-03-29T11:56:45Z</time></trkpt><trkpt lat="46.1376436872105" lon="12.209706485625034"><ele>342.6666666666667</ele><time>2026-03-29T11:56:46Z</time></trkpt><trkpt lat="46.13753690940138" lon="12.209462428916332"><ele>344.0</ele><time>2026-03-29T11:56:47Z</time></trkpt><trkpt lat="46.13743950699223" lon="12.209203957925316"><ele>344.0</ele><time>2026-03-29T11:56:48Z</time></trkpt><trkpt lat="46.13733574035068" lon="12.208937805427547"><ele>344.0</ele><time>2026-03-29T11:56:49Z</time></trkpt><trkpt lat="46.1372285199538" lon="12.208666469919642"><ele>344.0</ele><time>2026-03-29T11:56:50Z</time></trkpt><trkpt lat="46.137117005506596" lon="12.20838594721719"><ele>345.33333333333337</ele><time>2026-03-29T11:56:51Z</time></trkpt><trkpt lat="46.137007927747845" lon="12.208110088087496"><ele>346.6666666666667</ele><time>2026-03-29T11:56:52Z</time></trkpt><trkpt lat="46.13690219833931" lon="12.20784657265264"><ele>348.0</ele><time>2026-03-29T11:56:53Z</time></trkpt><trkpt lat="46.13680207491879" lon="12.20760438807585"><ele>348.0</ele><time>2026-03-29T11:56:54Z</time></trkpt><trkpt lat="46.13670061602868" lon="12.207374523528864"><ele>348.0</ele><time>2026-03-29T11:56:55Z</time></trkpt><trkpt lat="46.13659328471946" lon="12.207161677264093"><ele>348.0</ele><time>2026-03-29T11:56:56Z</time></trkpt><trkpt lat="46.13646835760811" lon="12.20697467410424"><ele>350.6666666666667</ele><time>2026-03-29T11:56:57Z</time></trkpt><trkpt lat="46.136316879965804" lon="12.206821499713653"><ele>353.33333333333337</ele><time>2026-03-29T11:56:58Z</time></trkpt><trkpt lat="46.13614487069121" lon="12.206695356006785"><ele>356.0</ele><time>2026-03-29T11:56:59Z</time></trkpt><trkpt lat="46.13595602732349" lon="12.206599694453992"><ele>356.0</ele><time>2026-03-29T11:57:00Z</time></trkpt><trkpt lat="46.13575166654854" lon="12.206531569339603"><ele>356.0</ele><time>2026-03-29T11:57:01Z</time></trkpt><trkpt lat="46.135536918094516" lon="12.206492194148682"><ele>356.0</ele><time>2026-03-29T11:57:02Z</time></trkpt><trkpt lat="46.13531294601668" lon="12.206467955923769"><ele>359.5</ele><time>2026-03-29T11:57:03Z</time></trkpt><trkpt lat="46.13507975723428" lon="12.206428061241672"><ele>363.0</ele><time>2026-03-29T11:57:04Z</time></trkpt><trkpt lat="46.134863150285675" lon="12.206366326681577"><ele>363.0</ele><time>2026-03-29T11:57:05Z</time></trkpt><trkpt lat="46.13466114640041" lon="12.206288526715666"><ele>363.0</ele><time>2026-03-29T11:57:06Z</time></trkpt><trkpt lat="46.13446403227003" lon="12.206191738552151"><ele>363.0</ele><time>2026-03-29T11:57:07Z</time></trkpt><trkpt lat="46.134276060962144" lon="12.206075144534365"><ele>363.0</ele><time>2026-03-29T11:57:08Z</time></trkpt><trkpt lat="46.13410951060595" lon="12.205949132493691"><ele>363.0</ele><time>2026-03-29T11:57:09Z</time></trkpt><trkpt lat="46.133954402436" lon="12.205812592983694"><ele>363.0</ele><time>2026-03-29T11:57:10Z</time></trkpt><trkpt lat="46.13381723340726" lon="12.20566863658217"><ele>364.0</ele><time>2026-03-29T11:57:11Z</time></trkpt><trkpt lat="46.133686670406334" lon="12.2054991009797"><ele>365.0</ele><time>2026-03-29T11:57:12Z</time></trkpt><trkpt lat="46.13355340471109" lon="12.205304733900562"><ele>366.0</ele><time>2026-03-29T11:57:13Z</time></trkpt><trkpt lat="46.133409243693116" lon="12.20508253065516"><ele>366.0</ele><time>2026-03-29T11:57:14.023Z</time></trkpt><trkpt lat="46.13326587371038" lon="12.204848996946566"><ele>366.0</ele><time>2026-03-29T11:57:15.023Z</time></trkpt><trkpt lat="46.133134834075996" lon="12.204620866397043"><ele>366.0</ele><time>2026-03-29T11:57:16.022Z</time></trkpt><trkpt lat="46.1330145663418" lon="12.204398169709577"><ele>366.5</ele><time>2026-03-29T11:57:17.022Z</time></trkpt><trkpt lat="46.13289491881804" lon="12.204177887586043"><ele>367.0</ele><time>2026-03-29T11:57:18.019Z</time></trkpt><trkpt lat="46.13262788396899" lon="12.203446934011023"><ele>367.0</ele><time>2026-03-29T11:57:22.001Z</time></trkpt><trkpt lat="46.13255473963351" lon="12.203190550147367"><ele>367.0</ele><time>2026-03-29T11:57:23.001Z</time></trkpt><trkpt lat="46.13253166170305" lon="12.20294957275205"><ele>367.0</ele><time>2026-03-29T11:57:24.001Z</time></trkpt><trkpt lat="46.13252091056994" lon="12.20271826661041"><ele>367.3333333333333</ele><time>2026-03-29T11:57:25.001Z</time></trkpt><trkpt lat="46.132529373555634" lon="12.202482504178452"><ele>367.6666666666667</ele><time>2026-03-29T11:57:26.001Z</time></trkpt><trkpt lat="46.13255217912361" lon="12.202248577327211"><ele>368.0</ele><time>2026-03-29T11:57:27.001Z</time></trkpt><trkpt lat="46.132589114968916" lon="12.202017772408208"><ele>370.33333333333337</ele><time>2026-03-29T11:57:28.001Z</time></trkpt><trkpt lat="46.132646736572404" lon="12.20179584379749"><ele>372.6666666666667</ele><time>2026-03-29T11:57:29.001Z</time></trkpt><trkpt lat="46.13272107386708" lon="12.2015789938104"><ele>375.0</ele><time>2026-03-29T11:57:30.001Z</time></trkpt><trkpt lat="46.132811300827335" lon="12.201369884229338"><ele>376.3333333333333</ele><time>2026-03-29T11:57:31.001Z</time></trkpt><trkpt lat="46.1329186727324" lon="12.20116982394039"><ele>377.66666666666663</ele><time>2026-03-29T11:57:32.001Z</time></trkpt><trkpt lat="46.13304089849535" lon="12.200986487751804"><ele>379.0</ele><time>2026-03-29T11:57:33.001Z</time></trkpt><trkpt lat="46.133176159876825" lon="12.200818207013503"><ele>380.0</ele><time>2026-03-29T11:57:34.001Z</time></trkpt><trkpt lat="46.13331890999713" lon="12.2006553358477"><ele>381.0</ele><time>2026-03-29T11:57:35.001Z</time></trkpt><trkpt lat="46.1334618637052" lon="12.200491646592674"><ele>382.0</ele><time>2026-03-29T11:57:36.001Z</time></trkpt><trkpt lat="46.13359811996266" lon="12.200328617393083"><ele>382.0</ele><time>2026-03-29T11:57:37.001Z</time></trkpt><trkpt lat="46.13371957435641" lon="12.200179640209397"><ele>382.0</ele><time>2026-03-29T11:57:38.001Z</time></trkpt><trkpt lat="46.13384010760056" lon="12.200029085906579"><ele>382.0</ele><time>2026-03-29T11:57:39.001Z</time></trkpt><trkpt lat="46.13396823958305" lon="12.199861335802396"><ele>383.0</ele><time>2026-03-29T11:57:40.001Z</time></trkpt><trkpt lat="46.13408800547793" lon="12.199699438983696"><ele>384.0</ele><time>2026-03-29T11:57:41.001Z</time></trkpt><trkpt lat="46.13420057199948" lon="12.19954875604078"><ele>385.0</ele><time>2026-03-29T11:57:42.001Z</time></trkpt><trkpt lat="46.13430637977584" lon="12.199407979225592"><ele>385.0</ele><time>2026-03-29T11:57:43.001Z</time></trkpt><trkpt lat="46.13440492177569" lon="12.199281331430948"><ele>385.0</ele><time>2026-03-29T11:57:44.001Z</time></trkpt><trkpt lat="46.134498713897734" lon="12.199166232231281"><ele>385.0</ele><time>2026-03-29T11:57:45.001Z</time></trkpt><trkpt lat="46.13457944019476" lon="12.19907721688526"><ele>385.0</ele><time>2026-03-29T11:57:46.001Z</time></trkpt><trkpt lat="46.13463931701505" lon="12.19902352097814"><ele>385.0</ele><time>2026-03-29T11:57:47.001Z</time></trkpt><trkpt lat="46.13470005264155" lon="12.1989946993309"><ele>384.6</ele><time>2026-03-29T11:57:48.001Z</time></trkpt><trkpt lat="46.134763293424705" lon="12.198871702148127"><ele>384.2</ele><time>2026-03-29T11:57:50.001Z</time></trkpt><trkpt lat="46.134750940637474" lon="12.198764945836055"><ele>383.79999999999995</ele><time>2026-03-29T11:57:51.001Z</time></trkpt><trkpt lat="46.134710051165676" lon="12.198646409925669"><ele>383.4</ele><time>2026-03-29T11:57:52.001Z</time></trkpt><trkpt lat="46.13465439676598" lon="12.198529750851188"><ele>383.0</ele><time>2026-03-29T11:57:53.001Z</time></trkpt><trkpt lat="46.134594612827776" lon="12.19839354619206"><ele>383.0</ele><time>2026-03-29T11:57:54.001Z</time></trkpt><trkpt lat="46.134535423668765" lon="12.198268276609882"><ele>383.0</ele><time>2026-03-29T11:57:55.001Z</time></trkpt><trkpt lat="46.13447991494444" lon="12.198148851137413"><ele>383.0</ele><time>2026-03-29T11:57:56.001Z</time></trkpt><trkpt lat="46.13442282346237" lon="12.19804105722848"><ele>383.0</ele><time>2026-03-29T11:57:57.001Z</time></trkpt><trkpt lat="46.134359666487796" lon="12.197952630644027"><ele>383.0</ele><time>2026-03-29T11:57:58.001Z</time></trkpt><trkpt lat="46.13430312362003" lon="12.197865453367289"><ele>383.2</ele><time>2026-03-29T11:57:59.001Z</time></trkpt><trkpt lat="46.134246260344604" lon="12.197778699395947"><ele>383.4</ele><time>2026-03-29T11:58:00.001Z</time></trkpt><trkpt lat="46.13418151712452" lon="12.197684355924347"><ele>383.59999999999997</ele><time>2026-03-29T11:58:01.001Z</time></trkpt><trkpt lat="46.13411169705753" lon="12.197588956018611"><ele>383.79999999999995</ele><time>2026-03-29T11:58:02.001Z</time></trkpt><trkpt lat="46.13404365632919" lon="12.197484212293089"><ele>384.0</ele><time>2026-03-29T11:58:03.001Z</time></trkpt><trkpt lat="46.13397259874979" lon="12.197370768617025"><ele>383.25</ele><time>2026-03-29T11:58:04.001Z</time></trkpt><trkpt lat="46.13389998169794" lon="12.19725078297323"><ele>382.5</ele><time>2026-03-29T11:58:05.001Z</time></trkpt><trkpt lat="46.13382029926891" lon="12.197132898589276"><ele>381.75</ele><time>2026-03-29T11:58:06.001Z</time></trkpt><trkpt lat="46.133737018850994" lon="12.197012874609554"><ele>381.0</ele><time>2026-03-29T11:58:07.001Z</time></trkpt><trkpt lat="46.13365049809918" lon="12.196886449865929"><ele>381.0</ele><time>2026-03-29T11:58:08.001Z</time></trkpt><trkpt lat="46.133563974638754" lon="12.196757100096061"><ele>381.0</ele><time>2026-03-29T11:58:09.001Z</time></trkpt><trkpt lat="46.13347827298349" lon="12.196618471251007"><ele>381.0</ele><time>2026-03-29T11:58:10.001Z</time></trkpt><trkpt lat="46.13339412206318" lon="12.19647592256084"><ele>381.0</ele><time>2026-03-29T11:58:11.001Z</time></trkpt><trkpt lat="46.13330515712698" lon="12.196340332552364"><ele>381.0</ele><time>2026-03-29T11:58:12.001Z</time></trkpt><trkpt lat="46.13321816491718" lon="12.196214821868676"><ele>381.0</ele><time>2026-03-29T11:58:13.001Z</time></trkpt><trkpt lat="46.133128952106" lon="12.196083286970898"><ele>381.0</ele><time>2026-03-29T11:58:14.001Z</time></trkpt><trkpt lat="46.1330391416362" lon="12.195948490186833"><ele>381.0</ele><time>2026-03-29T11:58:15.001Z</time></trkpt><trkpt lat="46.13295362411753" lon="12.195811957477355"><ele>381.0</ele><time>2026-03-29T11:58:16.001Z</time></trkpt><trkpt lat="46.132872298479505" lon="12.195684341905404"><ele>381.0</ele><time>2026-03-29T11:58:17.001Z</time></trkpt><trkpt lat="46.132791608914076" lon="12.195561708467125"><ele>381.0</ele><time>2026-03-29T11:58:18.001Z</time></trkpt><trkpt lat="46.13270568933763" lon="12.195428508466994"><ele>381.0</ele><time>2026-03-29T11:58:19.001Z</time></trkpt><trkpt lat="46.13261457902517" lon="12.19528663905399"><ele>381.25</ele><time>2026-03-29T11:58:20.001Z</time></trkpt><trkpt lat="46.13252256387215" lon="12.195137584030356"><ele>381.5</ele><time>2026-03-29T11:58:21.001Z</time></trkpt><trkpt lat="46.1324287797334" lon="12.19498049752407"><ele>381.75</ele><time>2026-03-29T11:58:22.001Z</time></trkpt><trkpt lat="46.13233093682836" lon="12.19481583216701"><ele>382.0</ele><time>2026-03-29T11:58:23.001Z</time></trkpt><trkpt lat="46.13222988118462" lon="12.194635094533517"><ele>382.0</ele><time>2026-03-29T11:58:24.001Z</time></trkpt><trkpt lat="46.13213176740546" lon="12.194438211987103"><ele>382.0</ele><time>2026-03-29T11:58:25.001Z</time></trkpt><trkpt lat="46.13203475969916" lon="12.19423109278434"><ele>382.0</ele><time>2026-03-29T11:58:26.001Z</time></trkpt><trkpt lat="46.13194041364892" lon="12.194012624677047"><ele>383.0</ele><time>2026-03-29T11:58:27.001Z</time></trkpt><trkpt lat="46.13184843031285" lon="12.193782070592132"><ele>384.0</ele><time>2026-03-29T11:58:28.001Z</time></trkpt><trkpt lat="46.131757416648014" lon="12.193541728434825"><ele>385.0</ele><time>2026-03-29T11:58:29Z</time></trkpt><trkpt lat="46.13166653251519" lon="12.193294585871906"><ele>384.33333333333337</ele><time>2026-03-29T11:58:30Z</time></trkpt><trkpt lat="46.131576303113924" lon="12.193051927322195"><ele>383.6666666666667</ele><time>2026-03-29T11:58:31Z</time></trkpt><trkpt lat="46.1314852693411" lon="12.192806084585808"><ele>383.0</ele><time>2026-03-29T11:58:32Z</time></trkpt><trkpt lat="46.13140142255178" lon="12.19258678966043"><ele>383.0</ele><time>2026-03-29T11:58:33Z</time></trkpt><trkpt lat="46.13131658289301" lon="12.192368588265479"><ele>383.0</ele><time>2026-03-29T11:58:34Z</time></trkpt><trkpt lat="46.13122789865756" lon="12.192149055436479"><ele>383.0</ele><time>2026-03-29T11:58:35Z</time></trkpt><trkpt lat="46.131137771914695" lon="12.191938701424299"><ele>383.33333333333337</ele><time>2026-03-29T11:58:36Z</time></trkpt><trkpt lat="46.13104757546534" lon="12.191740432688018"><ele>383.6666666666667</ele><time>2026-03-29T11:58:37Z</time></trkpt><trkpt lat="46.130962917572184" lon="12.191550281136948"><ele>384.0</ele><time>2026-03-29T11:58:38Z</time></trkpt><trkpt lat="46.13087925882378" lon="12.191362866656844"><ele>384.5</ele><time>2026-03-29T11:58:39Z</time></trkpt><trkpt lat="46.13079551370859" lon="12.191178477098276"><ele>385.0</ele><time>2026-03-29T11:58:40Z</time></trkpt><trkpt lat="46.13072269772988" lon="12.191000657136684"><ele>385.5</ele><time>2026-03-29T11:58:41Z</time></trkpt><trkpt lat="46.130659836355974" lon="12.190830730562805"><ele>386.0</ele><time>2026-03-29T11:58:42Z</time></trkpt><trkpt lat="46.13060670487953" lon="12.19066487616841"><ele>386.5</ele><time>2026-03-29T11:58:43Z</time></trkpt><trkpt lat="46.13056711530924" lon="12.190500129874895"><ele>387.0</ele><time>2026-03-29T11:58:44Z</time></trkpt><trkpt lat="46.13053731390626" lon="12.190326647674592"><ele>387.5</ele><time>2026-03-29T11:58:45Z</time></trkpt><trkpt lat="46.13051462867905" lon="12.190151714593235"><ele>388.0</ele><time>2026-03-29T11:58:46Z</time></trkpt><trkpt lat="46.13049355212704" lon="12.189974785292296"><ele>388.75</ele><time>2026-03-29T11:58:47Z</time></trkpt><trkpt lat="46.13046360638171" lon="12.189803928174253"><ele>389.5</ele><time>2026-03-29T11:58:48Z</time></trkpt><trkpt lat="46.13042531942516" lon="12.189640244232056"><ele>390.25</ele><time>2026-03-29T11:58:49Z</time></trkpt><trkpt lat="46.1303707050748" lon="12.189485111399271"><ele>391.0</ele><time>2026-03-29T11:58:50Z</time></trkpt><trkpt lat="46.13029811388247" lon="12.18933685267654"><ele>391.0</ele><time>2026-03-29T11:58:51Z</time></trkpt><trkpt lat="46.130208520175536" lon="12.189207132140933"><ele>391.0</ele><time>2026-03-29T11:58:52Z</time></trkpt><trkpt lat="46.13011424481467" lon="12.189071227545593"><ele>391.0</ele><time>2026-03-29T11:58:53Z</time></trkpt><trkpt lat="46.13001859181455" lon="12.188936701913981"><ele>391.0</ele><time>2026-03-29T11:58:54Z</time></trkpt><trkpt lat="46.12992036785867" lon="12.188789500094503"><ele>390.0</ele><time>2026-03-29T11:58:55Z</time></trkpt><trkpt lat="46.12982259872657" lon="12.188630315146714"><ele>389.0</ele><time>2026-03-29T11:58:56Z</time></trkpt><trkpt lat="46.129726548480306" lon="12.188458489179784"><ele>388.0</ele><time>2026-03-29T11:58:57Z</time></trkpt><trkpt lat="46.12963640596804" lon="12.188280910323908"><ele>389.0</ele><time>2026-03-29T11:58:58Z</time></trkpt><trkpt lat="46.12955641621419" lon="12.188099629207512"><ele>390.0</ele><time>2026-03-29T11:58:59Z</time></trkpt><trkpt lat="46.1294795051002" lon="12.187913579378888"><ele>391.0</ele><time>2026-03-29T11:59:00Z</time></trkpt><trkpt lat="46.12940117460116" lon="12.187724576006293"><ele>391.0</ele><time>2026-03-29T11:59:01Z</time></trkpt><trkpt lat="46.1293197714727" lon="12.187537486830696"><ele>391.0</ele><time>2026-03-29T11:59:02Z</time></trkpt><trkpt lat="46.129237980375265" lon="12.187350683520863"><ele>391.0</ele><time>2026-03-29T11:59:03Z</time></trkpt><trkpt lat="46.12916056137754" lon="12.1871780962051"><ele>391.0</ele><time>2026-03-29T11:59:04Z</time></trkpt><trkpt lat="46.129084211784104" lon="12.187015712756756"><ele>391.0</ele><time>2026-03-29T11:59:05Z</time></trkpt><trkpt lat="46.12900667053289" lon="12.186869210250693"><ele>391.0</ele><time>2026-03-29T11:59:06Z</time></trkpt><trkpt lat="46.12893003718455" lon="12.186742702930147"><ele>391.0</ele><time>2026-03-29T11:59:07Z</time></trkpt><trkpt lat="46.1288657455833" lon="12.186639478057266"><ele>391.0</ele><time>2026-03-29T11:59:08Z</time></trkpt><trkpt lat="46.12881865192088" lon="12.186544276319882"><ele>391.0</ele><time>2026-03-29T11:59:09Z</time></trkpt><trkpt lat="46.128790360885425" lon="12.186441958579003"><ele>391.00000000000006</ele><time>2026-03-29T11:59:10Z</time></trkpt><trkpt lat="46.12879666554119" lon="12.18629558076144"><ele>391.0</ele><time>2026-03-29T11:59:12Z</time></trkpt><trkpt lat="46.12885771468567" lon="12.186186384591405"><ele>391.0</ele><time>2026-03-29T11:59:17Z</time></trkpt><trkpt lat="46.12890477475681" lon="12.18611127461392"><ele>391.0</ele><time>2026-03-29T11:59:18Z</time></trkpt><trkpt lat="46.12893904600877" lon="12.18602025054622"><ele>391.00000000000006</ele><time>2026-03-29T11:59:19Z</time></trkpt><trkpt lat="46.12895305782237" lon="12.185902192179862"><ele>391.0</ele><time>2026-03-29T11:59:20Z</time></trkpt><trkpt lat="46.128935403338716" lon="12.185788847866624"><ele>391.00000000000006</ele><time>2026-03-29T11:59:21Z</time></trkpt><trkpt lat="46.12889022417371" lon="12.18570679593211"><ele>391.0</ele><time>2026-03-29T11:59:22Z</time></trkpt><trkpt lat="46.12882757535402" lon="12.185649546842114"><ele>391.0</ele><time>2026-03-29T11:59:23Z</time></trkpt><trkpt lat="46.12875172771308" lon="12.185619052259469"><ele>391.0</ele><time>2026-03-29T11:59:24Z</time></trkpt><trkpt lat="46.12866120339418" lon="12.185614235225131"><ele>391.00000000000006</ele><time>2026-03-29T11:59:25Z</time></trkpt><trkpt lat="46.12856026844836" lon="12.185617605951267"><ele>391.0</ele><time>2026-03-29T11:59:26Z</time></trkpt><trkpt lat="46.12847579257478" lon="12.185583958913943"><ele>390.8</ele><time>2026-03-29T11:59:27.001Z</time></trkpt><trkpt lat="46.128392718369994" lon="12.18551702705802"><ele>390.6</ele><time>2026-03-29T11:59:28.001Z</time></trkpt><trkpt lat="46.128320243976944" lon="12.185428109041117"><ele>390.4</ele><time>2026-03-29T11:59:29.001Z</time></trkpt><trkpt lat="46.12825377916236" lon="12.185321000956996"><ele>390.2</ele><time>2026-03-29T11:59:30.001Z</time></trkpt><trkpt lat="46.1281946921206" lon="12.185214498725474"><ele>390.0</ele><time>2026-03-29T11:59:31.001Z</time></trkpt><trkpt lat="46.128137150334176" lon="12.185099062748606"><ele>390.0</ele><time>2026-03-29T11:59:32.001Z</time></trkpt><trkpt lat="46.128082557117516" lon="12.184986528576193"><ele>390.0</ele><time>2026-03-29T11:59:33.001Z</time></trkpt><trkpt lat="46.12802445465584" lon="12.184880201174586"><ele>390.0</ele><time>2026-03-29T11:59:34.001Z</time></trkpt><trkpt lat="46.12796059398038" lon="12.184772730459471"><ele>390.0</ele><time>2026-03-29T11:59:35.001Z</time></trkpt><trkpt lat="46.12789537578907" lon="12.184667036804525"><ele>390.0</ele><time>2026-03-29T11:59:36.001Z</time></trkpt><trkpt lat="46.12782809022326" lon="12.184555844062935"><ele>390.6</ele><time>2026-03-29T11:59:37.001Z</time></trkpt><trkpt lat="46.127762194770355" lon="12.184444171365367"><ele>391.2</ele><time>2026-03-29T11:59:38.001Z</time></trkpt><trkpt lat="46.12769711834733" lon="12.184326410615368"><ele>391.79999999999995</ele><time>2026-03-29T11:59:39.001Z</time></trkpt><trkpt lat="46.127630748647064" lon="12.184203142160195"><ele>392.4</ele><time>2026-03-29T11:59:40.001Z</time></trkpt><trkpt lat="46.12755768494861" lon="12.184081499655218"><ele>393.0</ele><time>2026-03-29T11:59:41.001Z</time></trkpt><trkpt lat="46.12748123095568" lon="12.183959486644017"><ele>392.5</ele><time>2026-03-29T11:59:42.001Z</time></trkpt><trkpt lat="46.12740083308104" lon="12.183832091429997"><ele>392.0</ele><time>2026-03-29T11:59:43.001Z</time></trkpt><trkpt lat="46.12732305785995" lon="12.183698241842812"><ele>391.5</ele><time>2026-03-29T11:59:44.001Z</time></trkpt><trkpt lat="46.12724267353476" lon="12.183558676843315"><ele>391.0</ele><time>2026-03-29T11:59:45.001Z</time></trkpt><trkpt lat="46.12716337127079" lon="12.183416480052477"><ele>391.0</ele><time>2026-03-29T11:59:46.001Z</time></trkpt><trkpt lat="46.12708438426683" lon="12.18326928880825"><ele>391.0</ele><time>2026-03-29T11:59:47.001Z</time></trkpt><trkpt lat="46.12699782030322" lon="12.183123501971231"><ele>391.0</ele><time>2026-03-29T11:59:48.001Z</time></trkpt><trkpt lat="46.12690970528394" lon="12.182976582789479"><ele>391.0</ele><time>2026-03-29T11:59:49.001Z</time></trkpt><trkpt lat="46.12682042465527" lon="12.182824445595049"><ele>391.25</ele><time>2026-03-29T11:59:50.001Z</time></trkpt><trkpt lat="46.12672937934676" lon="12.182672203425138"><ele>391.5</ele><time>2026-03-29T11:59:51.001Z</time></trkpt><trkpt lat="46.126640162883405" lon="12.182515572232928"><ele>391.75</ele><time>2026-03-29T11:59:52.001Z</time></trkpt><trkpt lat="46.12655390172184" lon="12.182355538663689"><ele>392.0</ele><time>2026-03-29T11:59:53.001Z</time></trkpt><trkpt lat="46.12646586660926" lon="12.182196511059804"><ele>393.25</ele><time>2026-03-29T11:59:54.001Z</time></trkpt><trkpt lat="46.12637477084089" lon="12.182037715660792"><ele>394.5</ele><time>2026-03-29T11:59:55.001Z</time></trkpt><trkpt lat="46.12628135291196" lon="12.18188515043798"><ele>395.75</ele><time>2026-03-29T11:59:56.001Z</time></trkpt><trkpt lat="46.12618756777705" lon="12.181730078684842"><ele>397.0</ele><time>2026-03-29T11:59:57.001Z</time></trkpt><trkpt lat="46.12609539927611" lon="12.18157723394977"><ele>398.5</ele><time>2026-03-29T11:59:58.001Z</time></trkpt><trkpt lat="46.126006640766" lon="12.181423105336659"><ele>400.0</ele><time>2026-03-29T11:59:59.001Z</time></trkpt><trkpt lat="46.125922263193836" lon="12.181267139333464"><ele>401.5</ele><time>2026-03-29T12:00:00.001Z</time></trkpt><trkpt lat="46.12584099032345" lon="12.181111128599028"><ele>403.0</ele><time>2026-03-29T12:00:01.001Z</time></trkpt><trkpt lat="46.12576120598707" lon="12.180957925358618"><ele>403.2</ele><time>2026-03-29T12:00:02.001Z</time></trkpt><trkpt lat="46.12568632195528" lon="12.180811161717843"><ele>403.4</ele><time>2026-03-29T12:00:03.001Z</time></trkpt><trkpt lat="46.125619493653716" lon="12.180673588313075"><ele>403.59999999999997</ele><time>2026-03-29T12:00:04.001Z</time></trkpt><trkpt lat="46.12555783222733" lon="12.180546970669049"><ele>403.79999999999995</ele><time>2026-03-29T12:00:05.001Z</time></trkpt><trkpt lat="46.12550414682727" lon="12.180426738804462"><ele>404.0</ele><time>2026-03-29T12:00:06.001Z</time></trkpt><trkpt lat="46.125455099364785" lon="12.18030634813406"><ele>404.0</ele><time>2026-03-29T12:00:07.001Z</time></trkpt><trkpt lat="46.125401948166" lon="12.18018112046642"><ele>404.0</ele><time>2026-03-29T12:00:08.001Z</time></trkpt><trkpt lat="46.1253427614855" lon="12.180048359303564"><ele>404.0</ele><time>2026-03-29T12:00:09.001Z</time></trkpt><trkpt lat="46.12527856950977" lon="12.179907960508006"><ele>404.0</ele><time>2026-03-29T12:00:10.001Z</time></trkpt><trkpt lat="46.12521741405502" lon="12.17975804805064"><ele>404.0</ele><time>2026-03-29T12:00:11.001Z</time></trkpt><trkpt lat="46.12515309751034" lon="12.179600703794822"><ele>405.0</ele><time>2026-03-29T12:00:12.001Z</time></trkpt><trkpt lat="46.125086279568244" lon="12.179439924004484"><ele>406.0</ele><time>2026-03-29T12:00:13.001Z</time></trkpt><trkpt lat="46.12501306346669" lon="12.179277646874413"><ele>407.0</ele><time>2026-03-29T12:00:14.001Z</time></trkpt><trkpt lat="46.12494615990815" lon="12.179125829469397"><ele>408.0</ele><time>2026-03-29T12:00:15.001Z</time></trkpt><trkpt lat="46.12488459801186" lon="12.17898349854432"><ele>408.4</ele><time>2026-03-29T12:00:16.001Z</time></trkpt><trkpt lat="46.12482477337683" lon="12.17885450824714"><ele>408.79999999999995</ele><time>2026-03-29T12:00:17.001Z</time></trkpt><trkpt lat="46.12476767148359" lon="12.178732249495544"><ele>409.2</ele><time>2026-03-29T12:00:18.001Z</time></trkpt><trkpt lat="46.12471422957718" lon="12.178610768494378"><ele>409.6</ele><time>2026-03-29T12:00:19.001Z</time></trkpt><trkpt lat="46.124659528153124" lon="12.178480657262416"><ele>410.0</ele><time>2026-03-29T12:00:20.001Z</time></trkpt><trkpt lat="46.12460505288666" lon="12.178343381743352"><ele>410.0</ele><time>2026-03-29T12:00:21.001Z</time></trkpt><trkpt lat="46.12454610715516" lon="12.178207342620274"><ele>410.0</ele><time>2026-03-29T12:00:22.001Z</time></trkpt><trkpt lat="46.124485856313555" lon="12.178066311628214"><ele>410.0</ele><time>2026-03-29T12:00:23.001Z</time></trkpt><trkpt lat="46.12442350271808" lon="12.17792317683282"><ele>410.0</ele><time>2026-03-29T12:00:24.001Z</time></trkpt><trkpt lat="46.124359961223185" lon="12.17777852074393"><ele>409.75</ele><time>2026-03-29T12:00:25.001Z</time></trkpt><trkpt lat="46.12429439820029" lon="12.177633637814525"><ele>409.5</ele><time>2026-03-29T12:00:26.001Z</time></trkpt><trkpt lat="46.12422907760475" lon="12.177485389267778"><ele>409.25</ele><time>2026-03-29T12:00:27.001Z</time></trkpt><trkpt lat="46.12416399170064" lon="12.17733487645531"><ele>409.0</ele><time>2026-03-29T12:00:28.001Z</time></trkpt><trkpt lat="46.12409764234563" lon="12.177186408543117"><ele>408.5</ele><time>2026-03-29T12:00:29.001Z</time></trkpt><trkpt lat="46.124019429102304" lon="12.177052441303948"><ele>408.0</ele><time>2026-03-29T12:00:30.001Z</time></trkpt><trkpt lat="46.12393516850904" lon="12.176933656118658"><ele>407.5</ele><time>2026-03-29T12:00:31.001Z</time></trkpt><trkpt lat="46.123841091453286" lon="12.176824730134967"><ele>407.0</ele><time>2026-03-29T12:00:32.001Z</time></trkpt><trkpt lat="46.123747086848084" lon="12.176735703186658"><ele>407.0</ele><time>2026-03-29T12:00:33.001Z</time></trkpt><trkpt lat="46.12364878248982" lon="12.176651864504782"><ele>407.0</ele><time>2026-03-29T12:00:34.001Z</time></trkpt><trkpt lat="46.12355083190345" lon="12.176575474668201"><ele>407.0</ele><time>2026-03-29T12:00:35Z</time></trkpt><trkpt lat="46.12345351034794" lon="12.176497748406254"><ele>407.0</ele><time>2026-03-29T12:00:36Z</time></trkpt><trkpt lat="46.12335603244403" lon="12.176418151875948"><ele>407.0</ele><time>2026-03-29T12:00:37Z</time></trkpt><trkpt lat="46.12325602672348" lon="12.176341108009556"><ele>407.5</ele><time>2026-03-29T12:00:38Z</time></trkpt><trkpt lat="46.123155781757895" lon="12.176259429173536"><ele>408.0</ele><time>2026-03-29T12:00:39Z</time></trkpt><trkpt lat="46.1230582632632" lon="12.176172686092771"><ele>408.5</ele><time>2026-03-29T12:00:40Z</time></trkpt><trkpt lat="46.12296058350742" lon="12.176080230588205"><ele>409.0</ele><time>2026-03-29T12:00:41Z</time></trkpt><trkpt lat="46.12286247481508" lon="12.175981015901181"><ele>409.0</ele><time>2026-03-29T12:00:42Z</time></trkpt><trkpt lat="46.1227669484988" lon="12.17586641481375"><ele>409.0</ele><time>2026-03-29T12:00:43Z</time></trkpt><trkpt lat="46.12267350271014" lon="12.175743987563537"><ele>409.0</ele><time>2026-03-29T12:00:44Z</time></trkpt><trkpt lat="46.12258286098505" lon="12.175612277957109"><ele>409.0</ele><time>2026-03-29T12:00:45Z</time></trkpt><trkpt lat="46.1224930114548" lon="12.175472906415362"><ele>409.25</ele><time>2026-03-29T12:00:46Z</time></trkpt><trkpt lat="46.1224020609343" lon="12.175329180950953"><ele>409.5</ele><time>2026-03-29T12:00:47Z</time></trkpt><trkpt lat="46.12231159666413" lon="12.175180188920283"><ele>409.75</ele><time>2026-03-29T12:00:48Z</time></trkpt><trkpt lat="46.12222524854211" lon="12.17503585685694"><ele>410.0</ele><time>2026-03-29T12:00:49Z</time></trkpt><trkpt lat="46.12213572242814" lon="12.174893885446963"><ele>409.5</ele><time>2026-03-29T12:00:50Z</time></trkpt><trkpt lat="46.122046039416546" lon="12.17474818572037"><ele>409.0</ele><time>2026-03-29T12:00:51Z</time></trkpt><trkpt lat="46.12195476871061" lon="12.174600768126107"><ele>408.5</ele><time>2026-03-29T12:00:52Z</time></trkpt><trkpt lat="46.12186232254227" lon="12.174453671920942"><ele>408.0</ele><time>2026-03-29T12:00:53Z</time></trkpt><trkpt lat="46.12176037403872" lon="12.174288485958444"><ele>408.0</ele><time>2026-03-29T12:00:54Z</time></trkpt><trkpt lat="46.121648665843026" lon="12.174108248648727"><ele>408.0</ele><time>2026-03-29T12:00:55Z</time></trkpt><trkpt lat="46.12153961912675" lon="12.173936721732687"><ele>408.0</ele><time>2026-03-29T12:00:56Z</time></trkpt><trkpt lat="46.121436648489556" lon="12.173778693422657"><ele>407.5</ele><time>2026-03-29T12:00:57Z</time></trkpt><trkpt lat="46.12133922537688" lon="12.17362827322517"><ele>407.0</ele><time>2026-03-29T12:00:58Z</time></trkpt><trkpt lat="46.121248053531914" lon="12.173487406108762"><ele>406.5</ele><time>2026-03-29T12:00:59Z</time></trkpt><trkpt lat="46.121162252096376" lon="12.173350873155947"><ele>406.0</ele><time>2026-03-29T12:01:00Z</time></trkpt><trkpt lat="46.121080963661065" lon="12.173221293863346"><ele>406.0</ele><time>2026-03-29T12:01:01Z</time></trkpt><trkpt lat="46.12100342700146" lon="12.173097022007482"><ele>406.0</ele><time>2026-03-29T12:01:02Z</time></trkpt><trkpt lat="46.12093025324785" lon="12.172977636095432"><ele>406.0</ele><time>2026-03-29T12:01:03Z</time></trkpt><trkpt lat="46.12085998680325" lon="12.172864096243423"><ele>406.0</ele><time>2026-03-29T12:01:04Z</time></trkpt><trkpt lat="46.12079263958948" lon="12.172757351130638"><ele>406.0</ele><time>2026-03-29T12:01:05Z</time></trkpt><trkpt lat="46.120725029702584" lon="12.172651830732718"><ele>406.0</ele><time>2026-03-29T12:01:06Z</time></trkpt><trkpt lat="46.12064916622915" lon="12.17253586227917"><ele>406.0</ele><time>2026-03-29T12:01:07Z</time></trkpt><trkpt lat="46.12056978834051" lon="12.17240713161714"><ele>406.0</ele><time>2026-03-29T12:01:08Z</time></trkpt><trkpt lat="46.12048839823529" lon="12.172267017147897"><ele>406.0</ele><time>2026-03-29T12:01:09Z</time></trkpt><trkpt lat="46.12041204615546" lon="12.172127898321817"><ele>405.6</ele><time>2026-03-29T12:01:10Z</time></trkpt><trkpt lat="46.120339128723444" lon="12.171992841192463"><ele>405.20000000000005</ele><time>2026-03-29T12:01:11Z</time></trkpt><trkpt lat="46.12026962574873" lon="12.171864251771096"><ele>404.79999999999995</ele><time>2026-03-29T12:01:12Z</time></trkpt><trkpt lat="46.12020282699178" lon="12.171738248653185"><ele>404.4</ele><time>2026-03-29T12:01:13Z</time></trkpt><trkpt lat="46.12014454981068" lon="12.171623151930696"><ele>404.0</ele><time>2026-03-29T12:01:14Z</time></trkpt><trkpt lat="46.120096818221015" lon="12.171523488660107"><ele>403.66666666666663</ele><time>2026-03-29T12:01:15Z</time></trkpt><trkpt lat="46.12005601798466" lon="12.171436865802843"><ele>403.3333333333333</ele><time>2026-03-29T12:01:16Z</time></trkpt><trkpt lat="46.12001686836121" lon="12.171356973315186"><ele>403.0</ele><time>2026-03-29T12:01:17Z</time></trkpt><trkpt lat="46.119975930152584" lon="12.17128307276423"><ele>402.66666666666663</ele><time>2026-03-29T12:01:18Z</time></trkpt><trkpt lat="46.11992886305535" lon="12.171199493456337"><ele>402.3333333333333</ele><time>2026-03-29T12:01:19Z</time></trkpt><trkpt lat="46.119876555170414" lon="12.1711077438525"><ele>402.0</ele><time>2026-03-29T12:01:20Z</time></trkpt><trkpt lat="46.11981904384276" lon="12.171008134822818"><ele>402.0</ele><time>2026-03-29T12:01:21Z</time></trkpt><trkpt lat="46.11975305112127" lon="12.170885548220872"><ele>402.0</ele><time>2026-03-29T12:01:22Z</time></trkpt><trkpt lat="46.11968222198541" lon="12.170748925174017"><ele>402.0</ele><time>2026-03-29T12:01:23Z</time></trkpt><trkpt lat="46.11960962748916" lon="12.17061531882603"><ele>402.0</ele><time>2026-03-29T12:01:24Z</time></trkpt><trkpt lat="46.119533799154446" lon="12.17046898217465"><ele>401.5</ele><time>2026-03-29T12:01:25Z</time></trkpt><trkpt lat="46.11945901750932" lon="12.17032805725246"><ele>401.0</ele><time>2026-03-29T12:01:26Z</time></trkpt><trkpt lat="46.119376410091746" lon="12.170175001960786"><ele>400.5</ele><time>2026-03-29T12:01:27Z</time></trkpt><trkpt lat="46.119292343858554" lon="12.170024146245725"><ele>400.0</ele><time>2026-03-29T12:01:28Z</time></trkpt><trkpt lat="46.119206794913126" lon="12.169864456443444"><ele>400.0</ele><time>2026-03-29T12:01:29Z</time></trkpt><trkpt lat="46.11912092317807" lon="12.16970770585864"><ele>400.0</ele><time>2026-03-29T12:01:30Z</time></trkpt><trkpt lat="46.11903735169695" lon="12.169548989385264"><ele>400.0</ele><time>2026-03-29T12:01:31Z</time></trkpt><trkpt lat="46.118955684667554" lon="12.169394833345676"><ele>400.0</ele><time>2026-03-29T12:01:32.001Z</time></trkpt><trkpt lat="46.118875201110896" lon="12.169242259116842"><ele>400.0</ele><time>2026-03-29T12:01:33.001Z</time></trkpt><trkpt lat="46.118791559687324" lon="12.169092782329109"><ele>400.0</ele><time>2026-03-29T12:01:34.001Z</time></trkpt><trkpt lat="46.11870436404398" lon="12.16893730736968"><ele>400.0</ele><time>2026-03-29T12:01:35.001Z</time></trkpt><trkpt lat="46.11861581252732" lon="12.168776363098878"><ele>400.0</ele><time>2026-03-29T12:01:36.001Z</time></trkpt><trkpt lat="46.118526617161" lon="12.168604417990284"><ele>400.33333333333337</ele><time>2026-03-29T12:01:37.001Z</time></trkpt><trkpt lat="46.11843323460415" lon="12.168425077991715"><ele>400.66666666666663</ele><time>2026-03-29T12:01:38.001Z</time></trkpt><trkpt lat="46.11833539419147" lon="12.168238708944607"><ele>401.0</ele><time>2026-03-29T12:01:39.001Z</time></trkpt><trkpt lat="46.11823263462447" lon="12.168048601002967"><ele>401.66666666666663</ele><time>2026-03-29T12:01:40.001Z</time></trkpt><trkpt lat="46.11812818177318" lon="12.167849949454311"><ele>402.33333333333337</ele><time>2026-03-29T12:01:41.001Z</time></trkpt><trkpt lat="46.11801986349379" lon="12.16764510063266"><ele>403.0</ele><time>2026-03-29T12:01:42.001Z</time></trkpt><trkpt lat="46.11790969043312" lon="12.167436687415334"><ele>402.6666666666667</ele><time>2026-03-29T12:01:43.001Z</time></trkpt><trkpt lat="46.11780254311514" lon="12.167217029143657"><ele>402.33333333333337</ele><time>2026-03-29T12:01:44.001Z</time></trkpt><trkpt lat="46.117704602676426" lon="12.166988690409283"><ele>402.0</ele><time>2026-03-29T12:01:45.001Z</time></trkpt><trkpt lat="46.117620713927685" lon="12.166753630820264"><ele>402.0</ele><time>2026-03-29T12:01:46.001Z</time></trkpt><trkpt lat="46.1175459819328" lon="12.166509181840135"><ele>402.0</ele><time>2026-03-29T12:01:47.001Z</time></trkpt><trkpt lat="46.117486909449084" lon="12.166257597766965"><ele>402.0</ele><time>2026-03-29T12:01:48.001Z</time></trkpt><trkpt lat="46.11743546578096" lon="12.165998171618543"><ele>400.66666666666663</ele><time>2026-03-29T12:01:49.001Z</time></trkpt><trkpt lat="46.11739247663305" lon="12.165737141584344"><ele>399.3333333333333</ele><time>2026-03-29T12:01:50.001Z</time></trkpt><trkpt lat="46.11734866379272" lon="12.165475287780163"><ele>398.0</ele><time>2026-03-29T12:01:51.001Z</time></trkpt><trkpt lat="46.11729937804456" lon="12.16520853646282"><ele>397.3333333333333</ele><time>2026-03-29T12:01:52.001Z</time></trkpt><trkpt lat="46.11725034531621" lon="12.1649372020493"><ele>396.66666666666663</ele><time>2026-03-29T12:01:53.001Z</time></trkpt><trkpt lat="46.11720074614873" lon="12.164661506302027"><ele>396.0</ele><time>2026-03-29T12:01:54.001Z</time></trkpt><trkpt lat="46.117156494479836" lon="12.164397146390959"><ele>395.0</ele><time>2026-03-29T12:01:55.001Z</time></trkpt><trkpt lat="46.11711792307579" lon="12.164134028475962"><ele>394.0</ele><time>2026-03-29T12:01:56.001Z</time></trkpt><trkpt lat="46.117084594412695" lon="12.163863411428444"><ele>393.0</ele><time>2026-03-29T12:01:57.001Z</time></trkpt><trkpt lat="46.117055915635504" lon="12.16358572103729"><ele>392.33333333333337</ele><time>2026-03-29T12:01:58.001Z</time></trkpt><trkpt lat="46.11703135701012" lon="12.163304606587564"><ele>391.6666666666667</ele><time>2026-03-29T12:01:59.001Z</time></trkpt><trkpt lat="46.11701068292591" lon="12.163025385458754"><ele>391.0</ele><time>2026-03-29T12:02:00.001Z</time></trkpt><trkpt lat="46.11699348845448" lon="12.162752523990745"><ele>390.6666666666667</ele><time>2026-03-29T12:02:01.001Z</time></trkpt><trkpt lat="46.11697561501269" lon="12.16249328926565"><ele>390.33333333333337</ele><time>2026-03-29T12:02:02.001Z</time></trkpt><trkpt lat="46.11695814157568" lon="12.162243055380234"><ele>390.0</ele><time>2026-03-29T12:02:03.001Z</time></trkpt><trkpt lat="46.11694228361885" lon="12.162003876857986"><ele>389.66666666666663</ele><time>2026-03-29T12:02:04.001Z</time></trkpt><trkpt lat="46.116927760926664" lon="12.161773361210294"><ele>389.3333333333333</ele><time>2026-03-29T12:02:05.001Z</time></trkpt><trkpt lat="46.11691093434537" lon="12.161545028040491"><ele>389.0</ele><time>2026-03-29T12:02:06.001Z</time></trkpt><trkpt lat="46.116885873777186" lon="12.161319091108755"><ele>389.0</ele><time>2026-03-29T12:02:07.001Z</time></trkpt><trkpt lat="46.1168498443322" lon="12.16109531944835"><ele>389.0</ele><time>2026-03-29T12:02:08.001Z</time></trkpt><trkpt lat="46.1168064966473" lon="12.160873435087813"><ele>389.0</ele><time>2026-03-29T12:02:09.001Z</time></trkpt><trkpt lat="46.11676050184376" lon="12.160653417157151"><ele>388.3333333333333</ele><time>2026-03-29T12:02:10.001Z</time></trkpt><trkpt lat="46.11671311403152" lon="12.160439083093472"><ele>387.66666666666663</ele><time>2026-03-29T12:02:11.001Z</time></trkpt><trkpt lat="46.116665950782135" lon="12.160233002909452"><ele>387.0</ele><time>2026-03-29T12:02:12.001Z</time></trkpt><trkpt lat="46.11661929152728" lon="12.160022476141634"><ele>387.0</ele><time>2026-03-29T12:02:13.001Z</time></trkpt><trkpt lat="46.11657459053678" lon="12.159807230296826"><ele>387.0</ele><time>2026-03-29T12:02:14.001Z</time></trkpt><trkpt lat="46.11652763357265" lon="12.159590308064235"><ele>387.0</ele><time>2026-03-29T12:02:15.001Z</time></trkpt><trkpt lat="46.116476173087754" lon="12.159370811546193"><ele>387.33333333333337</ele><time>2026-03-29T12:02:16.001Z</time></trkpt><trkpt lat="46.11642242226257" lon="12.159152162365633"><ele>387.6666666666667</ele><time>2026-03-29T12:02:17.001Z</time></trkpt><trkpt lat="46.116359739555264" lon="12.15894369358075"><ele>388.0</ele><time>2026-03-29T12:02:18.001Z</time></trkpt><trkpt lat="46.11629014381386" lon="12.15874874852669"><ele>388.0</ele><time>2026-03-29T12:02:19.001Z</time></trkpt><trkpt lat="46.116214900171386" lon="12.158557384885603"><ele>388.0</ele><time>2026-03-29T12:02:20.001Z</time></trkpt><trkpt lat="46.11613523389105" lon="12.158373044909412"><ele>388.0</ele><time>2026-03-29T12:02:21.001Z</time></trkpt><trkpt lat="46.116045817119534" lon="12.158199665397897"><ele>387.5</ele><time>2026-03-29T12:02:22.001Z</time></trkpt><trkpt lat="46.11595031223895" lon="12.15803117004509"><ele>387.0</ele><time>2026-03-29T12:02:23.001Z</time></trkpt><trkpt lat="46.115852500627156" lon="12.157869600453342"><ele>386.5</ele><time>2026-03-29T12:02:24.001Z</time></trkpt><trkpt lat="46.11575656585956" lon="12.157716268500463"><ele>386.0</ele><time>2026-03-29T12:02:25.001Z</time></trkpt><trkpt lat="46.11566396590697" lon="12.157574080343224"><ele>386.0</ele><time>2026-03-29T12:02:26.001Z</time></trkpt><trkpt lat="46.11557240442435" lon="12.157429908146325"><ele>386.0</ele><time>2026-03-29T12:02:27.001Z</time></trkpt><trkpt lat="46.11548031471655" lon="12.157279579409126"><ele>386.0</ele><time>2026-03-29T12:02:28.001Z</time></trkpt><trkpt lat="46.115385260930935" lon="12.157123531254847"><ele>386.0</ele><time>2026-03-29T12:02:29.001Z</time></trkpt><trkpt lat="46.11528388035429" lon="12.156968133464403"><ele>386.0</ele><time>2026-03-29T12:02:30.001Z</time></trkpt><trkpt lat="46.11517654740105" lon="12.156797959099206"><ele>386.0</ele><time>2026-03-29T12:02:31.001Z</time></trkpt><trkpt lat="46.115059008897205" lon="12.156616668090555"><ele>386.0</ele><time>2026-03-29T12:02:32.001Z</time></trkpt><trkpt lat="46.11493795516889" lon="12.156414202214746"><ele>386.0</ele><time>2026-03-29T12:02:33.001Z</time></trkpt><trkpt lat="46.114812605679944" lon="12.156201813344147"><ele>386.0</ele><time>2026-03-29T12:02:34.001Z</time></trkpt><trkpt lat="46.114692093271444" lon="12.155998807925265"><ele>386.0</ele><time>2026-03-29T12:02:35.001Z</time></trkpt><trkpt lat="46.114579843682456" lon="12.155806066763986"><ele>386.66666666666663</ele><time>2026-03-29T12:02:36.001Z</time></trkpt><trkpt lat="46.11447190983104" lon="12.155624611005303"><ele>387.33333333333337</ele><time>2026-03-29T12:02:37.001Z</time></trkpt><trkpt lat="46.114365320293686" lon="12.155449661909355"><ele>388.0</ele><time>2026-03-29T12:02:38.001Z</time></trkpt><trkpt lat="46.114258929239554" lon="12.155269917351719"><ele>388.0</ele><time>2026-03-29T12:02:39.001Z</time></trkpt><trkpt lat="46.11415120381333" lon="12.155088928654026"><ele>388.0</ele><time>2026-03-29T12:02:40.001Z</time></trkpt><trkpt lat="46.11404495560639" lon="12.154902696376451"><ele>388.0</ele><time>2026-03-29T12:02:41Z</time></trkpt><trkpt lat="46.113943240688926" lon="12.154707475257801"><ele>386.6666666666667</ele><time>2026-03-29T12:02:42Z</time></trkpt><trkpt lat="46.11384781417043" lon="12.154512356694104"><ele>385.33333333333337</ele><time>2026-03-29T12:02:43Z</time></trkpt><trkpt lat="46.11375536702576" lon="12.154312484390063"><ele>384.0</ele><time>2026-03-29T12:02:44Z</time></trkpt><trkpt lat="46.11366823207272" lon="12.154109429185867"><ele>384.33333333333337</ele><time>2026-03-29T12:02:45Z</time></trkpt><trkpt lat="46.11358512259602" lon="12.153910862960648"><ele>384.6666666666667</ele><time>2026-03-29T12:02:46Z</time></trkpt><trkpt lat="46.11350892496646" lon="12.153723375208065"><ele>385.0</ele><time>2026-03-29T12:02:47Z</time></trkpt><trkpt lat="46.11343498603263" lon="12.15354498324542"><ele>385.0</ele><time>2026-03-29T12:02:48Z</time></trkpt><trkpt lat="46.11336320109782" lon="12.153368636663624"><ele>385.0</ele><time>2026-03-29T12:02:49Z</time></trkpt><trkpt lat="46.113289505556516" lon="12.153191219466835"><ele>385.0</ele><time>2026-03-29T12:02:50Z</time></trkpt><trkpt lat="46.11321589399055" lon="12.15301126787489"><ele>385.0</ele><time>2026-03-29T12:02:51Z</time></trkpt><trkpt lat="46.11314378938396" lon="12.152830010914602"><ele>385.5</ele><time>2026-03-29T12:02:52Z</time></trkpt><trkpt lat="46.11307036045875" lon="12.15264772107673"><ele>386.0</ele><time>2026-03-29T12:02:53Z</time></trkpt><trkpt lat="46.11299658809242" lon="12.152466466313797"><ele>386.5</ele><time>2026-03-29T12:02:54Z</time></trkpt><trkpt lat="46.112920803301805" lon="12.152285899264974"><ele>387.0</ele><time>2026-03-29T12:02:55Z</time></trkpt><trkpt lat="46.11284762482923" lon="12.152107132826416"><ele>388.0</ele><time>2026-03-29T12:02:56Z</time></trkpt><trkpt lat="46.11277457863017" lon="12.151927904174938"><ele>389.0</ele><time>2026-03-29T12:02:57Z</time></trkpt><trkpt lat="46.1127082318288" lon="12.151750343998813"><ele>390.0</ele><time>2026-03-29T12:02:58Z</time></trkpt><trkpt lat="46.11265320846124" lon="12.151580461812435"><ele>391.0</ele><time>2026-03-29T12:02:59Z</time></trkpt><trkpt lat="46.11260447362177" lon="12.151420448080703"><ele>391.5</ele><time>2026-03-29T12:03:00Z</time></trkpt><trkpt lat="46.11255846503635" lon="12.151260604252998"><ele>392.0</ele><time>2026-03-29T12:03:01Z</time></trkpt><trkpt lat="46.112515582931934" lon="12.151098817770281"><ele>392.5</ele><time>2026-03-29T12:03:02Z</time></trkpt><trkpt lat="46.112475793251754" lon="12.150934744429492"><ele>393.0</ele><time>2026-03-29T12:03:03Z</time></trkpt><trkpt lat="46.11243590033088" lon="12.150771531168406"><ele>393.0</ele><time>2026-03-29T12:03:04Z</time></trkpt><trkpt lat="46.11239976561652" lon="12.150610864623664"><ele>393.0</ele><time>2026-03-29T12:03:05Z</time></trkpt><trkpt lat="46.11236480025297" lon="12.150463607751929"><ele>393.0</ele><time>2026-03-29T12:03:06Z</time></trkpt><trkpt lat="46.11233388246973" lon="12.150332578912767"><ele>393.0</ele><time>2026-03-29T12:03:07Z</time></trkpt><trkpt lat="46.11230893985105" lon="12.15021688019158"><ele>393.0</ele><time>2026-03-29T12:03:08Z</time></trkpt><trkpt lat="46.11228798004419" lon="12.150112605660377"><ele>393.0</ele><time>2026-03-29T12:03:09Z</time></trkpt><trkpt lat="46.11226698902159" lon="12.149955436952203"><ele>393.0</ele><time>2026-03-29T12:03:11Z</time></trkpt><trkpt lat="46.11225924599544" lon="12.149843085197364"><ele>393.0</ele><time>2026-03-29T12:03:13Z</time></trkpt><trkpt lat="46.11223730113843" lon="12.149737538866775"><ele>393.0</ele><time>2026-03-29T12:03:19Z</time></trkpt><trkpt lat="46.1122003190735" lon="12.14963134369628"><ele>393.0</ele><time>2026-03-29T12:03:21Z</time></trkpt><trkpt lat="46.11217007034344" lon="12.149503387572297"><ele>393.0</ele><time>2026-03-29T12:03:23Z</time></trkpt><trkpt lat="46.11215253567722" lon="12.149386681180971"><ele>394.3333333333333</ele><time>2026-03-29T12:03:25Z</time></trkpt><trkpt lat="46.11213524822809" lon="12.149244187888316"><ele>395.66666666666663</ele><time>2026-03-29T12:03:27Z</time></trkpt><trkpt lat="46.11211730563575" lon="12.149150327594766"><ele>397.0</ele><time>2026-03-29T12:03:28Z</time></trkpt><trkpt lat="46.11209367449038" lon="12.149046464823698"><ele>398.3333333333333</ele><time>2026-03-29T12:03:29Z</time></trkpt><trkpt lat="46.112069576578605" lon="12.148941824364732"><ele>399.66666666666663</ele><time>2026-03-29T12:03:30Z</time></trkpt><trkpt lat="46.11204947857996" lon="12.14882548729834"><ele>401.0</ele><time>2026-03-29T12:03:31Z</time></trkpt><trkpt lat="46.11202633046012" lon="12.148696268530687"><ele>401.20000000000005</ele><time>2026-03-29T12:03:32Z</time></trkpt><trkpt lat="46.11199965741677" lon="12.148559753064847"><ele>401.40000000000003</ele><time>2026-03-29T12:03:33.001Z</time></trkpt><trkpt lat="46.11197322889475" lon="12.148423428539227"><ele>401.6</ele><time>2026-03-29T12:03:34.001Z</time></trkpt><trkpt lat="46.1119434205694" lon="12.148273896104616"><ele>401.8</ele><time>2026-03-29T12:03:35.001Z</time></trkpt><trkpt lat="46.11191197162295" lon="12.148114225922578"><ele>402.0</ele><time>2026-03-29T12:03:36.001Z</time></trkpt><trkpt lat="46.111876229948024" lon="12.147945422401193"><ele>402.0</ele><time>2026-03-29T12:03:37.001Z</time></trkpt><trkpt lat="46.1118408055609" lon="12.147764973560198"><ele>402.0</ele><time>2026-03-29T12:03:38.001Z</time></trkpt><trkpt lat="46.11180417210417" lon="12.147575503639976"><ele>402.0</ele><time>2026-03-29T12:03:39.001Z</time></trkpt><trkpt lat="46.11176723975655" lon="12.147377548434163"><ele>402.0</ele><time>2026-03-29T12:03:40.001Z</time></trkpt><trkpt lat="46.11172643963037" lon="12.147173572804219"><ele>401.33333333333337</ele><time>2026-03-29T12:03:41.001Z</time></trkpt><trkpt lat="46.11168715641856" lon="12.146968210076917"><ele>400.6666666666667</ele><time>2026-03-29T12:03:42.001Z</time></trkpt><trkpt lat="46.11164446653152" lon="12.14675282858137"><ele>400.0</ele><time>2026-03-29T12:03:43.001Z</time></trkpt><trkpt lat="46.11159789821395" lon="12.14652870478058"><ele>401.0</ele><time>2026-03-29T12:03:44.001Z</time></trkpt><trkpt lat="46.11155048321048" lon="12.146294549088857"><ele>402.0</ele><time>2026-03-29T12:03:45.001Z</time></trkpt><trkpt lat="46.111503239525035" lon="12.146057957827816"><ele>403.0</ele><time>2026-03-29T12:03:46.001Z</time></trkpt><trkpt lat="46.111456430771334" lon="12.145818053767297"><ele>402.0</ele><time>2026-03-29T12:03:47.001Z</time></trkpt><trkpt lat="46.111408426318825" lon="12.145578084506884"><ele>401.0</ele><time>2026-03-29T12:03:48.001Z</time></trkpt><trkpt lat="46.111361975752715" lon="12.145352764387425"><ele>400.0</ele><time>2026-03-29T12:03:49.001Z</time></trkpt><trkpt lat="46.11132073837194" lon="12.145133002513587"><ele>400.0</ele><time>2026-03-29T12:03:50.001Z</time></trkpt><trkpt lat="46.11127992127636" lon="12.144911639096094"><ele>400.0</ele><time>2026-03-29T12:03:51.001Z</time></trkpt><trkpt lat="46.11123501337956" lon="12.14468826381225"><ele>400.0</ele><time>2026-03-29T12:03:52.001Z</time></trkpt><trkpt lat="46.11119124305261" lon="12.144469207826601"><ele>399.0</ele><time>2026-03-29T12:03:53.001Z</time></trkpt><trkpt lat="46.111145507114465" lon="12.144248568455705"><ele>398.0</ele><time>2026-03-29T12:03:54.001Z</time></trkpt><trkpt lat="46.11110097461592" lon="12.144024761748891"><ele>397.0</ele><time>2026-03-29T12:03:55.001Z</time></trkpt><trkpt lat="46.11105634035191" lon="12.143798667401244"><ele>395.33333333333337</ele><time>2026-03-29T12:03:56.001Z</time></trkpt><trkpt lat="46.11101708486778" lon="12.14356955876805"><ele>393.66666666666663</ele><time>2026-03-29T12:03:57.001Z</time></trkpt><trkpt lat="46.110977124536355" lon="12.143337654627707"><ele>392.0</ele><time>2026-03-29T12:03:58.001Z</time></trkpt><trkpt lat="46.11094216508935" lon="12.143100123557318"><ele>390.3333333333333</ele><time>2026-03-29T12:03:59.001Z</time></trkpt><trkpt lat="46.11090569017769" lon="12.142868013158875"><ele>388.66666666666663</ele><time>2026-03-29T12:04:00.001Z</time></trkpt><trkpt lat="46.11087074419579" lon="12.14264488652249"><ele>387.0</ele><time>2026-03-29T12:04:01.001Z</time></trkpt><trkpt lat="46.110839181541735" lon="12.1424296657895"><ele>386.25</ele><time>2026-03-29T12:04:02.001Z</time></trkpt><trkpt lat="46.11081318871663" lon="12.142219905344653"><ele>385.5</ele><time>2026-03-29T12:04:03.001Z</time></trkpt><trkpt lat="46.11079284482854" lon="12.14201761853938"><ele>384.75</ele><time>2026-03-29T12:04:04.001Z</time></trkpt><trkpt lat="46.11077567163503" lon="12.141818390196295"><ele>384.0</ele><time>2026-03-29T12:04:05.001Z</time></trkpt><trkpt lat="46.11076032503013" lon="12.141604511535817"><ele>383.3333333333333</ele><time>2026-03-29T12:04:06.001Z</time></trkpt><trkpt lat="46.11075274791963" lon="12.141372845677251"><ele>382.66666666666663</ele><time>2026-03-29T12:04:07.001Z</time></trkpt><trkpt lat="46.11074219257326" lon="12.141122968474493"><ele>382.0</ele><time>2026-03-29T12:04:08.001Z</time></trkpt><trkpt lat="46.11073351123272" lon="12.140857744624112"><ele>382.3333333333333</ele><time>2026-03-29T12:04:09.001Z</time></trkpt><trkpt lat="46.11072722637482" lon="12.140581628127851"><ele>382.6666666666667</ele><time>2026-03-29T12:04:10.001Z</time></trkpt><trkpt lat="46.1107248703777" lon="12.140313241254498"><ele>383.0</ele><time>2026-03-29T12:04:11.001Z</time></trkpt><trkpt lat="46.110723035768075" lon="12.140059051616513"><ele>382.33333333333337</ele><time>2026-03-29T12:04:12.001Z</time></trkpt><trkpt lat="46.110726123104065" lon="12.139804699608879"><ele>381.6666666666667</ele><time>2026-03-29T12:04:13.001Z</time></trkpt><trkpt lat="46.11073400174562" lon="12.139546251081965"><ele>381.0</ele><time>2026-03-29T12:04:14.001Z</time></trkpt><trkpt lat="46.11074416420058" lon="12.139292494237063"><ele>379.6666666666667</ele><time>2026-03-29T12:04:15.001Z</time></trkpt><trkpt lat="46.110753440711186" lon="12.139049542647028"><ele>378.33333333333337</ele><time>2026-03-29T12:04:16.001Z</time></trkpt><trkpt lat="46.1107633661162" lon="12.138802873897658"><ele>377.0</ele><time>2026-03-29T12:04:17.001Z</time></trkpt><trkpt lat="46.11077194528286" lon="12.138551643163066"><ele>377.0</ele><time>2026-03-29T12:04:18.001Z</time></trkpt><trkpt lat="46.110779202900424" lon="12.138293974705576"><ele>377.0</ele><time>2026-03-29T12:04:19.001Z</time></trkpt><trkpt lat="46.110781595349074" lon="12.138031028508454"><ele>377.0</ele><time>2026-03-29T12:04:20.001Z</time></trkpt><trkpt lat="46.110785191151344" lon="12.137760964418177"><ele>376.0</ele><time>2026-03-29T12:04:21.001Z</time></trkpt><trkpt lat="46.11078887610277" lon="12.137486471839928"><ele>375.0</ele><time>2026-03-29T12:04:22.001Z</time></trkpt><trkpt lat="46.110793784161835" lon="12.137203562885384"><ele>374.0</ele><time>2026-03-29T12:04:23.001Z</time></trkpt><trkpt lat="46.11079915427227" lon="12.136920495133515"><ele>374.0</ele><time>2026-03-29T12:04:24.001Z</time></trkpt><trkpt lat="46.11080459335252" lon="12.13664520992137"><ele>374.0</ele><time>2026-03-29T12:04:25.001Z</time></trkpt><trkpt lat="46.11080781108711" lon="12.136377905213816"><ele>374.0</ele><time>2026-03-29T12:04:26.001Z</time></trkpt><trkpt lat="46.110812836044055" lon="12.136117164640936"><ele>374.0</ele><time>2026-03-29T12:04:27.001Z</time></trkpt><trkpt lat="46.11081915382154" lon="12.135877614018627"><ele>374.0</ele><time>2026-03-29T12:04:28.001Z</time></trkpt><trkpt lat="46.110822578986784" lon="12.135653731335003"><ele>374.0</ele><time>2026-03-29T12:04:29.001Z</time></trkpt><trkpt lat="46.11082679850438" lon="12.135452127435643"><ele>373.0</ele><time>2026-03-29T12:04:30.001Z</time></trkpt><trkpt lat="46.110833978767495" lon="12.135269562441753"><ele>372.0</ele><time>2026-03-29T12:04:31.001Z</time></trkpt><trkpt lat="46.110849900084" lon="12.13510310352661"><ele>371.0</ele><time>2026-03-29T12:04:32.001Z</time></trkpt><trkpt lat="46.110889757066495" lon="12.134966655256388"><ele>370.0</ele><time>2026-03-29T12:04:33.001Z</time></trkpt><trkpt lat="46.11093603585761" lon="12.134828915647901"><ele>369.0</ele><time>2026-03-29T12:04:34.001Z</time></trkpt><trkpt lat="46.1109971806976" lon="12.134693200635729"><ele>368.0</ele><time>2026-03-29T12:04:35.001Z</time></trkpt><trkpt lat="46.1110642092698" lon="12.134564714306913"><ele>367.0</ele><time>2026-03-29T12:04:36.001Z</time></trkpt><trkpt lat="46.111142438121156" lon="12.134438566159847"><ele>366.0</ele><time>2026-03-29T12:04:37.001Z</time></trkpt><trkpt lat="46.11122075270358" lon="12.134291578548337"><ele>366.0</ele><time>2026-03-29T12:04:38.001Z</time></trkpt><trkpt lat="46.11129525452538" lon="12.134149062951328"><ele>366.0</ele><time>2026-03-29T12:04:39.001Z</time></trkpt><trkpt lat="46.11136168822728" lon="12.13402483779398"><ele>366.0</ele><time>2026-03-29T12:04:40.001Z</time></trkpt><trkpt lat="46.111421037890395" lon="12.13392451750807"><ele>366.0</ele><time>2026-03-29T12:04:41.001Z</time></trkpt><trkpt lat="46.11146745485849" lon="12.133843095655228"><ele>366.0</ele><time>2026-03-29T12:04:42.001Z</time></trkpt><trkpt lat="46.11153997758741" lon="12.133769115878174"><ele>366.5</ele><time>2026-03-29T12:04:44.002Z</time></trkpt><trkpt lat="46.11164485516215" lon="12.13373957850651"><ele>367.0</ele><time>2026-03-29T12:04:46.002Z</time></trkpt><trkpt lat="46.11170834838723" lon="12.133726961222525"><ele>367.5</ele><time>2026-03-29T12:04:47Z</time></trkpt><trkpt lat="46.1117752495398" lon="12.133692136545855"><ele>368.0</ele><time>2026-03-29T12:04:48Z</time></trkpt><trkpt lat="46.11184476372904" lon="12.133644821300253"><ele>368.5</ele><time>2026-03-29T12:04:49Z</time></trkpt><trkpt lat="46.11191075612821" lon="12.133593092276245"><ele>369.0</ele><time>2026-03-29T12:04:50Z</time></trkpt><trkpt lat="46.111974572315184" lon="12.1335306251173"><ele>369.0</ele><time>2026-03-29T12:04:51Z</time></trkpt><trkpt lat="46.11203563806777" lon="12.133454512321817"><ele>369.0</ele><time>2026-03-29T12:04:52Z</time></trkpt><trkpt lat="46.11206581626458" lon="12.133325650716825"><ele>369.0</ele><time>2026-03-29T12:04:54Z</time></trkpt><trkpt lat="46.11205761738291" lon="12.133229298007151"><ele>369.0</ele><time>2026-03-29T12:04:55Z</time></trkpt><trkpt lat="46.11204476569895" lon="12.133124106426582"><ele>369.0</ele><time>2026-03-29T12:04:56Z</time></trkpt><trkpt lat="46.11203970536136" lon="12.133005724314044"><ele>369.0</ele><time>2026-03-29T12:04:57Z</time></trkpt><trkpt lat="46.11203670748062" lon="12.132894280574728"><ele>368.0</ele><time>2026-03-29T12:04:58Z</time></trkpt><trkpt lat="46.112019834944284" lon="12.132750823065898"><ele>367.0</ele><time>2026-03-29T12:05:00Z</time></trkpt><trkpt lat="46.11202623732594" lon="12.1326389765595"><ele>366.0</ele><time>2026-03-29T12:05:03Z</time></trkpt><trkpt lat="46.11211589023321" lon="12.132583398317607"><ele>365.0</ele><time>2026-03-29T12:05:08Z</time></trkpt><trkpt lat="46.11218812220096" lon="12.132597948568682"><ele>364.0</ele><time>2026-03-29T12:05:09Z</time></trkpt><trkpt lat="46.11227035473577" lon="12.13262720967241"><ele>363.0</ele><time>2026-03-29T12:05:29Z</time></trkpt><trkpt lat="46.112310354857854" lon="12.132744178754036"><ele>363.0</ele><time>2026-03-29T12:05:41.001Z</time></trkpt><trkpt lat="46.1123075300521" lon="12.132868515422544"><ele>363.0</ele><time>2026-03-29T12:05:43.001Z</time></trkpt><trkpt lat="46.112325433082" lon="12.132979884786412"><ele>363.0</ele><time>2026-03-29T12:05:45.001Z</time></trkpt><trkpt lat="46.112356478403335" lon="12.133098748347875"><ele>363.0</ele><time>2026-03-29T12:05:47.001Z</time></trkpt><trkpt lat="46.1124172365579" lon="12.13325228617954"><ele>363.0</ele><time>2026-03-29T12:05:49.001Z</time></trkpt><trkpt lat="46.11244504340199" lon="12.13334387552425"><ele>363.0</ele><time>2026-03-29T12:05:50.001Z</time></trkpt><trkpt lat="46.11246178951305" lon="12.133504815505058"><ele>364.0</ele><time>2026-03-29T12:05:52.001Z</time></trkpt><trkpt lat="46.11242597857966" lon="12.133607566415396"><ele>365.0</ele><time>2026-03-29T12:05:54.001Z</time></trkpt><trkpt lat="46.112353101416154" lon="12.133674537882378"><ele>366.0</ele><time>2026-03-29T12:05:56.001Z</time></trkpt><trkpt lat="46.11228745088779" lon="12.133668937131597"><ele>367.0</ele><time>2026-03-29T12:05:58.001Z</time></trkpt><trkpt lat="46.11217751022535" lon="12.133668884740091"><ele>368.0</ele><time>2026-03-29T12:06:00.001Z</time></trkpt><trkpt lat="46.112077769914904" lon="12.133658672681165"><ele>369.0</ele><time>2026-03-29T12:06:02.001Z</time></trkpt><trkpt lat="46.11199509308183" lon="12.133641724364912"><ele>369.0</ele><time>2026-03-29T12:06:04.001Z</time></trkpt><trkpt lat="46.1119232412094" lon="12.133590808623602"><ele>369.0</ele><time>2026-03-29T12:06:07.001Z</time></trkpt><trkpt lat="46.1118564337792" lon="12.133499874988107"><ele>369.0</ele><time>2026-03-29T12:06:09.001Z</time></trkpt><trkpt lat="46.111817060677275" lon="12.133417899878475"><ele>369.0</ele><time>2026-03-29T12:06:10.001Z</time></trkpt><trkpt lat="46.11178769859989" lon="12.133325318164575"><ele>369.0</ele><time>2026-03-29T12:06:11.001Z</time></trkpt><trkpt lat="46.111765726625265" lon="12.13322813148827"><ele>369.0</ele><time>2026-03-29T12:06:12.001Z</time></trkpt><trkpt lat="46.11175556005175" lon="12.133130997692037"><ele>368.0</ele><time>2026-03-29T12:06:13.001Z</time></trkpt><trkpt lat="46.11175105932247" lon="12.133033555919123"><ele>367.0</ele><time>2026-03-29T12:06:14.001Z</time></trkpt><trkpt lat="46.11175003524638" lon="12.13290974413652"><ele>366.0</ele><time>2026-03-29T12:06:15.001Z</time></trkpt><trkpt lat="46.1117509659846" lon="12.132773367799622"><ele>365.0</ele><time>2026-03-29T12:06:16.001Z</time></trkpt><trkpt lat="46.11173903308632" lon="12.132628285481388"><ele>364.0</ele><time>2026-03-29T12:06:17.001Z</time></trkpt><trkpt lat="46.111733154087915" lon="12.132525971373928"><ele>363.0</ele><time>2026-03-29T12:06:18.001Z</time></trkpt><trkpt lat="46.11173893524653" lon="12.132429471841837"><ele>362.0</ele><time>2026-03-29T12:06:19.001Z</time></trkpt><trkpt lat="46.1117534960671" lon="12.132258500101976"><ele>361.0</ele><time>2026-03-29T12:06:21.001Z</time></trkpt><trkpt lat="46.11175452399995" lon="12.132153163522087"><ele>360.0</ele><time>2026-03-29T12:06:22.001Z</time></trkpt><trkpt lat="46.11174404780029" lon="12.13204531015538"><ele>359.0</ele><time>2026-03-29T12:06:23.001Z</time></trkpt><trkpt lat="46.11174066901306" lon="12.131898810998807"><ele>358.0</ele><time>2026-03-29T12:06:25.001Z</time></trkpt><trkpt lat="46.11177417846844" lon="12.131805631307067"><ele>357.0</ele><time>2026-03-29T12:06:28.001Z</time></trkpt><trkpt lat="46.11187125135837" lon="12.13181186363736"><ele>357.0</ele><time>2026-03-29T12:06:30.001Z</time></trkpt><trkpt lat="46.111943024319835" lon="12.131864582370975"><ele>357.0</ele><time>2026-03-29T12:06:31.001Z</time></trkpt><trkpt lat="46.11199733022796" lon="12.131930044614029"><ele>357.0</ele><time>2026-03-29T12:06:32.001Z</time></trkpt><trkpt lat="46.1120474307037" lon="12.132069326566665"><ele>357.0</ele><time>2026-03-29T12:06:34.001Z</time></trkpt><trkpt lat="46.11202963815475" lon="12.132201270225325"><ele>357.0</ele><time>2026-03-29T12:06:36.001Z</time></trkpt><trkpt lat="46.11200736391765" lon="12.132324164029086"><ele>357.0</ele><time>2026-03-29T12:06:38.001Z</time></trkpt><trkpt lat="46.11201834785174" lon="12.132443311558687"><ele>358.0</ele><time>2026-03-29T12:06:40.001Z</time></trkpt><trkpt lat="46.112063238298056" lon="12.132565082432649"><ele>359.0</ele><time>2026-03-29T12:06:42.001Z</time></trkpt><trkpt lat="46.11213027697159" lon="12.132641433873196"><ele>360.0</ele><time>2026-03-29T12:06:46.001Z</time></trkpt><trkpt lat="46.11219271081968" lon="12.132598720692219"><ele>361.0</ele><time>2026-03-29T12:06:48.002Z</time></trkpt><trkpt lat="46.11218252919744" lon="12.13249751178793"><ele>362.0</ele><time>2026-03-29T12:06:51.002Z</time></trkpt><trkpt lat="46.112101199463005" lon="12.132464124785391"><ele>363.0</ele><time>2026-03-29T12:06:54Z</time></trkpt><trkpt lat="46.112027587563695" lon="12.132442613696227"><ele>362.0</ele><time>2026-03-29T12:07:02Z</time></trkpt><trkpt lat="46.11199617893715" lon="12.132363315675377"><ele>361.0</ele><time>2026-03-29T12:07:04Z</time></trkpt><trkpt lat="46.11195465997138" lon="12.132249619784108"><ele>360.0</ele><time>2026-03-29T12:07:06Z</time></trkpt><trkpt lat="46.11189595115003" lon="12.13216849507377"><ele>359.0</ele><time>2026-03-29T12:07:09Z</time></trkpt><trkpt lat="46.111815135583456" lon="12.132135974588115"><ele>358.0</ele><time>2026-03-29T12:07:11Z</time></trkpt><trkpt lat="46.111732629250255" lon="12.132097691148742"><ele>357.0</ele><time>2026-03-29T12:07:13Z</time></trkpt><trkpt lat="46.11176213548096" lon="12.131986810690696"><ele>357.0</ele><time>2026-03-29T12:07:18Z</time></trkpt><trkpt lat="46.11185617114944" lon="12.13200616393874"><ele>357.0</ele><time>2026-03-29T12:07:20Z</time></trkpt><trkpt lat="46.11193198320271" lon="12.132081645177223"><ele>357.0</ele><time>2026-03-29T12:07:21Z</time></trkpt><trkpt lat="46.11198541187311" lon="12.13215416800587"><ele>357.0</ele><time>2026-03-29T12:07:22Z</time></trkpt><trkpt lat="46.11198419344992" lon="12.132296206282778"><ele>357.0</ele><time>2026-03-29T12:07:24Z</time></trkpt><trkpt lat="46.112002528603426" lon="12.132428155783108"><ele>358.0</ele><time>2026-03-29T12:07:26Z</time></trkpt><trkpt lat="46.11207243178366" lon="12.13249556149714"><ele>359.0</ele><time>2026-03-29T12:07:28Z</time></trkpt><trkpt lat="46.11215911793741" lon="12.132531174226584"><ele>360.0</ele><time>2026-03-29T12:07:31Z</time></trkpt><trkpt lat="46.11222315089317" lon="12.13258773926962"><ele>361.0</ele><time>2026-03-29T12:07:34Z</time></trkpt><trkpt lat="46.11214365071478" lon="12.13262908907982"><ele>362.0</ele><time>2026-03-29T12:09:37.001Z</time></trkpt><trkpt lat="46.11207781002357" lon="12.132608743388836"><ele>363.0</ele><time>2026-03-29T12:09:40.001Z</time></trkpt><trkpt lat="46.11201522942884" lon="12.132702992165084"><ele>363.0</ele><time>2026-03-29T12:09:49.001Z</time></trkpt><trkpt lat="46.112031884084395" lon="12.132832055107844"><ele>363.0</ele><time>2026-03-29T12:09:52.001Z</time></trkpt><trkpt lat="46.11205529732236" lon="12.132961244758283"><ele>363.0</ele><time>2026-03-29T12:09:54.001Z</time></trkpt><trkpt lat="46.112063225387985" lon="12.133082804189002"><ele>363.0</ele><time>2026-03-29T12:09:57.001Z</time></trkpt><trkpt lat="46.11206350889562" lon="12.133179903903295"><ele>363.0</ele><time>2026-03-29T12:09:59.001Z</time></trkpt><trkpt lat="46.11205306018324" lon="12.13330081802916"><ele>363.0</ele><time>2026-03-29T12:10:02.001Z</time></trkpt><trkpt lat="46.111989170580756" lon="12.133358543116097"><ele>363.0</ele><time>2026-03-29T12:10:04.001Z</time></trkpt><trkpt lat="46.11190994191225" lon="12.133366208488592"><ele>363.0</ele><time>2026-03-29T12:10:06.001Z</time></trkpt><trkpt lat="46.11184783684192" lon="12.133324907623829"><ele>363.0</ele><time>2026-03-29T12:10:08.001Z</time></trkpt><trkpt lat="46.111799604510566" lon="12.13323793960216"><ele>363.0</ele><time>2026-03-29T12:10:10.001Z</time></trkpt><trkpt lat="46.11174334824024" lon="12.133139645947063"><ele>363.0</ele><time>2026-03-29T12:10:12.001Z</time></trkpt><trkpt lat="46.11173073813636" lon="12.132986690700548"><ele>363.0</ele><time>2026-03-29T12:10:14.001Z</time></trkpt><trkpt lat="46.11173849575403" lon="12.132802737191698"><ele>363.0</ele><time>2026-03-29T12:10:16.001Z</time></trkpt><trkpt lat="46.11172551614812" lon="12.132642298509065"><ele>363.0</ele><time>2026-03-29T12:10:18.001Z</time></trkpt><trkpt lat="46.11176233090861" lon="12.132516942848891"><ele>363.0</ele><time>2026-03-29T12:10:22.001Z</time></trkpt><trkpt lat="46.111852908955846" lon="12.132457694330482"><ele>363.0</ele><time>2026-03-29T12:10:24.001Z</time></trkpt><trkpt lat="46.11183805764148" lon="12.132335714766993"><ele>363.0</ele><time>2026-03-29T12:10:26.001Z</time></trkpt><trkpt lat="46.11174269459029" lon="12.132255889328519"><ele>363.0</ele><time>2026-03-29T12:10:28.001Z</time></trkpt><trkpt lat="46.11178786720785" lon="12.13216088806673"><ele>363.0</ele><time>2026-03-29T12:10:31.001Z</time></trkpt><trkpt lat="46.11189392478289" lon="12.132178319044966"><ele>363.0</ele><time>2026-03-29T12:10:33.001Z</time></trkpt><trkpt lat="46.111978800072336" lon="12.132206258036051"><ele>363.0</ele><time>2026-03-29T12:10:35.001Z</time></trkpt><trkpt lat="46.11200452229628" lon="12.13232512556894"><ele>363.0</ele><time>2026-03-29T12:10:37.001Z</time></trkpt><trkpt lat="46.112006862409686" lon="12.132454893807743"><ele>363.0</ele><time>2026-03-29T12:10:39.001Z</time></trkpt><trkpt lat="46.1120439599447" lon="12.132536221590232"><ele>363.0</ele><time>2026-03-29T12:10:41.001Z</time></trkpt><trkpt lat="46.11207961663812" lon="12.13261392177543"><ele>363.0</ele><time>2026-03-29T12:10:43.001Z</time></trkpt><trkpt lat="46.11215402105615" lon="12.132644719817128"><ele>363.0</ele><time>2026-03-29T12:10:46.002Z</time></trkpt><trkpt lat="46.11220353825666" lon="12.132574654608812"><ele>363.0</ele><time>2026-03-29T12:10:50.002Z</time></trkpt><trkpt lat="46.112135187933184" lon="12.132454028976518"><ele>363.0</ele><time>2026-03-29T12:20:54Z</time></trkpt><trkpt lat="46.11210124839732" lon="12.132376924114205"><ele>362.1428571428571</ele><time>2026-03-29T12:20:57Z</time></trkpt><trkpt lat="46.112057163538665" lon="12.13227726165316"><ele>361.2857142857143</ele><time>2026-03-29T12:21:01Z</time></trkpt><trkpt lat="46.11201669261084" lon="12.132173237492323"><ele>360.42857142857144</ele><time>2026-03-29T12:21:05Z</time></trkpt><trkpt lat="46.112011539436075" lon="12.132071205775693"><ele>359.57142857142856</ele><time>2026-03-29T12:21:08Z</time></trkpt><trkpt lat="46.11200439997477" lon="12.131968441656849"><ele>358.7142857142857</ele><time>2026-03-29T12:21:12Z</time></trkpt><trkpt lat="46.11199799581757" lon="12.131862178170607"><ele>357.85714285714283</ele><time>2026-03-29T12:21:15Z</time></trkpt><trkpt lat="46.112002060223794" lon="12.131765185518878"><ele>357.0</ele><time>2026-03-29T12:21:17Z</time></trkpt><trkpt lat="46.11199209701082" lon="12.131637442491432"><ele>356.7142857142857</ele><time>2026-03-29T12:21:20Z</time></trkpt><trkpt lat="46.111984675864605" lon="12.131536669156647"><ele>356.42857142857144</ele><time>2026-03-29T12:21:23Z</time></trkpt><trkpt lat="46.11196018269384" lon="12.131426050043501"><ele>356.1428571428571</ele><time>2026-03-29T12:21:26Z</time></trkpt><trkpt lat="46.11196236506317" lon="12.131329898302274"><ele>355.8571428571429</ele><time>2026-03-29T12:21:28Z</time></trkpt><trkpt lat="46.11196570527246" lon="12.131226176743375"><ele>355.57142857142856</ele><time>2026-03-29T12:21:30Z</time></trkpt><trkpt lat="46.11197016317501" lon="12.131111779039466"><ele>355.2857142857143</ele><time>2026-03-29T12:21:32Z</time></trkpt><trkpt lat="46.11196768524578" lon="12.131007947004637"><ele>355.0</ele><time>2026-03-29T12:21:34Z</time></trkpt><trkpt lat="46.11197283899147" lon="12.130884327468921"><ele>355.0</ele><time>2026-03-29T12:21:36Z</time></trkpt><trkpt lat="46.11199478318719" lon="12.130788778805348"><ele>355.0</ele><time>2026-03-29T12:21:38Z</time></trkpt><trkpt lat="46.11205885239269" lon="12.130705085155443"><ele>355.0</ele><time>2026-03-29T12:21:41Z</time></trkpt><trkpt lat="46.11212747301957" lon="12.130690228996656"><ele>355.0</ele><time>2026-03-29T12:21:45Z</time></trkpt><trkpt lat="46.11221936786935" lon="12.130674467268014"><ele>355.0</ele><time>2026-03-29T12:21:48Z</time></trkpt><trkpt lat="46.112295489254066" lon="12.130673463900475"><ele>355.0</ele><time>2026-03-29T12:21:50Z</time></trkpt><trkpt lat="46.11240003788846" lon="12.130659594689554"><ele>354.5</ele><time>2026-03-29T12:21:52Z</time></trkpt><trkpt lat="46.112491134072094" lon="12.130600085579326"><ele>354.0</ele><time>2026-03-29T12:21:54Z</time></trkpt><trkpt lat="46.11252459908651" lon="12.13047177020453"><ele>353.5</ele><time>2026-03-29T12:21:56Z</time></trkpt><trkpt lat="46.112539317510844" lon="12.130365847994481"><ele>353.0</ele><time>2026-03-29T12:21:58Z</time></trkpt><trkpt lat="46.11257909587032" lon="12.130249713079392"><ele>352.5</ele><time>2026-03-29T12:22:00Z</time></trkpt><trkpt lat="46.11263153950544" lon="12.130162001436602"><ele>352.0</ele><time>2026-03-29T12:22:02Z</time></trkpt><trkpt lat="46.112681334729636" lon="12.130089857610262"><ele>352.0</ele><time>2026-03-29T12:22:04Z</time></trkpt><trkpt lat="46.112748855042085" lon="12.130000227965997"><ele>352.0</ele><time>2026-03-29T12:22:07Z</time></trkpt><trkpt lat="46.112817315026426" lon="12.129937793585437"><ele>352.0</ele><time>2026-03-29T12:22:10Z</time></trkpt><trkpt lat="46.1129026222883" lon="12.12996441295236"><ele>352.0</ele><time>2026-03-29T12:22:12Z</time></trkpt><trkpt lat="46.113018101371246" lon="12.130032555975477"><ele>352.0</ele><time>2026-03-29T12:22:14Z</time></trkpt><trkpt lat="46.11308302656649" lon="12.130059216355269"><ele>352.0</ele><time>2026-03-29T12:22:15Z</time></trkpt><trkpt lat="46.11315579202089" lon="12.130070291112132"><ele>352.0</ele><time>2026-03-29T12:22:16Z</time></trkpt><trkpt lat="46.11322542875095" lon="12.130065412434272"><ele>352.0</ele><time>2026-03-29T12:22:17Z</time></trkpt><trkpt lat="46.113287375942505" lon="12.130033567347695"><ele>352.0</ele><time>2026-03-29T12:22:18Z</time></trkpt><trkpt lat="46.11333744187063" lon="12.129978452170157"><ele>352.0</ele><time>2026-03-29T12:22:19Z</time></trkpt><trkpt lat="46.113417195410065" lon="12.129844997786089"><ele>352.0</ele><time>2026-03-29T12:22:21Z</time></trkpt><trkpt lat="46.11344798602965" lon="12.129762079623479"><ele>351.14285714285717</ele><time>2026-03-29T12:22:22Z</time></trkpt><trkpt lat="46.113464431998295" lon="12.129671271837351"><ele>350.2857142857143</ele><time>2026-03-29T12:22:23Z</time></trkpt><trkpt lat="46.11346267094024" lon="12.129575478459909"><ele>349.42857142857144</ele><time>2026-03-29T12:22:24Z</time></trkpt><trkpt lat="46.113440324827216" lon="12.129487060739796"><ele>348.57142857142856</ele><time>2026-03-29T12:22:25Z</time></trkpt><trkpt lat="46.113407929828014" lon="12.129397399136167"><ele>347.7142857142857</ele><time>2026-03-29T12:22:26Z</time></trkpt><trkpt lat="46.11336457926773" lon="12.129325857173532"><ele>346.85714285714283</ele><time>2026-03-29T12:22:27Z</time></trkpt><trkpt lat="46.11331731250086" lon="12.129264771578574"><ele>346.0</ele><time>2026-03-29T12:22:28Z</time></trkpt><trkpt lat="46.11326292379328" lon="12.129201993515732"><ele>346.1428571428571</ele><time>2026-03-29T12:22:29Z</time></trkpt><trkpt lat="46.11320153592461" lon="12.129155179853322"><ele>346.28571428571433</ele><time>2026-03-29T12:22:30Z</time></trkpt><trkpt lat="46.113136620109984" lon="12.12910919303311"><ele>346.42857142857144</ele><time>2026-03-29T12:22:31Z</time></trkpt><trkpt lat="46.11306843803081" lon="12.129064138169682"><ele>346.57142857142856</ele><time>2026-03-29T12:22:32Z</time></trkpt><trkpt lat="46.11300201564051" lon="12.129016145410212"><ele>346.71428571428567</ele><time>2026-03-29T12:22:33Z</time></trkpt><trkpt lat="46.11293247351253" lon="12.128963019467202"><ele>346.8571428571429</ele><time>2026-03-29T12:22:34Z</time></trkpt><trkpt lat="46.112863306836" lon="12.128909419711725"><ele>347.0</ele><time>2026-03-29T12:22:35Z</time></trkpt><trkpt lat="46.11278540001587" lon="12.12885919524963"><ele>345.5</ele><time>2026-03-29T12:22:36Z</time></trkpt><trkpt lat="46.1127066571747" lon="12.128818629563828"><ele>344.0</ele><time>2026-03-29T12:22:37Z</time></trkpt><trkpt lat="46.11262486915282" lon="12.12879708771564"><ele>342.5</ele><time>2026-03-29T12:22:38Z</time></trkpt><trkpt lat="46.1125409076156" lon="12.128778505218042"><ele>341.0</ele><time>2026-03-29T12:22:39Z</time></trkpt><trkpt lat="46.11245765699295" lon="12.128773652378047"><ele>339.5</ele><time>2026-03-29T12:22:40Z</time></trkpt><trkpt lat="46.11237722448716" lon="12.128788936153951"><ele>338.0</ele><time>2026-03-29T12:22:41Z</time></trkpt><trkpt lat="46.11229960271855" lon="12.128826103305235"><ele>338.2</ele><time>2026-03-29T12:22:42Z</time></trkpt><trkpt lat="46.11221595966693" lon="12.128874534363204"><ele>338.4</ele><time>2026-03-29T12:22:43Z</time></trkpt><trkpt lat="46.11212031973756" lon="12.128925429698832"><ele>338.59999999999997</ele><time>2026-03-29T12:22:44Z</time></trkpt><trkpt lat="46.11204014096304" lon="12.12898479695975"><ele>338.79999999999995</ele><time>2026-03-29T12:22:45Z</time></trkpt><trkpt lat="46.1119513921737" lon="12.129036229582518"><ele>339.0</ele><time>2026-03-29T12:22:46Z</time></trkpt><trkpt lat="46.11186168112618" lon="12.12906539597236"><ele>339.0</ele><time>2026-03-29T12:22:47Z</time></trkpt><trkpt lat="46.111771397418494" lon="12.129079894273683"><ele>339.0</ele><time>2026-03-29T12:22:48Z</time></trkpt><trkpt lat="46.11170275564484" lon="12.129093129545085"><ele>339.0</ele><time>2026-03-29T12:22:49Z</time></trkpt><trkpt lat="46.11161951018718" lon="12.129091962091719"><ele>339.0</ele><time>2026-03-29T12:22:50Z</time></trkpt><trkpt lat="46.11153215331723" lon="12.129080911050158"><ele>339.0</ele><time>2026-03-29T12:22:51Z</time></trkpt><trkpt lat="46.11144650356622" lon="12.12906504477861"><ele>339.0</ele><time>2026-03-29T12:22:52Z</time></trkpt><trkpt lat="46.11136931217824" lon="12.12902312467147"><ele>339.5</ele><time>2026-03-29T12:22:53Z</time></trkpt><trkpt lat="46.11130724124062" lon="12.128973246968664"><ele>340.0</ele><time>2026-03-29T12:22:54Z</time></trkpt><trkpt lat="46.11125822202001" lon="12.128911657912761"><ele>340.5</ele><time>2026-03-29T12:22:55Z</time></trkpt><trkpt lat="46.11119082132486" lon="12.128772498767368"><ele>341.0</ele><time>2026-03-29T12:22:57Z</time></trkpt><trkpt lat="46.11115039064762" lon="12.128701591696105"><ele>341.5</ele><time>2026-03-29T12:22:58Z</time></trkpt><trkpt lat="46.11111047675073" lon="12.128631355927327"><ele>342.0</ele><time>2026-03-29T12:22:59Z</time></trkpt><trkpt lat="46.111055888013254" lon="12.12850616292086"><ele>342.0</ele><time>2026-03-29T12:23:01Z</time></trkpt><trkpt lat="46.111027716171755" lon="12.128419384703774"><ele>342.0</ele><time>2026-03-29T12:23:03Z</time></trkpt><trkpt lat="46.11101107126617" lon="12.128209005573584"><ele>342.0</ele><time>2026-03-29T12:23:05Z</time></trkpt><trkpt lat="46.11101317949773" lon="12.128066701047777"><ele>342.0</ele><time>2026-03-29T12:23:06Z</time></trkpt><trkpt lat="46.11101901052285" lon="12.127909913054928"><ele>342.0</ele><time>2026-03-29T12:23:07Z</time></trkpt><trkpt lat="46.111022526595654" lon="12.127735822564953"><ele>340.25</ele><time>2026-03-29T12:23:08Z</time></trkpt><trkpt lat="46.11102579725262" lon="12.127545651041167"><ele>338.5</ele><time>2026-03-29T12:23:09Z</time></trkpt><trkpt lat="46.11102912551063" lon="12.127341458984125"><ele>336.75</ele><time>2026-03-29T12:23:10Z</time></trkpt><trkpt lat="46.11103629505202" lon="12.127123800191747"><ele>335.0</ele><time>2026-03-29T12:23:11Z</time></trkpt><trkpt lat="46.11104278998812" lon="12.126893319258485"><ele>332.33333333333337</ele><time>2026-03-29T12:23:12Z</time></trkpt><trkpt lat="46.11104864742313" lon="12.126651670023792"><ele>329.6666666666667</ele><time>2026-03-29T12:23:13Z</time></trkpt><trkpt lat="46.11105494506643" lon="12.12640374076931"><ele>327.0</ele><time>2026-03-29T12:23:14Z</time></trkpt><trkpt lat="46.11106085426888" lon="12.126164132811699"><ele>323.6666666666667</ele><time>2026-03-29T12:23:15Z</time></trkpt><trkpt lat="46.11106755454526" lon="12.125919711055998"><ele>320.33333333333337</ele><time>2026-03-29T12:23:16Z</time></trkpt><trkpt lat="46.11107388593125" lon="12.125672058024286"><ele>317.0</ele><time>2026-03-29T12:23:17Z</time></trkpt><trkpt lat="46.111080002381186" lon="12.12542233716968"><ele>316.33333333333337</ele><time>2026-03-29T12:23:18Z</time></trkpt><trkpt lat="46.111085548685125" lon="12.125168671484019"><ele>315.6666666666667</ele><time>2026-03-29T12:23:19Z</time></trkpt><trkpt lat="46.11108928542125" lon="12.124915233259118"><ele>315.0</ele><time>2026-03-29T12:23:20Z</time></trkpt><trkpt lat="46.11109340554045" lon="12.124663514652338"><ele>314.3333333333333</ele><time>2026-03-29T12:23:21Z</time></trkpt><trkpt lat="46.1110985639312" lon="12.124413731701745"><ele>313.66666666666663</ele><time>2026-03-29T12:23:22Z</time></trkpt><trkpt lat="46.111103041326736" lon="12.12416288056991"><ele>313.0</ele><time>2026-03-29T12:23:23Z</time></trkpt><trkpt lat="46.1111076477826" lon="12.123912356263784"><ele>313.0</ele><time>2026-03-29T12:23:24Z</time></trkpt><trkpt lat="46.11111322033867" lon="12.12366170648936"><ele>313.0</ele><time>2026-03-29T12:23:25Z</time></trkpt><trkpt lat="46.11112035640809" lon="12.123411613938865"><ele>313.0</ele><time>2026-03-29T12:23:26Z</time></trkpt><trkpt lat="46.11112755981599" lon="12.123162253889651"><ele>312.66666666666663</ele><time>2026-03-29T12:23:27Z</time></trkpt><trkpt lat="46.11113605706943" lon="12.122915416092901"><ele>312.3333333333333</ele><time>2026-03-29T12:23:28Z</time></trkpt><trkpt lat="46.111145449817435" lon="12.12266956105932"><ele>312.0</ele><time>2026-03-29T12:23:29Z</time></trkpt><trkpt lat="46.1111527759647" lon="12.12242681763256"><ele>311.6666666666667</ele><time>2026-03-29T12:23:30Z</time></trkpt><trkpt lat="46.11116016124524" lon="12.122185903243654"><ele>311.33333333333337</ele><time>2026-03-29T12:23:31Z</time></trkpt><trkpt lat="46.11116733012409" lon="12.121948239208443"><ele>311.0</ele><time>2026-03-29T12:23:32Z</time></trkpt><trkpt lat="46.111176648878576" lon="12.121712904228188"><ele>311.33333333333337</ele><time>2026-03-29T12:23:33Z</time></trkpt><trkpt lat="46.11118819999349" lon="12.12147794193869"><ele>311.6666666666667</ele><time>2026-03-29T12:23:34Z</time></trkpt><trkpt lat="46.11119417260763" lon="12.121238530179221"><ele>312.0</ele><time>2026-03-29T12:23:35Z</time></trkpt><trkpt lat="46.11121409293398" lon="12.12100792213618"><ele>312.0</ele><time>2026-03-29T12:23:36Z</time></trkpt><trkpt lat="46.11123822617552" lon="12.120780952765207"><ele>312.0</ele><time>2026-03-29T12:23:37Z</time></trkpt><trkpt lat="46.11126528557925" lon="12.120558452203216"><ele>312.0</ele><time>2026-03-29T12:23:38Z</time></trkpt><trkpt lat="46.11129541115423" lon="12.120339788448431"><ele>312.3333333333333</ele><time>2026-03-29T12:23:39Z</time></trkpt><trkpt lat="46.11132800701195" lon="12.120123144133482"><ele>312.66666666666663</ele><time>2026-03-29T12:23:40Z</time></trkpt><trkpt lat="46.11121342141287" lon="12.119837678441375"><ele>313.0</ele><time>2026-03-29T12:23:40.998Z</time></trkpt><trkpt lat="46.111219824693016" lon="12.119610986744378"><ele>313.0</ele><time>2026-03-29T12:23:41.998Z</time></trkpt><trkpt lat="46.1112221458832" lon="12.119379226310569"><ele>313.0</ele><time>2026-03-29T12:23:42.998Z</time></trkpt><trkpt lat="46.11122657545671" lon="12.119153740785743"><ele>313.0</ele><time>2026-03-29T12:23:43.998Z</time></trkpt><trkpt lat="46.1112324231212" lon="12.118928567431077"><ele>312.66666666666663</ele><time>2026-03-29T12:23:44.998Z</time></trkpt><trkpt lat="46.111240836467545" lon="12.118708581966358"><ele>312.3333333333333</ele><time>2026-03-29T12:23:45.998Z</time></trkpt><trkpt lat="46.11124427119163" lon="12.118484690459995"><ele>312.0</ele><time>2026-03-29T12:23:46.998Z</time></trkpt><trkpt lat="46.11125088336124" lon="12.118267537194615"><ele>312.0</ele><time>2026-03-29T12:23:47.998Z</time></trkpt><trkpt lat="46.111253149890175" lon="12.11804811915601"><ele>312.0</ele><time>2026-03-29T12:23:48.998Z</time></trkpt><trkpt lat="46.11125567926865" lon="12.117833824530344"><ele>312.0</ele><time>2026-03-29T12:23:49.999Z</time></trkpt><trkpt lat="46.111262596657554" lon="12.11762302843573"><ele>312.0</ele><time>2026-03-29T12:23:50.999Z</time></trkpt><trkpt lat="46.1112662870672" lon="12.117408626953354"><ele>312.0</ele><time>2026-03-29T12:23:51.999Z</time></trkpt><trkpt lat="46.11127110776295" lon="12.11719589026765"><ele>312.0</ele><time>2026-03-29T12:23:52.999Z</time></trkpt><trkpt lat="46.111271280449245" lon="12.116982017975458"><ele>312.0</ele><time>2026-03-29T12:23:53.999Z</time></trkpt><trkpt lat="46.111274370955776" lon="12.116768276898222"><ele>312.0</ele><time>2026-03-29T12:23:54.999Z</time></trkpt><trkpt lat="46.11128145349446" lon="12.116557224022861"><ele>312.0</ele><time>2026-03-29T12:23:55.999Z</time></trkpt><trkpt lat="46.11128901448797" lon="12.116346142546327"><ele>312.0</ele><time>2026-03-29T12:23:56.999Z</time></trkpt><trkpt lat="46.11129881748843" lon="12.116138798003178"><ele>312.0</ele><time>2026-03-29T12:23:57.999Z</time></trkpt><trkpt lat="46.111298642659" lon="12.115918259613498"><ele>312.0</ele><time>2026-03-29T12:23:58.999Z</time></trkpt><trkpt lat="46.11130519072746" lon="12.115708967023282"><ele>311.75</ele><time>2026-03-29T12:23:59.999Z</time></trkpt><trkpt lat="46.11130347701965" lon="12.115494868352581"><ele>311.5</ele><time>2026-03-29T12:24:00.999Z</time></trkpt><trkpt lat="46.11130293361723" lon="12.115287185527471"><ele>311.25</ele><time>2026-03-29T12:24:01.999Z</time></trkpt><trkpt lat="46.11129774573866" lon="12.115074652146024"><ele>311.0</ele><time>2026-03-29T12:24:02.999Z</time></trkpt><trkpt lat="46.11129700047751" lon="12.114861364001811"><ele>311.0</ele><time>2026-03-29T12:24:03.999Z</time></trkpt><trkpt lat="46.11129735703744" lon="12.114648431428213"><ele>311.0</ele><time>2026-03-29T12:24:04.999Z</time></trkpt><trkpt lat="46.111293045903004" lon="12.114435816789273"><ele>311.0</ele><time>2026-03-29T12:24:05.999Z</time></trkpt><trkpt lat="46.11127990708519" lon="12.114216074454552"><ele>311.0</ele><time>2026-03-29T12:24:06.999Z</time></trkpt><trkpt lat="46.111260759965475" lon="12.113993421707992"><ele>311.0</ele><time>2026-03-29T12:24:07.999Z</time></trkpt><trkpt lat="46.11123981335376" lon="12.113772584250032"><ele>311.0</ele><time>2026-03-29T12:24:08.999Z</time></trkpt><trkpt lat="46.11121907369498" lon="12.113556488683555"><ele>311.0</ele><time>2026-03-29T12:24:09.999Z</time></trkpt><trkpt lat="46.11119598388364" lon="12.113337136692456"><ele>311.0</ele><time>2026-03-29T12:24:10.999Z</time></trkpt><trkpt lat="46.11116299884304" lon="12.113113306239653"><ele>311.0</ele><time>2026-03-29T12:24:11.999Z</time></trkpt><trkpt lat="46.111133925006534" lon="12.112891042197592"><ele>311.0</ele><time>2026-03-29T12:24:12.999Z</time></trkpt><trkpt lat="46.11111265742715" lon="12.112663076050879"><ele>311.0</ele><time>2026-03-29T12:24:13.999Z</time></trkpt><trkpt lat="46.11108978742767" lon="12.112436097300744"><ele>311.0</ele><time>2026-03-29T12:24:14.999Z</time></trkpt><trkpt lat="46.11106289621895" lon="12.112210892805555"><ele>311.0</ele><time>2026-03-29T12:24:15.999Z</time></trkpt><trkpt lat="46.11103445107752" lon="12.111984018097038"><ele>311.0</ele><time>2026-03-29T12:24:16.999Z</time></trkpt><trkpt lat="46.11100312031451" lon="12.111755395737998"><ele>311.0</ele><time>2026-03-29T12:24:17.999Z</time></trkpt><trkpt lat="46.11097253958521" lon="12.111525485268913"><ele>311.0</ele><time>2026-03-29T12:24:18.999Z</time></trkpt><trkpt lat="46.110941421526014" lon="12.1112938003101"><ele>311.0</ele><time>2026-03-29T12:24:19.999Z</time></trkpt><trkpt lat="46.11091266911842" lon="12.11106088198549"><ele>311.0</ele><time>2026-03-29T12:24:20.999Z</time></trkpt><trkpt lat="46.11088359947632" lon="12.110829212107063"><ele>311.0</ele><time>2026-03-29T12:24:21.999Z</time></trkpt><trkpt lat="46.11086201316639" lon="12.11058859160486"><ele>311.0</ele><time>2026-03-29T12:24:22.999Z</time></trkpt><trkpt lat="46.11084644132632" lon="12.110348378945474"><ele>311.0</ele><time>2026-03-29T12:24:23.999Z</time></trkpt><trkpt lat="46.110842417151254" lon="12.110107668761978"><ele>311.0</ele><time>2026-03-29T12:24:24.999Z</time></trkpt><trkpt lat="46.110849605020476" lon="12.109864859101137"><ele>310.33333333333337</ele><time>2026-03-29T12:24:25.999Z</time></trkpt><trkpt lat="46.110859711916554" lon="12.109619557304367"><ele>309.6666666666667</ele><time>2026-03-29T12:24:26.999Z</time></trkpt><trkpt lat="46.11087570950331" lon="12.109381032804942"><ele>309.0</ele><time>2026-03-29T12:24:27.999Z</time></trkpt><trkpt lat="46.110892891456665" lon="12.109135310350284"><ele>309.3333333333333</ele><time>2026-03-29T12:24:28.999Z</time></trkpt><trkpt lat="46.11091770899232" lon="12.108889905553845"><ele>309.66666666666663</ele><time>2026-03-29T12:24:29.999Z</time></trkpt><trkpt lat="46.110940816741646" lon="12.108640258488576"><ele>310.0</ele><time>2026-03-29T12:24:30.999Z</time></trkpt><trkpt lat="46.11095200650257" lon="12.108391821659056"><ele>309.66666666666663</ele><time>2026-03-29T12:24:31.999Z</time></trkpt><trkpt lat="46.110966730910356" lon="12.108140915842851"><ele>309.3333333333333</ele><time>2026-03-29T12:24:32.999Z</time></trkpt><trkpt lat="46.11098731483353" lon="12.107885141171995"><ele>309.0</ele><time>2026-03-29T12:24:33.999Z</time></trkpt><trkpt lat="46.11100002279974" lon="12.107627662308527"><ele>309.3333333333333</ele><time>2026-03-29T12:24:34.999Z</time></trkpt><trkpt lat="46.11100104008379" lon="12.107376740379129"><ele>309.66666666666663</ele><time>2026-03-29T12:24:35.999Z</time></trkpt><trkpt lat="46.11098320328923" lon="12.107125508316354"><ele>310.0</ele><time>2026-03-29T12:24:36.999Z</time></trkpt><trkpt lat="46.110955523692674" lon="12.106879618486014"><ele>310.0</ele><time>2026-03-29T12:24:37.999Z</time></trkpt><trkpt lat="46.110923850769765" lon="12.106629322577835"><ele>310.0</ele><time>2026-03-29T12:24:38.999Z</time></trkpt><trkpt lat="46.11088778886351" lon="12.106380662726894"><ele>310.0</ele><time>2026-03-29T12:24:39.999Z</time></trkpt><trkpt lat="46.110844029532956" lon="12.10613498224213"><ele>310.66666666666663</ele><time>2026-03-29T12:24:41Z</time></trkpt><trkpt lat="46.11079435855791" lon="12.105895162541813"><ele>311.3333333333333</ele><time>2026-03-29T12:24:42Z</time></trkpt><trkpt lat="46.11074385088322" lon="12.105656133460814"><ele>312.0</ele><time>2026-03-29T12:24:43Z</time></trkpt><trkpt lat="46.11069439830143" lon="12.105417628203153"><ele>312.0</ele><time>2026-03-29T12:24:44Z</time></trkpt><trkpt lat="46.110654680907224" lon="12.10517398672288"><ele>312.0</ele><time>2026-03-29T12:24:45Z</time></trkpt><trkpt lat="46.11061808404852" lon="12.10493596978764"><ele>312.0</ele><time>2026-03-29T12:24:46Z</time></trkpt><trkpt lat="46.11057956152643" lon="12.104701291809247"><ele>312.0</ele><time>2026-03-29T12:24:47Z</time></trkpt><trkpt lat="46.1105294165476" lon="12.104472320707213"><ele>312.0</ele><time>2026-03-29T12:24:48Z</time></trkpt><trkpt lat="46.11048637682983" lon="12.104247513230593"><ele>312.0</ele><time>2026-03-29T12:24:49Z</time></trkpt><trkpt lat="46.110439365673734" lon="12.10401525924919"><ele>312.0</ele><time>2026-03-29T12:24:50Z</time></trkpt><trkpt lat="46.11039891387532" lon="12.103782278618855"><ele>312.0</ele><time>2026-03-29T12:24:51Z</time></trkpt><trkpt lat="46.11035117965381" lon="12.103552363941901"><ele>312.0</ele><time>2026-03-29T12:24:52Z</time></trkpt><trkpt lat="46.11031066770308" lon="12.10333081898186"><ele>312.6666666666667</ele><time>2026-03-29T12:24:53Z</time></trkpt><trkpt lat="46.11026713995505" lon="12.10310592751843"><ele>313.33333333333337</ele><time>2026-03-29T12:24:54Z</time></trkpt><trkpt lat="46.11022517206215" lon="12.102877108041463"><ele>314.0</ele><time>2026-03-29T12:24:55Z</time></trkpt><trkpt lat="46.11018129011968" lon="12.102652620353838"><ele>314.0</ele><time>2026-03-29T12:24:56Z</time></trkpt><trkpt lat="46.11013793098206" lon="12.102429902428991"><ele>314.0</ele><time>2026-03-29T12:24:57Z</time></trkpt><trkpt lat="46.11009083382079" lon="12.102210047106151"><ele>314.0</ele><time>2026-03-29T12:24:58Z</time></trkpt><trkpt lat="46.110050522098334" lon="12.101981140709016"><ele>314.0</ele><time>2026-03-29T12:24:59Z</time></trkpt><trkpt lat="46.11000929330054" lon="12.101756079777944"><ele>314.0</ele><time>2026-03-29T12:25:00Z</time></trkpt><trkpt lat="46.109966455842944" lon="12.10152998990644"><ele>314.0</ele><time>2026-03-29T12:25:01Z</time></trkpt><trkpt lat="46.10992296023356" lon="12.101312843037773"><ele>313.6666666666667</ele><time>2026-03-29T12:25:02Z</time></trkpt><trkpt lat="46.10988028270309" lon="12.101093726775588"><ele>313.3333333333333</ele><time>2026-03-29T12:25:03Z</time></trkpt><trkpt lat="46.109834549671916" lon="12.100874484415323"><ele>313.0</ele><time>2026-03-29T12:25:04Z</time></trkpt><trkpt lat="46.10977700024979" lon="12.1006698596427"><ele>313.66666666666663</ele><time>2026-03-29T12:25:05Z</time></trkpt><trkpt lat="46.10971162111742" lon="12.100478243928475"><ele>314.3333333333333</ele><time>2026-03-29T12:25:06Z</time></trkpt><trkpt lat="46.10964474476133" lon="12.100281095789384"><ele>315.0</ele><time>2026-03-29T12:25:07Z</time></trkpt><trkpt lat="46.10957949427086" lon="12.100079643192375"><ele>315.0</ele><time>2026-03-29T12:25:08Z</time></trkpt><trkpt lat="46.109518245090506" lon="12.099877756862284"><ele>315.0</ele><time>2026-03-29T12:25:09Z</time></trkpt><trkpt lat="46.10945841714648" lon="12.09967711792927"><ele>315.0</ele><time>2026-03-29T12:25:10Z</time></trkpt><trkpt lat="46.10939993260676" lon="12.099476374768805"><ele>315.0</ele><time>2026-03-29T12:25:11Z</time></trkpt><trkpt lat="46.10933689771172" lon="12.099278551910132"><ele>315.0</ele><time>2026-03-29T12:25:12Z</time></trkpt><trkpt lat="46.10927052656458" lon="12.099089629518206"><ele>315.0</ele><time>2026-03-29T12:25:13Z</time></trkpt><trkpt lat="46.10920670875909" lon="12.098892197926398"><ele>315.0</ele><time>2026-03-29T12:25:14Z</time></trkpt><trkpt lat="46.10913999215156" lon="12.09869582052708"><ele>314.75</ele><time>2026-03-29T12:25:15Z</time></trkpt><trkpt lat="46.10908112269886" lon="12.098516108953639"><ele>314.5</ele><time>2026-03-29T12:25:16Z</time></trkpt><trkpt lat="46.109017994234904" lon="12.09834520864222"><ele>314.25</ele><time>2026-03-29T12:25:17Z</time></trkpt><trkpt lat="46.10894849084425" lon="12.098187499628544"><ele>314.0</ele><time>2026-03-29T12:25:18Z</time></trkpt><trkpt lat="46.10887359563519" lon="12.09804282665649"><ele>313.59999999999997</ele><time>2026-03-29T12:25:19Z</time></trkpt><trkpt lat="46.108797015216695" lon="12.097916535268173"><ele>313.2</ele><time>2026-03-29T12:25:20Z</time></trkpt><trkpt lat="46.108723403364316" lon="12.097800674916266"><ele>312.79999999999995</ele><time>2026-03-29T12:25:21Z</time></trkpt><trkpt lat="46.108649229611714" lon="12.09769261997228"><ele>312.4</ele><time>2026-03-29T12:25:22Z</time></trkpt><trkpt lat="46.10856497627246" lon="12.097594795642257"><ele>312.0</ele><time>2026-03-29T12:25:23Z</time></trkpt><trkpt lat="46.108474146882635" lon="12.09749998205969"><ele>312.0</ele><time>2026-03-29T12:25:24Z</time></trkpt><trkpt lat="46.10837888971339" lon="12.097404676318579"><ele>312.0</ele><time>2026-03-29T12:25:25Z</time></trkpt><trkpt lat="46.10828141034092" lon="12.097305403701913"><ele>312.0</ele><time>2026-03-29T12:25:26Z</time></trkpt><trkpt lat="46.10818241522489" lon="12.097203257234096"><ele>312.0</ele><time>2026-03-29T12:25:27Z</time></trkpt><trkpt lat="46.10808393212683" lon="12.097095836102898"><ele>312.0</ele><time>2026-03-29T12:25:28Z</time></trkpt><trkpt lat="46.107982984711384" lon="12.096987617743201"><ele>312.0</ele><time>2026-03-29T12:25:29Z</time></trkpt><trkpt lat="46.10788492960205" lon="12.09688079226613"><ele>312.0</ele><time>2026-03-29T12:25:30Z</time></trkpt><trkpt lat="46.107790707673985" lon="12.09677398857439"><ele>312.0</ele><time>2026-03-29T12:25:31Z</time></trkpt><trkpt lat="46.10770797269971" lon="12.096670609621333"><ele>312.1666666666667</ele><time>2026-03-29T12:25:32Z</time></trkpt><trkpt lat="46.10762913427823" lon="12.09656041853161"><ele>312.3333333333333</ele><time>2026-03-29T12:25:33Z</time></trkpt><trkpt lat="46.10758617869498" lon="12.096442921932335"><ele>312.5</ele><time>2026-03-29T12:25:34Z</time></trkpt><trkpt lat="46.10755027239419" lon="12.096343428479505"><ele>312.66666666666663</ele><time>2026-03-29T12:25:35Z</time></trkpt><trkpt lat="46.10750409604814" lon="12.096260443902514"><ele>312.8333333333333</ele><time>2026-03-29T12:25:36Z</time></trkpt><trkpt lat="46.107426701991564" lon="12.09621847545486"><ele>313.0</ele><time>2026-03-29T12:25:37Z</time></trkpt><trkpt lat="46.107330235997246" lon="12.096213485007304"><ele>312.6</ele><time>2026-03-29T12:25:38Z</time></trkpt><trkpt lat="46.107239151033625" lon="12.096182099942949"><ele>312.20000000000005</ele><time>2026-03-29T12:25:39Z</time></trkpt><trkpt lat="46.107153615253786" lon="12.096103380892309"><ele>311.8</ele><time>2026-03-29T12:25:40Z</time></trkpt><trkpt lat="46.10706678177386" lon="12.096010622073589"><ele>311.40000000000003</ele><time>2026-03-29T12:25:41Z</time></trkpt><trkpt lat="46.10697520144349" lon="12.095913539203837"><ele>311.0</ele><time>2026-03-29T12:25:42Z</time></trkpt><trkpt lat="46.10687624715638" lon="12.095808897219072"><ele>311.0</ele><time>2026-03-29T12:25:43Z</time></trkpt><trkpt lat="46.10677269412653" lon="12.095699353150772"><ele>311.0</ele><time>2026-03-29T12:25:44Z</time></trkpt><trkpt lat="46.10666376055609" lon="12.095584454682063"><ele>311.0</ele><time>2026-03-29T12:25:45Z</time></trkpt><trkpt lat="46.106550478273945" lon="12.095467970097278"><ele>311.0</ele><time>2026-03-29T12:25:46Z</time></trkpt><trkpt lat="46.106440941518805" lon="12.095354398450757"><ele>311.0</ele><time>2026-03-29T12:25:46.998Z</time></trkpt><trkpt lat="46.10633258665683" lon="12.095248438976567"><ele>311.0</ele><time>2026-03-29T12:25:47.998Z</time></trkpt><trkpt lat="46.10621990319147" lon="12.095136013023978"><ele>311.0</ele><time>2026-03-29T12:25:48.998Z</time></trkpt><trkpt lat="46.10610515813882" lon="12.09502315891762"><ele>311.0</ele><time>2026-03-29T12:25:49.998Z</time></trkpt><trkpt lat="46.10598754954511" lon="12.094906348719672"><ele>310.75</ele><time>2026-03-29T12:25:50.998Z</time></trkpt><trkpt lat="46.10587065091243" lon="12.094783958660297"><ele>310.5</ele><time>2026-03-29T12:25:51.998Z</time></trkpt><trkpt lat="46.10575202379183" lon="12.094656778803365"><ele>310.25</ele><time>2026-03-29T12:25:52.998Z</time></trkpt><trkpt lat="46.105636109047985" lon="12.094539044357198"><ele>310.0</ele><time>2026-03-29T12:25:53.998Z</time></trkpt><trkpt lat="46.10551958148784" lon="12.094428126775503"><ele>310.0</ele><time>2026-03-29T12:25:54.998Z</time></trkpt><trkpt lat="46.10540387009117" lon="12.09431492637193"><ele>310.0</ele><time>2026-03-29T12:25:55.998Z</time></trkpt><trkpt lat="46.10528695726013" lon="12.094198679485489"><ele>310.0</ele><time>2026-03-29T12:25:56.998Z</time></trkpt><trkpt lat="46.10517277242014" lon="12.094080826050238"><ele>310.0</ele><time>2026-03-29T12:25:57.998Z</time></trkpt><trkpt lat="46.10505857448719" lon="12.093962734680854"><ele>310.0</ele><time>2026-03-29T12:25:58.998Z</time></trkpt><trkpt lat="46.10494298523392" lon="12.093847872853408"><ele>310.0</ele><time>2026-03-29T12:25:59.998Z</time></trkpt><trkpt lat="46.10482537092035" lon="12.093735015083205"><ele>310.0</ele><time>2026-03-29T12:26:00.998Z</time></trkpt><trkpt lat="46.10470596499514" lon="12.093622985036834"><ele>310.0</ele><time>2026-03-29T12:26:01.998Z</time></trkpt><trkpt lat="46.1045839225236" lon="12.093514012746342"><ele>310.0</ele><time>2026-03-29T12:26:02.998Z</time></trkpt><trkpt lat="46.104459090117196" lon="12.09340487092743"><ele>310.0</ele><time>2026-03-29T12:26:03.998Z</time></trkpt><trkpt lat="46.104331558413634" lon="12.093295363077269"><ele>310.0</ele><time>2026-03-29T12:26:04.999Z</time></trkpt><trkpt lat="46.10420272129866" lon="12.093187134920395"><ele>310.0</ele><time>2026-03-29T12:26:05.999Z</time></trkpt><trkpt lat="46.104074526682965" lon="12.093080420440229"><ele>309.5</ele><time>2026-03-29T12:26:06.999Z</time></trkpt><trkpt lat="46.10394590453503" lon="12.092976726224167"><ele>309.0</ele><time>2026-03-29T12:26:07.999Z</time></trkpt><trkpt lat="46.10381441974311" lon="12.092871900403903"><ele>308.5</ele><time>2026-03-29T12:26:08.999Z</time></trkpt><trkpt lat="46.103683330047254" lon="12.092768780538746"><ele>308.0</ele><time>2026-03-29T12:26:09.999Z</time></trkpt><trkpt lat="46.10354973520199" lon="12.092662668256692"><ele>308.0</ele><time>2026-03-29T12:26:10.999Z</time></trkpt><trkpt lat="46.10341648422814" lon="12.09255998373693"><ele>308.0</ele><time>2026-03-29T12:26:11.999Z</time></trkpt><trkpt lat="46.10328240491734" lon="12.09245536361924"><ele>308.0</ele><time>2026-03-29T12:26:12.999Z</time></trkpt><trkpt lat="46.10314820173739" lon="12.09234810867566"><ele>307.6666666666667</ele><time>2026-03-29T12:26:13.999Z</time></trkpt><trkpt lat="46.10301308305798" lon="12.092238573645483"><ele>307.3333333333333</ele><time>2026-03-29T12:26:14.999Z</time></trkpt><trkpt lat="46.10288104028029" lon="12.092130376353577"><ele>307.0</ele><time>2026-03-29T12:26:15.999Z</time></trkpt><trkpt lat="46.10275012605835" lon="12.092017791670505"><ele>307.0</ele><time>2026-03-29T12:26:16.999Z</time></trkpt><trkpt lat="46.10262176693981" lon="12.091903983885585"><ele>307.0</ele><time>2026-03-29T12:26:17.999Z</time></trkpt><trkpt lat="46.10249625220511" lon="12.09178923386155"><ele>307.0</ele><time>2026-03-29T12:26:18.999Z</time></trkpt><trkpt lat="46.10237448588242" lon="12.091668437135679"><ele>307.0</ele><time>2026-03-29T12:26:19.999Z</time></trkpt><trkpt lat="46.10225604846826" lon="12.091546937598375"><ele>306.5</ele><time>2026-03-29T12:26:20.999Z</time></trkpt><trkpt lat="46.10213666795041" lon="12.091424575120692"><ele>306.0</ele><time>2026-03-29T12:26:21.999Z</time></trkpt><trkpt lat="46.1020173322817" lon="12.091303796042801"><ele>305.5</ele><time>2026-03-29T12:26:22.999Z</time></trkpt><trkpt lat="46.10189955481981" lon="12.091182555627597"><ele>305.0</ele><time>2026-03-29T12:26:23.999Z</time></trkpt><trkpt lat="46.10178187061058" lon="12.091056329242349"><ele>305.0</ele><time>2026-03-29T12:26:24.999Z</time></trkpt><trkpt lat="46.1016644262969" lon="12.09093364563402"><ele>305.0</ele><time>2026-03-29T12:26:25.999Z</time></trkpt><trkpt lat="46.101553307369485" lon="12.090820928053269"><ele>305.0</ele><time>2026-03-29T12:26:26.999Z</time></trkpt><trkpt lat="46.101444775674715" lon="12.090717147780904"><ele>305.0</ele><time>2026-03-29T12:26:27.999Z</time></trkpt><trkpt lat="46.10134017159594" lon="12.090609518389092"><ele>304.75</ele><time>2026-03-29T12:26:28.999Z</time></trkpt><trkpt lat="46.10124165454332" lon="12.09050568978828"><ele>304.5</ele><time>2026-03-29T12:26:29.999Z</time></trkpt><trkpt lat="46.10114874892239" lon="12.090408761932844"><ele>304.25</ele><time>2026-03-29T12:26:30.999Z</time></trkpt><trkpt lat="46.10105733932344" lon="12.090316160205951"><ele>304.0</ele><time>2026-03-29T12:26:31.999Z</time></trkpt><trkpt lat="46.10096862092552" lon="12.090226611675634"><ele>304.0</ele><time>2026-03-29T12:26:32.999Z</time></trkpt><trkpt lat="46.100881489831416" lon="12.09014123059708"><ele>304.0</ele><time>2026-03-29T12:26:33.999Z</time></trkpt><trkpt lat="46.10079840508978" lon="12.090056108498702"><ele>304.0</ele><time>2026-03-29T12:26:34.999Z</time></trkpt><trkpt lat="46.100720403933" lon="12.0899800359402"><ele>304.0</ele><time>2026-03-29T12:26:35.999Z</time></trkpt><trkpt lat="46.10064914470065" lon="12.089907766607071"><ele>304.0</ele><time>2026-03-29T12:26:36.999Z</time></trkpt><trkpt lat="46.100581727921835" lon="12.089837708201017"><ele>303.8333333333333</ele><time>2026-03-29T12:26:37.999Z</time></trkpt><trkpt lat="46.10051762351435" lon="12.089771233364562"><ele>303.66666666666663</ele><time>2026-03-29T12:26:39Z</time></trkpt><trkpt lat="46.100456345632246" lon="12.089708454201082"><ele>303.5</ele><time>2026-03-29T12:26:40Z</time></trkpt><trkpt lat="46.10039625302582" lon="12.08963340070736"><ele>303.3333333333333</ele><time>2026-03-29T12:26:41Z</time></trkpt><trkpt lat="46.10033712975679" lon="12.089544137504303"><ele>303.1666666666667</ele><time>2026-03-29T12:26:42Z</time></trkpt><trkpt lat="46.100270790471505" lon="12.089465815667166"><ele>303.0</ele><time>2026-03-29T12:26:43Z</time></trkpt><trkpt lat="46.10019843540191" lon="12.089412280906979"><ele>303.0</ele><time>2026-03-29T12:26:44Z</time></trkpt><trkpt lat="46.10012272199318" lon="12.089403978253568"><ele>303.0</ele><time>2026-03-29T12:26:45Z</time></trkpt><trkpt lat="46.1000458074484" lon="12.089435714717006"><ele>303.0</ele><time>2026-03-29T12:26:46Z</time></trkpt><trkpt lat="46.09997988089814" lon="12.089506928240047"><ele>303.0</ele><time>2026-03-29T12:26:47Z</time></trkpt><trkpt lat="46.09994117966938" lon="12.089614758565133"><ele>303.0</ele><time>2026-03-29T12:26:48Z</time></trkpt><trkpt lat="46.099929219736545" lon="12.089732789609204"><ele>303.0</ele><time>2026-03-29T12:26:49Z</time></trkpt><trkpt lat="46.09992678477454" lon="12.089861227057431"><ele>303.2</ele><time>2026-03-29T12:26:50Z</time></trkpt><trkpt lat="46.09991118851557" lon="12.090000123976864"><ele>303.4</ele><time>2026-03-29T12:26:51Z</time></trkpt><trkpt lat="46.099870885147894" lon="12.09014110587616"><ele>303.59999999999997</ele><time>2026-03-29T12:26:52Z</time></trkpt><trkpt lat="46.099808551283566" lon="12.090281269091077"><ele>303.8</ele><time>2026-03-29T12:26:53Z</time></trkpt><trkpt lat="46.09973844964973" lon="12.090424249058852"><ele>304.0</ele><time>2026-03-29T12:26:54Z</time></trkpt><trkpt lat="46.09966637341121" lon="12.09057324599848"><ele>304.0</ele><time>2026-03-29T12:26:55Z</time></trkpt><trkpt lat="46.09959004907478" lon="12.090727332175135"><ele>304.0</ele><time>2026-03-29T12:26:56Z</time></trkpt><trkpt lat="46.09950806115186" lon="12.09088589834202"><ele>304.0</ele><time>2026-03-29T12:26:57Z</time></trkpt><trkpt lat="46.09942231474999" lon="12.091046532961085"><ele>304.0</ele><time>2026-03-29T12:26:58Z</time></trkpt><trkpt lat="46.099326355727314" lon="12.09120358472644"><ele>304.0</ele><time>2026-03-29T12:26:59Z</time></trkpt><trkpt lat="46.099224860927066" lon="12.09135872654905"><ele>304.0</ele><time>2026-03-29T12:27:00Z</time></trkpt><trkpt lat="46.09911590930449" lon="12.091513934749505"><ele>304.0</ele><time>2026-03-29T12:27:01Z</time></trkpt><trkpt lat="46.099003488493544" lon="12.091668989924433"><ele>303.66666666666663</ele><time>2026-03-29T12:27:02Z</time></trkpt><trkpt lat="46.09889194957361" lon="12.091831315997826"><ele>303.3333333333333</ele><time>2026-03-29T12:27:03Z</time></trkpt><trkpt lat="46.09878701581315" lon="12.092005455381456"><ele>303.0</ele><time>2026-03-29T12:27:04Z</time></trkpt><trkpt lat="46.098686939032866" lon="12.092189077286564"><ele>303.0</ele><time>2026-03-29T12:27:05Z</time></trkpt><trkpt lat="46.09859291766946" lon="12.09238185231465"><ele>303.0</ele><time>2026-03-29T12:27:06Z</time></trkpt><trkpt lat="46.098508676402034" lon="12.092570750630022"><ele>303.0</ele><time>2026-03-29T12:27:07Z</time></trkpt><trkpt lat="46.098424157897114" lon="12.092766257232196"><ele>302.6666666666667</ele><time>2026-03-29T12:27:08Z</time></trkpt><trkpt lat="46.09834295150804" lon="12.092955330048635"><ele>302.33333333333337</ele><time>2026-03-29T12:27:09Z</time></trkpt><trkpt lat="46.09826045368731" lon="12.093142639290255"><ele>302.0</ele><time>2026-03-29T12:27:10Z</time></trkpt><trkpt lat="46.098177084259994" lon="12.093331113926176"><ele>302.0</ele><time>2026-03-29T12:27:11Z</time></trkpt><trkpt lat="46.098093847397514" lon="12.093516681706431"><ele>302.0</ele><time>2026-03-29T12:27:12Z</time></trkpt><trkpt lat="46.09801169823151" lon="12.093704289676245"><ele>302.0</ele><time>2026-03-29T12:27:13Z</time></trkpt><trkpt lat="46.09792959876041" lon="12.093894721753037"><ele>302.0</ele><time>2026-03-29T12:27:14Z</time></trkpt><trkpt lat="46.09784684892392" lon="12.094085870666982"><ele>302.0</ele><time>2026-03-29T12:27:15Z</time></trkpt><trkpt lat="46.09776234033662" lon="12.09427567795533"><ele>302.0</ele><time>2026-03-29T12:27:16Z</time></trkpt><trkpt lat="46.09767743645514" lon="12.094462007958542"><ele>301.6666666666667</ele><time>2026-03-29T12:27:17Z</time></trkpt><trkpt lat="46.09759498257028" lon="12.09464856492224"><ele>301.3333333333333</ele><time>2026-03-29T12:27:18Z</time></trkpt><trkpt lat="46.09751291460836" lon="12.094832007542918"><ele>301.0</ele><time>2026-03-29T12:27:19Z</time></trkpt><trkpt lat="46.09742823779117" lon="12.09501474745606"><ele>300.0</ele><time>2026-03-29T12:27:20Z</time></trkpt><trkpt lat="46.09734147323652" lon="12.095195358850797"><ele>299.0</ele><time>2026-03-29T12:27:21Z</time></trkpt><trkpt lat="46.09725208005055" lon="12.095380948984392"><ele>298.0</ele><time>2026-03-29T12:27:22Z</time></trkpt><trkpt lat="46.09715754999832" lon="12.0955776927432"><ele>298.3333333333333</ele><time>2026-03-29T12:27:23Z</time></trkpt><trkpt lat="46.09706172162613" lon="12.095778239347547"><ele>298.6666666666667</ele><time>2026-03-29T12:27:24Z</time></trkpt><trkpt lat="46.09696072805038" lon="12.09598418892802"><ele>299.0</ele><time>2026-03-29T12:27:25Z</time></trkpt><trkpt lat="46.096856412268934" lon="12.096197125181686"><ele>299.0</ele><time>2026-03-29T12:27:26Z</time></trkpt><trkpt lat="46.09674852278555" lon="12.096414975739975"><ele>299.0</ele><time>2026-03-29T12:27:27Z</time></trkpt><trkpt lat="46.096638603164266" lon="12.096638850567203"><ele>299.0</ele><time>2026-03-29T12:27:28Z</time></trkpt><trkpt lat="46.09652563525536" lon="12.096867287222175"><ele>298.6666666666667</ele><time>2026-03-29T12:27:29Z</time></trkpt><trkpt lat="46.09641143596021" lon="12.097099500485584"><ele>298.3333333333333</ele><time>2026-03-29T12:27:30Z</time></trkpt><trkpt lat="46.096295876484014" lon="12.09733672855648"><ele>298.0</ele><time>2026-03-29T12:27:31Z</time></trkpt><trkpt lat="46.09617776539089" lon="12.09757717757176"><ele>297.66666666666663</ele><time>2026-03-29T12:27:32Z</time></trkpt><trkpt lat="46.09605821908464" lon="12.097816982912533"><ele>297.3333333333333</ele><time>2026-03-29T12:27:33Z</time></trkpt><trkpt lat="46.09593547695626" lon="12.098059637979217"><ele>297.0</ele><time>2026-03-29T12:27:34Z</time></trkpt><trkpt lat="46.095816630622565" lon="12.09830710808887"><ele>296.6666666666667</ele><time>2026-03-29T12:27:35Z</time></trkpt><trkpt lat="46.095703016108544" lon="12.098562052549656"><ele>296.33333333333337</ele><time>2026-03-29T12:27:36Z</time></trkpt><trkpt lat="46.09559938920479" lon="12.098825645574998"><ele>296.0</ele><time>2026-03-29T12:27:37Z</time></trkpt><trkpt lat="46.095504968876206" lon="12.099096825407319"><ele>297.33333333333337</ele><time>2026-03-29T12:27:38Z</time></trkpt><trkpt lat="46.09541787145615" lon="12.09937192496408"><ele>298.6666666666667</ele><time>2026-03-29T12:27:39Z</time></trkpt><trkpt lat="46.09533298156518" lon="12.099649176919684"><ele>300.0</ele><time>2026-03-29T12:27:40Z</time></trkpt><trkpt lat="46.095247122943086" lon="12.099923670741441"><ele>303.6666666666667</ele><time>2026-03-29T12:27:41Z</time></trkpt><trkpt lat="46.09515964896862" lon="12.100196475737581"><ele>307.33333333333337</ele><time>2026-03-29T12:27:42Z</time></trkpt><trkpt lat="46.095068993053" lon="12.100471540472602"><ele>311.0</ele><time>2026-03-29T12:27:43.026Z</time></trkpt><trkpt lat="46.094981853851145" lon="12.100731975004912"><ele>308.0</ele><time>2026-03-29T12:27:44.021Z</time></trkpt><trkpt lat="46.09489520676948" lon="12.100988869416685"><ele>305.0</ele><time>2026-03-29T12:27:45.02Z</time></trkpt><trkpt lat="46.09481082337685" lon="12.101243416220635"><ele>302.0</ele><time>2026-03-29T12:27:46.021Z</time></trkpt><trkpt lat="46.094729212979665" lon="12.10149562469976"><ele>302.0</ele><time>2026-03-29T12:27:47.02Z</time></trkpt><trkpt lat="46.09464938224577" lon="12.101748391475047"><ele>302.0</ele><time>2026-03-29T12:27:48.021Z</time></trkpt><trkpt lat="46.09430548739255" lon="12.102816989656633"><ele>300.33333333333337</ele><time>2026-03-29T12:27:52Z</time></trkpt><trkpt lat="46.094217415964216" lon="12.103076357145504"><ele>298.6666666666667</ele><time>2026-03-29T12:27:53Z</time></trkpt><trkpt lat="46.09415065519256" lon="12.10330954497961"><ele>297.0</ele><time>2026-03-29T12:27:54Z</time></trkpt><trkpt lat="46.094105314204626" lon="12.103585379731502"><ele>296.0</ele><time>2026-03-29T12:27:55Z</time></trkpt><trkpt lat="46.094080941600595" lon="12.103867546902952"><ele>295.0</ele><time>2026-03-29T12:27:56Z</time></trkpt><trkpt lat="46.09407337616401" lon="12.104150252967267"><ele>294.0</ele><time>2026-03-29T12:27:57Z</time></trkpt><trkpt lat="46.09408143957406" lon="12.104434460697052"><ele>294.3333333333333</ele><time>2026-03-29T12:27:57.998Z</time></trkpt><trkpt lat="46.09410254903512" lon="12.104721652598457"><ele>294.66666666666663</ele><time>2026-03-29T12:27:58.998Z</time></trkpt><trkpt lat="46.09413129916454" lon="12.105009184302823"><ele>295.0</ele><time>2026-03-29T12:27:59.998Z</time></trkpt><trkpt lat="46.09416836566288" lon="12.10529713991507"><ele>295.0</ele><time>2026-03-29T12:28:00.998Z</time></trkpt><trkpt lat="46.09420788931863" lon="12.105585849853439"><ele>295.0</ele><time>2026-03-29T12:28:01.998Z</time></trkpt><trkpt lat="46.09424543114747" lon="12.10587430526492"><ele>295.0</ele><time>2026-03-29T12:28:02.998Z</time></trkpt><trkpt lat="46.09428225631958" lon="12.106165801495298"><ele>294.66666666666663</ele><time>2026-03-29T12:28:03.998Z</time></trkpt><trkpt lat="46.09431771037765" lon="12.106454812147152"><ele>294.3333333333333</ele><time>2026-03-29T12:28:04.998Z</time></trkpt><trkpt lat="46.09435097320454" lon="12.106745327753133"><ele>294.0</ele><time>2026-03-29T12:28:05.998Z</time></trkpt><trkpt lat="46.094381129927015" lon="12.107039175780397"><ele>294.6666666666667</ele><time>2026-03-29T12:28:06.998Z</time></trkpt><trkpt lat="46.09440587201012" lon="12.107342964787232"><ele>295.33333333333337</ele><time>2026-03-29T12:28:07.998Z</time></trkpt><trkpt lat="46.09442354729412" lon="12.107643394129163"><ele>296.0</ele><time>2026-03-29T12:28:08.999Z</time></trkpt><trkpt lat="46.09443092687411" lon="12.10794048053531"><ele>297.6666666666667</ele><time>2026-03-29T12:28:09.999Z</time></trkpt><trkpt lat="46.09442937225716" lon="12.108237221390086"><ele>299.3333333333333</ele><time>2026-03-29T12:28:10.999Z</time></trkpt><trkpt lat="46.09441688064508" lon="12.108536543290743"><ele>301.0</ele><time>2026-03-29T12:28:11.999Z</time></trkpt><trkpt lat="46.09439787017116" lon="12.108843782406797"><ele>300.0</ele><time>2026-03-29T12:28:12.999Z</time></trkpt><trkpt lat="46.09436854733105" lon="12.109173593004671"><ele>299.0</ele><time>2026-03-29T12:28:13.999Z</time></trkpt><trkpt lat="46.09433022563477" lon="12.109501061448151"><ele>299.0</ele><time>2026-03-29T12:28:14.999Z</time></trkpt><trkpt lat="46.094286571155564" lon="12.10981220134684"><ele>299.0</ele><time>2026-03-29T12:28:15.999Z</time></trkpt><trkpt lat="46.094242171243344" lon="12.110114112975621"><ele>299.0</ele><time>2026-03-29T12:28:16.999Z</time></trkpt><trkpt lat="46.09420105391984" lon="12.110406386687549"><ele>299.0</ele><time>2026-03-29T12:28:17.999Z</time></trkpt><trkpt lat="46.09416415010253" lon="12.110695677106794"><ele>299.0</ele><time>2026-03-29T12:28:18.999Z</time></trkpt><trkpt lat="46.09412855039904" lon="12.110983051311722"><ele>299.0</ele><time>2026-03-29T12:28:19.999Z</time></trkpt><trkpt lat="46.09409125523208" lon="12.111273411838646"><ele>297.6666666666667</ele><time>2026-03-29T12:28:20.999Z</time></trkpt><trkpt lat="46.09405731383452" lon="12.11158312536082"><ele>296.3333333333333</ele><time>2026-03-29T12:28:21.999Z</time></trkpt><trkpt lat="46.094040789977925" lon="12.111910950840686"><ele>295.0</ele><time>2026-03-29T12:28:22.999Z</time></trkpt><trkpt lat="46.09404858456275" lon="12.11226309768234"><ele>295.0</ele><time>2026-03-29T12:28:23.999Z</time></trkpt><trkpt lat="46.09406590298671" lon="12.112636038842897"><ele>295.0</ele><time>2026-03-29T12:28:24.999Z</time></trkpt><trkpt lat="46.09408061033692" lon="12.113023119603815"><ele>295.0</ele><time>2026-03-29T12:28:25.999Z</time></trkpt><trkpt lat="46.094085427436326" lon="12.113411798762145"><ele>295.0</ele><time>2026-03-29T12:28:26.999Z</time></trkpt><trkpt lat="46.09408946029423" lon="12.113795032874316"><ele>301.5</ele><time>2026-03-29T12:28:27.999Z</time></trkpt><trkpt lat="46.09409522596763" lon="12.114165891148334"><ele>308.0</ele><time>2026-03-29T12:28:28.999Z</time></trkpt><trkpt lat="46.094105563583554" lon="12.114529030969075"><ele>308.0</ele><time>2026-03-29T12:28:29.999Z</time></trkpt><trkpt lat="46.094117677815355" lon="12.114882269849916"><ele>308.0</ele><time>2026-03-29T12:28:30.999Z</time></trkpt><trkpt lat="46.09413186118754" lon="12.115230401566508"><ele>308.5</ele><time>2026-03-29T12:28:31.999Z</time></trkpt><trkpt lat="46.09414553252725" lon="12.115573442015753"><ele>309.0</ele><time>2026-03-29T12:28:33Z</time></trkpt><trkpt lat="46.09415205435806" lon="12.115912256911752"><ele>310.0</ele><time>2026-03-29T12:28:34Z</time></trkpt><trkpt lat="46.09414807159719" lon="12.116246666640956"><ele>311.0</ele><time>2026-03-29T12:28:35Z</time></trkpt><trkpt lat="46.09412965635156" lon="12.116577043624023"><ele>311.6666666666667</ele><time>2026-03-29T12:28:36Z</time></trkpt><trkpt lat="46.094094166152296" lon="12.116897911667207"><ele>312.3333333333333</ele><time>2026-03-29T12:28:37Z</time></trkpt><trkpt lat="46.094042897333054" lon="12.117208567966552"><ele>313.0</ele><time>2026-03-29T12:28:38Z</time></trkpt><trkpt lat="46.09397994874507" lon="12.11751238436373"><ele>314.0</ele><time>2026-03-29T12:28:39Z</time></trkpt><trkpt lat="46.09390728284398" lon="12.117806240326349"><ele>315.0</ele><time>2026-03-29T12:28:40Z</time></trkpt><trkpt lat="46.0938247231583" lon="12.118087985792107"><ele>316.0</ele><time>2026-03-29T12:28:41Z</time></trkpt><trkpt lat="46.09373609743579" lon="12.1183656526069"><ele>316.0</ele><time>2026-03-29T12:28:42Z</time></trkpt><trkpt lat="46.09364007917146" lon="12.118619152632716"><ele>316.0</ele><time>2026-03-29T12:28:43Z</time></trkpt><trkpt lat="46.09354434671932" lon="12.118922823321526"><ele>316.0</ele><time>2026-03-29T12:28:44Z</time></trkpt><trkpt lat="46.09345092674265" lon="12.11920387709406"><ele>316.66666666666663</ele><time>2026-03-29T12:28:45Z</time></trkpt><trkpt lat="46.09336487895748" lon="12.119484320951846"><ele>317.3333333333333</ele><time>2026-03-29T12:28:46Z</time></trkpt><trkpt lat="46.09328866322398" lon="12.119754891651407"><ele>318.0</ele><time>2026-03-29T12:28:47Z</time></trkpt><trkpt lat="46.09321763538076" lon="12.120015406007319"><ele>314.0</ele><time>2026-03-29T12:28:48Z</time></trkpt><trkpt lat="46.093149483760804" lon="12.120286918980687"><ele>310.0</ele><time>2026-03-29T12:28:49Z</time></trkpt><trkpt lat="46.09309162014437" lon="12.12056148974998"><ele>306.0</ele><time>2026-03-29T12:28:50Z</time></trkpt><trkpt lat="46.093043304524166" lon="12.120836919256961"><ele>306.0</ele><time>2026-03-29T12:28:51Z</time></trkpt><trkpt lat="46.09300251300895" lon="12.12111489590221"><ele>306.0</ele><time>2026-03-29T12:28:52Z</time></trkpt><trkpt lat="46.09296546533756" lon="12.121390706706213"><ele>306.0</ele><time>2026-03-29T12:28:53Z</time></trkpt><trkpt lat="46.092925939139604" lon="12.121655787208155"><ele>305.6666666666667</ele><time>2026-03-29T12:28:54Z</time></trkpt><trkpt lat="46.09288417050144" lon="12.121908367933468"><ele>305.33333333333337</ele><time>2026-03-29T12:28:55Z</time></trkpt><trkpt lat="46.09283899359181" lon="12.122146013783805"><ele>305.0</ele><time>2026-03-29T12:28:56Z</time></trkpt><trkpt lat="46.092788224146815" lon="12.122371047994813"><ele>305.33333333333337</ele><time>2026-03-29T12:28:57Z</time></trkpt><trkpt lat="46.09272420147099" lon="12.122583657494676"><ele>305.6666666666667</ele><time>2026-03-29T12:28:58Z</time></trkpt><trkpt lat="46.092636437935575" lon="12.122786972179593"><ele>306.0</ele><time>2026-03-29T12:28:59Z</time></trkpt><trkpt lat="46.092528305681675" lon="12.122984641795178"><ele>302.3333333333333</ele><time>2026-03-29T12:29:00Z</time></trkpt><trkpt lat="46.09239707329648" lon="12.123181325221214"><ele>298.66666666666663</ele><time>2026-03-29T12:29:01Z</time></trkpt><trkpt lat="46.09225200517363" lon="12.1233779606"><ele>295.0</ele><time>2026-03-29T12:29:02Z</time></trkpt><trkpt lat="46.092109023683534" lon="12.123591830044159"><ele>295.0</ele><time>2026-03-29T12:29:03Z</time></trkpt><trkpt lat="46.09197900641476" lon="12.123834681811921"><ele>295.0</ele><time>2026-03-29T12:29:04Z</time></trkpt><trkpt lat="46.091864444435075" lon="12.124094950142075"><ele>295.0</ele><time>2026-03-29T12:29:05Z</time></trkpt><trkpt lat="46.09175287656493" lon="12.124364361786917"><ele>294.0</ele><time>2026-03-29T12:29:06Z</time></trkpt><trkpt lat="46.09163354193431" lon="12.124622803449702"><ele>293.0</ele><time>2026-03-29T12:29:07Z</time></trkpt><trkpt lat="46.09151717901349" lon="12.124881190369024"><ele>292.0</ele><time>2026-03-29T12:29:08Z</time></trkpt><trkpt lat="46.09140020538277" lon="12.125138067923054"><ele>291.66666666666663</ele><time>2026-03-29T12:29:09Z</time></trkpt><trkpt lat="46.091285121165356" lon="12.1253926933189"><ele>291.3333333333333</ele><time>2026-03-29T12:29:10Z</time></trkpt><trkpt lat="46.09116963885264" lon="12.12564494024418"><ele>291.0</ele><time>2026-03-29T12:29:11Z</time></trkpt><trkpt lat="46.09105461260477" lon="12.125898026745451"><ele>291.0</ele><time>2026-03-29T12:29:12Z</time></trkpt><trkpt lat="46.09094017147246" lon="12.126150372588622"><ele>291.0</ele><time>2026-03-29T12:29:13Z</time></trkpt><trkpt lat="46.09082647474484" lon="12.126401331323349"><ele>291.0</ele><time>2026-03-29T12:29:14Z</time></trkpt><trkpt lat="46.09071293566794" lon="12.126651994493052"><ele>292.0</ele><time>2026-03-29T12:29:15Z</time></trkpt><trkpt lat="46.09059930047859" lon="12.126898559974888"><ele>293.0</ele><time>2026-03-29T12:29:16Z</time></trkpt><trkpt lat="46.09048847239136" lon="12.127139837278431"><ele>294.0</ele><time>2026-03-29T12:29:17Z</time></trkpt><trkpt lat="46.090384576153966" lon="12.127367786324795"><ele>295.3333333333333</ele><time>2026-03-29T12:29:18Z</time></trkpt><trkpt lat="46.090281669606156" lon="12.127589105987873"><ele>296.66666666666663</ele><time>2026-03-29T12:29:19Z</time></trkpt><trkpt lat="46.09017872457472" lon="12.127809118648504"><ele>298.0</ele><time>2026-03-29T12:29:20Z</time></trkpt><trkpt lat="46.09007278084956" lon="12.128027062555566"><ele>299.3333333333333</ele><time>2026-03-29T12:29:21Z</time></trkpt><trkpt lat="46.0899584966682" lon="12.128238898479054"><ele>300.6666666666667</ele><time>2026-03-29T12:29:22Z</time></trkpt><trkpt lat="46.08983352018905" lon="12.12844508568545"><ele>302.0</ele><time>2026-03-29T12:29:23Z</time></trkpt><trkpt lat="46.08969875353195" lon="12.128644997162285"><ele>302.33333333333337</ele><time>2026-03-29T12:29:24Z</time></trkpt><trkpt lat="46.08955581208431" lon="12.128840134166246"><ele>302.6666666666667</ele><time>2026-03-29T12:29:25.001Z</time></trkpt><trkpt lat="46.089404972710525" lon="12.129032216890607"><ele>303.0</ele><time>2026-03-29T12:29:26.001Z</time></trkpt><trkpt lat="46.08924494447462" lon="12.129213567206426"><ele>302.6666666666667</ele><time>2026-03-29T12:29:27.001Z</time></trkpt><trkpt lat="46.089076374598804" lon="12.129383986504532"><ele>302.33333333333337</ele><time>2026-03-29T12:29:28.001Z</time></trkpt><trkpt lat="46.088901411146225" lon="12.129545560758725"><ele>302.0</ele><time>2026-03-29T12:29:29.001Z</time></trkpt><trkpt lat="46.08872180707641" lon="12.129698705320722"><ele>302.0</ele><time>2026-03-29T12:29:30.001Z</time></trkpt><trkpt lat="46.088538360688126" lon="12.129855681710485"><ele>302.0</ele><time>2026-03-29T12:29:31.001Z</time></trkpt><trkpt lat="46.088354137861295" lon="12.13001439329714"><ele>302.0</ele><time>2026-03-29T12:29:32.001Z</time></trkpt><trkpt lat="46.08816828125102" lon="12.130175682270437"><ele>303.0</ele><time>2026-03-29T12:29:33.001Z</time></trkpt><trkpt lat="46.087982445143346" lon="12.130335550172092"><ele>304.0</ele><time>2026-03-29T12:29:34.001Z</time></trkpt><trkpt lat="46.08779333110902" lon="12.13048834119285"><ele>305.0</ele><time>2026-03-29T12:29:35.001Z</time></trkpt><trkpt lat="46.087603604726546" lon="12.130641357923022"><ele>306.6666666666667</ele><time>2026-03-29T12:29:36.001Z</time></trkpt><trkpt lat="46.087413076446786" lon="12.130796294895422"><ele>308.3333333333333</ele><time>2026-03-29T12:29:37.001Z</time></trkpt><trkpt lat="46.0872245993907" lon="12.130952017993774"><ele>310.0</ele><time>2026-03-29T12:29:38.001Z</time></trkpt><trkpt lat="46.08704395056972" lon="12.131102523841255"><ele>310.0</ele><time>2026-03-29T12:29:39.001Z</time></trkpt><trkpt lat="46.08685809885714" lon="12.13125415578022"><ele>310.0</ele><time>2026-03-29T12:29:40.001Z</time></trkpt><trkpt lat="46.08663994846799" lon="12.131445214882596"><ele>310.0</ele><time>2026-03-29T12:29:41.001Z</time></trkpt><trkpt lat="46.08643087072127" lon="12.131620773890191"><ele>310.0</ele><time>2026-03-29T12:29:42.001Z</time></trkpt><trkpt lat="46.086241098954986" lon="12.131778173907087"><ele>310.0</ele><time>2026-03-29T12:29:43.001Z</time></trkpt><trkpt lat="46.0860541563361" lon="12.131935523196654"><ele>310.0</ele><time>2026-03-29T12:29:44.001Z</time></trkpt><trkpt lat="46.085872038862995" lon="12.132084889972337"><ele>310.0</ele><time>2026-03-29T12:29:45.001Z</time></trkpt><trkpt lat="46.08569103139025" lon="12.132231223510733"><ele>311.3333333333333</ele><time>2026-03-29T12:29:46.001Z</time></trkpt><trkpt lat="46.08551005795894" lon="12.132381893735891"><ele>312.6666666666667</ele><time>2026-03-29T12:29:47.001Z</time></trkpt><trkpt lat="46.085324789643764" lon="12.132531707089202"><ele>314.0</ele><time>2026-03-29T12:29:48.001Z</time></trkpt><trkpt lat="46.0851393103843" lon="12.132690695889584"><ele>314.0</ele><time>2026-03-29T12:29:49.001Z</time></trkpt><trkpt lat="46.08495100725504" lon="12.13285327562637"><ele>314.0</ele><time>2026-03-29T12:29:50.001Z</time></trkpt><trkpt lat="46.0847617454705" lon="12.133016170532382"><ele>314.0</ele><time>2026-03-29T12:29:51.001Z</time></trkpt><trkpt lat="46.08456854110251" lon="12.133183686842056"><ele>315.0</ele><time>2026-03-29T12:29:52.001Z</time></trkpt><trkpt lat="46.08437338999071" lon="12.133351378952042"><ele>316.0</ele><time>2026-03-29T12:29:53.001Z</time></trkpt><trkpt lat="46.08417823099951" lon="12.13352170489422"><ele>315.5</ele><time>2026-03-29T12:29:54.001Z</time></trkpt><trkpt lat="46.08398050412256" lon="12.133696870564405"><ele>315.0</ele><time>2026-03-29T12:29:55.001Z</time></trkpt><trkpt lat="46.083778335158485" lon="12.133867508507901"><ele>315.0</ele><time>2026-03-29T12:29:56.001Z</time></trkpt><trkpt lat="46.08357609315166" lon="12.134036696701436"><ele>315.0</ele><time>2026-03-29T12:29:57.001Z</time></trkpt><trkpt lat="46.08336831847578" lon="12.13420255112047"><ele>316.5</ele><time>2026-03-29T12:29:58.001Z</time></trkpt><trkpt lat="46.08315977072278" lon="12.134371315347153"><ele>318.0</ele><time>2026-03-29T12:29:59.001Z</time></trkpt><trkpt lat="46.082948016775724" lon="12.134540942729853"><ele>318.0</ele><time>2026-03-29T12:30:00.001Z</time></trkpt><trkpt lat="46.08273706045546" lon="12.134716392702957"><ele>318.0</ele><time>2026-03-29T12:30:01.001Z</time></trkpt><trkpt lat="46.08252682419119" lon="12.134890210794486"><ele>319.0</ele><time>2026-03-29T12:30:02.001Z</time></trkpt><trkpt lat="46.082319154464834" lon="12.135069795237804"><ele>320.0</ele><time>2026-03-29T12:30:03.001Z</time></trkpt><trkpt lat="46.0821363916168" lon="12.135238503505164"><ele>320.0</ele><time>2026-03-29T12:30:03.999Z</time></trkpt><trkpt lat="46.0819283104288" lon="12.135428158489324"><ele>320.0</ele><time>2026-03-29T12:30:04.999Z</time></trkpt><trkpt lat="46.08174534349834" lon="12.135551822382245"><ele>320.0</ele><time>2026-03-29T12:30:05.999Z</time></trkpt><trkpt lat="46.08154752349868" lon="12.135680377616273"><ele>321.6666666666667</ele><time>2026-03-29T12:30:06.999Z</time></trkpt><trkpt lat="46.08135177266555" lon="12.13579017039543"><ele>323.3333333333333</ele><time>2026-03-29T12:30:07.999Z</time></trkpt><trkpt lat="46.08115384164878" lon="12.135888640977479"><ele>325.0</ele><time>2026-03-29T12:30:08.999Z</time></trkpt><trkpt lat="46.080952475343715" lon="12.135981544050447"><ele>325.0</ele><time>2026-03-29T12:30:09.999Z</time></trkpt><trkpt lat="46.080747237172915" lon="12.136061770411647"><ele>325.0</ele><time>2026-03-29T12:30:10.999Z</time></trkpt><trkpt lat="46.080542015334814" lon="12.136132572818411"><ele>325.0</ele><time>2026-03-29T12:30:11.999Z</time></trkpt><trkpt lat="46.08034829034914" lon="12.13619952480795"><ele>325.0</ele><time>2026-03-29T12:30:12.999Z</time></trkpt><trkpt lat="46.080154450325594" lon="12.136264159196758"><ele>325.0</ele><time>2026-03-29T12:30:13.999Z</time></trkpt><trkpt lat="46.07996520574892" lon="12.136322827651412"><ele>325.0</ele><time>2026-03-29T12:30:14.999Z</time></trkpt><trkpt lat="46.07977693396015" lon="12.1363820371348"><ele>325.66666666666663</ele><time>2026-03-29T12:30:15.999Z</time></trkpt><trkpt lat="46.07958814216679" lon="12.136443052079294"><ele>326.3333333333333</ele><time>2026-03-29T12:30:16.999Z</time></trkpt><trkpt lat="46.07940030714538" lon="12.13650570465131"><ele>327.0</ele><time>2026-03-29T12:30:17.999Z</time></trkpt><trkpt lat="46.07921751228384" lon="12.136571226123069"><ele>328.3333333333333</ele><time>2026-03-29T12:30:18.999Z</time></trkpt><trkpt lat="46.07903705406747" lon="12.136639755542726"><ele>329.66666666666663</ele><time>2026-03-29T12:30:19.999Z</time></trkpt><trkpt lat="46.07886368274557" lon="12.136706768933248"><ele>331.0</ele><time>2026-03-29T12:30:20.999Z</time></trkpt><trkpt lat="46.07870916907584" lon="12.136760303020248"><ele>331.0</ele><time>2026-03-29T12:30:21.999Z</time></trkpt><trkpt lat="46.078566515774895" lon="12.13680606156931"><ele>331.0</ele><time>2026-03-29T12:30:23Z</time></trkpt><trkpt lat="46.07845244598107" lon="12.136832465697061"><ele>331.0</ele><time>2026-03-29T12:30:24Z</time></trkpt><trkpt lat="46.07835588633056" lon="12.136810369218072"><ele>331.0</ele><time>2026-03-29T12:30:25Z</time></trkpt><trkpt lat="46.07826502413027" lon="12.136784388818095"><ele>331.16666666666663</ele><time>2026-03-29T12:30:26Z</time></trkpt><trkpt lat="46.07817373080612" lon="12.136744898257607"><ele>331.3333333333333</ele><time>2026-03-29T12:30:27Z</time></trkpt><trkpt lat="46.07809167140836" lon="12.136705423959246"><ele>331.5</ele><time>2026-03-29T12:30:28Z</time></trkpt><trkpt lat="46.07802207937411" lon="12.136645362308002"><ele>331.6666666666667</ele><time>2026-03-29T12:30:29Z</time></trkpt><trkpt lat="46.07796289887709" lon="12.13656713671947"><ele>331.83333333333337</ele><time>2026-03-29T12:30:30Z</time></trkpt><trkpt lat="46.07790016947663" lon="12.136476770058819"><ele>332.0</ele><time>2026-03-29T12:30:31Z</time></trkpt><trkpt lat="46.07782622725721" lon="12.136385060150308"><ele>332.0</ele><time>2026-03-29T12:30:32Z</time></trkpt><trkpt lat="46.07774191266292" lon="12.136293882702558"><ele>332.0</ele><time>2026-03-29T12:30:33Z</time></trkpt><trkpt lat="46.07764981284291" lon="12.13620355296559"><ele>332.0</ele><time>2026-03-29T12:30:34Z</time></trkpt><trkpt lat="46.07755320000371" lon="12.136107818507602"><ele>332.0</ele><time>2026-03-29T12:30:35Z</time></trkpt><trkpt lat="46.077453371144976" lon="12.136003261056691"><ele>332.0</ele><time>2026-03-29T12:30:36Z</time></trkpt><trkpt lat="46.07735021723051" lon="12.135890440898608"><ele>332.0</ele><time>2026-03-29T12:30:37Z</time></trkpt><trkpt lat="46.077240259340066" lon="12.135770387247426"><ele>332.0</ele><time>2026-03-29T12:30:38Z</time></trkpt><trkpt lat="46.07712527342042" lon="12.135648352774682"><ele>332.0</ele><time>2026-03-29T12:30:39Z</time></trkpt><trkpt lat="46.07700350153548" lon="12.135521743696033"><ele>331.6666666666667</ele><time>2026-03-29T12:30:40Z</time></trkpt><trkpt lat="46.07687913919627" lon="12.135390755745817"><ele>331.3333333333333</ele><time>2026-03-29T12:30:41Z</time></trkpt><trkpt lat="46.07675402181795" lon="12.135254598723247"><ele>331.0</ele><time>2026-03-29T12:30:42Z</time></trkpt><trkpt lat="46.076627166345155" lon="12.135116972741663"><ele>332.3333333333333</ele><time>2026-03-29T12:30:43Z</time></trkpt><trkpt lat="46.076499952321804" lon="12.134981355703225"><ele>333.6666666666667</ele><time>2026-03-29T12:30:44Z</time></trkpt><trkpt lat="46.07637182141161" lon="12.134844146609257"><ele>335.0</ele><time>2026-03-29T12:30:45Z</time></trkpt><trkpt lat="46.076245566338805" lon="12.134708651104242"><ele>335.0</ele><time>2026-03-29T12:30:46Z</time></trkpt><trkpt lat="46.076114667889065" lon="12.134584189827692"><ele>335.0</ele><time>2026-03-29T12:30:47Z</time></trkpt><trkpt lat="46.07597215764376" lon="12.134483666393713"><ele>335.0</ele><time>2026-03-29T12:30:48Z</time></trkpt><trkpt lat="46.075820290693905" lon="12.1344145980918"><ele>337.33333333333337</ele><time>2026-03-29T12:30:49Z</time></trkpt><trkpt lat="46.07566415209604" lon="12.13436454249851"><ele>339.6666666666667</ele><time>2026-03-29T12:30:50Z</time></trkpt><trkpt lat="46.075509849010515" lon="12.134317069155768"><ele>342.0</ele><time>2026-03-29T12:30:51Z</time></trkpt><trkpt lat="46.075355080205874" lon="12.134269862007951"><ele>342.0</ele><time>2026-03-29T12:30:52Z</time></trkpt><trkpt lat="46.07519803705466" lon="12.134223493181588"><ele>342.0</ele><time>2026-03-29T12:30:53Z</time></trkpt><trkpt lat="46.075045677792154" lon="12.134175980620403"><ele>342.0</ele><time>2026-03-29T12:30:54Z</time></trkpt><trkpt lat="46.074909127649356" lon="12.134135971134288"><ele>342.25</ele><time>2026-03-29T12:30:55Z</time></trkpt><trkpt lat="46.07478773059129" lon="12.134087732342346"><ele>342.5</ele><time>2026-03-29T12:30:56Z</time></trkpt><trkpt lat="46.07468493401099" lon="12.134014545047892"><ele>342.75</ele><time>2026-03-29T12:30:57Z</time></trkpt><trkpt lat="46.07459575100153" lon="12.133930042125609"><ele>343.0</ele><time>2026-03-29T12:30:58Z</time></trkpt><trkpt lat="46.0745170778562" lon="12.133829385834053"><ele>343.75</ele><time>2026-03-29T12:30:59Z</time></trkpt><trkpt lat="46.07444167488488" lon="12.13371083541101"><ele>344.5</ele><time>2026-03-29T12:31:00Z</time></trkpt><trkpt lat="46.07435577381642" lon="12.133566237751902"><ele>345.25</ele><time>2026-03-29T12:31:01Z</time></trkpt><trkpt lat="46.0742643128035" lon="12.133411623669875"><ele>346.0</ele><time>2026-03-29T12:31:02Z</time></trkpt><trkpt lat="46.074183241844345" lon="12.133269392803161"><ele>346.6</ele><time>2026-03-29T12:31:03.001Z</time></trkpt><trkpt lat="46.07411333246763" lon="12.13314238830618"><ele>347.20000000000005</ele><time>2026-03-29T12:31:04.001Z</time></trkpt><trkpt lat="46.07404810939015" lon="12.13302591110026"><ele>347.79999999999995</ele><time>2026-03-29T12:31:05.001Z</time></trkpt><trkpt lat="46.07398688612836" lon="12.13292254243984"><ele>348.4</ele><time>2026-03-29T12:31:06.001Z</time></trkpt><trkpt lat="46.07393940686001" lon="12.132826118406367"><ele>349.0</ele><time>2026-03-29T12:31:07.001Z</time></trkpt><trkpt lat="46.07389571167989" lon="12.132746189757585"><ele>349.16666666666663</ele><time>2026-03-29T12:31:08.001Z</time></trkpt><trkpt lat="46.0738162308764" lon="12.132662841926166"><ele>349.3333333333333</ele><time>2026-03-29T12:31:10.001Z</time></trkpt><trkpt lat="46.073720790439275" lon="12.132713514400198"><ele>349.5</ele><time>2026-03-29T12:31:12.001Z</time></trkpt><trkpt lat="46.0736686923447" lon="12.132776742820603"><ele>349.6666666666667</ele><time>2026-03-29T12:31:13.001Z</time></trkpt><trkpt lat="46.07361788169584" lon="12.132871740945236"><ele>349.83333333333337</ele><time>2026-03-29T12:31:14.001Z</time></trkpt><trkpt lat="46.07356400572776" lon="12.132988138827859"><ele>350.0</ele><time>2026-03-29T12:31:15.001Z</time></trkpt><trkpt lat="46.07350529849605" lon="12.133105377931908"><ele>350.0</ele><time>2026-03-29T12:31:16.001Z</time></trkpt><trkpt lat="46.07345035312196" lon="12.133213162485392"><ele>350.0</ele><time>2026-03-29T12:31:17.001Z</time></trkpt><trkpt lat="46.073404901772726" lon="12.13331587270279"><ele>350.0</ele><time>2026-03-29T12:31:18.001Z</time></trkpt><trkpt lat="46.073361032778244" lon="12.133411449674634"><ele>350.0</ele><time>2026-03-29T12:31:19.001Z</time></trkpt><trkpt lat="46.0733073984858" lon="12.133508851344057"><ele>350.0</ele><time>2026-03-29T12:31:20.001Z</time></trkpt><trkpt lat="46.07324504723324" lon="12.133601125334264"><ele>350.0</ele><time>2026-03-29T12:31:21.001Z</time></trkpt><trkpt lat="46.073169505338086" lon="12.133670179226987"><ele>352.0</ele><time>2026-03-29T12:31:22.001Z</time></trkpt><trkpt lat="46.073092445813934" lon="12.133724198580904"><ele>354.0</ele><time>2026-03-29T12:31:23.001Z</time></trkpt><trkpt lat="46.07303132075453" lon="12.133795343890279"><ele>356.0</ele><time>2026-03-29T12:31:24.001Z</time></trkpt><trkpt lat="46.072983443211186" lon="12.133906934964871"><ele>358.0</ele><time>2026-03-29T12:31:25.001Z</time></trkpt><trkpt lat="46.07294720705893" lon="12.134036429425509"><ele>360.0</ele><time>2026-03-29T12:31:26.001Z</time></trkpt><trkpt lat="46.07291124643517" lon="12.134181592880134"><ele>360.75</ele><time>2026-03-29T12:31:27.001Z</time></trkpt><trkpt lat="46.07287777379531" lon="12.134343754596715"><ele>361.5</ele><time>2026-03-29T12:31:28.001Z</time></trkpt><trkpt lat="46.07284020023136" lon="12.13451522283266"><ele>362.25</ele><time>2026-03-29T12:31:29.001Z</time></trkpt><trkpt lat="46.072796313029976" lon="12.134694200150404"><ele>363.0</ele><time>2026-03-29T12:31:30.001Z</time></trkpt><trkpt lat="46.07274177044891" lon="12.134873333336637"><ele>363.5</ele><time>2026-03-29T12:31:31.001Z</time></trkpt><trkpt lat="46.07267894354158" lon="12.135061001366067"><ele>364.0</ele><time>2026-03-29T12:31:32.001Z</time></trkpt><trkpt lat="46.07261415362942" lon="12.135248397399991"><ele>364.5</ele><time>2026-03-29T12:31:33.001Z</time></trkpt><trkpt lat="46.07255687301666" lon="12.135429903091586"><ele>365.0</ele><time>2026-03-29T12:31:34.001Z</time></trkpt><trkpt lat="46.07250964887901" lon="12.135589947022192"><ele>365.5</ele><time>2026-03-29T12:31:35.001Z</time></trkpt><trkpt lat="46.072470250638865" lon="12.135735720471844"><ele>366.0</ele><time>2026-03-29T12:31:36.001Z</time></trkpt><trkpt lat="46.07242942054014" lon="12.13588717123717"><ele>366.5</ele><time>2026-03-29T12:31:37.001Z</time></trkpt><trkpt lat="46.072386462786255" lon="12.136052595184458"><ele>367.0</ele><time>2026-03-29T12:31:38.001Z</time></trkpt><trkpt lat="46.07234519730718" lon="12.136205673653164"><ele>367.40000000000003</ele><time>2026-03-29T12:31:39.001Z</time></trkpt><trkpt lat="46.07230641551448" lon="12.136341324123055"><ele>367.8</ele><time>2026-03-29T12:31:40.001Z</time></trkpt><trkpt lat="46.07226767304688" lon="12.136467492865378"><ele>368.2</ele><time>2026-03-29T12:31:41.001Z</time></trkpt><trkpt lat="46.072225973747024" lon="12.13659816353084"><ele>368.6</ele><time>2026-03-29T12:31:42.001Z</time></trkpt><trkpt lat="46.072181996803" lon="12.136732544223161"><ele>369.0</ele><time>2026-03-29T12:31:43.001Z</time></trkpt><trkpt lat="46.07213497622259" lon="12.136868570590828"><ele>369.0</ele><time>2026-03-29T12:31:44.001Z</time></trkpt><trkpt lat="46.07208470182709" lon="12.136995567531926"><ele>369.0</ele><time>2026-03-29T12:31:45.001Z</time></trkpt><trkpt lat="46.072036179076775" lon="12.137106682112236"><ele>369.0</ele><time>2026-03-29T12:31:46.001Z</time></trkpt><trkpt lat="46.07198380749094" lon="12.137210139483422"><ele>369.0</ele><time>2026-03-29T12:31:47.001Z</time></trkpt><trkpt lat="46.0719197251109" lon="12.13729013014628"><ele>369.0</ele><time>2026-03-29T12:31:48.001Z</time></trkpt><trkpt lat="46.071849900194614" lon="12.137353009020291"><ele>369.0</ele><time>2026-03-29T12:31:49.001Z</time></trkpt><trkpt lat="46.07177881051123" lon="12.137407948374884"><ele>368.6</ele><time>2026-03-29T12:31:50.001Z</time></trkpt><trkpt lat="46.071705745875505" lon="12.137458465854946"><ele>368.2</ele><time>2026-03-29T12:31:51.001Z</time></trkpt><trkpt lat="46.07162492981332" lon="12.1375125150563"><ele>367.8</ele><time>2026-03-29T12:31:52.001Z</time></trkpt><trkpt lat="46.07153473881087" lon="12.137578767754778"><ele>367.40000000000003</ele><time>2026-03-29T12:31:53.001Z</time></trkpt><trkpt lat="46.071438471217476" lon="12.137665409800846"><ele>367.0</ele><time>2026-03-29T12:31:54.001Z</time></trkpt><trkpt lat="46.071339612901106" lon="12.137767420928263"><ele>366.75</ele><time>2026-03-29T12:31:55.001Z</time></trkpt><trkpt lat="46.071242659260534" lon="12.137883628431151"><ele>366.5</ele><time>2026-03-29T12:31:56.002Z</time></trkpt><trkpt lat="46.07115228824117" lon="12.138012168659401"><ele>366.25</ele><time>2026-03-29T12:31:57.002Z</time></trkpt><trkpt lat="46.07106494228884" lon="12.138145447991677"><ele>366.0</ele><time>2026-03-29T12:31:58.002Z</time></trkpt><trkpt lat="46.070970478433026" lon="12.138276461135275"><ele>366.0</ele><time>2026-03-29T12:31:59.002Z</time></trkpt><trkpt lat="46.07087171613484" lon="12.138399456682649"><ele>366.0</ele><time>2026-03-29T12:32:00.002Z</time></trkpt><trkpt lat="46.07075572941006" lon="12.138495991331554"><ele>366.0</ele><time>2026-03-29T12:32:01.002Z</time></trkpt><trkpt lat="46.07063256736589" lon="12.138578937571085"><ele>366.0</ele><time>2026-03-29T12:32:02.002Z</time></trkpt><trkpt lat="46.07050917647033" lon="12.138660194045084"><ele>366.0</ele><time>2026-03-29T12:32:03.002Z</time></trkpt><trkpt lat="46.070376781777604" lon="12.138731701373455"><ele>366.0</ele><time>2026-03-29T12:32:04.002Z</time></trkpt><trkpt lat="46.07024319372529" lon="12.13880398913699"><ele>366.0</ele><time>2026-03-29T12:32:05.002Z</time></trkpt><trkpt lat="46.070112902428995" lon="12.13887978138632"><ele>366.0</ele><time>2026-03-29T12:32:06.002Z</time></trkpt><trkpt lat="46.0699947236683" lon="12.138944491705102"><ele>366.20000000000005</ele><time>2026-03-29T12:32:07.002Z</time></trkpt><trkpt lat="46.069888829312745" lon="12.139003856760445"><ele>366.40000000000003</ele><time>2026-03-29T12:32:08.002Z</time></trkpt><trkpt lat="46.06979293327514" lon="12.139060254625678"><ele>366.6</ele><time>2026-03-29T12:32:09.002Z</time></trkpt><trkpt lat="46.06971368356784" lon="12.13913548860499"><ele>366.8</ele><time>2026-03-29T12:32:10Z</time></trkpt><trkpt lat="46.06965895657131" lon="12.139232038836754"><ele>367.0</ele><time>2026-03-29T12:32:11Z</time></trkpt><trkpt lat="46.06962970255297" lon="12.139342823124823"><ele>367.40000000000003</ele><time>2026-03-29T12:32:12Z</time></trkpt><trkpt lat="46.069624133199596" lon="12.13946860343743"><ele>367.8</ele><time>2026-03-29T12:32:13Z</time></trkpt><trkpt lat="46.069627572178156" lon="12.139625961777131"><ele>368.2</ele><time>2026-03-29T12:32:14Z</time></trkpt><trkpt lat="46.06961780050922" lon="12.139801048630812"><ele>368.6</ele><time>2026-03-29T12:32:15Z</time></trkpt><trkpt lat="46.0696056031874" lon="12.139983268560892"><ele>369.0</ele><time>2026-03-29T12:32:16Z</time></trkpt><trkpt lat="46.06958779217522" lon="12.140153694396231"><ele>369.0</ele><time>2026-03-29T12:32:17Z</time></trkpt><trkpt lat="46.06956068714188" lon="12.14030146763113"><ele>369.0</ele><time>2026-03-29T12:32:18Z</time></trkpt><trkpt lat="46.06951388350802" lon="12.140430648658448"><ele>369.0</ele><time>2026-03-29T12:32:19Z</time></trkpt><trkpt lat="46.06943377421917" lon="12.140537213187017"><ele>369.0</ele><time>2026-03-29T12:32:20Z</time></trkpt><trkpt lat="46.06931932424194" lon="12.140645570928521"><ele>369.0</ele><time>2026-03-29T12:32:21Z</time></trkpt><trkpt lat="46.069172393147596" lon="12.140772317690448"><ele>369.0</ele><time>2026-03-29T12:32:22Z</time></trkpt><trkpt lat="46.069023471054585" lon="12.140901610380933"><ele>369.0</ele><time>2026-03-29T12:32:23Z</time></trkpt><trkpt lat="46.06887913397407" lon="12.141035532055826"><ele>369.0</ele><time>2026-03-29T12:32:24Z</time></trkpt><trkpt lat="46.06871915172956" lon="12.141182226884117"><ele>369.0</ele><time>2026-03-29T12:32:25Z</time></trkpt><trkpt lat="46.068531264652464" lon="12.141339735582518"><ele>369.0</ele><time>2026-03-29T12:32:26Z</time></trkpt><trkpt lat="46.06832073695558" lon="12.141504182350246"><ele>370.0</ele><time>2026-03-29T12:32:27Z</time></trkpt><trkpt lat="46.06810428161282" lon="12.141675846216648"><ele>371.0</ele><time>2026-03-29T12:32:28Z</time></trkpt><trkpt lat="46.06789562141486" lon="12.141859930530257"><ele>371.0</ele><time>2026-03-29T12:32:29Z</time></trkpt><trkpt lat="46.067666568327866" lon="12.142059895149448"><ele>371.0</ele><time>2026-03-29T12:32:30Z</time></trkpt><trkpt lat="46.0674520199914" lon="12.142247725318121"><ele>372.0</ele><time>2026-03-29T12:32:31Z</time></trkpt><trkpt lat="46.067253196244906" lon="12.142416877252662"><ele>373.0</ele><time>2026-03-29T12:32:32Z</time></trkpt><trkpt lat="46.06706556019285" lon="12.142575569542858"><ele>374.0</ele><time>2026-03-29T12:32:33Z</time></trkpt><trkpt lat="46.06689022442053" lon="12.14272536371302"><ele>374.0</ele><time>2026-03-29T12:32:34Z</time></trkpt><trkpt lat="46.06672616472336" lon="12.142868384129645"><ele>374.0</ele><time>2026-03-29T12:32:35Z</time></trkpt><trkpt lat="46.06657379625764" lon="12.143003880224693"><ele>374.0</ele><time>2026-03-29T12:32:36Z</time></trkpt><trkpt lat="46.06643800855963" lon="12.143127567979413"><ele>376.0</ele><time>2026-03-29T12:32:37Z</time></trkpt><trkpt lat="46.06630692546743" lon="12.143224070585434"><ele>378.0</ele><time>2026-03-29T12:32:38Z</time></trkpt><trkpt lat="46.0661751536875" lon="12.143267553712013"><ele>380.0</ele><time>2026-03-29T12:32:39Z</time></trkpt><trkpt lat="46.06603326282599" lon="12.14326704315785"><ele>382.0</ele><time>2026-03-29T12:32:40Z</time></trkpt><trkpt lat="46.06586533277563" lon="12.14323279075831"><ele>383.3333333333333</ele><time>2026-03-29T12:32:41Z</time></trkpt><trkpt lat="46.0656749249464" lon="12.143168459454849"><ele>384.66666666666663</ele><time>2026-03-29T12:32:42Z</time></trkpt><trkpt lat="46.06550735350163" lon="12.143089914361102"><ele>386.0</ele><time>2026-03-29T12:32:43Z</time></trkpt><trkpt lat="46.06537124458568" lon="12.142986097704553"><ele>386.0</ele><time>2026-03-29T12:32:44Z</time></trkpt><trkpt lat="46.06524759854305" lon="12.142858305064365"><ele>386.0</ele><time>2026-03-29T12:32:45Z</time></trkpt><trkpt lat="46.06511461023705" lon="12.142743392560629"><ele>386.0</ele><time>2026-03-29T12:32:46Z</time></trkpt><trkpt lat="46.06495842648835" lon="12.142662522902711"><ele>388.66666666666663</ele><time>2026-03-29T12:32:47Z</time></trkpt><trkpt lat="46.06477770794261" lon="12.142624382695281"><ele>391.33333333333337</ele><time>2026-03-29T12:32:48Z</time></trkpt><trkpt lat="46.06458721205924" lon="12.142617379821285"><ele>394.0</ele><time>2026-03-29T12:32:49Z</time></trkpt><trkpt lat="46.06438017380028" lon="12.14262459740972"><ele>394.0</ele><time>2026-03-29T12:32:50Z</time></trkpt><trkpt lat="46.0641605090174" lon="12.142643823422237"><ele>394.0</ele><time>2026-03-29T12:32:51.001Z</time></trkpt><trkpt lat="46.06395570612978" lon="12.142669461039699"><ele>394.0</ele><time>2026-03-29T12:32:52.001Z</time></trkpt><trkpt lat="46.06377601053572" lon="12.142695706391542"><ele>397.33333333333337</ele><time>2026-03-29T12:32:53.001Z</time></trkpt><trkpt lat="46.06361717406839" lon="12.142756295460185"><ele>400.66666666666663</ele><time>2026-03-29T12:32:54.001Z</time></trkpt><trkpt lat="46.06346412246182" lon="12.142870091680388"><ele>404.0</ele><time>2026-03-29T12:32:55.001Z</time></trkpt><trkpt lat="46.0633108050359" lon="12.143030209227533"><ele>406.66666666666663</ele><time>2026-03-29T12:32:56.001Z</time></trkpt><trkpt lat="46.06315779607876" lon="12.143225573708838"><ele>409.33333333333337</ele><time>2026-03-29T12:32:57.001Z</time></trkpt><trkpt lat="46.06299814743119" lon="12.14345120319104"><ele>412.0</ele><time>2026-03-29T12:32:58.001Z</time></trkpt><trkpt lat="46.06283348646744" lon="12.143687186399564"><ele>412.0</ele><time>2026-03-29T12:32:59.001Z</time></trkpt><trkpt lat="46.06268718444117" lon="12.143898196785143"><ele>412.0</ele><time>2026-03-29T12:33:00.001Z</time></trkpt><trkpt lat="46.06255965696434" lon="12.144072047292113"><ele>412.0</ele><time>2026-03-29T12:33:01.001Z</time></trkpt><trkpt lat="46.06245361117212" lon="12.144200940038615"><ele>415.0</ele><time>2026-03-29T12:33:02.001Z</time></trkpt><trkpt lat="46.0623679474744" lon="12.144262845236149"><ele>418.0</ele><time>2026-03-29T12:33:03.001Z</time></trkpt><trkpt lat="46.06228829808505" lon="12.144266133103946"><ele>421.00000000000006</ele><time>2026-03-29T12:33:04.001Z</time></trkpt><trkpt lat="46.06219856281471" lon="12.144224514505614"><ele>424.0</ele><time>2026-03-29T12:33:05.001Z</time></trkpt><trkpt lat="46.06207437696795" lon="12.144146007370834"><ele>427.0</ele><time>2026-03-29T12:33:06.001Z</time></trkpt><trkpt lat="46.06192713852318" lon="12.144055697933268"><ele>427.33333333333337</ele><time>2026-03-29T12:33:07.001Z</time></trkpt><trkpt lat="46.06176388433448" lon="12.14395149149732"><ele>427.66666666666663</ele><time>2026-03-29T12:33:08.001Z</time></trkpt><trkpt lat="46.061602583097006" lon="12.143845102287248"><ele>428.0</ele><time>2026-03-29T12:33:09.001Z</time></trkpt><trkpt lat="46.06143779319396" lon="12.143735816540232"><ele>428.0</ele><time>2026-03-29T12:33:10.001Z</time></trkpt><trkpt lat="46.06127401166012" lon="12.143628714635234"><ele>428.0</ele><time>2026-03-29T12:33:11.001Z</time></trkpt><trkpt lat="46.0611208384741" lon="12.143533504263738"><ele>428.0</ele><time>2026-03-29T12:33:12.001Z</time></trkpt><trkpt lat="46.06098515955708" lon="12.143446012478933"><ele>428.0</ele><time>2026-03-29T12:33:13.001Z</time></trkpt><trkpt lat="46.060855893085275" lon="12.143393253565526"><ele>428.0</ele><time>2026-03-29T12:33:14.001Z</time></trkpt><trkpt lat="46.06070841729455" lon="12.143387965812398"><ele>428.0</ele><time>2026-03-29T12:33:15.001Z</time></trkpt><trkpt lat="46.06054155631702" lon="12.143418261793345"><ele>429.66666666666663</ele><time>2026-03-29T12:33:16.001Z</time></trkpt><trkpt lat="46.06035893532853" lon="12.143462852391087"><ele>431.33333333333337</ele><time>2026-03-29T12:33:17.001Z</time></trkpt><trkpt lat="46.060179837000376" lon="12.143509776955232"><ele>433.0</ele><time>2026-03-29T12:33:18.001Z</time></trkpt><trkpt lat="46.06001283511463" lon="12.143555925145277"><ele>436.25</ele><time>2026-03-29T12:33:19.001Z</time></trkpt><trkpt lat="46.05987023574553" lon="12.143593270942512"><ele>439.5</ele><time>2026-03-29T12:33:20.001Z</time></trkpt><trkpt lat="46.05974915474528" lon="12.143586350578554"><ele>442.75</ele><time>2026-03-29T12:33:21.001Z</time></trkpt><trkpt lat="46.05964170729167" lon="12.143514511048455"><ele>446.0</ele><time>2026-03-29T12:33:22.001Z</time></trkpt><trkpt lat="46.0595164622809" lon="12.143392897621133"><ele>446.0</ele><time>2026-03-29T12:33:23.001Z</time></trkpt><trkpt lat="46.0593734375669" lon="12.14323067028825"><ele>446.0</ele><time>2026-03-29T12:33:24.001Z</time></trkpt><trkpt lat="46.05922178485668" lon="12.143047333246889"><ele>446.0</ele><time>2026-03-29T12:33:25.001Z</time></trkpt><trkpt lat="46.059079389080054" lon="12.142873111743079"><ele>447.66666666666663</ele><time>2026-03-29T12:33:26.001Z</time></trkpt><trkpt lat="46.05892701986723" lon="12.142720691588368"><ele>449.33333333333337</ele><time>2026-03-29T12:33:27.001Z</time></trkpt><trkpt lat="46.05873583300581" lon="12.142570834267138"><ele>451.0</ele><time>2026-03-29T12:33:28.001Z</time></trkpt><trkpt lat="46.05852611495103" lon="12.142410371118604"><ele>450.0</ele><time>2026-03-29T12:33:29.001Z</time></trkpt><trkpt lat="46.05830056568854" lon="12.142234144147295"><ele>449.0</ele><time>2026-03-29T12:33:30.001Z</time></trkpt><trkpt lat="46.058059948353986" lon="12.142038029178352"><ele>449.0</ele><time>2026-03-29T12:33:31.001Z</time></trkpt><trkpt lat="46.05782934503801" lon="12.141850888846614"><ele>449.0</ele><time>2026-03-29T12:33:32.001Z</time></trkpt><trkpt lat="46.05762514745214" lon="12.1416845989973"><ele>449.3333333333333</ele><time>2026-03-29T12:33:33.001Z</time></trkpt><trkpt lat="46.05743824272384" lon="12.14153284487417"><ele>449.66666666666663</ele><time>2026-03-29T12:33:34.001Z</time></trkpt><trkpt lat="46.057269664793566" lon="12.141399738140322"><ele>450.0</ele><time>2026-03-29T12:33:35.001Z</time></trkpt><trkpt lat="46.05712247108439" lon="12.141281740381338"><ele>450.0</ele><time>2026-03-29T12:33:36.001Z</time></trkpt><trkpt lat="46.05699715850976" lon="12.141175461878989"><ele>450.0</ele><time>2026-03-29T12:33:37.001Z</time></trkpt><trkpt lat="46.05689094977757" lon="12.14109855664919"><ele>450.0</ele><time>2026-03-29T12:33:38.001Z</time></trkpt><trkpt lat="46.05678723570535" lon="12.141065653257517"><ele>450.0</ele><time>2026-03-29T12:33:39.001Z</time></trkpt><trkpt lat="46.056679003148176" lon="12.141093806196109"><ele>446.66666666666663</ele><time>2026-03-29T12:33:40.001Z</time></trkpt><trkpt lat="46.05655343387713" lon="12.14116921944919"><ele>443.3333333333333</ele><time>2026-03-29T12:33:41.001Z</time></trkpt><trkpt lat="46.0564185752832" lon="12.141287845602507"><ele>440.0</ele><time>2026-03-29T12:33:42.001Z</time></trkpt><trkpt lat="46.05627919464656" lon="12.141462392640332"><ele>445.66666666666663</ele><time>2026-03-29T12:33:43.001Z</time></trkpt><trkpt lat="46.05613137852288" lon="12.141672323963347"><ele>451.33333333333337</ele><time>2026-03-29T12:33:44.001Z</time></trkpt><trkpt lat="46.05597096286176" lon="12.141917542245473"><ele>457.0</ele><time>2026-03-29T12:33:45.002Z</time></trkpt><trkpt lat="46.05579118939" lon="12.142170875973513"><ele>460.0</ele><time>2026-03-29T12:33:46.002Z</time></trkpt><trkpt lat="46.05560043964138" lon="12.142422596764254"><ele>463.0</ele><time>2026-03-29T12:33:47.002Z</time></trkpt><trkpt lat="46.05538956889349" lon="12.14268406599755"><ele>463.0</ele><time>2026-03-29T12:33:48.002Z</time></trkpt><trkpt lat="46.055184703872555" lon="12.142928070765567"><ele>463.0</ele><time>2026-03-29T12:33:49.002Z</time></trkpt><trkpt lat="46.05498258981262" lon="12.143165126791796"><ele>464.5</ele><time>2026-03-29T12:33:50.002Z</time></trkpt><trkpt lat="46.05477546805774" lon="12.143409236220569"><ele>466.0</ele><time>2026-03-29T12:33:51.002Z</time></trkpt><trkpt lat="46.05459270690404" lon="12.143625246108167"><ele>466.0</ele><time>2026-03-29T12:33:52.002Z</time></trkpt><trkpt lat="46.05442429574807" lon="12.143819096905686"><ele>466.0</ele><time>2026-03-29T12:33:53.002Z</time></trkpt><trkpt lat="46.054281730055315" lon="12.143970570304024"><ele>466.0</ele><time>2026-03-29T12:33:54.002Z</time></trkpt><trkpt lat="46.05417250853139" lon="12.144089546731546"><ele>467.0</ele><time>2026-03-29T12:33:55.002Z</time></trkpt><trkpt lat="46.05408400434413" lon="12.144217321852999"><ele>468.0</ele><time>2026-03-29T12:33:56.002Z</time></trkpt><trkpt lat="46.05403643903315" lon="12.144366724272654"><ele>469.0</ele><time>2026-03-29T12:33:57.002Z</time></trkpt><trkpt lat="46.05401500999187" lon="12.144542173319742"><ele>470.0</ele><time>2026-03-29T12:33:58.002Z</time></trkpt><trkpt lat="46.053989266549706" lon="12.14471551023057"><ele>470.0</ele><time>2026-03-29T12:33:59.002Z</time></trkpt><trkpt lat="46.05393158618205" lon="12.144861815031915"><ele>470.0</ele><time>2026-03-29T12:34:00.002Z</time></trkpt><trkpt lat="46.05384639426549" lon="12.144994811378675"><ele>470.0</ele><time>2026-03-29T12:34:01.002Z</time></trkpt><trkpt lat="46.053734288409736" lon="12.145099866439223"><ele>470.0</ele><time>2026-03-29T12:34:02.002Z</time></trkpt><trkpt lat="46.053613363817405" lon="12.145190078943868"><ele>474.0</ele><time>2026-03-29T12:34:03.002Z</time></trkpt><trkpt lat="46.053514272150345" lon="12.14532935733343"><ele>478.0</ele><time>2026-03-29T12:34:04.002Z</time></trkpt><trkpt lat="46.05343520161741" lon="12.145513225525049"><ele>482.0</ele><time>2026-03-29T12:34:05.002Z</time></trkpt><trkpt lat="46.0533758487555" lon="12.14572271561085"><ele>486.0</ele><time>2026-03-29T12:34:06.002Z</time></trkpt><trkpt lat="46.05333091021492" lon="12.14590551572151"><ele>487.0</ele><time>2026-03-29T12:34:07.002Z</time></trkpt><trkpt lat="46.05327796121178" lon="12.146061817051988"><ele>488.0</ele><time>2026-03-29T12:34:08.002Z</time></trkpt><trkpt lat="46.0532052096" lon="12.146189145458292"><ele>489.0</ele><time>2026-03-29T12:34:09.002Z</time></trkpt><trkpt lat="46.05310953600564" lon="12.146313721313184"><ele>490.0</ele><time>2026-03-29T12:34:10.002Z</time></trkpt><trkpt lat="46.05297621043561" lon="12.146421334508778"><ele>490.0</ele><time>2026-03-29T12:34:11.002Z</time></trkpt><trkpt lat="46.05280645330069" lon="12.146524378451645"><ele>490.0</ele><time>2026-03-29T12:34:12.002Z</time></trkpt><trkpt lat="46.05262494951267" lon="12.146626178312658"><ele>490.0</ele><time>2026-03-29T12:34:13.002Z</time></trkpt><trkpt lat="46.05243717859861" lon="12.146738955531816"><ele>490.0</ele><time>2026-03-29T12:34:14.002Z</time></trkpt><trkpt lat="46.052242922802435" lon="12.146853465389793"><ele>490.0</ele><time>2026-03-29T12:34:15.002Z</time></trkpt><trkpt lat="46.05207292597058" lon="12.14695240652396"><ele>490.0</ele><time>2026-03-29T12:34:16Z</time></trkpt><trkpt lat="46.05191951111514" lon="12.147051565010562"><ele>490.0</ele><time>2026-03-29T12:34:17Z</time></trkpt><trkpt lat="46.05177733690063" lon="12.147157202285793"><ele>490.0</ele><time>2026-03-29T12:34:18Z</time></trkpt><trkpt lat="46.051660346544054" lon="12.147274306714396"><ele>490.0</ele><time>2026-03-29T12:34:19Z</time></trkpt><trkpt lat="46.05156693384552" lon="12.147411204554132"><ele>490.0</ele><time>2026-03-29T12:34:20Z</time></trkpt><trkpt lat="46.05148519284358" lon="12.147599070061784"><ele>491.6666666666667</ele><time>2026-03-29T12:34:21Z</time></trkpt><trkpt lat="46.0514029386342" lon="12.147832340671991"><ele>493.33333333333337</ele><time>2026-03-29T12:34:22Z</time></trkpt><trkpt lat="46.051326971113" lon="12.14806439677095"><ele>495.0</ele><time>2026-03-29T12:34:23Z</time></trkpt><trkpt lat="46.05127477155973" lon="12.14828375701866"><ele>497.0</ele><time>2026-03-29T12:34:24Z</time></trkpt><trkpt lat="46.051234550852165" lon="12.148473599508756"><ele>499.0</ele><time>2026-03-29T12:34:25Z</time></trkpt><trkpt lat="46.05120562850585" lon="12.148618409579761"><ele>501.0</ele><time>2026-03-29T12:34:26Z</time></trkpt><trkpt lat="46.05117869177829" lon="12.148729286530061"><ele>503.0</ele><time>2026-03-29T12:34:27Z</time></trkpt><trkpt lat="46.05112843141777" lon="12.148797097716947"><ele>505.0</ele><time>2026-03-29T12:34:28Z</time></trkpt><trkpt lat="46.05105436084564" lon="12.148828921561131"><ele>505.0</ele><time>2026-03-29T12:34:29Z</time></trkpt><trkpt lat="46.05096240784682" lon="12.14881537069976"><ele>505.0</ele><time>2026-03-29T12:34:30Z</time></trkpt><trkpt lat="46.05087446659997" lon="12.148773363229946"><ele>505.0</ele><time>2026-03-29T12:34:31Z</time></trkpt><trkpt lat="46.05076340984695" lon="12.148736952525223"><ele>505.0</ele><time>2026-03-29T12:34:32Z</time></trkpt><trkpt lat="46.050641166840656" lon="12.148734067518829"><ele>505.0</ele><time>2026-03-29T12:34:33Z</time></trkpt><trkpt lat="46.05051789499027" lon="12.148788612528282"><ele>504.33333333333337</ele><time>2026-03-29T12:34:34Z</time></trkpt><trkpt lat="46.050393686830176" lon="12.14889523097833"><ele>503.66666666666663</ele><time>2026-03-29T12:34:35Z</time></trkpt><trkpt lat="46.050265194547784" lon="12.149049779796956"><ele>503.0</ele><time>2026-03-29T12:34:36Z</time></trkpt><trkpt lat="46.050123915476576" lon="12.149235616050081"><ele>505.3333333333333</ele><time>2026-03-29T12:34:37Z</time></trkpt><trkpt lat="46.04996829210726" lon="12.149431851151473"><ele>507.66666666666663</ele><time>2026-03-29T12:34:38Z</time></trkpt><trkpt lat="46.049824619819205" lon="12.149605827163692"><ele>510.0</ele><time>2026-03-29T12:34:39Z</time></trkpt><trkpt lat="46.04968085274278" lon="12.149778386302435"><ele>513.0</ele><time>2026-03-29T12:34:40Z</time></trkpt><trkpt lat="46.049539757682865" lon="12.149946695030803"><ele>516.0</ele><time>2026-03-29T12:34:41Z</time></trkpt><trkpt lat="46.04941491245332" lon="12.150097428681534"><ele>519.0</ele><time>2026-03-29T12:34:42Z</time></trkpt><trkpt lat="46.04930645048582" lon="12.150239811083434"><ele>519.0</ele><time>2026-03-29T12:34:43.001Z</time></trkpt><trkpt lat="46.04921010353193" lon="12.150393981120692"><ele>519.0</ele><time>2026-03-29T12:34:44.001Z</time></trkpt><trkpt lat="46.049134659535206" lon="12.150567927863923"><ele>519.0</ele><time>2026-03-29T12:34:45.001Z</time></trkpt><trkpt lat="46.049070110100175" lon="12.150787965860056"><ele>521.3333333333334</ele><time>2026-03-29T12:34:46.001Z</time></trkpt><trkpt lat="46.04900188538594" lon="12.151012978618034"><ele>523.6666666666667</ele><time>2026-03-29T12:34:47.001Z</time></trkpt><trkpt lat="46.0489347770111" lon="12.1512224466068"><ele>526.0</ele><time>2026-03-29T12:34:48.001Z</time></trkpt><trkpt lat="46.04887323270592" lon="12.151407852869665"><ele>526.5</ele><time>2026-03-29T12:34:49.001Z</time></trkpt><trkpt lat="46.04882339503841" lon="12.151598555719913"><ele>527.0</ele><time>2026-03-29T12:34:50.001Z</time></trkpt><trkpt lat="46.048783897338346" lon="12.151810675813804"><ele>527.5</ele><time>2026-03-29T12:34:51.001Z</time></trkpt><trkpt lat="46.048761504783755" lon="12.152025204356717"><ele>528.0</ele><time>2026-03-29T12:34:52.001Z</time></trkpt><trkpt lat="46.048757985706125" lon="12.152239844079473"><ele>528.0</ele><time>2026-03-29T12:34:53.001Z</time></trkpt><trkpt lat="46.04877612080339" lon="12.15248075134708"><ele>528.0</ele><time>2026-03-29T12:34:54.001Z</time></trkpt><trkpt lat="46.04881154427982" lon="12.152743873563507"><ele>528.0</ele><time>2026-03-29T12:34:55.001Z</time></trkpt><trkpt lat="46.048860227194005" lon="12.153007773467452"><ele>529.75</ele><time>2026-03-29T12:34:56.001Z</time></trkpt><trkpt lat="46.04890847624887" lon="12.153231466393558"><ele>531.5</ele><time>2026-03-29T12:34:57.001Z</time></trkpt><trkpt lat="46.048945526058446" lon="12.153434056377332"><ele>533.25</ele><time>2026-03-29T12:34:58.001Z</time></trkpt><trkpt lat="46.048961034063474" lon="12.153616464565328"><ele>535.0</ele><time>2026-03-29T12:34:59.001Z</time></trkpt><trkpt lat="46.04894523126904" lon="12.153779088207333"><ele>535.0</ele><time>2026-03-29T12:35:00.001Z</time></trkpt><trkpt lat="46.04889779146752" lon="12.153931026354245"><ele>535.0</ele><time>2026-03-29T12:35:01.001Z</time></trkpt><trkpt lat="46.04881694147784" lon="12.154086850295489"><ele>535.0</ele><time>2026-03-29T12:35:02.001Z</time></trkpt><trkpt lat="46.04871115673307" lon="12.154244902087141"><ele>535.0</ele><time>2026-03-29T12:35:03.001Z</time></trkpt><trkpt lat="46.048583224212976" lon="12.15441340232645"><ele>536.6666666666667</ele><time>2026-03-29T12:35:04.001Z</time></trkpt><trkpt lat="46.048441097236605" lon="12.15458714795384"><ele>538.3333333333334</ele><time>2026-03-29T12:35:05.001Z</time></trkpt><trkpt lat="46.04829393361258" lon="12.154752229526625"><ele>540.0</ele><time>2026-03-29T12:35:06.001Z</time></trkpt><trkpt lat="46.04814497788826" lon="12.15491571168569"><ele>540.3333333333334</ele><time>2026-03-29T12:35:07.001Z</time></trkpt><trkpt lat="46.04799087464462" lon="12.155076331331033"><ele>540.6666666666667</ele><time>2026-03-29T12:35:08.001Z</time></trkpt><trkpt lat="46.04783854991919" lon="12.155219810556401"><ele>541.0</ele><time>2026-03-29T12:35:09.001Z</time></trkpt><trkpt lat="46.04767901015848" lon="12.155327387198172"><ele>541.0</ele><time>2026-03-29T12:35:10.001Z</time></trkpt><trkpt lat="46.04752967649747" lon="12.155419491019877"><ele>541.0</ele><time>2026-03-29T12:35:11.001Z</time></trkpt><trkpt lat="46.047403371940064" lon="12.155523391324532"><ele>541.0</ele><time>2026-03-29T12:35:12.001Z</time></trkpt><trkpt lat="46.04730193266664" lon="12.155644730975814"><ele>541.0</ele><time>2026-03-29T12:35:13.001Z</time></trkpt><trkpt lat="46.047223464913195" lon="12.155779924205039"><ele>541.75</ele><time>2026-03-29T12:35:14.001Z</time></trkpt><trkpt lat="46.04715755692198" lon="12.155929817572943"><ele>542.5</ele><time>2026-03-29T12:35:15.001Z</time></trkpt><trkpt lat="46.04710053642958" lon="12.156106059792902"><ele>543.25</ele><time>2026-03-29T12:35:16.001Z</time></trkpt><trkpt lat="46.047046046698" lon="12.156264405053141"><ele>544.0</ele><time>2026-03-29T12:35:17.001Z</time></trkpt><trkpt lat="46.046979023734224" lon="12.15638210676825"><ele>544.0</ele><time>2026-03-29T12:35:18.001Z</time></trkpt><trkpt lat="46.04689697049449" lon="12.156456072865431"><ele>544.0</ele><time>2026-03-29T12:35:19.001Z</time></trkpt><trkpt lat="46.04680557294608" lon="12.15647879137036"><ele>544.0</ele><time>2026-03-29T12:35:20.001Z</time></trkpt><trkpt lat="46.046710504979075" lon="12.156480267703339"><ele>544.0</ele><time>2026-03-29T12:35:21.001Z</time></trkpt><trkpt lat="46.04662010320822" lon="12.156491994724744"><ele>544.0</ele><time>2026-03-29T12:35:22.001Z</time></trkpt><trkpt lat="46.046538170108455" lon="12.1565269246336"><ele>544.5</ele><time>2026-03-29T12:35:23.001Z</time></trkpt><trkpt lat="46.04647263099583" lon="12.156585555014656"><ele>545.0</ele><time>2026-03-29T12:35:24.001Z</time></trkpt><trkpt lat="46.04642649545503" lon="12.156665596026675"><ele>545.5</ele><time>2026-03-29T12:35:25.001Z</time></trkpt><trkpt lat="46.046391350329216" lon="12.1567593871665"><ele>546.0</ele><time>2026-03-29T12:35:26.001Z</time></trkpt><trkpt lat="46.04636556188922" lon="12.156864761610926"><ele>546.5</ele><time>2026-03-29T12:35:27.001Z</time></trkpt><trkpt lat="46.04633844054097" lon="12.156973441489399"><ele>547.0</ele><time>2026-03-29T12:35:28.001Z</time></trkpt><trkpt lat="46.04630041739252" lon="12.15707402838865"><ele>547.0</ele><time>2026-03-29T12:35:29.001Z</time></trkpt><trkpt lat="46.04623827162988" lon="12.15712730468221"><ele>547.0</ele><time>2026-03-29T12:35:30.001Z</time></trkpt><trkpt lat="46.046170587274375" lon="12.157137165476245"><ele>547.0</ele><time>2026-03-29T12:35:31.001Z</time></trkpt><trkpt lat="46.04609987400502" lon="12.157110625690658"><ele>547.0</ele><time>2026-03-29T12:35:32.001Z</time></trkpt><trkpt lat="46.04603119444406" lon="12.157065451343515"><ele>547.0</ele><time>2026-03-29T12:35:33.001Z</time></trkpt><trkpt lat="46.04596063904118" lon="12.157016373216146"><ele>547.0</ele><time>2026-03-29T12:35:34.001Z</time></trkpt><trkpt lat="46.04588403247175" lon="12.156978633357902"><ele>547.0</ele><time>2026-03-29T12:35:35.001Z</time></trkpt><trkpt lat="46.045802429292124" lon="12.156971907942271"><ele>546.2</ele><time>2026-03-29T12:35:36.001Z</time></trkpt><trkpt lat="46.04571829901169" lon="12.156990569066759"><ele>545.4000000000001</ele><time>2026-03-29T12:35:37.001Z</time></trkpt><trkpt lat="46.04563539431834" lon="12.15704242388993"><ele>544.5999999999999</ele><time>2026-03-29T12:35:38.001Z</time></trkpt><trkpt lat="46.04555221599824" lon="12.15712499389327"><ele>543.8</ele><time>2026-03-29T12:35:39.001Z</time></trkpt><trkpt lat="46.04546846566942" lon="12.15722597974668"><ele>543.0</ele><time>2026-03-29T12:35:40.001Z</time></trkpt><trkpt lat="46.04538255260988" lon="12.1573518422938"><ele>545.75</ele><time>2026-03-29T12:35:41.001Z</time></trkpt><trkpt lat="46.045301769906565" lon="12.157497246591754"><ele>548.5</ele><time>2026-03-29T12:35:42.001Z</time></trkpt><trkpt lat="46.04522560765625" lon="12.157648469062842"><ele>551.25</ele><time>2026-03-29T12:35:43.001Z</time></trkpt><trkpt lat="46.04512541225639" lon="12.157777025630482"><ele>554.0</ele><time>2026-03-29T12:35:44.001Z</time></trkpt><trkpt lat="46.044986103087226" lon="12.157890773735426"><ele>554.0</ele><time>2026-03-29T12:35:45.002Z</time></trkpt><trkpt lat="46.04481735325217" lon="12.158003381832724"><ele>554.0</ele><time>2026-03-29T12:35:46.002Z</time></trkpt><trkpt lat="46.04463241353866" lon="12.158115760374137"><ele>554.0</ele><time>2026-03-29T12:35:47.002Z</time></trkpt><trkpt lat="46.04443435416335" lon="12.158222879845205"><ele>555.0</ele><time>2026-03-29T12:35:48.002Z</time></trkpt><trkpt lat="46.044243927074476" lon="12.158319630107947"><ele>556.0</ele><time>2026-03-29T12:35:49.002Z</time></trkpt><trkpt lat="46.044054575462965" lon="12.15842280224092"><ele>557.0</ele><time>2026-03-29T12:35:50.002Z</time></trkpt><trkpt lat="46.04386774275783" lon="12.158526380271162"><ele>557.0</ele><time>2026-03-29T12:35:51.002Z</time></trkpt><trkpt lat="46.043687862655666" lon="12.158620430879735"><ele>557.0</ele><time>2026-03-29T12:35:52.002Z</time></trkpt><trkpt lat="46.043517735363096" lon="12.158709040300392"><ele>557.0</ele><time>2026-03-29T12:35:53.002Z</time></trkpt><trkpt lat="46.04335667497428" lon="12.158783300617092"><ele>557.0</ele><time>2026-03-29T12:35:54.002Z</time></trkpt><trkpt lat="46.04320096797705" lon="12.158839768981068"><ele>557.0</ele><time>2026-03-29T12:35:55.002Z</time></trkpt><trkpt lat="46.04305399839816" lon="12.15887436119943"><ele>557.0</ele><time>2026-03-29T12:35:56.002Z</time></trkpt><trkpt lat="46.04292704693495" lon="12.1589039394057"><ele>557.0</ele><time>2026-03-29T12:35:57.002Z</time></trkpt><trkpt lat="46.04282209025513" lon="12.158933802618522"><ele>557.0</ele><time>2026-03-29T12:35:58.002Z</time></trkpt><trkpt lat="46.04272820325369" lon="12.158964438666743"><ele>557.0</ele><time>2026-03-29T12:35:59.002Z</time></trkpt><trkpt lat="46.042637789403706" lon="12.1589938100792"><ele>557.0</ele><time>2026-03-29T12:36:00.002Z</time></trkpt><trkpt lat="46.04254779271641" lon="12.159019422521009"><ele>557.0</ele><time>2026-03-29T12:36:01.002Z</time></trkpt><trkpt lat="46.04245659642485" lon="12.159048083395383"><ele>557.0</ele><time>2026-03-29T12:36:02.002Z</time></trkpt><trkpt lat="46.04235292846323" lon="12.159084997516644"><ele>558.0</ele><time>2026-03-29T12:36:03.002Z</time></trkpt><trkpt lat="46.04222634695834" lon="12.159145561196638"><ele>559.0</ele><time>2026-03-29T12:36:04.002Z</time></trkpt><trkpt lat="46.04207716621548" lon="12.159215983447343"><ele>560.0</ele><time>2026-03-29T12:36:05.002Z</time></trkpt><trkpt lat="46.041908912787704" lon="12.15930786040692"><ele>560.0</ele><time>2026-03-29T12:36:06.002Z</time></trkpt><trkpt lat="46.0417377951419" lon="12.159411487737868"><ele>560.0</ele><time>2026-03-29T12:36:07.002Z</time></trkpt><trkpt lat="46.04158727917248" lon="12.159501580728085"><ele>560.0</ele><time>2026-03-29T12:36:08.002Z</time></trkpt><trkpt lat="46.04144873262579" lon="12.159585416088078"><ele>560.0</ele><time>2026-03-29T12:36:09.002Z</time></trkpt><trkpt lat="46.04131909012749" lon="12.159666318038502"><ele>560.0</ele><time>2026-03-29T12:36:10.002Z</time></trkpt><trkpt lat="46.04119845921455" lon="12.159740596574924"><ele>560.0</ele><time>2026-03-29T12:36:11.002Z</time></trkpt><trkpt lat="46.04108097427278" lon="12.159808602642949"><ele>560.0</ele><time>2026-03-29T12:36:12.002Z</time></trkpt><trkpt lat="46.040954627923135" lon="12.15988376775528"><ele>561.0</ele><time>2026-03-29T12:36:13.002Z</time></trkpt><trkpt lat="46.040830725537184" lon="12.159969163287462"><ele>562.0</ele><time>2026-03-29T12:36:14.002Z</time></trkpt><trkpt lat="46.04071772164764" lon="12.160058199873301"><ele>563.0</ele><time>2026-03-29T12:36:15.002Z</time></trkpt><trkpt lat="46.040604720787776" lon="12.160148430193757"><ele>564.0</ele><time>2026-03-29T12:36:16.002Z</time></trkpt><trkpt lat="46.04050225356879" lon="12.160234773961093"><ele>564.0</ele><time>2026-03-29T12:36:17.002Z</time></trkpt><trkpt lat="46.04040926889141" lon="12.16032076729745"><ele>564.0</ele><time>2026-03-29T12:36:18.002Z</time></trkpt><trkpt lat="46.040323091234804" lon="12.160405216774171"><ele>564.0</ele><time>2026-03-29T12:36:19.002Z</time></trkpt><trkpt lat="46.04024181861913" lon="12.160486589430626"><ele>564.0</ele><time>2026-03-29T12:36:20.002Z</time></trkpt><trkpt lat="46.04016164669535" lon="12.160560658341193"><ele>564.0</ele><time>2026-03-29T12:36:21.002Z</time></trkpt><trkpt lat="46.04008194372895" lon="12.160634645786404"><ele>564.4</ele><time>2026-03-29T12:36:22.001Z</time></trkpt><trkpt lat="46.03999774176062" lon="12.160722333149772"><ele>564.8</ele><time>2026-03-29T12:36:23.001Z</time></trkpt><trkpt lat="46.03990921002331" lon="12.160813347066549"><ele>565.2</ele><time>2026-03-29T12:36:24.001Z</time></trkpt><trkpt lat="46.039817787741505" lon="12.160910136939092"><ele>565.6</ele><time>2026-03-29T12:36:25.001Z</time></trkpt><trkpt lat="46.039733840828596" lon="12.160997765632494"><ele>566.0</ele><time>2026-03-29T12:36:26.001Z</time></trkpt><trkpt lat="46.03965296834087" lon="12.161082071344007"><ele>566.0</ele><time>2026-03-29T12:36:27.001Z</time></trkpt><trkpt lat="46.039569572107354" lon="12.161167776123992"><ele>566.0</ele><time>2026-03-29T12:36:28.001Z</time></trkpt><trkpt lat="46.03948470685775" lon="12.161256936119166"><ele>566.0</ele><time>2026-03-29T12:36:29.001Z</time></trkpt><trkpt lat="46.03940348984096" lon="12.161346373057984"><ele>566.0</ele><time>2026-03-29T12:36:30.001Z</time></trkpt><trkpt lat="46.03931971147958" lon="12.16143219361727"><ele>566.0</ele><time>2026-03-29T12:36:31.001Z</time></trkpt><trkpt lat="46.039234172804335" lon="12.161523961902724"><ele>566.3333333333333</ele><time>2026-03-29T12:36:32.001Z</time></trkpt><trkpt lat="46.039154856804466" lon="12.161607956012121"><ele>566.6666666666666</ele><time>2026-03-29T12:36:33.001Z</time></trkpt><trkpt lat="46.039086262954" lon="12.161683997452007"><ele>567.0</ele><time>2026-03-29T12:36:34Z</time></trkpt><trkpt lat="46.039024672104034" lon="12.161752585220768"><ele>567.3333333333334</ele><time>2026-03-29T12:36:35Z</time></trkpt><trkpt lat="46.03896901206526" lon="12.161816496451191"><ele>567.6666666666667</ele><time>2026-03-29T12:36:36Z</time></trkpt><trkpt lat="46.03892198854134" lon="12.161878052642342"><ele>568.0</ele><time>2026-03-29T12:36:37Z</time></trkpt><trkpt lat="46.03884503671476" lon="12.161991388186058"><ele>567.0</ele><time>2026-03-29T12:36:39.001Z</time></trkpt><trkpt lat="46.03877234904853" lon="12.16209806509502"><ele>566.0</ele><time>2026-03-29T12:36:41.001Z</time></trkpt><trkpt lat="46.038725885069525" lon="12.162165655878555"><ele>565.0</ele><time>2026-03-29T12:36:42.001Z</time></trkpt><trkpt lat="46.03867129755593" lon="12.16223846850348"><ele>564.0</ele><time>2026-03-29T12:36:43.001Z</time></trkpt><trkpt lat="46.03860408094559" lon="12.162310267672382"><ele>563.0</ele><time>2026-03-29T12:36:44.001Z</time></trkpt><trkpt lat="46.03853490276421" lon="12.162385592131468"><ele>562.0</ele><time>2026-03-29T12:36:45.001Z</time></trkpt><trkpt lat="46.03847115096794" lon="12.162459479704403"><ele>562.0000000000001</ele><time>2026-03-29T12:36:46.001Z</time></trkpt><trkpt lat="46.038411996089366" lon="12.1625342982084"><ele>562.0</ele><time>2026-03-29T12:36:47.001Z</time></trkpt><trkpt lat="46.03836156464713" lon="12.162617530747474"><ele>562.0</ele><time>2026-03-29T12:36:48.001Z</time></trkpt><trkpt lat="46.03832553161856" lon="12.162702413918256"><ele>562.0</ele><time>2026-03-29T12:36:49.001Z</time></trkpt><trkpt lat="46.038302057005716" lon="12.16279163079325"><ele>562.0</ele><time>2026-03-29T12:36:50.001Z</time></trkpt><trkpt lat="46.038294741289626" lon="12.162892908694937"><ele>562.0000000000001</ele><time>2026-03-29T12:36:51.001Z</time></trkpt><trkpt lat="46.03831250399197" lon="12.163008182340574"><ele>562.0</ele><time>2026-03-29T12:36:52.001Z</time></trkpt><trkpt lat="46.03835817751675" lon="12.163127376741082"><ele>560.5</ele><time>2026-03-29T12:36:53.001Z</time></trkpt><trkpt lat="46.03842487123032" lon="12.163256393667154"><ele>559.0</ele><time>2026-03-29T12:36:54.001Z</time></trkpt><trkpt lat="46.03849762446296" lon="12.16338721732266"><ele>557.5</ele><time>2026-03-29T12:36:55.001Z</time></trkpt><trkpt lat="46.03856598755006" lon="12.163518680445668"><ele>556.0</ele><time>2026-03-29T12:36:56.001Z</time></trkpt><trkpt lat="46.038634571588624" lon="12.163646523815027"><ele>556.0</ele><time>2026-03-29T12:36:57.001Z</time></trkpt><trkpt lat="46.03870966153296" lon="12.16378656727679"><ele>556.0</ele><time>2026-03-29T12:36:58.001Z</time></trkpt><trkpt lat="46.038787833400306" lon="12.163935780656812"><ele>556.0</ele><time>2026-03-29T12:36:59.001Z</time></trkpt><trkpt lat="46.038863821561776" lon="12.164077719878684"><ele>556.0</ele><time>2026-03-29T12:37:00.001Z</time></trkpt><trkpt lat="46.03893640028178" lon="12.164219706454666"><ele>553.2</ele><time>2026-03-29T12:37:01.001Z</time></trkpt><trkpt lat="46.03900066743276" lon="12.164355912816143"><ele>550.4000000000001</ele><time>2026-03-29T12:37:02.001Z</time></trkpt><trkpt lat="46.03904606564515" lon="12.164496123141733"><ele>547.6</ele><time>2026-03-29T12:37:03.001Z</time></trkpt><trkpt lat="46.03905911110286" lon="12.164644016585996"><ele>544.8000000000001</ele><time>2026-03-29T12:37:04.001Z</time></trkpt><trkpt lat="46.03904167734013" lon="12.164793694586194"><ele>542.0</ele><time>2026-03-29T12:37:05.001Z</time></trkpt><trkpt lat="46.03899802322923" lon="12.164934248571644"><ele>540.25</ele><time>2026-03-29T12:37:06.001Z</time></trkpt><trkpt lat="46.03893365986465" lon="12.165083059049781"><ele>538.5</ele><time>2026-03-29T12:37:07.001Z</time></trkpt><trkpt lat="46.03886754949473" lon="12.165238105033813"><ele>536.75</ele><time>2026-03-29T12:37:08.001Z</time></trkpt><trkpt lat="46.03880420150348" lon="12.165380090639902"><ele>535.0</ele><time>2026-03-29T12:37:09.001Z</time></trkpt><trkpt lat="46.03874486883417" lon="12.1655179305733"><ele>535.0</ele><time>2026-03-29T12:37:10.001Z</time></trkpt><trkpt lat="46.03869366209446" lon="12.165650511844945"><ele>535.0</ele><time>2026-03-29T12:37:11.001Z</time></trkpt><trkpt lat="46.03865180799493" lon="12.165784486310788"><ele>535.0</ele><time>2026-03-29T12:37:12.001Z</time></trkpt><trkpt lat="46.03863263598226" lon="12.165897884400142"><ele>535.0</ele><time>2026-03-29T12:37:13.001Z</time></trkpt><trkpt lat="46.03863875727288" lon="12.166035132875393"><ele>535.0</ele><time>2026-03-29T12:37:15.001Z</time></trkpt><trkpt lat="46.038645152278114" lon="12.166128426922064"><ele>535.0</ele><time>2026-03-29T12:37:17.001Z</time></trkpt><trkpt lat="46.038567644709474" lon="12.166174560466475"><ele>535.0</ele><time>2026-03-29T12:37:19.001Z</time></trkpt><trkpt lat="46.038485665245695" lon="12.166056666646798"><ele>535.0</ele><time>2026-03-29T12:37:21.001Z</time></trkpt><trkpt lat="46.03849395080771" lon="12.165957730041209"><ele>535.0</ele><time>2026-03-29T12:37:22.001Z</time></trkpt><trkpt lat="46.03853218974063" lon="12.165846653747764"><ele>535.0</ele><time>2026-03-29T12:37:23.001Z</time></trkpt><trkpt lat="46.03857712353495" lon="12.165721718947202"><ele>535.0</ele><time>2026-03-29T12:37:24.001Z</time></trkpt><trkpt lat="46.03862559422582" lon="12.165585896993617"><ele>535.0</ele><time>2026-03-29T12:37:25.001Z</time></trkpt><trkpt lat="46.0386689736861" lon="12.165446258639408"><ele>535.0</ele><time>2026-03-29T12:37:26.001Z</time></trkpt><trkpt lat="46.03869420249658" lon="12.16531936601652"><ele>535.0</ele><time>2026-03-29T12:37:27.001Z</time></trkpt><trkpt lat="46.0387108932332" lon="12.16519506067278"><ele>535.0</ele><time>2026-03-29T12:37:28.001Z</time></trkpt><trkpt lat="46.0387105333084" lon="12.165074859132162"><ele>535.0</ele><time>2026-03-29T12:37:29.001Z</time></trkpt><trkpt lat="46.03869773329711" lon="12.16496027763237"><ele>536.1666666666667</ele><time>2026-03-29T12:37:30.001Z</time></trkpt><trkpt lat="46.0386792366787" lon="12.164850395720293"><ele>537.3333333333334</ele><time>2026-03-29T12:37:31.001Z</time></trkpt><trkpt lat="46.03865572958825" lon="12.164745018813965"><ele>538.5</ele><time>2026-03-29T12:37:32.001Z</time></trkpt><trkpt lat="46.03863087230915" lon="12.164631523854396"><ele>539.6666666666666</ele><time>2026-03-29T12:37:33.001Z</time></trkpt><trkpt lat="46.0386055393062" lon="12.164501105411613"><ele>540.8333333333333</ele><time>2026-03-29T12:37:34.001Z</time></trkpt><trkpt lat="46.03857678644747" lon="12.164379591174544"><ele>542.0</ele><time>2026-03-29T12:37:35.001Z</time></trkpt><trkpt lat="46.038539178836764" lon="12.164272530259659"><ele>542.0</ele><time>2026-03-29T12:37:36.001Z</time></trkpt><trkpt lat="46.03848553853199" lon="12.164178362579639"><ele>542.0</ele><time>2026-03-29T12:37:37.001Z</time></trkpt><trkpt lat="46.038409351601906" lon="12.164094179952793"><ele>542.0</ele><time>2026-03-29T12:37:38.001Z</time></trkpt><trkpt lat="46.03832888566467" lon="12.164007925924155"><ele>542.0</ele><time>2026-03-29T12:37:39.001Z</time></trkpt><trkpt lat="46.038252507548435" lon="12.163925796603511"><ele>542.0</ele><time>2026-03-29T12:37:40.001Z</time></trkpt><trkpt lat="46.03818313215681" lon="12.163840077914967"><ele>537.8000000000001</ele><time>2026-03-29T12:37:41.001Z</time></trkpt><trkpt lat="46.038123587535715" lon="12.163752988588417"><ele>533.6</ele><time>2026-03-29T12:37:42.001Z</time></trkpt><trkpt lat="46.0380755926713" lon="12.163684773772275"><ele>529.4000000000001</ele><time>2026-03-29T12:37:43.001Z</time></trkpt><trkpt lat="46.03798799153395" lon="12.163612330535305"><ele>525.2</ele><time>2026-03-29T12:37:45.001Z</time></trkpt><trkpt lat="46.03790733051825" lon="12.16369378902076"><ele>521.0</ele><time>2026-03-29T12:37:47.001Z</time></trkpt><trkpt lat="46.037920689954646" lon="12.163845496651476"><ele>521.0</ele><time>2026-03-29T12:37:49.001Z</time></trkpt><trkpt lat="46.03802220968651" lon="12.1639662309569"><ele>521.0</ele><time>2026-03-29T12:37:51.001Z</time></trkpt><trkpt lat="46.03807248215051" lon="12.164035899181666"><ele>521.0</ele><time>2026-03-29T12:37:52.002Z</time></trkpt><trkpt lat="46.03815647498021" lon="12.164169847926736"><ele>521.0</ele><time>2026-03-29T12:37:54.002Z</time></trkpt><trkpt lat="46.03819610051962" lon="12.164251302806333"><ele>521.0</ele><time>2026-03-29T12:37:55.002Z</time></trkpt><trkpt lat="46.038213510049324" lon="12.164357880970206"><ele>519.2</ele><time>2026-03-29T12:37:56.002Z</time></trkpt><trkpt lat="46.038208839350176" lon="12.164477088332038"><ele>517.4000000000001</ele><time>2026-03-29T12:37:57.002Z</time></trkpt><trkpt lat="46.03819893084584" lon="12.16461339368842"><ele>515.6</ele><time>2026-03-29T12:37:58.002Z</time></trkpt><trkpt lat="46.038185988215126" lon="12.164769642268991"><ele>513.8000000000001</ele><time>2026-03-29T12:37:59.002Z</time></trkpt><trkpt lat="46.03816908734865" lon="12.164932981019822"><ele>512.0</ele><time>2026-03-29T12:38:00.002Z</time></trkpt><trkpt lat="46.038155859677154" lon="12.16508309648845"><ele>512.4</ele><time>2026-03-29T12:38:01.002Z</time></trkpt><trkpt lat="46.0381430482003" lon="12.165224720877367"><ele>512.8000000000001</ele><time>2026-03-29T12:38:02.002Z</time></trkpt><trkpt lat="46.03812213642496" lon="12.165376616116038"><ele>513.2</ele><time>2026-03-29T12:38:03.002Z</time></trkpt><trkpt lat="46.03808866656167" lon="12.165531654290486"><ele>513.6</ele><time>2026-03-29T12:38:04.002Z</time></trkpt><trkpt lat="46.03804924464285" lon="12.165668187965567"><ele>514.0</ele><time>2026-03-29T12:38:05.002Z</time></trkpt><trkpt lat="46.03800398551586" lon="12.165789841068218"><ele>514.0</ele><time>2026-03-29T12:38:06.002Z</time></trkpt><trkpt lat="46.037951100520615" lon="12.165900051377543"><ele>514.0</ele><time>2026-03-29T12:38:07.002Z</time></trkpt><trkpt lat="46.03789037293953" lon="12.165999044125563"><ele>514.0</ele><time>2026-03-29T12:38:08.002Z</time></trkpt><trkpt lat="46.03782132749332" lon="12.166098324300778"><ele>514.0</ele><time>2026-03-29T12:38:09.002Z</time></trkpt><trkpt lat="46.03774740641173" lon="12.166204231240325"><ele>514.0</ele><time>2026-03-29T12:38:10.002Z</time></trkpt><trkpt lat="46.03767721296773" lon="12.166305888621139"><ele>514.0</ele><time>2026-03-29T12:38:11.002Z</time></trkpt><trkpt lat="46.037597378469606" lon="12.166412595341367"><ele>514.0</ele><time>2026-03-29T12:38:12.002Z</time></trkpt><trkpt lat="46.03750811018038" lon="12.166534757409423"><ele>514.0</ele><time>2026-03-29T12:38:13.002Z</time></trkpt><trkpt lat="46.037414125582444" lon="12.166669328144412"><ele>514.0</ele><time>2026-03-29T12:38:14.002Z</time></trkpt><trkpt lat="46.03731327734289" lon="12.166813716371307"><ele>513.75</ele><time>2026-03-29T12:38:15.002Z</time></trkpt><trkpt lat="46.03720792132044" lon="12.16696566042191"><ele>513.5</ele><time>2026-03-29T12:38:16.002Z</time></trkpt><trkpt lat="46.03710576350183" lon="12.167120824286991"><ele>513.25</ele><time>2026-03-29T12:38:17.002Z</time></trkpt><trkpt lat="46.03701448693568" lon="12.167270941600487"><ele>513.0</ele><time>2026-03-29T12:38:18.002Z</time></trkpt><trkpt lat="46.03693362668873" lon="12.167418358323728"><ele>513.0</ele><time>2026-03-29T12:38:19.002Z</time></trkpt><trkpt lat="46.03686179168989" lon="12.167530980476586"><ele>513.0</ele><time>2026-03-29T12:38:20.002Z</time></trkpt><trkpt lat="46.03678999096083" lon="12.16760911082489"><ele>513.0</ele><time>2026-03-29T12:38:21.002Z</time></trkpt><trkpt lat="46.0367233373136" lon="12.167657426294305"><ele>513.0</ele><time>2026-03-29T12:38:22.002Z</time></trkpt><trkpt lat="46.03665763234139" lon="12.167669343066779"><ele>513.0</ele><time>2026-03-29T12:38:23.002Z</time></trkpt><trkpt lat="46.03658180065671" lon="12.167649821010663"><ele>513.0</ele><time>2026-03-29T12:38:24.002Z</time></trkpt><trkpt lat="46.03649316658276" lon="12.167591181048953"><ele>513.75</ele><time>2026-03-29T12:38:25.002Z</time></trkpt><trkpt lat="46.03639124076889" lon="12.16749750774484"><ele>514.5</ele><time>2026-03-29T12:38:26.002Z</time></trkpt><trkpt lat="46.03626754209338" lon="12.167367639469216"><ele>515.25</ele><time>2026-03-29T12:38:27.002Z</time></trkpt><trkpt lat="46.0361381379672" lon="12.167226404538573"><ele>516.0</ele><time>2026-03-29T12:38:28.001Z</time></trkpt><trkpt lat="46.03603751012942" lon="12.167108091674924"><ele>518.0</ele><time>2026-03-29T12:38:29.001Z</time></trkpt><trkpt lat="46.03593664382385" lon="12.167012486727627"><ele>520.0</ele><time>2026-03-29T12:38:30.001Z</time></trkpt><trkpt lat="46.03584651316458" lon="12.166943530802062"><ele>522.0</ele><time>2026-03-29T12:38:31.001Z</time></trkpt><trkpt lat="46.03576584803849" lon="12.16691350906048"><ele>524.0</ele><time>2026-03-29T12:38:32.001Z</time></trkpt><trkpt lat="46.03569340027318" lon="12.166929384589045"><ele>526.0</ele><time>2026-03-29T12:38:33.001Z</time></trkpt><trkpt lat="46.03562148916064" lon="12.166997106177371"><ele>532.8</ele><time>2026-03-29T12:38:34.001Z</time></trkpt><trkpt lat="46.035547848457576" lon="12.167096694895656"><ele>539.6</ele><time>2026-03-29T12:38:35.001Z</time></trkpt><trkpt lat="46.03548242532095" lon="12.16718958835138"><ele>546.4</ele><time>2026-03-29T12:38:36.001Z</time></trkpt><trkpt lat="46.03542447694343" lon="12.167265723487084"><ele>553.2</ele><time>2026-03-29T12:38:37.001Z</time></trkpt><trkpt lat="46.035370156746865" lon="12.167335540120588"><ele>560.0</ele><time>2026-03-29T12:38:38Z</time></trkpt><trkpt lat="46.03529959197767" lon="12.167452849461034"><ele>560.0</ele><time>2026-03-29T12:38:40Z</time></trkpt><trkpt lat="46.03523376574292" lon="12.167501761551847"><ele>560.0</ele><time>2026-03-29T12:38:42Z</time></trkpt><trkpt lat="46.035200617814795" lon="12.167363284046216"><ele>560.0</ele><time>2026-03-29T12:38:44Z</time></trkpt><trkpt lat="46.0352397948662" lon="12.167279792972886"><ele>560.0</ele><time>2026-03-29T12:38:45Z</time></trkpt><trkpt lat="46.03531498579079" lon="12.167194368969495"><ele>560.0</ele><time>2026-03-29T12:38:46Z</time></trkpt><trkpt lat="46.03536653674001" lon="12.167080977939408"><ele>560.0</ele><time>2026-03-29T12:38:47Z</time></trkpt><trkpt lat="46.035439702823865" lon="12.166917684429535"><ele>561.25</ele><time>2026-03-29T12:38:48Z</time></trkpt><trkpt lat="46.035554431845455" lon="12.166730703841395"><ele>562.5</ele><time>2026-03-29T12:38:49Z</time></trkpt><trkpt lat="46.035659816235075" lon="12.16657531774052"><ele>563.75</ele><time>2026-03-29T12:38:50Z</time></trkpt><trkpt lat="46.03573632360726" lon="12.166435722485819"><ele>565.0</ele><time>2026-03-29T12:38:51Z</time></trkpt><trkpt lat="46.035787455158435" lon="12.166286648425865"><ele>566.75</ele><time>2026-03-29T12:38:52Z</time></trkpt><trkpt lat="46.03581844946737" lon="12.166121306438436"><ele>568.5</ele><time>2026-03-29T12:38:53Z</time></trkpt><trkpt lat="46.03580815183078" lon="12.16594813025819"><ele>570.25</ele><time>2026-03-29T12:38:54Z</time></trkpt><trkpt lat="46.035774497366695" lon="12.165772041370955"><ele>572.0</ele><time>2026-03-29T12:38:55Z</time></trkpt><trkpt lat="46.0357389039639" lon="12.165578232477245"><ele>572.0</ele><time>2026-03-29T12:38:56Z</time></trkpt><trkpt lat="46.03573034386468" lon="12.165379621014562"><ele>572.0</ele><time>2026-03-29T12:38:57Z</time></trkpt><trkpt lat="46.0357667139792" lon="12.165181344006308"><ele>572.0</ele><time>2026-03-29T12:38:58Z</time></trkpt><trkpt lat="46.03583075150154" lon="12.164993920713933"><ele>572.0</ele><time>2026-03-29T12:38:59Z</time></trkpt><trkpt lat="46.03588896017511" lon="12.164844903468662"><ele>571.5</ele><time>2026-03-29T12:39:00.001Z</time></trkpt><trkpt lat="46.03592449488973" lon="12.164691148403053"><ele>571.0</ele><time>2026-03-29T12:39:01.001Z</time></trkpt><trkpt lat="46.03590314963919" lon="12.164540876299863"><ele>570.5</ele><time>2026-03-29T12:39:02.001Z</time></trkpt><trkpt lat="46.03584456951257" lon="12.16437818723559"><ele>570.0</ele><time>2026-03-29T12:39:03.001Z</time></trkpt><trkpt lat="46.03575986507695" lon="12.164215583140765"><ele>567.6666666666666</ele><time>2026-03-29T12:39:04.001Z</time></trkpt><trkpt lat="46.035659860816715" lon="12.164000458756306"><ele>565.3333333333333</ele><time>2026-03-29T12:39:05.001Z</time></trkpt><trkpt lat="46.0355451175473" lon="12.163748050055128"><ele>563.0</ele><time>2026-03-29T12:39:06.001Z</time></trkpt><trkpt lat="46.035440392961156" lon="12.16350410161356"><ele>563.0</ele><time>2026-03-29T12:39:07.001Z</time></trkpt><trkpt lat="46.03535012042658" lon="12.163315415872932"><ele>563.0</ele><time>2026-03-29T12:39:08.001Z</time></trkpt><trkpt lat="46.03528376200489" lon="12.163150973127335"><ele>563.0</ele><time>2026-03-29T12:39:09.001Z</time></trkpt><trkpt lat="46.035273405391585" lon="12.162995355000493"><ele>563.0</ele><time>2026-03-29T12:39:10.001Z</time></trkpt><trkpt lat="46.03527161753895" lon="12.1628144469562"><ele>561.6</ele><time>2026-03-29T12:39:11.001Z</time></trkpt><trkpt lat="46.035301412966334" lon="12.16262315175879"><ele>560.1999999999999</ele><time>2026-03-29T12:39:12.001Z</time></trkpt><trkpt lat="46.03530789548794" lon="12.16247029862415"><ele>558.8</ele><time>2026-03-29T12:39:13.001Z</time></trkpt><trkpt lat="46.03528031213319" lon="12.162337918281096"><ele>557.4</ele><time>2026-03-29T12:39:14.001Z</time></trkpt><trkpt lat="46.035221910958796" lon="12.16222354414045"><ele>556.0</ele><time>2026-03-29T12:39:15.001Z</time></trkpt><trkpt lat="46.03514965643707" lon="12.162140521879738"><ele>551.25</ele><time>2026-03-29T12:39:16.001Z</time></trkpt><trkpt lat="46.035044915225335" lon="12.162084810070276"><ele>546.5</ele><time>2026-03-29T12:39:17.001Z</time></trkpt><trkpt lat="46.034893996402886" lon="12.162035611261297"><ele>541.75</ele><time>2026-03-29T12:39:18.001Z</time></trkpt><trkpt lat="46.03477089787257" lon="12.161993878919441"><ele>537.0</ele><time>2026-03-29T12:39:19.001Z</time></trkpt><trkpt lat="46.034673788046334" lon="12.161967952833407"><ele>536.6666666666666</ele><time>2026-03-29T12:39:20.001Z</time></trkpt><trkpt lat="46.034597080701836" lon="12.161958503166604"><ele>536.3333333333334</ele><time>2026-03-29T12:39:21.001Z</time></trkpt><trkpt lat="46.03453677213758" lon="12.162001374605303"><ele>536.0</ele><time>2026-03-29T12:39:22.001Z</time></trkpt><trkpt lat="46.03449187338336" lon="12.162091711090223"><ele>535.6666666666667</ele><time>2026-03-29T12:39:23.001Z</time></trkpt><trkpt lat="46.03446870555688" lon="12.162236911724092"><ele>535.3333333333334</ele><time>2026-03-29T12:39:24.001Z</time></trkpt><trkpt lat="46.03445551101833" lon="12.162412958478184"><ele>535.0</ele><time>2026-03-29T12:39:25.001Z</time></trkpt><trkpt lat="46.034411828124725" lon="12.162589713020576"><ele>536.75</ele><time>2026-03-29T12:39:26.001Z</time></trkpt><trkpt lat="46.034338766735814" lon="12.16272602285096"><ele>538.5</ele><time>2026-03-29T12:39:27.001Z</time></trkpt><trkpt lat="46.03425083500697" lon="12.162816225693776"><ele>540.25</ele><time>2026-03-29T12:39:28.001Z</time></trkpt><trkpt lat="46.03414729637632" lon="12.162866425519752"><ele>542.0</ele><time>2026-03-29T12:39:29.001Z</time></trkpt><trkpt lat="46.034021237950576" lon="12.162896902918664"><ele>542.0</ele><time>2026-03-29T12:39:30.001Z</time></trkpt><trkpt lat="46.03389481928278" lon="12.16295782776146"><ele>542.0</ele><time>2026-03-29T12:39:31.001Z</time></trkpt><trkpt lat="46.03377957366827" lon="12.163062433418842"><ele>542.0</ele><time>2026-03-29T12:39:32.001Z</time></trkpt><trkpt lat="46.03368075239596" lon="12.16321413506832"><ele>542.0</ele><time>2026-03-29T12:39:33.001Z</time></trkpt><trkpt lat="46.03359142739142" lon="12.163358871000876"><ele>544.3333333333333</ele><time>2026-03-29T12:39:34.001Z</time></trkpt><trkpt lat="46.033513033301574" lon="12.163473089409251"><ele>546.6666666666666</ele><time>2026-03-29T12:39:35.001Z</time></trkpt><trkpt lat="46.033444499223165" lon="12.1635605394462"><ele>549.0</ele><time>2026-03-29T12:39:36.001Z</time></trkpt><trkpt lat="46.03337301782281" lon="12.163602788018487"><ele>551.3333333333334</ele><time>2026-03-29T12:39:37.001Z</time></trkpt><trkpt lat="46.033298658518035" lon="12.163601151237042"><ele>553.6666666666667</ele><time>2026-03-29T12:39:38.001Z</time></trkpt><trkpt lat="46.03322097548814" lon="12.163543295128248"><ele>556.0</ele><time>2026-03-29T12:39:39.001Z</time></trkpt><trkpt lat="46.033130906295156" lon="12.163449805445607"><ele>558.0</ele><time>2026-03-29T12:39:40.001Z</time></trkpt><trkpt lat="46.03303960076933" lon="12.163352028854293"><ele>560.0</ele><time>2026-03-29T12:39:41.001Z</time></trkpt><trkpt lat="46.032937022668904" lon="12.16328423727235"><ele>562.0</ele><time>2026-03-29T12:39:42.001Z</time></trkpt><trkpt lat="46.03281282303883" lon="12.163280145495253"><ele>564.0</ele><time>2026-03-29T12:39:43.001Z</time></trkpt><trkpt lat="46.032668038164374" lon="12.163328397680509"><ele>564.0</ele><time>2026-03-29T12:39:44.001Z</time></trkpt><trkpt lat="46.03250106580437" lon="12.16341753932605"><ele>564.0</ele><time>2026-03-29T12:39:45.001Z</time></trkpt><trkpt lat="46.032308993120154" lon="12.163495113745535"><ele>564.0</ele><time>2026-03-29T12:39:46.001Z</time></trkpt><trkpt lat="46.0321063396916" lon="12.163540284797135"><ele>564.6666666666666</ele><time>2026-03-29T12:39:47.001Z</time></trkpt><trkpt lat="46.031915824453364" lon="12.163563237906635"><ele>565.3333333333333</ele><time>2026-03-29T12:39:48.001Z</time></trkpt><trkpt lat="46.03172520173527" lon="12.163576314548465"><ele>566.0</ele><time>2026-03-29T12:39:49.001Z</time></trkpt><trkpt lat="46.031510469460095" lon="12.16357885039238"><ele>567.0</ele><time>2026-03-29T12:39:50.001Z</time></trkpt><trkpt lat="46.03127733625822" lon="12.163559241458238"><ele>568.0</ele><time>2026-03-29T12:39:51.001Z</time></trkpt><trkpt lat="46.0310259861592" lon="12.163523704954503"><ele>569.5</ele><time>2026-03-29T12:39:52.001Z</time></trkpt><trkpt lat="46.0307860591445" lon="12.163480034881484"><ele>571.0</ele><time>2026-03-29T12:39:53.001Z</time></trkpt><trkpt lat="46.030570576223354" lon="12.163435834922709"><ele>571.0</ele><time>2026-03-29T12:39:54.001Z</time></trkpt><trkpt lat="46.03030682993376" lon="12.163389982161474"><ele>571.0</ele><time>2026-03-29T12:39:55.001Z</time></trkpt><trkpt lat="46.030076548124434" lon="12.163360134871436"><ele>572.6666666666667</ele><time>2026-03-29T12:39:56.001Z</time></trkpt><trkpt lat="46.02985282284608" lon="12.163359814912305"><ele>574.3333333333334</ele><time>2026-03-29T12:39:57.001Z</time></trkpt><trkpt lat="46.029645519380246" lon="12.163358259712028"><ele>576.0</ele><time>2026-03-29T12:39:58.001Z</time></trkpt><trkpt lat="46.029442742010914" lon="12.163335693761141"><ele>576.0</ele><time>2026-03-29T12:39:59.001Z</time></trkpt><trkpt lat="46.029240321846345" lon="12.16328071112387"><ele>576.0</ele><time>2026-03-29T12:40:00.001Z</time></trkpt><trkpt lat="46.02903713762588" lon="12.163177874484557"><ele>576.0</ele><time>2026-03-29T12:40:01.001Z</time></trkpt><trkpt lat="46.02885165273358" lon="12.16305456218083"><ele>576.0</ele><time>2026-03-29T12:40:02.001Z</time></trkpt><trkpt lat="46.0286930924113" lon="12.162929169816547"><ele>576.0</ele><time>2026-03-29T12:40:03.001Z</time></trkpt><trkpt lat="46.02854529976107" lon="12.162831015626383"><ele>576.0</ele><time>2026-03-29T12:40:04.001Z</time></trkpt><trkpt lat="46.02838037396443" lon="12.162768408333879"><ele>579.6666666666666</ele><time>2026-03-29T12:40:05.001Z</time></trkpt><trkpt lat="46.0281854095788" lon="12.162748536937027"><ele>583.3333333333333</ele><time>2026-03-29T12:40:06.001Z</time></trkpt><trkpt lat="46.02797752662157" lon="12.162718590931444"><ele>587.0</ele><time>2026-03-29T12:40:07.001Z</time></trkpt><trkpt lat="46.027801375744595" lon="12.162684593665185"><ele>587.0</ele><time>2026-03-29T12:40:08.001Z</time></trkpt><trkpt lat="46.02763918522783" lon="12.162671532666808"><ele>587.0</ele><time>2026-03-29T12:40:09.001Z</time></trkpt><trkpt lat="46.02746004047827" lon="12.16268027017694"><ele>587.0</ele><time>2026-03-29T12:40:10.001Z</time></trkpt><trkpt lat="46.02725313865108" lon="12.162690553780624"><ele>589.3333333333333</ele><time>2026-03-29T12:40:11.001Z</time></trkpt><trkpt lat="46.02706052718786" lon="12.162659400288627"><ele>591.6666666666666</ele><time>2026-03-29T12:40:12.001Z</time></trkpt><trkpt lat="46.02689954181715" lon="12.162623443521904"><ele>594.0</ele><time>2026-03-29T12:40:13.001Z</time></trkpt><trkpt lat="46.02675155607195" lon="12.162588338242655"><ele>599.0</ele><time>2026-03-29T12:40:14.001Z</time></trkpt><trkpt lat="46.026593890707474" lon="12.162589082848008"><ele>604.0</ele><time>2026-03-29T12:40:15.001Z</time></trkpt><trkpt lat="46.02643371301701" lon="12.162638255105309"><ele>609.0</ele><time>2026-03-29T12:40:16.002Z</time></trkpt><trkpt lat="46.02630085486795" lon="12.162678069971907"><ele>609.0</ele><time>2026-03-29T12:40:17.002Z</time></trkpt><trkpt lat="46.026190505330405" lon="12.162692575448977"><ele>609.0</ele><time>2026-03-29T12:40:18.002Z</time></trkpt><trkpt lat="46.02606407252818" lon="12.162653057444036"><ele>609.0</ele><time>2026-03-29T12:40:19.002Z</time></trkpt><trkpt lat="46.02594161561259" lon="12.162564861611612"><ele>609.0</ele><time>2026-03-29T12:40:20.002Z</time></trkpt><trkpt lat="46.02583040957878" lon="12.162447919559673"><ele>605.75</ele><time>2026-03-29T12:40:21.002Z</time></trkpt><trkpt lat="46.02571638145525" lon="12.16233014781751"><ele>602.5</ele><time>2026-03-29T12:40:22.002Z</time></trkpt><trkpt lat="46.02560188822306" lon="12.162232300888995"><ele>599.25</ele><time>2026-03-29T12:40:23.002Z</time></trkpt><trkpt lat="46.025500508771664" lon="12.16216380431248"><ele>596.0</ele><time>2026-03-29T12:40:24.002Z</time></trkpt><trkpt lat="46.02539632268712" lon="12.162111142231721"><ele>596.0</ele><time>2026-03-29T12:40:25.002Z</time></trkpt><trkpt lat="46.025272025311246" lon="12.162096835467821"><ele>596.0</ele><time>2026-03-29T12:40:26.002Z</time></trkpt><trkpt lat="46.025117559908075" lon="12.162106446830029"><ele>596.0</ele><time>2026-03-29T12:40:27.002Z</time></trkpt><trkpt lat="46.02493438521499" lon="12.16210817661748"><ele>597.3333333333333</ele><time>2026-03-29T12:40:28.002Z</time></trkpt><trkpt lat="46.02474766148051" lon="12.162099911674375"><ele>598.6666666666666</ele><time>2026-03-29T12:40:29.002Z</time></trkpt><trkpt lat="46.024571239772214" lon="12.162083995996849"><ele>600.0</ele><time>2026-03-29T12:40:30.002Z</time></trkpt><trkpt lat="46.02440557356722" lon="12.162065759170993"><ele>600.0</ele><time>2026-03-29T12:40:31.002Z</time></trkpt><trkpt lat="46.02424828664858" lon="12.162078685251196"><ele>600.0</ele><time>2026-03-29T12:40:32.002Z</time></trkpt><trkpt lat="46.02410894627221" lon="12.162136640872763"><ele>600.0</ele><time>2026-03-29T12:40:33.002Z</time></trkpt><trkpt lat="46.02396279552721" lon="12.162227123511817"><ele>604.0</ele><time>2026-03-29T12:40:34Z</time></trkpt><trkpt lat="46.0237973578137" lon="12.162359316293172"><ele>608.0</ele><time>2026-03-29T12:40:35Z</time></trkpt><trkpt lat="46.02360501214052" lon="12.162514749504053"><ele>612.0</ele><time>2026-03-29T12:40:36Z</time></trkpt><trkpt lat="46.0234071426341" lon="12.162640525195267"><ele>615.0</ele><time>2026-03-29T12:40:37Z</time></trkpt><trkpt lat="46.0232229317806" lon="12.162731303637997"><ele>618.0</ele><time>2026-03-29T12:40:38Z</time></trkpt><trkpt lat="46.023058597152776" lon="12.162796440761609"><ele>621.0</ele><time>2026-03-29T12:40:39Z</time></trkpt><trkpt lat="46.02290448748073" lon="12.162850020876256"><ele>621.0</ele><time>2026-03-29T12:40:40Z</time></trkpt><trkpt lat="46.0227275540909" lon="12.16291613099663"><ele>621.0</ele><time>2026-03-29T12:40:41Z</time></trkpt><trkpt lat="46.02251713270216" lon="12.162979367290427"><ele>621.0</ele><time>2026-03-29T12:40:42Z</time></trkpt><trkpt lat="46.02228429262145" lon="12.163042881180774"><ele>620.5</ele><time>2026-03-29T12:40:43Z</time></trkpt><trkpt lat="46.022034942059314" lon="12.163128056716404"><ele>620.0</ele><time>2026-03-29T12:40:44Z</time></trkpt><trkpt lat="46.02176975827351" lon="12.163245584771984"><ele>625.0</ele><time>2026-03-29T12:40:45Z</time></trkpt><trkpt lat="46.021490260563354" lon="12.163366307333344"><ele>630.0</ele><time>2026-03-29T12:40:46Z</time></trkpt><trkpt lat="46.021211495384264" lon="12.16346427423564"><ele>630.0</ele><time>2026-03-29T12:40:47Z</time></trkpt><trkpt lat="46.02096651615011" lon="12.163535518396463"><ele>630.0</ele><time>2026-03-29T12:40:48Z</time></trkpt><trkpt lat="46.02076090333649" lon="12.163592700129566"><ele>633.5</ele><time>2026-03-29T12:40:49Z</time></trkpt><trkpt lat="46.02058857419741" lon="12.16363772562774"><ele>637.0</ele><time>2026-03-29T12:40:50Z</time></trkpt><trkpt lat="46.020449446003866" lon="12.163676855222198"><ele>640.5</ele><time>2026-03-29T12:40:51Z</time></trkpt><trkpt lat="46.020344720813135" lon="12.163738236942727"><ele>644.0</ele><time>2026-03-29T12:40:52Z</time></trkpt><trkpt lat="46.0202524874017" lon="12.16385218699465"><ele>644.0</ele><time>2026-03-29T12:40:53Z</time></trkpt><trkpt lat="46.020149678725254" lon="12.164026819244988"><ele>644.0</ele><time>2026-03-29T12:40:54Z</time></trkpt><trkpt lat="46.02003194802672" lon="12.164216308414153"><ele>644.0</ele><time>2026-03-29T12:40:55Z</time></trkpt><trkpt lat="46.01988650246588" lon="12.164394709560183"><ele>644.3333333333333</ele><time>2026-03-29T12:40:56Z</time></trkpt><trkpt lat="46.0197159432252" lon="12.164567544564449"><ele>644.6666666666666</ele><time>2026-03-29T12:40:57Z</time></trkpt><trkpt lat="46.01952926876949" lon="12.164744501403433"><ele>645.0</ele><time>2026-03-29T12:40:58Z</time></trkpt><trkpt lat="46.0193338692663" lon="12.16494326728975"><ele>650.5</ele><time>2026-03-29T12:40:59Z</time></trkpt><trkpt lat="46.019132573403304" lon="12.16516359334448"><ele>656.0</ele><time>2026-03-29T12:41:00Z</time></trkpt><trkpt lat="46.01891001343137" lon="12.165384878460577"><ele>656.0</ele><time>2026-03-29T12:41:01Z</time></trkpt><trkpt lat="46.01868003771711" lon="12.165592931534487"><ele>656.0</ele><time>2026-03-29T12:41:02Z</time></trkpt><trkpt lat="46.018488122363486" lon="12.165761637079505"><ele>659.3333333333333</ele><time>2026-03-29T12:41:03Z</time></trkpt><trkpt lat="46.018330491292545" lon="12.165902427653176"><ele>662.6666666666666</ele><time>2026-03-29T12:41:04Z</time></trkpt><trkpt lat="46.0181942299717" lon="12.166018093712312"><ele>666.0</ele><time>2026-03-29T12:41:05Z</time></trkpt><trkpt lat="46.01806648175673" lon="12.166108375224537"><ele>666.0</ele><time>2026-03-29T12:41:06Z</time></trkpt><trkpt lat="46.017936937274115" lon="12.16615714077055"><ele>666.0</ele><time>2026-03-29T12:41:07Z</time></trkpt><trkpt lat="46.01778365668055" lon="12.166174962292507"><ele>666.0</ele><time>2026-03-29T12:41:08Z</time></trkpt><trkpt lat="46.01761266737195" lon="12.166236945479001"><ele>666.3333333333334</ele><time>2026-03-29T12:41:09Z</time></trkpt><trkpt lat="46.01744493065637" lon="12.16636041421467"><ele>666.6666666666667</ele><time>2026-03-29T12:41:10Z</time></trkpt><trkpt lat="46.01727855424323" lon="12.166527735703594"><ele>667.0</ele><time>2026-03-29T12:41:11Z</time></trkpt><trkpt lat="46.01710375988905" lon="12.166666316869303"><ele>667.0</ele><time>2026-03-29T12:41:12.001Z</time></trkpt><trkpt lat="46.01690783295919" lon="12.166754004022483"><ele>667.0</ele><time>2026-03-29T12:41:13.001Z</time></trkpt><trkpt lat="46.01668799526848" lon="12.166802888278648"><ele>667.0</ele><time>2026-03-29T12:41:14.001Z</time></trkpt><trkpt lat="46.01644703627834" lon="12.166855839024183"><ele>663.0</ele><time>2026-03-29T12:41:15.001Z</time></trkpt><trkpt lat="46.016200472735285" lon="12.166920240492745"><ele>659.0</ele><time>2026-03-29T12:41:16.001Z</time></trkpt><trkpt lat="46.015972824015186" lon="12.166982070273038"><ele>657.0</ele><time>2026-03-29T12:41:17.001Z</time></trkpt><trkpt lat="46.015759275742795" lon="12.167040232305597"><ele>655.0</ele><time>2026-03-29T12:41:18.001Z</time></trkpt><trkpt lat="46.01555062902468" lon="12.167089983833359"><ele>653.0</ele><time>2026-03-29T12:41:19.001Z</time></trkpt><trkpt lat="46.01535020577064" lon="12.167138856393588"><ele>653.0</ele><time>2026-03-29T12:41:20.001Z</time></trkpt><trkpt lat="46.015154904167844" lon="12.167177083040126"><ele>653.0</ele><time>2026-03-29T12:41:21.001Z</time></trkpt><trkpt lat="46.01497206882273" lon="12.16719936588353"><ele>653.0</ele><time>2026-03-29T12:41:22.001Z</time></trkpt><trkpt lat="46.014795698873904" lon="12.16719994716724"><ele>653.6666666666666</ele><time>2026-03-29T12:41:23.001Z</time></trkpt><trkpt lat="46.014630672287716" lon="12.167182379602345"><ele>654.3333333333334</ele><time>2026-03-29T12:41:24.001Z</time></trkpt><trkpt lat="46.01447281114083" lon="12.167184083813604"><ele>655.0</ele><time>2026-03-29T12:41:25.001Z</time></trkpt><trkpt lat="46.01432566770814" lon="12.16720411575597"><ele>655.0</ele><time>2026-03-29T12:41:26.001Z</time></trkpt><trkpt lat="46.01418107179536" lon="12.16721855026044"><ele>655.0</ele><time>2026-03-29T12:41:27.001Z</time></trkpt><trkpt lat="46.014041320108745" lon="12.16722626720084"><ele>655.0</ele><time>2026-03-29T12:41:28.001Z</time></trkpt><trkpt lat="46.01389684420631" lon="12.167227835167116"><ele>655.0</ele><time>2026-03-29T12:41:29.001Z</time></trkpt><trkpt lat="46.01374891554888" lon="12.167236316281299"><ele>654.3333333333334</ele><time>2026-03-29T12:41:30.001Z</time></trkpt><trkpt lat="46.013600388660194" lon="12.167263200565209"><ele>653.6666666666666</ele><time>2026-03-29T12:41:31.001Z</time></trkpt><trkpt lat="46.01344471401662" lon="12.167303593426066"><ele>653.0</ele><time>2026-03-29T12:41:32.001Z</time></trkpt><trkpt lat="46.01329034480889" lon="12.167355762269333"><ele>659.3333333333333</ele><time>2026-03-29T12:41:33.001Z</time></trkpt><trkpt lat="46.01313842678934" lon="12.16739376865006"><ele>665.6666666666666</ele><time>2026-03-29T12:41:34.001Z</time></trkpt><trkpt lat="46.012986119027445" lon="12.167430328454119"><ele>672.0</ele><time>2026-03-29T12:41:35.001Z</time></trkpt><trkpt lat="46.012843644643695" lon="12.167482032478466"><ele>672.0</ele><time>2026-03-29T12:41:36.001Z</time></trkpt><trkpt lat="46.01269713991135" lon="12.167531940065281"><ele>672.0</ele><time>2026-03-29T12:41:37.001Z</time></trkpt><trkpt lat="46.0125485588196" lon="12.167568859626591"><ele>672.0</ele><time>2026-03-29T12:41:38.001Z</time></trkpt><trkpt lat="46.01240829550242" lon="12.167601829746637"><ele>672.0</ele><time>2026-03-29T12:41:39.001Z</time></trkpt><trkpt lat="46.01227868559951" lon="12.167625388706817"><ele>672.0</ele><time>2026-03-29T12:41:40.001Z</time></trkpt><trkpt lat="46.012143069994096" lon="12.167633105838792"><ele>672.0</ele><time>2026-03-29T12:41:41.001Z</time></trkpt><trkpt lat="46.01199688042051" lon="12.167634204791403"><ele>672.0</ele><time>2026-03-29T12:41:42.001Z</time></trkpt><trkpt lat="46.01184974803469" lon="12.167622350873861"><ele>672.0</ele><time>2026-03-29T12:41:43.001Z</time></trkpt><trkpt lat="46.01168927245271" lon="12.167612627605244"><ele>671.5</ele><time>2026-03-29T12:41:44.001Z</time></trkpt><trkpt lat="46.01154307975126" lon="12.167608027123263"><ele>671.0</ele><time>2026-03-29T12:41:45.001Z</time></trkpt><trkpt lat="46.011411807044276" lon="12.16762352919477"><ele>670.5</ele><time>2026-03-29T12:41:46.001Z</time></trkpt><trkpt lat="46.011279042533154" lon="12.167657871913374"><ele>670.0</ele><time>2026-03-29T12:41:47.001Z</time></trkpt><trkpt lat="46.01113668565991" lon="12.167726057921273"><ele>670.0</ele><time>2026-03-29T12:41:48.001Z</time></trkpt><trkpt lat="46.01099572697682" lon="12.167812612204779"><ele>670.0</ele><time>2026-03-29T12:41:49.001Z</time></trkpt><trkpt lat="46.010871615991356" lon="12.167901744447374"><ele>670.0</ele><time>2026-03-29T12:41:50.001Z</time></trkpt><trkpt lat="46.01076205405194" lon="12.16798047585321"><ele>670.0</ele><time>2026-03-29T12:41:51.001Z</time></trkpt><trkpt lat="46.01065452653696" lon="12.168038376470648"><ele>670.25</ele><time>2026-03-29T12:41:52.001Z</time></trkpt><trkpt lat="46.01055237693469" lon="12.168092479431545"><ele>670.5</ele><time>2026-03-29T12:41:53.001Z</time></trkpt><trkpt lat="46.01044534676632" lon="12.168139825063902"><ele>670.75</ele><time>2026-03-29T12:41:54.001Z</time></trkpt><trkpt lat="46.01032575443658" lon="12.168176076449564"><ele>671.0</ele><time>2026-03-29T12:41:55.001Z</time></trkpt><trkpt lat="46.010193531912414" lon="12.168215624388054"><ele>673.25</ele><time>2026-03-29T12:41:56.001Z</time></trkpt><trkpt lat="46.01005443852347" lon="12.168259298511478"><ele>675.5</ele><time>2026-03-29T12:41:57.001Z</time></trkpt><trkpt lat="46.0099079556096" lon="12.1683075829414"><ele>677.75</ele><time>2026-03-29T12:41:58.001Z</time></trkpt><trkpt lat="46.00976071908589" lon="12.168357126335163"><ele>680.0</ele><time>2026-03-29T12:41:59.001Z</time></trkpt><trkpt lat="46.00961466384349" lon="12.168409956982648"><ele>680.0</ele><time>2026-03-29T12:42:00.001Z</time></trkpt><trkpt lat="46.009475340857776" lon="12.168461765983873"><ele>680.0</ele><time>2026-03-29T12:42:01.001Z</time></trkpt><trkpt lat="46.009351519688025" lon="12.168505414865685"><ele>680.0</ele><time>2026-03-29T12:42:02.001Z</time></trkpt><trkpt lat="46.009239665595636" lon="12.16853937257855"><ele>680.0</ele><time>2026-03-29T12:42:03.001Z</time></trkpt><trkpt lat="46.009126881661345" lon="12.168572970947398"><ele>681.25</ele><time>2026-03-29T12:42:04.001Z</time></trkpt><trkpt lat="46.0090099768884" lon="12.168614859104744"><ele>682.5</ele><time>2026-03-29T12:42:05.001Z</time></trkpt><trkpt lat="46.00889223525214" lon="12.168679000453906"><ele>683.75</ele><time>2026-03-29T12:42:06.001Z</time></trkpt><trkpt lat="46.00877826041127" lon="12.168751771261999"><ele>685.0</ele><time>2026-03-29T12:42:07.001Z</time></trkpt><trkpt lat="46.00866289496728" lon="12.168826816424986"><ele>685.0</ele><time>2026-03-29T12:42:08.001Z</time></trkpt><trkpt lat="46.00854974436026" lon="12.168889400578625"><ele>685.0</ele><time>2026-03-29T12:42:09.001Z</time></trkpt><trkpt lat="46.00845338333395" lon="12.16893985481687"><ele>685.0</ele><time>2026-03-29T12:42:10.001Z</time></trkpt><trkpt lat="46.00836451162754" lon="12.168972856443457"><ele>685.0</ele><time>2026-03-29T12:42:11.001Z</time></trkpt><trkpt lat="46.00828004389329" lon="12.168997349462048"><ele>685.0</ele><time>2026-03-29T12:42:12.001Z</time></trkpt><trkpt lat="46.00820382161025" lon="12.169021225820671"><ele>687.3333333333334</ele><time>2026-03-29T12:42:13.001Z</time></trkpt><trkpt lat="46.00812238669256" lon="12.169041129868223"><ele>689.6666666666667</ele><time>2026-03-29T12:42:14.001Z</time></trkpt><trkpt lat="46.008042631182725" lon="12.169067175837826"><ele>692.0</ele><time>2026-03-29T12:42:15.001Z</time></trkpt><trkpt lat="46.00795782947513" lon="12.169089340754084"><ele>694.3333333333334</ele><time>2026-03-29T12:42:16.001Z</time></trkpt><trkpt lat="46.007875817179034" lon="12.169115569305111"><ele>696.6666666666666</ele><time>2026-03-29T12:42:17.001Z</time></trkpt><trkpt lat="46.007789940492685" lon="12.16914648669748"><ele>699.0</ele><time>2026-03-29T12:42:18.001Z</time></trkpt><trkpt lat="46.00769975957889" lon="12.169174251452409"><ele>699.0</ele><time>2026-03-29T12:42:19.001Z</time></trkpt><trkpt lat="46.00760627704139" lon="12.169201368383538"><ele>699.0</ele><time>2026-03-29T12:42:20.001Z</time></trkpt><trkpt lat="46.007517145476626" lon="12.169226770844684"><ele>699.0</ele><time>2026-03-29T12:42:21.001Z</time></trkpt><trkpt lat="46.00742718955627" lon="12.16925760869703"><ele>699.0</ele><time>2026-03-29T12:42:22.001Z</time></trkpt><trkpt lat="46.007335473787975" lon="12.16928334352292"><ele>699.0</ele><time>2026-03-29T12:42:23.001Z</time></trkpt><trkpt lat="46.007241104681206" lon="12.169312008357076"><ele>699.6</ele><time>2026-03-29T12:42:24.001Z</time></trkpt><trkpt lat="46.007146194042306" lon="12.169339450178892"><ele>700.2</ele><time>2026-03-29T12:42:25.001Z</time></trkpt><trkpt lat="46.007050759038556" lon="12.16936763986126"><ele>700.8000000000001</ele><time>2026-03-29T12:42:26.002Z</time></trkpt><trkpt lat="46.00695302216707" lon="12.169399686931538"><ele>701.4000000000001</ele><time>2026-03-29T12:42:27.002Z</time></trkpt><trkpt lat="46.00684234737194" lon="12.169420455309753"><ele>702.0</ele><time>2026-03-29T12:42:28.002Z</time></trkpt><trkpt lat="46.00673210705617" lon="12.169466296485927"><ele>704.5</ele><time>2026-03-29T12:42:29.002Z</time></trkpt><trkpt lat="46.00661696005822" lon="12.169498590498435"><ele>707.0</ele><time>2026-03-29T12:42:30.002Z</time></trkpt><trkpt lat="46.0064933376968" lon="12.169532506044995"><ele>709.5</ele><time>2026-03-29T12:42:31.002Z</time></trkpt><trkpt lat="46.006381483296565" lon="12.169580558399808"><ele>712.0</ele><time>2026-03-29T12:42:32.002Z</time></trkpt><trkpt lat="46.006273260200444" lon="12.169618531419337"><ele>712.0</ele><time>2026-03-29T12:42:33.002Z</time></trkpt><trkpt lat="46.006171757156146" lon="12.169655799683007"><ele>712.0</ele><time>2026-03-29T12:42:34.002Z</time></trkpt><trkpt lat="46.00606951671571" lon="12.169687684530334"><ele>712.0</ele><time>2026-03-29T12:42:35.002Z</time></trkpt><trkpt lat="46.00596455856689" lon="12.169734914648137"><ele>712.0</ele><time>2026-03-29T12:42:36.002Z</time></trkpt><trkpt lat="46.00586243331852" lon="12.169769985019938"><ele>712.0</ele><time>2026-03-29T12:42:37.002Z</time></trkpt><trkpt lat="46.00576626096524" lon="12.169778589493818"><ele>711.8333333333334</ele><time>2026-03-29T12:42:38.002Z</time></trkpt><trkpt lat="46.005677200610265" lon="12.169774998647979"><ele>711.6666666666667</ele><time>2026-03-29T12:42:39.002Z</time></trkpt><trkpt lat="46.005598107787435" lon="12.169771004298878"><ele>711.5</ele><time>2026-03-29T12:42:40Z</time></trkpt><trkpt lat="46.00552368330906" lon="12.169779478723369"><ele>711.3333333333334</ele><time>2026-03-29T12:42:41Z</time></trkpt><trkpt lat="46.00545933650515" lon="12.169780844037486"><ele>711.1666666666666</ele><time>2026-03-29T12:42:42Z</time></trkpt><trkpt lat="46.005394298112904" lon="12.169784404546583"><ele>711.0</ele><time>2026-03-29T12:42:43Z</time></trkpt><trkpt lat="46.00529111677311" lon="12.169785603876505"><ele>711.0</ele><time>2026-03-29T12:42:45Z</time></trkpt><trkpt lat="46.00522732471403" lon="12.169796039474384"><ele>711.0</ele><time>2026-03-29T12:42:48Z</time></trkpt><trkpt lat="46.00515280528957" lon="12.169812199976054"><ele>711.0</ele><time>2026-03-29T12:42:57Z</time></trkpt><trkpt lat="46.00507165253016" lon="12.169832424441937"><ele>711.0</ele><time>2026-03-29T12:43:21Z</time></trkpt><trkpt lat="46.00499379751766" lon="12.169825019668703"><ele>711.0</ele><time>2026-03-29T12:43:23Z</time></trkpt><trkpt lat="46.004920130924155" lon="12.169825058035649"><ele>711.0</ele><time>2026-03-29T12:43:26.001Z</time></trkpt><trkpt lat="46.0048519053365" lon="12.169845966256238"><ele>711.0</ele><time>2026-03-29T12:43:31.001Z</time></trkpt><trkpt lat="46.00477536798277" lon="12.169878261201557"><ele>709.6666666666666</ele><time>2026-03-29T12:44:45.002Z</time></trkpt><trkpt lat="46.00470464087641" lon="12.169971190954369"><ele>708.3333333333333</ele><time>2026-03-29T12:44:48.024Z</time></trkpt><trkpt lat="46.00463887939887" lon="12.16999561901022"><ele>707.0</ele><time>2026-03-29T12:44:50.024Z</time></trkpt><trkpt lat="46.004607891706755" lon="12.169517576705822"><ele>707.0</ele><time>2026-03-29T12:44:57.001Z</time></trkpt><trkpt lat="46.00461070345835" lon="12.169386097338277"><ele>707.0</ele><time>2026-03-29T12:44:58.001Z</time></trkpt><trkpt lat="46.00461405580052" lon="12.169268542913787"><ele>707.0</ele><time>2026-03-29T12:44:59.001Z</time></trkpt><trkpt lat="46.00455135242631" lon="12.169181054350373"><ele>707.0</ele><time>2026-03-29T12:45:00.001Z</time></trkpt><trkpt lat="46.00447258076019" lon="12.169143167009747"><ele>707.0</ele><time>2026-03-29T12:45:01.001Z</time></trkpt><trkpt lat="46.004354591316954" lon="12.169117718395945"><ele>707.0</ele><time>2026-03-29T12:45:02.001Z</time></trkpt><trkpt lat="46.00422955812594" lon="12.169074567841776"><ele>707.0</ele><time>2026-03-29T12:45:03.001Z</time></trkpt><trkpt lat="46.004124379167614" lon="12.169007016805296"><ele>707.0</ele><time>2026-03-29T12:45:04.001Z</time></trkpt><trkpt lat="46.00403772283475" lon="12.168967816638595"><ele>707.0</ele><time>2026-03-29T12:45:05.001Z</time></trkpt><trkpt lat="46.00397296131387" lon="12.168965799657848"><ele>707.0</ele><time>2026-03-29T12:45:06.001Z</time></trkpt><trkpt lat="46.00385828591928" lon="12.169034419941948"><ele>707.0</ele><time>2026-03-29T12:45:08.016Z</time></trkpt><trkpt lat="46.00377821691705" lon="12.169144782832845"><ele>707.0</ele><time>2026-03-29T12:45:10.013Z</time></trkpt><trkpt lat="46.00429885093682" lon="12.169224126275786"><ele>707.0</ele><time>2026-03-29T12:45:14.001Z</time></trkpt><trkpt lat="46.004393652887764" lon="12.169280341756094"><ele>707.0</ele><time>2026-03-29T12:45:15.001Z</time></trkpt><trkpt lat="46.00448869918128" lon="12.169359144902675"><ele>707.0</ele><time>2026-03-29T12:45:17.001Z</time></trkpt><trkpt lat="46.00446358332132" lon="12.169474327620806"><ele>707.0</ele><time>2026-03-29T12:45:19.001Z</time></trkpt><trkpt lat="46.004386917047526" lon="12.169475230535276"><ele>707.0</ele><time>2026-03-29T12:45:20.001Z</time></trkpt><trkpt lat="46.00428810688131" lon="12.169426847423694"><ele>707.0</ele><time>2026-03-29T12:45:21.001Z</time></trkpt><trkpt lat="46.00418804852395" lon="12.169359697186296"><ele>707.0</ele><time>2026-03-29T12:45:22.001Z</time></trkpt><trkpt lat="46.004079635851774" lon="12.169318438775708"><ele>707.0</ele><time>2026-03-29T12:45:23.001Z</time></trkpt><trkpt lat="46.00399557816581" lon="12.169281695227726"><ele>707.0</ele><time>2026-03-29T12:45:24.001Z</time></trkpt><trkpt lat="46.0039188429223" lon="12.169259277651493"><ele>707.0</ele><time>2026-03-29T12:45:25.001Z</time></trkpt><trkpt lat="46.00382365625588" lon="12.169308282321662"><ele>707.0</ele><time>2026-03-29T12:45:27.019Z</time></trkpt><trkpt lat="46.003823567459065" lon="12.169458898278311"><ele>707.0</ele><time>2026-03-29T12:45:29.018Z</time></trkpt><trkpt lat="46.0042781895455" lon="12.169545907538541"><ele>707.0</ele><time>2026-03-29T12:45:32.001Z</time></trkpt><trkpt lat="46.00415107578449" lon="12.169669360932492"><ele>707.0</ele><time>2026-03-29T12:45:33.001Z</time></trkpt><trkpt lat="46.00426028696323" lon="12.169810007172341"><ele>707.0</ele><time>2026-03-29T12:45:34.001Z</time></trkpt><trkpt lat="46.004365498481214" lon="12.169903718238201"><ele>707.0</ele><time>2026-03-29T12:45:35.001Z</time></trkpt><trkpt lat="46.004421626241275" lon="12.169992157580328"><ele>700.0</ele><time>2026-03-29T12:45:36.001Z</time></trkpt><trkpt lat="46.00444251762229" lon="12.170079463245408"><ele>693.0</ele><time>2026-03-29T12:45:37.018Z</time></trkpt><trkpt lat="46.00439630967299" lon="12.17022383420985"><ele>686.0</ele><time>2026-03-29T12:45:39.017Z</time></trkpt><trkpt lat="46.00429296960236" lon="12.170257896998777"><ele>679.0</ele><time>2026-03-29T12:45:41.018Z</time></trkpt><trkpt lat="46.00425819870644" lon="12.169917812582263"><ele>685.0</ele><time>2026-03-29T12:45:43.001Z</time></trkpt><trkpt lat="46.00410581074104" lon="12.169961771383019"><ele>691.0</ele><time>2026-03-29T12:45:44.001Z</time></trkpt><trkpt lat="46.00403774407594" lon="12.169893119615416"><ele>697.0</ele><time>2026-03-29T12:45:45.001Z</time></trkpt><trkpt lat="46.00396627726626" lon="12.169805463112224"><ele>703.0</ele><time>2026-03-29T12:45:46.001Z</time></trkpt><trkpt lat="46.00390088042381" lon="12.169728381506077"><ele>709.0</ele><time>2026-03-29T12:45:47.001Z</time></trkpt><trkpt lat="46.00383093074381" lon="12.16969202096394"><ele>709.0</ele><time>2026-03-29T12:45:48.001Z</time></trkpt><trkpt lat="46.00376658947145" lon="12.169699648138891"><ele>709.0</ele><time>2026-03-29T12:45:49.001Z</time></trkpt><trkpt lat="46.003708194194694" lon="12.169737123175786"><ele>709.0</ele><time>2026-03-29T12:45:50.001Z</time></trkpt><trkpt lat="46.00364583703297" lon="12.169802430490938"><ele>709.0</ele><time>2026-03-29T12:45:51.019Z</time></trkpt><trkpt lat="46.00360121752276" lon="12.169918595007305"><ele>709.0</ele><time>2026-03-29T12:45:53.018Z</time></trkpt><trkpt lat="46.003691711941954" lon="12.169960855711484"><ele>709.0</ele><time>2026-03-29T12:45:56.021Z</time></trkpt><trkpt lat="46.00378759409419" lon="12.16993730651323"><ele>679.0</ele><time>2026-03-29T12:45:57.001Z</time></trkpt><trkpt lat="46.00429581313592" lon="12.170100073953188"><ele>679.0</ele><time>2026-03-29T12:45:59.001Z</time></trkpt><trkpt lat="46.004280835917555" lon="12.170200951078824"><ele>679.0</ele><time>2026-03-29T12:46:00.001Z</time></trkpt><trkpt lat="46.00435957728488" lon="12.170313274986848"><ele>679.0</ele><time>2026-03-29T12:46:01.001Z</time></trkpt><trkpt lat="46.00445665750537" lon="12.170483540587595"><ele>679.0</ele><time>2026-03-29T12:46:02.001Z</time></trkpt><trkpt lat="46.004558932418306" lon="12.170597773348357"><ele>679.0</ele><time>2026-03-29T12:46:03.001Z</time></trkpt><trkpt lat="46.00466120054803" lon="12.170682064019159"><ele>679.0</ele><time>2026-03-29T12:46:04.001Z</time></trkpt><trkpt lat="46.00473663570473" lon="12.170799515958775"><ele>679.0</ele><time>2026-03-29T12:46:05.001Z</time></trkpt><trkpt lat="46.00476617718324" lon="12.17093981609431"><ele>679.0</ele><time>2026-03-29T12:46:06.001Z</time></trkpt><trkpt lat="46.004803412704746" lon="12.17110384152468"><ele>668.75</ele><time>2026-03-29T12:46:07.001Z</time></trkpt><trkpt lat="46.004832605225296" lon="12.171273967772166"><ele>658.5</ele><time>2026-03-29T12:46:08.001Z</time></trkpt><trkpt lat="46.00482376187833" lon="12.171470612821091"><ele>648.25</ele><time>2026-03-29T12:46:09.001Z</time></trkpt><trkpt lat="46.00482005685898" lon="12.171697211785206"><ele>638.0</ele><time>2026-03-29T12:46:10.001Z</time></trkpt><trkpt lat="46.00477947501567" lon="12.171903581935908"><ele>638.0</ele><time>2026-03-29T12:46:11.001Z</time></trkpt><trkpt lat="46.00472896955815" lon="12.172104965107096"><ele>638.0</ele><time>2026-03-29T12:46:12.001Z</time></trkpt><trkpt lat="46.00468510621147" lon="12.17227658795407"><ele>638.0</ele><time>2026-03-29T12:46:13.001Z</time></trkpt><trkpt lat="46.00468046870928" lon="12.172379339970732"><ele>638.0</ele><time>2026-03-29T12:46:14.001Z</time></trkpt><trkpt lat="46.00463177547109" lon="12.17247834546585"><ele>638.0</ele><time>2026-03-29T12:46:15.001Z</time></trkpt><trkpt lat="46.00456147627375" lon="12.17242425671096"><ele>638.0</ele><time>2026-03-29T12:46:17.001Z</time></trkpt><trkpt lat="46.00456989775306" lon="12.172199469713611"><ele>638.0</ele><time>2026-03-29T12:46:19.001Z</time></trkpt><trkpt lat="46.00461393728772" lon="12.172084823019125"><ele>638.0</ele><time>2026-03-29T12:46:20.001Z</time></trkpt><trkpt lat="46.004581512113575" lon="12.171805430693166"><ele>638.0</ele><time>2026-03-29T12:46:21.001Z</time></trkpt><trkpt lat="46.00459009879211" lon="12.171602007184545"><ele>666.0</ele><time>2026-03-29T12:46:22.001Z</time></trkpt><trkpt lat="46.00458858429722" lon="12.171419170920583"><ele>694.0</ele><time>2026-03-29T12:46:23.001Z</time></trkpt><trkpt lat="46.00457070812321" lon="12.171253846614354"><ele>722.0</ele><time>2026-03-29T12:46:24.001Z</time></trkpt><trkpt lat="46.00452993287481" lon="12.171097960439218"><ele>750.0</ele><time>2026-03-29T12:46:25.001Z</time></trkpt><trkpt lat="46.00444678027135" lon="12.170942624426843"><ele>750.0</ele><time>2026-03-29T12:46:26.001Z</time></trkpt><trkpt lat="46.0043479649888" lon="12.170801571204716"><ele>750.0</ele><time>2026-03-29T12:46:27.001Z</time></trkpt><trkpt lat="46.00426005959223" lon="12.170703352331254"><ele>750.0</ele><time>2026-03-29T12:46:28.001Z</time></trkpt><trkpt lat="46.004185958873386" lon="12.170633195067252"><ele>750.0</ele><time>2026-03-29T12:46:29.001Z</time></trkpt><trkpt lat="46.00411792675057" lon="12.170665937518544"><ele>750.0</ele><time>2026-03-29T12:46:31.001Z</time></trkpt><trkpt lat="46.004118353625394" lon="12.1707571141998"><ele>750.0</ele><time>2026-03-29T12:46:32.001Z</time></trkpt><trkpt lat="46.004154965324574" lon="12.170841660514128"><ele>750.0</ele><time>2026-03-29T12:46:33.001Z</time></trkpt><trkpt lat="46.004244468856804" lon="12.170940623873216"><ele>750.0</ele><time>2026-03-29T12:46:34.001Z</time></trkpt><trkpt lat="46.0043324649888" lon="12.171035586830454"><ele>750.0</ele><time>2026-03-29T12:46:35.001Z</time></trkpt><trkpt lat="46.00439493335544" lon="12.17116694028875"><ele>750.0</ele><time>2026-03-29T12:46:36.001Z</time></trkpt><trkpt lat="46.00443645566121" lon="12.171329858035719"><ele>750.0</ele><time>2026-03-29T12:46:37.001Z</time></trkpt><trkpt lat="46.00444255280886" lon="12.171506177962065"><ele>750.0</ele><time>2026-03-29T12:46:38.001Z</time></trkpt><trkpt lat="46.00441444790743" lon="12.171700641024982"><ele>750.0</ele><time>2026-03-29T12:46:39.001Z</time></trkpt><trkpt lat="46.00435950115401" lon="12.171908479301166"><ele>750.0</ele><time>2026-03-29T12:46:40.002Z</time></trkpt><trkpt lat="46.00429010410997" lon="12.172122653996889"><ele>712.6666666666666</ele><time>2026-03-29T12:46:41.002Z</time></trkpt><trkpt lat="46.004209953290854" lon="12.17235393118374"><ele>675.3333333333333</ele><time>2026-03-29T12:46:42.002Z</time></trkpt><trkpt lat="46.00412607215388" lon="12.172593228821988"><ele>638.0</ele><time>2026-03-29T12:46:43.002Z</time></trkpt><trkpt lat="46.00404431565683" lon="12.172824220459932"><ele>638.0</ele><time>2026-03-29T12:46:44.002Z</time></trkpt><trkpt lat="46.003976037633365" lon="12.173032235605811"><ele>638.0</ele><time>2026-03-29T12:46:45.002Z</time></trkpt><trkpt lat="46.00391247569243" lon="12.173213239580312"><ele>638.0</ele><time>2026-03-29T12:46:46.002Z</time></trkpt><trkpt lat="46.00383792980518" lon="12.173364337501557"><ele>638.0</ele><time>2026-03-29T12:46:47.002Z</time></trkpt><trkpt lat="46.00375257913559" lon="12.173473649114044"><ele>638.0</ele><time>2026-03-29T12:46:48.002Z</time></trkpt><trkpt lat="46.00364481908182" lon="12.173560669939372"><ele>638.0</ele><time>2026-03-29T12:46:49.002Z</time></trkpt><trkpt lat="46.00352034776234" lon="12.17361419556247"><ele>638.0</ele><time>2026-03-29T12:46:50.002Z</time></trkpt><trkpt lat="46.00338605798412" lon="12.17363328105727"><ele>638.0</ele><time>2026-03-29T12:46:51.002Z</time></trkpt><trkpt lat="46.003249260396835" lon="12.173621166796519"><ele>638.0</ele><time>2026-03-29T12:46:52.001Z</time></trkpt><trkpt lat="46.00311403261309" lon="12.173564663013071"><ele>638.0</ele><time>2026-03-29T12:46:53.001Z</time></trkpt><trkpt lat="46.00297915679199" lon="12.173499516617506"><ele>638.0</ele><time>2026-03-29T12:46:54.001Z</time></trkpt><trkpt lat="46.00286018324051" lon="12.173418246645406"><ele>638.0</ele><time>2026-03-29T12:46:55.001Z</time></trkpt><trkpt lat="46.00274702067233" lon="12.173306727215014"><ele>638.0</ele><time>2026-03-29T12:46:56.001Z</time></trkpt><trkpt lat="46.00263616520496" lon="12.173219773322677"><ele>638.0</ele><time>2026-03-29T12:46:57.001Z</time></trkpt><trkpt lat="46.00252221503598" lon="12.17318576728149"><ele>638.0</ele><time>2026-03-29T12:46:58.001Z</time></trkpt><trkpt lat="46.00240542216237" lon="12.17319554305457"><ele>638.0</ele><time>2026-03-29T12:46:59.001Z</time></trkpt><trkpt lat="46.00227717354047" lon="12.173234136608453"><ele>638.0</ele><time>2026-03-29T12:47:00.001Z</time></trkpt><trkpt lat="46.002142582190984" lon="12.173313271959538"><ele>638.0</ele><time>2026-03-29T12:47:01.001Z</time></trkpt><trkpt lat="46.00200675187609" lon="12.1734164832515"><ele>638.0</ele><time>2026-03-29T12:47:02.001Z</time></trkpt><trkpt lat="46.00188095326377" lon="12.173503771785443"><ele>638.0</ele><time>2026-03-29T12:47:03.001Z</time></trkpt><trkpt lat="46.00176060729651" lon="12.173567343050912"><ele>638.0</ele><time>2026-03-29T12:47:04.001Z</time></trkpt><trkpt lat="46.00163189494003" lon="12.173564873419316"><ele>638.0</ele><time>2026-03-29T12:47:05.001Z</time></trkpt><trkpt lat="46.001502055791484" lon="12.173513475228983"><ele>638.0</ele><time>2026-03-29T12:47:06.001Z</time></trkpt><trkpt lat="46.00138760595421" lon="12.173431859125099"><ele>638.0</ele><time>2026-03-29T12:47:07.001Z</time></trkpt><trkpt lat="46.00125806701245" lon="12.173321201080984"><ele>638.0</ele><time>2026-03-29T12:47:08.001Z</time></trkpt><trkpt lat="46.0011363217964" lon="12.17326539550278"><ele>638.0</ele><time>2026-03-29T12:47:09.001Z</time></trkpt><trkpt lat="46.00100420089497" lon="12.17324399254596"><ele>638.0</ele><time>2026-03-29T12:47:10.001Z</time></trkpt><trkpt lat="46.0008876830543" lon="12.173268236120181"><ele>638.0</ele><time>2026-03-29T12:47:11.001Z</time></trkpt><trkpt lat="46.000781762514514" lon="12.173352710443728"><ele>638.0</ele><time>2026-03-29T12:47:12.001Z</time></trkpt><trkpt lat="46.00068340183825" lon="12.173445078685385"><ele>638.0</ele><time>2026-03-29T12:47:13.001Z</time></trkpt><trkpt lat="46.000601648077335" lon="12.173518415609443"><ele>638.0</ele><time>2026-03-29T12:47:14.001Z</time></trkpt><trkpt lat="46.0005048672434" lon="12.173505659185867"><ele>638.0</ele><time>2026-03-29T12:47:16.001Z</time></trkpt><trkpt lat="46.00053146188517" lon="12.173356111458387"><ele>638.0</ele><time>2026-03-29T12:47:18.001Z</time></trkpt><trkpt lat="46.00061624571598" lon="12.173304723836987"><ele>638.0</ele><time>2026-03-29T12:47:19.001Z</time></trkpt><trkpt lat="46.00075385117311" lon="12.173229656287344"><ele>638.0</ele><time>2026-03-29T12:47:20.001Z</time></trkpt><trkpt lat="46.00089767276272" lon="12.17313847047823"><ele>638.0</ele><time>2026-03-29T12:47:21.001Z</time></trkpt><trkpt lat="46.00104857077781" lon="12.173057270693803"><ele>638.0</ele><time>2026-03-29T12:47:22.001Z</time></trkpt><trkpt lat="46.00121475386077" lon="12.173018128246996"><ele>638.0</ele><time>2026-03-29T12:47:23.001Z</time></trkpt><trkpt lat="46.001374541093064" lon="12.17301791401859"><ele>638.0</ele><time>2026-03-29T12:47:24.001Z</time></trkpt><trkpt lat="46.00151404110473" lon="12.173022114505274"><ele>638.0</ele><time>2026-03-29T12:47:25.001Z</time></trkpt><trkpt lat="46.001640491551235" lon="12.172976568347481"><ele>638.0</ele><time>2026-03-29T12:47:26.001Z</time></trkpt><trkpt lat="46.0017667646373" lon="12.172886624668367"><ele>638.0</ele><time>2026-03-29T12:47:27.001Z</time></trkpt><trkpt lat="46.00189820782402" lon="12.172742069009297"><ele>638.0</ele><time>2026-03-29T12:47:28.001Z</time></trkpt><trkpt lat="46.002025226929895" lon="12.172604832157289"><ele>655.8</ele><time>2026-03-29T12:47:29.001Z</time></trkpt><trkpt lat="46.002135503613566" lon="12.17248367001104"><ele>673.5999999999999</ele><time>2026-03-29T12:47:30.001Z</time></trkpt><trkpt lat="46.002229779621835" lon="12.17238075411508"><ele>691.4000000000001</ele><time>2026-03-29T12:47:31.001Z</time></trkpt><trkpt lat="46.00229454672222" lon="12.17227865893169"><ele>709.2</ele><time>2026-03-29T12:47:32.001Z</time></trkpt><trkpt lat="46.002315296303365" lon="12.172163419091245"><ele>727.0</ele><time>2026-03-29T12:47:33.001Z</time></trkpt><trkpt lat="46.00230402230841" lon="12.172046415759088"><ele>727.0</ele><time>2026-03-29T12:47:34.001Z</time></trkpt><trkpt lat="46.00226163100218" lon="12.171969380324274"><ele>727.0</ele><time>2026-03-29T12:47:35.001Z</time></trkpt><trkpt lat="46.00218227622215" lon="12.171923551288804"><ele>727.0</ele><time>2026-03-29T12:47:36.001Z</time></trkpt><trkpt lat="46.00208970267737" lon="12.17193076612536"><ele>727.0</ele><time>2026-03-29T12:47:37.001Z</time></trkpt><trkpt lat="46.00198420606818" lon="12.171964744587749"><ele>727.0</ele><time>2026-03-29T12:47:38.001Z</time></trkpt><trkpt lat="46.00187197075099" lon="12.17201763396961"><ele>727.0</ele><time>2026-03-29T12:47:39.001Z</time></trkpt><trkpt lat="46.0017481841839" lon="12.172062391650803"><ele>727.0</ele><time>2026-03-29T12:47:40.001Z</time></trkpt><trkpt lat="46.001613535808346" lon="12.172081595452555"><ele>727.0</ele><time>2026-03-29T12:47:41.001Z</time></trkpt><trkpt lat="46.0014715770203" lon="12.172067634199989"><ele>727.0</ele><time>2026-03-29T12:47:42.001Z</time></trkpt><trkpt lat="46.001312601219325" lon="12.171998760514356"><ele>727.0</ele><time>2026-03-29T12:47:43.001Z</time></trkpt><trkpt lat="46.001139035980835" lon="12.17191333194034"><ele>727.0</ele><time>2026-03-29T12:47:44.001Z</time></trkpt><trkpt lat="46.000957609077595" lon="12.171855769200128"><ele>727.0</ele><time>2026-03-29T12:47:45.001Z</time></trkpt><trkpt lat="46.000781359409174" lon="12.171837249408993"><ele>727.0</ele><time>2026-03-29T12:47:46.001Z</time></trkpt><trkpt lat="46.00059762748561" lon="12.171852682598505"><ele>727.0</ele><time>2026-03-29T12:47:47.001Z</time></trkpt><trkpt lat="46.00041031006712" lon="12.17189087668434"><ele>727.0</ele><time>2026-03-29T12:47:48.001Z</time></trkpt><trkpt lat="46.000231065916616" lon="12.171929028169139"><ele>727.0</ele><time>2026-03-29T12:47:49.001Z</time></trkpt><trkpt lat="46.00005678203165" lon="12.171953185077436"><ele>727.0</ele><time>2026-03-29T12:47:50.001Z</time></trkpt><trkpt lat="45.99989640132886" lon="12.171951259316788"><ele>727.0</ele><time>2026-03-29T12:47:51.001Z</time></trkpt><trkpt lat="45.999739724830214" lon="12.171943467103786"><ele>727.0</ele><time>2026-03-29T12:47:52.001Z</time></trkpt><trkpt lat="45.99961152753096" lon="12.171891535611634"><ele>727.0</ele><time>2026-03-29T12:47:53.001Z</time></trkpt><trkpt lat="45.99950275706717" lon="12.171826389567439"><ele>727.0</ele><time>2026-03-29T12:47:54.001Z</time></trkpt><trkpt lat="45.999424796311864" lon="12.171765879189799"><ele>727.0</ele><time>2026-03-29T12:47:55.001Z</time></trkpt><trkpt lat="45.99935385178308" lon="12.171808901654359"><ele>727.0</ele><time>2026-03-29T12:47:57.001Z</time></trkpt><trkpt lat="45.99942345072708" lon="12.17196450440941"><ele>727.0</ele><time>2026-03-29T12:47:59.001Z</time></trkpt><trkpt lat="45.9995298818398" lon="12.17202271441817"><ele>727.0</ele><time>2026-03-29T12:48:00.001Z</time></trkpt><trkpt lat="45.999665908054794" lon="12.172077561918458"><ele>727.0</ele><time>2026-03-29T12:48:01.001Z</time></trkpt><trkpt lat="45.999817663543794" lon="12.172138814734241"><ele>727.0</ele><time>2026-03-29T12:48:02.001Z</time></trkpt><trkpt lat="45.999946674417295" lon="12.172210253084742"><ele>680.0</ele><time>2026-03-29T12:48:03.001Z</time></trkpt><trkpt lat="46.00005214049425" lon="12.172285951541697"><ele>633.0</ele><time>2026-03-29T12:48:04.001Z</time></trkpt><trkpt lat="46.00012598152477" lon="12.172349618852547"><ele>586.0</ele><time>2026-03-29T12:48:05.001Z</time></trkpt><trkpt lat="46.00017555916262" lon="12.172413686613332"><ele>539.0</ele><time>2026-03-29T12:48:06.001Z</time></trkpt><trkpt lat="46.00015032083102" lon="12.17261313433165"><ele>492.0</ele><time>2026-03-29T12:48:08.001Z</time></trkpt><trkpt lat="46.00007477935708" lon="12.17271558031824"><ele>492.0</ele><time>2026-03-29T12:48:09.001Z</time></trkpt><trkpt lat="45.99995415131523" lon="12.172817822793231"><ele>492.0</ele><time>2026-03-29T12:48:10.001Z</time></trkpt><trkpt lat="45.99980989961484" lon="12.172913638268643"><ele>492.0</ele><time>2026-03-29T12:48:11.001Z</time></trkpt><trkpt lat="45.999652804224034" lon="12.173013479347368"><ele>492.0</ele><time>2026-03-29T12:48:12.001Z</time></trkpt><trkpt lat="45.999483298733615" lon="12.173123102500695"><ele>492.0</ele><time>2026-03-29T12:48:13.001Z</time></trkpt><trkpt lat="45.9993320753916" lon="12.173223244090233"><ele>492.0</ele><time>2026-03-29T12:48:14.001Z</time></trkpt><trkpt lat="45.99918862687953" lon="12.173308994078438"><ele>492.0</ele><time>2026-03-29T12:48:15.001Z</time></trkpt><trkpt lat="45.99902991708799" lon="12.173388205640034"><ele>492.0</ele><time>2026-03-29T12:48:16.001Z</time></trkpt><trkpt lat="45.99884823593794" lon="12.173423471971176"><ele>492.0</ele><time>2026-03-29T12:48:17.001Z</time></trkpt><trkpt lat="45.99864887562735" lon="12.173452749232442"><ele>474.0</ele><time>2026-03-29T12:48:18.001Z</time></trkpt><trkpt lat="45.99842991061247" lon="12.173506551952185"><ele>456.0</ele><time>2026-03-29T12:48:19.001Z</time></trkpt><trkpt lat="45.998232386121856" lon="12.173597667785074"><ele>438.0</ele><time>2026-03-29T12:48:20.001Z</time></trkpt><trkpt lat="45.99805090376803" lon="12.173680631587382"><ele>438.0</ele><time>2026-03-29T12:48:21.001Z</time></trkpt><trkpt lat="45.99787822277946" lon="12.1737615774574"><ele>438.0</ele><time>2026-03-29T12:48:22.001Z</time></trkpt><trkpt lat="45.99772112206379" lon="12.173814192972973"><ele>438.0</ele><time>2026-03-29T12:48:23.001Z</time></trkpt><trkpt lat="45.9975885511833" lon="12.17383071752557"><ele>440.5</ele><time>2026-03-29T12:48:24.001Z</time></trkpt><trkpt lat="45.997472861098124" lon="12.17381591025677"><ele>443.0</ele><time>2026-03-29T12:48:25.001Z</time></trkpt><trkpt lat="45.99736491008512" lon="12.173740076016662"><ele>445.5</ele><time>2026-03-29T12:48:26.001Z</time></trkpt><trkpt lat="45.99726208839213" lon="12.173633722361654"><ele>448.0</ele><time>2026-03-29T12:48:27.001Z</time></trkpt><trkpt lat="45.99714937421358" lon="12.17358011438371"><ele>448.0</ele><time>2026-03-29T12:48:28.001Z</time></trkpt><trkpt lat="45.99701543514351" lon="12.173574443000502"><ele>448.0</ele><time>2026-03-29T12:48:29.001Z</time></trkpt><trkpt lat="45.99688070745531" lon="12.173601465881688"><ele>448.0</ele><time>2026-03-29T12:48:30.001Z</time></trkpt><trkpt lat="45.99675913496278" lon="12.173650340099856"><ele>448.0</ele><time>2026-03-29T12:48:31.001Z</time></trkpt><trkpt lat="45.99666298205369" lon="12.173723333928782"><ele>446.50000000000006</ele><time>2026-03-29T12:48:32.001Z</time></trkpt><trkpt lat="45.99658515195901" lon="12.17380432618191"><ele>445.0</ele><time>2026-03-29T12:48:33.001Z</time></trkpt><trkpt lat="45.99652485706705" lon="12.173902910387417"><ele>443.5</ele><time>2026-03-29T12:48:34.001Z</time></trkpt><trkpt lat="45.996480771711965" lon="12.173988891172655"><ele>442.0</ele><time>2026-03-29T12:48:35.001Z</time></trkpt><trkpt lat="45.99640929386305" lon="12.174021508099994"><ele>440.50000000000006</ele><time>2026-03-29T12:48:37.001Z</time></trkpt><trkpt lat="45.996409956333224" lon="12.173862416172783"><ele>439.0</ele><time>2026-03-29T12:48:39.001Z</time></trkpt><trkpt lat="45.99649139602609" lon="12.173747213892876"><ele>439.0</ele><time>2026-03-29T12:48:40.001Z</time></trkpt><trkpt lat="45.99656272412875" lon="12.173639483968433"><ele>439.0</ele><time>2026-03-29T12:48:41.001Z</time></trkpt><trkpt lat="45.99665219217527" lon="12.173526207782752"><ele>439.0</ele><time>2026-03-29T12:48:42.001Z</time></trkpt><trkpt lat="45.996754360193854" lon="12.173421973851902"><ele>439.0</ele><time>2026-03-29T12:48:43.001Z</time></trkpt><trkpt lat="45.99687187200918" lon="12.173337395837823"><ele>437.75</ele><time>2026-03-29T12:48:44.001Z</time></trkpt><trkpt lat="45.99700391650753" lon="12.173268690893138"><ele>436.5</ele><time>2026-03-29T12:48:45.001Z</time></trkpt><trkpt lat="45.99712918376973" lon="12.173213849965846"><ele>435.25</ele><time>2026-03-29T12:48:46.001Z</time></trkpt><trkpt lat="45.99726673071821" lon="12.173185326260569"><ele>434.0</ele><time>2026-03-29T12:48:47.001Z</time></trkpt><trkpt lat="45.99740180449764" lon="12.173184377780695"><ele>438.75</ele><time>2026-03-29T12:48:48.001Z</time></trkpt><trkpt lat="45.99752993719991" lon="12.17318159114397"><ele>443.5</ele><time>2026-03-29T12:48:49.001Z</time></trkpt><trkpt lat="45.9976488225145" lon="12.17317416973029"><ele>448.25</ele><time>2026-03-29T12:48:50.001Z</time></trkpt><trkpt lat="45.997757296816694" lon="12.173146963271483"><ele>453.0</ele><time>2026-03-29T12:48:51.001Z</time></trkpt><trkpt lat="45.99784594220974" lon="12.173095919130333"><ele>453.0</ele><time>2026-03-29T12:48:52.001Z</time></trkpt><trkpt lat="45.997907043234434" lon="12.173020668386204"><ele>453.0</ele><time>2026-03-29T12:48:53.001Z</time></trkpt><trkpt lat="45.99793023843274" lon="12.17292290577829"><ele>453.0</ele><time>2026-03-29T12:48:54.001Z</time></trkpt><trkpt lat="45.99792361207094" lon="12.172823795596871"><ele>453.0</ele><time>2026-03-29T12:48:55.001Z</time></trkpt><trkpt lat="45.99788025034151" lon="12.17273345224071"><ele>453.0</ele><time>2026-03-29T12:48:56.001Z</time></trkpt><trkpt lat="45.9978023737191" lon="12.17266363035318"><ele>453.0</ele><time>2026-03-29T12:48:57.001Z</time></trkpt><trkpt lat="45.997686065794824" lon="12.172613070314696"><ele>453.0</ele><time>2026-03-29T12:48:58Z</time></trkpt><trkpt lat="45.99753365400394" lon="12.172570151104203"><ele>453.0</ele><time>2026-03-29T12:48:59Z</time></trkpt><trkpt lat="45.997362560937546" lon="12.172524217382408"><ele>453.0</ele><time>2026-03-29T12:49:00Z</time></trkpt><trkpt lat="45.99717697136806" lon="12.17247340282941"><ele>452.0</ele><time>2026-03-29T12:49:01Z</time></trkpt><trkpt lat="45.99699066030569" lon="12.172420689619756"><ele>451.0</ele><time>2026-03-29T12:49:02Z</time></trkpt><trkpt lat="45.99681235987065" lon="12.172369505644665"><ele>450.0</ele><time>2026-03-29T12:49:03Z</time></trkpt><trkpt lat="45.9966594367474" lon="12.17232544099603"><ele>450.0</ele><time>2026-03-29T12:49:04Z</time></trkpt><trkpt lat="45.99652069121285" lon="12.17229153946065"><ele>450.0</ele><time>2026-03-29T12:49:05Z</time></trkpt><trkpt lat="45.99638148084633" lon="12.172301811393194"><ele>450.0</ele><time>2026-03-29T12:49:06Z</time></trkpt><trkpt lat="45.99623171669861" lon="12.172365831609273"><ele>450.0</ele><time>2026-03-29T12:49:07Z</time></trkpt><trkpt lat="45.996058943476804" lon="12.172466473906601"><ele>442.66666666666663</ele><time>2026-03-29T12:49:08Z</time></trkpt><trkpt lat="45.995871012078084" lon="12.172580923417406"><ele>435.3333333333333</ele><time>2026-03-29T12:49:09Z</time></trkpt><trkpt lat="45.99569298972906" lon="12.172679460326453"><ele>428.0</ele><time>2026-03-29T12:49:10Z</time></trkpt><trkpt lat="45.99551682341105" lon="12.172766199215125"><ele>426.3333333333333</ele><time>2026-03-29T12:49:11Z</time></trkpt><trkpt lat="45.99535145862667" lon="12.172851585600606"><ele>424.66666666666663</ele><time>2026-03-29T12:49:12Z</time></trkpt><trkpt lat="45.9951864100221" lon="12.172932242991573"><ele>423.0</ele><time>2026-03-29T12:49:13Z</time></trkpt><trkpt lat="45.99503220856807" lon="12.173000993659013"><ele>421.33333333333337</ele><time>2026-03-29T12:49:14Z</time></trkpt><trkpt lat="45.99488072331382" lon="12.173043583220165"><ele>419.6666666666667</ele><time>2026-03-29T12:49:15Z</time></trkpt><trkpt lat="45.994717476211356" lon="12.173061069896615"><ele>418.0</ele><time>2026-03-29T12:49:16Z</time></trkpt><trkpt lat="45.994541431811285" lon="12.173054350550665"><ele>418.0</ele><time>2026-03-29T12:49:17Z</time></trkpt><trkpt lat="45.99436426745967" lon="12.173033101704107"><ele>418.0</ele><time>2026-03-29T12:49:18Z</time></trkpt><trkpt lat="45.994194712374004" lon="12.173010382760634"><ele>418.0</ele><time>2026-03-29T12:49:19Z</time></trkpt><trkpt lat="45.99403763442139" lon="12.172981946554813"><ele>415.33333333333337</ele><time>2026-03-29T12:49:20Z</time></trkpt><trkpt lat="45.99388462774475" lon="12.17293821890164"><ele>412.66666666666663</ele><time>2026-03-29T12:49:21Z</time></trkpt><trkpt lat="45.99374071321139" lon="12.172858684184185"><ele>410.0</ele><time>2026-03-29T12:49:22Z</time></trkpt><trkpt lat="45.99361197251099" lon="12.172768702039754"><ele>410.0</ele><time>2026-03-29T12:49:23Z</time></trkpt><trkpt lat="45.99348760421922" lon="12.172719699313621"><ele>410.0</ele><time>2026-03-29T12:49:24Z</time></trkpt><trkpt lat="45.99335331939221" lon="12.172720332320173"><ele>410.0</ele><time>2026-03-29T12:49:25Z</time></trkpt><trkpt lat="45.993199731211774" lon="12.172762272386967"><ele>410.0</ele><time>2026-03-29T12:49:26Z</time></trkpt><trkpt lat="45.993049063094915" lon="12.172821505409397"><ele>408.75</ele><time>2026-03-29T12:49:27Z</time></trkpt><trkpt lat="45.99291515735382" lon="12.172865256507338"><ele>407.5</ele><time>2026-03-29T12:49:28Z</time></trkpt><trkpt lat="45.99279084576555" lon="12.172882254984675"><ele>406.25</ele><time>2026-03-29T12:49:29Z</time></trkpt><trkpt lat="45.99267433621099" lon="12.172857462914871"><ele>405.0</ele><time>2026-03-29T12:49:30Z</time></trkpt><trkpt lat="45.99254683384143" lon="12.172788765165365"><ele>401.75</ele><time>2026-03-29T12:49:31Z</time></trkpt><trkpt lat="45.992420227301935" lon="12.172701693516347"><ele>398.5</ele><time>2026-03-29T12:49:32Z</time></trkpt><trkpt lat="45.992308027421664" lon="12.17261171667141"><ele>395.25</ele><time>2026-03-29T12:49:33Z</time></trkpt><trkpt lat="45.99221100644443" lon="12.172530472750916"><ele>392.0</ele><time>2026-03-29T12:49:34Z</time></trkpt><trkpt lat="45.99214023103298" lon="12.172473184958662"><ele>392.0</ele><time>2026-03-29T12:49:35Z</time></trkpt><trkpt lat="45.99206134515622" lon="12.172534816218466"><ele>392.0</ele><time>2026-03-29T12:49:37Z</time></trkpt><trkpt lat="45.99212303652163" lon="12.172707025087536"><ele>392.0</ele><time>2026-03-29T12:49:39Z</time></trkpt><trkpt lat="45.992244646439104" lon="12.172792858304975"><ele>392.0</ele><time>2026-03-29T12:49:40Z</time></trkpt><trkpt lat="45.992368156614766" lon="12.172895184034326"><ele>389.66666666666663</ele><time>2026-03-29T12:49:41Z</time></trkpt><trkpt lat="45.992507893449776" lon="12.173005120675427"><ele>387.33333333333337</ele><time>2026-03-29T12:49:42Z</time></trkpt><trkpt lat="45.99265451615604" lon="12.17314378327755"><ele>385.0</ele><time>2026-03-29T12:49:43Z</time></trkpt><trkpt lat="45.99278787766947" lon="12.173289709968879"><ele>385.0</ele><time>2026-03-29T12:49:44Z</time></trkpt><trkpt lat="45.99290708595188" lon="12.17343301879134"><ele>385.0</ele><time>2026-03-29T12:49:45Z</time></trkpt><trkpt lat="45.99301220083388" lon="12.17356785304556"><ele>385.0</ele><time>2026-03-29T12:49:46Z</time></trkpt><trkpt lat="45.99309889277741" lon="12.173684886489118"><ele>385.0</ele><time>2026-03-29T12:49:47Z</time></trkpt><trkpt lat="45.993166796050666" lon="12.173776889009405"><ele>385.0</ele><time>2026-03-29T12:49:48.001Z</time></trkpt><trkpt lat="45.99318219656488" lon="12.173902317108698"><ele>385.0</ele><time>2026-03-29T12:49:50.001Z</time></trkpt><trkpt lat="45.99307562931475" lon="12.173940068614236"><ele>385.0</ele><time>2026-03-29T12:49:52.001Z</time></trkpt><trkpt lat="45.992988871567775" lon="12.173845387592886"><ele>385.0</ele><time>2026-03-29T12:49:53.001Z</time></trkpt><trkpt lat="45.99290536186796" lon="12.173736699020049"><ele>385.0</ele><time>2026-03-29T12:49:54.001Z</time></trkpt><trkpt lat="45.992796784402586" lon="12.17361307286466"><ele>385.0</ele><time>2026-03-29T12:49:55.001Z</time></trkpt><trkpt lat="45.99267598217277" lon="12.173479023884182"><ele>385.0</ele><time>2026-03-29T12:49:56.001Z</time></trkpt><trkpt lat="45.992537342096135" lon="12.173339909755926"><ele>385.0</ele><time>2026-03-29T12:49:57.001Z</time></trkpt><trkpt lat="45.992390658602524" lon="12.17321640107679"><ele>387.33333333333337</ele><time>2026-03-29T12:49:58.001Z</time></trkpt><trkpt lat="45.99223556678676" lon="12.173116144376388"><ele>389.66666666666663</ele><time>2026-03-29T12:49:59.001Z</time></trkpt><trkpt lat="45.99208276507918" lon="12.173048458184939"><ele>392.0</ele><time>2026-03-29T12:50:00.001Z</time></trkpt><trkpt lat="45.99194640013364" lon="12.172991686183437"><ele>392.0</ele><time>2026-03-29T12:50:01.001Z</time></trkpt><trkpt lat="45.99181490264966" lon="12.17292254855398"><ele>392.0</ele><time>2026-03-29T12:50:02.001Z</time></trkpt><trkpt lat="45.991699500636514" lon="12.172805197368398"><ele>392.0</ele><time>2026-03-29T12:50:03.001Z</time></trkpt><trkpt lat="45.99160494551083" lon="12.172655268618946"><ele>392.0</ele><time>2026-03-29T12:50:04.001Z</time></trkpt><trkpt lat="45.99150272254899" lon="12.172504203112455"><ele>396.25</ele><time>2026-03-29T12:50:05.001Z</time></trkpt><trkpt lat="45.991392296369796" lon="12.172387185169875"><ele>400.5</ele><time>2026-03-29T12:50:06.001Z</time></trkpt><trkpt lat="45.99127863924525" lon="12.172305044528512"><ele>404.75</ele><time>2026-03-29T12:50:07.001Z</time></trkpt><trkpt lat="45.99115144351499" lon="12.172260193800781"><ele>409.0</ele><time>2026-03-29T12:50:08.001Z</time></trkpt><trkpt lat="45.99101005644831" lon="12.17224295427792"><ele>409.0</ele><time>2026-03-29T12:50:09.001Z</time></trkpt><trkpt lat="45.99085816680909" lon="12.172213646906792"><ele>409.0</ele><time>2026-03-29T12:50:10.001Z</time></trkpt><trkpt lat="45.99071602706873" lon="12.172148885057899"><ele>409.0</ele><time>2026-03-29T12:50:11.001Z</time></trkpt><trkpt lat="45.99058134003758" lon="12.172070835815745"><ele>409.0</ele><time>2026-03-29T12:50:12.001Z</time></trkpt><trkpt lat="45.99044309853882" lon="12.172021622661768"><ele>405.5</ele><time>2026-03-29T12:50:13.001Z</time></trkpt><trkpt lat="45.990304218422274" lon="12.171991948927898"><ele>402.0</ele><time>2026-03-29T12:50:14.001Z</time></trkpt><trkpt lat="45.99016788478594" lon="12.171980220660366"><ele>398.5</ele><time>2026-03-29T12:50:15.001Z</time></trkpt><trkpt lat="45.99003203718414" lon="12.171975708872568"><ele>395.0</ele><time>2026-03-29T12:50:16.001Z</time></trkpt><trkpt lat="45.98990275849472" lon="12.171950528949068"><ele>389.0</ele><time>2026-03-29T12:50:17.001Z</time></trkpt><trkpt lat="45.98977776730893" lon="12.171903032200948"><ele>383.0</ele><time>2026-03-29T12:50:18.001Z</time></trkpt><trkpt lat="45.989655277383854" lon="12.171855216138336"><ele>377.0</ele><time>2026-03-29T12:50:19.001Z</time></trkpt><trkpt lat="45.989533747023366" lon="12.171806105018518"><ele>371.0</ele><time>2026-03-29T12:50:20.001Z</time></trkpt><trkpt lat="45.989419739958635" lon="12.171735618868002"><ele>371.0</ele><time>2026-03-29T12:50:21.001Z</time></trkpt><trkpt lat="45.98930741076189" lon="12.171666442496404"><ele>371.0</ele><time>2026-03-29T12:50:22.001Z</time></trkpt><trkpt lat="45.989200475262955" lon="12.171595208093803"><ele>371.0</ele><time>2026-03-29T12:50:23.001Z</time></trkpt><trkpt lat="45.98909805508043" lon="12.171536196043933"><ele>371.0</ele><time>2026-03-29T12:50:24.001Z</time></trkpt><trkpt lat="45.98900417535412" lon="12.171504879227154"><ele>371.0</ele><time>2026-03-29T12:50:25.001Z</time></trkpt><trkpt lat="45.98892888745643" lon="12.171516080638082"><ele>367.4</ele><time>2026-03-29T12:50:26.001Z</time></trkpt><trkpt lat="45.98888020070727" lon="12.17157380768862"><ele>363.8</ele><time>2026-03-29T12:50:27.001Z</time></trkpt><trkpt lat="45.988874862243215" lon="12.171746775831071"><ele>360.2</ele><time>2026-03-29T12:50:29.001Z</time></trkpt><trkpt lat="45.98892574949416" lon="12.171810835254558"><ele>356.59999999999997</ele><time>2026-03-29T12:50:30.001Z</time></trkpt><trkpt lat="45.98901197784739" lon="12.17184458350057"><ele>353.0</ele><time>2026-03-29T12:50:31.001Z</time></trkpt><trkpt lat="45.9891251972611" lon="12.1718769420903"><ele>359.0</ele><time>2026-03-29T12:50:32.001Z</time></trkpt><trkpt lat="45.98926900208088" lon="12.171934099634623"><ele>365.0</ele><time>2026-03-29T12:50:33.001Z</time></trkpt><trkpt lat="45.98943868106536" lon="12.172012789025473"><ele>371.0</ele><time>2026-03-29T12:50:34.001Z</time></trkpt><trkpt lat="45.989607562737" lon="12.172086147321448"><ele>371.0</ele><time>2026-03-29T12:50:35.001Z</time></trkpt><trkpt lat="45.989757328499934" lon="12.172147416602694"><ele>371.0</ele><time>2026-03-29T12:50:36.001Z</time></trkpt><trkpt lat="45.989898751453744" lon="12.172202025534155"><ele>371.0</ele><time>2026-03-29T12:50:37.001Z</time></trkpt><trkpt lat="45.99003009526312" lon="12.172245296647462"><ele>371.0</ele><time>2026-03-29T12:50:38.001Z</time></trkpt><trkpt lat="45.990147344896556" lon="12.172273439189803"><ele>366.4</ele><time>2026-03-29T12:50:39.001Z</time></trkpt><trkpt lat="45.99024030484517" lon="12.172294425658764"><ele>361.8</ele><time>2026-03-29T12:50:40.001Z</time></trkpt><trkpt lat="45.990306325187014" lon="12.17232362598986"><ele>357.2</ele><time>2026-03-29T12:50:41.001Z</time></trkpt><trkpt lat="45.9903337981164" lon="12.172427753617548"><ele>352.59999999999997</ele><time>2026-03-29T12:50:43.001Z</time></trkpt><trkpt lat="45.99022551607639" lon="12.172508967977736"><ele>348.0</ele><time>2026-03-29T12:50:45.001Z</time></trkpt><trkpt lat="45.99011112472822" lon="12.172481341472203"><ele>346.25</ele><time>2026-03-29T12:50:46.001Z</time></trkpt><trkpt lat="45.989976284828074" lon="12.17245587411502"><ele>344.5</ele><time>2026-03-29T12:50:47.001Z</time></trkpt><trkpt lat="45.98981630794961" lon="12.172427655870935"><ele>342.75</ele><time>2026-03-29T12:50:48.001Z</time></trkpt><trkpt lat="45.98966516403974" lon="12.172404607055402"><ele>341.0</ele><time>2026-03-29T12:50:49.001Z</time></trkpt><trkpt lat="45.98952176732063" lon="12.172379795224508"><ele>341.0</ele><time>2026-03-29T12:50:50.001Z</time></trkpt><trkpt lat="45.98938810917575" lon="12.172367173503208"><ele>341.0</ele><time>2026-03-29T12:50:51.001Z</time></trkpt><trkpt lat="45.9892557022903" lon="12.172373497325781"><ele>341.0</ele><time>2026-03-29T12:50:52.001Z</time></trkpt><trkpt lat="45.98912561515682" lon="12.172404587375482"><ele>341.0</ele><time>2026-03-29T12:50:53.001Z</time></trkpt><trkpt lat="45.988997407038475" lon="12.17243859891536"><ele>337.75</ele><time>2026-03-29T12:50:54.001Z</time></trkpt><trkpt lat="45.98886472177585" lon="12.172461342336911"><ele>334.5</ele><time>2026-03-29T12:50:55.001Z</time></trkpt><trkpt lat="45.98873137607503" lon="12.172478550294374"><ele>331.25</ele><time>2026-03-29T12:50:56.001Z</time></trkpt><trkpt lat="45.988603650299744" lon="12.172490853467322"><ele>328.0</ele><time>2026-03-29T12:50:57.001Z</time></trkpt><trkpt lat="45.98848095262398" lon="12.172494774092687"><ele>328.0</ele><time>2026-03-29T12:50:58.001Z</time></trkpt><trkpt lat="45.988355419416614" lon="12.172497820832639"><ele>328.0</ele><time>2026-03-29T12:50:59.001Z</time></trkpt><trkpt lat="45.9882267360213" lon="12.172491071838396"><ele>328.0</ele><time>2026-03-29T12:51:00.001Z</time></trkpt><trkpt lat="45.9880963859081" lon="12.172466864883738"><ele>328.0</ele><time>2026-03-29T12:51:01.001Z</time></trkpt><trkpt lat="45.987958886613086" lon="12.172409142905279"><ele>329.75</ele><time>2026-03-29T12:51:02.001Z</time></trkpt><trkpt lat="45.987816959337394" lon="12.172344472434046"><ele>331.5</ele><time>2026-03-29T12:51:03.001Z</time></trkpt><trkpt lat="45.98767083561829" lon="12.172291400905605"><ele>333.25</ele><time>2026-03-29T12:51:04Z</time></trkpt><trkpt lat="45.98752671788837" lon="12.172257388289538"><ele>335.0</ele><time>2026-03-29T12:51:05Z</time></trkpt><trkpt lat="45.987385373593945" lon="12.17223853174115"><ele>328.6666666666667</ele><time>2026-03-29T12:51:06Z</time></trkpt><trkpt lat="45.98723275838636" lon="12.172233702685027"><ele>322.3333333333333</ele><time>2026-03-29T12:51:07Z</time></trkpt><trkpt lat="45.98707553435351" lon="12.172238748780096"><ele>316.0</ele><time>2026-03-29T12:51:08Z</time></trkpt><trkpt lat="45.98691763063386" lon="12.17224299228419"><ele>316.0</ele><time>2026-03-29T12:51:09Z</time></trkpt><trkpt lat="45.9867622189594" lon="12.172251351160568"><ele>316.0</ele><time>2026-03-29T12:51:10Z</time></trkpt><trkpt lat="45.986609350040816" lon="12.1722668783287"><ele>316.0</ele><time>2026-03-29T12:51:11Z</time></trkpt><trkpt lat="45.98645863719657" lon="12.172289178533514"><ele>313.0</ele><time>2026-03-29T12:51:12Z</time></trkpt><trkpt lat="45.98630096149683" lon="12.172317518855735"><ele>310.0</ele><time>2026-03-29T12:51:13Z</time></trkpt><trkpt lat="45.98615051880135" lon="12.172354158851155"><ele>307.0</ele><time>2026-03-29T12:51:14Z</time></trkpt><trkpt lat="45.98600534434266" lon="12.172409253090922"><ele>307.0</ele><time>2026-03-29T12:51:15Z</time></trkpt><trkpt lat="45.98584959327708" lon="12.172487404583025"><ele>307.0</ele><time>2026-03-29T12:51:16Z</time></trkpt><trkpt lat="45.98569600746408" lon="12.172569528110627"><ele>307.0</ele><time>2026-03-29T12:51:17Z</time></trkpt><trkpt lat="45.98554748712142" lon="12.17263840732759"><ele>304.66666666666663</ele><time>2026-03-29T12:51:18Z</time></trkpt><trkpt lat="45.98539797600244" lon="12.172688638766124"><ele>302.3333333333333</ele><time>2026-03-29T12:51:19Z</time></trkpt><trkpt lat="45.98524291776408" lon="12.172727944605999"><ele>300.0</ele><time>2026-03-29T12:51:20Z</time></trkpt><trkpt lat="45.98508414715008" lon="12.17276789304942"><ele>297.6666666666667</ele><time>2026-03-29T12:51:21Z</time></trkpt><trkpt lat="45.98493262546315" lon="12.172815571362488"><ele>295.33333333333337</ele><time>2026-03-29T12:51:22Z</time></trkpt><trkpt lat="45.984780007797156" lon="12.172864086466213"><ele>293.0</ele><time>2026-03-29T12:51:23Z</time></trkpt><trkpt lat="45.98462480353583" lon="12.172909277260445"><ele>293.0</ele><time>2026-03-29T12:51:24Z</time></trkpt><trkpt lat="45.98447207485311" lon="12.172951794068716"><ele>293.0</ele><time>2026-03-29T12:51:25Z</time></trkpt><trkpt lat="45.98431359388842" lon="12.172998670297979"><ele>293.0</ele><time>2026-03-29T12:51:26Z</time></trkpt><trkpt lat="45.98413308579563" lon="12.1730515222262"><ele>291.33333333333337</ele><time>2026-03-29T12:51:27Z</time></trkpt><trkpt lat="45.98396923006333" lon="12.17309903860428"><ele>289.6666666666667</ele><time>2026-03-29T12:51:28Z</time></trkpt><trkpt lat="45.9838159303919" lon="12.173152958355447"><ele>288.0</ele><time>2026-03-29T12:51:29Z</time></trkpt><trkpt lat="45.98366887288431" lon="12.173213803440838"><ele>287.75</ele><time>2026-03-29T12:51:30Z</time></trkpt><trkpt lat="45.98352819808886" lon="12.17326742540189"><ele>287.5</ele><time>2026-03-29T12:51:31Z</time></trkpt><trkpt lat="45.983399276110354" lon="12.17331437080289"><ele>287.25</ele><time>2026-03-29T12:51:32Z</time></trkpt><trkpt lat="45.98327994046147" lon="12.173359072012518"><ele>287.0</ele><time>2026-03-29T12:51:33Z</time></trkpt><trkpt lat="45.983163634686406" lon="12.173404338599823"><ele>286.0</ele><time>2026-03-29T12:51:34Z</time></trkpt><trkpt lat="45.983052972481495" lon="12.173454381732165"><ele>285.0</ele><time>2026-03-29T12:51:35Z</time></trkpt><trkpt lat="45.9829472721789" lon="12.173501234013148"><ele>284.0</ele><time>2026-03-29T12:51:36Z</time></trkpt><trkpt lat="45.98284480271912" lon="12.173545584292867"><ele>283.0</ele><time>2026-03-29T12:51:37Z</time></trkpt><trkpt lat="45.98274440409846" lon="12.173585572152392"><ele>282.0</ele><time>2026-03-29T12:51:38Z</time></trkpt><trkpt lat="45.98264786027358" lon="12.173625298267565"><ele>282.0</ele><time>2026-03-29T12:51:39Z</time></trkpt><trkpt lat="45.98255491608736" lon="12.173666499526288"><ele>282.0</ele><time>2026-03-29T12:51:40Z</time></trkpt><trkpt lat="45.98246332411342" lon="12.173700817048797"><ele>282.0</ele><time>2026-03-29T12:51:41Z</time></trkpt><trkpt lat="45.98237531795248" lon="12.173733927945753"><ele>282.0</ele><time>2026-03-29T12:51:42Z</time></trkpt><trkpt lat="45.98228906695738" lon="12.173767220666553"><ele>282.0</ele><time>2026-03-29T12:51:43Z</time></trkpt><trkpt lat="45.982204801593014" lon="12.173799457855797"><ele>280.5</ele><time>2026-03-29T12:51:44Z</time></trkpt><trkpt lat="45.982122293321424" lon="12.173834165399521"><ele>279.0</ele><time>2026-03-29T12:51:45Z</time></trkpt><trkpt lat="45.98204166259987" lon="12.173866277607022"><ele>277.5</ele><time>2026-03-29T12:51:46Z</time></trkpt><trkpt lat="45.98196403047472" lon="12.17389548060035"><ele>276.0</ele><time>2026-03-29T12:51:47Z</time></trkpt><trkpt lat="45.98188852691792" lon="12.173924531954789"><ele>274.5</ele><time>2026-03-29T12:51:48Z</time></trkpt><trkpt lat="45.98181405197653" lon="12.173955467376295"><ele>273.0</ele><time>2026-03-29T12:51:49Z</time></trkpt><trkpt lat="45.9817410343321" lon="12.17398461623694"><ele>273.1666666666667</ele><time>2026-03-29T12:51:50Z</time></trkpt><trkpt lat="45.98167014437125" lon="12.17401813478938"><ele>273.3333333333333</ele><time>2026-03-29T12:51:51Z</time></trkpt><trkpt lat="45.98159603379156" lon="12.174047442037587"><ele>273.5</ele><time>2026-03-29T12:51:52Z</time></trkpt><trkpt lat="45.98151960786299" lon="12.174079617587221"><ele>273.66666666666663</ele><time>2026-03-29T12:51:53Z</time></trkpt><trkpt lat="45.98142865161515" lon="12.17411498683766"><ele>273.8333333333333</ele><time>2026-03-29T12:51:54Z</time></trkpt><trkpt lat="45.981338061807016" lon="12.174152685641658"><ele>274.0</ele><time>2026-03-29T12:51:55Z</time></trkpt><trkpt lat="45.981241712703735" lon="12.174191106747921"><ele>274.0</ele><time>2026-03-29T12:51:56Z</time></trkpt><trkpt lat="45.981148918104495" lon="12.174230505218103"><ele>274.0</ele><time>2026-03-29T12:51:57Z</time></trkpt><trkpt lat="45.98105060659012" lon="12.174269110759177"><ele>274.0</ele><time>2026-03-29T12:51:58Z</time></trkpt><trkpt lat="45.980943637916106" lon="12.17431171371505"><ele>274.0</ele><time>2026-03-29T12:51:59Z</time></trkpt><trkpt lat="45.980839405211086" lon="12.174355983698929"><ele>274.0</ele><time>2026-03-29T12:52:00Z</time></trkpt><trkpt lat="45.98073969609792" lon="12.174394011003631"><ele>273.2</ele><time>2026-03-29T12:52:01Z</time></trkpt><trkpt lat="45.980642855990645" lon="12.174436017900074"><ele>272.4</ele><time>2026-03-29T12:52:02Z</time></trkpt><trkpt lat="45.980545890523075" lon="12.174474587645449"><ele>271.6</ele><time>2026-03-29T12:52:03Z</time></trkpt><trkpt lat="45.98045214368802" lon="12.17451362277482"><ele>270.8</ele><time>2026-03-29T12:52:04Z</time></trkpt><trkpt lat="45.98036300650399" lon="12.174548073983047"><ele>270.0</ele><time>2026-03-29T12:52:05Z</time></trkpt><trkpt lat="45.980276994885976" lon="12.174583179099985"><ele>270.0</ele><time>2026-03-29T12:52:06Z</time></trkpt><trkpt lat="45.980193444639994" lon="12.174622495153063"><ele>270.0</ele><time>2026-03-29T12:52:07Z</time></trkpt><trkpt lat="45.98010923378247" lon="12.174660574907085"><ele>270.0</ele><time>2026-03-29T12:52:08.001Z</time></trkpt><trkpt lat="45.98002677932689" lon="12.174695132694826"><ele>270.0</ele><time>2026-03-29T12:52:09.001Z</time></trkpt><trkpt lat="45.97994765688989" lon="12.174735111944889"><ele>270.0</ele><time>2026-03-29T12:52:10.001Z</time></trkpt><trkpt lat="45.97986912202989" lon="12.174770637781512"><ele>270.0</ele><time>2026-03-29T12:52:11.001Z</time></trkpt><trkpt lat="45.97979061997304" lon="12.174802049503603"><ele>269.42857142857144</ele><time>2026-03-29T12:52:12.001Z</time></trkpt><trkpt lat="45.979715318616215" lon="12.174830018521012"><ele>268.85714285714283</ele><time>2026-03-29T12:52:13.001Z</time></trkpt><trkpt lat="45.97964045994279" lon="12.174854786081166"><ele>268.2857142857143</ele><time>2026-03-29T12:52:14.001Z</time></trkpt><trkpt lat="45.97956445228594" lon="12.17487708421643"><ele>267.7142857142857</ele><time>2026-03-29T12:52:15.001Z</time></trkpt><trkpt lat="45.979494966453174" lon="12.174903247850652"><ele>267.1428571428571</ele><time>2026-03-29T12:52:16.001Z</time></trkpt><trkpt lat="45.97942554046715" lon="12.17492695470606"><ele>266.57142857142856</ele><time>2026-03-29T12:52:17.001Z</time></trkpt><trkpt lat="45.97935455935821" lon="12.174942715110943"><ele>266.0</ele><time>2026-03-29T12:52:18.001Z</time></trkpt><trkpt lat="45.97928330440699" lon="12.174950259242685"><ele>265.85714285714283</ele><time>2026-03-29T12:52:19.001Z</time></trkpt><trkpt lat="45.97921357937705" lon="12.174948728999524"><ele>265.7142857142857</ele><time>2026-03-29T12:52:20.001Z</time></trkpt><trkpt lat="45.97914431923485" lon="12.17495078309823"><ele>265.57142857142856</ele><time>2026-03-29T12:52:21.001Z</time></trkpt><trkpt lat="45.979074397667254" lon="12.174948990704031"><ele>265.42857142857144</ele><time>2026-03-29T12:52:22.001Z</time></trkpt><trkpt lat="45.979004915511375" lon="12.174942270757503"><ele>265.2857142857143</ele><time>2026-03-29T12:52:23.001Z</time></trkpt><trkpt lat="45.97893595424061" lon="12.174933506661082"><ele>265.1428571428571</ele><time>2026-03-29T12:52:24.001Z</time></trkpt><trkpt lat="45.97886381723976" lon="12.174912825675301"><ele>265.0</ele><time>2026-03-29T12:52:25.001Z</time></trkpt><trkpt lat="45.97878835958638" lon="12.174895026723076"><ele>264.16666666666663</ele><time>2026-03-29T12:52:26.001Z</time></trkpt><trkpt lat="45.97871015970651" lon="12.174881306945924"><ele>263.3333333333333</ele><time>2026-03-29T12:52:27.001Z</time></trkpt><trkpt lat="45.97862998954467" lon="12.174864611308827"><ele>262.5</ele><time>2026-03-29T12:52:28.001Z</time></trkpt><trkpt lat="45.97854765694177" lon="12.17484134159017"><ele>261.6666666666667</ele><time>2026-03-29T12:52:29.001Z</time></trkpt><trkpt lat="45.97846347841291" lon="12.174821132889846"><ele>260.83333333333337</ele><time>2026-03-29T12:52:30.001Z</time></trkpt><trkpt lat="45.97837988177359" lon="12.174795491359289"><ele>260.0</ele><time>2026-03-29T12:52:31.001Z</time></trkpt><trkpt lat="45.97829500342751" lon="12.174773717642283"><ele>259.4</ele><time>2026-03-29T12:52:32.001Z</time></trkpt><trkpt lat="45.978205572526996" lon="12.174756829611528"><ele>258.8</ele><time>2026-03-29T12:52:33.001Z</time></trkpt><trkpt lat="45.97812158579153" lon="12.174746496690549"><ele>258.2</ele><time>2026-03-29T12:52:34.001Z</time></trkpt><trkpt lat="45.97802916408942" lon="12.174742033983625"><ele>257.6</ele><time>2026-03-29T12:52:35.001Z</time></trkpt><trkpt lat="45.97793504022289" lon="12.174733752712102"><ele>257.0</ele><time>2026-03-29T12:52:36.001Z</time></trkpt><trkpt lat="45.97784482165112" lon="12.17472650904075"><ele>257.0</ele><time>2026-03-29T12:52:37.001Z</time></trkpt><trkpt lat="45.97775977174484" lon="12.174729714353996"><ele>257.0</ele><time>2026-03-29T12:52:38.001Z</time></trkpt><trkpt lat="45.977678179271706" lon="12.174756329204905"><ele>257.0</ele><time>2026-03-29T12:52:39.001Z</time></trkpt><trkpt lat="45.97759196638475" lon="12.174773648407333"><ele>257.0</ele><time>2026-03-29T12:52:40.001Z</time></trkpt><trkpt lat="45.977506246406" lon="12.174791277208138"><ele>257.0</ele><time>2026-03-29T12:52:41.001Z</time></trkpt><trkpt lat="45.97741992229971" lon="12.174802962803039"><ele>257.0</ele><time>2026-03-29T12:52:42.001Z</time></trkpt><trkpt lat="45.97733323423404" lon="12.174812921432137"><ele>256.8</ele><time>2026-03-29T12:52:43.001Z</time></trkpt><trkpt lat="45.97724516481515" lon="12.174821701512654"><ele>256.6</ele><time>2026-03-29T12:52:44.001Z</time></trkpt><trkpt lat="45.977155646368395" lon="12.174825908211735"><ele>256.40000000000003</ele><time>2026-03-29T12:52:45.001Z</time></trkpt><trkpt lat="45.9770649283854" lon="12.1748300567662"><ele>256.2</ele><time>2026-03-29T12:52:46.001Z</time></trkpt><trkpt lat="45.97697192067286" lon="12.17484233167695"><ele>256.0</ele><time>2026-03-29T12:52:47.001Z</time></trkpt><trkpt lat="45.97687916402727" lon="12.17485396361768"><ele>255.0</ele><time>2026-03-29T12:52:48.001Z</time></trkpt><trkpt lat="45.97678613498572" lon="12.174879572184896"><ele>254.00000000000003</ele><time>2026-03-29T12:52:49.001Z</time></trkpt><trkpt lat="45.97669280443495" lon="12.174911863303455"><ele>253.00000000000003</ele><time>2026-03-29T12:52:50.001Z</time></trkpt><trkpt lat="45.97659942629417" lon="12.174954675954043"><ele>252.0</ele><time>2026-03-29T12:52:51.001Z</time></trkpt><trkpt lat="45.97650379998441" lon="12.175001364082252"><ele>251.0</ele><time>2026-03-29T12:52:52.001Z</time></trkpt><trkpt lat="45.97640075180755" lon="12.175047366853772"><ele>250.8</ele><time>2026-03-29T12:52:53.001Z</time></trkpt><trkpt lat="45.97629712801704" lon="12.17509541331879"><ele>250.60000000000002</ele><time>2026-03-29T12:52:54.001Z</time></trkpt><trkpt lat="45.97619148027325" lon="12.175143232808935"><ele>250.4</ele><time>2026-03-29T12:52:55.001Z</time></trkpt><trkpt lat="45.976082850113904" lon="12.175189922003376"><ele>250.2</ele><time>2026-03-29T12:52:56.001Z</time></trkpt><trkpt lat="45.9759713186047" lon="12.17523158649889"><ele>250.0</ele><time>2026-03-29T12:52:57.001Z</time></trkpt><trkpt lat="45.97585466320747" lon="12.175267104064277"><ele>248.5</ele><time>2026-03-29T12:52:58.001Z</time></trkpt><trkpt lat="45.97573486603676" lon="12.175296776545132"><ele>247.0</ele><time>2026-03-29T12:52:59.001Z</time></trkpt><trkpt lat="45.9756153109824" lon="12.175323833267257"><ele>245.5</ele><time>2026-03-29T12:53:00.001Z</time></trkpt><trkpt lat="45.97549453278661" lon="12.175345718821122"><ele>244.0</ele><time>2026-03-29T12:53:01.001Z</time></trkpt><trkpt lat="45.97537342412898" lon="12.175363390235159"><ele>244.0</ele><time>2026-03-29T12:53:02.001Z</time></trkpt><trkpt lat="45.97525605292114" lon="12.175380845413777"><ele>243.99999999999997</ele><time>2026-03-29T12:53:03.001Z</time></trkpt><trkpt lat="45.975145360805236" lon="12.175397102516369"><ele>243.99999999999997</ele><time>2026-03-29T12:53:04.001Z</time></trkpt><trkpt lat="45.97503902955996" lon="12.17541467409223"><ele>244.0</ele><time>2026-03-29T12:53:05.001Z</time></trkpt><trkpt lat="45.97493788582498" lon="12.175434223321837"><ele>244.0</ele><time>2026-03-29T12:53:06.001Z</time></trkpt><trkpt lat="45.97484181002825" lon="12.17545001852037"><ele>243.6</ele><time>2026-03-29T12:53:07.001Z</time></trkpt><trkpt lat="45.97474824318326" lon="12.175474500731656"><ele>243.2</ele><time>2026-03-29T12:53:08.001Z</time></trkpt><trkpt lat="45.9746557491639" lon="12.175514510521383"><ele>242.79999999999998</ele><time>2026-03-29T12:53:09Z</time></trkpt><trkpt lat="45.97456133386023" lon="12.17556828268597"><ele>242.39999999999998</ele><time>2026-03-29T12:53:10Z</time></trkpt><trkpt lat="45.974469757810326" lon="12.175644392829845"><ele>242.0</ele><time>2026-03-29T12:53:11Z</time></trkpt><trkpt lat="45.97438044757772" lon="12.1757319599487"><ele>241.6</ele><time>2026-03-29T12:53:12Z</time></trkpt><trkpt lat="45.97429446149782" lon="12.175831197148838"><ele>241.2</ele><time>2026-03-29T12:53:13Z</time></trkpt><trkpt lat="45.97421625499002" lon="12.175943851254406"><ele>240.8</ele><time>2026-03-29T12:53:14Z</time></trkpt><trkpt lat="45.974140422004744" lon="12.176065339080045"><ele>240.4</ele><time>2026-03-29T12:53:15Z</time></trkpt><trkpt lat="45.9740732170588" lon="12.176191357576846"><ele>240.0</ele><time>2026-03-29T12:53:16Z</time></trkpt><trkpt lat="45.97401810370653" lon="12.176347288421507"><ele>239.0</ele><time>2026-03-29T12:53:17Z</time></trkpt><trkpt lat="45.97397333607127" lon="12.176508577516598"><ele>238.0</ele><time>2026-03-29T12:53:18Z</time></trkpt><trkpt lat="45.9739396824614" lon="12.176676927581235"><ele>237.0</ele><time>2026-03-29T12:53:19Z</time></trkpt><trkpt lat="45.97392553115042" lon="12.176854625107197"><ele>236.0</ele><time>2026-03-29T12:53:20Z</time></trkpt><trkpt lat="45.97393139182109" lon="12.177040903233216"><ele>236.0</ele><time>2026-03-29T12:53:21Z</time></trkpt><trkpt lat="45.97395363126951" lon="12.17723001417666"><ele>236.0</ele><time>2026-03-29T12:53:22Z</time></trkpt><trkpt lat="45.97398251182318" lon="12.177421353228914"><ele>236.0</ele><time>2026-03-29T12:53:23Z</time></trkpt><trkpt lat="45.97401116027328" lon="12.177616608414457"><ele>236.0</ele><time>2026-03-29T12:53:24Z</time></trkpt><trkpt lat="45.97403841554716" lon="12.17781600644057"><ele>236.0</ele><time>2026-03-29T12:53:25Z</time></trkpt><trkpt lat="45.97406711229061" lon="12.178020799660281"><ele>236.0</ele><time>2026-03-29T12:53:26Z</time></trkpt><trkpt lat="45.97409742154301" lon="12.178230617289575"><ele>236.0</ele><time>2026-03-29T12:53:27Z</time></trkpt><trkpt lat="45.97412992774568" lon="12.178443768193404"><ele>236.0</ele><time>2026-03-29T12:53:28Z</time></trkpt><trkpt lat="45.97416112124789" lon="12.178665981508631"><ele>236.33333333333334</ele><time>2026-03-29T12:53:29Z</time></trkpt><trkpt lat="45.9741912592833" lon="12.178890616387712"><ele>236.66666666666669</ele><time>2026-03-29T12:53:30Z</time></trkpt><trkpt lat="45.97422280728082" lon="12.179119019662611"><ele>237.0</ele><time>2026-03-29T12:53:31Z</time></trkpt><trkpt lat="45.97425371315244" lon="12.179350359124053"><ele>237.0</ele><time>2026-03-29T12:53:32Z</time></trkpt><trkpt lat="45.974284913652994" lon="12.179582073174851"><ele>237.0</ele><time>2026-03-29T12:53:33Z</time></trkpt><trkpt lat="45.97431639461185" lon="12.179816708699676"><ele>237.0</ele><time>2026-03-29T12:53:34Z</time></trkpt><trkpt lat="45.97435133298407" lon="12.180050978030867"><ele>236.0</ele><time>2026-03-29T12:53:35Z</time></trkpt><trkpt lat="45.974385391008354" lon="12.180287052947072"><ele>235.0</ele><time>2026-03-29T12:53:36Z</time></trkpt><trkpt lat="45.97441895551682" lon="12.18050952863551"><ele>234.0</ele><time>2026-03-29T12:53:37Z</time></trkpt><trkpt lat="45.97445027387718" lon="12.180722422714252"><ele>233.5</ele><time>2026-03-29T12:53:38Z</time></trkpt><trkpt lat="45.97448007802148" lon="12.180927799731155"><ele>233.0</ele><time>2026-03-29T12:53:39Z</time></trkpt><trkpt lat="45.97450977551355" lon="12.181130208313583"><ele>232.5</ele><time>2026-03-29T12:53:40Z</time></trkpt><trkpt lat="45.97454032279011" lon="12.181341258917907"><ele>232.0</ele><time>2026-03-29T12:53:41Z</time></trkpt><trkpt lat="45.97456908984404" lon="12.18155281073485"><ele>231.66666666666666</ele><time>2026-03-29T12:53:42Z</time></trkpt><trkpt lat="45.97459956803702" lon="12.181765994591634"><ele>231.33333333333331</ele><time>2026-03-29T12:53:43Z</time></trkpt><trkpt lat="45.97463090670805" lon="12.18198090163159"><ele>231.0</ele><time>2026-03-29T12:53:44Z</time></trkpt><trkpt lat="45.97466161906451" lon="12.182196082789112"><ele>232.66666666666669</ele><time>2026-03-29T12:53:45Z</time></trkpt><trkpt lat="45.97469334297273" lon="12.18241468921409"><ele>234.33333333333334</ele><time>2026-03-29T12:53:46Z</time></trkpt><trkpt lat="45.97472554889405" lon="12.182633289887319"><ele>236.0</ele><time>2026-03-29T12:53:47Z</time></trkpt><trkpt lat="45.97475565041327" lon="12.182852768859794"><ele>236.0</ele><time>2026-03-29T12:53:48Z</time></trkpt><trkpt lat="45.97478692847486" lon="12.183073730446798"><ele>236.0</ele><time>2026-03-29T12:53:49Z</time></trkpt><trkpt lat="45.97481738027464" lon="12.183296156847783"><ele>236.0</ele><time>2026-03-29T12:53:50Z</time></trkpt><trkpt lat="45.97484865690424" lon="12.183519637049082"><ele>235.66666666666669</ele><time>2026-03-29T12:53:51Z</time></trkpt><trkpt lat="45.97487884885578" lon="12.183744114099655"><ele>235.33333333333331</ele><time>2026-03-29T12:53:52Z</time></trkpt><trkpt lat="45.97490939088925" lon="12.183967130709833"><ele>235.0</ele><time>2026-03-29T12:53:53Z</time></trkpt><trkpt lat="45.97494144854465" lon="12.184191545264396"><ele>235.0</ele><time>2026-03-29T12:53:54Z</time></trkpt><trkpt lat="45.97497478640489" lon="12.18441752979525"><ele>235.0</ele><time>2026-03-29T12:53:55Z</time></trkpt><trkpt lat="45.975007037422706" lon="12.18464285983901"><ele>235.0</ele><time>2026-03-29T12:53:56Z</time></trkpt><trkpt lat="45.975040349622596" lon="12.184869153230968"><ele>239.0</ele><time>2026-03-29T12:53:57Z</time></trkpt><trkpt lat="45.97507618401419" lon="12.1850916939036"><ele>243.0</ele><time>2026-03-29T12:53:58Z</time></trkpt><trkpt lat="45.975114784732604" lon="12.18531513936495"><ele>247.0</ele><time>2026-03-29T12:53:59Z</time></trkpt><trkpt lat="45.97516029358387" lon="12.185535034844042"><ele>245.0</ele><time>2026-03-29T12:54:00Z</time></trkpt><trkpt lat="45.97521271701029" lon="12.185751001860758"><ele>243.0</ele><time>2026-03-29T12:54:01Z</time></trkpt><trkpt lat="45.975272177310345" lon="12.185964120812606"><ele>241.0</ele><time>2026-03-29T12:54:02Z</time></trkpt><trkpt lat="45.97533904632166" lon="12.186174233433064"><ele>241.0</ele><time>2026-03-29T12:54:03Z</time></trkpt><trkpt lat="45.975413495380145" lon="12.186378079407914"><ele>241.0</ele><time>2026-03-29T12:54:04Z</time></trkpt><trkpt lat="45.97549266806965" lon="12.186578767525889"><ele>241.0</ele><time>2026-03-29T12:54:05Z</time></trkpt><trkpt lat="45.97557193442033" lon="12.186777919889863"><ele>237.66666666666666</ele><time>2026-03-29T12:54:06Z</time></trkpt><trkpt lat="45.975653469531295" lon="12.186974445125133"><ele>234.33333333333331</ele><time>2026-03-29T12:54:07Z</time></trkpt><trkpt lat="45.9757402963352" lon="12.187169013726583"><ele>231.0</ele><time>2026-03-29T12:54:08Z</time></trkpt><trkpt lat="45.97582478804451" lon="12.187367045218503"><ele>234.0</ele><time>2026-03-29T12:54:09Z</time></trkpt><trkpt lat="45.97590724291587" lon="12.18756427798022"><ele>237.0</ele><time>2026-03-29T12:54:10Z</time></trkpt><trkpt lat="45.97599157048769" lon="12.187760327829828"><ele>240.0</ele><time>2026-03-29T12:54:11Z</time></trkpt><trkpt lat="45.97607465826046" lon="12.187957564542607"><ele>240.0</ele><time>2026-03-29T12:54:12Z</time></trkpt><trkpt lat="45.97615718776255" lon="12.188155798082272"><ele>240.0</ele><time>2026-03-29T12:54:13Z</time></trkpt><trkpt lat="45.976240253419" lon="12.188356992680724"><ele>240.0</ele><time>2026-03-29T12:54:14Z</time></trkpt><trkpt lat="45.97632425563092" lon="12.188557086622028"><ele>237.66666666666669</ele><time>2026-03-29T12:54:15Z</time></trkpt><trkpt lat="45.976410698791796" lon="12.188751946376254"><ele>235.33333333333334</ele><time>2026-03-29T12:54:16Z</time></trkpt><trkpt lat="45.97649505793224" lon="12.188951795334454"><ele>233.0</ele><time>2026-03-29T12:54:17Z</time></trkpt><trkpt lat="45.97657821763936" lon="12.189154807106338"><ele>231.66666666666669</ele><time>2026-03-29T12:54:18Z</time></trkpt><trkpt lat="45.97665820983782" lon="12.189363084719751"><ele>230.33333333333331</ele><time>2026-03-29T12:54:19Z</time></trkpt><trkpt lat="45.97673120225181" lon="12.189575045720204"><ele>229.0</ele><time>2026-03-29T12:54:20Z</time></trkpt><trkpt lat="45.97680070833306" lon="12.189790627852231"><ele>230.0</ele><time>2026-03-29T12:54:21Z</time></trkpt><trkpt lat="45.9768670481688" lon="12.190010733635093"><ele>231.0</ele><time>2026-03-29T12:54:22Z</time></trkpt><trkpt lat="45.9769287144991" lon="12.190232965331669"><ele>232.0</ele><time>2026-03-29T12:54:23Z</time></trkpt><trkpt lat="45.97699055258561" lon="12.19045689556107"><ele>230.0</ele><time>2026-03-29T12:54:24.001Z</time></trkpt><trkpt lat="45.977059828959284" lon="12.19068390356853"><ele>228.0</ele><time>2026-03-29T12:54:25.001Z</time></trkpt><trkpt lat="45.97712686557453" lon="12.190907020539182"><ele>226.0</ele><time>2026-03-29T12:54:26.001Z</time></trkpt><trkpt lat="45.97719153938178" lon="12.191131028283205"><ele>226.0</ele><time>2026-03-29T12:54:27.001Z</time></trkpt><trkpt lat="45.97725754067434" lon="12.191347705587338"><ele>226.0</ele><time>2026-03-29T12:54:28.001Z</time></trkpt><trkpt lat="45.97732308275437" lon="12.191558972073704"><ele>226.0</ele><time>2026-03-29T12:54:29.001Z</time></trkpt><trkpt lat="45.97738955359583" lon="12.191774432748616"><ele>226.66666666666666</ele><time>2026-03-29T12:54:30.001Z</time></trkpt><trkpt lat="45.97745347538164" lon="12.191991667829184"><ele>227.33333333333331</ele><time>2026-03-29T12:54:31.001Z</time></trkpt><trkpt lat="45.97751814721876" lon="12.192208216702749"><ele>228.0</ele><time>2026-03-29T12:54:32.001Z</time></trkpt><trkpt lat="45.97758073505678" lon="12.192427296049525"><ele>229.33333333333331</ele><time>2026-03-29T12:54:33.001Z</time></trkpt><trkpt lat="45.97764610563347" lon="12.192644902885858"><ele>230.66666666666666</ele><time>2026-03-29T12:54:34.001Z</time></trkpt><trkpt lat="45.97770788710638" lon="12.192864691907031"><ele>232.0</ele><time>2026-03-29T12:54:35.001Z</time></trkpt><trkpt lat="45.97777634883299" lon="12.193082617824443"><ele>231.66666666666666</ele><time>2026-03-29T12:54:36.001Z</time></trkpt><trkpt lat="45.977841243902986" lon="12.193299255322223"><ele>231.33333333333331</ele><time>2026-03-29T12:54:37.001Z</time></trkpt><trkpt lat="45.97790778493784" lon="12.193513880155544"><ele>231.0</ele><time>2026-03-29T12:54:38.001Z</time></trkpt><trkpt lat="45.97797146033759" lon="12.19372767278622"><ele>231.0</ele><time>2026-03-29T12:54:39.001Z</time></trkpt><trkpt lat="45.97803636090919" lon="12.193936517116965"><ele>231.0</ele><time>2026-03-29T12:54:40.001Z</time></trkpt><trkpt lat="45.978099881092014" lon="12.194142331589735"><ele>231.0</ele><time>2026-03-29T12:54:41.001Z</time></trkpt><trkpt lat="45.97816241124666" lon="12.19434516592382"><ele>230.66666666666669</ele><time>2026-03-29T12:54:42.001Z</time></trkpt><trkpt lat="45.97822506895016" lon="12.194545286428733"><ele>230.33333333333334</ele><time>2026-03-29T12:54:43.001Z</time></trkpt><trkpt lat="45.97828748062881" lon="12.194745870445567"><ele>230.0</ele><time>2026-03-29T12:54:44.001Z</time></trkpt><trkpt lat="45.97835128820914" lon="12.19494517031144"><ele>230.33333333333334</ele><time>2026-03-29T12:54:45.001Z</time></trkpt><trkpt lat="45.97841411963195" lon="12.195147379015845"><ele>230.66666666666669</ele><time>2026-03-29T12:54:46.001Z</time></trkpt><trkpt lat="45.978474347341034" lon="12.195355759876172"><ele>231.0</ele><time>2026-03-29T12:54:47.001Z</time></trkpt><trkpt lat="45.97853439229695" lon="12.195564940593709"><ele>229.66666666666669</ele><time>2026-03-29T12:54:48.001Z</time></trkpt><trkpt lat="45.9785982273164" lon="12.195778123561722"><ele>228.33333333333334</ele><time>2026-03-29T12:54:49.001Z</time></trkpt><trkpt lat="45.97866583584127" lon="12.195991239997714"><ele>227.0</ele><time>2026-03-29T12:54:50.001Z</time></trkpt><trkpt lat="45.97873487200474" lon="12.196205358199073"><ele>227.0</ele><time>2026-03-29T12:54:51.001Z</time></trkpt><trkpt lat="45.97880939118927" lon="12.196417549161884"><ele>227.0</ele><time>2026-03-29T12:54:52.001Z</time></trkpt><trkpt lat="45.978890164931734" lon="12.196627223245507"><ele>227.0</ele><time>2026-03-29T12:54:53.001Z</time></trkpt><trkpt lat="45.97897283553414" lon="12.19683501153228"><ele>226.66666666666669</ele><time>2026-03-29T12:54:54.001Z</time></trkpt><trkpt lat="45.97905654770865" lon="12.19703903032958"><ele>226.33333333333331</ele><time>2026-03-29T12:54:55.001Z</time></trkpt><trkpt lat="45.979142461365925" lon="12.19724110940026"><ele>226.0</ele><time>2026-03-29T12:54:56.001Z</time></trkpt><trkpt lat="45.979231011151114" lon="12.197438929893014"><ele>227.33333333333331</ele><time>2026-03-29T12:54:57.001Z</time></trkpt><trkpt lat="45.97931796037782" lon="12.197634047246874"><ele>228.66666666666669</ele><time>2026-03-29T12:54:58.001Z</time></trkpt><trkpt lat="45.979404974212436" lon="12.197828241965729"><ele>230.0</ele><time>2026-03-29T12:54:59.001Z</time></trkpt><trkpt lat="45.97949069440901" lon="12.19802726240188"><ele>230.0</ele><time>2026-03-29T12:55:00.001Z</time></trkpt><trkpt lat="45.97957894905431" lon="12.19822601807112"><ele>230.0</ele><time>2026-03-29T12:55:01.001Z</time></trkpt><trkpt lat="45.97966725139963" lon="12.198425956640158"><ele>230.0</ele><time>2026-03-29T12:55:02.001Z</time></trkpt><trkpt lat="45.97975740425074" lon="12.198629152411208"><ele>230.0</ele><time>2026-03-29T12:55:03.001Z</time></trkpt><trkpt lat="45.97984763954779" lon="12.198832203073165"><ele>230.0</ele><time>2026-03-29T12:55:04.001Z</time></trkpt><trkpt lat="45.97993725806503" lon="12.199038428586222"><ele>230.0</ele><time>2026-03-29T12:55:05.001Z</time></trkpt><trkpt lat="45.980026147927255" lon="12.199248663749614"><ele>230.66666666666669</ele><time>2026-03-29T12:55:06.001Z</time></trkpt><trkpt lat="45.980117244065895" lon="12.199456529198"><ele>231.33333333333331</ele><time>2026-03-29T12:55:07.001Z</time></trkpt><trkpt lat="45.98021025958135" lon="12.19966501743735"><ele>232.0</ele><time>2026-03-29T12:55:08.001Z</time></trkpt><trkpt lat="45.98030214080596" lon="12.199872196027508"><ele>232.0</ele><time>2026-03-29T12:55:09.001Z</time></trkpt><trkpt lat="45.98039376326613" lon="12.200078147125494"><ele>232.0</ele><time>2026-03-29T12:55:10.001Z</time></trkpt><trkpt lat="45.980486594496234" lon="12.200285806421938"><ele>232.0</ele><time>2026-03-29T12:55:11.001Z</time></trkpt><trkpt lat="45.980578946955674" lon="12.200494226968265"><ele>230.66666666666666</ele><time>2026-03-29T12:55:12.001Z</time></trkpt><trkpt lat="45.98066954601061" lon="12.200703825102202"><ele>229.33333333333331</ele><time>2026-03-29T12:55:13.001Z</time></trkpt><trkpt lat="45.98076274169904" lon="12.200912014182174"><ele>228.0</ele><time>2026-03-29T12:55:14.001Z</time></trkpt><trkpt lat="45.98085283517123" lon="12.201122061852638"><ele>229.66666666666669</ele><time>2026-03-29T12:55:15Z</time></trkpt><trkpt lat="45.980945696069114" lon="12.201331234259015"><ele>231.33333333333334</ele><time>2026-03-29T12:55:16Z</time></trkpt><trkpt lat="45.98103691729296" lon="12.201542007466184"><ele>233.0</ele><time>2026-03-29T12:55:17Z</time></trkpt><trkpt lat="45.98112745806464" lon="12.201755767209509"><ele>233.0</ele><time>2026-03-29T12:55:18Z</time></trkpt><trkpt lat="45.98121639297524" lon="12.201971164493495"><ele>233.0</ele><time>2026-03-29T12:55:19Z</time></trkpt><trkpt lat="45.98130147315957" lon="12.202193739037378"><ele>233.0</ele><time>2026-03-29T12:55:20Z</time></trkpt><trkpt lat="45.981376621142005" lon="12.202420654401468"><ele>233.0</ele><time>2026-03-29T12:55:21Z</time></trkpt><trkpt lat="45.98144149157348" lon="12.202657947530767"><ele>233.0</ele><time>2026-03-29T12:55:22Z</time></trkpt><trkpt lat="45.98150143650534" lon="12.202892175346815"><ele>233.0</ele><time>2026-03-29T12:55:23Z</time></trkpt><trkpt lat="45.981566612175705" lon="12.203130359323382"><ele>233.0</ele><time>2026-03-29T12:55:24Z</time></trkpt><trkpt lat="45.981634191842026" lon="12.203369327925916"><ele>233.0</ele><time>2026-03-29T12:55:25Z</time></trkpt><trkpt lat="45.98170181599193" lon="12.20360495837029"><ele>233.0</ele><time>2026-03-29T12:55:26Z</time></trkpt><trkpt lat="45.98177070645471" lon="12.203844065066853"><ele>235.0</ele><time>2026-03-29T12:55:27Z</time></trkpt><trkpt lat="45.98184262014771" lon="12.204079215404793"><ele>237.0</ele><time>2026-03-29T12:55:28Z</time></trkpt><trkpt lat="45.981911720208785" lon="12.204318685443358"><ele>239.0</ele><time>2026-03-29T12:55:29Z</time></trkpt><trkpt lat="45.98197690138411" lon="12.204556664972758"><ele>239.0</ele><time>2026-03-29T12:55:30Z</time></trkpt><trkpt lat="45.982043165069655" lon="12.20479835443123"><ele>239.0</ele><time>2026-03-29T12:55:31Z</time></trkpt><trkpt lat="45.98210985317639" lon="12.205040522745009"><ele>239.0</ele><time>2026-03-29T12:55:32Z</time></trkpt><trkpt lat="45.98217622526333" lon="12.205284081222135"><ele>238.0</ele><time>2026-03-29T12:55:33Z</time></trkpt><trkpt lat="45.982242058919105" lon="12.205524594417783"><ele>237.0</ele><time>2026-03-29T12:55:34Z</time></trkpt><trkpt lat="45.982305332206245" lon="12.205753386053216"><ele>236.0</ele><time>2026-03-29T12:55:35Z</time></trkpt><trkpt lat="45.982367836436914" lon="12.205989102601837"><ele>236.0</ele><time>2026-03-29T12:55:36Z</time></trkpt><trkpt lat="45.98243498260566" lon="12.206219708891938"><ele>236.0</ele><time>2026-03-29T12:55:37Z</time></trkpt><trkpt lat="45.98250338045906" lon="12.206453133230632"><ele>236.0</ele><time>2026-03-29T12:55:38Z</time></trkpt><trkpt lat="45.98257003977273" lon="12.206686963137338"><ele>236.0</ele><time>2026-03-29T12:55:39Z</time></trkpt><trkpt lat="45.98263709194419" lon="12.206924221861717"><ele>236.0</ele><time>2026-03-29T12:55:40Z</time></trkpt><trkpt lat="45.98270719495822" lon="12.207169430812568"><ele>236.0</ele><time>2026-03-29T12:55:41Z</time></trkpt><trkpt lat="45.98277857736543" lon="12.207420616746502"><ele>236.33333333333334</ele><time>2026-03-29T12:55:42Z</time></trkpt><trkpt lat="45.982846979591606" lon="12.2076737194476"><ele>236.66666666666669</ele><time>2026-03-29T12:55:43Z</time></trkpt><trkpt lat="45.98290996255651" lon="12.207908149538518"><ele>237.0</ele><time>2026-03-29T12:55:44Z</time></trkpt><trkpt lat="45.98297036497194" lon="12.208131362418284"><ele>236.0</ele><time>2026-03-29T12:55:45Z</time></trkpt><trkpt lat="45.98302754828625" lon="12.2083396943545"><ele>235.0</ele><time>2026-03-29T12:55:46Z</time></trkpt><trkpt lat="45.983083505352205" lon="12.208537836222726"><ele>234.0</ele><time>2026-03-29T12:55:47Z</time></trkpt><trkpt lat="45.98313745667285" lon="12.208727735688903"><ele>233.0</ele><time>2026-03-29T12:55:48Z</time></trkpt><trkpt lat="45.983186717779006" lon="12.208909461127677"><ele>232.75</ele><time>2026-03-29T12:55:49Z</time></trkpt><trkpt lat="45.98323410811639" lon="12.20908009733059"><ele>232.5</ele><time>2026-03-29T12:55:50Z</time></trkpt><trkpt lat="45.98328345039635" lon="12.209239937161588"><ele>232.25</ele><time>2026-03-29T12:55:51Z</time></trkpt><trkpt lat="45.98333482615473" lon="12.20938950833864"><ele>232.0</ele><time>2026-03-29T12:55:52Z</time></trkpt><trkpt lat="45.98338458924781" lon="12.209528725118602"><ele>232.39999999999998</ele><time>2026-03-29T12:55:53Z</time></trkpt><trkpt lat="45.983434720178366" lon="12.209661784981819"><ele>232.79999999999998</ele><time>2026-03-29T12:55:54Z</time></trkpt><trkpt lat="45.983483065881316" lon="12.20978788923663"><ele>233.2</ele><time>2026-03-29T12:55:55Z</time></trkpt><trkpt lat="45.983527656640725" lon="12.209913494617728"><ele>233.6</ele><time>2026-03-29T12:55:56Z</time></trkpt><trkpt lat="45.98356497375121" lon="12.2100347638902"><ele>234.0</ele><time>2026-03-29T12:55:57Z</time></trkpt><trkpt lat="45.98359571066562" lon="12.210149347761993"><ele>234.0</ele><time>2026-03-29T12:55:58Z</time></trkpt><trkpt lat="45.98361108765756" lon="12.21026218106731"><ele>234.0</ele><time>2026-03-29T12:55:59Z</time></trkpt><trkpt lat="45.98361695585266" lon="12.210368197889743"><ele>234.0</ele><time>2026-03-29T12:56:00Z</time></trkpt><trkpt lat="45.98363115967325" lon="12.210470510023699"><ele>234.0</ele><time>2026-03-29T12:56:01Z</time></trkpt><trkpt lat="45.98366874977452" lon="12.210550592144653"><ele>234.0</ele><time>2026-03-29T12:56:02Z</time></trkpt><trkpt lat="45.98373550651566" lon="12.210600746158143"><ele>234.0</ele><time>2026-03-29T12:56:03Z</time></trkpt><trkpt lat="45.98382657213812" lon="12.210639412674263"><ele>233.5</ele><time>2026-03-29T12:56:04Z</time></trkpt><trkpt lat="45.983919853896055" lon="12.210712946686156"><ele>233.0</ele><time>2026-03-29T12:56:05Z</time></trkpt><trkpt lat="45.98400844068988" lon="12.210841294622329"><ele>232.5</ele><time>2026-03-29T12:56:06Z</time></trkpt><trkpt lat="45.98409149008191" lon="12.210994232826076"><ele>232.0</ele><time>2026-03-29T12:56:07Z</time></trkpt><trkpt lat="45.98417747480293" lon="12.211164272623513"><ele>232.75</ele><time>2026-03-29T12:56:08Z</time></trkpt><trkpt lat="45.98426463773746" lon="12.211339516217025"><ele>233.5</ele><time>2026-03-29T12:56:09Z</time></trkpt><trkpt lat="45.98435212593276" lon="12.211516479108722"><ele>234.25</ele><time>2026-03-29T12:56:10Z</time></trkpt><trkpt lat="45.98443537264531" lon="12.21168087335502"><ele>235.0</ele><time>2026-03-29T12:56:11Z</time></trkpt><trkpt lat="45.9845186218345" lon="12.211850377993793"><ele>235.0</ele><time>2026-03-29T12:56:12Z</time></trkpt><trkpt lat="45.984604497032365" lon="12.21202104583357"><ele>235.0</ele><time>2026-03-29T12:56:13Z</time></trkpt><trkpt lat="45.98468983620765" lon="12.212193083314977"><ele>235.0</ele><time>2026-03-29T12:56:14Z</time></trkpt><trkpt lat="45.98477342446901" lon="12.212371931581824"><ele>235.0</ele><time>2026-03-29T12:56:15Z</time></trkpt><trkpt lat="45.98485838901926" lon="12.212552024494306"><ele>235.0</ele><time>2026-03-29T12:56:16Z</time></trkpt><trkpt lat="45.984946171979075" lon="12.21273126266229"><ele>235.0</ele><time>2026-03-29T12:56:17Z</time></trkpt><trkpt lat="45.98503339515139" lon="12.212909595544923"><ele>235.0</ele><time>2026-03-29T12:56:18Z</time></trkpt><trkpt lat="45.98511898224654" lon="12.213081430286161"><ele>235.75</ele><time>2026-03-29T12:56:19Z</time></trkpt><trkpt lat="45.985200679465244" lon="12.213242121678897"><ele>236.5</ele><time>2026-03-29T12:56:20Z</time></trkpt><trkpt lat="45.98528282381816" lon="12.213402393267334"><ele>237.25</ele><time>2026-03-29T12:56:21Z</time></trkpt><trkpt lat="45.98536731240634" lon="12.213567289018247"><ele>238.0</ele><time>2026-03-29T12:56:22Z</time></trkpt><trkpt lat="45.98545279454177" lon="12.213738185486044"><ele>238.0</ele><time>2026-03-29T12:56:23Z</time></trkpt><trkpt lat="45.98553944816845" lon="12.213909427367712"><ele>238.0</ele><time>2026-03-29T12:56:24Z</time></trkpt><trkpt lat="45.985624282992724" lon="12.214077516497985"><ele>238.0</ele><time>2026-03-29T12:56:25Z</time></trkpt><trkpt lat="45.985708119064604" lon="12.214238611116707"><ele>238.0</ele><time>2026-03-29T12:56:26Z</time></trkpt><trkpt lat="45.985788856546044" lon="12.214399917467397"><ele>238.75</ele><time>2026-03-29T12:56:27Z</time></trkpt><trkpt lat="45.98586093209943" lon="12.214561739466875"><ele>239.5</ele><time>2026-03-29T12:56:28Z</time></trkpt><trkpt lat="45.985932591373974" lon="12.214726024775866"><ele>240.25</ele><time>2026-03-29T12:56:29Z</time></trkpt><trkpt lat="45.985993331693635" lon="12.214896067041062"><ele>241.0</ele><time>2026-03-29T12:56:30Z</time></trkpt><trkpt lat="45.98603876587018" lon="12.215061958913052"><ele>241.0</ele><time>2026-03-29T12:56:31Z</time></trkpt><trkpt lat="45.986071811053705" lon="12.215228135749445"><ele>241.0</ele><time>2026-03-29T12:56:32Z</time></trkpt><trkpt lat="45.986093047919454" lon="12.215397094167768"><ele>241.0</ele><time>2026-03-29T12:56:33Z</time></trkpt><trkpt lat="45.98611175929926" lon="12.215566882416953"><ele>241.0</ele><time>2026-03-29T12:56:34Z</time></trkpt><trkpt lat="45.98613993379802" lon="12.21573657506437"><ele>240.75</ele><time>2026-03-29T12:56:35Z</time></trkpt><trkpt lat="45.986167166954054" lon="12.215909198484418"><ele>240.5</ele><time>2026-03-29T12:56:36Z</time></trkpt><trkpt lat="45.98620036366814" lon="12.21610437880347"><ele>240.25</ele><time>2026-03-29T12:56:37Z</time></trkpt><trkpt lat="45.986229216190544" lon="12.216293920802006"><ele>240.0</ele><time>2026-03-29T12:56:38Z</time></trkpt><trkpt lat="45.98625236841523" lon="12.216467387896373"><ele>240.0</ele><time>2026-03-29T12:56:39Z</time></trkpt><trkpt lat="45.98627564177188" lon="12.216639912213449"><ele>240.0</ele><time>2026-03-29T12:56:40Z</time></trkpt><trkpt lat="45.98629732117165" lon="12.216812092439763"><ele>240.0</ele><time>2026-03-29T12:56:41Z</time></trkpt><trkpt lat="45.98632336491008" lon="12.216977934073403"><ele>240.0</ele><time>2026-03-29T12:56:42.001Z</time></trkpt><trkpt lat="45.98634974595811" lon="12.217136936465039"><ele>240.0</ele><time>2026-03-29T12:56:43.001Z</time></trkpt><trkpt lat="45.986383780605806" lon="12.217293971946559"><ele>240.0</ele><time>2026-03-29T12:56:44.001Z</time></trkpt><trkpt lat="45.98642394549842" lon="12.217453329603066"><ele>240.0</ele><time>2026-03-29T12:56:45.001Z</time></trkpt><trkpt lat="45.98646716093112" lon="12.21761543510722"><ele>240.0</ele><time>2026-03-29T12:56:46.001Z</time></trkpt><trkpt lat="45.98651430618069" lon="12.217780089069068"><ele>239.75</ele><time>2026-03-29T12:56:47.001Z</time></trkpt><trkpt lat="45.98656380086717" lon="12.217949724671465"><ele>239.5</ele><time>2026-03-29T12:56:48.001Z</time></trkpt><trkpt lat="45.98661832151532" lon="12.218113503983163"><ele>239.25</ele><time>2026-03-29T12:56:49.001Z</time></trkpt><trkpt lat="45.98667967235711" lon="12.218271303492337"><ele>239.0</ele><time>2026-03-29T12:56:50.001Z</time></trkpt><trkpt lat="45.98673622423587" lon="12.218442039888012"><ele>240.5</ele><time>2026-03-29T12:56:51.001Z</time></trkpt><trkpt lat="45.98679322584782" lon="12.218608514572924"><ele>242.0</ele><time>2026-03-29T12:56:52.001Z</time></trkpt><trkpt lat="45.98684808463128" lon="12.21877244840663"><ele>243.5</ele><time>2026-03-29T12:56:53.001Z</time></trkpt><trkpt lat="45.98691546460287" lon="12.218930914040804"><ele>245.0</ele><time>2026-03-29T12:56:54.001Z</time></trkpt><trkpt lat="45.98698942625531" lon="12.219079149579212"><ele>245.0</ele><time>2026-03-29T12:56:55.001Z</time></trkpt><trkpt lat="45.98708268202104" lon="12.219203732408785"><ele>245.0</ele><time>2026-03-29T12:56:56.001Z</time></trkpt><trkpt lat="45.987187983951245" lon="12.219352164549091"><ele>245.0</ele><time>2026-03-29T12:56:57.001Z</time></trkpt><trkpt lat="45.98728549912428" lon="12.219521095233791"><ele>245.0</ele><time>2026-03-29T12:56:58.001Z</time></trkpt><trkpt lat="45.98738037785975" lon="12.219697977466552"><ele>243.66666666666669</ele><time>2026-03-29T12:56:59.001Z</time></trkpt><trkpt lat="45.98746548980307" lon="12.219884831089988"><ele>242.33333333333331</ele><time>2026-03-29T12:57:00.001Z</time></trkpt><trkpt lat="45.98755023411688" lon="12.220065666204892"><ele>241.0</ele><time>2026-03-29T12:57:01.001Z</time></trkpt><trkpt lat="45.98763770890322" lon="12.220264940187084"><ele>241.75</ele><time>2026-03-29T12:57:02.001Z</time></trkpt><trkpt lat="45.98772331623092" lon="12.220448680275133"><ele>242.5</ele><time>2026-03-29T12:57:03.001Z</time></trkpt><trkpt lat="45.987807289211084" lon="12.220621916965307"><ele>243.25</ele><time>2026-03-29T12:57:04.001Z</time></trkpt><trkpt lat="45.98789227842332" lon="12.22078501095743"><ele>244.0</ele><time>2026-03-29T12:57:05.001Z</time></trkpt><trkpt lat="45.987972811009584" lon="12.22094271153494"><ele>244.0</ele><time>2026-03-29T12:57:06.001Z</time></trkpt><trkpt lat="45.988049129212996" lon="12.221097030457889"><ele>244.0</ele><time>2026-03-29T12:57:07.001Z</time></trkpt><trkpt lat="45.98812255525822" lon="12.221245293810073"><ele>244.0</ele><time>2026-03-29T12:57:08.001Z</time></trkpt><trkpt lat="45.98819391121654" lon="12.221389923080604"><ele>244.0</ele><time>2026-03-29T12:57:09.001Z</time></trkpt><trkpt lat="45.98826635511655" lon="12.221534022199743"><ele>242.5</ele><time>2026-03-29T12:57:10.001Z</time></trkpt><trkpt lat="45.98833912206212" lon="12.221689113990259"><ele>241.0</ele><time>2026-03-29T12:57:11.001Z</time></trkpt><trkpt lat="45.988407915115566" lon="12.221855552975727"><ele>239.5</ele><time>2026-03-29T12:57:12.001Z</time></trkpt><trkpt lat="45.98846518914273" lon="12.222030755635036"><ele>238.0</ele><time>2026-03-29T12:57:13.001Z</time></trkpt><trkpt lat="45.988505923018195" lon="12.222208911413043"><ele>241.75</ele><time>2026-03-29T12:57:14.001Z</time></trkpt><trkpt lat="45.98853420740022" lon="12.222388873225412"><ele>245.5</ele><time>2026-03-29T12:57:15.001Z</time></trkpt><trkpt lat="45.988554207186766" lon="12.222570025221962"><ele>249.25</ele><time>2026-03-29T12:57:16.001Z</time></trkpt><trkpt lat="45.98857155119486" lon="12.222756577432175"><ele>253.0</ele><time>2026-03-29T12:57:17.001Z</time></trkpt><trkpt lat="45.9885845288101" lon="12.22294778725326"><ele>253.0</ele><time>2026-03-29T12:57:18.001Z</time></trkpt><trkpt lat="45.988601181141476" lon="12.223143788018204"><ele>253.0</ele><time>2026-03-29T12:57:19.001Z</time></trkpt><trkpt lat="45.98862149649778" lon="12.223339252321708"><ele>253.0</ele><time>2026-03-29T12:57:20.001Z</time></trkpt><trkpt lat="45.98864420049335" lon="12.223538225291556"><ele>253.0</ele><time>2026-03-29T12:57:21Z</time></trkpt><trkpt lat="45.98866735972151" lon="12.223743193724111"><ele>252.0</ele><time>2026-03-29T12:57:22Z</time></trkpt><trkpt lat="45.988686859980675" lon="12.223953867163505"><ele>251.0</ele><time>2026-03-29T12:57:23Z</time></trkpt><trkpt lat="45.98870537792931" lon="12.224168285279834"><ele>250.0</ele><time>2026-03-29T12:57:24Z</time></trkpt><trkpt lat="45.988722490573146" lon="12.224384572956371"><ele>249.0</ele><time>2026-03-29T12:57:25Z</time></trkpt><trkpt lat="45.98874501418061" lon="12.224602038605491"><ele>247.0</ele><time>2026-03-29T12:57:26Z</time></trkpt><trkpt lat="45.98877321215129" lon="12.224820028083732"><ele>245.0</ele><time>2026-03-29T12:57:27Z</time></trkpt><trkpt lat="45.98880253859282" lon="12.225032213524814"><ele>243.0</ele><time>2026-03-29T12:57:28Z</time></trkpt><trkpt lat="45.98883097087912" lon="12.225241643692037"><ele>243.0</ele><time>2026-03-29T12:57:29Z</time></trkpt><trkpt lat="45.98886051594151" lon="12.2254497013567"><ele>243.0</ele><time>2026-03-29T12:57:30Z</time></trkpt><trkpt lat="45.98889274435683" lon="12.225658683024536"><ele>243.0</ele><time>2026-03-29T12:57:31Z</time></trkpt><trkpt lat="45.988927785150544" lon="12.225868369049511"><ele>243.0</ele><time>2026-03-29T12:57:32Z</time></trkpt><trkpt lat="45.98897741666171" lon="12.226075841244631"><ele>241.0</ele><time>2026-03-29T12:57:33Z</time></trkpt><trkpt lat="45.98903114225987" lon="12.226283537883848"><ele>239.0</ele><time>2026-03-29T12:57:34Z</time></trkpt><trkpt lat="45.98909240716061" lon="12.226491836821847"><ele>237.0</ele><time>2026-03-29T12:57:35Z</time></trkpt><trkpt lat="45.98915977504811" lon="12.226699323751678"><ele>237.33333333333331</ele><time>2026-03-29T12:57:36Z</time></trkpt><trkpt lat="45.98922795347289" lon="12.226902500720112"><ele>237.66666666666666</ele><time>2026-03-29T12:57:37Z</time></trkpt><trkpt lat="45.9892974474288" lon="12.227108973461725"><ele>238.0</ele><time>2026-03-29T12:57:38Z</time></trkpt><trkpt lat="45.9893725370279" lon="12.227313172497535"><ele>238.0</ele><time>2026-03-29T12:57:39Z</time></trkpt><trkpt lat="45.98944961202782" lon="12.227513323924729"><ele>238.0</ele><time>2026-03-29T12:57:40Z</time></trkpt><trkpt lat="45.989527821216406" lon="12.2277186193198"><ele>238.0</ele><time>2026-03-29T12:57:41Z</time></trkpt><trkpt lat="45.98960625711218" lon="12.227929034729438"><ele>238.0</ele><time>2026-03-29T12:57:42Z</time></trkpt><trkpt lat="45.989685730981336" lon="12.228142340270796"><ele>238.0</ele><time>2026-03-29T12:57:43Z</time></trkpt><trkpt lat="45.98976903601655" lon="12.228356590446683"><ele>238.0</ele><time>2026-03-29T12:57:44Z</time></trkpt><trkpt lat="45.989853289851524" lon="12.22857353480917"><ele>237.66666666666666</ele><time>2026-03-29T12:57:45Z</time></trkpt><trkpt lat="45.98993842718301" lon="12.228790670952835"><ele>237.33333333333331</ele><time>2026-03-29T12:57:46Z</time></trkpt><trkpt lat="45.99002082008325" lon="12.229007951900389"><ele>237.0</ele><time>2026-03-29T12:57:47Z</time></trkpt><trkpt lat="45.990102457698534" lon="12.229226719421938"><ele>237.0</ele><time>2026-03-29T12:57:48Z</time></trkpt><trkpt lat="45.99018394578813" lon="12.229440745026343"><ele>237.0</ele><time>2026-03-29T12:57:49Z</time></trkpt><trkpt lat="45.990264592600376" lon="12.229658359025834"><ele>237.0</ele><time>2026-03-29T12:57:50Z</time></trkpt><trkpt lat="45.99034456145034" lon="12.229872407229136"><ele>237.0</ele><time>2026-03-29T12:57:51Z</time></trkpt><trkpt lat="45.99042549289438" lon="12.230086112155792"><ele>237.0</ele><time>2026-03-29T12:57:52Z</time></trkpt><trkpt lat="45.99050624169074" lon="12.23029480802871"><ele>237.0</ele><time>2026-03-29T12:57:53Z</time></trkpt><trkpt lat="45.99058394303713" lon="12.230495701756725"><ele>237.66666666666669</ele><time>2026-03-29T12:57:54Z</time></trkpt><trkpt lat="45.99066106961995" lon="12.230691090806655"><ele>238.33333333333334</ele><time>2026-03-29T12:57:55Z</time></trkpt><trkpt lat="45.99073995361635" lon="12.230876575032026"><ele>239.0</ele><time>2026-03-29T12:57:56Z</time></trkpt><trkpt lat="45.99082598622424" lon="12.231051262748158"><ele>241.25</ele><time>2026-03-29T12:57:57Z</time></trkpt><trkpt lat="45.99091816929977" lon="12.231215771840018"><ele>243.5</ele><time>2026-03-29T12:57:58Z</time></trkpt><trkpt lat="45.991014577065584" lon="12.231365685518648"><ele>245.75</ele><time>2026-03-29T12:57:59Z</time></trkpt><trkpt lat="45.99111542101161" lon="12.23151542137809"><ele>248.0</ele><time>2026-03-29T12:58:00Z</time></trkpt><trkpt lat="45.99122250612342" lon="12.23166540042632"><ele>248.0</ele><time>2026-03-29T12:58:01Z</time></trkpt><trkpt lat="45.99132367557917" lon="12.231824549370687"><ele>248.0</ele><time>2026-03-29T12:58:02Z</time></trkpt><trkpt lat="45.99141362033112" lon="12.231988760163334"><ele>248.0</ele><time>2026-03-29T12:58:03Z</time></trkpt><trkpt lat="45.991485377921784" lon="12.232151131635396"><ele>248.0</ele><time>2026-03-29T12:58:04Z</time></trkpt><trkpt lat="45.99154511060381" lon="12.232306060518907"><ele>247.60000000000002</ele><time>2026-03-29T12:58:05Z</time></trkpt><trkpt lat="45.99159709040347" lon="12.232451706529664"><ele>247.20000000000002</ele><time>2026-03-29T12:58:06Z</time></trkpt><trkpt lat="45.9916445068285" lon="12.232579615263347"><ele>246.8</ele><time>2026-03-29T12:58:07Z</time></trkpt><trkpt lat="45.99168169974072" lon="12.23267710441249"><ele>246.4</ele><time>2026-03-29T12:58:08Z</time></trkpt><trkpt lat="45.99172785735263" lon="12.232805386991991"><ele>246.0</ele><time>2026-03-29T12:58:10Z</time></trkpt><trkpt lat="45.99177273602657" lon="12.232915737420932"><ele>247.60000000000002</ele><time>2026-03-29T12:58:12Z</time></trkpt><trkpt lat="45.991813719821025" lon="12.233044779761874"><ele>249.20000000000002</ele><time>2026-03-29T12:58:14Z</time></trkpt><trkpt lat="45.9918408192013" lon="12.23313385914635"><ele>250.79999999999998</ele><time>2026-03-29T12:58:15Z</time></trkpt><trkpt lat="45.99188136526718" lon="12.23325169879634"><ele>252.39999999999998</ele><time>2026-03-29T12:58:16Z</time></trkpt><trkpt lat="45.991928451953704" lon="12.233389931253818"><ele>254.0</ele><time>2026-03-29T12:58:17Z</time></trkpt><trkpt lat="45.99197895275414" lon="12.233525605805134"><ele>254.0</ele><time>2026-03-29T12:58:18Z</time></trkpt><trkpt lat="45.99202899721238" lon="12.233668715570378"><ele>253.99999999999997</ele><time>2026-03-29T12:58:19Z</time></trkpt><trkpt lat="45.99207857017643" lon="12.233820618334354"><ele>253.99999999999997</ele><time>2026-03-29T12:58:20Z</time></trkpt><trkpt lat="45.992118773565714" lon="12.233956323646657"><ele>254.0</ele><time>2026-03-29T12:58:21Z</time></trkpt><trkpt lat="45.992151010119244" lon="12.234082683235838"><ele>254.0</ele><time>2026-03-29T12:58:22Z</time></trkpt><trkpt lat="45.99217994501777" lon="12.234206029038754"><ele>252.6</ele><time>2026-03-29T12:58:23Z</time></trkpt><trkpt lat="45.99220577646052" lon="12.234332915473635"><ele>251.2</ele><time>2026-03-29T12:58:24Z</time></trkpt><trkpt lat="45.99223205610979" lon="12.234469619991259"><ele>249.79999999999998</ele><time>2026-03-29T12:58:25Z</time></trkpt><trkpt lat="45.99226393406638" lon="12.234615809396928"><ele>248.39999999999998</ele><time>2026-03-29T12:58:26Z</time></trkpt><trkpt lat="45.99229909518726" lon="12.23476690692644"><ele>247.0</ele><time>2026-03-29T12:58:27Z</time></trkpt><trkpt lat="45.99233645605849" lon="12.234919953879249"><ele>246.0</ele><time>2026-03-29T12:58:28Z</time></trkpt><trkpt lat="45.99237208559109" lon="12.235074234513501"><ele>245.0</ele><time>2026-03-29T12:58:29Z</time></trkpt><trkpt lat="45.992406197518214" lon="12.235223675298109"><ele>244.0</ele><time>2026-03-29T12:58:30Z</time></trkpt><trkpt lat="45.9924366823796" lon="12.235363635656231"><ele>243.0</ele><time>2026-03-29T12:58:31Z</time></trkpt><trkpt lat="45.99246020802529" lon="12.235480675453008"><ele>242.0</ele><time>2026-03-29T12:58:32Z</time></trkpt><trkpt lat="45.992480312090294" lon="12.235587596006342"><ele>242.83333333333334</ele><time>2026-03-29T12:58:33Z</time></trkpt><trkpt lat="45.99250517052687" lon="12.235689803422899"><ele>243.66666666666669</ele><time>2026-03-29T12:58:34Z</time></trkpt><trkpt lat="45.992537616732236" lon="12.235790886392317"><ele>244.5</ele><time>2026-03-29T12:58:35Z</time></trkpt><trkpt lat="45.992579473094096" lon="12.2358970452963"><ele>245.33333333333331</ele><time>2026-03-29T12:58:36Z</time></trkpt><trkpt lat="45.992622438097456" lon="12.23599973042689"><ele>246.16666666666666</ele><time>2026-03-29T12:58:37Z</time></trkpt><trkpt lat="45.9926649696742" lon="12.23609590222545"><ele>247.0</ele><time>2026-03-29T12:58:38Z</time></trkpt><trkpt lat="45.99270674320017" lon="12.236187583705922"><ele>246.99999999999997</ele><time>2026-03-29T12:58:39Z</time></trkpt><trkpt lat="45.99274764189448" lon="12.236274581984755"><ele>247.0</ele><time>2026-03-29T12:58:40.001Z</time></trkpt><trkpt lat="45.992790924797504" lon="12.236361882181951"><ele>247.0</ele><time>2026-03-29T12:58:41.001Z</time></trkpt><trkpt lat="45.992840622275466" lon="12.236444329770613"><ele>247.0</ele><time>2026-03-29T12:58:42.001Z</time></trkpt><trkpt lat="45.99289111392108" lon="12.236530075282538"><ele>246.99999999999997</ele><time>2026-03-29T12:58:43.001Z</time></trkpt><trkpt lat="45.992942931794566" lon="12.236619761236366"><ele>247.0</ele><time>2026-03-29T12:58:44.001Z</time></trkpt><trkpt lat="45.99299608116332" lon="12.23671211498853"><ele>245.66666666666666</ele><time>2026-03-29T12:58:45.001Z</time></trkpt><trkpt lat="45.99305027312832" lon="12.236809778371196"><ele>244.33333333333331</ele><time>2026-03-29T12:58:46.001Z</time></trkpt><trkpt lat="45.993102164187405" lon="12.236904548040906"><ele>243.0</ele><time>2026-03-29T12:58:47.001Z</time></trkpt><trkpt lat="45.99314889242577" lon="12.23699392751358"><ele>241.66666666666669</ele><time>2026-03-29T12:58:48.001Z</time></trkpt><trkpt lat="45.99319116811183" lon="12.23707912491651"><ele>240.33333333333334</ele><time>2026-03-29T12:58:49.001Z</time></trkpt><trkpt lat="45.99324116026551" lon="12.237213665720148"><ele>239.0</ele><time>2026-03-29T12:58:51.001Z</time></trkpt><trkpt lat="45.99322006764683" lon="12.237299677357365"><ele>238.00000000000003</ele><time>2026-03-29T12:58:53.001Z</time></trkpt><trkpt lat="45.9931678863316" lon="12.237352905307231"><ele>237.0</ele><time>2026-03-29T12:58:55.001Z</time></trkpt><trkpt lat="45.99310718069776" lon="12.237407960517164"><ele>236.00000000000003</ele><time>2026-03-29T12:58:57.001Z</time></trkpt><trkpt lat="45.99304044766959" lon="12.23749379313124"><ele>235.00000000000003</ele><time>2026-03-29T12:59:00.001Z</time></trkpt><trkpt lat="45.99302102818707" lon="12.237580262464041"><ele>234.0</ele><time>2026-03-29T12:59:07.001Z</time></trkpt><trkpt lat="45.993081972061304" lon="12.237659660141981"><ele>233.00000000000003</ele><time>2026-03-29T12:59:11.001Z</time></trkpt><trkpt lat="45.99313526080854" lon="12.237733567500202"><ele>232.00000000000003</ele><time>2026-03-29T12:59:13.001Z</time></trkpt><trkpt lat="45.99323481498258" lon="12.237843637003536"><ele>232.0</ele><time>2026-03-29T12:59:15.001Z</time></trkpt><trkpt lat="45.99331960992882" lon="12.237942588898115"><ele>232.0</ele><time>2026-03-29T12:59:17.001Z</time></trkpt><trkpt lat="45.99340332537703" lon="12.23802926228252"><ele>232.0</ele><time>2026-03-29T12:59:19.001Z</time></trkpt><trkpt lat="45.99347957249327" lon="12.238023232099797"><ele>232.0</ele><time>2026-03-29T12:59:21.001Z</time></trkpt><trkpt lat="45.99353542270696" lon="12.237942907971233"><ele>232.0</ele><time>2026-03-29T12:59:23.001Z</time></trkpt><trkpt lat="45.99348854956125" lon="12.237842655633326"><ele>232.00000000000003</ele><time>2026-03-29T12:59:26.001Z</time></trkpt><trkpt lat="45.99344696495974" lon="12.237774195612683"><ele>232.0</ele><time>2026-03-29T12:59:27.999Z</time></trkpt><trkpt lat="45.993383477784576" lon="12.237687300851753"><ele>232.00000000000003</ele><time>2026-03-29T12:59:29.999Z</time></trkpt><trkpt lat="45.99333690902592" lon="12.23761636436201"><ele>232.00000000000003</ele><time>2026-03-29T12:59:32Z</time></trkpt><trkpt lat="45.99328168988141" lon="12.237553740733118"><ele>232.0</ele><time>2026-03-29T12:59:35Z</time></trkpt><trkpt lat="45.99321930948083" lon="12.237528264325851"><ele>232.00000000000003</ele><time>2026-03-29T12:59:38Z</time></trkpt><trkpt lat="45.99315010441944" lon="12.237544672506646"><ele>232.00000000000003</ele><time>2026-03-29T12:59:42Z</time></trkpt><trkpt lat="45.99309875702654" lon="12.23760167421598"><ele>232.0</ele><time>2026-03-29T12:59:46Z</time></trkpt><trkpt lat="45.99304658280366" lon="12.237531871655579"><ele>232.0</ele><time>2026-03-29T12:59:52Z</time></trkpt><trkpt lat="45.993116831962105" lon="12.237443314243706"><ele>232.0</ele><time>2026-03-29T12:59:55Z</time></trkpt><trkpt lat="45.99317235850508" lon="12.237360142725816"><ele>232.0</ele><time>2026-03-29T12:59:57Z</time></trkpt><trkpt lat="45.9932434164629" lon="12.237298459078554"><ele>232.0</ele><time>2026-03-29T13:00:03Z</time></trkpt><trkpt lat="45.993367515953246" lon="12.237405923391874"><ele>234.5</ele><time>2026-03-29T13:00:06Z</time></trkpt><trkpt lat="45.99343726336124" lon="12.237531625226291"><ele>237.0</ele><time>2026-03-29T13:00:07Z</time></trkpt><trkpt lat="45.99351702285204" lon="12.237681736917107"><ele>239.5</ele><time>2026-03-29T13:00:08Z</time></trkpt><trkpt lat="45.99361861216488" lon="12.237853557813827"><ele>242.0</ele><time>2026-03-29T13:00:09Z</time></trkpt><trkpt lat="45.99372564485162" lon="12.238046192575228"><ele>240.0</ele><time>2026-03-29T13:00:10Z</time></trkpt><trkpt lat="45.99383963021721" lon="12.238259723988744"><ele>238.0</ele><time>2026-03-29T13:00:11Z</time></trkpt><trkpt lat="45.993952205869675" lon="12.23847482120926"><ele>236.0</ele><time>2026-03-29T13:00:12Z</time></trkpt><trkpt lat="45.99406927849045" lon="12.238687138118825"><ele>238.66666666666669</ele><time>2026-03-29T13:00:13Z</time></trkpt><trkpt lat="45.99418988654584" lon="12.238903162120257"><ele>241.33333333333331</ele><time>2026-03-29T13:00:14Z</time></trkpt><trkpt lat="45.99431328970969" lon="12.239122631953574"><ele>244.0</ele><time>2026-03-29T13:00:15Z</time></trkpt><trkpt lat="45.994435420639164" lon="12.23934354262192"><ele>244.0</ele><time>2026-03-29T13:00:16Z</time></trkpt><trkpt lat="45.99455729181" lon="12.23956743449896"><ele>244.0</ele><time>2026-03-29T13:00:17Z</time></trkpt><trkpt lat="45.994678494699734" lon="12.239792582205599"><ele>244.0</ele><time>2026-03-29T13:00:18Z</time></trkpt><trkpt lat="45.99479752789076" lon="12.240017234050557"><ele>241.66666666666666</ele><time>2026-03-29T13:00:19Z</time></trkpt><trkpt lat="45.994910015271884" lon="12.240227541200488"><ele>239.33333333333331</ele><time>2026-03-29T13:00:20Z</time></trkpt><trkpt lat="45.99501620110049" lon="12.240431919328099"><ele>237.0</ele><time>2026-03-29T13:00:21Z</time></trkpt><trkpt lat="45.99511582952102" lon="12.240634401863149"><ele>243.66666666666669</ele><time>2026-03-29T13:00:22Z</time></trkpt><trkpt lat="45.995204506516764" lon="12.240845192300787"><ele>250.33333333333334</ele><time>2026-03-29T13:00:23Z</time></trkpt><trkpt lat="45.99527997513566" lon="12.241064299785512"><ele>257.0</ele><time>2026-03-29T13:00:24Z</time></trkpt><trkpt lat="45.99534545687629" lon="12.241290020345325"><ele>252.66666666666669</ele><time>2026-03-29T13:00:25Z</time></trkpt><trkpt lat="45.995400950204434" lon="12.241521810075815"><ele>248.33333333333331</ele><time>2026-03-29T13:00:26Z</time></trkpt><trkpt lat="45.995450430631756" lon="12.24175594428814"><ele>244.0</ele><time>2026-03-29T13:00:27Z</time></trkpt><trkpt lat="45.99549363278686" lon="12.241989073178715"><ele>244.0</ele><time>2026-03-29T13:00:28Z</time></trkpt><trkpt lat="45.99553075651777" lon="12.242221083855993"><ele>244.0</ele><time>2026-03-29T13:00:29Z</time></trkpt><trkpt lat="45.99556435227761" lon="12.242448501673241"><ele>244.0</ele><time>2026-03-29T13:00:30Z</time></trkpt><trkpt lat="45.99559516368086" lon="12.242673763923582"><ele>242.0</ele><time>2026-03-29T13:00:31Z</time></trkpt><trkpt lat="45.99563086954022" lon="12.242889452877943"><ele>240.0</ele><time>2026-03-29T13:00:32Z</time></trkpt><trkpt lat="45.99567484598524" lon="12.24309823334136"><ele>238.0</ele><time>2026-03-29T13:00:33Z</time></trkpt><trkpt lat="45.99572992021975" lon="12.243299551997307"><ele>238.75</ele><time>2026-03-29T13:00:34Z</time></trkpt><trkpt lat="45.99579665637871" lon="12.243490169661252"><ele>239.5</ele><time>2026-03-29T13:00:35Z</time></trkpt><trkpt lat="45.995866637641214" lon="12.243679151135352"><ele>240.25</ele><time>2026-03-29T13:00:36Z</time></trkpt><trkpt lat="45.995942738399" lon="12.243860418221246"><ele>241.0</ele><time>2026-03-29T13:00:37Z</time></trkpt><trkpt lat="45.99602631101749" lon="12.244035235834174"><ele>241.0</ele><time>2026-03-29T13:00:38Z</time></trkpt><trkpt lat="45.99611182843102" lon="12.2442096801917"><ele>241.0</ele><time>2026-03-29T13:00:39Z</time></trkpt><trkpt lat="45.99619958100244" lon="12.244383762365542"><ele>241.0</ele><time>2026-03-29T13:00:40Z</time></trkpt><trkpt lat="45.99628979567024" lon="12.244558684804272"><ele>241.0</ele><time>2026-03-29T13:00:41Z</time></trkpt><trkpt lat="45.996381251876116" lon="12.244734300240532"><ele>238.33333333333331</ele><time>2026-03-29T13:00:42Z</time></trkpt><trkpt lat="45.996474971070185" lon="12.244905560117779"><ele>235.66666666666669</ele><time>2026-03-29T13:00:43Z</time></trkpt><trkpt lat="45.99657279942415" lon="12.24507511153738"><ele>233.0</ele><time>2026-03-29T13:00:44Z</time></trkpt><trkpt lat="45.99667180085164" lon="12.245245542482033"><ele>236.66666666666669</ele><time>2026-03-29T13:00:45Z</time></trkpt><trkpt lat="45.99677145979886" lon="12.245417983926666"><ele>240.33333333333331</ele><time>2026-03-29T13:00:46Z</time></trkpt><trkpt lat="45.99686834864067" lon="12.245594007598173"><ele>244.0</ele><time>2026-03-29T13:00:47Z</time></trkpt><trkpt lat="45.99695551974677" lon="12.245763044994598"><ele>244.0</ele><time>2026-03-29T13:00:48Z</time></trkpt><trkpt lat="45.997039587177284" lon="12.245922363818027"><ele>244.0</ele><time>2026-03-29T13:00:49Z</time></trkpt><trkpt lat="45.9971219973189" lon="12.24607160408661"><ele>244.0</ele><time>2026-03-29T13:00:50.001Z</time></trkpt><trkpt lat="45.9971989320161" lon="12.246215213336136"><ele>244.0</ele><time>2026-03-29T13:00:51.001Z</time></trkpt><trkpt lat="45.99727580933347" lon="12.246358181475198"><ele>242.25</ele><time>2026-03-29T13:00:52.001Z</time></trkpt><trkpt lat="45.99735412666691" lon="12.246501085116298"><ele>240.5</ele><time>2026-03-29T13:00:53.001Z</time></trkpt><trkpt lat="45.9974308188905" lon="12.246647818413331"><ele>238.75</ele><time>2026-03-29T13:00:54.001Z</time></trkpt><trkpt lat="45.997504019603156" lon="12.246808509995798"><ele>237.0</ele><time>2026-03-29T13:00:55.001Z</time></trkpt><trkpt lat="45.99757425325332" lon="12.246991213634246"><ele>240.25</ele><time>2026-03-29T13:00:56.001Z</time></trkpt><trkpt lat="45.99764239487955" lon="12.247185813208722"><ele>243.5</ele><time>2026-03-29T13:00:57.001Z</time></trkpt><trkpt lat="45.997696241119996" lon="12.247379479802271"><ele>246.75</ele><time>2026-03-29T13:00:58.001Z</time></trkpt><trkpt lat="45.9977373697067" lon="12.247573285539925"><ele>250.0</ele><time>2026-03-29T13:00:59.001Z</time></trkpt><trkpt lat="45.99776581736035" lon="12.247769374578526"><ele>250.0</ele><time>2026-03-29T13:01:00.001Z</time></trkpt><trkpt lat="45.997779021981096" lon="12.247965550891562"><ele>250.0</ele><time>2026-03-29T13:01:01.001Z</time></trkpt><trkpt lat="45.997779421967515" lon="12.248162851107203"><ele>250.0</ele><time>2026-03-29T13:01:02.001Z</time></trkpt><trkpt lat="45.997775692141055" lon="12.248355941083014"><ele>250.0</ele><time>2026-03-29T13:01:03.001Z</time></trkpt><trkpt lat="45.99776929500323" lon="12.248545785448393"><ele>248.0</ele><time>2026-03-29T13:01:04.001Z</time></trkpt><trkpt lat="45.997759435747085" lon="12.248733796558511"><ele>246.0</ele><time>2026-03-29T13:01:05.001Z</time></trkpt><trkpt lat="45.99774735018593" lon="12.248923090390836"><ele>244.0</ele><time>2026-03-29T13:01:06.001Z</time></trkpt><trkpt lat="45.997737036054765" lon="12.249107855074916"><ele>242.0</ele><time>2026-03-29T13:01:07.001Z</time></trkpt><trkpt lat="45.997725412606606" lon="12.249294912950072"><ele>242.0</ele><time>2026-03-29T13:01:08.001Z</time></trkpt><trkpt lat="45.99771473200298" lon="12.249481595749295"><ele>242.0</ele><time>2026-03-29T13:01:09.001Z</time></trkpt><trkpt lat="45.99770311683675" lon="12.24966688447418"><ele>242.0</ele><time>2026-03-29T13:01:10.001Z</time></trkpt><trkpt lat="45.99769099293961" lon="12.249851940309481"><ele>242.0</ele><time>2026-03-29T13:01:11.001Z</time></trkpt><trkpt lat="45.99768448786918" lon="12.250037075729118"><ele>242.75</ele><time>2026-03-29T13:01:12.001Z</time></trkpt><trkpt lat="45.9976763210869" lon="12.25022292434269"><ele>243.5</ele><time>2026-03-29T13:01:13.001Z</time></trkpt><trkpt lat="45.997669272562064" lon="12.250408563240965"><ele>244.25</ele><time>2026-03-29T13:01:14.001Z</time></trkpt><trkpt lat="45.99766076338997" lon="12.250594096100894"><ele>245.0</ele><time>2026-03-29T13:01:15.001Z</time></trkpt><trkpt lat="45.99764898870662" lon="12.250779707190096"><ele>245.25</ele><time>2026-03-29T13:01:16.001Z</time></trkpt><trkpt lat="45.997638319010065" lon="12.250964595105323"><ele>245.5</ele><time>2026-03-29T13:01:17.001Z</time></trkpt><trkpt lat="45.99762850175123" lon="12.25115405319088"><ele>245.75</ele><time>2026-03-29T13:01:18.001Z</time></trkpt><trkpt lat="45.997625631744185" lon="12.251346772954156"><ele>246.0</ele><time>2026-03-29T13:01:19.001Z</time></trkpt><trkpt lat="45.99763128565224" lon="12.251544620794627"><ele>246.25</ele><time>2026-03-29T13:01:20.001Z</time></trkpt><trkpt lat="45.997645836237886" lon="12.251744177738145"><ele>246.5</ele><time>2026-03-29T13:01:21.001Z</time></trkpt><trkpt lat="45.99767123541043" lon="12.25194229558478"><ele>246.75</ele><time>2026-03-29T13:01:22.001Z</time></trkpt><trkpt lat="45.997708364101754" lon="12.252134054708577"><ele>247.0</ele><time>2026-03-29T13:01:23.001Z</time></trkpt><trkpt lat="45.99775770905193" lon="12.25232183104008"><ele>246.5</ele><time>2026-03-29T13:01:24.001Z</time></trkpt><trkpt lat="45.99782063998496" lon="12.252497818521835"><ele>246.0</ele><time>2026-03-29T13:01:25.001Z</time></trkpt><trkpt lat="45.99789599766866" lon="12.252669347920609"><ele>245.5</ele><time>2026-03-29T13:01:26.001Z</time></trkpt><trkpt lat="45.99797806880312" lon="12.252839818684949"><ele>245.0</ele><time>2026-03-29T13:01:27.001Z</time></trkpt><trkpt lat="45.998065778323415" lon="12.253009828044796"><ele>245.0</ele><time>2026-03-29T13:01:28.001Z</time></trkpt><trkpt lat="45.99815684447066" lon="12.25317822023894"><ele>245.0</ele><time>2026-03-29T13:01:29.001Z</time></trkpt><trkpt lat="45.99825150409961" lon="12.253346805730901"><ele>245.0</ele><time>2026-03-29T13:01:30.001Z</time></trkpt><trkpt lat="45.99834411406797" lon="12.253519423614215"><ele>246.33333333333334</ele><time>2026-03-29T13:01:31.001Z</time></trkpt><trkpt lat="45.99843956447639" lon="12.2536903634474"><ele>247.66666666666669</ele><time>2026-03-29T13:01:32.001Z</time></trkpt><trkpt lat="45.998534844766915" lon="12.253860874104062"><ele>249.0</ele><time>2026-03-29T13:01:32.999Z</time></trkpt><trkpt lat="45.998633836266414" lon="12.254032865639795"><ele>249.0</ele><time>2026-03-29T13:01:33.999Z</time></trkpt><trkpt lat="45.99873249870541" lon="12.254203905128874"><ele>249.0</ele><time>2026-03-29T13:01:34.999Z</time></trkpt><trkpt lat="45.99882860651538" lon="12.254377203931035"><ele>249.0</ele><time>2026-03-29T13:01:35.999Z</time></trkpt><trkpt lat="45.99892213019775" lon="12.25454357928356"><ele>249.0</ele><time>2026-03-29T13:01:36.999Z</time></trkpt><trkpt lat="45.99901397121416" lon="12.254705734218863"><ele>249.0</ele><time>2026-03-29T13:01:37.999Z</time></trkpt><trkpt lat="45.999104200611676" lon="12.254868290217626"><ele>249.0</ele><time>2026-03-29T13:01:38.999Z</time></trkpt><trkpt lat="45.999191145043966" lon="12.25502448053878"><ele>249.0</ele><time>2026-03-29T13:01:39.999Z</time></trkpt><trkpt lat="45.99927364473149" lon="12.255167255500984"><ele>249.75</ele><time>2026-03-29T13:01:40.999Z</time></trkpt><trkpt lat="45.999351867450315" lon="12.255298773574022"><ele>250.5</ele><time>2026-03-29T13:01:41.999Z</time></trkpt><trkpt lat="45.99941955348264" lon="12.255425367218624"><ele>251.25</ele><time>2026-03-29T13:01:42.999Z</time></trkpt><trkpt lat="45.99948023718562" lon="12.255556434647875"><ele>252.0</ele><time>2026-03-29T13:01:43.999Z</time></trkpt><trkpt lat="45.99953436223197" lon="12.255700175180591"><ele>252.0</ele><time>2026-03-29T13:01:44.999Z</time></trkpt><trkpt lat="45.99958788377333" lon="12.255859403312586"><ele>252.0</ele><time>2026-03-29T13:01:45.999Z</time></trkpt><trkpt lat="45.99964104272731" lon="12.256021144587963"><ele>252.0</ele><time>2026-03-29T13:01:46.999Z</time></trkpt><trkpt lat="45.999698734745486" lon="12.256185636001398"><ele>252.0</ele><time>2026-03-29T13:01:47.999Z</time></trkpt><trkpt lat="45.99976342746261" lon="12.256349181370894"><ele>251.0</ele><time>2026-03-29T13:01:49Z</time></trkpt><trkpt lat="45.99983598366435" lon="12.256497475920026"><ele>250.0</ele><time>2026-03-29T13:01:50Z</time></trkpt><trkpt lat="45.99991317173196" lon="12.256630556934825"><ele>249.0</ele><time>2026-03-29T13:01:51Z</time></trkpt><trkpt lat="45.999991986795344" lon="12.256751511600415"><ele>248.0</ele><time>2026-03-29T13:01:52Z</time></trkpt><trkpt lat="46.00007363572006" lon="12.256862267228916"><ele>248.0</ele><time>2026-03-29T13:01:53Z</time></trkpt><trkpt lat="46.00015555036183" lon="12.25697083356562"><ele>248.0</ele><time>2026-03-29T13:01:54Z</time></trkpt><trkpt lat="46.00023857104253" lon="12.257088524794984"><ele>248.0</ele><time>2026-03-29T13:01:55Z</time></trkpt><trkpt lat="46.00032300269282" lon="12.257205920834519"><ele>248.0</ele><time>2026-03-29T13:01:56Z</time></trkpt><trkpt lat="46.000407846534635" lon="12.25733236134022"><ele>247.5</ele><time>2026-03-29T13:01:57Z</time></trkpt><trkpt lat="46.00048763897986" lon="12.257477936027406"><ele>247.0</ele><time>2026-03-29T13:01:58Z</time></trkpt><trkpt lat="46.00056841709582" lon="12.257641528167051"><ele>246.5</ele><time>2026-03-29T13:01:59Z</time></trkpt><trkpt lat="46.00065457571239" lon="12.257826060019418"><ele>246.0</ele><time>2026-03-29T13:02:00Z</time></trkpt><trkpt lat="46.000745775129346" lon="12.258027165995335"><ele>245.0</ele><time>2026-03-29T13:02:01Z</time></trkpt><trkpt lat="46.000837849849376" lon="12.258225514709544"><ele>244.0</ele><time>2026-03-29T13:02:02Z</time></trkpt><trkpt lat="46.000920486715835" lon="12.258419226030785"><ele>243.0</ele><time>2026-03-29T13:02:03Z</time></trkpt><trkpt lat="46.00098917814365" lon="12.25861341786733"><ele>243.0</ele><time>2026-03-29T13:02:04Z</time></trkpt><trkpt lat="46.00104202723621" lon="12.258808728096193"><ele>243.0</ele><time>2026-03-29T13:02:05Z</time></trkpt><trkpt lat="46.00108457815898" lon="12.25900458932806"><ele>243.0</ele><time>2026-03-29T13:02:06Z</time></trkpt><trkpt lat="46.001111398427014" lon="12.259201423788449"><ele>243.0</ele><time>2026-03-29T13:02:07Z</time></trkpt><trkpt lat="46.00112083089126" lon="12.259402673697945"><ele>240.66666666666669</ele><time>2026-03-29T13:02:08Z</time></trkpt><trkpt lat="46.00111546213459" lon="12.259609909777138"><ele>238.33333333333334</ele><time>2026-03-29T13:02:09Z</time></trkpt><trkpt lat="46.00109625452351" lon="12.259825944647304"><ele>236.0</ele><time>2026-03-29T13:02:10Z</time></trkpt><trkpt lat="46.001069319475505" lon="12.260047024755558"><ele>236.0</ele><time>2026-03-29T13:02:11Z</time></trkpt><trkpt lat="46.00103485746521" lon="12.260269702719187"><ele>236.0</ele><time>2026-03-29T13:02:12Z</time></trkpt><trkpt lat="46.00099620074639" lon="12.260491794263647"><ele>236.0</ele><time>2026-03-29T13:02:13Z</time></trkpt><trkpt lat="46.0009594701096" lon="12.26070090062996"><ele>237.0</ele><time>2026-03-29T13:02:14Z</time></trkpt><trkpt lat="46.00092636486807" lon="12.260902711293504"><ele>238.0</ele><time>2026-03-29T13:02:15Z</time></trkpt><trkpt lat="46.00090207395908" lon="12.261097436451527"><ele>239.0</ele><time>2026-03-29T13:02:16Z</time></trkpt><trkpt lat="46.000889701726834" lon="12.261304783292916"><ele>240.0</ele><time>2026-03-29T13:02:17Z</time></trkpt><trkpt lat="46.0008890600054" lon="12.261514297419623"><ele>240.66666666666669</ele><time>2026-03-29T13:02:18Z</time></trkpt><trkpt lat="46.00090077168547" lon="12.261727430347436"><ele>241.33333333333334</ele><time>2026-03-29T13:02:19Z</time></trkpt><trkpt lat="46.00092614662634" lon="12.261945614888745"><ele>242.0</ele><time>2026-03-29T13:02:20Z</time></trkpt><trkpt lat="46.000962426830135" lon="12.262160607542029"><ele>242.25</ele><time>2026-03-29T13:02:21Z</time></trkpt><trkpt lat="46.00101382534244" lon="12.262370147000416"><ele>242.5</ele><time>2026-03-29T13:02:22Z</time></trkpt><trkpt lat="46.001075207517204" lon="12.262565806734507"><ele>242.75</ele><time>2026-03-29T13:02:23Z</time></trkpt><trkpt lat="46.001144666538806" lon="12.262746856489063"><ele>243.0</ele><time>2026-03-29T13:02:24Z</time></trkpt><trkpt lat="46.0012229114296" lon="12.262924342679234"><ele>243.0</ele><time>2026-03-29T13:02:25Z</time></trkpt><trkpt lat="46.00130818586134" lon="12.263098947431155"><ele>243.0</ele><time>2026-03-29T13:02:26Z</time></trkpt><trkpt lat="46.00139952965035" lon="12.263275761726035"><ele>243.0</ele><time>2026-03-29T13:02:27Z</time></trkpt><trkpt lat="46.00149622930527" lon="12.263457884426375"><ele>241.5</ele><time>2026-03-29T13:02:28Z</time></trkpt><trkpt lat="46.0015902204748" lon="12.263631427254898"><ele>240.0</ele><time>2026-03-29T13:02:29Z</time></trkpt><trkpt lat="46.00167869290983" lon="12.26379931013358"><ele>238.5</ele><time>2026-03-29T13:02:30Z</time></trkpt><trkpt lat="46.00176586334954" lon="12.263968315799776"><ele>237.0</ele><time>2026-03-29T13:02:31Z</time></trkpt><trkpt lat="46.00185478420403" lon="12.26414576008812"><ele>234.75</ele><time>2026-03-29T13:02:32Z</time></trkpt><trkpt lat="46.0019447620564" lon="12.264322572194034"><ele>232.5</ele><time>2026-03-29T13:02:33Z</time></trkpt><trkpt lat="46.00203045225626" lon="12.264492769343027"><ele>230.25</ele><time>2026-03-29T13:02:34Z</time></trkpt><trkpt lat="46.00211535193231" lon="12.264659099379983"><ele>228.0</ele><time>2026-03-29T13:02:35Z</time></trkpt><trkpt lat="46.00219846421505" lon="12.264819328326471"><ele>228.25</ele><time>2026-03-29T13:02:36Z</time></trkpt><trkpt lat="46.00227764348711" lon="12.264978537934532"><ele>228.5</ele><time>2026-03-29T13:02:37Z</time></trkpt><trkpt lat="46.00235336200638" lon="12.265133853918122"><ele>228.75</ele><time>2026-03-29T13:02:38Z</time></trkpt><trkpt lat="46.002427927918" lon="12.265284863135564"><ele>229.0</ele><time>2026-03-29T13:02:39Z</time></trkpt><trkpt lat="46.002504871841005" lon="12.265428490871631"><ele>229.0</ele><time>2026-03-29T13:02:40Z</time></trkpt><trkpt lat="46.002580569030464" lon="12.265564739841222"><ele>229.0</ele><time>2026-03-29T13:02:41Z</time></trkpt><trkpt lat="46.002675375077374" lon="12.265685072003587"><ele>229.0</ele><time>2026-03-29T13:02:42Z</time></trkpt><trkpt lat="46.002771194652986" lon="12.265784051223799"><ele>229.0</ele><time>2026-03-29T13:02:43Z</time></trkpt><trkpt lat="46.0028775169011" lon="12.265871805223599"><ele>226.75</ele><time>2026-03-29T13:02:44Z</time></trkpt><trkpt lat="46.00299385943533" lon="12.265939937311078"><ele>224.5</ele><time>2026-03-29T13:02:45Z</time></trkpt><trkpt lat="46.00311523176095" lon="12.265988799561777"><ele>222.25</ele><time>2026-03-29T13:02:46Z</time></trkpt><trkpt lat="46.003233978659324" lon="12.26601683165438"><ele>220.0</ele><time>2026-03-29T13:02:47Z</time></trkpt><trkpt lat="46.003350479628736" lon="12.266021225700351"><ele>219.25</ele><time>2026-03-29T13:02:48Z</time></trkpt><trkpt lat="46.003465428443114" lon="12.266016276962306"><ele>218.5</ele><time>2026-03-29T13:02:49.001Z</time></trkpt><trkpt lat="46.00357761955704" lon="12.26600467974774"><ele>217.75</ele><time>2026-03-29T13:02:50.001Z</time></trkpt><trkpt lat="46.00369045859195" lon="12.26599383852422"><ele>217.0</ele><time>2026-03-29T13:02:51.001Z</time></trkpt><trkpt lat="46.00380144846338" lon="12.265984020661667"><ele>217.0</ele><time>2026-03-29T13:02:52.001Z</time></trkpt><trkpt lat="46.00391052928204" lon="12.265977398117686"><ele>217.0</ele><time>2026-03-29T13:02:53.001Z</time></trkpt><trkpt lat="46.00401900515808" lon="12.265987334578936"><ele>217.0</ele><time>2026-03-29T13:02:54.001Z</time></trkpt><trkpt lat="46.004128369824606" lon="12.26602366414277"><ele>217.0</ele><time>2026-03-29T13:02:55.001Z</time></trkpt><trkpt lat="46.004240215255955" lon="12.266089201431452"><ele>216.5</ele><time>2026-03-29T13:02:56.001Z</time></trkpt><trkpt lat="46.004353679672185" lon="12.266176757855572"><ele>216.0</ele><time>2026-03-29T13:02:57.001Z</time></trkpt><trkpt lat="46.00445157470813" lon="12.266287674745827"><ele>215.5</ele><time>2026-03-29T13:02:58.001Z</time></trkpt><trkpt lat="46.004536130100284" lon="12.266414055318677"><ele>215.0</ele><time>2026-03-29T13:02:59.001Z</time></trkpt><trkpt lat="46.00460535078472" lon="12.2665668674378"><ele>213.0</ele><time>2026-03-29T13:03:00.001Z</time></trkpt><trkpt lat="46.004677844239424" lon="12.266736384464606"><ele>211.0</ele><time>2026-03-29T13:03:01.001Z</time></trkpt><trkpt lat="46.00474713832091" lon="12.266911972309847"><ele>209.0</ele><time>2026-03-29T13:03:02.001Z</time></trkpt><trkpt lat="46.00481312278567" lon="12.267080828489677"><ele>207.0</ele><time>2026-03-29T13:03:03.001Z</time></trkpt><trkpt lat="46.004877929457614" lon="12.267243677881254"><ele>207.5</ele><time>2026-03-29T13:03:04.001Z</time></trkpt><trkpt lat="46.00494165562902" lon="12.26740315501133"><ele>208.0</ele><time>2026-03-29T13:03:05.001Z</time></trkpt><trkpt lat="46.00500554718899" lon="12.267565193125199"><ele>208.5</ele><time>2026-03-29T13:03:06.001Z</time></trkpt><trkpt lat="46.00507044250798" lon="12.267733352406184"><ele>209.0</ele><time>2026-03-29T13:03:07.001Z</time></trkpt><trkpt lat="46.00513291937612" lon="12.267894213783231"><ele>209.0</ele><time>2026-03-29T13:03:08.001Z</time></trkpt><trkpt lat="46.0051935746071" lon="12.268050537577718"><ele>209.0</ele><time>2026-03-29T13:03:09.001Z</time></trkpt><trkpt lat="46.00525546884324" lon="12.268201159308939"><ele>209.0</ele><time>2026-03-29T13:03:10.001Z</time></trkpt><trkpt lat="46.005314677578134" lon="12.268349408555881"><ele>209.0</ele><time>2026-03-29T13:03:11.001Z</time></trkpt><trkpt lat="46.005372390370546" lon="12.268500329822613"><ele>206.5</ele><time>2026-03-29T13:03:12.001Z</time></trkpt><trkpt lat="46.00542776940564" lon="12.268648695538676"><ele>204.0</ele><time>2026-03-29T13:03:13.001Z</time></trkpt><trkpt lat="46.00548060373161" lon="12.268795963546737"><ele>201.5</ele><time>2026-03-29T13:03:14.001Z</time></trkpt><trkpt lat="46.00553959203717" lon="12.268941512701891"><ele>199.0</ele><time>2026-03-29T13:03:15.001Z</time></trkpt><trkpt lat="46.00558514151051" lon="12.269089722315616"><ele>197.75</ele><time>2026-03-29T13:03:16.001Z</time></trkpt><trkpt lat="46.0056325132239" lon="12.269241703591788"><ele>196.5</ele><time>2026-03-29T13:03:17.001Z</time></trkpt><trkpt lat="46.00567483688399" lon="12.269397139183589"><ele>195.25</ele><time>2026-03-29T13:03:18.001Z</time></trkpt><trkpt lat="46.005708714368794" lon="12.269554542648471"><ele>194.0</ele><time>2026-03-29T13:03:19.001Z</time></trkpt><trkpt lat="46.00574213502069" lon="12.269723957953635"><ele>193.0</ele><time>2026-03-29T13:03:20.001Z</time></trkpt><trkpt lat="46.005769009430814" lon="12.26990463197461"><ele>192.0</ele><time>2026-03-29T13:03:21.001Z</time></trkpt><trkpt lat="46.00579783293154" lon="12.270093962075537"><ele>191.0</ele><time>2026-03-29T13:03:22.001Z</time></trkpt><trkpt lat="46.005828118587935" lon="12.270288424078604"><ele>190.0</ele><time>2026-03-29T13:03:23.001Z</time></trkpt><trkpt lat="46.00585480855527" lon="12.270489615583498"><ele>191.25</ele><time>2026-03-29T13:03:24.001Z</time></trkpt><trkpt lat="46.005885536399646" lon="12.270687233620237"><ele>192.5</ele><time>2026-03-29T13:03:25.001Z</time></trkpt><trkpt lat="46.0059153105457" lon="12.270883956482278"><ele>193.75</ele><time>2026-03-29T13:03:26.001Z</time></trkpt><trkpt lat="46.005947549630115" lon="12.271077489985414"><ele>195.0</ele><time>2026-03-29T13:03:27.001Z</time></trkpt><trkpt lat="46.00597997673018" lon="12.271263013343876"><ele>194.25</ele><time>2026-03-29T13:03:28.001Z</time></trkpt><trkpt lat="46.006011742179744" lon="12.271449233654282"><ele>193.5</ele><time>2026-03-29T13:03:29.001Z</time></trkpt><trkpt lat="46.00603987912122" lon="12.271634351885396"><ele>192.75</ele><time>2026-03-29T13:03:30.001Z</time></trkpt><trkpt lat="46.00606508685719" lon="12.27182314920044"><ele>192.0</ele><time>2026-03-29T13:03:31.001Z</time></trkpt><trkpt lat="46.006094632697355" lon="12.272011079915664"><ele>192.0</ele><time>2026-03-29T13:03:32.001Z</time></trkpt><trkpt lat="46.006127003320984" lon="12.272202963699586"><ele>192.0</ele><time>2026-03-29T13:03:33.001Z</time></trkpt><trkpt lat="46.006156537088145" lon="12.272398430522406"><ele>192.0</ele><time>2026-03-29T13:03:34.001Z</time></trkpt><trkpt lat="46.00618955557799" lon="12.272591865395235"><ele>192.0</ele><time>2026-03-29T13:03:35.001Z</time></trkpt><trkpt lat="46.00622494501656" lon="12.272791180662365"><ele>191.75</ele><time>2026-03-29T13:03:36.001Z</time></trkpt><trkpt lat="46.00625497245284" lon="12.27299348309996"><ele>191.5</ele><time>2026-03-29T13:03:37.001Z</time></trkpt><trkpt lat="46.006287068738814" lon="12.273196522488373"><ele>191.25</ele><time>2026-03-29T13:03:38.001Z</time></trkpt><trkpt lat="46.00631962090045" lon="12.273400221793704"><ele>191.0</ele><time>2026-03-29T13:03:38.999Z</time></trkpt><trkpt lat="46.00635278613606" lon="12.273604528545846"><ele>190.5</ele><time>2026-03-29T13:03:39.999Z</time></trkpt><trkpt lat="46.006382410297554" lon="12.273807408142238"><ele>190.0</ele><time>2026-03-29T13:03:40.999Z</time></trkpt><trkpt lat="46.0064129181912" lon="12.274009396415702"><ele>189.5</ele><time>2026-03-29T13:03:41.999Z</time></trkpt><trkpt lat="46.00644212733991" lon="12.274207313169114"><ele>189.0</ele><time>2026-03-29T13:03:42.999Z</time></trkpt><trkpt lat="46.00647171530704" lon="12.274400944813108"><ele>187.0</ele><time>2026-03-29T13:03:43.999Z</time></trkpt><trkpt lat="46.00650310412933" lon="12.274593649312141"><ele>185.0</ele><time>2026-03-29T13:03:44.999Z</time></trkpt><trkpt lat="46.006533156016026" lon="12.274788034554351"><ele>183.0</ele><time>2026-03-29T13:03:45.999Z</time></trkpt><trkpt lat="46.00656561103211" lon="12.274989573906755"><ele>181.0</ele><time>2026-03-29T13:03:46.999Z</time></trkpt><trkpt lat="46.0065988891481" lon="12.275196360070748"><ele>180.0</ele><time>2026-03-29T13:03:47.999Z</time></trkpt><trkpt lat="46.006630877018594" lon="12.275408512454376"><ele>179.0</ele><time>2026-03-29T13:03:48.999Z</time></trkpt><trkpt lat="46.006664810397005" lon="12.275623808703918"><ele>178.0</ele><time>2026-03-29T13:03:49.999Z</time></trkpt><trkpt lat="46.00669893826788" lon="12.275841425608098"><ele>178.0</ele><time>2026-03-29T13:03:50.999Z</time></trkpt><trkpt lat="46.00673203651757" lon="12.276060946915537"><ele>178.0</ele><time>2026-03-29T13:03:51.999Z</time></trkpt><trkpt lat="46.00676687143378" lon="12.276271899751524"><ele>178.0</ele><time>2026-03-29T13:03:52.999Z</time></trkpt><trkpt lat="46.00679696482712" lon="12.27647878058964"><ele>176.5</ele><time>2026-03-29T13:03:53.999Z</time></trkpt><trkpt lat="46.00681936600446" lon="12.276678421104169"><ele>175.0</ele><time>2026-03-29T13:03:54.999Z</time></trkpt><trkpt lat="46.006839133771464" lon="12.27686878540351"><ele>173.5</ele><time>2026-03-29T13:03:55.999Z</time></trkpt><trkpt lat="46.006847943793666" lon="12.277039890464827"><ele>172.0</ele><time>2026-03-29T13:03:56.999Z</time></trkpt><trkpt lat="46.00684328458132" lon="12.277189974141473"><ele>171.33333333333334</ele><time>2026-03-29T13:03:58Z</time></trkpt><trkpt lat="46.00683307478451" lon="12.277315870318699"><ele>170.66666666666669</ele><time>2026-03-29T13:03:59Z</time></trkpt><trkpt lat="46.00681603310606" lon="12.277404276918883"><ele>170.0</ele><time>2026-03-29T13:04:00Z</time></trkpt><trkpt lat="46.006779026200654" lon="12.277487479279817"><ele>169.33333333333334</ele><time>2026-03-29T13:04:02Z</time></trkpt><trkpt lat="46.0067519357092" lon="12.277571992620587"><ele>168.66666666666666</ele><time>2026-03-29T13:04:30Z</time></trkpt><trkpt lat="46.00675624018813" lon="12.277703148367246"><ele>168.0</ele><time>2026-03-29T13:10:19.001Z</time></trkpt><trkpt lat="46.00680574784513" lon="12.277830729385654"><ele>168.0</ele><time>2026-03-29T13:10:21.001Z</time></trkpt><trkpt lat="46.00681797073554" lon="12.277930877953098"><ele>168.0</ele><time>2026-03-29T13:10:23.001Z</time></trkpt><trkpt lat="46.00683921905057" lon="12.278020659110544"><ele>168.0</ele><time>2026-03-29T13:10:25.001Z</time></trkpt><trkpt lat="46.00686882265216" lon="12.278113658875672"><ele>168.0</ele><time>2026-03-29T13:10:31.001Z</time></trkpt><trkpt lat="46.006893533706" lon="12.278244705553616"><ele>168.0</ele><time>2026-03-29T13:10:33.001Z</time></trkpt><trkpt lat="46.00690230238498" lon="12.278424482383395"><ele>168.0</ele><time>2026-03-29T13:10:35.001Z</time></trkpt><trkpt lat="46.00687546609494" lon="12.278543025845638"><ele>167.8</ele><time>2026-03-29T13:10:36.001Z</time></trkpt><trkpt lat="46.006878992811" lon="12.278662036691255"><ele>167.60000000000002</ele><time>2026-03-29T13:10:37.001Z</time></trkpt><trkpt lat="46.006883077174415" lon="12.27879986562421"><ele>167.39999999999998</ele><time>2026-03-29T13:10:38.001Z</time></trkpt><trkpt lat="46.006887496782724" lon="12.278949007622002"><ele>167.2</ele><time>2026-03-29T13:10:39.001Z</time></trkpt><trkpt lat="46.00689228424035" lon="12.2791092727254"><ele>167.0</ele><time>2026-03-29T13:10:40.001Z</time></trkpt><trkpt lat="46.00689734379251" lon="12.279275693933561"><ele>167.0</ele><time>2026-03-29T13:10:41.001Z</time></trkpt><trkpt lat="46.00690209892417" lon="12.27943210226575"><ele>167.0</ele><time>2026-03-29T13:10:42.001Z</time></trkpt><trkpt lat="46.00690676225397" lon="12.279596156260169"><ele>167.0</ele><time>2026-03-29T13:10:43.001Z</time></trkpt><trkpt lat="46.00691177327926" lon="12.279768969552018"><ele>167.0</ele><time>2026-03-29T13:10:44.001Z</time></trkpt><trkpt lat="46.00691693286903" lon="12.279946906280328"><ele>167.25</ele><time>2026-03-29T13:10:45.001Z</time></trkpt><trkpt lat="46.00692231078708" lon="12.28013237242601"><ele>167.5</ele><time>2026-03-29T13:10:46.001Z</time></trkpt><trkpt lat="46.00692801266781" lon="12.280321011212484"><ele>167.75</ele><time>2026-03-29T13:10:47.001Z</time></trkpt><trkpt lat="46.00693380898243" lon="12.280512538352056"><ele>168.0</ele><time>2026-03-29T13:10:48.001Z</time></trkpt><trkpt lat="46.00693949517201" lon="12.28070042665586"><ele>167.5</ele><time>2026-03-29T13:10:49.001Z</time></trkpt><trkpt lat="46.00694501781849" lon="12.280882911001076"><ele>167.0</ele><time>2026-03-29T13:10:50.001Z</time></trkpt><trkpt lat="46.00695027690465" lon="12.281057570454644"><ele>166.5</ele><time>2026-03-29T13:10:51.001Z</time></trkpt><trkpt lat="46.00695517781224" lon="12.28122303493292"><ele>166.0</ele><time>2026-03-29T13:10:52.001Z</time></trkpt><trkpt lat="46.00695976563964" lon="12.281377976484656"><ele>166.0</ele><time>2026-03-29T13:10:53.001Z</time></trkpt><trkpt lat="46.00696411527755" lon="12.281524873840054"><ele>166.0</ele><time>2026-03-29T13:10:54.001Z</time></trkpt><trkpt lat="46.00696850524816" lon="12.28167313335077"><ele>166.0</ele><time>2026-03-29T13:10:55.001Z</time></trkpt><trkpt lat="46.006973044020654" lon="12.281826418280133"><ele>166.0</ele><time>2026-03-29T13:10:56.001Z</time></trkpt><trkpt lat="46.00697807600581" lon="12.281979827645314"><ele>166.0</ele><time>2026-03-29T13:10:57.001Z</time></trkpt><trkpt lat="46.00698313217031" lon="12.282134823331841"><ele>165.60000000000002</ele><time>2026-03-29T13:10:58.001Z</time></trkpt><trkpt lat="46.00698861859053" lon="12.28228882316071"><ele>165.2</ele><time>2026-03-29T13:10:59.001Z</time></trkpt><trkpt lat="46.0069937638862" lon="12.282436744642856"><ele>164.8</ele><time>2026-03-29T13:11:00.001Z</time></trkpt><trkpt lat="46.00699855331054" lon="12.282574435249174"><ele>164.39999999999998</ele><time>2026-03-29T13:11:01.001Z</time></trkpt><trkpt lat="46.00700308408364" lon="12.282704689903976"><ele>164.0</ele><time>2026-03-29T13:11:02.001Z</time></trkpt><trkpt lat="46.007007059025" lon="12.282828375977536"><ele>164.0</ele><time>2026-03-29T13:11:03.001Z</time></trkpt><trkpt lat="46.00701006079662" lon="12.282946469829936"><ele>164.0</ele><time>2026-03-29T13:11:04.001Z</time></trkpt><trkpt lat="46.00701215554962" lon="12.28306256330817"><ele>164.0</ele><time>2026-03-29T13:11:05.001Z</time></trkpt><trkpt lat="46.007012125193015" lon="12.283173543341723"><ele>164.0</ele><time>2026-03-29T13:11:06.001Z</time></trkpt><trkpt lat="46.00700737862321" lon="12.283281515017087"><ele>164.0</ele><time>2026-03-29T13:11:07.001Z</time></trkpt><trkpt lat="46.00699552486565" lon="12.283403552140781"><ele>164.0</ele><time>2026-03-29T13:11:08.001Z</time></trkpt><trkpt lat="46.00697588367057" lon="12.283535254647392"><ele>163.6</ele><time>2026-03-29T13:11:09.001Z</time></trkpt><trkpt lat="46.00694270953672" lon="12.283668023295597"><ele>163.2</ele><time>2026-03-29T13:11:10.001Z</time></trkpt><trkpt lat="46.006907589877876" lon="12.283799462557859"><ele>162.79999999999998</ele><time>2026-03-29T13:11:11.001Z</time></trkpt><trkpt lat="46.006871497221994" lon="12.28392853096105"><ele>162.39999999999998</ele><time>2026-03-29T13:11:12.001Z</time></trkpt><trkpt lat="46.00683559665168" lon="12.284051487387547"><ele>162.0</ele><time>2026-03-29T13:11:13.001Z</time></trkpt><trkpt lat="46.00680115053597" lon="12.284166792604786"><ele>161.8</ele><time>2026-03-29T13:11:14.001Z</time></trkpt><trkpt lat="46.006766283382774" lon="12.284284774899692"><ele>161.6</ele><time>2026-03-29T13:11:15.001Z</time></trkpt><trkpt lat="46.00672802489178" lon="12.284416013427313"><ele>161.4</ele><time>2026-03-29T13:11:16.001Z</time></trkpt><trkpt lat="46.006687127817834" lon="12.28455630312458"><ele>161.20000000000002</ele><time>2026-03-29T13:11:17.001Z</time></trkpt><trkpt lat="46.006647486782185" lon="12.284692284197966"><ele>161.0</ele><time>2026-03-29T13:11:18.001Z</time></trkpt><trkpt lat="46.006609394074225" lon="12.284822954036322"><ele>162.83333333333331</ele><time>2026-03-29T13:11:19.001Z</time></trkpt><trkpt lat="46.006573154870914" lon="12.284947265774663"><ele>164.66666666666666</ele><time>2026-03-29T13:11:20.001Z</time></trkpt><trkpt lat="46.006539481109996" lon="12.285069017455298"><ele>166.5</ele><time>2026-03-29T13:11:21.001Z</time></trkpt><trkpt lat="46.00651028589384" lon="12.285187715533992"><ele>168.33333333333334</ele><time>2026-03-29T13:11:22.001Z</time></trkpt><trkpt lat="46.0064892673118" lon="12.2852999610324"><ele>170.16666666666669</ele><time>2026-03-29T13:11:23.001Z</time></trkpt><trkpt lat="46.00647313518549" lon="12.285404592426891"><ele>172.0</ele><time>2026-03-29T13:11:24.001Z</time></trkpt><trkpt lat="46.006468698261926" lon="12.285505656327217"><ele>172.0</ele><time>2026-03-29T13:11:25.001Z</time></trkpt><trkpt lat="46.00644621249587" lon="12.285591920476094"><ele>172.0</ele><time>2026-03-29T13:11:26.001Z</time></trkpt><trkpt lat="46.006403307885876" lon="12.285688441546567"><ele>172.0</ele><time>2026-03-29T13:11:28.001Z</time></trkpt><trkpt lat="46.00632091100187" lon="12.285747618868719"><ele>172.0</ele><time>2026-03-29T13:11:30.001Z</time></trkpt><trkpt lat="46.006252495067585" lon="12.285777755299902"><ele>172.0</ele><time>2026-03-29T13:11:31.001Z</time></trkpt><trkpt lat="46.00617633591649" lon="12.285806251996775"><ele>172.0</ele><time>2026-03-29T13:11:32.001Z</time></trkpt><trkpt lat="46.00609295968554" lon="12.285840792362215"><ele>168.79999999999998</ele><time>2026-03-29T13:11:33.001Z</time></trkpt><trkpt lat="46.0059994477043" lon="12.285876371692957"><ele>165.6</ele><time>2026-03-29T13:11:34.001Z</time></trkpt><trkpt lat="46.00589816744298" lon="12.285916188409493"><ele>162.39999999999998</ele><time>2026-03-29T13:11:35.001Z</time></trkpt><trkpt lat="46.00580001314229" lon="12.28595300698587"><ele>159.2</ele><time>2026-03-29T13:11:36.001Z</time></trkpt><trkpt lat="46.00569937577837" lon="12.285987721031383"><ele>156.0</ele><time>2026-03-29T13:11:37.001Z</time></trkpt><trkpt lat="46.00559765361604" lon="12.286014089506983"><ele>156.0</ele><time>2026-03-29T13:11:38.001Z</time></trkpt><trkpt lat="46.00549757384008" lon="12.28603268704369"><ele>156.0</ele><time>2026-03-29T13:11:39.001Z</time></trkpt><trkpt lat="46.00540426057064" lon="12.286043753807082"><ele>156.0</ele><time>2026-03-29T13:11:40.001Z</time></trkpt><trkpt lat="46.00531039578075" lon="12.28604516691731"><ele>156.0</ele><time>2026-03-29T13:11:41.001Z</time></trkpt><trkpt lat="46.00521432461683" lon="12.286044916021986"><ele>156.0</ele><time>2026-03-29T13:11:42.001Z</time></trkpt><trkpt lat="46.00510804056183" lon="12.286041394611638"><ele>156.0</ele><time>2026-03-29T13:11:43.001Z</time></trkpt><trkpt lat="46.00500429007739" lon="12.286035697694908"><ele>156.0</ele><time>2026-03-29T13:11:44.001Z</time></trkpt><trkpt lat="46.00489715601034" lon="12.286023617253091"><ele>156.0</ele><time>2026-03-29T13:11:45.001Z</time></trkpt><trkpt lat="46.00478801553266" lon="12.286013225261435"><ele>156.0</ele><time>2026-03-29T13:11:46.001Z</time></trkpt><trkpt lat="46.00467919810143" lon="12.286002854610167"><ele>156.0</ele><time>2026-03-29T13:11:47.001Z</time></trkpt><trkpt lat="46.00456613198866" lon="12.285995254675813"><ele>156.0</ele><time>2026-03-29T13:11:48.001Z</time></trkpt><trkpt lat="46.004448276422956" lon="12.285967715347928"><ele>156.0</ele><time>2026-03-29T13:11:49.001Z</time></trkpt><trkpt lat="46.00433017602767" lon="12.285968442100431"><ele>156.0</ele><time>2026-03-29T13:11:50.001Z</time></trkpt><trkpt lat="46.00420760043854" lon="12.285977072621938"><ele>156.0</ele><time>2026-03-29T13:11:51.001Z</time></trkpt><trkpt lat="46.00408278024102" lon="12.285999439024945"><ele>156.0</ele><time>2026-03-29T13:11:52.001Z</time></trkpt><trkpt lat="46.0039581132067" lon="12.286036370933504"><ele>156.0</ele><time>2026-03-29T13:11:53.001Z</time></trkpt><trkpt lat="46.00383527081716" lon="12.286082946192106"><ele>156.0</ele><time>2026-03-29T13:11:54.001Z</time></trkpt><trkpt lat="46.00371354276262" lon="12.286133903527755"><ele>156.0</ele><time>2026-03-29T13:11:55.001Z</time></trkpt><trkpt lat="46.00359317949246" lon="12.286186658209648"><ele>156.0</ele><time>2026-03-29T13:11:56.001Z</time></trkpt><trkpt lat="46.00347307906842" lon="12.286235417509692"><ele>156.0</ele><time>2026-03-29T13:11:57.001Z</time></trkpt><trkpt lat="46.00335863951542" lon="12.286288782701444"><ele>156.0</ele><time>2026-03-29T13:11:58.001Z</time></trkpt><trkpt lat="46.00324966571532" lon="12.286351080122296"><ele>156.0</ele><time>2026-03-29T13:11:59.001Z</time></trkpt><trkpt lat="46.00314602501261" lon="12.286424604391417"><ele>155.5</ele><time>2026-03-29T13:12:00.001Z</time></trkpt><trkpt lat="46.00305399853663" lon="12.286513622281094"><ele>155.0</ele><time>2026-03-29T13:12:01.001Z</time></trkpt><trkpt lat="46.0029646279921" lon="12.286620783695405"><ele>154.5</ele><time>2026-03-29T13:12:02.001Z</time></trkpt><trkpt lat="46.00288308143224" lon="12.286739634465562"><ele>154.0</ele><time>2026-03-29T13:12:03Z</time></trkpt><trkpt lat="46.00281221087922" lon="12.286868451958817"><ele>154.0</ele><time>2026-03-29T13:12:04Z</time></trkpt><trkpt lat="46.002735251490684" lon="12.286999326426121"><ele>154.0</ele><time>2026-03-29T13:12:05Z</time></trkpt><trkpt lat="46.002657775298296" lon="12.287131079724587"><ele>154.0</ele><time>2026-03-29T13:12:06Z</time></trkpt><trkpt lat="46.002581092373916" lon="12.28726537398777"><ele>154.0</ele><time>2026-03-29T13:12:07Z</time></trkpt><trkpt lat="46.002503721902976" lon="12.287401373470683"><ele>154.5</ele><time>2026-03-29T13:12:08Z</time></trkpt><trkpt lat="46.00242448348614" lon="12.287540656387279"><ele>155.0</ele><time>2026-03-29T13:12:09Z</time></trkpt><trkpt lat="46.00234295304298" lon="12.287683968132365"><ele>155.5</ele><time>2026-03-29T13:12:10Z</time></trkpt><trkpt lat="46.00225690221189" lon="12.287833982044038"><ele>156.0</ele><time>2026-03-29T13:12:11Z</time></trkpt><trkpt lat="46.00216904390842" lon="12.287987423383294"><ele>155.5</ele><time>2026-03-29T13:12:12Z</time></trkpt><trkpt lat="46.00207924437162" lon="12.288145841306005"><ele>155.0</ele><time>2026-03-29T13:12:13Z</time></trkpt><trkpt lat="46.00199447333356" lon="12.288296666202069"><ele>154.5</ele><time>2026-03-29T13:12:14Z</time></trkpt><trkpt lat="46.00191435091787" lon="12.28843986082332"><ele>154.0</ele><time>2026-03-29T13:12:15Z</time></trkpt><trkpt lat="46.001839142675344" lon="12.288570833705098"><ele>154.0</ele><time>2026-03-29T13:12:16Z</time></trkpt><trkpt lat="46.001768775023756" lon="12.288693902461679"><ele>154.0</ele><time>2026-03-29T13:12:17Z</time></trkpt><trkpt lat="46.001700711070754" lon="12.288812942471374"><ele>154.0</ele><time>2026-03-29T13:12:18Z</time></trkpt><trkpt lat="46.00163556250695" lon="12.288926613486844"><ele>154.0</ele><time>2026-03-29T13:12:19Z</time></trkpt><trkpt lat="46.001574644312385" lon="12.289031200175218"><ele>154.0</ele><time>2026-03-29T13:12:20Z</time></trkpt><trkpt lat="46.00151097699812" lon="12.289130396659347"><ele>154.4</ele><time>2026-03-29T13:12:21Z</time></trkpt><trkpt lat="46.00144579306558" lon="12.289219963947293"><ele>154.8</ele><time>2026-03-29T13:12:22Z</time></trkpt><trkpt lat="46.00137557980129" lon="12.289300325251665"><ele>155.2</ele><time>2026-03-29T13:12:23Z</time></trkpt><trkpt lat="46.00129963139024" lon="12.289358143785801"><ele>155.6</ele><time>2026-03-29T13:12:24Z</time></trkpt><trkpt lat="46.00120848744536" lon="12.289390805899785"><ele>156.0</ele><time>2026-03-29T13:12:25Z</time></trkpt><trkpt lat="46.00110677169505" lon="12.289423167632899"><ele>156.0</ele><time>2026-03-29T13:12:26Z</time></trkpt><trkpt lat="46.00099872294485" lon="12.289450129200839"><ele>156.0</ele><time>2026-03-29T13:12:27Z</time></trkpt><trkpt lat="46.00088605958664" lon="12.289483676175813"><ele>156.0</ele><time>2026-03-29T13:12:28Z</time></trkpt><trkpt lat="46.000779005881874" lon="12.289547101263153"><ele>156.0</ele><time>2026-03-29T13:12:29Z</time></trkpt><trkpt lat="46.00068642999473" lon="12.289621893748276"><ele>156.0</ele><time>2026-03-29T13:12:30Z</time></trkpt><trkpt lat="46.0006001373577" lon="12.289693084178907"><ele>154.0</ele><time>2026-03-29T13:12:31Z</time></trkpt><trkpt lat="46.00050880190564" lon="12.289769118274485"><ele>152.0</ele><time>2026-03-29T13:12:32Z</time></trkpt><trkpt lat="46.000419006235035" lon="12.289845223083432"><ele>150.0</ele><time>2026-03-29T13:12:33Z</time></trkpt><trkpt lat="46.000331162593476" lon="12.28992001120523"><ele>148.0</ele><time>2026-03-29T13:12:34Z</time></trkpt><trkpt lat="46.00024582970732" lon="12.289986098823185"><ele>146.0</ele><time>2026-03-29T13:12:35Z</time></trkpt><trkpt lat="46.00016597929628" lon="12.290049671869514"><ele>146.0</ele><time>2026-03-29T13:12:36Z</time></trkpt><trkpt lat="46.0000693934543" lon="12.290067368632757"><ele>146.0</ele><time>2026-03-29T13:12:37Z</time></trkpt><trkpt lat="45.99998066678657" lon="12.290055934776271"><ele>146.0</ele><time>2026-03-29T13:12:38Z</time></trkpt><trkpt lat="45.999900202673494" lon="12.290010425986086"><ele>146.0</ele><time>2026-03-29T13:12:39Z</time></trkpt><trkpt lat="45.999805661847454" lon="12.289979851081013"><ele>146.0</ele><time>2026-03-29T13:12:40Z</time></trkpt><trkpt lat="45.99970810426164" lon="12.289948300466712"><ele>146.0</ele><time>2026-03-29T13:12:41Z</time></trkpt><trkpt lat="45.99960853903031" lon="12.289958884022305"><ele>146.0</ele><time>2026-03-29T13:12:42Z</time></trkpt><trkpt lat="45.99952012354024" lon="12.289932002512765"><ele>146.0</ele><time>2026-03-29T13:12:43Z</time></trkpt><trkpt lat="45.999436834751286" lon="12.289909900582698"><ele>146.0</ele><time>2026-03-29T13:12:44Z</time></trkpt><trkpt lat="45.99935653471995" lon="12.289904867011979"><ele>146.0</ele><time>2026-03-29T13:12:45Z</time></trkpt><trkpt lat="45.999281841989244" lon="12.289897575416559"><ele>146.0</ele><time>2026-03-29T13:12:46Z</time></trkpt><trkpt lat="45.99921569293584" lon="12.289879951287075"><ele>146.0</ele><time>2026-03-29T13:12:47Z</time></trkpt><trkpt lat="45.99915356735313" lon="12.289854689027978"><ele>146.0</ele><time>2026-03-29T13:12:48Z</time></trkpt><trkpt lat="45.999043936350816" lon="12.289868957487272"><ele>146.0</ele><time>2026-03-29T13:12:50Z</time></trkpt><trkpt lat="45.99894177019025" lon="12.289918722428924"><ele>146.0</ele><time>2026-03-29T13:12:52Z</time></trkpt><trkpt lat="45.99884226893913" lon="12.289926674613374"><ele>146.0</ele><time>2026-03-29T13:12:54Z</time></trkpt><trkpt lat="45.9987596217407" lon="12.289944487646098"><ele>146.0</ele><time>2026-03-29T13:12:56Z</time></trkpt><trkpt lat="45.9986621007279" lon="12.290005919629237"><ele>146.0</ele><time>2026-03-29T13:12:58Z</time></trkpt><trkpt lat="45.99854144964103" lon="12.290054397944646"><ele>146.0</ele><time>2026-03-29T13:13:00Z</time></trkpt><trkpt lat="45.99846130535571" lon="12.290067082900459"><ele>146.0</ele><time>2026-03-29T13:13:01Z</time></trkpt><trkpt lat="45.9983921117133" lon="12.290084937690889"><ele>146.0</ele><time>2026-03-29T13:13:02Z</time></trkpt><trkpt lat="45.99827327263473" lon="12.290099271106786"><ele>146.2</ele><time>2026-03-29T13:13:04Z</time></trkpt><trkpt lat="45.99816103347831" lon="12.290121933131996"><ele>146.39999999999998</ele><time>2026-03-29T13:13:06Z</time></trkpt><trkpt lat="45.99807167993161" lon="12.290170646384043"><ele>146.6</ele><time>2026-03-29T13:13:08Z</time></trkpt><trkpt lat="45.99799229972712" lon="12.290194800866777"><ele>146.79999999999998</ele><time>2026-03-29T13:13:10Z</time></trkpt><trkpt lat="45.99790783060765" lon="12.290230282216031"><ele>147.0</ele><time>2026-03-29T13:13:12Z</time></trkpt><trkpt lat="45.99781299598235" lon="12.290274212270251"><ele>147.0</ele><time>2026-03-29T13:13:14Z</time></trkpt><trkpt lat="45.997720159197904" lon="12.29028683084975"><ele>147.0</ele><time>2026-03-29T13:13:16Z</time></trkpt><trkpt lat="45.99761952238171" lon="12.290339548025692"><ele>147.0</ele><time>2026-03-29T13:13:18Z</time></trkpt><trkpt lat="45.997542780291134" lon="12.290362891848458"><ele>147.0</ele><time>2026-03-29T13:13:20Z</time></trkpt><trkpt lat="45.997472347303116" lon="12.290408424688268"><ele>147.0</ele><time>2026-03-29T13:13:22Z</time></trkpt><trkpt lat="45.99740631338831" lon="12.290419019004517"><ele>147.0</ele><time>2026-03-29T13:13:23Z</time></trkpt><trkpt lat="45.997300860635036" lon="12.2904933099653"><ele>146.83333333333334</ele><time>2026-03-29T13:13:25.001Z</time></trkpt><trkpt lat="45.99722224860341" lon="12.29056114721585"><ele>146.66666666666666</ele><time>2026-03-29T13:13:27.001Z</time></trkpt><trkpt lat="45.997128492208375" lon="12.290679568753221"><ele>146.5</ele><time>2026-03-29T13:13:29.001Z</time></trkpt><trkpt lat="45.997075333660206" lon="12.290744251714141"><ele>146.33333333333331</ele><time>2026-03-29T13:13:30.001Z</time></trkpt><trkpt lat="45.99701319578472" lon="12.290810373508224"><ele>146.16666666666666</ele><time>2026-03-29T13:13:31.001Z</time></trkpt><trkpt lat="45.99696551064088" lon="12.29088530646386"><ele>146.0</ele><time>2026-03-29T13:13:32.001Z</time></trkpt><trkpt lat="45.996887819955994" lon="12.290997315990438"><ele>145.2</ele><time>2026-03-29T13:13:34.001Z</time></trkpt><trkpt lat="45.99683410358108" lon="12.29106829320341"><ele>144.39999999999998</ele><time>2026-03-29T13:13:36.001Z</time></trkpt><trkpt lat="45.9969077096267" lon="12.291245582258759"><ele>143.6</ele><time>2026-03-29T13:13:37.001Z</time></trkpt><trkpt lat="45.996941032360766" lon="12.291339705591229"><ele>142.79999999999998</ele><time>2026-03-29T13:13:38.001Z</time></trkpt><trkpt lat="45.99698090206255" lon="12.291440048500839"><ele>142.0</ele><time>2026-03-29T13:13:39.001Z</time></trkpt><trkpt lat="45.99702836881903" lon="12.29154281977499"><ele>141.33333333333334</ele><time>2026-03-29T13:13:40.001Z</time></trkpt><trkpt lat="45.99707576429116" lon="12.291635719845404"><ele>140.66666666666669</ele><time>2026-03-29T13:13:41.001Z</time></trkpt><trkpt lat="45.997122507077684" lon="12.291723984300798"><ele>140.0</ele><time>2026-03-29T13:13:42.001Z</time></trkpt><trkpt lat="45.9971632544948" lon="12.291816838330304"><ele>139.33333333333334</ele><time>2026-03-29T13:13:43.001Z</time></trkpt><trkpt lat="45.99718960708283" lon="12.291909968913268"><ele>138.66666666666666</ele><time>2026-03-29T13:13:44.001Z</time></trkpt><trkpt lat="45.997202762240995" lon="12.292053403715453"><ele>138.0</ele><time>2026-03-29T13:13:46.001Z</time></trkpt><trkpt lat="45.99720133255449" lon="12.292169042055946"><ele>138.0</ele><time>2026-03-29T13:13:48.001Z</time></trkpt><trkpt lat="45.99723467719505" lon="12.292295744603523"><ele>138.0</ele><time>2026-03-29T13:13:50.001Z</time></trkpt><trkpt lat="45.99729574994314" lon="12.292434350568048"><ele>138.0</ele><time>2026-03-29T13:13:52.001Z</time></trkpt><trkpt lat="45.997223508509194" lon="12.292598341397554"><ele>138.0</ele><time>2026-03-29T13:13:54.001Z</time></trkpt><trkpt lat="45.997174033960874" lon="12.292698641082636"><ele>138.0</ele><time>2026-03-29T13:13:55.001Z</time></trkpt><trkpt lat="45.99711474182867" lon="12.292785946329232"><ele>138.0</ele><time>2026-03-29T13:13:56.001Z</time></trkpt><trkpt lat="45.99704485480753" lon="12.292884004373807"><ele>138.0</ele><time>2026-03-29T13:13:57.001Z</time></trkpt><trkpt lat="45.99696736694233" lon="12.292989774835245"><ele>138.0</ele><time>2026-03-29T13:13:58.001Z</time></trkpt><trkpt lat="45.99689331742024" lon="12.293085082643284"><ele>138.0</ele><time>2026-03-29T13:13:59.001Z</time></trkpt><trkpt lat="45.9968131702961" lon="12.293184858305413"><ele>138.0</ele><time>2026-03-29T13:14:00.001Z</time></trkpt><trkpt lat="45.99672794697855" lon="12.293286757000976"><ele>138.0</ele><time>2026-03-29T13:14:01.001Z</time></trkpt><trkpt lat="45.99663760261248" lon="12.293388268249169"><ele>138.0</ele><time>2026-03-29T13:14:02.001Z</time></trkpt><trkpt lat="45.9965407831353" lon="12.293488801945914"><ele>138.0</ele><time>2026-03-29T13:14:03.001Z</time></trkpt><trkpt lat="45.99643815820252" lon="12.293588641442154"><ele>138.0</ele><time>2026-03-29T13:14:04.001Z</time></trkpt><trkpt lat="45.99633312182518" lon="12.293689367436047"><ele>138.0</ele><time>2026-03-29T13:14:05.001Z</time></trkpt><trkpt lat="45.99622382273291" lon="12.29378769836189"><ele>138.0</ele><time>2026-03-29T13:14:06.001Z</time></trkpt><trkpt lat="45.99612056463028" lon="12.29388146644754"><ele>138.0</ele><time>2026-03-29T13:14:07.001Z</time></trkpt><trkpt lat="45.996016255411774" lon="12.293977111618313"><ele>138.0</ele><time>2026-03-29T13:14:08.001Z</time></trkpt><trkpt lat="45.99591289873843" lon="12.29407188336729"><ele>138.6</ele><time>2026-03-29T13:14:08.999Z</time></trkpt><trkpt lat="45.995811896681694" lon="12.294164496107804"><ele>139.20000000000002</ele><time>2026-03-29T13:14:09.999Z</time></trkpt><trkpt lat="45.99571587856769" lon="12.294252142048942"><ele>139.8</ele><time>2026-03-29T13:14:10.999Z</time></trkpt><trkpt lat="45.99562735368659" lon="12.294332914267338"><ele>140.4</ele><time>2026-03-29T13:14:11.999Z</time></trkpt><trkpt lat="45.99553842565077" lon="12.294414054288715"><ele>141.0</ele><time>2026-03-29T13:14:12.999Z</time></trkpt><trkpt lat="45.995449327002625" lon="12.29449534999978"><ele>141.0</ele><time>2026-03-29T13:14:13.999Z</time></trkpt><trkpt lat="45.99535967164426" lon="12.294577153660528"><ele>141.0</ele><time>2026-03-29T13:14:14.999Z</time></trkpt><trkpt lat="45.99527479066903" lon="12.294653897013562"><ele>141.0</ele><time>2026-03-29T13:14:15.999Z</time></trkpt><trkpt lat="45.995204500106325" lon="12.29471673087939"><ele>141.0</ele><time>2026-03-29T13:14:16.999Z</time></trkpt><trkpt lat="45.99513654729212" lon="12.29477747502271"><ele>141.0</ele><time>2026-03-29T13:14:17.999Z</time></trkpt><trkpt lat="45.99507810335177" lon="12.294829718995402"><ele>141.0</ele><time>2026-03-29T13:14:18.999Z</time></trkpt><trkpt lat="45.99497871971219" lon="12.294918559637711"><ele>140.6</ele><time>2026-03-29T13:14:20.999Z</time></trkpt><trkpt lat="45.994911117498276" lon="12.294978990360157"><ele>140.2</ele><time>2026-03-29T13:14:22.999Z</time></trkpt><trkpt lat="45.99484879373739" lon="12.295034702594622"><ele>139.8</ele><time>2026-03-29T13:14:52Z</time></trkpt><trkpt lat="45.994781732697014" lon="12.295094649526844"><ele>139.4</ele><time>2026-03-29T13:14:54Z</time></trkpt><trkpt lat="45.99468741115033" lon="12.295178965057035"><ele>139.0</ele><time>2026-03-29T13:14:56Z</time></trkpt><trkpt lat="45.994575352399735" lon="12.295279990472482"><ele>139.0</ele><time>2026-03-29T13:14:58Z</time></trkpt><trkpt lat="45.99451390209797" lon="12.295335914198159"><ele>139.0</ele><time>2026-03-29T13:14:59Z</time></trkpt><trkpt lat="45.99445423357574" lon="12.295390540308476"><ele>139.0</ele><time>2026-03-29T13:15:00Z</time></trkpt><trkpt lat="45.994394595398326" lon="12.295445467510154"><ele>139.0</ele><time>2026-03-29T13:15:01Z</time></trkpt><trkpt lat="45.99433017091694" lon="12.295504807185914"><ele>139.0</ele><time>2026-03-29T13:15:02Z</time></trkpt><trkpt lat="45.99426081649545" lon="12.295568897319223"><ele>139.0</ele><time>2026-03-29T13:15:03Z</time></trkpt><trkpt lat="45.99418714471109" lon="12.295636988507722"><ele>138.4</ele><time>2026-03-29T13:15:04Z</time></trkpt><trkpt lat="45.994108080840405" lon="12.295708544904628"><ele>137.8</ele><time>2026-03-29T13:15:05Z</time></trkpt><trkpt lat="45.99402137019428" lon="12.295784114200153"><ele>137.2</ele><time>2026-03-29T13:15:06Z</time></trkpt><trkpt lat="45.99392855122068" lon="12.295865006964297"><ele>136.6</ele><time>2026-03-29T13:15:07Z</time></trkpt><trkpt lat="45.993832691608894" lon="12.295950588844926"><ele>136.0</ele><time>2026-03-29T13:15:08Z</time></trkpt><trkpt lat="45.993732446131894" lon="12.296041830544036"><ele>136.0</ele><time>2026-03-29T13:15:09Z</time></trkpt><trkpt lat="45.99362622006755" lon="12.296138598407385"><ele>136.0</ele><time>2026-03-29T13:15:10Z</time></trkpt><trkpt lat="45.99352071184073" lon="12.296235068434246"><ele>136.0</ele><time>2026-03-29T13:15:11Z</time></trkpt><trkpt lat="45.993418604245484" lon="12.296328359193147"><ele>136.0</ele><time>2026-03-29T13:15:12Z</time></trkpt><trkpt lat="45.9933161561787" lon="12.296421882788152"><ele>136.0</ele><time>2026-03-29T13:15:13Z</time></trkpt><trkpt lat="45.993216908045646" lon="12.296511606608172"><ele>136.0</ele><time>2026-03-29T13:15:14Z</time></trkpt><trkpt lat="45.993122679798404" lon="12.29659679229776"><ele>136.0</ele><time>2026-03-29T13:15:15Z</time></trkpt><trkpt lat="45.99302956820492" lon="12.296681065198534"><ele>136.0</ele><time>2026-03-29T13:15:16Z</time></trkpt><trkpt lat="45.992935349681844" lon="12.296766534196335"><ele>136.0</ele><time>2026-03-29T13:15:17Z</time></trkpt><trkpt lat="45.992842920165955" lon="12.296850348993097"><ele>136.0</ele><time>2026-03-29T13:15:18Z</time></trkpt><trkpt lat="45.99274613249251" lon="12.296938168478887"><ele>136.0</ele><time>2026-03-29T13:15:19Z</time></trkpt><trkpt lat="45.99264907513865" lon="12.297027195769845"><ele>136.0</ele><time>2026-03-29T13:15:20Z</time></trkpt><trkpt lat="45.9925503045333" lon="12.297117794574426"><ele>136.0</ele><time>2026-03-29T13:15:21Z</time></trkpt><trkpt lat="45.99244573589699" lon="12.2972137105875"><ele>136.0</ele><time>2026-03-29T13:15:22Z</time></trkpt><trkpt lat="45.99234406555487" lon="12.297302551945089"><ele>136.0</ele><time>2026-03-29T13:15:23Z</time></trkpt><trkpt lat="45.99224358100365" lon="12.297389396984844"><ele>136.0</ele><time>2026-03-29T13:15:24Z</time></trkpt><trkpt lat="45.992144960015494" lon="12.297468955313185"><ele>136.25</ele><time>2026-03-29T13:15:25Z</time></trkpt><trkpt lat="45.99204518908221" lon="12.297546610120328"><ele>136.5</ele><time>2026-03-29T13:15:26Z</time></trkpt><trkpt lat="45.99194289089327" lon="12.297621010101947"><ele>136.75</ele><time>2026-03-29T13:15:27Z</time></trkpt><trkpt lat="45.991838198596916" lon="12.297693089070501"><ele>137.0</ele><time>2026-03-29T13:15:28Z</time></trkpt><trkpt lat="45.99173051280503" lon="12.297759726842564"><ele>137.25</ele><time>2026-03-29T13:15:29Z</time></trkpt><trkpt lat="45.99161488825852" lon="12.297820345571964"><ele>137.5</ele><time>2026-03-29T13:15:30Z</time></trkpt><trkpt lat="45.991497812054746" lon="12.297877487380575"><ele>137.75</ele><time>2026-03-29T13:15:31Z</time></trkpt><trkpt lat="45.991377962898504" lon="12.297934834821609"><ele>138.0</ele><time>2026-03-29T13:15:32Z</time></trkpt><trkpt lat="45.991257734517106" lon="12.297992363726973"><ele>138.0</ele><time>2026-03-29T13:15:33Z</time></trkpt><trkpt lat="45.99113629021796" lon="12.298050474439455"><ele>138.0</ele><time>2026-03-29T13:15:34Z</time></trkpt><trkpt lat="45.991014688207805" lon="12.298108660610978"><ele>138.0</ele><time>2026-03-29T13:15:35Z</time></trkpt><trkpt lat="45.99089626694626" lon="12.29818655225776"><ele>138.0</ele><time>2026-03-29T13:15:36Z</time></trkpt><trkpt lat="45.990778936167736" lon="12.298239259495432"><ele>137.20000000000002</ele><time>2026-03-29T13:15:37Z</time></trkpt><trkpt lat="45.9906691239228" lon="12.298288971754298"><ele>136.4</ele><time>2026-03-29T13:15:38Z</time></trkpt><trkpt lat="45.99056556081549" lon="12.29834312694162"><ele>135.60000000000002</ele><time>2026-03-29T13:15:39Z</time></trkpt><trkpt lat="45.990466127305645" lon="12.298389979689274"><ele>134.8</ele><time>2026-03-29T13:15:40Z</time></trkpt><trkpt lat="45.990372392265606" lon="12.298431163039847"><ele>134.0</ele><time>2026-03-29T13:15:41Z</time></trkpt><trkpt lat="45.99027941424105" lon="12.298474027167497"><ele>134.0</ele><time>2026-03-29T13:15:42Z</time></trkpt><trkpt lat="45.99018338960854" lon="12.298524259381969"><ele>134.0</ele><time>2026-03-29T13:15:43Z</time></trkpt><trkpt lat="45.99008289804214" lon="12.298578451079097"><ele>134.0</ele><time>2026-03-29T13:15:44Z</time></trkpt><trkpt lat="45.98997449400755" lon="12.29863446558973"><ele>134.0</ele><time>2026-03-29T13:15:45Z</time></trkpt><trkpt lat="45.98986190875529" lon="12.298690558801527"><ele>134.0</ele><time>2026-03-29T13:15:46Z</time></trkpt><trkpt lat="45.98974332066101" lon="12.29874444239067"><ele>133.75</ele><time>2026-03-29T13:15:47Z</time></trkpt><trkpt lat="45.98962330714227" lon="12.298793329824187"><ele>133.5</ele><time>2026-03-29T13:15:48Z</time></trkpt><trkpt lat="45.989503977044784" lon="12.298843181822363"><ele>133.25</ele><time>2026-03-29T13:15:49Z</time></trkpt><trkpt lat="45.98939012178989" lon="12.298892198496755"><ele>133.0</ele><time>2026-03-29T13:15:50Z</time></trkpt><trkpt lat="45.98928100503542" lon="12.298951673888114"><ele>133.0</ele><time>2026-03-29T13:15:51Z</time></trkpt><trkpt lat="45.98916605200734" lon="12.299002020281039"><ele>133.0</ele><time>2026-03-29T13:15:52Z</time></trkpt><trkpt lat="45.98905677057825" lon="12.299058231782253"><ele>133.0</ele><time>2026-03-29T13:15:53Z</time></trkpt><trkpt lat="45.98894999545395" lon="12.299109877281248"><ele>133.0</ele><time>2026-03-29T13:15:54Z</time></trkpt><trkpt lat="45.98885019269244" lon="12.299154721826785"><ele>133.0</ele><time>2026-03-29T13:15:55Z</time></trkpt><trkpt lat="45.98875043800959" lon="12.29919947787296"><ele>133.0</ele><time>2026-03-29T13:15:56Z</time></trkpt><trkpt lat="45.988650895438894" lon="12.299249234861191"><ele>133.0</ele><time>2026-03-29T13:15:57Z</time></trkpt><trkpt lat="45.988549473595626" lon="12.299296571846716"><ele>133.0</ele><time>2026-03-29T13:15:58Z</time></trkpt><trkpt lat="45.98844580227807" lon="12.299346867170257"><ele>133.0</ele><time>2026-03-29T13:15:59.001Z</time></trkpt><trkpt lat="45.98834139466617" lon="12.299398979654903"><ele>133.0</ele><time>2026-03-29T13:16:00.001Z</time></trkpt><trkpt lat="45.988234938533864" lon="12.299451018491283"><ele>133.0</ele><time>2026-03-29T13:16:01.001Z</time></trkpt><trkpt lat="45.98813262888263" lon="12.299514210061135"><ele>133.0</ele><time>2026-03-29T13:16:02.001Z</time></trkpt><trkpt lat="45.988028764702655" lon="12.299577608124423"><ele>133.0</ele><time>2026-03-29T13:16:03.001Z</time></trkpt><trkpt lat="45.987926299437056" lon="12.299644991278726"><ele>133.0</ele><time>2026-03-29T13:16:04.001Z</time></trkpt><trkpt lat="45.987816472113586" lon="12.299713302917375"><ele>132.5</ele><time>2026-03-29T13:16:05.001Z</time></trkpt><trkpt lat="45.98770784774226" lon="12.29977933018136"><ele>132.0</ele><time>2026-03-29T13:16:06.001Z</time></trkpt><trkpt lat="45.98760194636804" lon="12.299845781255229"><ele>131.5</ele><time>2026-03-29T13:16:07.001Z</time></trkpt><trkpt lat="45.987493862693086" lon="12.2999120520609"><ele>131.0</ele><time>2026-03-29T13:16:08.001Z</time></trkpt><trkpt lat="45.987384194019064" lon="12.299989142091672"><ele>131.0</ele><time>2026-03-29T13:16:09.001Z</time></trkpt><trkpt lat="45.98727648230565" lon="12.300066322032844"><ele>131.0</ele><time>2026-03-29T13:16:10.001Z</time></trkpt><trkpt lat="45.98716498251209" lon="12.300144271973151"><ele>131.0</ele><time>2026-03-29T13:16:11.001Z</time></trkpt><trkpt lat="45.98705168424956" lon="12.300219351030801"><ele>131.0</ele><time>2026-03-29T13:16:12.001Z</time></trkpt><trkpt lat="45.98694580608117" lon="12.300294310599426"><ele>131.0</ele><time>2026-03-29T13:16:13.001Z</time></trkpt><trkpt lat="45.98684172692003" lon="12.300370216047547"><ele>131.0</ele><time>2026-03-29T13:16:14.001Z</time></trkpt><trkpt lat="45.986721336466736" lon="12.300406293008809"><ele>131.0</ele><time>2026-03-29T13:16:14.999Z</time></trkpt><trkpt lat="45.986615461552596" lon="12.300487236897382"><ele>131.0</ele><time>2026-03-29T13:16:15.999Z</time></trkpt><trkpt lat="45.98650521494286" lon="12.300571523074112"><ele>130.5</ele><time>2026-03-29T13:16:16.999Z</time></trkpt><trkpt lat="45.98639558029035" lon="12.300655341373169"><ele>130.0</ele><time>2026-03-29T13:16:17.999Z</time></trkpt><trkpt lat="45.98628870416153" lon="12.3007370507293"><ele>129.5</ele><time>2026-03-29T13:16:18.999Z</time></trkpt><trkpt lat="45.98617932619818" lon="12.30082067278533"><ele>129.0</ele><time>2026-03-29T13:16:19.999Z</time></trkpt><trkpt lat="45.986075358952704" lon="12.300900158215969"><ele>129.0</ele><time>2026-03-29T13:16:20.999Z</time></trkpt><trkpt lat="45.98597749528539" lon="12.300974977320413"><ele>129.0</ele><time>2026-03-29T13:16:21.999Z</time></trkpt><trkpt lat="45.98588438613307" lon="12.301046161487395"><ele>129.0</ele><time>2026-03-29T13:16:22.999Z</time></trkpt><trkpt lat="45.985796010000605" lon="12.301113727148095"><ele>129.0</ele><time>2026-03-29T13:16:23.999Z</time></trkpt><trkpt lat="45.98571453133624" lon="12.301176237981723"><ele>129.0</ele><time>2026-03-29T13:16:24.999Z</time></trkpt><trkpt lat="45.98563451340147" lon="12.3012376852991"><ele>128.8</ele><time>2026-03-29T13:16:25.999Z</time></trkpt><trkpt lat="45.985548685154164" lon="12.30130359450743"><ele>128.60000000000002</ele><time>2026-03-29T13:16:26.999Z</time></trkpt><trkpt lat="45.98545825926671" lon="12.301373034317061"><ele>128.4</ele><time>2026-03-29T13:16:27.999Z</time></trkpt><trkpt lat="45.985364061716" lon="12.301445370459643"><ele>128.20000000000002</ele><time>2026-03-29T13:16:28.999Z</time></trkpt><trkpt lat="45.98526933037577" lon="12.301517560304335"><ele>128.0</ele><time>2026-03-29T13:16:29.999Z</time></trkpt><trkpt lat="45.985174352005586" lon="12.301589479308058"><ele>128.0</ele><time>2026-03-29T13:16:30.999Z</time></trkpt><trkpt lat="45.98507836524153" lon="12.301662679843133"><ele>128.0</ele><time>2026-03-29T13:16:31.999Z</time></trkpt><trkpt lat="45.98498074588964" lon="12.301737526655494"><ele>128.0</ele><time>2026-03-29T13:16:32.999Z</time></trkpt><trkpt lat="45.98488054905946" lon="12.301814574879812"><ele>128.0</ele><time>2026-03-29T13:16:33.999Z</time></trkpt><trkpt lat="45.98477839266404" lon="12.301893129963137"><ele>128.0</ele><time>2026-03-29T13:16:34.999Z</time></trkpt><trkpt lat="45.98468109506651" lon="12.301967948770974"><ele>128.0</ele><time>2026-03-29T13:16:35.999Z</time></trkpt><trkpt lat="45.984587279626744" lon="12.302040089915616"><ele>128.0</ele><time>2026-03-29T13:16:36.999Z</time></trkpt><trkpt lat="45.98449675943532" lon="12.30210969720604"><ele>128.0</ele><time>2026-03-29T13:16:37.999Z</time></trkpt><trkpt lat="45.98440359354599" lon="12.302180572305623"><ele>128.0</ele><time>2026-03-29T13:16:38.999Z</time></trkpt><trkpt lat="45.98430810367402" lon="12.30225331555493"><ele>128.0</ele><time>2026-03-29T13:16:39.999Z</time></trkpt><trkpt lat="45.98420999895751" lon="12.302328050763588"><ele>127.25</ele><time>2026-03-29T13:16:41Z</time></trkpt><trkpt lat="45.98410792949227" lon="12.302405806277541"><ele>126.5</ele><time>2026-03-29T13:16:42Z</time></trkpt><trkpt lat="45.984002827927576" lon="12.302486277341085"><ele>125.75</ele><time>2026-03-29T13:16:43Z</time></trkpt><trkpt lat="45.98389482958709" lon="12.30256902592896"><ele>125.0</ele><time>2026-03-29T13:16:44Z</time></trkpt><trkpt lat="45.983783390686" lon="12.302654410722486"><ele>125.0</ele><time>2026-03-29T13:16:45Z</time></trkpt><trkpt lat="45.983671345872956" lon="12.302740259789825"><ele>125.0</ele><time>2026-03-29T13:16:46Z</time></trkpt><trkpt lat="45.98355565026351" lon="12.302830340507716"><ele>125.0</ele><time>2026-03-29T13:16:47Z</time></trkpt><trkpt lat="45.983438189829" lon="12.302919685723204"><ele>125.0</ele><time>2026-03-29T13:16:48Z</time></trkpt><trkpt lat="45.98331798057964" lon="12.303010137029984"><ele>125.25</ele><time>2026-03-29T13:16:49Z</time></trkpt><trkpt lat="45.98319665266004" lon="12.30310301159407"><ele>125.5</ele><time>2026-03-29T13:16:50Z</time></trkpt><trkpt lat="45.983076275733076" lon="12.303195558827825"><ele>125.75</ele><time>2026-03-29T13:16:51Z</time></trkpt><trkpt lat="45.98296117525323" lon="12.303284049574595"><ele>126.0</ele><time>2026-03-29T13:16:52Z</time></trkpt><trkpt lat="45.98285264665456" lon="12.303367488307444"><ele>126.0</ele><time>2026-03-29T13:16:53Z</time></trkpt><trkpt lat="45.982750089847066" lon="12.303446335818679"><ele>126.0</ele><time>2026-03-29T13:16:54Z</time></trkpt><trkpt lat="45.98265348398971" lon="12.303520608133807"><ele>126.0</ele><time>2026-03-29T13:16:55Z</time></trkpt><trkpt lat="45.982572315799445" lon="12.30363074319404"><ele>126.0</ele><time>2026-03-29T13:16:56Z</time></trkpt><trkpt lat="45.982472850362086" lon="12.303708411099649"><ele>125.75</ele><time>2026-03-29T13:16:57Z</time></trkpt><trkpt lat="45.9823813885303" lon="12.303791368137894"><ele>125.5</ele><time>2026-03-29T13:16:58Z</time></trkpt><trkpt lat="45.98228807366575" lon="12.303887488607339"><ele>125.25</ele><time>2026-03-29T13:16:59Z</time></trkpt><trkpt lat="45.98219214860095" lon="12.303984381532722"><ele>125.0</ele><time>2026-03-29T13:17:00Z</time></trkpt><trkpt lat="45.982090295009826" lon="12.304079305118917"><ele>125.0</ele><time>2026-03-29T13:17:01Z</time></trkpt><trkpt lat="45.98198758469191" lon="12.304177490529586"><ele>125.0</ele><time>2026-03-29T13:17:02Z</time></trkpt><trkpt lat="45.981886993630575" lon="12.304275444199819"><ele>125.0</ele><time>2026-03-29T13:17:03Z</time></trkpt><trkpt lat="45.98178419609742" lon="12.304369538148197"><ele>125.0</ele><time>2026-03-29T13:17:04Z</time></trkpt><trkpt lat="45.981677565365885" lon="12.304454869036975"><ele>125.0</ele><time>2026-03-29T13:17:05Z</time></trkpt><trkpt lat="45.98156966493049" lon="12.304542234214999"><ele>125.0</ele><time>2026-03-29T13:17:06Z</time></trkpt><trkpt lat="45.98146339527857" lon="12.304631186945425"><ele>125.0</ele><time>2026-03-29T13:17:07Z</time></trkpt><trkpt lat="45.98135711677616" lon="12.304716779953571"><ele>125.0</ele><time>2026-03-29T13:17:08Z</time></trkpt><trkpt lat="45.98125589605996" lon="12.30480646523336"><ele>125.0</ele><time>2026-03-29T13:17:09Z</time></trkpt><trkpt lat="45.98115049004038" lon="12.30489868599242"><ele>125.0</ele><time>2026-03-29T13:17:10Z</time></trkpt><trkpt lat="45.98104202587484" lon="12.304987351762087"><ele>125.0</ele><time>2026-03-29T13:17:11Z</time></trkpt><trkpt lat="45.98093327210803" lon="12.305069483696823"><ele>125.0</ele><time>2026-03-29T13:17:12Z</time></trkpt><trkpt lat="45.98082144164687" lon="12.305150461983605"><ele>124.8</ele><time>2026-03-29T13:17:13Z</time></trkpt><trkpt lat="45.980713310500384" lon="12.305226462403084"><ele>124.6</ele><time>2026-03-29T13:17:14Z</time></trkpt><trkpt lat="45.98061093865706" lon="12.305298433264864"><ele>124.4</ele><time>2026-03-29T13:17:15Z</time></trkpt><trkpt lat="45.98051560291969" lon="12.305358894012096"><ele>124.2</ele><time>2026-03-29T13:17:16Z</time></trkpt><trkpt lat="45.98042298203266" lon="12.305419903876807"><ele>124.0</ele><time>2026-03-29T13:17:17Z</time></trkpt><trkpt lat="45.98033600808063" lon="12.30547687918311"><ele>124.0</ele><time>2026-03-29T13:17:18Z</time></trkpt><trkpt lat="45.980251586975136" lon="12.30553163311922"><ele>124.0</ele><time>2026-03-29T13:17:19Z</time></trkpt><trkpt lat="45.98016594796324" lon="12.305584628845109"><ele>124.0</ele><time>2026-03-29T13:17:20Z</time></trkpt><trkpt lat="45.980081647999526" lon="12.305641470361339"><ele>124.0</ele><time>2026-03-29T13:17:21Z</time></trkpt><trkpt lat="45.97999913440236" lon="12.305698016356073"><ele>124.0</ele><time>2026-03-29T13:17:22Z</time></trkpt><trkpt lat="45.979924258880295" lon="12.305749194517611"><ele>123.50000000000001</ele><time>2026-03-29T13:17:23Z</time></trkpt><trkpt lat="45.97984634426999" lon="12.30578944984015"><ele>123.0</ele><time>2026-03-29T13:17:24Z</time></trkpt><trkpt lat="45.97977278124905" lon="12.305824406456198"><ele>122.5</ele><time>2026-03-29T13:17:25Z</time></trkpt><trkpt lat="45.979700454742854" lon="12.30585834874475"><ele>122.0</ele><time>2026-03-29T13:17:26Z</time></trkpt><trkpt lat="45.97962650705659" lon="12.30589428145508"><ele>121.50000000000001</ele><time>2026-03-29T13:17:27Z</time></trkpt><trkpt lat="45.97955166333135" lon="12.305925511619147"><ele>121.0</ele><time>2026-03-29T13:17:28Z</time></trkpt><trkpt lat="45.97948267174065" lon="12.305956122096934"><ele>121.0</ele><time>2026-03-29T13:17:29Z</time></trkpt><trkpt lat="45.97937765583021" lon="12.306004210353104"><ele>121.0</ele><time>2026-03-29T13:17:31Z</time></trkpt><trkpt lat="45.97929299420824" lon="12.306046829549631"><ele>121.0</ele><time>2026-03-29T13:17:33Z</time></trkpt><trkpt lat="45.979229346280874" lon="12.30607376593635"><ele>121.0</ele><time>2026-03-29T13:17:35Z</time></trkpt><trkpt lat="45.97916490861116" lon="12.306102348966277"><ele>121.0</ele><time>2026-03-29T13:17:37Z</time></trkpt><trkpt lat="45.97904348810848" lon="12.306125066031681"><ele>121.00000000000001</ele><time>2026-03-29T13:17:39Z</time></trkpt><trkpt lat="45.9789597057419" lon="12.306124806986436"><ele>121.0</ele><time>2026-03-29T13:17:40Z</time></trkpt><trkpt lat="45.978874464488534" lon="12.306145837464086"><ele>121.0</ele><time>2026-03-29T13:17:41Z</time></trkpt><trkpt lat="45.97880493421509" lon="12.306196268968373"><ele>121.0</ele><time>2026-03-29T13:17:42Z</time></trkpt><trkpt lat="45.97876026255069" lon="12.306266443056048"><ele>121.00000000000001</ele><time>2026-03-29T13:17:43Z</time></trkpt><trkpt lat="45.978781270971" lon="12.30643775555116"><ele>121.0</ele><time>2026-03-29T13:17:45Z</time></trkpt><trkpt lat="45.978829968751626" lon="12.306528662197783"><ele>121.0</ele><time>2026-03-29T13:17:46Z</time></trkpt><trkpt lat="45.978879370215516" lon="12.306613223624256"><ele>121.0</ele><time>2026-03-29T13:17:47Z</time></trkpt><trkpt lat="45.97892149513491" lon="12.306716232878028"><ele>121.0</ele><time>2026-03-29T13:17:48Z</time></trkpt><trkpt lat="45.978950977919595" lon="12.306849019464131"><ele>121.0</ele><time>2026-03-29T13:17:49Z</time></trkpt><trkpt lat="45.978988518989006" lon="12.30699770952685"><ele>121.0</ele><time>2026-03-29T13:17:50Z</time></trkpt><trkpt lat="45.97902607043878" lon="12.307157464730842"><ele>121.00000000000001</ele><time>2026-03-29T13:17:51Z</time></trkpt><trkpt lat="45.979061477711014" lon="12.307293273140527"><ele>121.0</ele><time>2026-03-29T13:17:52Z</time></trkpt><trkpt lat="45.97909077697662" lon="12.307411588774652"><ele>121.0</ele><time>2026-03-29T13:17:53.001Z</time></trkpt><trkpt lat="45.97911558862551" lon="12.307518924466306"><ele>121.0</ele><time>2026-03-29T13:17:54.001Z</time></trkpt><trkpt lat="45.97913706751261" lon="12.307607621695063"><ele>121.00000000000001</ele><time>2026-03-29T13:17:55.001Z</time></trkpt><trkpt lat="45.97917779460627" lon="12.30775824560839"><ele>121.0</ele><time>2026-03-29T13:17:57.001Z</time></trkpt><trkpt lat="45.97921801417877" lon="12.30793606378454"><ele>121.0</ele><time>2026-03-29T13:17:59.001Z</time></trkpt><trkpt lat="45.97924994215446" lon="12.308068599579293"><ele>121.0</ele><time>2026-03-29T13:18:00.001Z</time></trkpt><trkpt lat="45.97928933443622" lon="12.308223485226858"><ele>121.0</ele><time>2026-03-29T13:18:01.001Z</time></trkpt><trkpt lat="45.97933286496592" lon="12.30838972202816"><ele>121.0</ele><time>2026-03-29T13:18:02.001Z</time></trkpt><trkpt lat="45.979370651912994" lon="12.308542563001721"><ele>121.0</ele><time>2026-03-29T13:18:03.001Z</time></trkpt><trkpt lat="45.97940458544213" lon="12.308689223412998"><ele>120.8</ele><time>2026-03-29T13:18:04.001Z</time></trkpt><trkpt lat="45.979437853121674" lon="12.308830334792814"><ele>120.6</ele><time>2026-03-29T13:18:05.001Z</time></trkpt><trkpt lat="45.97947537828075" lon="12.308965694214919"><ele>120.4</ele><time>2026-03-29T13:18:06.001Z</time></trkpt><trkpt lat="45.9795104135576" lon="12.30910137999564"><ele>120.2</ele><time>2026-03-29T13:18:07.001Z</time></trkpt><trkpt lat="45.979545662914994" lon="12.309249153915777"><ele>120.0</ele><time>2026-03-29T13:18:08.001Z</time></trkpt><trkpt lat="45.97958457746707" lon="12.309402069275485"><ele>120.0</ele><time>2026-03-29T13:18:09.001Z</time></trkpt><trkpt lat="45.979620165127464" lon="12.309550191063684"><ele>120.0</ele><time>2026-03-29T13:18:10.001Z</time></trkpt><trkpt lat="45.979650232019424" lon="12.309688516051216"><ele>120.0</ele><time>2026-03-29T13:18:11.001Z</time></trkpt><trkpt lat="45.97968089287394" lon="12.309820536842262"><ele>120.0</ele><time>2026-03-29T13:18:12.001Z</time></trkpt><trkpt lat="45.97971119068042" lon="12.309947813336649"><ele>120.0</ele><time>2026-03-29T13:18:13.001Z</time></trkpt><trkpt lat="45.9797385393104" lon="12.310075675930266"><ele>119.6</ele><time>2026-03-29T13:18:14.001Z</time></trkpt><trkpt lat="45.97976712581008" lon="12.310214638928262"><ele>119.2</ele><time>2026-03-29T13:18:15.001Z</time></trkpt><trkpt lat="45.97979896510631" lon="12.310357755151426"><ele>118.80000000000001</ele><time>2026-03-29T13:18:16.001Z</time></trkpt><trkpt lat="45.97983583730216" lon="12.310508664205516"><ele>118.4</ele><time>2026-03-29T13:18:17.001Z</time></trkpt><trkpt lat="45.97987558896847" lon="12.310666884380094"><ele>118.0</ele><time>2026-03-29T13:18:18.001Z</time></trkpt><trkpt lat="45.9799099264087" lon="12.310805403689207"><ele>118.0</ele><time>2026-03-29T13:18:19.001Z</time></trkpt><trkpt lat="45.97994340575102" lon="12.31093541760956"><ele>118.00000000000001</ele><time>2026-03-29T13:18:20.001Z</time></trkpt><trkpt lat="45.979975913413455" lon="12.311067462875219"><ele>118.00000000000001</ele><time>2026-03-29T13:18:20.999Z</time></trkpt><trkpt lat="45.98001188054354" lon="12.31120371455918"><ele>118.0</ele><time>2026-03-29T13:18:21.999Z</time></trkpt><trkpt lat="45.98005187725862" lon="12.311350311453658"><ele>118.0</ele><time>2026-03-29T13:18:22.999Z</time></trkpt><trkpt lat="45.98009023003611" lon="12.31150488566937"><ele>118.0</ele><time>2026-03-29T13:18:23.999Z</time></trkpt><trkpt lat="45.98011041789111" lon="12.311674258803732"><ele>118.0</ele><time>2026-03-29T13:18:24.999Z</time></trkpt><trkpt lat="45.980150497762196" lon="12.311839584930745"><ele>118.0</ele><time>2026-03-29T13:18:25.999Z</time></trkpt><trkpt lat="45.980192781610334" lon="12.312011139218844"><ele>118.0</ele><time>2026-03-29T13:18:26.999Z</time></trkpt><trkpt lat="45.98023567733698" lon="12.312185175986569"><ele>117.75</ele><time>2026-03-29T13:18:27.999Z</time></trkpt><trkpt lat="45.98027908964471" lon="12.312361308651358"><ele>117.5</ele><time>2026-03-29T13:18:28.999Z</time></trkpt><trkpt lat="45.98032309925519" lon="12.3125401086857"><ele>117.25</ele><time>2026-03-29T13:18:29.999Z</time></trkpt><trkpt lat="45.98036633277034" lon="12.312719715531996"><ele>117.0</ele><time>2026-03-29T13:18:30.999Z</time></trkpt><trkpt lat="45.98041004974808" lon="12.312901330874638"><ele>116.75</ele><time>2026-03-29T13:18:31.999Z</time></trkpt><trkpt lat="45.98045361418481" lon="12.313082312508186"><ele>116.5</ele><time>2026-03-29T13:18:32.999Z</time></trkpt><trkpt lat="45.980497547408895" lon="12.313264826198415"><ele>116.25</ele><time>2026-03-29T13:18:33.999Z</time></trkpt><trkpt lat="45.980541436329695" lon="12.313447155847902"><ele>116.0</ele><time>2026-03-29T13:18:34.999Z</time></trkpt><trkpt lat="45.98060004364317" lon="12.313624539734183"><ele>116.0</ele><time>2026-03-29T13:18:35.999Z</time></trkpt><trkpt lat="45.98063962998287" lon="12.31380914250433"><ele>116.0</ele><time>2026-03-29T13:18:36.999Z</time></trkpt><trkpt lat="45.98068490682686" lon="12.3139937098084"><ele>116.0</ele><time>2026-03-29T13:18:37.999Z</time></trkpt><trkpt lat="45.98072989936397" lon="12.31417698508462"><ele>116.0</ele><time>2026-03-29T13:18:38.999Z</time></trkpt><trkpt lat="45.9807735460481" lon="12.314361103505036"><ele>115.75</ele><time>2026-03-29T13:18:39.999Z</time></trkpt><trkpt lat="45.980820137792726" lon="12.314545443543338"><ele>115.5</ele><time>2026-03-29T13:18:40.999Z</time></trkpt><trkpt lat="45.98086591154507" lon="12.314733478066904"><ele>115.25</ele><time>2026-03-29T13:18:41.999Z</time></trkpt><trkpt lat="45.98091200241098" lon="12.314923086804964"><ele>115.0</ele><time>2026-03-29T13:18:42.999Z</time></trkpt><trkpt lat="45.98095731596468" lon="12.315116517783489"><ele>116.25</ele><time>2026-03-29T13:18:43.999Z</time></trkpt><trkpt lat="45.98100209967526" lon="12.315313588766374"><ele>117.5</ele><time>2026-03-29T13:18:44.999Z</time></trkpt><trkpt lat="45.981050237351795" lon="12.315512102583765"><ele>118.75</ele><time>2026-03-29T13:18:45.999Z</time></trkpt><trkpt lat="45.981101248960684" lon="12.3157127873045"><ele>120.0</ele><time>2026-03-29T13:18:47Z</time></trkpt><trkpt lat="45.981156782483644" lon="12.315910985768836"><ele>120.0</ele><time>2026-03-29T13:18:48Z</time></trkpt><trkpt lat="45.981200827990214" lon="12.316121452738248"><ele>120.0</ele><time>2026-03-29T13:18:49Z</time></trkpt><trkpt lat="45.98128407332621" lon="12.316307698382056"><ele>120.0</ele><time>2026-03-29T13:18:50Z</time></trkpt><trkpt lat="45.981340926832246" lon="12.316511673153325"><ele>119.0</ele><time>2026-03-29T13:18:51Z</time></trkpt><trkpt lat="45.98143347524148" lon="12.316691539574563"><ele>118.0</ele><time>2026-03-29T13:18:52Z</time></trkpt><trkpt lat="45.981518173714036" lon="12.316877116620041"><ele>117.0</ele><time>2026-03-29T13:18:53Z</time></trkpt><trkpt lat="45.981609518490345" lon="12.317053647822394"><ele>117.0</ele><time>2026-03-29T13:18:54Z</time></trkpt><trkpt lat="45.981706421985805" lon="12.317227213270803"><ele>117.0</ele><time>2026-03-29T13:18:55Z</time></trkpt><trkpt lat="45.98181082878217" lon="12.317395234954915"><ele>117.0</ele><time>2026-03-29T13:18:56Z</time></trkpt><trkpt lat="45.98191855219406" lon="12.317555745189537"><ele>117.0</ele><time>2026-03-29T13:18:57Z</time></trkpt><trkpt lat="45.98202993602774" lon="12.31771273494809"><ele>117.0</ele><time>2026-03-29T13:18:58Z</time></trkpt><trkpt lat="45.98214538858289" lon="12.317865407903929"><ele>117.0</ele><time>2026-03-29T13:18:59Z</time></trkpt><trkpt lat="45.982264669968885" lon="12.318018219912801"><ele>117.0</ele><time>2026-03-29T13:19:00Z</time></trkpt><trkpt lat="45.98238374670539" lon="12.318172852883475"><ele>117.0</ele><time>2026-03-29T13:19:01Z</time></trkpt><trkpt lat="45.9824942084032" lon="12.318319347453214"><ele>117.0</ele><time>2026-03-29T13:19:02Z</time></trkpt><trkpt lat="45.982593409694175" lon="12.318461108662618"><ele>117.6</ele><time>2026-03-29T13:19:03Z</time></trkpt><trkpt lat="45.98268252496292" lon="12.318592728033146"><ele>118.19999999999999</ele><time>2026-03-29T13:19:04Z</time></trkpt><trkpt lat="45.98275403835841" lon="12.31871074719367"><ele>118.8</ele><time>2026-03-29T13:19:05Z</time></trkpt><trkpt lat="45.98281074208304" lon="12.318826563140918"><ele>119.4</ele><time>2026-03-29T13:19:06Z</time></trkpt><trkpt lat="45.98286802335447" lon="12.31893570985057"><ele>120.0</ele><time>2026-03-29T13:19:07Z</time></trkpt><trkpt lat="45.98295287012129" lon="12.319022471838458"><ele>121.0</ele><time>2026-03-29T13:19:08Z</time></trkpt><trkpt lat="45.98308666972965" lon="12.319111792004955"><ele>122.0</ele><time>2026-03-29T13:19:09Z</time></trkpt><trkpt lat="45.98324940904337" lon="12.319213390400087"><ele>123.0</ele><time>2026-03-29T13:19:10Z</time></trkpt><trkpt lat="45.98343208824793" lon="12.319319053683534"><ele>123.33333333333334</ele><time>2026-03-29T13:19:11Z</time></trkpt><trkpt lat="45.983594454053595" lon="12.319412417493727"><ele>123.66666666666667</ele><time>2026-03-29T13:19:12Z</time></trkpt><trkpt lat="45.98374745580994" lon="12.319497466216301"><ele>124.0</ele><time>2026-03-29T13:19:13Z</time></trkpt><trkpt lat="45.983897198216184" lon="12.31957237336304"><ele>124.0</ele><time>2026-03-29T13:19:14Z</time></trkpt><trkpt lat="45.98404793021102" lon="12.319637619677557"><ele>124.0</ele><time>2026-03-29T13:19:15Z</time></trkpt><trkpt lat="45.984195585002965" lon="12.319696344428708"><ele>124.0</ele><time>2026-03-29T13:19:16Z</time></trkpt><trkpt lat="45.984335295831556" lon="12.319749358732635"><ele>124.0</ele><time>2026-03-29T13:19:17Z</time></trkpt><trkpt lat="45.98446860500816" lon="12.319803283215128"><ele>124.0</ele><time>2026-03-29T13:19:18Z</time></trkpt><trkpt lat="45.984597365215095" lon="12.319855801331876"><ele>124.0</ele><time>2026-03-29T13:19:19Z</time></trkpt><trkpt lat="45.98472575066967" lon="12.319905575440805"><ele>124.0</ele><time>2026-03-29T13:19:20Z</time></trkpt><trkpt lat="45.984853168767806" lon="12.319951018346442"><ele>124.0</ele><time>2026-03-29T13:19:21Z</time></trkpt><trkpt lat="45.98497925511604" lon="12.319997131865478"><ele>124.0</ele><time>2026-03-29T13:19:22Z</time></trkpt><trkpt lat="45.985101790945755" lon="12.320042258093801"><ele>124.0</ele><time>2026-03-29T13:19:23Z</time></trkpt><trkpt lat="45.985214427667515" lon="12.320088885741484"><ele>124.0</ele><time>2026-03-29T13:19:24Z</time></trkpt><trkpt lat="45.98531681504803" lon="12.320135712691709"><ele>124.6</ele><time>2026-03-29T13:19:25Z</time></trkpt><trkpt lat="45.985407582795226" lon="12.320187450125413"><ele>125.2</ele><time>2026-03-29T13:19:26Z</time></trkpt><trkpt lat="45.98548141870919" lon="12.3202516234013"><ele>125.79999999999998</ele><time>2026-03-29T13:19:27Z</time></trkpt><trkpt lat="45.985538573970054" lon="12.32034322502572"><ele>126.39999999999999</ele><time>2026-03-29T13:19:28Z</time></trkpt><trkpt lat="45.98559113707835" lon="12.320453418836381"><ele>127.0</ele><time>2026-03-29T13:19:29Z</time></trkpt><trkpt lat="45.98564859132078" lon="12.320570502953156"><ele>127.19999999999999</ele><time>2026-03-29T13:19:30Z</time></trkpt><trkpt lat="45.98571703031256" lon="12.320690381008871"><ele>127.39999999999999</ele><time>2026-03-29T13:19:31Z</time></trkpt><trkpt lat="45.98578713545514" lon="12.320804207547386"><ele>127.60000000000001</ele><time>2026-03-29T13:19:32Z</time></trkpt><trkpt lat="45.98584864956977" lon="12.320921185643973"><ele>127.80000000000001</ele><time>2026-03-29T13:19:33Z</time></trkpt><trkpt lat="45.98588493402043" lon="12.321042504238648"><ele>128.0</ele><time>2026-03-29T13:19:34Z</time></trkpt><trkpt lat="45.98590118129682" lon="12.32117926557878"><ele>128.0</ele><time>2026-03-29T13:19:35Z</time></trkpt><trkpt lat="45.98585446069894" lon="12.321314561216665"><ele>128.0</ele><time>2026-03-29T13:19:36Z</time></trkpt><trkpt lat="45.98583837556178" lon="12.321464976724622"><ele>128.0</ele><time>2026-03-29T13:19:37Z</time></trkpt><trkpt lat="45.98582140448811" lon="12.32162367681423"><ele>128.0</ele><time>2026-03-29T13:19:38Z</time></trkpt><trkpt lat="45.985803848308635" lon="12.321787848291486"><ele>128.0</ele><time>2026-03-29T13:19:39Z</time></trkpt><trkpt lat="45.9857855255591" lon="12.3219576175367"><ele>128.0</ele><time>2026-03-29T13:19:40Z</time></trkpt><trkpt lat="45.98576743161491" lon="12.322131407460716"><ele>128.0</ele><time>2026-03-29T13:19:41Z</time></trkpt><trkpt lat="45.98574929769422" lon="12.322308495821547"><ele>128.0</ele><time>2026-03-29T13:19:42.001Z</time></trkpt><trkpt lat="45.98573106215534" lon="12.322486910102345"><ele>128.0</ele><time>2026-03-29T13:19:43.001Z</time></trkpt><trkpt lat="45.98571250360787" lon="12.32266888475611"><ele>128.25</ele><time>2026-03-29T13:19:44.001Z</time></trkpt><trkpt lat="45.98569394831908" lon="12.32285082746235"><ele>128.5</ele><time>2026-03-29T13:19:45.001Z</time></trkpt><trkpt lat="45.985675198769464" lon="12.323034674982033"><ele>128.75</ele><time>2026-03-29T13:19:46.001Z</time></trkpt><trkpt lat="45.9856569903951" lon="12.323222886255431"><ele>129.0</ele><time>2026-03-29T13:19:47.001Z</time></trkpt><trkpt lat="45.98563891513639" lon="12.32341407346278"><ele>129.0</ele><time>2026-03-29T13:19:48.001Z</time></trkpt><trkpt lat="45.98562134990826" lon="12.323609998038787"><ele>129.0</ele><time>2026-03-29T13:19:49.001Z</time></trkpt><trkpt lat="45.985604037164634" lon="12.323808062812184"><ele>129.0</ele><time>2026-03-29T13:19:50.001Z</time></trkpt><trkpt lat="45.98559319363032" lon="12.32400711811192"><ele>129.0</ele><time>2026-03-29T13:19:51.001Z</time></trkpt><trkpt lat="45.98561972754905" lon="12.32420239078035"><ele>129.25</ele><time>2026-03-29T13:19:52.001Z</time></trkpt><trkpt lat="45.98561878559235" lon="12.32438491376374"><ele>129.5</ele><time>2026-03-29T13:19:53.001Z</time></trkpt><trkpt lat="45.98562368228798" lon="12.324564483777078"><ele>129.75</ele><time>2026-03-29T13:19:54.001Z</time></trkpt><trkpt lat="45.985632665641724" lon="12.32474375518451"><ele>130.0</ele><time>2026-03-29T13:19:55.001Z</time></trkpt><trkpt lat="45.98561544164283" lon="12.324925822885163"><ele>130.0</ele><time>2026-03-29T13:19:56.001Z</time></trkpt><trkpt lat="45.98562976846413" lon="12.325108080849265"><ele>130.0</ele><time>2026-03-29T13:19:57.001Z</time></trkpt><trkpt lat="45.98564449048277" lon="12.325291947786225"><ele>130.0</ele><time>2026-03-29T13:19:58.001Z</time></trkpt><trkpt lat="45.98566192580095" lon="12.325478239819711"><ele>130.0</ele><time>2026-03-29T13:19:59.001Z</time></trkpt><trkpt lat="45.98568096997182" lon="12.325668564125914"><ele>130.25</ele><time>2026-03-29T13:20:00.001Z</time></trkpt><trkpt lat="45.985700304528144" lon="12.325861073419217"><ele>130.5</ele><time>2026-03-29T13:20:01.001Z</time></trkpt><trkpt lat="45.985719942831416" lon="12.326056607039364"><ele>130.75</ele><time>2026-03-29T13:20:02.001Z</time></trkpt><trkpt lat="45.98573948675745" lon="12.326253713882814"><ele>131.0</ele><time>2026-03-29T13:20:03.001Z</time></trkpt><trkpt lat="45.98575820937489" lon="12.326450006308736"><ele>131.0</ele><time>2026-03-29T13:20:04.001Z</time></trkpt><trkpt lat="45.98577681305237" lon="12.326645023971603"><ele>131.0</ele><time>2026-03-29T13:20:05.001Z</time></trkpt><trkpt lat="45.98582751090891" lon="12.326833910468313"><ele>131.0</ele><time>2026-03-29T13:20:06.001Z</time></trkpt><trkpt lat="45.9858443809319" lon="12.327017099591561"><ele>131.0</ele><time>2026-03-29T13:20:07.001Z</time></trkpt><trkpt lat="45.98586138340847" lon="12.32718652276885"><ele>131.6</ele><time>2026-03-29T13:20:08.001Z</time></trkpt><trkpt lat="45.98587632354907" lon="12.327342691494145"><ele>132.2</ele><time>2026-03-29T13:20:09.001Z</time></trkpt><trkpt lat="45.985896601429324" lon="12.327484336632004"><ele>132.8</ele><time>2026-03-29T13:20:10.001Z</time></trkpt><trkpt lat="45.98591552756208" lon="12.327615914066108"><ele>133.4</ele><time>2026-03-29T13:20:11.001Z</time></trkpt><trkpt lat="45.98593335632004" lon="12.327740866050336"><ele>134.0</ele><time>2026-03-29T13:20:12.001Z</time></trkpt><trkpt lat="45.98594885455353" lon="12.327872323274931"><ele>134.0</ele><time>2026-03-29T13:20:13.001Z</time></trkpt><trkpt lat="45.985959280621714" lon="12.328010445518693"><ele>134.0</ele><time>2026-03-29T13:20:14.001Z</time></trkpt><trkpt lat="45.98596567277778" lon="12.328155278876837"><ele>134.0</ele><time>2026-03-29T13:20:15.001Z</time></trkpt><trkpt lat="45.985945389464604" lon="12.328309687027476"><ele>134.0</ele><time>2026-03-29T13:20:16.001Z</time></trkpt><trkpt lat="45.98595670005014" lon="12.328464807782556"><ele>134.0</ele><time>2026-03-29T13:20:17.001Z</time></trkpt><trkpt lat="45.98597008108472" lon="12.328625349438521"><ele>134.25</ele><time>2026-03-29T13:20:18.001Z</time></trkpt><trkpt lat="45.9859856635346" lon="12.328790218646132"><ele>134.5</ele><time>2026-03-29T13:20:19.001Z</time></trkpt><trkpt lat="45.98600045892721" lon="12.328960242885541"><ele>134.75</ele><time>2026-03-29T13:20:20.001Z</time></trkpt><trkpt lat="45.98602282826771" lon="12.329132520242512"><ele>135.0</ele><time>2026-03-29T13:20:21.001Z</time></trkpt><trkpt lat="45.986024052263474" lon="12.329313000087954"><ele>135.25</ele><time>2026-03-29T13:20:22.001Z</time></trkpt><trkpt lat="45.98601666509077" lon="12.329493252282344"><ele>135.5</ele><time>2026-03-29T13:20:23.001Z</time></trkpt><trkpt lat="45.98600203651596" lon="12.32967565608132"><ele>135.75</ele><time>2026-03-29T13:20:24.001Z</time></trkpt><trkpt lat="45.985973455382066" lon="12.329856212050167"><ele>136.0</ele><time>2026-03-29T13:20:25.001Z</time></trkpt><trkpt lat="45.98593061627339" lon="12.330035221051402"><ele>136.5</ele><time>2026-03-29T13:20:26.001Z</time></trkpt><trkpt lat="45.985860508273646" lon="12.33019840878871"><ele>137.0</ele><time>2026-03-29T13:20:26.999Z</time></trkpt><trkpt lat="45.98579407502867" lon="12.330370145560066"><ele>137.5</ele><time>2026-03-29T13:20:27.999Z</time></trkpt><trkpt lat="45.98571974902648" lon="12.3305404150362"><ele>138.0</ele><time>2026-03-29T13:20:28.999Z</time></trkpt><trkpt lat="45.9856396911067" lon="12.330709955504545"><ele>137.5</ele><time>2026-03-29T13:20:29.999Z</time></trkpt><trkpt lat="45.98555650408355" lon="12.330884506405326"><ele>137.0</ele><time>2026-03-29T13:20:30.999Z</time></trkpt><trkpt lat="45.98547327707664" lon="12.331060741483814"><ele>136.5</ele><time>2026-03-29T13:20:31.999Z</time></trkpt><trkpt lat="45.98538947750761" lon="12.331242456372255"><ele>136.0</ele><time>2026-03-29T13:20:32.999Z</time></trkpt><trkpt lat="45.985303849642584" lon="12.331428135821758"><ele>136.0</ele><time>2026-03-29T13:20:33.999Z</time></trkpt><trkpt lat="45.98521801586214" lon="12.331612542643276"><ele>136.0</ele><time>2026-03-29T13:20:34.999Z</time></trkpt><trkpt lat="45.98513535305125" lon="12.331789596365558"><ele>136.0</ele><time>2026-03-29T13:20:35.999Z</time></trkpt><trkpt lat="45.98505483576672" lon="12.331961988664661"><ele>136.0</ele><time>2026-03-29T13:20:36.999Z</time></trkpt><trkpt lat="45.984974830355725" lon="12.332135870399714"><ele>133.0</ele><time>2026-03-29T13:20:37.999Z</time></trkpt><trkpt lat="45.984892272711626" lon="12.33231438150772"><ele>130.0</ele><time>2026-03-29T13:20:38.999Z</time></trkpt><trkpt lat="45.98480849178629" lon="12.332495537627855"><ele>127.0</ele><time>2026-03-29T13:20:39.999Z</time></trkpt><trkpt lat="45.98472079393757" lon="12.332684077591935"><ele>127.0</ele><time>2026-03-29T13:20:40.999Z</time></trkpt><trkpt lat="45.98464592686778" lon="12.332888306571197"><ele>127.0</ele><time>2026-03-29T13:20:41.999Z</time></trkpt><trkpt lat="45.984555014212816" lon="12.333084307154504"><ele>127.0</ele><time>2026-03-29T13:20:42.999Z</time></trkpt><trkpt lat="45.98446276266988" lon="12.333279693618962"><ele>126.66666666666667</ele><time>2026-03-29T13:20:44Z</time></trkpt><trkpt lat="45.984372524141506" lon="12.333481335424088"><ele>126.33333333333334</ele><time>2026-03-29T13:20:45Z</time></trkpt><trkpt lat="45.98426683454415" lon="12.333660286155984"><ele>126.0</ele><time>2026-03-29T13:20:46Z</time></trkpt><trkpt lat="45.984176750634056" lon="12.333854204059302"><ele>125.66666666666666</ele><time>2026-03-29T13:20:47Z</time></trkpt><trkpt lat="45.98408454235619" lon="12.334049723329823"><ele>125.33333333333333</ele><time>2026-03-29T13:20:48Z</time></trkpt><trkpt lat="45.98400309845295" lon="12.334240984151972"><ele>125.0</ele><time>2026-03-29T13:20:49Z</time></trkpt><trkpt lat="45.983892128326076" lon="12.334396294973391"><ele>125.0</ele><time>2026-03-29T13:20:50Z</time></trkpt><trkpt lat="45.983772431563935" lon="12.334535688844651"><ele>125.0</ele><time>2026-03-29T13:20:51Z</time></trkpt><trkpt lat="45.983643880112695" lon="12.334665973747345"><ele>125.0</ele><time>2026-03-29T13:20:52Z</time></trkpt><trkpt lat="45.98351355379641" lon="12.334797766662927"><ele>125.33333333333333</ele><time>2026-03-29T13:20:53Z</time></trkpt><trkpt lat="45.98338071151851" lon="12.334932289685767"><ele>125.66666666666666</ele><time>2026-03-29T13:20:54Z</time></trkpt><trkpt lat="45.98323730298563" lon="12.335050421176712"><ele>126.0</ele><time>2026-03-29T13:20:55Z</time></trkpt><trkpt lat="45.983100597883464" lon="12.335188933858442"><ele>124.33333333333334</ele><time>2026-03-29T13:20:56Z</time></trkpt><trkpt lat="45.982966202429346" lon="12.335324829735098"><ele>122.66666666666667</ele><time>2026-03-29T13:20:57Z</time></trkpt><trkpt lat="45.982833044657426" lon="12.33546225378897"><ele>121.0</ele><time>2026-03-29T13:20:58Z</time></trkpt><trkpt lat="45.982703198865664" lon="12.335613762949734"><ele>121.0</ele><time>2026-03-29T13:20:59Z</time></trkpt><trkpt lat="45.98257800588579" lon="12.33576879148906"><ele>121.0</ele><time>2026-03-29T13:21:00Z</time></trkpt><trkpt lat="45.9824584894668" lon="12.3359348322256"><ele>121.0</ele><time>2026-03-29T13:21:01Z</time></trkpt><trkpt lat="45.98234597640022" lon="12.336102998456006"><ele>120.25</ele><time>2026-03-29T13:21:02Z</time></trkpt><trkpt lat="45.9822492837917" lon="12.336280531107771"><ele>119.5</ele><time>2026-03-29T13:21:03Z</time></trkpt><trkpt lat="45.98214216092986" lon="12.336432800538114"><ele>118.75</ele><time>2026-03-29T13:21:04Z</time></trkpt><trkpt lat="45.982044672186255" lon="12.336581769452646"><ele>118.0</ele><time>2026-03-29T13:21:05Z</time></trkpt><trkpt lat="45.98194795507239" lon="12.336723328311693"><ele>118.0</ele><time>2026-03-29T13:21:06Z</time></trkpt><trkpt lat="45.98185237157907" lon="12.336865951317394"><ele>118.0</ele><time>2026-03-29T13:21:07Z</time></trkpt><trkpt lat="45.981753308475824" lon="12.33701316957417"><ele>118.0</ele><time>2026-03-29T13:21:08Z</time></trkpt><trkpt lat="45.981652296350816" lon="12.337166103172153"><ele>118.0</ele><time>2026-03-29T13:21:09Z</time></trkpt><trkpt lat="45.981555178632206" lon="12.337317685422471"><ele>117.25</ele><time>2026-03-29T13:21:10Z</time></trkpt><trkpt lat="45.98146004032549" lon="12.337463274654182"><ele>116.5</ele><time>2026-03-29T13:21:11Z</time></trkpt><trkpt lat="45.98136499457382" lon="12.33761043586623"><ele>115.75</ele><time>2026-03-29T13:21:12Z</time></trkpt><trkpt lat="45.98126886814124" lon="12.3377575620199"><ele>115.0</ele><time>2026-03-29T13:21:13Z</time></trkpt><trkpt lat="45.9811681059548" lon="12.337907886018085"><ele>116.66666666666667</ele><time>2026-03-29T13:21:14Z</time></trkpt><trkpt lat="45.98106538385387" lon="12.33806209346178"><ele>118.33333333333334</ele><time>2026-03-29T13:21:15Z</time></trkpt><trkpt lat="45.98096104417097" lon="12.338222283840329"><ele>120.0</ele><time>2026-03-29T13:21:16Z</time></trkpt><trkpt lat="45.980851895899285" lon="12.338385068668984"><ele>118.66666666666666</ele><time>2026-03-29T13:21:17Z</time></trkpt><trkpt lat="45.98074107694831" lon="12.338547245018813"><ele>117.33333333333333</ele><time>2026-03-29T13:21:18Z</time></trkpt><trkpt lat="45.980629551282966" lon="12.338712596032254"><ele>116.0</ele><time>2026-03-29T13:21:19Z</time></trkpt><trkpt lat="45.98051788683957" lon="12.33888460205204"><ele>116.0</ele><time>2026-03-29T13:21:20Z</time></trkpt><trkpt lat="45.980405349826924" lon="12.339058588264788"><ele>116.0</ele><time>2026-03-29T13:21:21Z</time></trkpt><trkpt lat="45.98028876462965" lon="12.33923072708154"><ele>116.0</ele><time>2026-03-29T13:21:22Z</time></trkpt><trkpt lat="45.98017332772593" lon="12.339407891260583"><ele>116.0</ele><time>2026-03-29T13:21:23Z</time></trkpt><trkpt lat="45.98005607574235" lon="12.339580973119487"><ele>116.0</ele><time>2026-03-29T13:21:24Z</time></trkpt><trkpt lat="45.979937462033206" lon="12.339756437166281"><ele>116.0</ele><time>2026-03-29T13:21:25Z</time></trkpt><trkpt lat="45.979815914981565" lon="12.33992909787549"><ele>115.33333333333333</ele><time>2026-03-29T13:21:26Z</time></trkpt><trkpt lat="45.979691276390845" lon="12.340096615656401"><ele>114.66666666666666</ele><time>2026-03-29T13:21:27.001Z</time></trkpt><trkpt lat="45.97955888408006" lon="12.340250875177436"><ele>114.0</ele><time>2026-03-29T13:21:28.001Z</time></trkpt><trkpt lat="45.979422204327136" lon="12.340390448638086"><ele>114.0</ele><time>2026-03-29T13:21:29.001Z</time></trkpt><trkpt lat="45.979279873047595" lon="12.340517545012244"><ele>114.0</ele><time>2026-03-29T13:21:30.001Z</time></trkpt><trkpt lat="45.97913337310574" lon="12.34063153383116"><ele>114.0</ele><time>2026-03-29T13:21:31.001Z</time></trkpt><trkpt lat="45.978985358019884" lon="12.340730807429024"><ele>115.0</ele><time>2026-03-29T13:21:32.001Z</time></trkpt><trkpt lat="45.97884024052548" lon="12.34081709058994"><ele>116.0</ele><time>2026-03-29T13:21:33.001Z</time></trkpt><trkpt lat="45.978699124158936" lon="12.34090440118094"><ele>117.0</ele><time>2026-03-29T13:21:34.001Z</time></trkpt><trkpt lat="45.9785559902907" lon="12.340985372380516"><ele>117.0</ele><time>2026-03-29T13:21:35.001Z</time></trkpt><trkpt lat="45.978410052994874" lon="12.341065770506505"><ele>117.0</ele><time>2026-03-29T13:21:36.001Z</time></trkpt><trkpt lat="45.97826497541647" lon="12.341146513430017"><ele>117.0</ele><time>2026-03-29T13:21:37.001Z</time></trkpt><trkpt lat="45.97812306523932" lon="12.341233212812583"><ele>117.66666666666666</ele><time>2026-03-29T13:21:38.001Z</time></trkpt><trkpt lat="45.97798049550827" lon="12.341317920694259"><ele>118.33333333333333</ele><time>2026-03-29T13:21:39.001Z</time></trkpt><trkpt lat="45.97783788969501" lon="12.341403285292815"><ele>119.0</ele><time>2026-03-29T13:21:40.001Z</time></trkpt><trkpt lat="45.97769376290195" lon="12.341492490932744"><ele>119.0</ele><time>2026-03-29T13:21:41.001Z</time></trkpt><trkpt lat="45.97755045676467" lon="12.341584546607839"><ele>119.0</ele><time>2026-03-29T13:21:42.001Z</time></trkpt><trkpt lat="45.9774051231845" lon="12.34169057736739"><ele>119.0</ele><time>2026-03-29T13:21:43.001Z</time></trkpt><trkpt lat="45.97726775212785" lon="12.34181322971609"><ele>120.0</ele><time>2026-03-29T13:21:44.001Z</time></trkpt><trkpt lat="45.97713743978478" lon="12.341948017793491"><ele>121.0</ele><time>2026-03-29T13:21:45.001Z</time></trkpt><trkpt lat="45.977006658633734" lon="12.342105310507309"><ele>122.0</ele><time>2026-03-29T13:21:46.001Z</time></trkpt><trkpt lat="45.9768734653857" lon="12.342260426000706"><ele>122.0</ele><time>2026-03-29T13:21:47.001Z</time></trkpt><trkpt lat="45.97674903502204" lon="12.342415266589995"><ele>122.0</ele><time>2026-03-29T13:21:48.001Z</time></trkpt><trkpt lat="45.97662676965569" lon="12.342558609940415"><ele>122.0</ele><time>2026-03-29T13:21:49.001Z</time></trkpt><trkpt lat="45.97650674294994" lon="12.342707132368133"><ele>121.0</ele><time>2026-03-29T13:21:50.001Z</time></trkpt><trkpt lat="45.976379124841536" lon="12.342854895998235"><ele>120.0</ele><time>2026-03-29T13:21:51.001Z</time></trkpt><trkpt lat="45.976250472486704" lon="12.343003671104775"><ele>119.0</ele><time>2026-03-29T13:21:52.001Z</time></trkpt><trkpt lat="45.976115166652185" lon="12.343145656915777"><ele>119.0</ele><time>2026-03-29T13:21:53.001Z</time></trkpt><trkpt lat="45.975976117787475" lon="12.343277095991294"><ele>119.0</ele><time>2026-03-29T13:21:54.001Z</time></trkpt><trkpt lat="45.97582790607631" lon="12.343392091813284"><ele>119.0</ele><time>2026-03-29T13:21:55.001Z</time></trkpt><trkpt lat="45.97567731274396" lon="12.343492425539798"><ele>115.0</ele><time>2026-03-29T13:21:56.001Z</time></trkpt><trkpt lat="45.975524032495144" lon="12.343583266607725"><ele>111.0</ele><time>2026-03-29T13:21:57.001Z</time></trkpt><trkpt lat="45.97537600651703" lon="12.343679962641456"><ele>107.0</ele><time>2026-03-29T13:21:58.001Z</time></trkpt><trkpt lat="45.97523077346356" lon="12.343774596652546"><ele>107.0</ele><time>2026-03-29T13:21:59.001Z</time></trkpt><trkpt lat="45.975083464034405" lon="12.343865815944454"><ele>107.0</ele><time>2026-03-29T13:22:00.001Z</time></trkpt><trkpt lat="45.97493846733959" lon="12.343954911803596"><ele>107.0</ele><time>2026-03-29T13:22:01.001Z</time></trkpt><trkpt lat="45.97479520096595" lon="12.344048095078609"><ele>107.0</ele><time>2026-03-29T13:22:02.001Z</time></trkpt><trkpt lat="45.974656534918445" lon="12.344143421431324"><ele>107.0</ele><time>2026-03-29T13:22:03.001Z</time></trkpt><trkpt lat="45.97451978092688" lon="12.34424368823178"><ele>107.0</ele><time>2026-03-29T13:22:04.001Z</time></trkpt><trkpt lat="45.97438738623547" lon="12.344356796652685"><ele>107.0</ele><time>2026-03-29T13:22:05.001Z</time></trkpt><trkpt lat="45.974265409887195" lon="12.344481525752341"><ele>107.0</ele><time>2026-03-29T13:22:06.001Z</time></trkpt><trkpt lat="45.97415383821976" lon="12.344621387323903"><ele>107.0</ele><time>2026-03-29T13:22:07.001Z</time></trkpt><trkpt lat="45.974048021410894" lon="12.344774737346665"><ele>107.0</ele><time>2026-03-29T13:22:08.001Z</time></trkpt><trkpt lat="45.97394245739403" lon="12.344939736431243"><ele>106.33333333333333</ele><time>2026-03-29T13:22:09.001Z</time></trkpt><trkpt lat="45.97383471078514" lon="12.345109337276783"><ele>105.66666666666666</ele><time>2026-03-29T13:22:10.001Z</time></trkpt><trkpt lat="45.97372099074494" lon="12.345279476105627"><ele>105.0</ele><time>2026-03-29T13:22:11.001Z</time></trkpt><trkpt lat="45.97360369432948" lon="12.345450716244567"><ele>104.33333333333334</ele><time>2026-03-29T13:22:12.001Z</time></trkpt><trkpt lat="45.97348540014655" lon="12.345622198091709"><ele>103.66666666666667</ele><time>2026-03-29T13:22:13.001Z</time></trkpt><trkpt lat="45.973373427667575" lon="12.34578630111311"><ele>103.0</ele><time>2026-03-29T13:22:14.001Z</time></trkpt><trkpt lat="45.97326738950638" lon="12.34594265651812"><ele>103.0</ele><time>2026-03-29T13:22:15.001Z</time></trkpt><trkpt lat="45.973166562411365" lon="12.346094225972871"><ele>103.0</ele><time>2026-03-29T13:22:16.001Z</time></trkpt><trkpt lat="45.97307197245829" lon="12.346237797136624"><ele>103.0</ele><time>2026-03-29T13:22:17.001Z</time></trkpt><trkpt lat="45.97298047119891" lon="12.346376241555992"><ele>103.0</ele><time>2026-03-29T13:22:18.001Z</time></trkpt><trkpt lat="45.972892772174184" lon="12.346504732148542"><ele>104.5</ele><time>2026-03-29T13:22:19.001Z</time></trkpt><trkpt lat="45.97280867739133" lon="12.346627305043354"><ele>106.0</ele><time>2026-03-29T13:22:20.001Z</time></trkpt><trkpt lat="45.97272605866244" lon="12.346746821560336"><ele>107.5</ele><time>2026-03-29T13:22:21.001Z</time></trkpt><trkpt lat="45.972643117819366" lon="12.346867506224518"><ele>109.0</ele><time>2026-03-29T13:22:22.001Z</time></trkpt><trkpt lat="45.97255847013354" lon="12.34699184633927"><ele>108.5</ele><time>2026-03-29T13:22:23.001Z</time></trkpt><trkpt lat="45.972472051380834" lon="12.347121287424855"><ele>108.0</ele><time>2026-03-29T13:22:24.001Z</time></trkpt><trkpt lat="45.972382687474614" lon="12.347250454509494"><ele>107.5</ele><time>2026-03-29T13:22:25.001Z</time></trkpt><trkpt lat="45.97228751188637" lon="12.347389662527984"><ele>107.0</ele><time>2026-03-29T13:22:26.002Z</time></trkpt><trkpt lat="45.972187478158794" lon="12.347545596138264"><ele>107.0</ele><time>2026-03-29T13:22:27.002Z</time></trkpt><trkpt lat="45.97208104365864" lon="12.347705247324331"><ele>107.0</ele><time>2026-03-29T13:22:28.002Z</time></trkpt><trkpt lat="45.97197372311081" lon="12.34786143722423"><ele>107.0</ele><time>2026-03-29T13:22:29.002Z</time></trkpt><trkpt lat="45.971866626581146" lon="12.348008107582277"><ele>105.75</ele><time>2026-03-29T13:22:30.002Z</time></trkpt><trkpt lat="45.97176289467884" lon="12.348155199546873"><ele>104.5</ele><time>2026-03-29T13:22:31.002Z</time></trkpt><trkpt lat="45.97166063901377" lon="12.348304257354636"><ele>103.25</ele><time>2026-03-29T13:22:32.002Z</time></trkpt><trkpt lat="45.97155910790044" lon="12.34845723901927"><ele>102.0</ele><time>2026-03-29T13:22:33Z</time></trkpt><trkpt lat="45.97145960974826" lon="12.348607057537288"><ele>102.0</ele><time>2026-03-29T13:22:34Z</time></trkpt><trkpt lat="45.97135931194296" lon="12.348754780430781"><ele>102.0</ele><time>2026-03-29T13:22:35Z</time></trkpt><trkpt lat="45.971258799325426" lon="12.34890043147668"><ele>102.0</ele><time>2026-03-29T13:22:36Z</time></trkpt><trkpt lat="45.971159222205" lon="12.349046840384602"><ele>102.0</ele><time>2026-03-29T13:22:37Z</time></trkpt><trkpt lat="45.97106066014604" lon="12.34919464944683"><ele>101.75</ele><time>2026-03-29T13:22:38Z</time></trkpt><trkpt lat="45.97096079721329" lon="12.349343828696238"><ele>101.5</ele><time>2026-03-29T13:22:39Z</time></trkpt><trkpt lat="45.970861642514414" lon="12.349496443455687"><ele>101.25</ele><time>2026-03-29T13:22:40Z</time></trkpt><trkpt lat="45.9707600060125" lon="12.349653717525191"><ele>101.0</ele><time>2026-03-29T13:22:41Z</time></trkpt><trkpt lat="45.97064939423247" lon="12.349817549657956"><ele>102.0</ele><time>2026-03-29T13:22:42Z</time></trkpt><trkpt lat="45.9705280470602" lon="12.349994865889814"><ele>103.0</ele><time>2026-03-29T13:22:43Z</time></trkpt><trkpt lat="45.970411662789644" lon="12.350159688210521"><ele>104.0</ele><time>2026-03-29T13:22:44Z</time></trkpt><trkpt lat="45.97030024847283" lon="12.350320237635177"><ele>104.0</ele><time>2026-03-29T13:22:45Z</time></trkpt><trkpt lat="45.970186196839364" lon="12.35048426583026"><ele>104.0</ele><time>2026-03-29T13:22:46Z</time></trkpt><trkpt lat="45.97007460985062" lon="12.350651972462115"><ele>104.0</ele><time>2026-03-29T13:22:47Z</time></trkpt><trkpt lat="45.96996600123292" lon="12.350809501137684"><ele>102.75</ele><time>2026-03-29T13:22:48Z</time></trkpt><trkpt lat="45.96986236946197" lon="12.350959777158938"><ele>101.5</ele><time>2026-03-29T13:22:49Z</time></trkpt><trkpt lat="45.96976493339877" lon="12.351106326529864"><ele>100.25</ele><time>2026-03-29T13:22:50Z</time></trkpt><trkpt lat="45.96967045051297" lon="12.351243013375552"><ele>99.0</ele><time>2026-03-29T13:22:51Z</time></trkpt><trkpt lat="45.9695881693787" lon="12.351375673955953"><ele>99.0</ele><time>2026-03-29T13:22:52Z</time></trkpt><trkpt lat="45.96951734920243" lon="12.351488699783918"><ele>99.0</ele><time>2026-03-29T13:22:53Z</time></trkpt><trkpt lat="45.96943490669642" lon="12.351607584513907"><ele>99.0</ele><time>2026-03-29T13:22:54Z</time></trkpt><trkpt lat="45.96934626073213" lon="12.351729952456067"><ele>99.0</ele><time>2026-03-29T13:22:55Z</time></trkpt><trkpt lat="45.96925359198324" lon="12.35186176905987"><ele>98.75</ele><time>2026-03-29T13:22:56Z</time></trkpt><trkpt lat="45.96916038902075" lon="12.352006112727002"><ele>98.5</ele><time>2026-03-29T13:22:57Z</time></trkpt><trkpt lat="45.96906364796245" lon="12.352150729773902"><ele>98.25</ele><time>2026-03-29T13:22:58Z</time></trkpt><trkpt lat="45.96896239736954" lon="12.35230013545193"><ele>98.0</ele><time>2026-03-29T13:22:59Z</time></trkpt><trkpt lat="45.96885934367178" lon="12.352451960486624"><ele>98.0</ele><time>2026-03-29T13:23:00Z</time></trkpt><trkpt lat="45.968754421555104" lon="12.352601901821888"><ele>98.0</ele><time>2026-03-29T13:23:01Z</time></trkpt><trkpt lat="45.968652461418706" lon="12.352750530850438"><ele>98.0</ele><time>2026-03-29T13:23:02Z</time></trkpt><trkpt lat="45.96855539701015" lon="12.352897512522267"><ele>98.0</ele><time>2026-03-29T13:23:03Z</time></trkpt><trkpt lat="45.96846217850063" lon="12.353036229924157"><ele>97.75</ele><time>2026-03-29T13:23:04Z</time></trkpt><trkpt lat="45.96837207986286" lon="12.353167735179458"><ele>97.5</ele><time>2026-03-29T13:23:05Z</time></trkpt><trkpt lat="45.968282972899765" lon="12.353293689320713"><ele>97.25</ele><time>2026-03-29T13:23:06Z</time></trkpt><trkpt lat="45.96819482468941" lon="12.35342408229611"><ele>97.0</ele><time>2026-03-29T13:23:07Z</time></trkpt><trkpt lat="45.968108194585696" lon="12.353556322037255"><ele>96.75</ele><time>2026-03-29T13:23:08Z</time></trkpt><trkpt lat="45.96802533259311" lon="12.35368444253611"><ele>96.5</ele><time>2026-03-29T13:23:09Z</time></trkpt><trkpt lat="45.96794597681349" lon="12.353808523084966"><ele>96.25</ele><time>2026-03-29T13:23:10Z</time></trkpt><trkpt lat="45.96786624634525" lon="12.353920368572712"><ele>96.0</ele><time>2026-03-29T13:23:11Z</time></trkpt><trkpt lat="45.96779651616106" lon="12.354032524149991"><ele>95.8</ele><time>2026-03-29T13:23:12Z</time></trkpt><trkpt lat="45.967732560401934" lon="12.354140080936485"><ele>95.6</ele><time>2026-03-29T13:23:13Z</time></trkpt><trkpt lat="45.967664859604575" lon="12.35424448957245"><ele>95.4</ele><time>2026-03-29T13:23:14Z</time></trkpt><trkpt lat="45.96758608069738" lon="12.354355579028006"><ele>95.2</ele><time>2026-03-29T13:23:15Z</time></trkpt><trkpt lat="45.96750033756728" lon="12.354477240455823"><ele>95.0</ele><time>2026-03-29T13:23:16Z</time></trkpt><trkpt lat="45.967414262018934" lon="12.35461162695854"><ele>94.5</ele><time>2026-03-29T13:23:17Z</time></trkpt><trkpt lat="45.96732272988591" lon="12.354756664404276"><ele>94.0</ele><time>2026-03-29T13:23:18Z</time></trkpt><trkpt lat="45.9672304204945" lon="12.354909013773712"><ele>93.5</ele><time>2026-03-29T13:23:19Z</time></trkpt><trkpt lat="45.9671362944995" lon="12.355063112842055"><ele>93.0</ele><time>2026-03-29T13:23:20Z</time></trkpt><trkpt lat="45.967037753221824" lon="12.35522021588181"><ele>93.0</ele><time>2026-03-29T13:23:21Z</time></trkpt><trkpt lat="45.966934813333054" lon="12.355384109907043"><ele>93.0</ele><time>2026-03-29T13:23:22Z</time></trkpt><trkpt lat="45.966831619234476" lon="12.355551546060218"><ele>93.0</ele><time>2026-03-29T13:23:23.001Z</time></trkpt><trkpt lat="45.96672579763948" lon="12.355724036578419"><ele>93.0</ele><time>2026-03-29T13:23:24.001Z</time></trkpt><trkpt lat="45.96661626663588" lon="12.355897810992484"><ele>93.0</ele><time>2026-03-29T13:23:25.001Z</time></trkpt><trkpt lat="45.96650595883095" lon="12.356072463494435"><ele>93.0</ele><time>2026-03-29T13:23:26.001Z</time></trkpt><trkpt lat="45.96639637470281" lon="12.35624939980298"><ele>93.0</ele><time>2026-03-29T13:23:27.001Z</time></trkpt><trkpt lat="45.96628748798854" lon="12.356430955501049"><ele>93.0</ele><time>2026-03-29T13:23:28.001Z</time></trkpt><trkpt lat="45.96617751134974" lon="12.356606138116145"><ele>93.0</ele><time>2026-03-29T13:23:29.001Z</time></trkpt><trkpt lat="45.9660767785587" lon="12.356774092912156"><ele>93.0</ele><time>2026-03-29T13:23:30.001Z</time></trkpt><trkpt lat="45.96597837185866" lon="12.356932856133692"><ele>93.0</ele><time>2026-03-29T13:23:31.001Z</time></trkpt><trkpt lat="45.96588117458562" lon="12.357084163389203"><ele>93.0</ele><time>2026-03-29T13:23:32.001Z</time></trkpt><trkpt lat="45.96578370779047" lon="12.357235880037056"><ele>93.0</ele><time>2026-03-29T13:23:33.001Z</time></trkpt><trkpt lat="45.96568226114822" lon="12.357395275280902"><ele>93.0</ele><time>2026-03-29T13:23:34.001Z</time></trkpt><trkpt lat="45.96557856981834" lon="12.357566166413044"><ele>93.0</ele><time>2026-03-29T13:23:35.001Z</time></trkpt><trkpt lat="45.965476292904526" lon="12.35774610138099"><ele>93.0</ele><time>2026-03-29T13:23:36.001Z</time></trkpt><trkpt lat="45.96536661005977" lon="12.357924546924663"><ele>92.66666666666667</ele><time>2026-03-29T13:23:37.001Z</time></trkpt><trkpt lat="45.965255534366236" lon="12.358105038751921"><ele>92.33333333333334</ele><time>2026-03-29T13:23:38.001Z</time></trkpt><trkpt lat="45.96514311929839" lon="12.358290743836731"><ele>92.0</ele><time>2026-03-29T13:23:39.001Z</time></trkpt><trkpt lat="45.96502793588766" lon="12.358478853535244"><ele>92.0</ele><time>2026-03-29T13:23:40.001Z</time></trkpt><trkpt lat="45.96491309894891" lon="12.358659833717097"><ele>92.0</ele><time>2026-03-29T13:23:41.001Z</time></trkpt><trkpt lat="45.96480294430779" lon="12.358829802185786"><ele>92.0</ele><time>2026-03-29T13:23:42.001Z</time></trkpt><trkpt lat="45.96469198964141" lon="12.359006936415671"><ele>92.33333333333334</ele><time>2026-03-29T13:23:43.001Z</time></trkpt><trkpt lat="45.96458362629363" lon="12.359185959558053"><ele>92.66666666666667</ele><time>2026-03-29T13:23:44.001Z</time></trkpt><trkpt lat="45.96447516557537" lon="12.359370056739332"><ele>93.0</ele><time>2026-03-29T13:23:45.001Z</time></trkpt><trkpt lat="45.964365829983194" lon="12.359553654081987"><ele>93.0</ele><time>2026-03-29T13:23:46.001Z</time></trkpt><trkpt lat="45.964253278353866" lon="12.35973728339364"><ele>93.0</ele><time>2026-03-29T13:23:47.001Z</time></trkpt><trkpt lat="45.96413990609524" lon="12.359918664066129"><ele>93.0</ele><time>2026-03-29T13:23:48.001Z</time></trkpt><trkpt lat="45.964026692783676" lon="12.360097169389764"><ele>92.66666666666667</ele><time>2026-03-29T13:23:49.001Z</time></trkpt><trkpt lat="45.963919012844926" lon="12.360268035009174"><ele>92.33333333333334</ele><time>2026-03-29T13:23:50.001Z</time></trkpt><trkpt lat="45.96381864868433" lon="12.360426033159598"><ele>92.0</ele><time>2026-03-29T13:23:51.001Z</time></trkpt><trkpt lat="45.9637195434543" lon="12.360587517736674"><ele>91.66666666666667</ele><time>2026-03-29T13:23:52.001Z</time></trkpt><trkpt lat="45.96361747248534" lon="12.360756332395805"><ele>91.33333333333333</ele><time>2026-03-29T13:23:53.001Z</time></trkpt><trkpt lat="45.96351677998101" lon="12.360924571323284"><ele>91.0</ele><time>2026-03-29T13:23:54.001Z</time></trkpt><trkpt lat="45.96341854002793" lon="12.361088262045556"><ele>90.75</ele><time>2026-03-29T13:23:55.001Z</time></trkpt><trkpt lat="45.96332340113511" lon="12.361245872396028"><ele>90.5</ele><time>2026-03-29T13:23:56.001Z</time></trkpt><trkpt lat="45.9632327500857" lon="12.36139068626424"><ele>90.25</ele><time>2026-03-29T13:23:57.001Z</time></trkpt><trkpt lat="45.963142785008664" lon="12.361526814304113"><ele>90.0</ele><time>2026-03-29T13:23:58.001Z</time></trkpt><trkpt lat="45.963061355395176" lon="12.361653344014252"><ele>90.6</ele><time>2026-03-29T13:23:59.001Z</time></trkpt><trkpt lat="45.96298429921858" lon="12.36177695688429"><ele>91.2</ele><time>2026-03-29T13:24:00.001Z</time></trkpt><trkpt lat="45.962913642323876" lon="12.361898441853373"><ele>91.80000000000001</ele><time>2026-03-29T13:24:01.001Z</time></trkpt><trkpt lat="45.96284416809332" lon="12.362006403300036"><ele>92.4</ele><time>2026-03-29T13:24:02.001Z</time></trkpt><trkpt lat="45.96277558747807" lon="12.362091465408028"><ele>93.0</ele><time>2026-03-29T13:24:03.001Z</time></trkpt><trkpt lat="45.96270211061142" lon="12.362143784263893"><ele>93.0</ele><time>2026-03-29T13:24:04.001Z</time></trkpt><trkpt lat="45.962626176864795" lon="12.36217367717712"><ele>93.0</ele><time>2026-03-29T13:24:05.001Z</time></trkpt><trkpt lat="45.96256333050583" lon="12.362211694611494"><ele>93.0</ele><time>2026-03-29T13:24:06.001Z</time></trkpt><trkpt lat="45.962515070695304" lon="12.362283912558407"><ele>93.0</ele><time>2026-03-29T13:24:07.001Z</time></trkpt><trkpt lat="45.96249112474489" lon="12.362383593717352"><ele>93.0</ele><time>2026-03-29T13:24:08.001Z</time></trkpt><trkpt lat="45.96248469446458" lon="12.36250602423526"><ele>93.0</ele><time>2026-03-29T13:24:09.001Z</time></trkpt><trkpt lat="45.96246359508073" lon="12.36261054413036"><ele>92.66666666666667</ele><time>2026-03-29T13:24:10.001Z</time></trkpt><trkpt lat="45.962425031397984" lon="12.36269402782527"><ele>92.33333333333333</ele><time>2026-03-29T13:24:11.001Z</time></trkpt><trkpt lat="45.96237226165912" lon="12.362768006031496"><ele>92.0</ele><time>2026-03-29T13:24:12.001Z</time></trkpt><trkpt lat="45.962313894857715" lon="12.362853339268709"><ele>91.66666666666666</ele><time>2026-03-29T13:24:13.001Z</time></trkpt><trkpt lat="45.96225336771764" lon="12.362947076804302"><ele>91.33333333333333</ele><time>2026-03-29T13:24:14.001Z</time></trkpt><trkpt lat="45.96219333275866" lon="12.363051665394806"><ele>91.0</ele><time>2026-03-29T13:24:15.001Z</time></trkpt><trkpt lat="45.962127213633934" lon="12.363169265636607"><ele>91.0</ele><time>2026-03-29T13:24:16.001Z</time></trkpt><trkpt lat="45.962053041764044" lon="12.363296156915872"><ele>91.0</ele><time>2026-03-29T13:24:17.001Z</time></trkpt><trkpt lat="45.96197008806317" lon="12.363431658378024"><ele>91.0</ele><time>2026-03-29T13:24:18.001Z</time></trkpt><trkpt lat="45.96188698257196" lon="12.363570160836028"><ele>91.0</ele><time>2026-03-29T13:24:19.002Z</time></trkpt><trkpt lat="45.961802660674635" lon="12.363714148649775"><ele>91.0</ele><time>2026-03-29T13:24:20.002Z</time></trkpt><trkpt lat="45.96171341152273" lon="12.363859862147379"><ele>91.0</ele><time>2026-03-29T13:24:21.002Z</time></trkpt><trkpt lat="45.96161936233223" lon="12.364011885458954"><ele>91.0</ele><time>2026-03-29T13:24:22.002Z</time></trkpt><trkpt lat="45.961526295992996" lon="12.364164770235552"><ele>91.0</ele><time>2026-03-29T13:24:23.002Z</time></trkpt><trkpt lat="45.9614386626165" lon="12.36431175096932"><ele>91.25</ele><time>2026-03-29T13:24:24.002Z</time></trkpt><trkpt lat="45.961351216599375" lon="12.364463857203233"><ele>91.5</ele><time>2026-03-29T13:24:25.002Z</time></trkpt><trkpt lat="45.96126627256135" lon="12.364606595527755"><ele>91.75</ele><time>2026-03-29T13:24:26.002Z</time></trkpt><trkpt lat="45.96118329032219" lon="12.36474209462636"><ele>92.0</ele><time>2026-03-29T13:24:27.002Z</time></trkpt><trkpt lat="45.96110057504277" lon="12.364872008595112"><ele>92.0</ele><time>2026-03-29T13:24:28.002Z</time></trkpt><trkpt lat="45.96101863496547" lon="12.365001634939233"><ele>92.0</ele><time>2026-03-29T13:24:29.002Z</time></trkpt><trkpt lat="45.96093796781583" lon="12.365131802365166"><ele>92.0</ele><time>2026-03-29T13:24:30.002Z</time></trkpt><trkpt lat="45.96085633940838" lon="12.365262189967705"><ele>92.0</ele><time>2026-03-29T13:24:31.002Z</time></trkpt><trkpt lat="45.960773934482184" lon="12.365394333826407"><ele>91.5</ele><time>2026-03-29T13:24:32.002Z</time></trkpt><trkpt lat="45.960688957475234" lon="12.36552534913014"><ele>91.0</ele><time>2026-03-29T13:24:33.002Z</time></trkpt><trkpt lat="45.960594715885236" lon="12.365650166425246"><ele>90.5</ele><time>2026-03-29T13:24:34.002Z</time></trkpt><trkpt lat="45.960496272314636" lon="12.365765443336697"><ele>90.0</ele><time>2026-03-29T13:24:35.002Z</time></trkpt><trkpt lat="45.96039117302658" lon="12.365872166340756"><ele>89.5</ele><time>2026-03-29T13:24:36.002Z</time></trkpt><trkpt lat="45.96027837241309" lon="12.365980687974899"><ele>89.0</ele><time>2026-03-29T13:24:37.002Z</time></trkpt><trkpt lat="45.96015698439834" lon="12.36608931833422"><ele>88.5</ele><time>2026-03-29T13:24:38.002Z</time></trkpt><trkpt lat="45.960028750218044" lon="12.366200318281484"><ele>88.0</ele><time>2026-03-29T13:24:39Z</time></trkpt><trkpt lat="45.95989577471623" lon="12.366316474325462"><ele>87.66666666666666</ele><time>2026-03-29T13:24:40Z</time></trkpt><trkpt lat="45.959759804735036" lon="12.366437928745139"><ele>87.33333333333333</ele><time>2026-03-29T13:24:41Z</time></trkpt><trkpt lat="45.95962458026245" lon="12.366555334350084"><ele>87.0</ele><time>2026-03-29T13:24:42Z</time></trkpt><trkpt lat="45.95949994251166" lon="12.366666263318354"><ele>87.0</ele><time>2026-03-29T13:24:43Z</time></trkpt><trkpt lat="45.959369236739114" lon="12.366774726774352"><ele>87.0</ele><time>2026-03-29T13:24:44Z</time></trkpt><trkpt lat="45.95923797191239" lon="12.366885883643603"><ele>87.0</ele><time>2026-03-29T13:24:45Z</time></trkpt><trkpt lat="45.95910756171255" lon="12.367003756802996"><ele>86.33333333333333</ele><time>2026-03-29T13:24:46Z</time></trkpt><trkpt lat="45.958975675222945" lon="12.367119394237305"><ele>85.66666666666666</ele><time>2026-03-29T13:24:47Z</time></trkpt><trkpt lat="45.95884217346587" lon="12.367238686660242"><ele>85.0</ele><time>2026-03-29T13:24:48Z</time></trkpt><trkpt lat="45.958707473346955" lon="12.367357644653877"><ele>85.33333333333333</ele><time>2026-03-29T13:24:49Z</time></trkpt><trkpt lat="45.95857196089015" lon="12.367478411998086"><ele>85.66666666666667</ele><time>2026-03-29T13:24:50Z</time></trkpt><trkpt lat="45.958434634486274" lon="12.367598784464251"><ele>86.0</ele><time>2026-03-29T13:24:51Z</time></trkpt><trkpt lat="45.95829520026709" lon="12.367720990645228"><ele>86.0</ele><time>2026-03-29T13:24:52Z</time></trkpt><trkpt lat="45.958154209784496" lon="12.367842016115175"><ele>86.0</ele><time>2026-03-29T13:24:53Z</time></trkpt><trkpt lat="45.958013032040526" lon="12.367963221164072"><ele>86.0</ele><time>2026-03-29T13:24:54Z</time></trkpt><trkpt lat="45.957874361545784" lon="12.368089153159767"><ele>84.66666666666667</ele><time>2026-03-29T13:24:55Z</time></trkpt><trkpt lat="45.957740116782794" lon="12.368212576865488"><ele>83.33333333333333</ele><time>2026-03-29T13:24:56Z</time></trkpt><trkpt lat="45.95761443254873" lon="12.36832900210311"><ele>82.0</ele><time>2026-03-29T13:24:57Z</time></trkpt><trkpt lat="45.9575037899135" lon="12.368461604239842"><ele>81.75</ele><time>2026-03-29T13:24:58Z</time></trkpt><trkpt lat="45.957401494216974" lon="12.368603464701673"><ele>81.5</ele><time>2026-03-29T13:24:59Z</time></trkpt><trkpt lat="45.957304138689594" lon="12.368770396914305"><ele>81.25</ele><time>2026-03-29T13:25:00Z</time></trkpt><trkpt lat="45.95721473557574" lon="12.368951405551124"><ele>81.0</ele><time>2026-03-29T13:25:01Z</time></trkpt><trkpt lat="45.95713393168123" lon="12.3691523451112"><ele>81.0</ele><time>2026-03-29T13:25:02Z</time></trkpt><trkpt lat="45.957075108763945" lon="12.369361834784993"><ele>81.0</ele><time>2026-03-29T13:25:03Z</time></trkpt><trkpt lat="45.95702374767112" lon="12.369576103131136"><ele>81.0</ele><time>2026-03-29T13:25:04Z</time></trkpt><trkpt lat="45.95697544219357" lon="12.369791085680296"><ele>81.0</ele><time>2026-03-29T13:25:05Z</time></trkpt><trkpt lat="45.95692816850251" lon="12.370003815385543"><ele>81.0</ele><time>2026-03-29T13:25:06Z</time></trkpt><trkpt lat="45.95688508668756" lon="12.370221848306784"><ele>81.0</ele><time>2026-03-29T13:25:07Z</time></trkpt><trkpt lat="45.95684569524999" lon="12.37044639287502"><ele>81.0</ele><time>2026-03-29T13:25:08Z</time></trkpt><trkpt lat="45.956806620446386" lon="12.37066555860022"><ele>81.0</ele><time>2026-03-29T13:25:09Z</time></trkpt><trkpt lat="45.95677012238168" lon="12.370868277942613"><ele>81.0</ele><time>2026-03-29T13:25:10Z</time></trkpt><trkpt lat="45.95673324561332" lon="12.371059953221838"><ele>81.0</ele><time>2026-03-29T13:25:11Z</time></trkpt><trkpt lat="45.95669738362848" lon="12.371242143696879"><ele>81.0</ele><time>2026-03-29T13:25:12Z</time></trkpt><trkpt lat="45.956663442507164" lon="12.37141539942673"><ele>81.0</ele><time>2026-03-29T13:25:13Z</time></trkpt><trkpt lat="45.956627092808695" lon="12.371586750952572"><ele>81.0</ele><time>2026-03-29T13:25:14Z</time></trkpt><trkpt lat="45.9565868181389" lon="12.371768028720012"><ele>81.0</ele><time>2026-03-29T13:25:15Z</time></trkpt><trkpt lat="45.956546474812356" lon="12.371960916571725"><ele>81.0</ele><time>2026-03-29T13:25:16Z</time></trkpt><trkpt lat="45.956507161013825" lon="12.372160163006189"><ele>81.0</ele><time>2026-03-29T13:25:17Z</time></trkpt><trkpt lat="45.956466211081924" lon="12.372373411547551"><ele>81.0</ele><time>2026-03-29T13:25:18Z</time></trkpt><trkpt lat="45.956424391543464" lon="12.372594746607067"><ele>80.33333333333333</ele><time>2026-03-29T13:25:19Z</time></trkpt><trkpt lat="45.95637846217472" lon="12.372822301361897"><ele>79.66666666666666</ele><time>2026-03-29T13:25:20Z</time></trkpt><trkpt lat="45.95633416645737" lon="12.373039535204978"><ele>79.0</ele><time>2026-03-29T13:25:21Z</time></trkpt><trkpt lat="45.95629013632037" lon="12.373256980412886"><ele>78.66666666666666</ele><time>2026-03-29T13:25:22Z</time></trkpt><trkpt lat="45.956244254906" lon="12.373479670133037"><ele>78.33333333333333</ele><time>2026-03-29T13:25:23.001Z</time></trkpt><trkpt lat="45.95619962984803" lon="12.373704209901716"><ele>78.0</ele><time>2026-03-29T13:25:24.001Z</time></trkpt><trkpt lat="45.95615513490317" lon="12.3739334182802"><ele>77.66666666666667</ele><time>2026-03-29T13:25:25.001Z</time></trkpt><trkpt lat="45.956107970843" lon="12.374164474191135"><ele>77.33333333333334</ele><time>2026-03-29T13:25:26.001Z</time></trkpt><trkpt lat="45.95606077341495" lon="12.374398028493168"><ele>77.0</ele><time>2026-03-29T13:25:27.001Z</time></trkpt><trkpt lat="45.956011313874484" lon="12.374633698262937"><ele>77.0</ele><time>2026-03-29T13:25:28.001Z</time></trkpt><trkpt lat="45.95596091392434" lon="12.374869140210096"><ele>77.0</ele><time>2026-03-29T13:25:29.001Z</time></trkpt><trkpt lat="45.95591378674306" lon="12.375096475777239"><ele>77.0</ele><time>2026-03-29T13:25:30.001Z</time></trkpt><trkpt lat="45.955868157477575" lon="12.375311833278063"><ele>77.25</ele><time>2026-03-29T13:25:31.001Z</time></trkpt><trkpt lat="45.95582606440924" lon="12.375522456604799"><ele>77.5</ele><time>2026-03-29T13:25:32.001Z</time></trkpt><trkpt lat="45.955784808479734" lon="12.37572685442302"><ele>77.75</ele><time>2026-03-29T13:25:33.001Z</time></trkpt><trkpt lat="45.95574724992774" lon="12.375931930515266"><ele>78.0</ele><time>2026-03-29T13:25:34.001Z</time></trkpt><trkpt lat="45.9557094621776" lon="12.376133035921693"><ele>78.0</ele><time>2026-03-29T13:25:35.001Z</time></trkpt><trkpt lat="45.95567324083235" lon="12.37632601093486"><ele>78.0</ele><time>2026-03-29T13:25:36.001Z</time></trkpt><trkpt lat="45.95563412490699" lon="12.376512057300626"><ele>78.0</ele><time>2026-03-29T13:25:37.001Z</time></trkpt><trkpt lat="45.95559308992106" lon="12.376693708850427"><ele>78.0</ele><time>2026-03-29T13:25:38.001Z</time></trkpt><trkpt lat="45.9555493025848" lon="12.376864204890524"><ele>78.0</ele><time>2026-03-29T13:25:39.001Z</time></trkpt><trkpt lat="45.95549771762115" lon="12.377017223668716"><ele>78.0</ele><time>2026-03-29T13:25:40.001Z</time></trkpt><trkpt lat="45.955436698083616" lon="12.377148708582796"><ele>78.0</ele><time>2026-03-29T13:25:41.001Z</time></trkpt><trkpt lat="45.955368052037706" lon="12.377264265115603"><ele>78.0</ele><time>2026-03-29T13:25:42.001Z</time></trkpt><trkpt lat="45.95528386403246" lon="12.37736877708732"><ele>78.0</ele><time>2026-03-29T13:25:43.001Z</time></trkpt><trkpt lat="45.95518152341646" lon="12.377449263183388"><ele>78.0</ele><time>2026-03-29T13:25:44.001Z</time></trkpt><trkpt lat="45.95506916923163" lon="12.377506357646046"><ele>78.0</ele><time>2026-03-29T13:25:45.001Z</time></trkpt><trkpt lat="45.95495973930131" lon="12.377557270004852"><ele>78.0</ele><time>2026-03-29T13:25:46.001Z</time></trkpt><trkpt lat="45.9548576627104" lon="12.37760721935558"><ele>78.0</ele><time>2026-03-29T13:25:47.001Z</time></trkpt><trkpt lat="45.95476972312609" lon="12.377663216330538"><ele>78.0</ele><time>2026-03-29T13:25:48.001Z</time></trkpt><trkpt lat="45.95469129698224" lon="12.377726245416733"><ele>78.0</ele><time>2026-03-29T13:25:49.001Z</time></trkpt><trkpt lat="45.954617367705644" lon="12.377815044146887"><ele>78.0</ele><time>2026-03-29T13:25:50.001Z</time></trkpt><trkpt lat="45.9545449826901" lon="12.377936676593148"><ele>78.0</ele><time>2026-03-29T13:25:51.001Z</time></trkpt><trkpt lat="45.954470003614425" lon="12.378093001618435"><ele>78.0</ele><time>2026-03-29T13:25:52.001Z</time></trkpt><trkpt lat="45.954378048982015" lon="12.378276796392742"><ele>77.66666666666667</ele><time>2026-03-29T13:25:53.001Z</time></trkpt><trkpt lat="45.95428138966638" lon="12.378466093569871"><ele>77.33333333333334</ele><time>2026-03-29T13:25:54.001Z</time></trkpt><trkpt lat="45.954186206612555" lon="12.378649451892292"><ele>77.0</ele><time>2026-03-29T13:25:55.001Z</time></trkpt><trkpt lat="45.95408803962515" lon="12.378831690801276"><ele>76.5</ele><time>2026-03-29T13:25:56.001Z</time></trkpt><trkpt lat="45.953992410832086" lon="12.379004968149571"><ele>76.0</ele><time>2026-03-29T13:25:57.001Z</time></trkpt><trkpt lat="45.95390527878309" lon="12.379167316169932"><ele>75.5</ele><time>2026-03-29T13:25:58.001Z</time></trkpt><trkpt lat="45.953829098725556" lon="12.379314956056625"><ele>75.0</ele><time>2026-03-29T13:25:59.001Z</time></trkpt><trkpt lat="45.95376403650814" lon="12.379438402264919"><ele>75.0</ele><time>2026-03-29T13:26:00.001Z</time></trkpt><trkpt lat="45.95370795516867" lon="12.37952738897903"><ele>75.0</ele><time>2026-03-29T13:26:01.001Z</time></trkpt><trkpt lat="45.95365396499518" lon="12.379584771692135"><ele>75.0</ele><time>2026-03-29T13:26:02.001Z</time></trkpt><trkpt lat="45.953565706611506" lon="12.379666117530164"><ele>75.0</ele><time>2026-03-29T13:26:04.001Z</time></trkpt><trkpt lat="45.953510260615325" lon="12.379825557425212"><ele>75.0</ele><time>2026-03-29T13:26:19.002Z</time></trkpt><trkpt lat="45.953481824668295" lon="12.379952733931018"><ele>74.5</ele><time>2026-03-29T13:26:20.002Z</time></trkpt><trkpt lat="45.95344495861433" lon="12.380106474919646"><ele>74.0</ele><time>2026-03-29T13:26:21.002Z</time></trkpt><trkpt lat="45.95342067132795" lon="12.38028173496675"><ele>73.5</ele><time>2026-03-29T13:26:22.002Z</time></trkpt><trkpt lat="45.953397378547216" lon="12.380472513082637"><ele>73.0</ele><time>2026-03-29T13:26:23.002Z</time></trkpt><trkpt lat="45.953370563159304" lon="12.380670563087698"><ele>74.33333333333333</ele><time>2026-03-29T13:26:24.002Z</time></trkpt><trkpt lat="45.95333693621232" lon="12.38088006716591"><ele>75.66666666666667</ele><time>2026-03-29T13:26:25.002Z</time></trkpt><trkpt lat="45.95329621628091" lon="12.381094193499294"><ele>77.0</ele><time>2026-03-29T13:26:26.002Z</time></trkpt><trkpt lat="45.95325585077115" lon="12.381314781632646"><ele>76.33333333333334</ele><time>2026-03-29T13:26:27.002Z</time></trkpt><trkpt lat="45.95322318315491" lon="12.381546457256231"><ele>75.66666666666667</ele><time>2026-03-29T13:26:28.002Z</time></trkpt><trkpt lat="45.95319154534281" lon="12.381789152387528"><ele>75.0</ele><time>2026-03-29T13:26:29.002Z</time></trkpt><trkpt lat="45.9531573809921" lon="12.382035708449113"><ele>74.66666666666667</ele><time>2026-03-29T13:26:30.002Z</time></trkpt><trkpt lat="45.95311869570304" lon="12.382285493695512"><ele>74.33333333333334</ele><time>2026-03-29T13:26:31.002Z</time></trkpt><trkpt lat="45.95307537193679" lon="12.38253435341468"><ele>74.0</ele><time>2026-03-29T13:26:32.002Z</time></trkpt><trkpt lat="45.95303333419689" lon="12.382785451538957"><ele>74.33333333333334</ele><time>2026-03-29T13:26:33.002Z</time></trkpt><trkpt lat="45.95299644057062" lon="12.383027597966391"><ele>74.66666666666667</ele><time>2026-03-29T13:26:34.002Z</time></trkpt><trkpt lat="45.952959959361316" lon="12.383256154728976"><ele>75.0</ele><time>2026-03-29T13:26:35.002Z</time></trkpt><trkpt lat="45.95292369664335" lon="12.38347673582647"><ele>75.0</ele><time>2026-03-29T13:26:36.002Z</time></trkpt><trkpt lat="45.95288800808747" lon="12.383688434439375"><ele>75.0</ele><time>2026-03-29T13:26:37.002Z</time></trkpt><trkpt lat="45.95285378598563" lon="12.383895778269672"><ele>75.0</ele><time>2026-03-29T13:26:38.002Z</time></trkpt><trkpt lat="45.95282096410896" lon="12.384102640057392"><ele>75.0</ele><time>2026-03-29T13:26:39.002Z</time></trkpt><trkpt lat="45.952793957901356" lon="12.384311546906542"><ele>74.75</ele><time>2026-03-29T13:26:40.002Z</time></trkpt><trkpt lat="45.95276409220606" lon="12.384514503646587"><ele>74.5</ele><time>2026-03-29T13:26:41.002Z</time></trkpt><trkpt lat="45.95272626234558" lon="12.38471574118874"><ele>74.25</ele><time>2026-03-29T13:26:42.002Z</time></trkpt><trkpt lat="45.95269176204246" lon="12.384920333869662"><ele>74.0</ele><time>2026-03-29T13:26:43.002Z</time></trkpt><trkpt lat="45.95265331029478" lon="12.385122465567274"><ele>73.5</ele><time>2026-03-29T13:26:44.002Z</time></trkpt><trkpt lat="45.95262369682376" lon="12.385323989109581"><ele>73.0</ele><time>2026-03-29T13:26:45Z</time></trkpt><trkpt lat="45.95259651257283" lon="12.38552629418494"><ele>72.5</ele><time>2026-03-29T13:26:46Z</time></trkpt><trkpt lat="45.95256612361838" lon="12.385726253397863"><ele>72.0</ele><time>2026-03-29T13:26:47Z</time></trkpt><trkpt lat="45.952539891751314" lon="12.38591680125162"><ele>72.0</ele><time>2026-03-29T13:26:48Z</time></trkpt><trkpt lat="45.95251224685991" lon="12.386106208847469"><ele>72.0</ele><time>2026-03-29T13:26:49Z</time></trkpt><trkpt lat="45.95248070091291" lon="12.386300059255678"><ele>72.0</ele><time>2026-03-29T13:26:50Z</time></trkpt><trkpt lat="45.95244799862819" lon="12.386496730730773"><ele>72.0</ele><time>2026-03-29T13:26:51Z</time></trkpt><trkpt lat="45.95241623227453" lon="12.386684353936836"><ele>72.0</ele><time>2026-03-29T13:26:52Z</time></trkpt><trkpt lat="45.95238773903871" lon="12.386863652802843"><ele>72.0</ele><time>2026-03-29T13:26:53Z</time></trkpt><trkpt lat="45.95235969089502" lon="12.387034774046667"><ele>72.0</ele><time>2026-03-29T13:26:54Z</time></trkpt><trkpt lat="45.952328535289745" lon="12.387202452832225"><ele>72.0</ele><time>2026-03-29T13:26:55Z</time></trkpt><trkpt lat="45.95229951539029" lon="12.38737139301496"><ele>71.75</ele><time>2026-03-29T13:26:56Z</time></trkpt><trkpt lat="45.95227268834172" lon="12.38754810813942"><ele>71.5</ele><time>2026-03-29T13:26:57Z</time></trkpt><trkpt lat="45.952243469983806" lon="12.387741666115556"><ele>71.25</ele><time>2026-03-29T13:26:58Z</time></trkpt><trkpt lat="45.95221803294716" lon="12.387931528596495"><ele>71.0</ele><time>2026-03-29T13:26:59Z</time></trkpt><trkpt lat="45.95218998113464" lon="12.38811081642591"><ele>70.75</ele><time>2026-03-29T13:27:00Z</time></trkpt><trkpt lat="45.95215750898436" lon="12.388287809271349"><ele>70.5</ele><time>2026-03-29T13:27:01Z</time></trkpt><trkpt lat="45.95212523266081" lon="12.388467211264386"><ele>70.25</ele><time>2026-03-29T13:27:02Z</time></trkpt><trkpt lat="45.95210024930096" lon="12.388650850778582"><ele>70.0</ele><time>2026-03-29T13:27:03Z</time></trkpt><trkpt lat="45.95207850425724" lon="12.388839523495552"><ele>69.75</ele><time>2026-03-29T13:27:04Z</time></trkpt><trkpt lat="45.95205774193241" lon="12.389031122183566"><ele>69.5</ele><time>2026-03-29T13:27:05Z</time></trkpt><trkpt lat="45.952042825200046" lon="12.38921925026831"><ele>69.25</ele><time>2026-03-29T13:27:06Z</time></trkpt><trkpt lat="45.95203127686125" lon="12.38939862525449"><ele>69.0</ele><time>2026-03-29T13:27:07Z</time></trkpt><trkpt lat="45.952027384833244" lon="12.38957055086797"><ele>68.8</ele><time>2026-03-29T13:27:08Z</time></trkpt><trkpt lat="45.952026861058684" lon="12.389733851603845"><ele>68.60000000000001</ele><time>2026-03-29T13:27:09Z</time></trkpt><trkpt lat="45.952027245947356" lon="12.389887169431603"><ele>68.4</ele><time>2026-03-29T13:27:10Z</time></trkpt><trkpt lat="45.95202570442716" lon="12.39003397129028"><ele>68.2</ele><time>2026-03-29T13:27:11Z</time></trkpt><trkpt lat="45.9520302055326" lon="12.390182127086032"><ele>68.0</ele><time>2026-03-29T13:27:12Z</time></trkpt><trkpt lat="45.95202922606866" lon="12.390339062828597"><ele>68.0</ele><time>2026-03-29T13:27:13Z</time></trkpt><trkpt lat="45.95202582441726" lon="12.390500164059903"><ele>68.0</ele><time>2026-03-29T13:27:14Z</time></trkpt><trkpt lat="45.95201365968847" lon="12.390651731232586"><ele>68.0</ele><time>2026-03-29T13:27:15Z</time></trkpt><trkpt lat="45.95199844557465" lon="12.390794076327785"><ele>68.0</ele><time>2026-03-29T13:27:16Z</time></trkpt><trkpt lat="45.951979021162586" lon="12.390927388818017"><ele>68.0</ele><time>2026-03-29T13:27:17Z</time></trkpt><trkpt lat="45.951952319399524" lon="12.391049941009614"><ele>68.0</ele><time>2026-03-29T13:27:18Z</time></trkpt><trkpt lat="45.95191846729216" lon="12.391163200345707"><ele>68.0</ele><time>2026-03-29T13:27:19Z</time></trkpt><trkpt lat="45.95187601928487" lon="12.391261886516386"><ele>68.0</ele><time>2026-03-29T13:27:20Z</time></trkpt><trkpt lat="45.95182226949322" lon="12.391344157759086"><ele>68.0</ele><time>2026-03-29T13:27:21Z</time></trkpt><trkpt lat="45.951775890306095" lon="12.391438026083845"><ele>68.0</ele><time>2026-03-29T13:27:22Z</time></trkpt><trkpt lat="45.951757325857535" lon="12.391554549069678"><ele>68.0</ele><time>2026-03-29T13:27:23Z</time></trkpt><trkpt lat="45.95174839855751" lon="12.391682150212324"><ele>68.2</ele><time>2026-03-29T13:27:24.001Z</time></trkpt><trkpt lat="45.95172705727905" lon="12.391817607173643"><ele>68.4</ele><time>2026-03-29T13:27:25.001Z</time></trkpt><trkpt lat="45.95169381916887" lon="12.391945337054125"><ele>68.60000000000001</ele><time>2026-03-29T13:27:26.001Z</time></trkpt><trkpt lat="45.951657363025795" lon="12.392069617134396"><ele>68.8</ele><time>2026-03-29T13:27:27.001Z</time></trkpt><trkpt lat="45.95162002583688" lon="12.392200593853783"><ele>69.0</ele><time>2026-03-29T13:27:28.001Z</time></trkpt><trkpt lat="45.95157744801708" lon="12.392343258376044"><ele>69.0</ele><time>2026-03-29T13:27:29.001Z</time></trkpt><trkpt lat="45.95152867739916" lon="12.392493720763337"><ele>69.0</ele><time>2026-03-29T13:27:30.001Z</time></trkpt><trkpt lat="45.95147639702894" lon="12.392645609057817"><ele>69.0</ele><time>2026-03-29T13:27:31.001Z</time></trkpt><trkpt lat="45.95142481699213" lon="12.3928024908201"><ele>69.0</ele><time>2026-03-29T13:27:32.001Z</time></trkpt><trkpt lat="45.951375186533085" lon="12.39295996417423"><ele>69.0</ele><time>2026-03-29T13:27:33.001Z</time></trkpt><trkpt lat="45.951324766680976" lon="12.393121378665349"><ele>69.0</ele><time>2026-03-29T13:27:34.001Z</time></trkpt><trkpt lat="45.95127329373654" lon="12.39328456138879"><ele>69.0</ele><time>2026-03-29T13:27:35.001Z</time></trkpt><trkpt lat="45.951220834162754" lon="12.393448234265785"><ele>69.0</ele><time>2026-03-29T13:27:36.001Z</time></trkpt><trkpt lat="45.95116725318626" lon="12.393611733594058"><ele>69.0</ele><time>2026-03-29T13:27:37.001Z</time></trkpt><trkpt lat="45.951114238585106" lon="12.393779461675042"><ele>69.0</ele><time>2026-03-29T13:27:38.001Z</time></trkpt><trkpt lat="45.95105923485159" lon="12.393950360923158"><ele>69.0</ele><time>2026-03-29T13:27:39.001Z</time></trkpt><trkpt lat="45.95100222490485" lon="12.394125298045857"><ele>69.0</ele><time>2026-03-29T13:27:40.001Z</time></trkpt><trkpt lat="45.950951692243486" lon="12.394293188809419"><ele>69.0</ele><time>2026-03-29T13:27:41.001Z</time></trkpt><trkpt lat="45.95090287031093" lon="12.394463034523994"><ele>69.0</ele><time>2026-03-29T13:27:42.001Z</time></trkpt><trkpt lat="45.95084933470001" lon="12.394632486147657"><ele>69.0</ele><time>2026-03-29T13:27:43.001Z</time></trkpt><trkpt lat="45.95079542201141" lon="12.394803751918634"><ele>69.0</ele><time>2026-03-29T13:27:44.001Z</time></trkpt><trkpt lat="45.95074450321926" lon="12.39497187636534"><ele>69.0</ele><time>2026-03-29T13:27:45.001Z</time></trkpt><trkpt lat="45.950695561386034" lon="12.395127897195744"><ele>69.0</ele><time>2026-03-29T13:27:46.001Z</time></trkpt><trkpt lat="45.95065174525028" lon="12.395274742846865"><ele>69.0</ele><time>2026-03-29T13:27:47.001Z</time></trkpt><trkpt lat="45.95061061352615" lon="12.39542260724317"><ele>69.0</ele><time>2026-03-29T13:27:48.001Z</time></trkpt><trkpt lat="45.95057027478894" lon="12.395577180820878"><ele>68.60000000000001</ele><time>2026-03-29T13:27:49.001Z</time></trkpt><trkpt lat="45.95053737853885" lon="12.395739463505112"><ele>68.2</ele><time>2026-03-29T13:27:50.001Z</time></trkpt><trkpt lat="45.95051665528974" lon="12.39589488195599"><ele>67.80000000000001</ele><time>2026-03-29T13:27:51.001Z</time></trkpt><trkpt lat="45.95050534063618" lon="12.396049502956346"><ele>67.4</ele><time>2026-03-29T13:27:52.001Z</time></trkpt><trkpt lat="45.95049842718726" lon="12.396207620380308"><ele>67.0</ele><time>2026-03-29T13:27:53.001Z</time></trkpt><trkpt lat="45.95048655158544" lon="12.396362805453084"><ele>66.66666666666666</ele><time>2026-03-29T13:27:54.001Z</time></trkpt><trkpt lat="45.95047257596501" lon="12.39650829853656"><ele>66.33333333333333</ele><time>2026-03-29T13:27:55.001Z</time></trkpt><trkpt lat="45.95045752907316" lon="12.396636227541764"><ele>66.0</ele><time>2026-03-29T13:27:56.001Z</time></trkpt><trkpt lat="45.95044400419172" lon="12.396733365277116"><ele>65.66666666666667</ele><time>2026-03-29T13:27:57.001Z</time></trkpt><trkpt lat="45.95041437871928" lon="12.396843221714612"><ele>65.33333333333334</ele><time>2026-03-29T13:27:59.001Z</time></trkpt><trkpt lat="45.950405978517985" lon="12.396958289014592"><ele>65.0</ele><time>2026-03-29T13:31:14.001Z</time></trkpt><trkpt lat="45.950402668632904" lon="12.397112790950905"><ele>65.4</ele><time>2026-03-29T13:31:16.001Z</time></trkpt><trkpt lat="45.9503923302317" lon="12.39722754793028"><ele>65.8</ele><time>2026-03-29T13:31:17.001Z</time></trkpt><trkpt lat="45.950387021913464" lon="12.397360829133532"><ele>66.2</ele><time>2026-03-29T13:31:18.001Z</time></trkpt><trkpt lat="45.95038007467532" lon="12.39749151622922"><ele>66.6</ele><time>2026-03-29T13:31:19.001Z</time></trkpt><trkpt lat="45.950372840387516" lon="12.39764372447926"><ele>67.0</ele><time>2026-03-29T13:31:20.001Z</time></trkpt><trkpt lat="45.95036563785424" lon="12.39779868456634"><ele>67.0</ele><time>2026-03-29T13:31:21.001Z</time></trkpt><trkpt lat="45.950359305868524" lon="12.3979647446978"><ele>67.0</ele><time>2026-03-29T13:31:22.001Z</time></trkpt><trkpt lat="45.95035200211453" lon="12.398143135207794"><ele>67.0</ele><time>2026-03-29T13:31:23.001Z</time></trkpt><trkpt lat="45.950335747179416" lon="12.398332875244952"><ele>67.0</ele><time>2026-03-29T13:31:24.001Z</time></trkpt><trkpt lat="45.9503196043861" lon="12.398530949723154"><ele>67.0</ele><time>2026-03-29T13:31:25.001Z</time></trkpt><trkpt lat="45.95030580956846" lon="12.398739885550013"><ele>67.0</ele><time>2026-03-29T13:31:26.001Z</time></trkpt><trkpt lat="45.9502912248861" lon="12.398953839227904"><ele>67.0</ele><time>2026-03-29T13:31:27.001Z</time></trkpt><trkpt lat="45.95027983254819" lon="12.399172099720564"><ele>67.0</ele><time>2026-03-29T13:31:28.001Z</time></trkpt><trkpt lat="45.95026625501712" lon="12.399396873389325"><ele>65.66666666666666</ele><time>2026-03-29T13:31:29.001Z</time></trkpt><trkpt lat="45.9502504739047" lon="12.399628688810989"><ele>64.33333333333333</ele><time>2026-03-29T13:31:30.001Z</time></trkpt><trkpt lat="45.950234757439155" lon="12.399866414512044"><ele>63.0</ele><time>2026-03-29T13:31:31.001Z</time></trkpt><trkpt lat="45.95021985607417" lon="12.400107671284067"><ele>63.0</ele><time>2026-03-29T13:31:32.001Z</time></trkpt><trkpt lat="45.950201587361505" lon="12.400351730368037"><ele>63.0</ele><time>2026-03-29T13:31:33.001Z</time></trkpt><trkpt lat="45.95018621472021" lon="12.400591888974319"><ele>63.0</ele><time>2026-03-29T13:31:34.001Z</time></trkpt><trkpt lat="45.9501708940197" lon="12.400831707136602"><ele>63.0</ele><time>2026-03-29T13:31:35.001Z</time></trkpt><trkpt lat="45.95015371455175" lon="12.401073398261376"><ele>63.0</ele><time>2026-03-29T13:31:36.001Z</time></trkpt><trkpt lat="45.950137901333285" lon="12.401313856801245"><ele>63.0</ele><time>2026-03-29T13:31:37.001Z</time></trkpt><trkpt lat="45.950123355700036" lon="12.401549081399821"><ele>63.33333333333333</ele><time>2026-03-29T13:31:38.001Z</time></trkpt><trkpt lat="45.95010292246827" lon="12.401778553153628"><ele>63.666666666666664</ele><time>2026-03-29T13:31:39.001Z</time></trkpt><trkpt lat="45.950077040596945" lon="12.402008691629524"><ele>64.0</ele><time>2026-03-29T13:31:40.001Z</time></trkpt><trkpt lat="45.95004347727347" lon="12.402237404072444"><ele>63.33333333333333</ele><time>2026-03-29T13:31:41.001Z</time></trkpt><trkpt lat="45.95000246702906" lon="12.402468092279493"><ele>62.66666666666667</ele><time>2026-03-29T13:31:42.001Z</time></trkpt><trkpt lat="45.949953905006396" lon="12.402697965984956"><ele>62.0</ele><time>2026-03-29T13:31:43.001Z</time></trkpt><trkpt lat="45.94989246967649" lon="12.402922569290734"><ele>61.66666666666667</ele><time>2026-03-29T13:31:44.001Z</time></trkpt><trkpt lat="45.94982698637214" lon="12.403149200243204"><ele>61.33333333333333</ele><time>2026-03-29T13:31:45.001Z</time></trkpt><trkpt lat="45.94974934792445" lon="12.403372103505827"><ele>61.0</ele><time>2026-03-29T13:31:46.001Z</time></trkpt><trkpt lat="45.949672543696856" lon="12.403594896690306"><ele>61.0</ele><time>2026-03-29T13:31:47.001Z</time></trkpt><trkpt lat="45.94959577134231" lon="12.403820603015998"><ele>61.0</ele><time>2026-03-29T13:31:48.001Z</time></trkpt><trkpt lat="45.949514285037125" lon="12.404047946730088"><ele>61.0</ele><time>2026-03-29T13:31:49.001Z</time></trkpt><trkpt lat="45.949434200273" lon="12.40427413695234"><ele>61.0</ele><time>2026-03-29T13:31:50.001Z</time></trkpt><trkpt lat="45.9493509376765" lon="12.40450036740273"><ele>61.0</ele><time>2026-03-29T13:31:51.001Z</time></trkpt><trkpt lat="45.949265803353384" lon="12.404724433387472"><ele>61.0</ele><time>2026-03-29T13:31:52.001Z</time></trkpt><trkpt lat="45.94917976497601" lon="12.404950441840857"><ele>61.0</ele><time>2026-03-29T13:31:53.001Z</time></trkpt><trkpt lat="45.949093643769054" lon="12.405182147625927"><ele>61.0</ele><time>2026-03-29T13:31:54.001Z</time></trkpt><trkpt lat="45.94900584932109" lon="12.405415205686655"><ele>61.0</ele><time>2026-03-29T13:31:55.001Z</time></trkpt><trkpt lat="45.94891656564651" lon="12.405651055410537"><ele>61.0</ele><time>2026-03-29T13:31:56.001Z</time></trkpt><trkpt lat="45.9488266806484" lon="12.405889229623146"><ele>61.0</ele><time>2026-03-29T13:31:57.001Z</time></trkpt><trkpt lat="45.948736454901145" lon="12.406126272679101"><ele>61.0</ele><time>2026-03-29T13:31:58.001Z</time></trkpt><trkpt lat="45.948645286972635" lon="12.406366411265818"><ele>61.0</ele><time>2026-03-29T13:31:59.001Z</time></trkpt><trkpt lat="45.948552116213975" lon="12.406605505815767"><ele>61.0</ele><time>2026-03-29T13:32:00.001Z</time></trkpt><trkpt lat="45.94846002073307" lon="12.40684678109821"><ele>61.0</ele><time>2026-03-29T13:32:01.001Z</time></trkpt><trkpt lat="45.94836869339087" lon="12.407088664467151"><ele>59.33333333333333</ele><time>2026-03-29T13:32:02.001Z</time></trkpt><trkpt lat="45.948277399948054" lon="12.4073322575508"><ele>57.66666666666667</ele><time>2026-03-29T13:32:03.001Z</time></trkpt><trkpt lat="45.948189415050706" lon="12.407576871177325"><ele>56.0</ele><time>2026-03-29T13:32:04.001Z</time></trkpt><trkpt lat="45.94809923074923" lon="12.407821956135326"><ele>56.0</ele><time>2026-03-29T13:32:05.001Z</time></trkpt><trkpt lat="45.948009139427334" lon="12.408070166918584"><ele>56.0</ele><time>2026-03-29T13:32:06.001Z</time></trkpt><trkpt lat="45.94791727384214" lon="12.40831739313531"><ele>56.0</ele><time>2026-03-29T13:32:07.001Z</time></trkpt><trkpt lat="45.94782681132762" lon="12.408567116560778"><ele>56.0</ele><time>2026-03-29T13:32:08.001Z</time></trkpt><trkpt lat="45.947738542841726" lon="12.4088189470453"><ele>56.0</ele><time>2026-03-29T13:32:09.001Z</time></trkpt><trkpt lat="45.94764736994511" lon="12.409072910339086"><ele>56.0</ele><time>2026-03-29T13:32:10.001Z</time></trkpt><trkpt lat="45.94755592769764" lon="12.40932466858293"><ele>56.333333333333336</ele><time>2026-03-29T13:32:11.001Z</time></trkpt><trkpt lat="45.947462964198365" lon="12.409576052784816"><ele>56.66666666666667</ele><time>2026-03-29T13:32:12.001Z</time></trkpt><trkpt lat="45.947369512026995" lon="12.409833280990714"><ele>57.0</ele><time>2026-03-29T13:32:13.001Z</time></trkpt><trkpt lat="45.94727315059598" lon="12.410090343285272"><ele>57.66666666666667</ele><time>2026-03-29T13:32:14.001Z</time></trkpt><trkpt lat="45.94717656826804" lon="12.410347962849901"><ele>58.333333333333336</ele><time>2026-03-29T13:32:15.002Z</time></trkpt><trkpt lat="45.94707929630699" lon="12.410607242720499"><ele>59.0</ele><time>2026-03-29T13:32:16.002Z</time></trkpt><trkpt lat="45.94698230775548" lon="12.41086621994434"><ele>59.0</ele><time>2026-03-29T13:32:17.002Z</time></trkpt><trkpt lat="45.94688456908455" lon="12.411126618578765"><ele>59.0</ele><time>2026-03-29T13:32:18.002Z</time></trkpt><trkpt lat="45.946786814940936" lon="12.4113872718138"><ele>59.0</ele><time>2026-03-29T13:32:19.002Z</time></trkpt><trkpt lat="45.946690459761165" lon="12.411648512762309"><ele>58.333333333333336</ele><time>2026-03-29T13:32:20.002Z</time></trkpt><trkpt lat="45.94659389934889" lon="12.411911497417734"><ele>57.66666666666667</ele><time>2026-03-29T13:32:21.002Z</time></trkpt><trkpt lat="45.94649856141517" lon="12.412175660941008"><ele>57.0</ele><time>2026-03-29T13:32:22.002Z</time></trkpt><trkpt lat="45.946403575082506" lon="12.412438613745426"><ele>57.0</ele><time>2026-03-29T13:32:23.002Z</time></trkpt><trkpt lat="45.94631170835722" lon="12.41269054303232"><ele>57.0</ele><time>2026-03-29T13:32:24.002Z</time></trkpt><trkpt lat="45.94622098332946" lon="12.412928101737306"><ele>57.0</ele><time>2026-03-29T13:32:25.002Z</time></trkpt><trkpt lat="45.946133891054934" lon="12.413150066338316"><ele>57.0</ele><time>2026-03-29T13:32:26.002Z</time></trkpt><trkpt lat="45.94605175159911" lon="12.413364243803569"><ele>57.0</ele><time>2026-03-29T13:32:27.002Z</time></trkpt><trkpt lat="45.94597926818294" lon="12.413569899956885"><ele>57.0</ele><time>2026-03-29T13:32:28.002Z</time></trkpt><trkpt lat="45.945911229364555" lon="12.413765074166493"><ele>57.0</ele><time>2026-03-29T13:32:29.002Z</time></trkpt><trkpt lat="45.94584840005069" lon="12.413959015331697"><ele>57.0</ele><time>2026-03-29T13:32:30.002Z</time></trkpt><trkpt lat="45.94578777709987" lon="12.414154999467401"><ele>57.0</ele><time>2026-03-29T13:32:31.002Z</time></trkpt><trkpt lat="45.94573036746276" lon="12.414356417444083"><ele>57.0</ele><time>2026-03-29T13:32:32.002Z</time></trkpt><trkpt lat="45.945674276403714" lon="12.414563169484351"><ele>57.0</ele><time>2026-03-29T13:32:33.002Z</time></trkpt><trkpt lat="45.945618576314736" lon="12.41478703940693"><ele>57.0</ele><time>2026-03-29T13:32:34.002Z</time></trkpt><trkpt lat="45.945568988718435" lon="12.415015237689294"><ele>57.0</ele><time>2026-03-29T13:32:35.002Z</time></trkpt><trkpt lat="45.94553133511502" lon="12.415235044519342"><ele>57.0</ele><time>2026-03-29T13:32:36.002Z</time></trkpt><trkpt lat="45.94549769286469" lon="12.415446041282525"><ele>57.0</ele><time>2026-03-29T13:32:37.002Z</time></trkpt><trkpt lat="45.94547111059379" lon="12.415644252594799"><ele>57.0</ele><time>2026-03-29T13:32:38.002Z</time></trkpt><trkpt lat="45.945439328299145" lon="12.415827280722645"><ele>57.0</ele><time>2026-03-29T13:32:39.002Z</time></trkpt><trkpt lat="45.945405649506505" lon="12.41598656785205"><ele>57.0</ele><time>2026-03-29T13:32:40.002Z</time></trkpt><trkpt lat="45.94535941918703" lon="12.41612161767287"><ele>57.0</ele><time>2026-03-29T13:32:41.002Z</time></trkpt><trkpt lat="45.94530256066857" lon="12.416239891362327"><ele>57.0</ele><time>2026-03-29T13:32:42.002Z</time></trkpt><trkpt lat="45.945241075612614" lon="12.416354249097951"><ele>57.0</ele><time>2026-03-29T13:32:43.002Z</time></trkpt><trkpt lat="45.94520378132576" lon="12.416461592519248"><ele>57.0</ele><time>2026-03-29T13:32:44.002Z</time></trkpt><trkpt lat="45.945200823624276" lon="12.416584180061971"><ele>57.0</ele><time>2026-03-29T13:32:45.002Z</time></trkpt><trkpt lat="45.94522847995243" lon="12.416701748715333"><ele>57.0</ele><time>2026-03-29T13:32:46.002Z</time></trkpt><trkpt lat="45.94528142302988" lon="12.416815645662174"><ele>57.0</ele><time>2026-03-29T13:32:47.002Z</time></trkpt><trkpt lat="45.94534093471855" lon="12.4169291437603"><ele>57.0</ele><time>2026-03-29T13:32:48.002Z</time></trkpt><trkpt lat="45.94537629887347" lon="12.417065847623725"><ele>57.0</ele><time>2026-03-29T13:32:49.002Z</time></trkpt><trkpt lat="45.94539288919631" lon="12.417227184292408"><ele>57.0</ele><time>2026-03-29T13:32:50.002Z</time></trkpt><trkpt lat="45.94540770159655" lon="12.417405031607114"><ele>57.0</ele><time>2026-03-29T13:32:51.002Z</time></trkpt><trkpt lat="45.94542657818393" lon="12.417595031210606"><ele>57.0</ele><time>2026-03-29T13:32:52.002Z</time></trkpt><trkpt lat="45.94544526541871" lon="12.417794855906871"><ele>57.0</ele><time>2026-03-29T13:32:53.002Z</time></trkpt><trkpt lat="45.94545941174177" lon="12.418006305806324"><ele>55.66666666666667</ele><time>2026-03-29T13:32:54.002Z</time></trkpt><trkpt lat="45.94547506669076" lon="12.418226355409507"><ele>54.333333333333336</ele><time>2026-03-29T13:32:55.002Z</time></trkpt><trkpt lat="45.94549328791677" lon="12.418454059498835"><ele>53.0</ele><time>2026-03-29T13:32:56.002Z</time></trkpt><trkpt lat="45.94551100085372" lon="12.418688130562819"><ele>52.66666666666667</ele><time>2026-03-29T13:32:57.002Z</time></trkpt><trkpt lat="45.94552987527481" lon="12.418931633649516"><ele>52.33333333333333</ele><time>2026-03-29T13:32:58.002Z</time></trkpt><trkpt lat="45.94554795733837" lon="12.419165273486566"><ele>52.0</ele><time>2026-03-29T13:32:59.002Z</time></trkpt><trkpt lat="45.94556492620476" lon="12.419392451499387"><ele>52.0</ele><time>2026-03-29T13:33:00.002Z</time></trkpt><trkpt lat="45.9455800259295" lon="12.419621518343636"><ele>52.0</ele><time>2026-03-29T13:33:01.002Z</time></trkpt><trkpt lat="45.94559336640597" lon="12.419837975431607"><ele>52.0</ele><time>2026-03-29T13:33:02.002Z</time></trkpt><trkpt lat="45.9456058009138" lon="12.420045075136306"><ele>51.75</ele><time>2026-03-29T13:33:03.001Z</time></trkpt><trkpt lat="45.94562028706461" lon="12.420248006069928"><ele>51.5</ele><time>2026-03-29T13:33:04.001Z</time></trkpt><trkpt lat="45.945632321445245" lon="12.420450680803915"><ele>51.25</ele><time>2026-03-29T13:33:05.001Z</time></trkpt><trkpt lat="45.94564414173847" lon="12.420657275692335"><ele>51.0</ele><time>2026-03-29T13:33:06.001Z</time></trkpt><trkpt lat="45.945660607342326" lon="12.420862697662358"><ele>51.0</ele><time>2026-03-29T13:33:07.001Z</time></trkpt><trkpt lat="45.94567692149426" lon="12.421073038561097"><ele>51.0</ele><time>2026-03-29T13:33:08.001Z</time></trkpt><trkpt lat="45.94568979888455" lon="12.421283555856757"><ele>51.0</ele><time>2026-03-29T13:33:09.001Z</time></trkpt><trkpt lat="45.94569641404145" lon="12.421496347283762"><ele>51.0</ele><time>2026-03-29T13:33:10.001Z</time></trkpt><trkpt lat="45.94569691759784" lon="12.421709316954743"><ele>51.0</ele><time>2026-03-29T13:33:11.001Z</time></trkpt><trkpt lat="45.94568693722842" lon="12.421920444647807"><ele>51.0</ele><time>2026-03-29T13:33:12.001Z</time></trkpt><trkpt lat="45.94567207807527" lon="12.422128812384171"><ele>51.0</ele><time>2026-03-29T13:33:13.001Z</time></trkpt><trkpt lat="45.94565120714699" lon="12.422336693928422"><ele>51.0</ele><time>2026-03-29T13:33:14.001Z</time></trkpt><trkpt lat="45.945620430884006" lon="12.422543539560476"><ele>51.0</ele><time>2026-03-29T13:33:15Z</time></trkpt><trkpt lat="45.94558468270797" lon="12.422748923919631"><ele>51.0</ele><time>2026-03-29T13:33:16Z</time></trkpt><trkpt lat="45.945550370151715" lon="12.422955638806233"><ele>51.0</ele><time>2026-03-29T13:33:17Z</time></trkpt><trkpt lat="45.94551995390981" lon="12.423167203782409"><ele>51.0</ele><time>2026-03-29T13:33:18Z</time></trkpt><trkpt lat="45.945494272879266" lon="12.423380218136467"><ele>51.0</ele><time>2026-03-29T13:33:19Z</time></trkpt><trkpt lat="45.945474762716714" lon="12.42359843560063"><ele>51.0</ele><time>2026-03-29T13:33:20Z</time></trkpt><trkpt lat="45.945458784112695" lon="12.423818439291603"><ele>51.0</ele><time>2026-03-29T13:33:21Z</time></trkpt><trkpt lat="45.945451141412875" lon="12.424042670339148"><ele>51.0</ele><time>2026-03-29T13:33:22Z</time></trkpt><trkpt lat="45.94544495414737" lon="12.4242675923008"><ele>51.0</ele><time>2026-03-29T13:33:23Z</time></trkpt><trkpt lat="45.94543947221802" lon="12.424493545226303"><ele>51.0</ele><time>2026-03-29T13:33:24Z</time></trkpt><trkpt lat="45.945431643334224" lon="12.424724084821575"><ele>51.0</ele><time>2026-03-29T13:33:25Z</time></trkpt><trkpt lat="45.94542729519061" lon="12.424957290382608"><ele>51.0</ele><time>2026-03-29T13:33:26Z</time></trkpt><trkpt lat="45.94541740757135" lon="12.425191970569324"><ele>51.0</ele><time>2026-03-29T13:33:27Z</time></trkpt><trkpt lat="45.94540703987258" lon="12.425430732527854"><ele>51.0</ele><time>2026-03-29T13:33:28Z</time></trkpt><trkpt lat="45.94540000702146" lon="12.425670902666816"><ele>51.0</ele><time>2026-03-29T13:33:29Z</time></trkpt><trkpt lat="45.94539999555257" lon="12.42590256370845"><ele>51.0</ele><time>2026-03-29T13:33:30Z</time></trkpt><trkpt lat="45.94539180492199" lon="12.426148291447774"><ele>50.66666666666667</ele><time>2026-03-29T13:33:31Z</time></trkpt><trkpt lat="45.945382298644965" lon="12.426396962522666"><ele>50.333333333333336</ele><time>2026-03-29T13:33:32Z</time></trkpt><trkpt lat="45.945375419097566" lon="12.42664460976356"><ele>50.0</ele><time>2026-03-29T13:33:33Z</time></trkpt><trkpt lat="45.945365236975334" lon="12.426890801453315"><ele>50.0</ele><time>2026-03-29T13:33:34Z</time></trkpt><trkpt lat="45.94535879123157" lon="12.427130668164454"><ele>50.0</ele><time>2026-03-29T13:33:35Z</time></trkpt><trkpt lat="45.945354761693885" lon="12.427357491829923"><ele>50.0</ele><time>2026-03-29T13:33:36Z</time></trkpt><trkpt lat="45.945353595604004" lon="12.427577693227143"><ele>49.66666666666667</ele><time>2026-03-29T13:33:37Z</time></trkpt><trkpt lat="45.94535256218899" lon="12.427796215822662"><ele>49.33333333333333</ele><time>2026-03-29T13:33:38Z</time></trkpt><trkpt lat="45.94535306165228" lon="12.428015524500337"><ele>49.0</ele><time>2026-03-29T13:33:39.001Z</time></trkpt><trkpt lat="45.945355838403856" lon="12.428224667373856"><ele>49.0</ele><time>2026-03-29T13:33:40.001Z</time></trkpt><trkpt lat="45.9453628668188" lon="12.428422729740742"><ele>49.0</ele><time>2026-03-29T13:33:41.001Z</time></trkpt><trkpt lat="45.945371370388344" lon="12.428613069465579"><ele>49.0</ele><time>2026-03-29T13:33:42.001Z</time></trkpt><trkpt lat="45.94538355053352" lon="12.428810323993483"><ele>49.0</ele><time>2026-03-29T13:33:43.001Z</time></trkpt><trkpt lat="45.945395927465356" lon="12.429011869416255"><ele>49.0</ele><time>2026-03-29T13:33:44.001Z</time></trkpt><trkpt lat="45.945406913177266" lon="12.429215248799728"><ele>49.0</ele><time>2026-03-29T13:33:45.001Z</time></trkpt><trkpt lat="45.94542178972105" lon="12.429420495239194"><ele>49.0</ele><time>2026-03-29T13:33:46.001Z</time></trkpt><trkpt lat="45.94543964234084" lon="12.429628633367932"><ele>49.0</ele><time>2026-03-29T13:33:47.001Z</time></trkpt><trkpt lat="45.94544856418936" lon="12.429838922920231"><ele>49.0</ele><time>2026-03-29T13:33:48.001Z</time></trkpt><trkpt lat="45.94544817588262" lon="12.430044248291733"><ele>49.0</ele><time>2026-03-29T13:33:49.001Z</time></trkpt><trkpt lat="45.94543587235885" lon="12.430250887521504"><ele>49.0</ele><time>2026-03-29T13:33:50.001Z</time></trkpt><trkpt lat="45.9454151374929" lon="12.430462398774146"><ele>49.0</ele><time>2026-03-29T13:33:51.001Z</time></trkpt><trkpt lat="45.94538617422412" lon="12.43067375133813"><ele>48.75</ele><time>2026-03-29T13:33:52.001Z</time></trkpt><trkpt lat="45.94535130692367" lon="12.430877862204396"><ele>48.5</ele><time>2026-03-29T13:33:53.001Z</time></trkpt><trkpt lat="45.94531229908789" lon="12.431068133936899"><ele>48.25</ele><time>2026-03-29T13:33:54.001Z</time></trkpt><trkpt lat="45.94527057830812" lon="12.431248427880433"><ele>48.0</ele><time>2026-03-29T13:33:55.001Z</time></trkpt><trkpt lat="45.945232155683186" lon="12.431425175299214"><ele>47.75</ele><time>2026-03-29T13:33:56.001Z</time></trkpt><trkpt lat="45.94519140045477" lon="12.431597431070587"><ele>47.5</ele><time>2026-03-29T13:33:57.001Z</time></trkpt><trkpt lat="45.945147990086" lon="12.43176861315316"><ele>47.25</ele><time>2026-03-29T13:33:58.001Z</time></trkpt><trkpt lat="45.945106989755025" lon="12.431943382381474"><ele>47.0</ele><time>2026-03-29T13:33:59.001Z</time></trkpt><trkpt lat="45.94506649086333" lon="12.432120741550806"><ele>46.75</ele><time>2026-03-29T13:34:00.001Z</time></trkpt><trkpt lat="45.94502470647545" lon="12.432298915023933"><ele>46.5</ele><time>2026-03-29T13:34:01.001Z</time></trkpt><trkpt lat="45.94497846545022" lon="12.432482469710331"><ele>46.25</ele><time>2026-03-29T13:34:02.001Z</time></trkpt><trkpt lat="45.94493141546368" lon="12.43266577078886"><ele>46.0</ele><time>2026-03-29T13:34:03.001Z</time></trkpt><trkpt lat="45.94488552962869" lon="12.432848598508945"><ele>46.0</ele><time>2026-03-29T13:34:04.001Z</time></trkpt><trkpt lat="45.944842520013445" lon="12.433033140970538"><ele>46.0</ele><time>2026-03-29T13:34:05.001Z</time></trkpt><trkpt lat="45.944798336488425" lon="12.433217399449447"><ele>46.0</ele><time>2026-03-29T13:34:06.001Z</time></trkpt><trkpt lat="45.9447531436184" lon="12.433400290937568"><ele>46.0</ele><time>2026-03-29T13:34:07.001Z</time></trkpt><trkpt lat="45.94471187161147" lon="12.433587102792533"><ele>46.0</ele><time>2026-03-29T13:34:08.001Z</time></trkpt><trkpt lat="45.94466653295411" lon="12.433774349984422"><ele>46.0</ele><time>2026-03-29T13:34:09.001Z</time></trkpt><trkpt lat="45.94461836497489" lon="12.433965662414831"><ele>46.0</ele><time>2026-03-29T13:34:10.001Z</time></trkpt><trkpt lat="45.94457180602449" lon="12.434160139478827"><ele>46.0</ele><time>2026-03-29T13:34:11.001Z</time></trkpt><trkpt lat="45.94452832991971" lon="12.434359799144238"><ele>46.0</ele><time>2026-03-29T13:34:12.001Z</time></trkpt><trkpt lat="45.94448641640126" lon="12.434562210240268"><ele>46.0</ele><time>2026-03-29T13:34:13.001Z</time></trkpt><trkpt lat="45.94445020712727" lon="12.434768642792617"><ele>46.0</ele><time>2026-03-29T13:34:14.001Z</time></trkpt><trkpt lat="45.94442342520553" lon="12.434977348888669"><ele>46.0</ele><time>2026-03-29T13:34:15.001Z</time></trkpt><trkpt lat="45.94440249356049" lon="12.435180051531729"><ele>46.0</ele><time>2026-03-29T13:34:16.001Z</time></trkpt><trkpt lat="45.944392324840805" lon="12.43537812507842"><ele>46.0</ele><time>2026-03-29T13:34:17.001Z</time></trkpt><trkpt lat="45.94439206737817" lon="12.435570550975557"><ele>46.0</ele><time>2026-03-29T13:34:18.001Z</time></trkpt><trkpt lat="45.944397068796604" lon="12.435756937960015"><ele>46.0</ele><time>2026-03-29T13:34:19.001Z</time></trkpt><trkpt lat="45.944410180493335" lon="12.43594337107069"><ele>45.75</ele><time>2026-03-29T13:34:20.001Z</time></trkpt><trkpt lat="45.944426260420286" lon="12.436134325687862"><ele>45.5</ele><time>2026-03-29T13:34:21.001Z</time></trkpt><trkpt lat="45.94445730957833" lon="12.436325861194366"><ele>45.25</ele><time>2026-03-29T13:34:22.001Z</time></trkpt><trkpt lat="45.944490504942415" lon="12.436520833623808"><ele>45.0</ele><time>2026-03-29T13:34:23.001Z</time></trkpt><trkpt lat="45.9445215188965" lon="12.436720654168173"><ele>45.0</ele><time>2026-03-29T13:34:24.001Z</time></trkpt><trkpt lat="45.944551359233714" lon="12.43691980495428"><ele>45.0</ele><time>2026-03-29T13:34:25.001Z</time></trkpt><trkpt lat="45.944583550998246" lon="12.437120989654993"><ele>45.0</ele><time>2026-03-29T13:34:26.001Z</time></trkpt><trkpt lat="45.94461648849066" lon="12.437322201279473"><ele>45.0</ele><time>2026-03-29T13:34:27.001Z</time></trkpt><trkpt lat="45.94465100415703" lon="12.437509809217723"><ele>45.25</ele><time>2026-03-29T13:34:28.001Z</time></trkpt><trkpt lat="45.944683360890764" lon="12.437690223985646"><ele>45.5</ele><time>2026-03-29T13:34:29.001Z</time></trkpt><trkpt lat="45.944709942012096" lon="12.437863891019822"><ele>45.75</ele><time>2026-03-29T13:34:30.001Z</time></trkpt><trkpt lat="45.944733877976475" lon="12.438032912009739"><ele>46.0</ele><time>2026-03-29T13:34:31.001Z</time></trkpt><trkpt lat="45.94476182393355" lon="12.438203687889445"><ele>46.0</ele><time>2026-03-29T13:34:32.001Z</time></trkpt><trkpt lat="45.944787816848745" lon="12.438375765455719"><ele>46.0</ele><time>2026-03-29T13:34:33.001Z</time></trkpt><trkpt lat="45.944812652422954" lon="12.43855232543294"><ele>46.0</ele><time>2026-03-29T13:34:34.001Z</time></trkpt><trkpt lat="45.94483587688037" lon="12.438729171400224"><ele>46.0</ele><time>2026-03-29T13:34:35.001Z</time></trkpt><trkpt lat="45.94485468674464" lon="12.43890742383646"><ele>46.0</ele><time>2026-03-29T13:34:36.001Z</time></trkpt><trkpt lat="45.944875365838655" lon="12.439090365374811"><ele>46.0</ele><time>2026-03-29T13:34:37.001Z</time></trkpt><trkpt lat="45.94489902855257" lon="12.439275639895204"><ele>46.0</ele><time>2026-03-29T13:34:38.001Z</time></trkpt><trkpt lat="45.944920734088555" lon="12.43946313129878"><ele>46.0</ele><time>2026-03-29T13:34:39.001Z</time></trkpt><trkpt lat="45.944932873140196" lon="12.43965873176466"><ele>45.75</ele><time>2026-03-29T13:34:40.001Z</time></trkpt><trkpt lat="45.94493423765856" lon="12.439856968497422"><ele>45.5</ele><time>2026-03-29T13:34:41.001Z</time></trkpt><trkpt lat="45.944924694526996" lon="12.440057914123162"><ele>45.25</ele><time>2026-03-29T13:34:42.001Z</time></trkpt><trkpt lat="45.944902150294084" lon="12.440259978538721"><ele>45.0</ele><time>2026-03-29T13:34:43.001Z</time></trkpt><trkpt lat="45.94487013535066" lon="12.440471887483865"><ele>45.0</ele><time>2026-03-29T13:34:44.001Z</time></trkpt><trkpt lat="45.9448330777115" lon="12.440701209002265"><ele>45.0</ele><time>2026-03-29T13:34:45.001Z</time></trkpt><trkpt lat="45.94479985354632" lon="12.44094926910135"><ele>45.0</ele><time>2026-03-29T13:34:46.001Z</time></trkpt><trkpt lat="45.944774005275384" lon="12.441213525185614"><ele>45.0</ele><time>2026-03-29T13:34:47.001Z</time></trkpt><trkpt lat="45.9447561746638" lon="12.44146986849541"><ele>45.0</ele><time>2026-03-29T13:34:48.001Z</time></trkpt><trkpt lat="45.94474237873627" lon="12.441730537061284"><ele>45.0</ele><time>2026-03-29T13:34:49.001Z</time></trkpt><trkpt lat="45.944733202535474" lon="12.441981003809932"><ele>44.666666666666664</ele><time>2026-03-29T13:34:50.001Z</time></trkpt><trkpt lat="45.94472099766237" lon="12.442220937249708"><ele>44.33333333333333</ele><time>2026-03-29T13:34:51.001Z</time></trkpt><trkpt lat="45.9447063021299" lon="12.442460394633713"><ele>44.0</ele><time>2026-03-29T13:34:52.001Z</time></trkpt><trkpt lat="45.94468721481751" lon="12.442701943465343"><ele>44.0</ele><time>2026-03-29T13:34:53.001Z</time></trkpt><trkpt lat="45.9446734803426" lon="12.442947621882048"><ele>44.0</ele><time>2026-03-29T13:34:54.001Z</time></trkpt><trkpt lat="45.94465792389903" lon="12.443191952093521"><ele>44.0</ele><time>2026-03-29T13:34:55.001Z</time></trkpt><trkpt lat="45.94464241694152" lon="12.443427386159891"><ele>43.666666666666664</ele><time>2026-03-29T13:34:56.001Z</time></trkpt><trkpt lat="45.94462366088532" lon="12.44366095708291"><ele>43.333333333333336</ele><time>2026-03-29T13:34:57.001Z</time></trkpt><trkpt lat="45.944600815462984" lon="12.443899957012126"><ele>43.0</ele><time>2026-03-29T13:34:58.001Z</time></trkpt><trkpt lat="45.94456730731576" lon="12.444138107841157"><ele>43.0</ele><time>2026-03-29T13:34:59.001Z</time></trkpt><trkpt lat="45.944524361511384" lon="12.44438394257409"><ele>43.0</ele><time>2026-03-29T13:35:00.001Z</time></trkpt><trkpt lat="45.94447713452454" lon="12.444628424910459"><ele>43.0</ele><time>2026-03-29T13:35:01.001Z</time></trkpt><trkpt lat="45.944430453111245" lon="12.444858825764513"><ele>43.0</ele><time>2026-03-29T13:35:02.001Z</time></trkpt><trkpt lat="45.94438140495763" lon="12.445078679849948"><ele>43.0</ele><time>2026-03-29T13:35:03.001Z</time></trkpt><trkpt lat="45.94432932942183" lon="12.445286555828343"><ele>43.0</ele><time>2026-03-29T13:35:04.001Z</time></trkpt><trkpt lat="45.944274938456196" lon="12.445485009475021"><ele>43.0</ele><time>2026-03-29T13:35:05.001Z</time></trkpt><trkpt lat="45.94421968194995" lon="12.445675676616954"><ele>43.0</ele><time>2026-03-29T13:35:06.001Z</time></trkpt><trkpt lat="45.94416698702575" lon="12.445862279283494"><ele>43.0</ele><time>2026-03-29T13:35:07.001Z</time></trkpt><trkpt lat="45.94411956767275" lon="12.446054301362684"><ele>43.0</ele><time>2026-03-29T13:35:08.001Z</time></trkpt><trkpt lat="45.944072169881" lon="12.446248006049853"><ele>42.5</ele><time>2026-03-29T13:35:09Z</time></trkpt><trkpt lat="45.94402084767686" lon="12.446445402257135"><ele>42.0</ele><time>2026-03-29T13:35:10Z</time></trkpt><trkpt lat="45.943970400610056" lon="12.44664278319265"><ele>41.5</ele><time>2026-03-29T13:35:11Z</time></trkpt><trkpt lat="45.94392290916415" lon="12.446832864949853"><ele>41.0</ele><time>2026-03-29T13:35:12Z</time></trkpt><trkpt lat="45.94388129739537" lon="12.447011534950025"><ele>40.75</ele><time>2026-03-29T13:35:13Z</time></trkpt><trkpt lat="45.943844654724515" lon="12.44718338755295"><ele>40.5</ele><time>2026-03-29T13:35:14Z</time></trkpt><trkpt lat="45.94381385625757" lon="12.447343718035281"><ele>40.25</ele><time>2026-03-29T13:35:15Z</time></trkpt><trkpt lat="45.94379098931072" lon="12.447500532467576"><ele>40.0</ele><time>2026-03-29T13:35:16Z</time></trkpt><trkpt lat="45.943789495161234" lon="12.447649415317946"><ele>40.0</ele><time>2026-03-29T13:35:17Z</time></trkpt><trkpt lat="45.943809881217405" lon="12.447786369806161"><ele>40.0</ele><time>2026-03-29T13:35:18Z</time></trkpt><trkpt lat="45.94385045678372" lon="12.447913944243437"><ele>40.0</ele><time>2026-03-29T13:35:19Z</time></trkpt><trkpt lat="45.94391148238076" lon="12.448031060410589"><ele>40.0</ele><time>2026-03-29T13:35:20Z</time></trkpt><trkpt lat="45.94399081672287" lon="12.44812831841266"><ele>40.0</ele><time>2026-03-29T13:35:21Z</time></trkpt><trkpt lat="45.94405799123376" lon="12.44822386344759"><ele>40.0</ele><time>2026-03-29T13:35:22Z</time></trkpt><trkpt lat="45.944090344839" lon="12.448340766023646"><ele>40.0</ele><time>2026-03-29T13:35:23Z</time></trkpt><trkpt lat="45.94408672221072" lon="12.448456576042384"><ele>40.0</ele><time>2026-03-29T13:35:24Z</time></trkpt><trkpt lat="45.944050971114855" lon="12.448550023047646"><ele>40.0</ele><time>2026-03-29T13:35:25Z</time></trkpt><trkpt lat="45.94399781203017" lon="12.448617991793192"><ele>40.0</ele><time>2026-03-29T13:35:26Z</time></trkpt><trkpt lat="45.943928514815774" lon="12.44866370454337"><ele>40.0</ele><time>2026-03-29T13:35:27Z</time></trkpt><trkpt lat="45.943843567008955" lon="12.448685026291326"><ele>40.0</ele><time>2026-03-29T13:35:28Z</time></trkpt><trkpt lat="45.943743810734034" lon="12.448674201456619"><ele>40.0</ele><time>2026-03-29T13:35:29Z</time></trkpt><trkpt lat="45.94363792136332" lon="12.448669158991342"><ele>40.0</ele><time>2026-03-29T13:35:30Z</time></trkpt><trkpt lat="45.943545538696014" lon="12.448719178482499"><ele>40.0</ele><time>2026-03-29T13:35:31Z</time></trkpt><trkpt lat="45.94345939863739" lon="12.448799482335763"><ele>40.0</ele><time>2026-03-29T13:35:32Z</time></trkpt><trkpt lat="45.94339902406389" lon="12.448903881052011"><ele>40.0</ele><time>2026-03-29T13:35:33Z</time></trkpt><trkpt lat="45.94336911199911" lon="12.449043974140226"><ele>40.0</ele><time>2026-03-29T13:35:34Z</time></trkpt><trkpt lat="45.94336576795314" lon="12.449197786381745"><ele>40.0</ele><time>2026-03-29T13:35:35Z</time></trkpt><trkpt lat="45.94338701744444" lon="12.449356402802023"><ele>40.0</ele><time>2026-03-29T13:35:36Z</time></trkpt><trkpt lat="45.94339072316051" lon="12.449525028655362"><ele>40.0</ele><time>2026-03-29T13:35:37Z</time></trkpt><trkpt lat="45.94335935454262" lon="12.449702830699751"><ele>40.0</ele><time>2026-03-29T13:35:38Z</time></trkpt><trkpt lat="45.94332975944048" lon="12.449882975255008"><ele>40.0</ele><time>2026-03-29T13:35:39Z</time></trkpt><trkpt lat="45.94332905049532" lon="12.450079434594501"><ele>40.0</ele><time>2026-03-29T13:35:40Z</time></trkpt><trkpt lat="45.94333714147629" lon="12.450282491405586"><ele>40.0</ele><time>2026-03-29T13:35:41Z</time></trkpt><trkpt lat="45.94334286805989" lon="12.450488549242323"><ele>39.25</ele><time>2026-03-29T13:35:42Z</time></trkpt><trkpt lat="45.94334022547849" lon="12.45068988884889"><ele>38.5</ele><time>2026-03-29T13:35:43Z</time></trkpt><trkpt lat="45.943327215365215" lon="12.450884378335193"><ele>37.75</ele><time>2026-03-29T13:35:44Z</time></trkpt><trkpt lat="45.94330276898069" lon="12.45106929289341"><ele>37.0</ele><time>2026-03-29T13:35:45Z</time></trkpt><trkpt lat="45.943273669323474" lon="12.451246734621035"><ele>37.25</ele><time>2026-03-29T13:35:46Z</time></trkpt><trkpt lat="45.94324309368933" lon="12.451427431049472"><ele>37.5</ele><time>2026-03-29T13:35:47Z</time></trkpt><trkpt lat="45.943217486902064" lon="12.451613810233368"><ele>37.75</ele><time>2026-03-29T13:35:48Z</time></trkpt><trkpt lat="45.94319186032125" lon="12.451806545638382"><ele>38.0</ele><time>2026-03-29T13:35:49Z</time></trkpt><trkpt lat="45.943165537486884" lon="12.452003681425253"><ele>38.0</ele><time>2026-03-29T13:35:50Z</time></trkpt><trkpt lat="45.94313735506153" lon="12.45220805635343"><ele>38.0</ele><time>2026-03-29T13:35:51Z</time></trkpt><trkpt lat="45.943105407737946" lon="12.452421979451216"><ele>38.0</ele><time>2026-03-29T13:35:52Z</time></trkpt><trkpt lat="45.94307672278518" lon="12.452643452108415"><ele>38.0</ele><time>2026-03-29T13:35:53Z</time></trkpt><trkpt lat="45.94304548871511" lon="12.452872465805008"><ele>38.0</ele><time>2026-03-29T13:35:54Z</time></trkpt><trkpt lat="45.94301287394634" lon="12.45310458634518"><ele>38.0</ele><time>2026-03-29T13:35:55Z</time></trkpt><trkpt lat="45.94298242167668" lon="12.453324017072447"><ele>38.0</ele><time>2026-03-29T13:35:56Z</time></trkpt><trkpt lat="45.94295159316728" lon="12.453545870462166"><ele>38.0</ele><time>2026-03-29T13:35:57Z</time></trkpt><trkpt lat="45.942922283295104" lon="12.453761484530961"><ele>38.0</ele><time>2026-03-29T13:35:58Z</time></trkpt><trkpt lat="45.94289730204862" lon="12.453964083451703"><ele>38.5</ele><time>2026-03-29T13:35:59Z</time></trkpt><trkpt lat="45.94287174557443" lon="12.454159508226386"><ele>39.0</ele><time>2026-03-29T13:36:00Z</time></trkpt><trkpt lat="45.94284470265612" lon="12.454354548388551"><ele>39.5</ele><time>2026-03-29T13:36:01Z</time></trkpt><trkpt lat="45.94281825756506" lon="12.454553642045791"><ele>40.0</ele><time>2026-03-29T13:36:02Z</time></trkpt><trkpt lat="45.94278998801779" lon="12.45475807401238"><ele>40.0</ele><time>2026-03-29T13:36:03Z</time></trkpt><trkpt lat="45.94276391190341" lon="12.454967210994207"><ele>40.0</ele><time>2026-03-29T13:36:04Z</time></trkpt><trkpt lat="45.942747681338474" lon="12.455168409150474"><ele>40.0</ele><time>2026-03-29T13:36:05Z</time></trkpt><trkpt lat="45.942735395221" lon="12.455350208374405"><ele>40.0</ele><time>2026-03-29T13:36:06Z</time></trkpt><trkpt lat="45.942724714689014" lon="12.45549581737666"><ele>39.8</ele><time>2026-03-29T13:36:07Z</time></trkpt><trkpt lat="45.94271353477835" lon="12.45559978284196"><ele>39.6</ele><time>2026-03-29T13:36:08Z</time></trkpt><trkpt lat="45.942666228599094" lon="12.455710637664664"><ele>39.4</ele><time>2026-03-29T13:36:10Z</time></trkpt><trkpt lat="45.94254367031725" lon="12.45571018611334"><ele>39.2</ele><time>2026-03-29T13:36:12Z</time></trkpt><trkpt lat="45.94244427681683" lon="12.45566517466506"><ele>39.0</ele><time>2026-03-29T13:36:13Z</time></trkpt><trkpt lat="45.94231301459243" lon="12.455628086922184"><ele>38.333333333333336</ele><time>2026-03-29T13:36:14.001Z</time></trkpt><trkpt lat="45.94217385718209" lon="12.45558933091192"><ele>37.66666666666667</ele><time>2026-03-29T13:36:15.001Z</time></trkpt><trkpt lat="45.94201293243899" lon="12.455545278563678"><ele>37.0</ele><time>2026-03-29T13:36:16.001Z</time></trkpt><trkpt lat="45.941847251019034" lon="12.455499258785427"><ele>37.333333333333336</ele><time>2026-03-29T13:36:17.001Z</time></trkpt><trkpt lat="45.941675246538374" lon="12.455446600603624"><ele>37.666666666666664</ele><time>2026-03-29T13:36:18.001Z</time></trkpt><trkpt lat="45.941514969719606" lon="12.455391612860163"><ele>38.0</ele><time>2026-03-29T13:36:19.001Z</time></trkpt><trkpt lat="45.94136416192204" lon="12.455341259876992"><ele>38.0</ele><time>2026-03-29T13:36:20.001Z</time></trkpt><trkpt lat="45.94122293548667" lon="12.455298168106083"><ele>38.0</ele><time>2026-03-29T13:36:21.001Z</time></trkpt><trkpt lat="45.94109315684842" lon="12.45527012301942"><ele>38.0</ele><time>2026-03-29T13:36:22.001Z</time></trkpt><trkpt lat="45.94097613342403" lon="12.455265577504377"><ele>38.0</ele><time>2026-03-29T13:36:23.001Z</time></trkpt><trkpt lat="45.94087084350306" lon="12.455286051289997"><ele>37.6</ele><time>2026-03-29T13:36:24.001Z</time></trkpt><trkpt lat="45.94078494652666" lon="12.455342802675867"><ele>37.199999999999996</ele><time>2026-03-29T13:36:25.001Z</time></trkpt><trkpt lat="45.940703799280044" lon="12.45543226185477"><ele>36.8</ele><time>2026-03-29T13:36:26.001Z</time></trkpt><trkpt lat="45.94063515582891" lon="12.455544073969543"><ele>36.4</ele><time>2026-03-29T13:36:27.001Z</time></trkpt><trkpt lat="45.94058863807565" lon="12.45569200989317"><ele>36.0</ele><time>2026-03-29T13:36:28.001Z</time></trkpt><trkpt lat="45.94054391408544" lon="12.455875740488224"><ele>35.666666666666664</ele><time>2026-03-29T13:36:29.001Z</time></trkpt><trkpt lat="45.9404886487791" lon="12.456111443642286"><ele>35.33333333333333</ele><time>2026-03-29T13:36:30.001Z</time></trkpt><trkpt lat="45.940416759604986" lon="12.45636975434305"><ele>35.0</ele><time>2026-03-29T13:36:31.001Z</time></trkpt><trkpt lat="45.9403396203689" lon="12.456621173476059"><ele>35.0</ele><time>2026-03-29T13:36:32.001Z</time></trkpt><trkpt lat="45.94027916771298" lon="12.45681839247129"><ele>35.0</ele><time>2026-03-29T13:36:33.001Z</time></trkpt><trkpt lat="45.94023984798434" lon="12.456978530257704"><ele>35.0</ele><time>2026-03-29T13:36:34.001Z</time></trkpt><trkpt lat="45.940215968351694" lon="12.457160198407529"><ele>35.0</ele><time>2026-03-29T13:36:35.001Z</time></trkpt><trkpt lat="45.94022052350603" lon="12.457399349199934"><ele>35.0</ele><time>2026-03-29T13:36:36.001Z</time></trkpt><trkpt lat="45.940225191055575" lon="12.457670139175347"><ele>35.0</ele><time>2026-03-29T13:36:37.001Z</time></trkpt><trkpt lat="45.94022425377974" lon="12.45793866292852"><ele>35.0</ele><time>2026-03-29T13:36:38.001Z</time></trkpt><trkpt lat="45.940217790907035" lon="12.458185512470148"><ele>35.0</ele><time>2026-03-29T13:36:39.001Z</time></trkpt><trkpt lat="45.940198232997815" lon="12.458411951571275"><ele>35.0</ele><time>2026-03-29T13:36:40.001Z</time></trkpt><trkpt lat="45.94015739113749" lon="12.458629332977493"><ele>35.0</ele><time>2026-03-29T13:36:41.001Z</time></trkpt><trkpt lat="45.94008544538405" lon="12.458848416491051"><ele>34.666666666666664</ele><time>2026-03-29T13:36:42.001Z</time></trkpt><trkpt lat="45.94001120892037" lon="12.459063356428436"><ele>34.333333333333336</ele><time>2026-03-29T13:36:43.001Z</time></trkpt><trkpt lat="45.939911062672984" lon="12.459270476868618"><ele>34.0</ele><time>2026-03-29T13:36:44.001Z</time></trkpt><trkpt lat="45.93979978200007" lon="12.459459601020814"><ele>33.66666666666667</ele><time>2026-03-29T13:36:45.001Z</time></trkpt><trkpt lat="45.93967765506044" lon="12.459630076594083"><ele>33.333333333333336</ele><time>2026-03-29T13:36:46.001Z</time></trkpt><trkpt lat="45.93955036384676" lon="12.459772475074884"><ele>33.0</ele><time>2026-03-29T13:36:47.001Z</time></trkpt><trkpt lat="45.93942222483316" lon="12.459896653975596"><ele>33.0</ele><time>2026-03-29T13:36:48.001Z</time></trkpt><trkpt lat="45.939292980918566" lon="12.459986304459886"><ele>33.0</ele><time>2026-03-29T13:36:49.001Z</time></trkpt><trkpt lat="45.93916447617968" lon="12.460053123514296"><ele>33.0</ele><time>2026-03-29T13:36:50.001Z</time></trkpt><trkpt lat="45.93903954374888" lon="12.460113140411295"><ele>33.0</ele><time>2026-03-29T13:36:51.001Z</time></trkpt><trkpt lat="45.93892527623067" lon="12.460179909947254"><ele>33.0</ele><time>2026-03-29T13:36:52.001Z</time></trkpt><trkpt lat="45.93881442579014" lon="12.460242468048591"><ele>33.0</ele><time>2026-03-29T13:36:53.001Z</time></trkpt><trkpt lat="45.93870338876869" lon="12.460286453916744"><ele>33.0</ele><time>2026-03-29T13:36:54.001Z</time></trkpt><trkpt lat="45.93857936942959" lon="12.460338154581335"><ele>33.0</ele><time>2026-03-29T13:36:55.001Z</time></trkpt><trkpt lat="45.938462467946295" lon="12.460400120939942"><ele>33.199999999999996</ele><time>2026-03-29T13:36:56.001Z</time></trkpt><trkpt lat="45.93835446724797" lon="12.460437292698748"><ele>33.4</ele><time>2026-03-29T13:36:57.001Z</time></trkpt><trkpt lat="45.938248746677836" lon="12.460479878494743"><ele>33.599999999999994</ele><time>2026-03-29T13:36:58.001Z</time></trkpt><trkpt lat="45.93815170229551" lon="12.460529161817517"><ele>33.8</ele><time>2026-03-29T13:36:59.001Z</time></trkpt><trkpt lat="45.93805429876359" lon="12.460593040531903"><ele>34.0</ele><time>2026-03-29T13:37:00.001Z</time></trkpt><trkpt lat="45.93796063940762" lon="12.460682196022065"><ele>33.5</ele><time>2026-03-29T13:37:01.001Z</time></trkpt><trkpt lat="45.937880835901666" lon="12.460802573830751"><ele>33.0</ele><time>2026-03-29T13:37:02.001Z</time></trkpt><trkpt lat="45.9378160938637" lon="12.460935774539488"><ele>32.5</ele><time>2026-03-29T13:37:03.001Z</time></trkpt><trkpt lat="45.93776468830996" lon="12.461097140655419"><ele>32.0</ele><time>2026-03-29T13:37:04.001Z</time></trkpt><trkpt lat="45.93771941719092" lon="12.46128060954423"><ele>32.0</ele><time>2026-03-29T13:37:05.001Z</time></trkpt><trkpt lat="45.93766851820178" lon="12.461484714689904"><ele>32.0</ele><time>2026-03-29T13:37:06.001Z</time></trkpt><trkpt lat="45.9376089205623" lon="12.461694250634611"><ele>32.0</ele><time>2026-03-29T13:37:07.001Z</time></trkpt><trkpt lat="45.937548992931" lon="12.461904455823161"><ele>32.0</ele><time>2026-03-29T13:37:08.001Z</time></trkpt><trkpt lat="45.93748405738101" lon="12.462108503120762"><ele>32.0</ele><time>2026-03-29T13:37:09.001Z</time></trkpt><trkpt lat="45.937424259126026" lon="12.462301150992852"><ele>32.0</ele><time>2026-03-29T13:37:10.001Z</time></trkpt><trkpt lat="45.93736899047081" lon="12.46248822349749"><ele>32.0</ele><time>2026-03-29T13:37:11.001Z</time></trkpt><trkpt lat="45.93731676160422" lon="12.462672981571894"><ele>31.75</ele><time>2026-03-29T13:37:12.001Z</time></trkpt><trkpt lat="45.93727156008455" lon="12.462860064400461"><ele>31.5</ele><time>2026-03-29T13:37:13.001Z</time></trkpt><trkpt lat="45.937228051539236" lon="12.463055330082144"><ele>31.25</ele><time>2026-03-29T13:37:14.001Z</time></trkpt><trkpt lat="45.93719668573724" lon="12.463259527923753"><ele>31.0</ele><time>2026-03-29T13:37:14.999Z</time></trkpt><trkpt lat="45.937171975794286" lon="12.463467692589774"><ele>31.0</ele><time>2026-03-29T13:37:15.999Z</time></trkpt><trkpt lat="45.93715070067961" lon="12.463685332520662"><ele>31.0</ele><time>2026-03-29T13:37:16.999Z</time></trkpt><trkpt lat="45.93712937480193" lon="12.463907092197108"><ele>31.0</ele><time>2026-03-29T13:37:17.999Z</time></trkpt><trkpt lat="45.93710625495027" lon="12.464139136454094"><ele>31.333333333333336</ele><time>2026-03-29T13:37:18.999Z</time></trkpt><trkpt lat="45.93708503723813" lon="12.464383515694196"><ele>31.666666666666664</ele><time>2026-03-29T13:37:19.999Z</time></trkpt><trkpt lat="45.93706332436001" lon="12.46463272961062"><ele>32.0</ele><time>2026-03-29T13:37:20.999Z</time></trkpt><trkpt lat="45.93704460638749" lon="12.464885361022809"><ele>32.0</ele><time>2026-03-29T13:37:21.999Z</time></trkpt><trkpt lat="45.937027356661694" lon="12.465132897539254"><ele>32.0</ele><time>2026-03-29T13:37:23Z</time></trkpt><trkpt lat="45.937011407582716" lon="12.46535613535441"><ele>32.0</ele><time>2026-03-29T13:37:24Z</time></trkpt><trkpt lat="45.93699604520073" lon="12.465568737774431"><ele>32.0</ele><time>2026-03-29T13:37:25Z</time></trkpt><trkpt lat="45.936979132340994" lon="12.465762694447461"><ele>32.0</ele><time>2026-03-29T13:37:26Z</time></trkpt><trkpt lat="45.93696418713306" lon="12.465940162548822"><ele>32.0</ele><time>2026-03-29T13:37:27Z</time></trkpt><trkpt lat="45.936945298327274" lon="12.466098839295434"><ele>32.0</ele><time>2026-03-29T13:37:28Z</time></trkpt><trkpt lat="45.93691978713574" lon="12.46623117205432"><ele>31.999999999999996</ele><time>2026-03-29T13:37:29Z</time></trkpt><trkpt lat="45.936896349346014" lon="12.466334116394837"><ele>32.0</ele><time>2026-03-29T13:37:30Z</time></trkpt><trkpt lat="45.93686456485788" lon="12.466414502004696"><ele>32.0</ele><time>2026-03-29T13:37:31Z</time></trkpt><trkpt lat="45.93678048067274" lon="12.466545193400686"><ele>32.0</ele><time>2026-03-29T13:37:33Z</time></trkpt><trkpt lat="45.93671840179886" lon="12.466617393476476"><ele>31.999999999999996</ele><time>2026-03-29T13:37:34Z</time></trkpt><trkpt lat="45.93664600717945" lon="12.4666782642369"><ele>32.0</ele><time>2026-03-29T13:37:35Z</time></trkpt><trkpt lat="45.936557809876774" lon="12.466735261402663"><ele>32.0</ele><time>2026-03-29T13:37:36Z</time></trkpt><trkpt lat="45.936456539781645" lon="12.466784262652702"><ele>32.0</ele><time>2026-03-29T13:37:37Z</time></trkpt><trkpt lat="45.93634332769548" lon="12.466822806005883"><ele>32.0</ele><time>2026-03-29T13:37:38Z</time></trkpt><trkpt lat="45.936211234722116" lon="12.46686609677139"><ele>32.0</ele><time>2026-03-29T13:37:39Z</time></trkpt><trkpt lat="45.93607965928359" lon="12.466917855622793"><ele>32.0</ele><time>2026-03-29T13:37:40Z</time></trkpt><trkpt lat="45.93593915752093" lon="12.466992816838241"><ele>32.0</ele><time>2026-03-29T13:37:41Z</time></trkpt><trkpt lat="45.93579319567528" lon="12.467082785961997"><ele>32.0</ele><time>2026-03-29T13:37:42Z</time></trkpt><trkpt lat="45.93564712126533" lon="12.467180468974295"><ele>31.0</ele><time>2026-03-29T13:37:43Z</time></trkpt><trkpt lat="45.93550024700307" lon="12.467285235741306"><ele>30.0</ele><time>2026-03-29T13:37:44Z</time></trkpt><trkpt lat="45.935351459320266" lon="12.467400496677824"><ele>29.0</ele><time>2026-03-29T13:37:45Z</time></trkpt><trkpt lat="45.935207707642356" lon="12.467531751204884"><ele>29.0</ele><time>2026-03-29T13:37:46Z</time></trkpt><trkpt lat="45.935065217670505" lon="12.467673607332118"><ele>29.0</ele><time>2026-03-29T13:37:47Z</time></trkpt><trkpt lat="45.93492204701444" lon="12.467825668748635"><ele>29.0</ele><time>2026-03-29T13:37:48Z</time></trkpt><trkpt lat="45.934780583987695" lon="12.467989736942922"><ele>29.666666666666664</ele><time>2026-03-29T13:37:49Z</time></trkpt><trkpt lat="45.93464025233096" lon="12.4681656758513"><ele>30.333333333333336</ele><time>2026-03-29T13:37:50Z</time></trkpt><trkpt lat="45.934501873183535" lon="12.468352942648806"><ele>31.0</ele><time>2026-03-29T13:37:51Z</time></trkpt><trkpt lat="45.93436527302853" lon="12.468550336422151"><ele>31.0</ele><time>2026-03-29T13:37:52Z</time></trkpt><trkpt lat="45.934230193990786" lon="12.468753708071985"><ele>31.0</ele><time>2026-03-29T13:37:53Z</time></trkpt><trkpt lat="45.9340967800743" lon="12.468964739294089"><ele>31.0</ele><time>2026-03-29T13:37:54Z</time></trkpt><trkpt lat="45.933970655605556" lon="12.469174022721663"><ele>30.0</ele><time>2026-03-29T13:37:55Z</time></trkpt><trkpt lat="45.93384797044381" lon="12.46937917774532"><ele>29.0</ele><time>2026-03-29T13:37:56Z</time></trkpt><trkpt lat="45.93372002518763" lon="12.469584734900524"><ele>28.0</ele><time>2026-03-29T13:37:57Z</time></trkpt><trkpt lat="45.93359466306365" lon="12.469775811448198"><ele>27.666666666666668</ele><time>2026-03-29T13:37:58Z</time></trkpt><trkpt lat="45.933463998492336" lon="12.46997015124392"><ele>27.333333333333336</ele><time>2026-03-29T13:37:59Z</time></trkpt><trkpt lat="45.9333326110778" lon="12.470165396410305"><ele>27.0</ele><time>2026-03-29T13:38:00Z</time></trkpt><trkpt lat="45.93320412752047" lon="12.470361053118816"><ele>28.333333333333336</ele><time>2026-03-29T13:38:01Z</time></trkpt><trkpt lat="45.93308320815891" lon="12.470558860617878"><ele>29.666666666666668</ele><time>2026-03-29T13:38:02Z</time></trkpt><trkpt lat="45.932962215000735" lon="12.470765645956776"><ele>31.0</ele><time>2026-03-29T13:38:03Z</time></trkpt><trkpt lat="45.93284043872605" lon="12.470978808721615"><ele>31.0</ele><time>2026-03-29T13:38:04Z</time></trkpt><trkpt lat="45.93272415767542" lon="12.471193608723487"><ele>31.0</ele><time>2026-03-29T13:38:05Z</time></trkpt><trkpt lat="45.93261032399113" lon="12.471414134085776"><ele>31.0</ele><time>2026-03-29T13:38:06Z</time></trkpt><trkpt lat="45.9324986832108" lon="12.471642786771087"><ele>30.666666666666668</ele><time>2026-03-29T13:38:07Z</time></trkpt><trkpt lat="45.93239220297272" lon="12.471886235903018"><ele>30.333333333333336</ele><time>2026-03-29T13:38:08Z</time></trkpt><trkpt lat="45.93229317097507" lon="12.472141265849258"><ele>30.0</ele><time>2026-03-29T13:38:09Z</time></trkpt><trkpt lat="45.932198998476224" lon="12.472407454413693"><ele>30.0</ele><time>2026-03-29T13:38:10Z</time></trkpt><trkpt lat="45.93210607264474" lon="12.472683074923767"><ele>30.0</ele><time>2026-03-29T13:38:11Z</time></trkpt><trkpt lat="45.932015206878084" lon="12.472966126158015"><ele>30.0</ele><time>2026-03-29T13:38:12Z</time></trkpt><trkpt lat="45.9319262807727" lon="12.473251435246222"><ele>29.5</ele><time>2026-03-29T13:38:13Z</time></trkpt><trkpt lat="45.93183426176379" lon="12.47354875202733"><ele>29.0</ele><time>2026-03-29T13:38:14Z</time></trkpt><trkpt lat="45.931742398106486" lon="12.473857023493872"><ele>29.0</ele><time>2026-03-29T13:38:15Z</time></trkpt><trkpt lat="45.93164923941697" lon="12.4741655934083"><ele>29.0</ele><time>2026-03-29T13:38:16Z</time></trkpt><trkpt lat="45.93155605691658" lon="12.474470696508543"><ele>28.5</ele><time>2026-03-29T13:38:17Z</time></trkpt><trkpt lat="45.93146540112128" lon="12.474776789474774"><ele>28.0</ele><time>2026-03-29T13:38:18Z</time></trkpt><trkpt lat="45.93137831882041" lon="12.47508224517373"><ele>28.0</ele><time>2026-03-29T13:38:19.001Z</time></trkpt><trkpt lat="45.931290725678565" lon="12.47539069496707"><ele>28.0</ele><time>2026-03-29T13:38:20.001Z</time></trkpt><trkpt lat="45.931200392879774" lon="12.475698234223577"><ele>27.5</ele><time>2026-03-29T13:38:21.001Z</time></trkpt><trkpt lat="45.931102813140434" lon="12.476011631272984"><ele>27.0</ele><time>2026-03-29T13:38:22.001Z</time></trkpt><trkpt lat="45.93100166086901" lon="12.47632574692594"><ele>27.0</ele><time>2026-03-29T13:38:23.001Z</time></trkpt><trkpt lat="45.93090503700808" lon="12.476621541358467"><ele>27.0</ele><time>2026-03-29T13:38:24.001Z</time></trkpt><trkpt lat="45.93080913532769" lon="12.476911812756912"><ele>27.0</ele><time>2026-03-29T13:38:25.001Z</time></trkpt><trkpt lat="45.93070979293982" lon="12.477212878774582"><ele>27.0</ele><time>2026-03-29T13:38:26.001Z</time></trkpt><trkpt lat="45.930606310590484" lon="12.477530162937846"><ele>27.0</ele><time>2026-03-29T13:38:27.001Z</time></trkpt><trkpt lat="45.930510763869485" lon="12.47782518056589"><ele>27.0</ele><time>2026-03-29T13:38:28.001Z</time></trkpt><trkpt lat="45.93041965418987" lon="12.478108305653027"><ele>27.0</ele><time>2026-03-29T13:38:29.001Z</time></trkpt><trkpt lat="45.93034049709862" lon="12.478397429065039"><ele>26.333333333333336</ele><time>2026-03-29T13:38:30.001Z</time></trkpt><trkpt lat="45.93028624391467" lon="12.478701387939202"><ele>25.666666666666668</ele><time>2026-03-29T13:38:31.001Z</time></trkpt><trkpt lat="45.93025356925289" lon="12.479012760381691"><ele>25.0</ele><time>2026-03-29T13:38:32.001Z</time></trkpt><trkpt lat="45.93023422810003" lon="12.479333485671951"><ele>26.5</ele><time>2026-03-29T13:38:33.001Z</time></trkpt><trkpt lat="45.930227978331914" lon="12.479661964037621"><ele>28.0</ele><time>2026-03-29T13:38:34.001Z</time></trkpt><trkpt lat="45.93023192815232" lon="12.480000593703087"><ele>28.0</ele><time>2026-03-29T13:38:35.001Z</time></trkpt><trkpt lat="45.93024724217681" lon="12.480353781814863"><ele>28.0</ele><time>2026-03-29T13:38:36.001Z</time></trkpt><trkpt lat="45.93026649289034" lon="12.480723620146998"><ele>30.5</ele><time>2026-03-29T13:38:37.001Z</time></trkpt><trkpt lat="45.93028491421862" lon="12.481069977631686"><ele>33.0</ele><time>2026-03-29T13:38:38.001Z</time></trkpt><trkpt lat="45.93029819836668" lon="12.481398002944971"><ele>33.333333333333336</ele><time>2026-03-29T13:38:39.001Z</time></trkpt><trkpt lat="45.93030856937285" lon="12.481722174858309"><ele>33.66666666666667</ele><time>2026-03-29T13:38:40.001Z</time></trkpt><trkpt lat="45.93031689141924" lon="12.482038707765094"><ele>34.0</ele><time>2026-03-29T13:38:41.001Z</time></trkpt><trkpt lat="45.93032353168553" lon="12.482333985685397"><ele>33.333333333333336</ele><time>2026-03-29T13:38:42.001Z</time></trkpt><trkpt lat="45.930331341657734" lon="12.48261425042171"><ele>32.666666666666664</ele><time>2026-03-29T13:38:43.001Z</time></trkpt><trkpt lat="45.930338471314265" lon="12.482884877716257"><ele>32.0</ele><time>2026-03-29T13:38:44.001Z</time></trkpt><trkpt lat="45.930344614242536" lon="12.483146938554727"><ele>29.666666666666664</ele><time>2026-03-29T13:38:45.001Z</time></trkpt><trkpt lat="45.93034358659365" lon="12.483411846098294"><ele>27.333333333333336</ele><time>2026-03-29T13:38:46.001Z</time></trkpt><trkpt lat="45.93032900820305" lon="12.483675828019408"><ele>25.0</ele><time>2026-03-29T13:38:47.001Z</time></trkpt><trkpt lat="45.93029597577925" lon="12.483945915400328"><ele>24.0</ele><time>2026-03-29T13:38:48.001Z</time></trkpt><trkpt lat="45.93024465772535" lon="12.484238442582024"><ele>23.0</ele><time>2026-03-29T13:38:49.001Z</time></trkpt><trkpt lat="45.930190750978504" lon="12.484504253061141"><ele>22.0</ele><time>2026-03-29T13:38:50.001Z</time></trkpt><trkpt lat="45.930135425724416" lon="12.484756511250831"><ele>22.0</ele><time>2026-03-29T13:38:51.001Z</time></trkpt><trkpt lat="45.930078946803505" lon="12.485004556777515"><ele>22.0</ele><time>2026-03-29T13:38:52.001Z</time></trkpt><trkpt lat="45.930022021004206" lon="12.485255560954695"><ele>22.0</ele><time>2026-03-29T13:38:53.001Z</time></trkpt><trkpt lat="45.92996590843888" lon="12.485499309592601"><ele>21.333333333333332</ele><time>2026-03-29T13:38:54.001Z</time></trkpt><trkpt lat="45.92991305575243" lon="12.485730087431987"><ele>20.666666666666668</ele><time>2026-03-29T13:38:55.001Z</time></trkpt><trkpt lat="45.92986111367227" lon="12.485964289226343"><ele>20.0</ele><time>2026-03-29T13:38:56.001Z</time></trkpt><trkpt lat="45.92981400480753" lon="12.486203773716738"><ele>20.666666666666668</ele><time>2026-03-29T13:38:57.001Z</time></trkpt><trkpt lat="45.92977557382313" lon="12.486448905885451"><ele>21.333333333333332</ele><time>2026-03-29T13:38:58.001Z</time></trkpt><trkpt lat="45.929747761278385" lon="12.486700022219022"><ele>22.0</ele><time>2026-03-29T13:38:59.001Z</time></trkpt><trkpt lat="45.92972873260463" lon="12.486953059145577"><ele>23.0</ele><time>2026-03-29T13:39:00.001Z</time></trkpt><trkpt lat="45.92972267331746" lon="12.487199378006542"><ele>24.0</ele><time>2026-03-29T13:39:01.001Z</time></trkpt><trkpt lat="45.929713991614825" lon="12.487443563277015"><ele>25.0</ele><time>2026-03-29T13:39:02.001Z</time></trkpt><trkpt lat="45.92970355705445" lon="12.487674263351675"><ele>25.0</ele><time>2026-03-29T13:39:03.001Z</time></trkpt><trkpt lat="45.929689132764324" lon="12.487896732500907"><ele>25.0</ele><time>2026-03-29T13:39:04.001Z</time></trkpt><trkpt lat="45.929671325936184" lon="12.488108317045684"><ele>25.0</ele><time>2026-03-29T13:39:05.001Z</time></trkpt><trkpt lat="45.92964600939769" lon="12.488317407031031"><ele>25.0</ele><time>2026-03-29T13:39:06.001Z</time></trkpt><trkpt lat="45.92961065581994" lon="12.488527940475368"><ele>25.0</ele><time>2026-03-29T13:39:07.001Z</time></trkpt><trkpt lat="45.92955804067264" lon="12.488750621059747"><ele>25.0</ele><time>2026-03-29T13:39:08.001Z</time></trkpt><trkpt lat="45.92948233438294" lon="12.488985679835247"><ele>25.0</ele><time>2026-03-29T13:39:09.001Z</time></trkpt><trkpt lat="45.929388764623404" lon="12.489231917521934"><ele>25.0</ele><time>2026-03-29T13:39:10.001Z</time></trkpt><trkpt lat="45.929279798912226" lon="12.48948919843054"><ele>25.0</ele><time>2026-03-29T13:39:11.001Z</time></trkpt><trkpt lat="45.929160342351956" lon="12.489754679394688"><ele>25.0</ele><time>2026-03-29T13:39:12.001Z</time></trkpt><trkpt lat="45.929038051547245" lon="12.490010916162705"><ele>25.0</ele><time>2026-03-29T13:39:13.001Z</time></trkpt><trkpt lat="45.928916593424105" lon="12.490269183382853"><ele>25.0</ele><time>2026-03-29T13:39:14.001Z</time></trkpt><trkpt lat="45.92880144724282" lon="12.490520479226301"><ele>24.333333333333336</ele><time>2026-03-29T13:39:15.001Z</time></trkpt><trkpt lat="45.92869169865105" lon="12.490760644020545"><ele>23.666666666666668</ele><time>2026-03-29T13:39:16.001Z</time></trkpt><trkpt lat="45.928585521314716" lon="12.4909868299977"><ele>23.0</ele><time>2026-03-29T13:39:17.001Z</time></trkpt><trkpt lat="45.92847760312067" lon="12.49120258171682"><ele>22.666666666666668</ele><time>2026-03-29T13:39:18.001Z</time></trkpt><trkpt lat="45.92837082616162" lon="12.491419588728087"><ele>22.333333333333332</ele><time>2026-03-29T13:39:19.001Z</time></trkpt><trkpt lat="45.92826513530848" lon="12.491640135321118"><ele>22.0</ele><time>2026-03-29T13:39:20.001Z</time></trkpt><trkpt lat="45.92815833569758" lon="12.491864805075496"><ele>22.333333333333332</ele><time>2026-03-29T13:39:20.999Z</time></trkpt><trkpt lat="45.92805411455467" lon="12.492091327496121"><ele>22.666666666666668</ele><time>2026-03-29T13:39:21.999Z</time></trkpt><trkpt lat="45.92795177291474" lon="12.492315032690595"><ele>23.0</ele><time>2026-03-29T13:39:22.999Z</time></trkpt><trkpt lat="45.927849634365664" lon="12.49253670654"><ele>23.0</ele><time>2026-03-29T13:39:23.999Z</time></trkpt><trkpt lat="45.927745245133906" lon="12.492758335006377"><ele>23.0</ele><time>2026-03-29T13:39:24.999Z</time></trkpt><trkpt lat="45.92764417372576" lon="12.492971600695718"><ele>23.0</ele><time>2026-03-29T13:39:25.999Z</time></trkpt><trkpt lat="45.92754136028753" lon="12.493185861584292"><ele>22.666666666666668</ele><time>2026-03-29T13:39:26.999Z</time></trkpt><trkpt lat="45.927437757485755" lon="12.493398074244864"><ele>22.333333333333332</ele><time>2026-03-29T13:39:27.999Z</time></trkpt><trkpt lat="45.927332700610314" lon="12.493611936299926"><ele>22.0</ele><time>2026-03-29T13:39:29Z</time></trkpt><trkpt lat="45.92723322115262" lon="12.493828931902176"><ele>21.333333333333332</ele><time>2026-03-29T13:39:30Z</time></trkpt><trkpt lat="45.92713768872612" lon="12.494057331373533"><ele>20.666666666666668</ele><time>2026-03-29T13:39:31Z</time></trkpt><trkpt lat="45.92704384434526" lon="12.49431578776669"><ele>20.0</ele><time>2026-03-29T13:39:32Z</time></trkpt><trkpt lat="45.926957877129304" lon="12.494583096194168"><ele>20.0</ele><time>2026-03-29T13:39:33Z</time></trkpt><trkpt lat="45.92687982272908" lon="12.494843418297883"><ele>20.0</ele><time>2026-03-29T13:39:34Z</time></trkpt><trkpt lat="45.92681144166038" lon="12.495094069810891"><ele>20.0</ele><time>2026-03-29T13:39:35Z</time></trkpt><trkpt lat="45.92674450887351" lon="12.49533940537296"><ele>21.0</ele><time>2026-03-29T13:39:36Z</time></trkpt><trkpt lat="45.92667804063014" lon="12.49558992582841"><ele>22.0</ele><time>2026-03-29T13:39:37Z</time></trkpt><trkpt lat="45.92661505924475" lon="12.495846293540719"><ele>23.0</ele><time>2026-03-29T13:39:38Z</time></trkpt><trkpt lat="45.9265593491968" lon="12.496093307242873"><ele>22.333333333333336</ele><time>2026-03-29T13:39:39Z</time></trkpt><trkpt lat="45.92650518211961" lon="12.496341153508942"><ele>21.666666666666668</ele><time>2026-03-29T13:39:40Z</time></trkpt><trkpt lat="45.92644615134193" lon="12.496592213739495"><ele>21.0</ele><time>2026-03-29T13:39:41Z</time></trkpt><trkpt lat="45.926394167540714" lon="12.496844578011002"><ele>20.666666666666668</ele><time>2026-03-29T13:39:42Z</time></trkpt><trkpt lat="45.92636018126105" lon="12.49710822533158"><ele>20.333333333333336</ele><time>2026-03-29T13:39:43Z</time></trkpt><trkpt lat="45.92634225043882" lon="12.497371436224435"><ele>20.0</ele><time>2026-03-29T13:39:44Z</time></trkpt><trkpt lat="45.92633302448504" lon="12.49762524486017"><ele>20.0</ele><time>2026-03-29T13:39:45Z</time></trkpt><trkpt lat="45.92633029395102" lon="12.497865808786008"><ele>20.0</ele><time>2026-03-29T13:39:46Z</time></trkpt><trkpt lat="45.92632819877219" lon="12.498084894077431"><ele>20.0</ele><time>2026-03-29T13:39:47Z</time></trkpt><trkpt lat="45.92632556666695" lon="12.498291297292882"><ele>19.5</ele><time>2026-03-29T13:39:48Z</time></trkpt><trkpt lat="45.92631634097294" lon="12.498477649343773"><ele>19.0</ele><time>2026-03-29T13:39:49Z</time></trkpt><trkpt lat="45.9262951785681" lon="12.498647079849848"><ele>18.5</ele><time>2026-03-29T13:39:50Z</time></trkpt><trkpt lat="45.92626155082816" lon="12.498798285524602"><ele>18.0</ele><time>2026-03-29T13:39:51Z</time></trkpt><trkpt lat="45.92621996094066" lon="12.498933747025053"><ele>18.0</ele><time>2026-03-29T13:39:52Z</time></trkpt><trkpt lat="45.92617230697754" lon="12.49906781494336"><ele>18.0</ele><time>2026-03-29T13:39:53Z</time></trkpt><trkpt lat="45.92611649745961" lon="12.499197621959796"><ele>18.0</ele><time>2026-03-29T13:39:54Z</time></trkpt><trkpt lat="45.926053366398044" lon="12.499303855258425"><ele>18.0</ele><time>2026-03-29T13:39:55Z</time></trkpt><trkpt lat="45.925985599197205" lon="12.49938650288332"><ele>18.0</ele><time>2026-03-29T13:39:56Z</time></trkpt><trkpt lat="45.925911725215535" lon="12.499428962455328"><ele>18.5</ele><time>2026-03-29T13:39:57Z</time></trkpt><trkpt lat="45.92583746340569" lon="12.499446676618506"><ele>19.0</ele><time>2026-03-29T13:39:58Z</time></trkpt><trkpt lat="45.925767055532134" lon="12.499417048169713"><ele>19.5</ele><time>2026-03-29T13:39:59Z</time></trkpt><trkpt lat="45.925697622114974" lon="12.499344582611078"><ele>20.0</ele><time>2026-03-29T13:40:00Z</time></trkpt><trkpt lat="45.92565437687792" lon="12.499245358933269"><ele>20.5</ele><time>2026-03-29T13:40:01Z</time></trkpt><trkpt lat="45.925629527314875" lon="12.499117951800175"><ele>21.0</ele><time>2026-03-29T13:40:02Z</time></trkpt><trkpt lat="45.92561557684358" lon="12.498970982483597"><ele>21.0</ele><time>2026-03-29T13:40:03Z</time></trkpt><trkpt lat="45.925598491614956" lon="12.498808737562934"><ele>21.0</ele><time>2026-03-29T13:40:04Z</time></trkpt><trkpt lat="45.92557987814856" lon="12.498642929465966"><ele>21.0</ele><time>2026-03-29T13:40:05Z</time></trkpt><trkpt lat="45.92555934522731" lon="12.498447758137155"><ele>21.0</ele><time>2026-03-29T13:40:06Z</time></trkpt><trkpt lat="45.92553476058156" lon="12.498211013762921"><ele>20.666666666666668</ele><time>2026-03-29T13:40:07Z</time></trkpt><trkpt lat="45.92550654249903" lon="12.497953795384083"><ele>20.333333333333336</ele><time>2026-03-29T13:40:08Z</time></trkpt><trkpt lat="45.925475692074166" lon="12.49769277589044"><ele>20.0</ele><time>2026-03-29T13:40:09Z</time></trkpt><trkpt lat="45.925440663975536" lon="12.497412090147792"><ele>19.666666666666668</ele><time>2026-03-29T13:40:10Z</time></trkpt><trkpt lat="45.92540910935144" lon="12.497156967745433"><ele>19.333333333333332</ele><time>2026-03-29T13:40:11Z</time></trkpt><trkpt lat="45.92537954474637" lon="12.496911431482156"><ele>19.0</ele><time>2026-03-29T13:40:12Z</time></trkpt><trkpt lat="45.9253555959499" lon="12.496676980840551"><ele>19.0</ele><time>2026-03-29T13:40:13Z</time></trkpt><trkpt lat="45.925335397159444" lon="12.496455104571657"><ele>19.0</ele><time>2026-03-29T13:40:14Z</time></trkpt><trkpt lat="45.92531553380162" lon="12.496242588759355"><ele>19.0</ele><time>2026-03-29T13:40:15Z</time></trkpt><trkpt lat="45.925293675738445" lon="12.496039015724858"><ele>19.0</ele><time>2026-03-29T13:40:16Z</time></trkpt><trkpt lat="45.925271268023046" lon="12.49583311819395"><ele>18.75</ele><time>2026-03-29T13:40:17Z</time></trkpt><trkpt lat="45.9252535325952" lon="12.49562229985113"><ele>18.5</ele><time>2026-03-29T13:40:18Z</time></trkpt><trkpt lat="45.92524960631093" lon="12.495410719741939"><ele>18.25</ele><time>2026-03-29T13:40:19Z</time></trkpt><trkpt lat="45.92527463758345" lon="12.495214487379961"><ele>18.0</ele><time>2026-03-29T13:40:20Z</time></trkpt><trkpt lat="45.925322482428705" lon="12.495037895919506"><ele>18.5</ele><time>2026-03-29T13:40:21Z</time></trkpt><trkpt lat="45.925391687029794" lon="12.494875028667646"><ele>19.0</ele><time>2026-03-29T13:40:22.001Z</time></trkpt><trkpt lat="45.92547779638514" lon="12.4947335151184"><ele>19.5</ele><time>2026-03-29T13:40:23.001Z</time></trkpt><trkpt lat="45.92558395681962" lon="12.494632335377604"><ele>20.0</ele><time>2026-03-29T13:40:24.001Z</time></trkpt><trkpt lat="45.92569896848236" lon="12.49457333806744"><ele>20.25</ele><time>2026-03-29T13:40:25.001Z</time></trkpt><trkpt lat="45.925820003176774" lon="12.494560087436136"><ele>20.5</ele><time>2026-03-29T13:40:26.001Z</time></trkpt><trkpt lat="45.925936440848226" lon="12.494578415395628"><ele>20.75</ele><time>2026-03-29T13:40:27.001Z</time></trkpt><trkpt lat="45.92605180171203" lon="12.494622699526964"><ele>21.0</ele><time>2026-03-29T13:40:28.001Z</time></trkpt><trkpt lat="45.92615928366136" lon="12.494711090081669"><ele>21.5</ele><time>2026-03-29T13:40:29.001Z</time></trkpt><trkpt lat="45.92626003845183" lon="12.494826923623352"><ele>22.0</ele><time>2026-03-29T13:40:30.001Z</time></trkpt><trkpt lat="45.92635195400815" lon="12.494973676049694"><ele>22.5</ele><time>2026-03-29T13:40:31.001Z</time></trkpt><trkpt lat="45.92643386236711" lon="12.495143617624018"><ele>23.0</ele><time>2026-03-29T13:40:32.001Z</time></trkpt><trkpt lat="45.92650409330068" lon="12.495333802311972"><ele>23.0</ele><time>2026-03-29T13:40:33.001Z</time></trkpt><trkpt lat="45.926556174873255" lon="12.495539630459106"><ele>23.0</ele><time>2026-03-29T13:40:34.001Z</time></trkpt><trkpt lat="45.92659661428186" lon="12.495762729127561"><ele>23.0</ele><time>2026-03-29T13:40:35.001Z</time></trkpt><trkpt lat="45.9266330085927" lon="12.495992159282855"><ele>23.0</ele><time>2026-03-29T13:40:36.001Z</time></trkpt><trkpt lat="45.92667126835883" lon="12.496233930113968"><ele>23.0</ele><time>2026-03-29T13:40:37.001Z</time></trkpt><trkpt lat="45.926712994600706" lon="12.496481883693992"><ele>23.0</ele><time>2026-03-29T13:40:38.001Z</time></trkpt><trkpt lat="45.92675727122041" lon="12.496734535043066"><ele>22.333333333333336</ele><time>2026-03-29T13:40:39.001Z</time></trkpt><trkpt lat="45.92680026126843" lon="12.496992971557967"><ele>21.666666666666668</ele><time>2026-03-29T13:40:40.001Z</time></trkpt><trkpt lat="45.926844046937326" lon="12.497254469294372"><ele>21.0</ele><time>2026-03-29T13:40:41.001Z</time></trkpt><trkpt lat="45.926886062048105" lon="12.497519296296325"><ele>20.666666666666668</ele><time>2026-03-29T13:40:42.001Z</time></trkpt><trkpt lat="45.926926936079944" lon="12.497787820770625"><ele>20.333333333333336</ele><time>2026-03-29T13:40:43.001Z</time></trkpt><trkpt lat="45.92696633756794" lon="12.498058770250026"><ele>20.0</ele><time>2026-03-29T13:40:44.001Z</time></trkpt><trkpt lat="45.927004631946524" lon="12.498332447155988"><ele>19.333333333333336</ele><time>2026-03-29T13:40:45.001Z</time></trkpt><trkpt lat="45.9270403093599" lon="12.498610127970625"><ele>18.666666666666668</ele><time>2026-03-29T13:40:46.001Z</time></trkpt><trkpt lat="45.92707479771162" lon="12.49889025835707"><ele>18.0</ele><time>2026-03-29T13:40:47.001Z</time></trkpt><trkpt lat="45.92710911744628" lon="12.499174019537747"><ele>17.666666666666668</ele><time>2026-03-29T13:40:48.001Z</time></trkpt><trkpt lat="45.927141359316536" lon="12.499461120146647"><ele>17.333333333333336</ele><time>2026-03-29T13:40:49.001Z</time></trkpt><trkpt lat="45.92717375360753" lon="12.49975638256576"><ele>17.0</ele><time>2026-03-29T13:40:50.001Z</time></trkpt><trkpt lat="45.927205719104386" lon="12.500058762153209"><ele>17.0</ele><time>2026-03-29T13:40:51.001Z</time></trkpt><trkpt lat="45.92723534943831" lon="12.500368591067543"><ele>17.0</ele><time>2026-03-29T13:40:52.001Z</time></trkpt><trkpt lat="45.92726455605018" lon="12.50068066864027"><ele>17.0</ele><time>2026-03-29T13:40:53.001Z</time></trkpt><trkpt lat="45.927299155678064" lon="12.501018684526057"><ele>17.0</ele><time>2026-03-29T13:40:54.001Z</time></trkpt><trkpt lat="45.92733756726004" lon="12.501382037338107"><ele>17.0</ele><time>2026-03-29T13:40:55.001Z</time></trkpt><trkpt lat="45.927377227175576" lon="12.50176653955834"><ele>17.0</ele><time>2026-03-29T13:40:56.001Z</time></trkpt><trkpt lat="45.927416764339775" lon="12.502181621578908"><ele>17.0</ele><time>2026-03-29T13:40:57.001Z</time></trkpt><trkpt lat="45.927454665050675" lon="12.50261149574612"><ele>18.0</ele><time>2026-03-29T13:40:58.001Z</time></trkpt><trkpt lat="45.92749102373565" lon="12.503057363698211"><ele>19.0</ele><time>2026-03-29T13:40:59.001Z</time></trkpt><trkpt lat="45.92752632818803" lon="12.503521931945803"><ele>20.0</ele><time>2026-03-29T13:41:00.001Z</time></trkpt><trkpt lat="45.92756371315671" lon="12.503991974646684"><ele>21.0</ele><time>2026-03-29T13:41:01.001Z</time></trkpt><trkpt lat="45.92760051678228" lon="12.504465917275587"><ele>19.5</ele><time>2026-03-29T13:41:02.001Z</time></trkpt><trkpt lat="45.92763490933192" lon="12.50492308840956"><ele>18.0</ele><time>2026-03-29T13:41:03.001Z</time></trkpt><trkpt lat="45.92767161256267" lon="12.505371904315943"><ele>18.0</ele><time>2026-03-29T13:41:04.001Z</time></trkpt><trkpt lat="45.927708311812786" lon="12.50581479056389"><ele>18.0</ele><time>2026-03-29T13:41:05.001Z</time></trkpt><trkpt lat="45.92774367305966" lon="12.50625240990323"><ele>17.5</ele><time>2026-03-29T13:41:06.001Z</time></trkpt><trkpt lat="45.92777747188046" lon="12.506684714675455"><ele>17.0</ele><time>2026-03-29T13:41:07.001Z</time></trkpt><trkpt lat="45.92781212217214" lon="12.50712098707729"><ele>16.5</ele><time>2026-03-29T13:41:08.001Z</time></trkpt><trkpt lat="45.92784778181808" lon="12.5075672374481"><ele>16.0</ele><time>2026-03-29T13:41:09.001Z</time></trkpt><trkpt lat="45.92788614427791" lon="12.50802564265725"><ele>17.0</ele><time>2026-03-29T13:41:10.001Z</time></trkpt><trkpt lat="45.92793048762528" lon="12.508492144554568"><ele>18.0</ele><time>2026-03-29T13:41:11.001Z</time></trkpt><trkpt lat="45.92798238347552" lon="12.508954672898806"><ele>18.0</ele><time>2026-03-29T13:41:12.001Z</time></trkpt><trkpt lat="45.92804053252103" lon="12.50941031685272"><ele>18.0</ele><time>2026-03-29T13:41:13.001Z</time></trkpt><trkpt lat="45.92810418906387" lon="12.509851216785604"><ele>17.0</ele><time>2026-03-29T13:41:14.001Z</time></trkpt><trkpt lat="45.92817676775209" lon="12.510282515611763"><ele>16.0</ele><time>2026-03-29T13:41:15.001Z</time></trkpt><trkpt lat="45.928259653939435" lon="12.510708607174807"><ele>16.0</ele><time>2026-03-29T13:41:16.001Z</time></trkpt><trkpt lat="45.92835415813779" lon="12.511133227956497"><ele>16.0</ele><time>2026-03-29T13:41:17.001Z</time></trkpt><trkpt lat="45.92846404332687" lon="12.511553712751153"><ele>16.0</ele><time>2026-03-29T13:41:18.001Z</time></trkpt><trkpt lat="45.92858693300609" lon="12.511977253451175"><ele>16.0</ele><time>2026-03-29T13:41:19.001Z</time></trkpt><trkpt lat="45.928718793654404" lon="12.512404376488668"><ele>16.5</ele><time>2026-03-29T13:41:20.001Z</time></trkpt><trkpt lat="45.9288625414632" lon="12.512834608474323"><ele>17.0</ele><time>2026-03-29T13:41:21.001Z</time></trkpt><trkpt lat="45.92902015338564" lon="12.513256480144452"><ele>17.0</ele><time>2026-03-29T13:41:22.001Z</time></trkpt><trkpt lat="45.92919099827393" lon="12.513669380575163"><ele>17.0</ele><time>2026-03-29T13:41:23.001Z</time></trkpt><trkpt lat="45.929376288344486" lon="12.514071183530136"><ele>17.0</ele><time>2026-03-29T13:41:24.001Z</time></trkpt><trkpt lat="45.929568360517806" lon="12.514450727488194"><ele>17.0</ele><time>2026-03-29T13:41:25.002Z</time></trkpt><trkpt lat="45.92976832228066" lon="12.514827279649843"><ele>18.0</ele><time>2026-03-29T13:41:26.002Z</time></trkpt><trkpt lat="45.92998100373023" lon="12.515199344295562"><ele>19.0</ele><time>2026-03-29T13:41:27Z</time></trkpt><trkpt lat="45.93019906555508" lon="12.515566285861025"><ele>19.0</ele><time>2026-03-29T13:41:28Z</time></trkpt><trkpt lat="45.93042173949867" lon="12.515928684342532"><ele>19.0</ele><time>2026-03-29T13:41:29Z</time></trkpt><trkpt lat="45.930640366598084" lon="12.516284111489899"><ele>19.5</ele><time>2026-03-29T13:41:30Z</time></trkpt><trkpt lat="45.930854467474944" lon="12.516630398847886"><ele>20.0</ele><time>2026-03-29T13:41:31Z</time></trkpt><trkpt lat="45.93106904278424" lon="12.516971435219066"><ele>20.0</ele><time>2026-03-29T13:41:32Z</time></trkpt><trkpt lat="45.93130778189212" lon="12.517327192102615"><ele>20.0</ele><time>2026-03-29T13:41:33Z</time></trkpt><trkpt lat="45.93153208845374" lon="12.517661680773655"><ele>18.5</ele><time>2026-03-29T13:41:34Z</time></trkpt><trkpt lat="45.931756898254584" lon="12.517992951230314"><ele>17.0</ele><time>2026-03-29T13:41:35Z</time></trkpt><trkpt lat="45.93198156399256" lon="12.518329552382806"><ele>17.0</ele><time>2026-03-29T13:41:36Z</time></trkpt><trkpt lat="45.93220742053976" lon="12.51867142523772"><ele>17.0</ele><time>2026-03-29T13:41:37Z</time></trkpt><trkpt lat="45.932427653857765" lon="12.519010623832134"><ele>18.0</ele><time>2026-03-29T13:41:38Z</time></trkpt><trkpt lat="45.93264881874446" lon="12.519337074247074"><ele>19.0</ele><time>2026-03-29T13:41:39Z</time></trkpt><trkpt lat="45.93287162370914" lon="12.519657223570471"><ele>19.0</ele><time>2026-03-29T13:41:40Z</time></trkpt><trkpt lat="45.93309087587986" lon="12.519983197676915"><ele>19.0</ele><time>2026-03-29T13:41:41Z</time></trkpt><trkpt lat="45.93331164973441" lon="12.520314200081472"><ele>19.0</ele><time>2026-03-29T13:41:42Z</time></trkpt><trkpt lat="45.93353600475013" lon="12.520649075545528"><ele>19.0</ele><time>2026-03-29T13:41:43Z</time></trkpt><trkpt lat="45.933760344495155" lon="12.520984870822259"><ele>19.0</ele><time>2026-03-29T13:41:44Z</time></trkpt><trkpt lat="45.933991106818006" lon="12.521319582849781"><ele>19.0</ele><time>2026-03-29T13:41:45Z</time></trkpt><trkpt lat="45.934219256688095" lon="12.52165965580842"><ele>19.0</ele><time>2026-03-29T13:41:46Z</time></trkpt><trkpt lat="45.93444864528032" lon="12.521997654788715"><ele>19.0</ele><time>2026-03-29T13:41:47Z</time></trkpt><trkpt lat="45.934667874645186" lon="12.522342186244016"><ele>19.0</ele><time>2026-03-29T13:41:48Z</time></trkpt><trkpt lat="45.934892433579435" lon="12.522676518970544"><ele>19.0</ele><time>2026-03-29T13:41:49Z</time></trkpt><trkpt lat="45.9351054951648" lon="12.523001287759305"><ele>19.0</ele><time>2026-03-29T13:41:50Z</time></trkpt><trkpt lat="45.935314175715284" lon="12.52331833143977"><ele>19.0</ele><time>2026-03-29T13:41:51Z</time></trkpt><trkpt lat="45.93551886338702" lon="12.523631415958468"><ele>19.5</ele><time>2026-03-29T13:41:52Z</time></trkpt><trkpt lat="45.93571653825278" lon="12.52393881795802"><ele>20.0</ele><time>2026-03-29T13:41:53Z</time></trkpt><trkpt lat="45.93592112948906" lon="12.524241491333758"><ele>19.0</ele><time>2026-03-29T13:41:54Z</time></trkpt><trkpt lat="45.93612283070277" lon="12.524539372932828"><ele>18.0</ele><time>2026-03-29T13:41:55Z</time></trkpt><trkpt lat="45.936319380761944" lon="12.524832563332394"><ele>18.0</ele><time>2026-03-29T13:41:56Z</time></trkpt><trkpt lat="45.93652004066308" lon="12.525130888062801"><ele>18.0</ele><time>2026-03-29T13:41:57Z</time></trkpt><trkpt lat="45.936718551239466" lon="12.525429912411786"><ele>19.5</ele><time>2026-03-29T13:41:58Z</time></trkpt><trkpt lat="45.93691817023136" lon="12.525735172908472"><ele>21.0</ele><time>2026-03-29T13:41:59Z</time></trkpt><trkpt lat="45.937116830499406" lon="12.526041962385465"><ele>21.0</ele><time>2026-03-29T13:42:00Z</time></trkpt><trkpt lat="45.93731852732928" lon="12.526345574903448"><ele>21.0</ele><time>2026-03-29T13:42:01Z</time></trkpt><trkpt lat="45.93752072231713" lon="12.526649740596383"><ele>22.0</ele><time>2026-03-29T13:42:02Z</time></trkpt><trkpt lat="45.93772088276191" lon="12.526952176745832"><ele>23.0</ele><time>2026-03-29T13:42:03Z</time></trkpt><trkpt lat="45.937916581301316" lon="12.527257941486416"><ele>23.0</ele><time>2026-03-29T13:42:04Z</time></trkpt><trkpt lat="45.938112383984695" lon="12.52756739496883"><ele>23.0</ele><time>2026-03-29T13:42:05Z</time></trkpt><trkpt lat="45.93830041326984" lon="12.527882641633841"><ele>22.0</ele><time>2026-03-29T13:42:06Z</time></trkpt><trkpt lat="45.93849191037617" lon="12.528192556113686"><ele>21.0</ele><time>2026-03-29T13:42:07Z</time></trkpt><trkpt lat="45.938677157921155" lon="12.528512851829953"><ele>22.5</ele><time>2026-03-29T13:42:08Z</time></trkpt><trkpt lat="45.93886243941518" lon="12.528833138481808"><ele>24.0</ele><time>2026-03-29T13:42:09Z</time></trkpt><trkpt lat="45.93904783963977" lon="12.529157093886134"><ele>23.0</ele><time>2026-03-29T13:42:10Z</time></trkpt><trkpt lat="45.93922869823762" lon="12.529486592375074"><ele>22.0</ele><time>2026-03-29T13:42:11Z</time></trkpt><trkpt lat="45.93940321808551" lon="12.529823377492951"><ele>22.0</ele><time>2026-03-29T13:42:12Z</time></trkpt><trkpt lat="45.93957528107504" lon="12.53016958073954"><ele>22.0</ele><time>2026-03-29T13:42:13Z</time></trkpt><trkpt lat="45.93974494271939" lon="12.530524116367037"><ele>22.0</ele><time>2026-03-29T13:42:14Z</time></trkpt><trkpt lat="45.93990925481729" lon="12.530891566033333"><ele>22.0</ele><time>2026-03-29T13:42:15Z</time></trkpt><trkpt lat="45.9400645153985" lon="12.531266080423652"><ele>22.5</ele><time>2026-03-29T13:42:16Z</time></trkpt><trkpt lat="45.9402084874621" lon="12.531651330919011"><ele>23.0</ele><time>2026-03-29T13:42:17Z</time></trkpt><trkpt lat="45.94035234587605" lon="12.532037156860026"><ele>23.5</ele><time>2026-03-29T13:42:18Z</time></trkpt><trkpt lat="45.94049600041705" lon="12.532425924085146"><ele>24.0</ele><time>2026-03-29T13:42:19.001Z</time></trkpt><trkpt lat="45.940626602739634" lon="12.532818632853473"><ele>23.0</ele><time>2026-03-29T13:42:20.001Z</time></trkpt><trkpt lat="45.94074716337643" lon="12.533219405458363"><ele>22.0</ele><time>2026-03-29T13:42:21.001Z</time></trkpt><trkpt lat="45.940863920444464" lon="12.533620916485749"><ele>24.0</ele><time>2026-03-29T13:42:22.001Z</time></trkpt><trkpt lat="45.94097519421597" lon="12.534021670392516"><ele>26.0</ele><time>2026-03-29T13:42:23.001Z</time></trkpt><trkpt lat="45.941075745467685" lon="12.534421968125342"><ele>26.0</ele><time>2026-03-29T13:42:24.001Z</time></trkpt><trkpt lat="45.94116786473447" lon="12.534825095244312"><ele>26.0</ele><time>2026-03-29T13:42:25.001Z</time></trkpt><trkpt lat="45.94125087217408" lon="12.535230325406046"><ele>25.0</ele><time>2026-03-29T13:42:26.001Z</time></trkpt><trkpt lat="45.94132876791167" lon="12.535636993704376"><ele>24.0</ele><time>2026-03-29T13:42:27.001Z</time></trkpt><trkpt lat="45.94139639896558" lon="12.536048779721972"><ele>25.0</ele><time>2026-03-29T13:42:28.001Z</time></trkpt><trkpt lat="45.941458286772814" lon="12.536457125698519"><ele>26.0</ele><time>2026-03-29T13:42:29.001Z</time></trkpt><trkpt lat="45.94151170395976" lon="12.536871221600762"><ele>26.0</ele><time>2026-03-29T13:42:30.001Z</time></trkpt><trkpt lat="45.94155702389825" lon="12.53728565453669"><ele>26.0</ele><time>2026-03-29T13:42:31.001Z</time></trkpt><trkpt lat="45.941595848764756" lon="12.537703380047692"><ele>24.5</ele><time>2026-03-29T13:42:32.001Z</time></trkpt><trkpt lat="45.94162687435221" lon="12.538118825593877"><ele>23.0</ele><time>2026-03-29T13:42:33.001Z</time></trkpt><trkpt lat="45.941653707383956" lon="12.538537369949134"><ele>23.5</ele><time>2026-03-29T13:42:34.001Z</time></trkpt><trkpt lat="45.941672438860316" lon="12.538955592602823"><ele>24.0</ele><time>2026-03-29T13:42:35.001Z</time></trkpt><trkpt lat="45.94168573672553" lon="12.539374930565563"><ele>24.0</ele><time>2026-03-29T13:42:36.001Z</time></trkpt><trkpt lat="45.94168723718172" lon="12.539798686495049"><ele>24.0</ele><time>2026-03-29T13:42:37.001Z</time></trkpt><trkpt lat="45.941676874928255" lon="12.540241550823886"><ele>25.0</ele><time>2026-03-29T13:42:38.001Z</time></trkpt><trkpt lat="45.94166105238228" lon="12.540697706653647"><ele>26.0</ele><time>2026-03-29T13:42:39.001Z</time></trkpt><trkpt lat="45.941639405721084" lon="12.541163076910772"><ele>26.0</ele><time>2026-03-29T13:42:40.001Z</time></trkpt><trkpt lat="45.941612373166514" lon="12.541621085696237"><ele>26.0</ele><time>2026-03-29T13:42:41.001Z</time></trkpt><trkpt lat="45.94157975716024" lon="12.54207271226148"><ele>25.0</ele><time>2026-03-29T13:42:42.001Z</time></trkpt><trkpt lat="45.941536875084054" lon="12.542514847821744"><ele>24.0</ele><time>2026-03-29T13:42:43.001Z</time></trkpt><trkpt lat="45.94148796322606" lon="12.54295005572891"><ele>23.5</ele><time>2026-03-29T13:42:44.001Z</time></trkpt><trkpt lat="45.94143474268544" lon="12.543381145570066"><ele>23.0</ele><time>2026-03-29T13:42:45.001Z</time></trkpt><trkpt lat="45.941380182781344" lon="12.543796198867776"><ele>23.0</ele><time>2026-03-29T13:42:46.001Z</time></trkpt><trkpt lat="45.94132018527513" lon="12.544197208372147"><ele>23.0</ele><time>2026-03-29T13:42:47.001Z</time></trkpt><trkpt lat="45.941255650893225" lon="12.54458982813014"><ele>23.5</ele><time>2026-03-29T13:42:48.001Z</time></trkpt><trkpt lat="45.9411898863126" lon="12.544976183044849"><ele>24.0</ele><time>2026-03-29T13:42:49.001Z</time></trkpt><trkpt lat="45.94112615913106" lon="12.545361565716123"><ele>24.5</ele><time>2026-03-29T13:42:50.001Z</time></trkpt><trkpt lat="45.94106321896202" lon="12.545742744897767"><ele>25.0</ele><time>2026-03-29T13:42:51.001Z</time></trkpt><trkpt lat="45.94099946556786" lon="12.54612497757328"><ele>24.5</ele><time>2026-03-29T13:42:52.001Z</time></trkpt><trkpt lat="45.940934262169755" lon="12.546502410545433"><ele>24.0</ele><time>2026-03-29T13:42:53.001Z</time></trkpt><trkpt lat="45.94086653830345" lon="12.546877944966191"><ele>23.5</ele><time>2026-03-29T13:42:54.001Z</time></trkpt><trkpt lat="45.940795476021314" lon="12.547253399133364"><ele>23.0</ele><time>2026-03-29T13:42:55.001Z</time></trkpt><trkpt lat="45.94072020425524" lon="12.547631590700302"><ele>22.5</ele><time>2026-03-29T13:42:56.001Z</time></trkpt><trkpt lat="45.94064904902161" lon="12.54801391384195"><ele>22.0</ele><time>2026-03-29T13:42:57.001Z</time></trkpt><trkpt lat="45.94058506375629" lon="12.548378165720653"><ele>22.5</ele><time>2026-03-29T13:42:58.001Z</time></trkpt><trkpt lat="45.94052498427848" lon="12.548737285958408"><ele>23.0</ele><time>2026-03-29T13:42:59.001Z</time></trkpt><trkpt lat="45.9404628767072" lon="12.549093767017537"><ele>23.0</ele><time>2026-03-29T13:43:00.001Z</time></trkpt><trkpt lat="45.940405673749304" lon="12.549447579564905"><ele>23.0</ele><time>2026-03-29T13:43:01.001Z</time></trkpt><trkpt lat="45.94035310124162" lon="12.549801312847421"><ele>23.0</ele><time>2026-03-29T13:43:02.001Z</time></trkpt><trkpt lat="45.94030481908468" lon="12.550151987514926"><ele>23.0</ele><time>2026-03-29T13:43:03.001Z</time></trkpt><trkpt lat="45.940259606700415" lon="12.550505639859042"><ele>23.0</ele><time>2026-03-29T13:43:04.001Z</time></trkpt><trkpt lat="45.9402191751861" lon="12.550856603262309"><ele>23.0</ele><time>2026-03-29T13:43:05.001Z</time></trkpt><trkpt lat="45.94018515682764" lon="12.551208579854313"><ele>23.0</ele><time>2026-03-29T13:43:06.001Z</time></trkpt><trkpt lat="45.94015663934389" lon="12.551559431281904"><ele>23.0</ele><time>2026-03-29T13:43:07.001Z</time></trkpt><trkpt lat="45.94013422969796" lon="12.551914577749118"><ele>23.5</ele><time>2026-03-29T13:43:08.001Z</time></trkpt><trkpt lat="45.940118061481144" lon="12.552262665211403"><ele>24.0</ele><time>2026-03-29T13:43:09.001Z</time></trkpt><trkpt lat="45.94010659620877" lon="12.552619262902633"><ele>24.0</ele><time>2026-03-29T13:43:10.001Z</time></trkpt><trkpt lat="45.94010186922627" lon="12.552972494144173"><ele>24.0</ele><time>2026-03-29T13:43:11.001Z</time></trkpt><trkpt lat="45.94010203882142" lon="12.553328159132127"><ele>24.0</ele><time>2026-03-29T13:43:12.001Z</time></trkpt><trkpt lat="45.9401105377383" lon="12.553683029269648"><ele>24.0</ele><time>2026-03-29T13:43:13.001Z</time></trkpt><trkpt lat="45.94012612986745" lon="12.554042120930713"><ele>23.5</ele><time>2026-03-29T13:43:14.001Z</time></trkpt><trkpt lat="45.940144634340434" lon="12.554396784462206"><ele>23.0</ele><time>2026-03-29T13:43:15.001Z</time></trkpt><trkpt lat="45.94017090439352" lon="12.554757367960796"><ele>23.0</ele><time>2026-03-29T13:43:16.001Z</time></trkpt><trkpt lat="45.940201683589024" lon="12.55511809263128"><ele>23.0</ele><time>2026-03-29T13:43:17.001Z</time></trkpt><trkpt lat="45.94024365738561" lon="12.555476834674588"><ele>23.0</ele><time>2026-03-29T13:43:18.001Z</time></trkpt><trkpt lat="45.94029285743057" lon="12.55583997291573"><ele>23.0</ele><time>2026-03-29T13:43:19.002Z</time></trkpt><trkpt lat="45.94034277946997" lon="12.55620346287668"><ele>23.5</ele><time>2026-03-29T13:43:20.002Z</time></trkpt><trkpt lat="45.940402343349085" lon="12.556567459713968"><ele>24.0</ele><time>2026-03-29T13:43:21.002Z</time></trkpt><trkpt lat="45.94046501018957" lon="12.556931667724605"><ele>23.5</ele><time>2026-03-29T13:43:22.002Z</time></trkpt><trkpt lat="45.94053561260833" lon="12.557294748490918"><ele>23.0</ele><time>2026-03-29T13:43:23.002Z</time></trkpt><trkpt lat="45.940609855900696" lon="12.557657936685478"><ele>22.5</ele><time>2026-03-29T13:43:24.002Z</time></trkpt><trkpt lat="45.94068994001295" lon="12.558021512869017"><ele>22.0</ele><time>2026-03-29T13:43:25.002Z</time></trkpt><trkpt lat="45.940771795354664" lon="12.558387078391238"><ele>22.5</ele><time>2026-03-29T13:43:26.002Z</time></trkpt><trkpt lat="45.940857271555046" lon="12.55875337166034"><ele>23.0</ele><time>2026-03-29T13:43:27.002Z</time></trkpt><trkpt lat="45.940942209956006" lon="12.559115330690334"><ele>23.0</ele><time>2026-03-29T13:43:28.002Z</time></trkpt><trkpt lat="45.94103147438925" lon="12.559487877263493"><ele>23.0</ele><time>2026-03-29T13:43:29.002Z</time></trkpt><trkpt lat="45.941119945617984" lon="12.559854042154855"><ele>23.0</ele><time>2026-03-29T13:43:30.002Z</time></trkpt><trkpt lat="45.941207539467094" lon="12.560223162560334"><ele>23.0</ele><time>2026-03-29T13:43:31.002Z</time></trkpt><trkpt lat="45.94129571076693" lon="12.560588399586095"><ele>23.0</ele><time>2026-03-29T13:43:32.002Z</time></trkpt><trkpt lat="45.94138559022648" lon="12.560956258406781"><ele>23.0</ele><time>2026-03-29T13:43:33Z</time></trkpt><trkpt lat="45.94147375512236" lon="12.561322703927628"><ele>24.0</ele><time>2026-03-29T13:43:34Z</time></trkpt><trkpt lat="45.94156110092275" lon="12.561690114443826"><ele>25.0</ele><time>2026-03-29T13:43:35Z</time></trkpt><trkpt lat="45.941647833145296" lon="12.562059367015719"><ele>25.0</ele><time>2026-03-29T13:43:36Z</time></trkpt><trkpt lat="45.94173676238825" lon="12.562426970383951"><ele>25.0</ele><time>2026-03-29T13:43:37Z</time></trkpt><trkpt lat="45.941825915657645" lon="12.56279297305304"><ele>24.5</ele><time>2026-03-29T13:43:38Z</time></trkpt><trkpt lat="45.94191486047962" lon="12.563158034575233"><ele>24.0</ele><time>2026-03-29T13:43:39Z</time></trkpt><trkpt lat="45.9420038287421" lon="12.563524970454704"><ele>23.5</ele><time>2026-03-29T13:43:40Z</time></trkpt><trkpt lat="45.94209174440656" lon="12.563891610229156"><ele>23.0</ele><time>2026-03-29T13:43:41Z</time></trkpt><trkpt lat="45.94218407916494" lon="12.564254764182433"><ele>22.5</ele><time>2026-03-29T13:43:42Z</time></trkpt><trkpt lat="45.942271938481205" lon="12.564621737392622"><ele>22.0</ele><time>2026-03-29T13:43:43Z</time></trkpt><trkpt lat="45.94236027850793" lon="12.564990430964317"><ele>22.0</ele><time>2026-03-29T13:43:44Z</time></trkpt><trkpt lat="45.94244989016864" lon="12.565356799158485"><ele>22.0</ele><time>2026-03-29T13:43:45Z</time></trkpt><trkpt lat="45.942537514100984" lon="12.565721927689738"><ele>22.0</ele><time>2026-03-29T13:43:46Z</time></trkpt><trkpt lat="45.94262655714608" lon="12.56608425445628"><ele>22.0</ele><time>2026-03-29T13:43:47Z</time></trkpt><trkpt lat="45.94271372816316" lon="12.566445362845721"><ele>22.5</ele><time>2026-03-29T13:43:48Z</time></trkpt><trkpt lat="45.942800764469524" lon="12.56680309228291"><ele>23.0</ele><time>2026-03-29T13:43:49Z</time></trkpt><trkpt lat="45.94288582615121" lon="12.567158943755679"><ele>23.5</ele><time>2026-03-29T13:43:50Z</time></trkpt><trkpt lat="45.942970747105804" lon="12.567513639992981"><ele>24.0</ele><time>2026-03-29T13:43:51Z</time></trkpt><trkpt lat="45.94305558416082" lon="12.567866169577972"><ele>24.0</ele><time>2026-03-29T13:43:52Z</time></trkpt><trkpt lat="45.943142572519044" lon="12.56821819992103"><ele>24.0</ele><time>2026-03-29T13:43:53Z</time></trkpt><trkpt lat="45.94324086564407" lon="12.56856636902653"><ele>23.0</ele><time>2026-03-29T13:43:54Z</time></trkpt><trkpt lat="45.94331458215457" lon="12.568930877703254"><ele>22.0</ele><time>2026-03-29T13:43:55Z</time></trkpt><trkpt lat="45.9433996542558" lon="12.5692886270233"><ele>21.5</ele><time>2026-03-29T13:43:56Z</time></trkpt><trkpt lat="45.9434867836474" lon="12.569647818936474"><ele>21.0</ele><time>2026-03-29T13:43:57Z</time></trkpt><trkpt lat="45.94357265791206" lon="12.570004222523307"><ele>21.0</ele><time>2026-03-29T13:43:58Z</time></trkpt><trkpt lat="45.94365860929814" lon="12.57035547622378"><ele>21.0</ele><time>2026-03-29T13:43:59Z</time></trkpt><trkpt lat="45.943738248248955" lon="12.570700251074067"><ele>20.5</ele><time>2026-03-29T13:44:00Z</time></trkpt><trkpt lat="45.94381669184402" lon="12.571043517898033"><ele>20.0</ele><time>2026-03-29T13:44:01Z</time></trkpt><trkpt lat="45.9438919298867" lon="12.571380658616942"><ele>19.5</ele><time>2026-03-29T13:44:02Z</time></trkpt><trkpt lat="45.943967358343976" lon="12.571718179101929"><ele>19.0</ele><time>2026-03-29T13:44:03Z</time></trkpt><trkpt lat="45.94404392884659" lon="12.57205125718613"><ele>18.5</ele><time>2026-03-29T13:44:04Z</time></trkpt><trkpt lat="45.944126386976464" lon="12.572398732144425"><ele>18.0</ele><time>2026-03-29T13:44:05Z</time></trkpt><trkpt lat="45.94420185912386" lon="12.572713539376396"><ele>18.333333333333332</ele><time>2026-03-29T13:44:06Z</time></trkpt><trkpt lat="45.94427506258278" lon="12.573021277790216"><ele>18.666666666666664</ele><time>2026-03-29T13:44:07Z</time></trkpt><trkpt lat="45.94434746294406" lon="12.573311778443019"><ele>19.0</ele><time>2026-03-29T13:44:08Z</time></trkpt><trkpt lat="45.94441476005915" lon="12.573590954418982"><ele>19.333333333333332</ele><time>2026-03-29T13:44:09Z</time></trkpt><trkpt lat="45.94447127395034" lon="12.573850525630725"><ele>19.666666666666668</ele><time>2026-03-29T13:44:10.001Z</time></trkpt><trkpt lat="45.94451478241418" lon="12.574090229121522"><ele>20.0</ele><time>2026-03-29T13:44:11.001Z</time></trkpt><trkpt lat="45.94454528277033" lon="12.574324203958186"><ele>20.0</ele><time>2026-03-29T13:44:12.001Z</time></trkpt><trkpt lat="45.94455085456655" lon="12.57454321838678"><ele>20.0</ele><time>2026-03-29T13:44:13.001Z</time></trkpt><trkpt lat="45.94453352662746" lon="12.574753218705991"><ele>20.0</ele><time>2026-03-29T13:44:14.001Z</time></trkpt><trkpt lat="45.94450011551252" lon="12.574958015413962"><ele>20.0</ele><time>2026-03-29T13:44:15.001Z</time></trkpt><trkpt lat="45.94444603869053" lon="12.575170156156913"><ele>20.333333333333336</ele><time>2026-03-29T13:44:16.001Z</time></trkpt><trkpt lat="45.94436633504841" lon="12.575389290580675"><ele>20.666666666666668</ele><time>2026-03-29T13:44:17.001Z</time></trkpt><trkpt lat="45.94425468116697" lon="12.575629293519146"><ele>21.0</ele><time>2026-03-29T13:44:18.001Z</time></trkpt><trkpt lat="45.94414125890511" lon="12.57585735105385"><ele>21.333333333333332</ele><time>2026-03-29T13:44:19.001Z</time></trkpt><trkpt lat="45.94404215426689" lon="12.5760584372292"><ele>21.666666666666664</ele><time>2026-03-29T13:44:20.001Z</time></trkpt><trkpt lat="45.94397220524717" lon="12.576260803596833"><ele>22.0</ele><time>2026-03-29T13:44:21.001Z</time></trkpt><trkpt lat="45.94393535913685" lon="12.576450905268764"><ele>22.0</ele><time>2026-03-29T13:44:22.001Z</time></trkpt><trkpt lat="45.943930683648894" lon="12.576622928110789"><ele>22.0</ele><time>2026-03-29T13:44:23.001Z</time></trkpt><trkpt lat="45.94394869661713" lon="12.576786027969746"><ele>22.0</ele><time>2026-03-29T13:44:24.001Z</time></trkpt><trkpt lat="45.94399072201196" lon="12.576939265430541"><ele>22.0</ele><time>2026-03-29T13:44:25.001Z</time></trkpt><trkpt lat="45.944049291357445" lon="12.577076929397261"><ele>22.25</ele><time>2026-03-29T13:44:26.001Z</time></trkpt><trkpt lat="45.94412635851514" lon="12.577199782447043"><ele>22.5</ele><time>2026-03-29T13:44:27.001Z</time></trkpt><trkpt lat="45.944222348596796" lon="12.577294533455833"><ele>22.75</ele><time>2026-03-29T13:44:28.001Z</time></trkpt><trkpt lat="45.94433357178834" lon="12.577363432260302"><ele>23.0</ele><time>2026-03-29T13:44:29.001Z</time></trkpt><trkpt lat="45.94445460717908" lon="12.577410362033767"><ele>23.0</ele><time>2026-03-29T13:44:30.001Z</time></trkpt><trkpt lat="45.944583466123774" lon="12.577426280893015"><ele>23.0</ele><time>2026-03-29T13:44:31.001Z</time></trkpt><trkpt lat="45.944724988473475" lon="12.577413388632957"><ele>23.0</ele><time>2026-03-29T13:44:32.001Z</time></trkpt><trkpt lat="45.94486683947072" lon="12.57737381003706"><ele>23.0</ele><time>2026-03-29T13:44:33.001Z</time></trkpt><trkpt lat="45.9449902044072" lon="12.577316171942226"><ele>23.0</ele><time>2026-03-29T13:44:34.001Z</time></trkpt><trkpt lat="45.94510495062964" lon="12.577257580402748"><ele>23.0</ele><time>2026-03-29T13:44:35.001Z</time></trkpt><trkpt lat="45.94521594018482" lon="12.577199979684156"><ele>23.0</ele><time>2026-03-29T13:44:36.001Z</time></trkpt><trkpt lat="45.945322440300465" lon="12.57714386825987"><ele>23.0</ele><time>2026-03-29T13:44:37.001Z</time></trkpt><trkpt lat="45.945427475082816" lon="12.577087446337181"><ele>23.0</ele><time>2026-03-29T13:44:38.001Z</time></trkpt><trkpt lat="45.94553262841096" lon="12.577036701614068"><ele>23.0</ele><time>2026-03-29T13:44:39.001Z</time></trkpt><trkpt lat="45.945635933149724" lon="12.576989723366232"><ele>23.0</ele><time>2026-03-29T13:44:40.001Z</time></trkpt><trkpt lat="45.945738443827324" lon="12.576940529586851"><ele>23.0</ele><time>2026-03-29T13:44:41.001Z</time></trkpt><trkpt lat="45.945832727858104" lon="12.576897456007739"><ele>23.0</ele><time>2026-03-29T13:44:42.001Z</time></trkpt><trkpt lat="45.94592526106486" lon="12.576864918479773"><ele>23.599999999999998</ele><time>2026-03-29T13:44:43.001Z</time></trkpt><trkpt lat="45.946027208791136" lon="12.576832905964102"><ele>24.2</ele><time>2026-03-29T13:44:44.001Z</time></trkpt><trkpt lat="45.94613811840465" lon="12.5768025194402"><ele>24.8</ele><time>2026-03-29T13:44:45.001Z</time></trkpt><trkpt lat="45.94625463276803" lon="12.576786453930604"><ele>25.4</ele><time>2026-03-29T13:44:46.001Z</time></trkpt><trkpt lat="45.946360835907974" lon="12.576775228074487"><ele>26.0</ele><time>2026-03-29T13:44:47.001Z</time></trkpt><trkpt lat="45.94646664052535" lon="12.576766433244032"><ele>26.0</ele><time>2026-03-29T13:44:48.001Z</time></trkpt><trkpt lat="45.946584769482186" lon="12.576766027176303"><ele>26.0</ele><time>2026-03-29T13:44:49.001Z</time></trkpt><trkpt lat="45.94671504306779" lon="12.576784832111354"><ele>26.0</ele><time>2026-03-29T13:44:50.001Z</time></trkpt><trkpt lat="45.94685312580652" lon="12.576812897537735"><ele>26.0</ele><time>2026-03-29T13:44:51.001Z</time></trkpt><trkpt lat="45.94698409828122" lon="12.576846316252425"><ele>25.5</ele><time>2026-03-29T13:44:52.001Z</time></trkpt><trkpt lat="45.94710474694637" lon="12.57688574186749"><ele>25.0</ele><time>2026-03-29T13:44:53.001Z</time></trkpt><trkpt lat="45.9472162844556" lon="12.576937850382759"><ele>24.5</ele><time>2026-03-29T13:44:54.001Z</time></trkpt><trkpt lat="45.9473211132519" lon="12.576997972872142"><ele>24.0</ele><time>2026-03-29T13:44:55.001Z</time></trkpt><trkpt lat="45.947427769541875" lon="12.57706915872273"><ele>24.0</ele><time>2026-03-29T13:44:56.001Z</time></trkpt><trkpt lat="45.94753745969544" lon="12.577149023241205"><ele>24.0</ele><time>2026-03-29T13:44:57.001Z</time></trkpt><trkpt lat="45.947648897291764" lon="12.577238406444053"><ele>24.0</ele><time>2026-03-29T13:44:58.001Z</time></trkpt><trkpt lat="45.947764113014905" lon="12.577337983924929"><ele>24.0</ele><time>2026-03-29T13:44:59.001Z</time></trkpt><trkpt lat="45.947879354499364" lon="12.57744973800923"><ele>24.0</ele><time>2026-03-29T13:45:00.001Z</time></trkpt><trkpt lat="45.947993019287225" lon="12.577569272759355"><ele>24.0</ele><time>2026-03-29T13:45:01.001Z</time></trkpt><trkpt lat="45.94810718107427" lon="12.577687173266218"><ele>24.0</ele><time>2026-03-29T13:45:02.001Z</time></trkpt><trkpt lat="45.948227181907924" lon="12.57781084436386"><ele>24.0</ele><time>2026-03-29T13:45:03.001Z</time></trkpt><trkpt lat="45.948350630167724" lon="12.577940020528782"><ele>23.666666666666668</ele><time>2026-03-29T13:45:04.001Z</time></trkpt><trkpt lat="45.94847932206801" lon="12.578075532810677"><ele>23.333333333333336</ele><time>2026-03-29T13:45:05.001Z</time></trkpt><trkpt lat="45.94861374816074" lon="12.578215490733696"><ele>23.0</ele><time>2026-03-29T13:45:06.001Z</time></trkpt><trkpt lat="45.948752094638316" lon="12.578355256166468"><ele>23.0</ele><time>2026-03-29T13:45:07.001Z</time></trkpt><trkpt lat="45.9488884851079" lon="12.578494579689536"><ele>23.0</ele><time>2026-03-29T13:45:08.001Z</time></trkpt><trkpt lat="45.94902066815309" lon="12.578630415961932"><ele>23.0</ele><time>2026-03-29T13:45:09.001Z</time></trkpt><trkpt lat="45.94914224661801" lon="12.578754507343444"><ele>23.666666666666668</ele><time>2026-03-29T13:45:10.001Z</time></trkpt><trkpt lat="45.9492671141267" lon="12.578878146652546"><ele>24.333333333333336</ele><time>2026-03-29T13:45:11.002Z</time></trkpt><trkpt lat="45.949397168379754" lon="12.578997423267055"><ele>25.0</ele><time>2026-03-29T13:45:12.002Z</time></trkpt><trkpt lat="45.94953065056758" lon="12.579111659107486"><ele>25.0</ele><time>2026-03-29T13:45:13.002Z</time></trkpt><trkpt lat="45.94966575725132" lon="12.579221573609857"><ele>25.0</ele><time>2026-03-29T13:45:14.002Z</time></trkpt><trkpt lat="45.949804407562844" lon="12.579328354899634"><ele>25.0</ele><time>2026-03-29T13:45:15.002Z</time></trkpt><trkpt lat="45.94994700076179" lon="12.579429624988395"><ele>24.666666666666668</ele><time>2026-03-29T13:45:16.002Z</time></trkpt><trkpt lat="45.95009241551219" lon="12.579528378724547"><ele>24.333333333333336</ele><time>2026-03-29T13:45:17.002Z</time></trkpt><trkpt lat="45.95023776882524" lon="12.579634076114257"><ele>24.0</ele><time>2026-03-29T13:45:18.002Z</time></trkpt><trkpt lat="45.95037962512565" lon="12.579741626435517"><ele>24.0</ele><time>2026-03-29T13:45:19.002Z</time></trkpt><trkpt lat="45.95052258097345" lon="12.57984763180661"><ele>24.0</ele><time>2026-03-29T13:45:20.002Z</time></trkpt><trkpt lat="45.9506673007174" lon="12.579952685453428"><ele>24.0</ele><time>2026-03-29T13:45:21.002Z</time></trkpt><trkpt lat="45.950813601583455" lon="12.580055748104105"><ele>24.333333333333336</ele><time>2026-03-29T13:45:22.002Z</time></trkpt><trkpt lat="45.95095989890233" lon="12.58015816970222"><ele>24.666666666666668</ele><time>2026-03-29T13:45:23.002Z</time></trkpt><trkpt lat="45.9511058797705" lon="12.580261868838296"><ele>25.0</ele><time>2026-03-29T13:45:24.002Z</time></trkpt><trkpt lat="45.951251796942366" lon="12.580369315160393"><ele>26.0</ele><time>2026-03-29T13:45:25.002Z</time></trkpt><trkpt lat="45.95139756578562" lon="12.580481321894002"><ele>27.0</ele><time>2026-03-29T13:45:26.002Z</time></trkpt><trkpt lat="45.95154788292674" lon="12.580592441754614"><ele>28.0</ele><time>2026-03-29T13:45:27.002Z</time></trkpt><trkpt lat="45.95170110791457" lon="12.580704243297738"><ele>28.666666666666668</ele><time>2026-03-29T13:45:28.002Z</time></trkpt><trkpt lat="45.95186153904752" lon="12.580814999367892"><ele>29.333333333333336</ele><time>2026-03-29T13:45:29.002Z</time></trkpt><trkpt lat="45.95201825375669" lon="12.580927814257386"><ele>30.0</ele><time>2026-03-29T13:45:30.002Z</time></trkpt><trkpt lat="45.95216955402307" lon="12.581032915346892"><ele>30.0</ele><time>2026-03-29T13:45:31.002Z</time></trkpt><trkpt lat="45.95231469684686" lon="12.581133862376971"><ele>30.0</ele><time>2026-03-29T13:45:32.002Z</time></trkpt><trkpt lat="45.95246079526911" lon="12.581233617291028"><ele>30.0</ele><time>2026-03-29T13:45:33.002Z</time></trkpt><trkpt lat="45.952609002294516" lon="12.581330453681607"><ele>29.333333333333336</ele><time>2026-03-29T13:45:34.002Z</time></trkpt><trkpt lat="45.952758235083124" lon="12.581420525068575"><ele>28.666666666666668</ele><time>2026-03-29T13:45:35.002Z</time></trkpt><trkpt lat="45.95290859840365" lon="12.581500746860437"><ele>28.0</ele><time>2026-03-29T13:45:36.002Z</time></trkpt><trkpt lat="45.953049921840865" lon="12.581572042700712"><ele>28.0</ele><time>2026-03-29T13:45:37.002Z</time></trkpt><trkpt lat="45.953186185058335" lon="12.581638319511523"><ele>28.0</ele><time>2026-03-29T13:45:38.002Z</time></trkpt><trkpt lat="45.95331568484648" lon="12.58170658240622"><ele>28.0</ele><time>2026-03-29T13:45:39Z</time></trkpt><trkpt lat="45.95344403952744" lon="12.581776678371686"><ele>28.0</ele><time>2026-03-29T13:45:40Z</time></trkpt><trkpt lat="45.95357704623093" lon="12.5818465139802"><ele>27.75</ele><time>2026-03-29T13:45:41Z</time></trkpt><trkpt lat="45.95370760434889" lon="12.581918455025415"><ele>27.5</ele><time>2026-03-29T13:45:42Z</time></trkpt><trkpt lat="45.95383420882627" lon="12.581995085896608"><ele>27.25</ele><time>2026-03-29T13:45:43Z</time></trkpt><trkpt lat="45.95395867939059" lon="12.58207816984119"><ele>27.0</ele><time>2026-03-29T13:45:44Z</time></trkpt><trkpt lat="45.95407925534376" lon="12.582166722701881"><ele>27.0</ele><time>2026-03-29T13:45:45Z</time></trkpt><trkpt lat="45.954202885046804" lon="12.582253757948168"><ele>27.0</ele><time>2026-03-29T13:45:46Z</time></trkpt><trkpt lat="45.954328893555335" lon="12.582341870293538"><ele>27.0</ele><time>2026-03-29T13:45:47Z</time></trkpt><trkpt lat="45.95445666103694" lon="12.582431862655381"><ele>27.0</ele><time>2026-03-29T13:45:48Z</time></trkpt><trkpt lat="45.95458907200543" lon="12.58252036566827"><ele>26.333333333333336</ele><time>2026-03-29T13:45:49Z</time></trkpt><trkpt lat="45.954725211814704" lon="12.58261254656717"><ele>25.666666666666668</ele><time>2026-03-29T13:45:50Z</time></trkpt><trkpt lat="45.954866653944094" lon="12.58270630424641"><ele>25.0</ele><time>2026-03-29T13:45:51Z</time></trkpt><trkpt lat="45.9550104561888" lon="12.582799996470882"><ele>25.666666666666668</ele><time>2026-03-29T13:45:52Z</time></trkpt><trkpt lat="45.95515726713568" lon="12.582899550418743"><ele>26.333333333333336</ele><time>2026-03-29T13:45:53Z</time></trkpt><trkpt lat="45.95530656583156" lon="12.582998839865773"><ele>27.0</ele><time>2026-03-29T13:45:54Z</time></trkpt><trkpt lat="45.955466051279785" lon="12.583089669402536"><ele>27.0</ele><time>2026-03-29T13:45:55Z</time></trkpt><trkpt lat="45.95563115171093" lon="12.583167401160493"><ele>27.0</ele><time>2026-03-29T13:45:56Z</time></trkpt><trkpt lat="45.955791841312255" lon="12.583226269489133"><ele>27.0</ele><time>2026-03-29T13:45:57Z</time></trkpt><trkpt lat="45.95595675080212" lon="12.583275110511"><ele>26.666666666666664</ele><time>2026-03-29T13:45:58Z</time></trkpt><trkpt lat="45.95613062377022" lon="12.58332020457381"><ele>26.333333333333332</ele><time>2026-03-29T13:45:59Z</time></trkpt><trkpt lat="45.95630770832567" lon="12.583364655606776"><ele>26.0</ele><time>2026-03-29T13:46:00Z</time></trkpt><trkpt lat="45.95648109274471" lon="12.5834098642707"><ele>26.0</ele><time>2026-03-29T13:46:01Z</time></trkpt><trkpt lat="45.95664278241593" lon="12.583457017669188"><ele>26.0</ele><time>2026-03-29T13:46:02Z</time></trkpt><trkpt lat="45.956798391806295" lon="12.583506749724178"><ele>26.0</ele><time>2026-03-29T13:46:03Z</time></trkpt><trkpt lat="45.956941188853726" lon="12.58356473292097"><ele>26.0</ele><time>2026-03-29T13:46:04Z</time></trkpt><trkpt lat="45.95707648427251" lon="12.583631812067695"><ele>26.0</ele><time>2026-03-29T13:46:05Z</time></trkpt><trkpt lat="45.95719633003894" lon="12.583714905719628"><ele>26.0</ele><time>2026-03-29T13:46:06Z</time></trkpt><trkpt lat="45.95730210803035" lon="12.583806380095144"><ele>26.0</ele><time>2026-03-29T13:46:07Z</time></trkpt><trkpt lat="45.95738840399489" lon="12.583908167825"><ele>26.0</ele><time>2026-03-29T13:46:08Z</time></trkpt><trkpt lat="45.95744956106241" lon="12.584018155880381"><ele>26.0</ele><time>2026-03-29T13:46:09Z</time></trkpt><trkpt lat="45.9574916277255" lon="12.5841420011167"><ele>26.0</ele><time>2026-03-29T13:46:10Z</time></trkpt><trkpt lat="45.9575004796863" lon="12.58427176255204"><ele>26.0</ele><time>2026-03-29T13:46:11Z</time></trkpt><trkpt lat="45.95749865886255" lon="12.584402029466416"><ele>26.0</ele><time>2026-03-29T13:46:12Z</time></trkpt><trkpt lat="45.957498265747034" lon="12.584535554492808"><ele>25.75</ele><time>2026-03-29T13:46:13Z</time></trkpt><trkpt lat="45.95750227567309" lon="12.584681356319962"><ele>25.5</ele><time>2026-03-29T13:46:14Z</time></trkpt><trkpt lat="45.9575093754948" lon="12.584843860803993"><ele>25.25</ele><time>2026-03-29T13:46:15.001Z</time></trkpt><trkpt lat="45.957525549095145" lon="12.585040062119347"><ele>25.0</ele><time>2026-03-29T13:46:16.001Z</time></trkpt><trkpt lat="45.95755305914596" lon="12.58525040554176"><ele>26.0</ele><time>2026-03-29T13:46:17.001Z</time></trkpt><trkpt lat="45.95759868970912" lon="12.585471693521212"><ele>27.0</ele><time>2026-03-29T13:46:18.001Z</time></trkpt><trkpt lat="45.95765642264728" lon="12.585674994148828"><ele>28.0</ele><time>2026-03-29T13:46:19.001Z</time></trkpt><trkpt lat="45.957720751954874" lon="12.585859273791902"><ele>28.0</ele><time>2026-03-29T13:46:20.001Z</time></trkpt><trkpt lat="45.957777669293684" lon="12.586027759743782"><ele>28.0</ele><time>2026-03-29T13:46:21.001Z</time></trkpt><trkpt lat="45.95782562841338" lon="12.586187832939137"><ele>28.0</ele><time>2026-03-29T13:46:22.001Z</time></trkpt><trkpt lat="45.95786058995335" lon="12.586343380965662"><ele>28.0</ele><time>2026-03-29T13:46:23.001Z</time></trkpt><trkpt lat="45.95787465472994" lon="12.586494449182087"><ele>28.0</ele><time>2026-03-29T13:46:24.001Z</time></trkpt><trkpt lat="45.95787388056369" lon="12.586640159697222"><ele>27.999999999999996</ele><time>2026-03-29T13:46:25.001Z</time></trkpt><trkpt lat="45.95785319256447" lon="12.586788336026762"><ele>27.999999999999996</ele><time>2026-03-29T13:46:26.001Z</time></trkpt><trkpt lat="45.95781620024662" lon="12.586933497309957"><ele>28.0</ele><time>2026-03-29T13:46:27.001Z</time></trkpt><trkpt lat="45.95777148269962" lon="12.587055725647026"><ele>28.0</ele><time>2026-03-29T13:46:28.001Z</time></trkpt><trkpt lat="45.95772476565445" lon="12.58716761614994"><ele>28.2</ele><time>2026-03-29T13:46:29.001Z</time></trkpt><trkpt lat="45.957674240058864" lon="12.587267176230046"><ele>28.4</ele><time>2026-03-29T13:46:30.001Z</time></trkpt><trkpt lat="45.95762320265297" lon="12.58735993159022"><ele>28.599999999999998</ele><time>2026-03-29T13:46:31.001Z</time></trkpt><trkpt lat="45.9575661485557" lon="12.587459876350042"><ele>28.799999999999997</ele><time>2026-03-29T13:46:32.001Z</time></trkpt><trkpt lat="45.95750093491397" lon="12.587564286238614"><ele>29.0</ele><time>2026-03-29T13:46:33.001Z</time></trkpt><trkpt lat="45.9574264531032" lon="12.58765155316277"><ele>29.2</ele><time>2026-03-29T13:46:34.001Z</time></trkpt><trkpt lat="45.95735321228825" lon="12.587735882747726"><ele>29.4</ele><time>2026-03-29T13:46:35.001Z</time></trkpt><trkpt lat="45.957290100965146" lon="12.587833001439154"><ele>29.6</ele><time>2026-03-29T13:46:36.001Z</time></trkpt><trkpt lat="45.95725257355041" lon="12.587954209204936"><ele>29.8</ele><time>2026-03-29T13:46:37.001Z</time></trkpt><trkpt lat="45.95724114398814" lon="12.588088924309139"><ele>30.0</ele><time>2026-03-29T13:46:38.001Z</time></trkpt><trkpt lat="45.95725482949933" lon="12.588219897413808"><ele>30.0</ele><time>2026-03-29T13:46:39.001Z</time></trkpt><trkpt lat="45.95729359567036" lon="12.58835553457717"><ele>30.0</ele><time>2026-03-29T13:46:40.001Z</time></trkpt><trkpt lat="45.95734793632204" lon="12.58849058793807"><ele>30.0</ele><time>2026-03-29T13:46:41.001Z</time></trkpt><trkpt lat="45.95741806409487" lon="12.58862520074766"><ele>30.0</ele><time>2026-03-29T13:46:42.001Z</time></trkpt><trkpt lat="45.95748813257263" lon="12.588764240793452"><ele>30.0</ele><time>2026-03-29T13:46:43.001Z</time></trkpt><trkpt lat="45.95754334716012" lon="12.588918168183715"><ele>29.5</ele><time>2026-03-29T13:46:44.001Z</time></trkpt><trkpt lat="45.95758782038489" lon="12.589080734214646"><ele>29.0</ele><time>2026-03-29T13:46:45.001Z</time></trkpt><trkpt lat="45.957622459000795" lon="12.589252583441302"><ele>28.5</ele><time>2026-03-29T13:46:46.001Z</time></trkpt><trkpt lat="45.95764821141405" lon="12.589427420075493"><ele>28.0</ele><time>2026-03-29T13:46:47.001Z</time></trkpt><trkpt lat="45.95767164492091" lon="12.589603536947395"><ele>27.5</ele><time>2026-03-29T13:46:48.001Z</time></trkpt><trkpt lat="45.95768745617314" lon="12.589781540508111"><ele>27.0</ele><time>2026-03-29T13:46:49.001Z</time></trkpt><trkpt lat="45.957702004397675" lon="12.58995815623497"><ele>26.5</ele><time>2026-03-29T13:46:50.001Z</time></trkpt><trkpt lat="45.95771694558478" lon="12.590137050245703"><ele>26.0</ele><time>2026-03-29T13:46:51.001Z</time></trkpt><trkpt lat="45.95773139545594" lon="12.590320919647292"><ele>25.75</ele><time>2026-03-29T13:46:52.001Z</time></trkpt><trkpt lat="45.957746903164804" lon="12.590507712262532"><ele>25.5</ele><time>2026-03-29T13:46:53.001Z</time></trkpt><trkpt lat="45.95776027831211" lon="12.59069559363567"><ele>25.25</ele><time>2026-03-29T13:46:54.001Z</time></trkpt><trkpt lat="45.95777915474515" lon="12.59088336947437"><ele>25.0</ele><time>2026-03-29T13:46:55.001Z</time></trkpt><trkpt lat="45.95779630661064" lon="12.591067419658676"><ele>25.4</ele><time>2026-03-29T13:46:56.001Z</time></trkpt><trkpt lat="45.95781290239648" lon="12.591236632571327"><ele>25.8</ele><time>2026-03-29T13:46:57.001Z</time></trkpt><trkpt lat="45.95782342409741" lon="12.591396692404576"><ele>26.200000000000003</ele><time>2026-03-29T13:46:58.001Z</time></trkpt><trkpt lat="45.95783552876859" lon="12.591546580551077"><ele>26.6</ele><time>2026-03-29T13:46:59.001Z</time></trkpt><trkpt lat="45.957847093154285" lon="12.591685663075847"><ele>27.0</ele><time>2026-03-29T13:47:00.001Z</time></trkpt><trkpt lat="45.957859869157176" lon="12.591821724568513"><ele>27.0</ele><time>2026-03-29T13:47:01.001Z</time></trkpt><trkpt lat="45.95787529257639" lon="12.591967767881762"><ele>27.000000000000004</ele><time>2026-03-29T13:47:02.001Z</time></trkpt><trkpt lat="45.95788928638425" lon="12.592118810259262"><ele>27.000000000000004</ele><time>2026-03-29T13:47:03.001Z</time></trkpt><trkpt lat="45.957903389260295" lon="12.592274121534036"><ele>27.0</ele><time>2026-03-29T13:47:04.001Z</time></trkpt><trkpt lat="45.95791763275825" lon="12.59243283331519"><ele>27.0</ele><time>2026-03-29T13:47:05.001Z</time></trkpt><trkpt lat="45.95792785388414" lon="12.592596144297385"><ele>27.5</ele><time>2026-03-29T13:47:06.001Z</time></trkpt><trkpt lat="45.95793737578423" lon="12.59276262207681"><ele>28.0</ele><time>2026-03-29T13:47:07.001Z</time></trkpt><trkpt lat="45.95795112660363" lon="12.592930283979612"><ele>28.5</ele><time>2026-03-29T13:47:08.001Z</time></trkpt><trkpt lat="45.957965304979844" lon="12.593102359423774"><ele>29.0</ele><time>2026-03-29T13:47:09.001Z</time></trkpt><trkpt lat="45.95797764629293" lon="12.59327765644385"><ele>29.0</ele><time>2026-03-29T13:47:10.001Z</time></trkpt><trkpt lat="45.95798984952128" lon="12.593456597818262"><ele>29.0</ele><time>2026-03-29T13:47:11.001Z</time></trkpt><trkpt lat="45.957999180013005" lon="12.593635728063852"><ele>29.0</ele><time>2026-03-29T13:47:12.001Z</time></trkpt><trkpt lat="45.9580034647664" lon="12.593821237320366"><ele>29.0</ele><time>2026-03-29T13:47:13.001Z</time></trkpt><trkpt lat="45.95800075833815" lon="12.594007636250407"><ele>29.5</ele><time>2026-03-29T13:47:14.001Z</time></trkpt><trkpt lat="45.95799733302915" lon="12.594195615888637"><ele>30.0</ele><time>2026-03-29T13:47:15.001Z</time></trkpt><trkpt lat="45.957994743184564" lon="12.594384035953901"><ele>30.5</ele><time>2026-03-29T13:47:16.001Z</time></trkpt><trkpt lat="45.957986730706516" lon="12.594574549787815"><ele>31.0</ele><time>2026-03-29T13:47:17.001Z</time></trkpt><trkpt lat="45.957980627051576" lon="12.594765482950317"><ele>31.0</ele><time>2026-03-29T13:47:18.001Z</time></trkpt><trkpt lat="45.957974163570796" lon="12.594952079008044"><ele>31.0</ele><time>2026-03-29T13:47:19.001Z</time></trkpt><trkpt lat="45.957972527029646" lon="12.595137024765013"><ele>31.0</ele><time>2026-03-29T13:47:20.001Z</time></trkpt><trkpt lat="45.957968109180115" lon="12.59531856307264"><ele>31.0</ele><time>2026-03-29T13:47:21.001Z</time></trkpt><trkpt lat="45.957961163166786" lon="12.59549167384528"><ele>31.0</ele><time>2026-03-29T13:47:22.002Z</time></trkpt><trkpt lat="45.957956302625206" lon="12.595657238452528"><ele>31.0</ele><time>2026-03-29T13:47:23.002Z</time></trkpt><trkpt lat="45.957949399321016" lon="12.595821259348336"><ele>31.0</ele><time>2026-03-29T13:47:24.002Z</time></trkpt><trkpt lat="45.95794404681322" lon="12.595976242695137"><ele>31.0</ele><time>2026-03-29T13:47:25.002Z</time></trkpt><trkpt lat="45.95793541012205" lon="12.596127010175374"><ele>31.0</ele><time>2026-03-29T13:47:26.002Z</time></trkpt><trkpt lat="45.957928596483946" lon="12.59627011732545"><ele>30.5</ele><time>2026-03-29T13:47:27.002Z</time></trkpt><trkpt lat="45.9579293053306" lon="12.59641899103812"><ele>30.0</ele><time>2026-03-29T13:47:28.002Z</time></trkpt><trkpt lat="45.95793209072008" lon="12.59657666360439"><ele>29.5</ele><time>2026-03-29T13:47:29.002Z</time></trkpt><trkpt lat="45.95793583555121" lon="12.596747047591636"><ele>29.0</ele><time>2026-03-29T13:47:30.002Z</time></trkpt><trkpt lat="45.957953787634445" lon="12.596922528953588"><ele>28.75</ele><time>2026-03-29T13:47:31.002Z</time></trkpt><trkpt lat="45.95798397305322" lon="12.597103980457888"><ele>28.5</ele><time>2026-03-29T13:47:32.002Z</time></trkpt><trkpt lat="45.95802684746593" lon="12.59728422790581"><ele>28.25</ele><time>2026-03-29T13:47:33.002Z</time></trkpt><trkpt lat="45.95808147378281" lon="12.597462526945199"><ele>28.0</ele><time>2026-03-29T13:47:34.002Z</time></trkpt><trkpt lat="45.958147103413154" lon="12.597639767341427"><ele>28.0</ele><time>2026-03-29T13:47:35.002Z</time></trkpt><trkpt lat="45.958222118747194" lon="12.597820506480252"><ele>28.0</ele><time>2026-03-29T13:47:36.002Z</time></trkpt><trkpt lat="45.95830238028774" lon="12.598003276108665"><ele>28.0</ele><time>2026-03-29T13:47:37.002Z</time></trkpt><trkpt lat="45.95838224599516" lon="12.598182395715211"><ele>28.0</ele><time>2026-03-29T13:47:38.002Z</time></trkpt><trkpt lat="45.95845908033743" lon="12.598355868843676"><ele>28.5</ele><time>2026-03-29T13:47:39.002Z</time></trkpt><trkpt lat="45.958539072518064" lon="12.598533711012635"><ele>29.0</ele><time>2026-03-29T13:47:40.002Z</time></trkpt><trkpt lat="45.958615894104774" lon="12.598707023143115"><ele>29.5</ele><time>2026-03-29T13:47:41.002Z</time></trkpt><trkpt lat="45.95869052098813" lon="12.598877656193794"><ele>30.0</ele><time>2026-03-29T13:47:42.002Z</time></trkpt><trkpt lat="45.95876189734301" lon="12.59904321445867"><ele>30.25</ele><time>2026-03-29T13:47:43.002Z</time></trkpt><trkpt lat="45.95882971036261" lon="12.59920280180885"><ele>30.5</ele><time>2026-03-29T13:47:44.002Z</time></trkpt><trkpt lat="45.95889666775622" lon="12.599358863708895"><ele>30.75</ele><time>2026-03-29T13:47:45Z</time></trkpt><trkpt lat="45.958960773584614" lon="12.599510254481379"><ele>31.0</ele><time>2026-03-29T13:47:46Z</time></trkpt><trkpt lat="45.95902385374986" lon="12.599659782767096"><ele>31.0</ele><time>2026-03-29T13:47:47Z</time></trkpt><trkpt lat="45.959084865402936" lon="12.599803369541226"><ele>31.0</ele><time>2026-03-29T13:47:48Z</time></trkpt><trkpt lat="45.95914578369005" lon="12.599947585086403"><ele>31.0</ele><time>2026-03-29T13:47:49Z</time></trkpt><trkpt lat="45.959205371688455" lon="12.60009255891117"><ele>31.0</ele><time>2026-03-29T13:47:50Z</time></trkpt><trkpt lat="45.95925746530282" lon="12.600237220497094"><ele>30.75</ele><time>2026-03-29T13:47:51Z</time></trkpt><trkpt lat="45.95930192303576" lon="12.600387963812484"><ele>30.5</ele><time>2026-03-29T13:47:52Z</time></trkpt><trkpt lat="45.959341988653684" lon="12.60054111313692"><ele>30.25</ele><time>2026-03-29T13:47:53Z</time></trkpt><trkpt lat="45.9593793664294" lon="12.60069710071348"><ele>30.0</ele><time>2026-03-29T13:47:54Z</time></trkpt><trkpt lat="45.959418116761505" lon="12.600854764275173"><ele>30.0</ele><time>2026-03-29T13:47:55Z</time></trkpt><trkpt lat="45.95945803383486" lon="12.601013851837363"><ele>30.0</ele><time>2026-03-29T13:47:56Z</time></trkpt><trkpt lat="45.959498148700966" lon="12.601175215391509"><ele>30.0</ele><time>2026-03-29T13:47:57Z</time></trkpt><trkpt lat="45.959539862682696" lon="12.601334830706152"><ele>30.0</ele><time>2026-03-29T13:47:58Z</time></trkpt><trkpt lat="45.95957956532075" lon="12.601486433312266"><ele>30.0</ele><time>2026-03-29T13:47:59Z</time></trkpt><trkpt lat="45.95961593837051" lon="12.60164660097489"><ele>30.0</ele><time>2026-03-29T13:48:00Z</time></trkpt><trkpt lat="45.95965826772283" lon="12.601804333342278"><ele>30.0</ele><time>2026-03-29T13:48:01Z</time></trkpt><trkpt lat="45.959698119078546" lon="12.601964588343852"><ele>30.0</ele><time>2026-03-29T13:48:02Z</time></trkpt><trkpt lat="45.9597376798353" lon="12.602124560136449"><ele>29.75</ele><time>2026-03-29T13:48:03Z</time></trkpt><trkpt lat="45.95977686437588" lon="12.602283498000768"><ele>29.5</ele><time>2026-03-29T13:48:04Z</time></trkpt><trkpt lat="45.95981635065263" lon="12.602441940703576"><ele>29.25</ele><time>2026-03-29T13:48:05Z</time></trkpt><trkpt lat="45.95985759180415" lon="12.602603061770223"><ele>29.0</ele><time>2026-03-29T13:48:06Z</time></trkpt><trkpt lat="45.959895262097106" lon="12.602755098768075"><ele>29.0</ele><time>2026-03-29T13:48:07Z</time></trkpt><trkpt lat="45.9599316925095" lon="12.602911800750064"><ele>29.0</ele><time>2026-03-29T13:48:08Z</time></trkpt><trkpt lat="45.959967744153545" lon="12.603067133908407"><ele>29.0</ele><time>2026-03-29T13:48:09Z</time></trkpt><trkpt lat="45.960009875964694" lon="12.603227172251911"><ele>29.0</ele><time>2026-03-29T13:48:10Z</time></trkpt><trkpt lat="45.96005067656989" lon="12.603381937782276"><ele>28.75</ele><time>2026-03-29T13:48:11Z</time></trkpt><trkpt lat="45.9600882734171" lon="12.603541126291422"><ele>28.5</ele><time>2026-03-29T13:48:12Z</time></trkpt><trkpt lat="45.9601271968319" lon="12.60369832389729"><ele>28.25</ele><time>2026-03-29T13:48:13Z</time></trkpt><trkpt lat="45.960164555578395" lon="12.603849896303863"><ele>28.0</ele><time>2026-03-29T13:48:14Z</time></trkpt><trkpt lat="45.9602005317581" lon="12.603998280133835"><ele>28.4</ele><time>2026-03-29T13:48:15Z</time></trkpt><trkpt lat="45.96023316808949" lon="12.604140083800255"><ele>28.799999999999997</ele><time>2026-03-29T13:48:16Z</time></trkpt><trkpt lat="45.96026451075475" lon="12.604275178868406"><ele>29.2</ele><time>2026-03-29T13:48:17Z</time></trkpt><trkpt lat="45.960297521979115" lon="12.604410670246299"><ele>29.6</ele><time>2026-03-29T13:48:18Z</time></trkpt><trkpt lat="45.96033329811955" lon="12.604546043080736"><ele>30.0</ele><time>2026-03-29T13:48:19Z</time></trkpt><trkpt lat="45.960371025929895" lon="12.604678778562743"><ele>30.25</ele><time>2026-03-29T13:48:20.001Z</time></trkpt><trkpt lat="45.96041236129415" lon="12.60483275323292"><ele>30.5</ele><time>2026-03-29T13:48:21.001Z</time></trkpt><trkpt lat="45.96045419201633" lon="12.605002549034413"><ele>30.75</ele><time>2026-03-29T13:48:22.001Z</time></trkpt><trkpt lat="45.960492876787605" lon="12.605165726366437"><ele>31.0</ele><time>2026-03-29T13:48:23.001Z</time></trkpt><trkpt lat="45.96052793872319" lon="12.605317042235432"><ele>30.8</ele><time>2026-03-29T13:48:24.001Z</time></trkpt><trkpt lat="45.96056263116356" lon="12.605460354915094"><ele>30.6</ele><time>2026-03-29T13:48:25.001Z</time></trkpt><trkpt lat="45.96059969335308" lon="12.605605266358166"><ele>30.4</ele><time>2026-03-29T13:48:26.001Z</time></trkpt><trkpt lat="45.960628106379566" lon="12.605750945579857"><ele>30.2</ele><time>2026-03-29T13:48:27.001Z</time></trkpt><trkpt lat="45.960647474563565" lon="12.605900058201325"><ele>30.0</ele><time>2026-03-29T13:48:28.001Z</time></trkpt><trkpt lat="45.96065935357074" lon="12.606040408398686"><ele>30.0</ele><time>2026-03-29T13:48:29.001Z</time></trkpt><trkpt lat="45.960654500387506" lon="12.606172071319639"><ele>30.0</ele><time>2026-03-29T13:48:30.001Z</time></trkpt><trkpt lat="45.96063748574245" lon="12.60629250557832"><ele>30.0</ele><time>2026-03-29T13:48:31.001Z</time></trkpt><trkpt lat="45.960614989636404" lon="12.60640741566263"><ele>30.0</ele><time>2026-03-29T13:48:32.001Z</time></trkpt><trkpt lat="45.96058841037544" lon="12.606511198748542"><ele>30.0</ele><time>2026-03-29T13:48:33.001Z</time></trkpt><trkpt lat="45.96055641387645" lon="12.606606774722119"><ele>30.0</ele><time>2026-03-29T13:48:34.001Z</time></trkpt><trkpt lat="45.9605101744083" lon="12.606686669743732"><ele>30.0</ele><time>2026-03-29T13:48:35.001Z</time></trkpt><trkpt lat="45.96045522105047" lon="12.606750043870676"><ele>30.0</ele><time>2026-03-29T13:48:36.001Z</time></trkpt><trkpt lat="45.96038888064261" lon="12.606808541679628"><ele>30.0</ele><time>2026-03-29T13:48:37.001Z</time></trkpt><trkpt lat="45.96031232354136" lon="12.60685598803945"><ele>30.0</ele><time>2026-03-29T13:48:38.001Z</time></trkpt><trkpt lat="45.96023272367237" lon="12.606898071175936"><ele>30.0</ele><time>2026-03-29T13:48:39.001Z</time></trkpt><trkpt lat="45.96015749247725" lon="12.606934306659143"><ele>30.0</ele><time>2026-03-29T13:48:40.001Z</time></trkpt><trkpt lat="45.96009415988466" lon="12.60697157007902"><ele>30.0</ele><time>2026-03-29T13:48:41.001Z</time></trkpt><trkpt lat="45.96001805676037" lon="12.607055773394775"><ele>29.0</ele><time>2026-03-29T13:48:43.001Z</time></trkpt><trkpt lat="45.9600533562258" lon="12.607148174863829"><ele>30.0</ele><time>2026-03-29T13:48:47.001Z</time></trkpt><trkpt lat="45.960104142332504" lon="12.607206778159853"><ele>30.0</ele><time>2026-03-29T13:48:49.001Z</time></trkpt><trkpt lat="45.96015907846553" lon="12.60731069431061"><ele>30.0</ele><time>2026-03-29T13:48:52.001Z</time></trkpt><trkpt lat="45.96018015228844" lon="12.607412266608652"><ele>30.0</ele><time>2026-03-29T13:48:55.001Z</time></trkpt></trkseg></trk></gpx>